<?xml version='1.0' encoding='UTF-8'?><gpx version="1.1" creator="JPX - https://github.com/jenetics/jpx" xmlns="http://www.topografix.com/GPX/1/1"><trk><trkseg><trkpt lat="43.5388445" lon="12.2429446"><ele>415.00000000000006</ele><time>2026-04-18T07:36:34.993Z</time></trkpt><trkpt lat="43.5388217" lon="12.2428316"><ele>415.0</ele><time>2026-04-18T07:36:39.949Z</time></trkpt><trkpt lat="43.538859" lon="12.2427566"><ele>415.0</ele><time>2026-04-18T07:36:42.949Z</time></trkpt><trkpt lat="43.5388711" lon="12.2426618"><ele>415.0</ele><time>2026-04-18T07:36:45.948Z</time></trkpt><trkpt lat="43.5388343" lon="12.2425591"><ele>415.00000000000006</ele><time>2026-04-18T07:36:48.95Z</time></trkpt><trkpt lat="43.5387987" lon="12.2424742"><ele>415.0</ele><time>2026-04-18T07:36:49.95Z</time></trkpt><trkpt lat="43.5387235" lon="12.2423288"><ele>410.2</ele><time>2026-04-18T07:36:51.948Z</time></trkpt><trkpt lat="43.5386792" lon="12.2422159"><ele>405.4</ele><time>2026-04-18T07:36:52.949Z</time></trkpt><trkpt lat="43.5386331" lon="12.2421027"><ele>400.6</ele><time>2026-04-18T07:36:53.95Z</time></trkpt><trkpt lat="43.5385812" lon="12.2419586"><ele>395.8</ele><time>2026-04-18T07:36:54.949Z</time></trkpt><trkpt lat="43.5385152" lon="12.2418229"><ele>391.0</ele><time>2026-04-18T07:36:55.949Z</time></trkpt><trkpt lat="43.5384571" lon="12.2416767"><ele>391.75</ele><time>2026-04-18T07:36:56.949Z</time></trkpt><trkpt lat="43.5383649" lon="12.2414028"><ele>392.5</ele><time>2026-04-18T07:36:58.948Z</time></trkpt><trkpt lat="43.538309" lon="12.2412193"><ele>393.25</ele><time>2026-04-18T07:37:00.949Z</time></trkpt><trkpt lat="43.5382852" lon="12.241126"><ele>394.0</ele><time>2026-04-18T07:37:01.948Z</time></trkpt><trkpt lat="43.538254" lon="12.2409779"><ele>394.0</ele><time>2026-04-18T07:37:03.949Z</time></trkpt><trkpt lat="43.5382162" lon="12.2408288"><ele>394.0</ele><time>2026-04-18T07:37:05.948Z</time></trkpt><trkpt lat="43.5381569" lon="12.2406229"><ele>394.0</ele><time>2026-04-18T07:37:07.949Z</time></trkpt><trkpt lat="43.5381258" lon="12.2405083"><ele>394.0</ele><time>2026-04-18T07:37:08.949Z</time></trkpt><trkpt lat="43.5380905" lon="12.2403745"><ele>392.79999999999995</ele><time>2026-04-18T07:37:09.948Z</time></trkpt><trkpt lat="43.5380557" lon="12.2402384"><ele>391.59999999999997</ele><time>2026-04-18T07:37:10.95Z</time></trkpt><trkpt lat="43.5380153" lon="12.2400886"><ele>390.4</ele><time>2026-04-18T07:37:11.949Z</time></trkpt><trkpt lat="43.5379684" lon="12.2399444"><ele>389.2</ele><time>2026-04-18T07:37:12.95Z</time></trkpt><trkpt lat="43.5379155" lon="12.2398169"><ele>388.0</ele><time>2026-04-18T07:37:13.95Z</time></trkpt><trkpt lat="43.5378672" lon="12.2397249"><ele>388.0</ele><time>2026-04-18T07:37:14.948Z</time></trkpt><trkpt lat="43.5378199" lon="12.2396008"><ele>388.0</ele><time>2026-04-18T07:37:15.949Z</time></trkpt><trkpt lat="43.5377907" lon="12.2395094"><ele>388.0</ele><time>2026-04-18T07:37:16.948Z</time></trkpt><trkpt lat="43.5377231" lon="12.2393628"><ele>388.0</ele><time>2026-04-18T07:37:18.948Z</time></trkpt><trkpt lat="43.537648" lon="12.2392508"><ele>388.0</ele><time>2026-04-18T07:37:20.948Z</time></trkpt><trkpt lat="43.5376258" lon="12.2393446"><ele>388.00000000000006</ele><time>2026-04-18T07:37:22.949Z</time></trkpt><trkpt lat="43.5375532" lon="12.2393897"><ele>388.0</ele><time>2026-04-18T07:37:24.948Z</time></trkpt><trkpt lat="43.5374672" lon="12.2393948"><ele>388.0</ele><time>2026-04-18T07:37:27.949Z</time></trkpt><trkpt lat="43.5373887" lon="12.2394187"><ele>388.0</ele><time>2026-04-18T07:37:29.948Z</time></trkpt><trkpt lat="43.5373115" lon="12.2394634"><ele>388.00000000000006</ele><time>2026-04-18T07:37:31.948Z</time></trkpt><trkpt lat="43.5372519" lon="12.2395045"><ele>388.0</ele><time>2026-04-18T07:37:33.948Z</time></trkpt><trkpt lat="43.5371833" lon="12.2395483"><ele>388.00000000000006</ele><time>2026-04-18T07:37:35.95Z</time></trkpt><trkpt lat="43.5370929" lon="12.2396021"><ele>388.0</ele><time>2026-04-18T07:37:38.949Z</time></trkpt><trkpt lat="43.5370256" lon="12.2396474"><ele>388.0</ele><time>2026-04-18T07:37:41.95Z</time></trkpt><trkpt lat="43.5369678" lon="12.2397148"><ele>388.0</ele><time>2026-04-18T07:37:45.948Z</time></trkpt><trkpt lat="43.5369125" lon="12.2397798"><ele>388.00000000000006</ele><time>2026-04-18T07:37:49.949Z</time></trkpt><trkpt lat="43.5368544" lon="12.2398342"><ele>388.0</ele><time>2026-04-18T07:37:52.95Z</time></trkpt><trkpt lat="43.5367986" lon="12.2398993"><ele>389.50000000000006</ele><time>2026-04-18T07:37:55.95Z</time></trkpt><trkpt lat="43.5367323" lon="12.2399617"><ele>391.0</ele><time>2026-04-18T07:37:57.948Z</time></trkpt><trkpt lat="43.5366656" lon="12.2400471"><ele>392.5</ele><time>2026-04-18T07:37:59.948Z</time></trkpt><trkpt lat="43.5365936" lon="12.2401011"><ele>394.0</ele><time>2026-04-18T07:38:01.949Z</time></trkpt><trkpt lat="43.5365137" lon="12.2401321"><ele>395.50000000000006</ele><time>2026-04-18T07:38:04.95Z</time></trkpt><trkpt lat="43.5364431" lon="12.2401767"><ele>397.0</ele><time>2026-04-18T07:38:07.95Z</time></trkpt><trkpt lat="43.5363761" lon="12.2402035"><ele>397.0</ele><time>2026-04-18T07:38:09.949Z</time></trkpt><trkpt lat="43.5362066" lon="12.2403249"><ele>397.0</ele><time>2026-04-18T07:38:12.949Z</time></trkpt><trkpt lat="43.536141" lon="12.2403376"><ele>397.0</ele><time>2026-04-18T07:38:15.949Z</time></trkpt><trkpt lat="43.5361737" lon="12.2404337"><ele>397.0</ele><time>2026-04-18T07:38:20.949Z</time></trkpt><trkpt lat="43.5362487" lon="12.2404657"><ele>397.0</ele><time>2026-04-18T07:38:23.949Z</time></trkpt><trkpt lat="43.5362971" lon="12.2405344"><ele>397.0</ele><time>2026-04-18T07:38:29.018Z</time></trkpt><trkpt lat="43.5363748" lon="12.2405717"><ele>397.0</ele><time>2026-04-18T07:38:44.95Z</time></trkpt><trkpt lat="43.536559" lon="12.2406993"><ele>397.0</ele><time>2026-04-18T07:38:47.95Z</time></trkpt><trkpt lat="43.5366081" lon="12.2408176"><ele>397.0</ele><time>2026-04-18T07:38:49.95Z</time></trkpt><trkpt lat="43.5366032" lon="12.240943"><ele>400.40000000000003</ele><time>2026-04-18T07:38:51.949Z</time></trkpt><trkpt lat="43.5366232" lon="12.2410535"><ele>403.8</ele><time>2026-04-18T07:38:52.948Z</time></trkpt><trkpt lat="43.5366226" lon="12.241252"><ele>407.2</ele><time>2026-04-18T07:38:54.949Z</time></trkpt><trkpt lat="43.5366504" lon="12.2413899"><ele>410.6</ele><time>2026-04-18T07:38:56.949Z</time></trkpt><trkpt lat="43.5366906" lon="12.2415318"><ele>414.0</ele><time>2026-04-18T07:38:58.949Z</time></trkpt><trkpt lat="43.5367363" lon="12.2416413"><ele>418.4</ele><time>2026-04-18T07:39:00.949Z</time></trkpt><trkpt lat="43.5367864" lon="12.2417633"><ele>422.79999999999995</ele><time>2026-04-18T07:39:02.949Z</time></trkpt><trkpt lat="43.5368356" lon="12.2418858"><ele>427.20000000000005</ele><time>2026-04-18T07:39:04.948Z</time></trkpt><trkpt lat="43.5368489" lon="12.2420093"><ele>431.6</ele><time>2026-04-18T07:39:06.949Z</time></trkpt><trkpt lat="43.5368766" lon="12.2421318"><ele>436.0</ele><time>2026-04-18T07:39:08.949Z</time></trkpt><trkpt lat="43.5368793" lon="12.2423148"><ele>438.33333333333337</ele><time>2026-04-18T07:39:10.949Z</time></trkpt><trkpt lat="43.5368783" lon="12.2424208"><ele>440.6666666666667</ele><time>2026-04-18T07:39:12.95Z</time></trkpt><trkpt lat="43.5368833" lon="12.2425422"><ele>443.0</ele><time>2026-04-18T07:39:15.949Z</time></trkpt><trkpt lat="43.5368027" lon="12.2425261"><ele>445.33333333333337</ele><time>2026-04-18T07:39:25.949Z</time></trkpt><trkpt lat="43.5367401" lon="12.2425513"><ele>447.6666666666667</ele><time>2026-04-18T07:39:32.949Z</time></trkpt><trkpt lat="43.536676" lon="12.2426164"><ele>450.0</ele><time>2026-04-18T07:39:37.949Z</time></trkpt><trkpt lat="43.5365891" lon="12.242642"><ele>450.0</ele><time>2026-04-18T07:39:40.95Z</time></trkpt><trkpt lat="43.5364904" lon="12.2426461"><ele>450.0</ele><time>2026-04-18T07:39:42.95Z</time></trkpt><trkpt lat="43.5363937" lon="12.2427242"><ele>450.0</ele><time>2026-04-18T07:39:43.948Z</time></trkpt><trkpt lat="43.5363368" lon="12.2426757"><ele>450.0</ele><time>2026-04-18T07:39:45.95Z</time></trkpt><trkpt lat="43.5362695" lon="12.2426686"><ele>450.0</ele><time>2026-04-18T07:39:47.949Z</time></trkpt><trkpt lat="43.5361962" lon="12.2426869"><ele>450.0</ele><time>2026-04-18T07:39:50.949Z</time></trkpt><trkpt lat="43.5361307" lon="12.2427839"><ele>456.8</ele><time>2026-04-18T07:39:53.948Z</time></trkpt><trkpt lat="43.5361227" lon="12.2429033"><ele>463.6</ele><time>2026-04-18T07:39:55.949Z</time></trkpt><trkpt lat="43.5361553" lon="12.2430326"><ele>470.4</ele><time>2026-04-18T07:39:56.948Z</time></trkpt><trkpt lat="43.5361305" lon="12.2431178"><ele>477.2</ele><time>2026-04-18T07:39:57.949Z</time></trkpt><trkpt lat="43.5361098" lon="12.2432037"><ele>484.0</ele><time>2026-04-18T07:39:58.949Z</time></trkpt><trkpt lat="43.5359794" lon="12.2433255"><ele>484.33333333333337</ele><time>2026-04-18T07:40:00.948Z</time></trkpt><trkpt lat="43.5358863" lon="12.2433244"><ele>484.6666666666667</ele><time>2026-04-18T07:40:01.949Z</time></trkpt><trkpt lat="43.5358243" lon="12.2433045"><ele>485.0</ele><time>2026-04-18T07:40:03.949Z</time></trkpt><trkpt lat="43.5357119" lon="12.2432565"><ele>485.33333333333337</ele><time>2026-04-18T07:40:06.949Z</time></trkpt><trkpt lat="43.5356454" lon="12.2432129"><ele>485.6666666666667</ele><time>2026-04-18T07:40:09.948Z</time></trkpt><trkpt lat="43.5355811" lon="12.2431749"><ele>486.0</ele><time>2026-04-18T07:40:12.95Z</time></trkpt><trkpt lat="43.5355097" lon="12.2431355"><ele>485.6666666666667</ele><time>2026-04-18T07:40:15.949Z</time></trkpt><trkpt lat="43.5354336" lon="12.2431181"><ele>485.33333333333337</ele><time>2026-04-18T07:40:18.949Z</time></trkpt><trkpt lat="43.5353651" lon="12.2431129"><ele>485.0</ele><time>2026-04-18T07:40:20.948Z</time></trkpt><trkpt lat="43.5353035" lon="12.2431526"><ele>484.6666666666667</ele><time>2026-04-18T07:40:22.95Z</time></trkpt><trkpt lat="43.5352314" lon="12.2431498"><ele>484.33333333333337</ele><time>2026-04-18T07:40:24.949Z</time></trkpt><trkpt lat="43.5351585" lon="12.2431265"><ele>484.0</ele><time>2026-04-18T07:40:26.948Z</time></trkpt><trkpt lat="43.5350713" lon="12.2430862"><ele>488.1666666666667</ele><time>2026-04-18T07:40:29.95Z</time></trkpt><trkpt lat="43.5350344" lon="12.243001"><ele>492.33333333333337</ele><time>2026-04-18T07:40:32.949Z</time></trkpt><trkpt lat="43.5349858" lon="12.2429275"><ele>496.5</ele><time>2026-04-18T07:40:35.948Z</time></trkpt><trkpt lat="43.534935" lon="12.2428346"><ele>500.66666666666663</ele><time>2026-04-18T07:40:38.949Z</time></trkpt><trkpt lat="43.5349005" lon="12.2427234"><ele>504.8333333333333</ele><time>2026-04-18T07:40:41.95Z</time></trkpt><trkpt lat="43.5348782" lon="12.2426368"><ele>509.0</ele><time>2026-04-18T07:40:43.949Z</time></trkpt><trkpt lat="43.5349505" lon="12.2425048"><ele>508.99999999999994</ele><time>2026-04-18T07:40:45.949Z</time></trkpt><trkpt lat="43.5349869" lon="12.2424123"><ele>509.0</ele><time>2026-04-18T07:40:47.95Z</time></trkpt><trkpt lat="43.5350539" lon="12.2423068"><ele>509.0</ele><time>2026-04-18T07:40:49.948Z</time></trkpt><trkpt lat="43.5350581" lon="12.2421617"><ele>509.0</ele><time>2026-04-18T07:40:52.949Z</time></trkpt><trkpt lat="43.534989" lon="12.2421917"><ele>508.99999999999994</ele><time>2026-04-18T07:40:53.949Z</time></trkpt><trkpt lat="43.5349105" lon="12.2422191"><ele>509.0</ele><time>2026-04-18T07:40:55.95Z</time></trkpt><trkpt lat="43.5348293" lon="12.2422314"><ele>509.0</ele><time>2026-04-18T07:40:57.95Z</time></trkpt><trkpt lat="43.5347458" lon="12.2422826"><ele>509.0</ele><time>2026-04-18T07:41:00.948Z</time></trkpt><trkpt lat="43.5346529" lon="12.2423267"><ele>509.0</ele><time>2026-04-18T07:41:02.949Z</time></trkpt><trkpt lat="43.5345362" lon="12.2424096"><ele>509.0</ele><time>2026-04-18T07:41:04.949Z</time></trkpt><trkpt lat="43.5344304" lon="12.2424947"><ele>509.0</ele><time>2026-04-18T07:41:06.949Z</time></trkpt><trkpt lat="43.5343661" lon="12.2425773"><ele>513.6666666666666</ele><time>2026-04-18T07:41:08.949Z</time></trkpt><trkpt lat="43.5342939" lon="12.2426444"><ele>518.3333333333333</ele><time>2026-04-18T07:41:10.949Z</time></trkpt><trkpt lat="43.5342664" lon="12.2427226"><ele>523.0</ele><time>2026-04-18T07:41:43.949Z</time></trkpt><trkpt lat="43.5342549" lon="12.2428176"><ele>527.6666666666666</ele><time>2026-04-18T07:41:45.949Z</time></trkpt><trkpt lat="43.5342402" lon="12.2429317"><ele>532.3333333333334</ele><time>2026-04-18T07:41:47.949Z</time></trkpt><trkpt lat="43.5342409" lon="12.2430646"><ele>537.0</ele><time>2026-04-18T07:41:49.949Z</time></trkpt><trkpt lat="43.5342456" lon="12.2432055"><ele>539.1666666666666</ele><time>2026-04-18T07:41:50.948Z</time></trkpt><trkpt lat="43.5342805" lon="12.243305"><ele>541.3333333333334</ele><time>2026-04-18T07:41:52.949Z</time></trkpt><trkpt lat="43.5342912" lon="12.243403"><ele>543.5</ele><time>2026-04-18T07:41:54.948Z</time></trkpt><trkpt lat="43.5343463" lon="12.2434618"><ele>545.6666666666667</ele><time>2026-04-18T07:41:56.949Z</time></trkpt><trkpt lat="43.5343832" lon="12.2435833"><ele>547.8333333333334</ele><time>2026-04-18T07:41:59.949Z</time></trkpt><trkpt lat="43.5344467" lon="12.2436728"><ele>550.0</ele><time>2026-04-18T07:42:01.949Z</time></trkpt><trkpt lat="43.534502" lon="12.2437176"><ele>547.3333333333334</ele><time>2026-04-18T07:42:02.95Z</time></trkpt><trkpt lat="43.5345955" lon="12.2438124"><ele>544.6666666666667</ele><time>2026-04-18T07:42:03.949Z</time></trkpt><trkpt lat="43.5346518" lon="12.2438516"><ele>542.0</ele><time>2026-04-18T07:42:04.949Z</time></trkpt><trkpt lat="43.5347221" lon="12.2439067"><ele>539.3333333333334</ele><time>2026-04-18T07:42:05.949Z</time></trkpt><trkpt lat="43.5347955" lon="12.2439468"><ele>536.6666666666666</ele><time>2026-04-18T07:42:06.949Z</time></trkpt><trkpt lat="43.5348835" lon="12.243978"><ele>534.0</ele><time>2026-04-18T07:42:07.948Z</time></trkpt><trkpt lat="43.5349932" lon="12.2440203"><ele>534.0</ele><time>2026-04-18T07:42:08.948Z</time></trkpt><trkpt lat="43.5351253" lon="12.2440803"><ele>534.0</ele><time>2026-04-18T07:42:09.948Z</time></trkpt><trkpt lat="43.5352293" lon="12.2441326"><ele>534.0</ele><time>2026-04-18T07:42:10.949Z</time></trkpt><trkpt lat="43.5353365" lon="12.2442013"><ele>534.0</ele><time>2026-04-18T07:42:12.95Z</time></trkpt><trkpt lat="43.5354169" lon="12.2442807"><ele>530.1666666666666</ele><time>2026-04-18T07:42:14.948Z</time></trkpt><trkpt lat="43.5355169" lon="12.244368"><ele>526.3333333333334</ele><time>2026-04-18T07:42:16.95Z</time></trkpt><trkpt lat="43.535582" lon="12.2444031"><ele>522.5</ele><time>2026-04-18T07:42:17.949Z</time></trkpt><trkpt lat="43.5356303" lon="12.2444654"><ele>518.6666666666667</ele><time>2026-04-18T07:42:18.949Z</time></trkpt><trkpt lat="43.5356767" lon="12.2445386"><ele>514.8333333333334</ele><time>2026-04-18T07:42:19.948Z</time></trkpt><trkpt lat="43.5357661" lon="12.2446311"><ele>511.0</ele><time>2026-04-18T07:42:21.948Z</time></trkpt><trkpt lat="43.5358609" lon="12.2446973"><ele>511.00000000000006</ele><time>2026-04-18T07:42:22.949Z</time></trkpt><trkpt lat="43.535923" lon="12.2447515"><ele>511.0</ele><time>2026-04-18T07:42:23.948Z</time></trkpt><trkpt lat="43.5359629" lon="12.2448658"><ele>511.0</ele><time>2026-04-18T07:42:25.949Z</time></trkpt><trkpt lat="43.5359962" lon="12.2449939"><ele>511.0</ele><time>2026-04-18T07:42:27.948Z</time></trkpt><trkpt lat="43.5360342" lon="12.2451229"><ele>511.00000000000006</ele><time>2026-04-18T07:42:29.949Z</time></trkpt><trkpt lat="43.5360027" lon="12.245218"><ele>511.0</ele><time>2026-04-18T07:42:32.949Z</time></trkpt><trkpt lat="43.535936" lon="12.2452015"><ele>514.1666666666667</ele><time>2026-04-18T07:42:35.948Z</time></trkpt><trkpt lat="43.5358664" lon="12.2451693"><ele>517.3333333333334</ele><time>2026-04-18T07:42:38.949Z</time></trkpt><trkpt lat="43.5358032" lon="12.2451537"><ele>520.5</ele><time>2026-04-18T07:42:41.948Z</time></trkpt><trkpt lat="43.5357399" lon="12.2451491"><ele>523.6666666666666</ele><time>2026-04-18T07:42:43.95Z</time></trkpt><trkpt lat="43.5356547" lon="12.2451175"><ele>526.8333333333333</ele><time>2026-04-18T07:42:45.949Z</time></trkpt><trkpt lat="43.5355838" lon="12.2450729"><ele>530.0</ele><time>2026-04-18T07:42:47.948Z</time></trkpt><trkpt lat="43.5354956" lon="12.2450876"><ele>529.9999999999999</ele><time>2026-04-18T07:42:51.028Z</time></trkpt><trkpt lat="43.5354348" lon="12.2450263"><ele>530.0</ele><time>2026-04-18T07:42:52.949Z</time></trkpt><trkpt lat="43.5353764" lon="12.2449623"><ele>530.0</ele><time>2026-04-18T07:42:54.95Z</time></trkpt><trkpt lat="43.5353208" lon="12.2449165"><ele>530.0</ele><time>2026-04-18T07:42:56.996Z</time></trkpt><trkpt lat="43.5352527" lon="12.2448753"><ele>530.0</ele><time>2026-04-18T07:42:58.949Z</time></trkpt><trkpt lat="43.5351823" lon="12.2448584"><ele>529.9999999999999</ele><time>2026-04-18T07:43:01.977Z</time></trkpt><trkpt lat="43.535121" lon="12.2448375"><ele>530.0</ele><time>2026-04-18T07:43:03.948Z</time></trkpt><trkpt lat="43.5350485" lon="12.2447834"><ele>530.6666666666666</ele><time>2026-04-18T07:43:05.948Z</time></trkpt><trkpt lat="43.5349696" lon="12.2447668"><ele>531.3333333333333</ele><time>2026-04-18T07:43:07.947Z</time></trkpt><trkpt lat="43.5349083" lon="12.244813"><ele>532.0</ele><time>2026-04-18T07:43:09.948Z</time></trkpt><trkpt lat="43.5348167" lon="12.2448288"><ele>532.6666666666666</ele><time>2026-04-18T07:43:11.948Z</time></trkpt><trkpt lat="43.5347493" lon="12.2448355"><ele>533.3333333333334</ele><time>2026-04-18T07:43:12.948Z</time></trkpt><trkpt lat="43.5346576" lon="12.2448279"><ele>534.0</ele><time>2026-04-18T07:43:14.947Z</time></trkpt><trkpt lat="43.5345831" lon="12.2447988"><ele>540.0</ele><time>2026-04-18T07:43:16.948Z</time></trkpt><trkpt lat="43.5344892" lon="12.2447753"><ele>546.0</ele><time>2026-04-18T07:43:18.947Z</time></trkpt><trkpt lat="43.534393" lon="12.2448524"><ele>552.0</ele><time>2026-04-18T07:43:20.948Z</time></trkpt><trkpt lat="43.5342908" lon="12.2448075"><ele>558.0</ele><time>2026-04-18T07:43:21.947Z</time></trkpt><trkpt lat="43.5341791" lon="12.2447958"><ele>564.0</ele><time>2026-04-18T07:43:23.949Z</time></trkpt><trkpt lat="43.5340552" lon="12.2447862"><ele>564.0</ele><time>2026-04-18T07:43:25.948Z</time></trkpt><trkpt lat="43.5339688" lon="12.2447816"><ele>564.0</ele><time>2026-04-18T07:43:27.949Z</time></trkpt><trkpt lat="43.5338786" lon="12.2447558"><ele>564.0</ele><time>2026-04-18T07:43:29.949Z</time></trkpt><trkpt lat="43.5337393" lon="12.2446859"><ele>564.0</ele><time>2026-04-18T07:43:31.948Z</time></trkpt><trkpt lat="43.5336273" lon="12.2446444"><ele>564.0</ele><time>2026-04-18T07:43:33.947Z</time></trkpt><trkpt lat="43.5335478" lon="12.2446314"><ele>566.4</ele><time>2026-04-18T07:43:34.947Z</time></trkpt><trkpt lat="43.5334241" lon="12.2446931"><ele>568.8</ele><time>2026-04-18T07:43:36.948Z</time></trkpt><trkpt lat="43.5333526" lon="12.2447301"><ele>571.2</ele><time>2026-04-18T07:43:37.947Z</time></trkpt><trkpt lat="43.5332408" lon="12.2447693"><ele>573.6</ele><time>2026-04-18T07:43:39.947Z</time></trkpt><trkpt lat="43.5331432" lon="12.2447629"><ele>576.0</ele><time>2026-04-18T07:43:41.947Z</time></trkpt><trkpt lat="43.5331318" lon="12.2448924"><ele>576.3333333333334</ele><time>2026-04-18T07:43:43.948Z</time></trkpt><trkpt lat="43.5330898" lon="12.245"><ele>576.6666666666666</ele><time>2026-04-18T07:43:45.949Z</time></trkpt><trkpt lat="43.5330361" lon="12.2450602"><ele>577.0</ele><time>2026-04-18T07:43:47.947Z</time></trkpt><trkpt lat="43.5329889" lon="12.2451216"><ele>577.3333333333333</ele><time>2026-04-18T07:43:49.947Z</time></trkpt><trkpt lat="43.5329274" lon="12.2451954"><ele>577.6666666666666</ele><time>2026-04-18T07:43:52.948Z</time></trkpt><trkpt lat="43.5328431" lon="12.2452602"><ele>578.0</ele><time>2026-04-18T07:44:00.948Z</time></trkpt><trkpt lat="43.5327775" lon="12.245273"><ele>578.0</ele><time>2026-04-18T07:44:02.948Z</time></trkpt><trkpt lat="43.5326965" lon="12.2453458"><ele>578.0</ele><time>2026-04-18T07:44:04.948Z</time></trkpt><trkpt lat="43.532621" lon="12.2454222"><ele>578.0</ele><time>2026-04-18T07:44:06.948Z</time></trkpt><trkpt lat="43.5325688" lon="12.2454715"><ele>578.0</ele><time>2026-04-18T07:44:07.948Z</time></trkpt><trkpt lat="43.5324806" lon="12.2455136"><ele>578.0</ele><time>2026-04-18T07:44:09.948Z</time></trkpt><trkpt lat="43.532405" lon="12.2455227"><ele>578.0</ele><time>2026-04-18T07:44:10.949Z</time></trkpt><trkpt lat="43.5322954" lon="12.2455575"><ele>578.0</ele><time>2026-04-18T07:44:12.947Z</time></trkpt><trkpt lat="43.5321775" lon="12.2456205"><ele>578.0</ele><time>2026-04-18T07:44:14.949Z</time></trkpt><trkpt lat="43.5320651" lon="12.2456809"><ele>578.0</ele><time>2026-04-18T07:44:16.948Z</time></trkpt><trkpt lat="43.5319983" lon="12.2457275"><ele>578.0</ele><time>2026-04-18T07:44:17.949Z</time></trkpt><trkpt lat="43.5319738" lon="12.24581"><ele>578.0</ele><time>2026-04-18T07:44:18.949Z</time></trkpt><trkpt lat="43.5319321" lon="12.2459197"><ele>582.5</ele><time>2026-04-18T07:44:19.948Z</time></trkpt><trkpt lat="43.5318985" lon="12.2460099"><ele>587.0</ele><time>2026-04-18T07:44:20.948Z</time></trkpt><trkpt lat="43.5318685" lon="12.2461137"><ele>591.5</ele><time>2026-04-18T07:44:21.949Z</time></trkpt><trkpt lat="43.531843" lon="12.2461975"><ele>596.0</ele><time>2026-04-18T07:44:22.947Z</time></trkpt><trkpt lat="43.5318294" lon="12.2463261"><ele>600.5</ele><time>2026-04-18T07:44:24.948Z</time></trkpt><trkpt lat="43.5317393" lon="12.2463666"><ele>605.0</ele><time>2026-04-18T07:44:27.949Z</time></trkpt><trkpt lat="43.5317358" lon="12.2464608"><ele>605.6</ele><time>2026-04-18T07:44:30.947Z</time></trkpt><trkpt lat="43.5317727" lon="12.2465322"><ele>606.2</ele><time>2026-04-18T07:44:37.947Z</time></trkpt><trkpt lat="43.5318252" lon="12.2465814"><ele>606.8</ele><time>2026-04-18T07:44:41.948Z</time></trkpt><trkpt lat="43.5319249" lon="12.2466467"><ele>607.4</ele><time>2026-04-18T07:44:44.949Z</time></trkpt><trkpt lat="43.5320027" lon="12.2467753"><ele>608.0</ele><time>2026-04-18T07:44:46.947Z</time></trkpt><trkpt lat="43.5320536" lon="12.2469045"><ele>608.0</ele><time>2026-04-18T07:44:48.948Z</time></trkpt><trkpt lat="43.5320747" lon="12.247"><ele>608.0</ele><time>2026-04-18T07:44:50.948Z</time></trkpt><trkpt lat="43.53205" lon="12.247085"><ele>608.0</ele><time>2026-04-18T07:44:52.948Z</time></trkpt><trkpt lat="43.5319956" lon="12.2471364"><ele>608.0</ele><time>2026-04-18T07:44:54.949Z</time></trkpt><trkpt lat="43.5319013" lon="12.2471538"><ele>608.0</ele><time>2026-04-18T07:44:56.947Z</time></trkpt><trkpt lat="43.5318111" lon="12.2471854"><ele>608.0</ele><time>2026-04-18T07:44:58.949Z</time></trkpt><trkpt lat="43.5317474" lon="12.2471967"><ele>606.0</ele><time>2026-04-18T07:45:00.948Z</time></trkpt><trkpt lat="43.5317016" lon="12.2472942"><ele>604.0</ele><time>2026-04-18T07:45:03.949Z</time></trkpt><trkpt lat="43.5317328" lon="12.2474097"><ele>602.0</ele><time>2026-04-18T07:45:04.948Z</time></trkpt><trkpt lat="43.5317443" lon="12.247508"><ele>600.0</ele><time>2026-04-18T07:45:05.947Z</time></trkpt><trkpt lat="43.5317752" lon="12.2475862"><ele>598.0</ele><time>2026-04-18T07:45:06.948Z</time></trkpt><trkpt lat="43.531832" lon="12.2477334"><ele>596.0</ele><time>2026-04-18T07:45:08.948Z</time></trkpt><trkpt lat="43.5318615" lon="12.2478283"><ele>596.0</ele><time>2026-04-18T07:45:09.949Z</time></trkpt><trkpt lat="43.5318993" lon="12.2479655"><ele>596.0</ele><time>2026-04-18T07:45:11.948Z</time></trkpt><trkpt lat="43.5319279" lon="12.2480572"><ele>596.0</ele><time>2026-04-18T07:45:13.948Z</time></trkpt><trkpt lat="43.531966" lon="12.248134"><ele>596.0</ele><time>2026-04-18T07:45:20.949Z</time></trkpt><trkpt lat="43.5320148" lon="12.2482353"><ele>596.0</ele><time>2026-04-18T07:45:22.948Z</time></trkpt><trkpt lat="43.5320373" lon="12.2483203"><ele>596.0</ele><time>2026-04-18T07:45:23.948Z</time></trkpt><trkpt lat="43.5320992" lon="12.2484523"><ele>596.2</ele><time>2026-04-18T07:45:25.948Z</time></trkpt><trkpt lat="43.532194" lon="12.2485667"><ele>596.4000000000001</ele><time>2026-04-18T07:45:27.949Z</time></trkpt><trkpt lat="43.5322829" lon="12.2486178"><ele>596.6</ele><time>2026-04-18T07:45:29.949Z</time></trkpt><trkpt lat="43.5323868" lon="12.2486897"><ele>596.8000000000001</ele><time>2026-04-18T07:45:31.948Z</time></trkpt><trkpt lat="43.5324707" lon="12.2487642"><ele>597.0</ele><time>2026-04-18T07:45:33.948Z</time></trkpt><trkpt lat="43.5325249" lon="12.2488615"><ele>595.4</ele><time>2026-04-18T07:45:35.948Z</time></trkpt><trkpt lat="43.5325977" lon="12.2489671"><ele>593.8000000000001</ele><time>2026-04-18T07:45:37.949Z</time></trkpt><trkpt lat="43.5326834" lon="12.2490199"><ele>592.2</ele><time>2026-04-18T07:45:39.947Z</time></trkpt><trkpt lat="43.5327797" lon="12.2490601"><ele>590.6</ele><time>2026-04-18T07:45:41.948Z</time></trkpt><trkpt lat="43.5328497" lon="12.2491111"><ele>589.0</ele><time>2026-04-18T07:45:43.949Z</time></trkpt><trkpt lat="43.5329334" lon="12.2491632"><ele>589.0</ele><time>2026-04-18T07:45:45.948Z</time></trkpt><trkpt lat="43.5330004" lon="12.2492295"><ele>589.0</ele><time>2026-04-18T07:45:47.948Z</time></trkpt><trkpt lat="43.5330715" lon="12.2492829"><ele>589.0</ele><time>2026-04-18T07:45:49.949Z</time></trkpt><trkpt lat="43.5331429" lon="12.2493723"><ele>589.0</ele><time>2026-04-18T07:45:51.949Z</time></trkpt><trkpt lat="43.5332116" lon="12.2494917"><ele>589.0</ele><time>2026-04-18T07:45:53.948Z</time></trkpt><trkpt lat="43.5332855" lon="12.2495366"><ele>589.0</ele><time>2026-04-18T07:45:55.948Z</time></trkpt><trkpt lat="43.5333902" lon="12.2495618"><ele>589.0</ele><time>2026-04-18T07:45:57.948Z</time></trkpt><trkpt lat="43.5334794" lon="12.2495699"><ele>589.0</ele><time>2026-04-18T07:45:58.947Z</time></trkpt><trkpt lat="43.5335445" lon="12.2495747"><ele>589.0</ele><time>2026-04-18T07:45:59.948Z</time></trkpt><trkpt lat="43.5336356" lon="12.2496116"><ele>589.0</ele><time>2026-04-18T07:46:01.948Z</time></trkpt><trkpt lat="43.5337123" lon="12.2496575"><ele>589.0</ele><time>2026-04-18T07:46:03.948Z</time></trkpt><trkpt lat="43.5338244" lon="12.2496634"><ele>586.8</ele><time>2026-04-18T07:46:05.949Z</time></trkpt><trkpt lat="43.5339209" lon="12.2497173"><ele>584.5999999999999</ele><time>2026-04-18T07:46:07.949Z</time></trkpt><trkpt lat="43.534003" lon="12.2497815"><ele>582.4</ele><time>2026-04-18T07:46:09.948Z</time></trkpt><trkpt lat="43.5340347" lon="12.2498793"><ele>580.1999999999999</ele><time>2026-04-18T07:46:28.948Z</time></trkpt><trkpt lat="43.5340992" lon="12.249976"><ele>578.0</ele><time>2026-04-18T07:46:30.948Z</time></trkpt><trkpt lat="43.5341963" lon="12.2500851"><ele>578.0</ele><time>2026-04-18T07:46:32.949Z</time></trkpt><trkpt lat="43.5342963" lon="12.2501712"><ele>578.0</ele><time>2026-04-18T07:46:34.948Z</time></trkpt><trkpt lat="43.5344045" lon="12.250199"><ele>578.0</ele><time>2026-04-18T07:46:36.949Z</time></trkpt><trkpt lat="43.5344722" lon="12.2502083"><ele>578.0</ele><time>2026-04-18T07:46:37.949Z</time></trkpt><trkpt lat="43.534555" lon="12.2502718"><ele>578.0</ele><time>2026-04-18T07:46:39.948Z</time></trkpt><trkpt lat="43.5346438" lon="12.250386"><ele>575.8</ele><time>2026-04-18T07:46:41.948Z</time></trkpt><trkpt lat="43.5347082" lon="12.2505663"><ele>573.5999999999999</ele><time>2026-04-18T07:46:43.948Z</time></trkpt><trkpt lat="43.5347491" lon="12.2506891"><ele>571.4000000000001</ele><time>2026-04-18T07:46:45.947Z</time></trkpt><trkpt lat="43.5347433" lon="12.2507908"><ele>569.2</ele><time>2026-04-18T07:46:46.948Z</time></trkpt><trkpt lat="43.5347062" lon="12.2508679"><ele>567.0</ele><time>2026-04-18T07:46:47.948Z</time></trkpt><trkpt lat="43.5346716" lon="12.2510196"><ele>571.6</ele><time>2026-04-18T07:46:49.947Z</time></trkpt><trkpt lat="43.5346682" lon="12.2511668"><ele>576.2</ele><time>2026-04-18T07:46:50.947Z</time></trkpt><trkpt lat="43.5346971" lon="12.2512681"><ele>580.8</ele><time>2026-04-18T07:46:51.948Z</time></trkpt><trkpt lat="43.5347188" lon="12.2513885"><ele>585.4</ele><time>2026-04-18T07:46:53.947Z</time></trkpt><trkpt lat="43.5347725" lon="12.2514763"><ele>590.0</ele><time>2026-04-18T07:46:55.948Z</time></trkpt><trkpt lat="43.5348603" lon="12.2515887"><ele>591.4</ele><time>2026-04-18T07:46:57.948Z</time></trkpt><trkpt lat="43.534908" lon="12.2517074"><ele>592.8</ele><time>2026-04-18T07:46:59.948Z</time></trkpt><trkpt lat="43.5349464" lon="12.2518682"><ele>594.2</ele><time>2026-04-18T07:47:01.948Z</time></trkpt><trkpt lat="43.5349611" lon="12.2519555"><ele>595.6</ele><time>2026-04-18T07:47:02.948Z</time></trkpt><trkpt lat="43.5349538" lon="12.2520797"><ele>597.0</ele><time>2026-04-18T07:47:04.948Z</time></trkpt><trkpt lat="43.5349127" lon="12.2521849"><ele>598.2</ele><time>2026-04-18T07:47:05.949Z</time></trkpt><trkpt lat="43.5348306" lon="12.2523412"><ele>599.4000000000001</ele><time>2026-04-18T07:47:07.947Z</time></trkpt><trkpt lat="43.5347629" lon="12.2524622"><ele>600.5999999999999</ele><time>2026-04-18T07:47:09.948Z</time></trkpt><trkpt lat="43.5347042" lon="12.2525863"><ele>601.8</ele><time>2026-04-18T07:47:10.948Z</time></trkpt><trkpt lat="43.5346641" lon="12.2526752"><ele>603.0</ele><time>2026-04-18T07:47:11.947Z</time></trkpt><trkpt lat="43.5346204" lon="12.2527432"><ele>603.0</ele><time>2026-04-18T07:47:12.949Z</time></trkpt><trkpt lat="43.5345991" lon="12.2528754"><ele>603.0</ele><time>2026-04-18T07:47:13.948Z</time></trkpt><trkpt lat="43.5345593" lon="12.2529485"><ele>603.0</ele><time>2026-04-18T07:47:14.947Z</time></trkpt><trkpt lat="43.53451" lon="12.2530246"><ele>603.0</ele><time>2026-04-18T07:47:16.949Z</time></trkpt><trkpt lat="43.5345217" lon="12.2532107"><ele>603.0</ele><time>2026-04-18T07:47:18.948Z</time></trkpt><trkpt lat="43.5345414" lon="12.253305"><ele>603.0</ele><time>2026-04-18T07:47:19.948Z</time></trkpt><trkpt lat="43.5345447" lon="12.2534248"><ele>605.0</ele><time>2026-04-18T07:47:20.948Z</time></trkpt><trkpt lat="43.5345492" lon="12.2535688"><ele>607.0</ele><time>2026-04-18T07:47:21.949Z</time></trkpt><trkpt lat="43.5345452" lon="12.2536812"><ele>609.0</ele><time>2026-04-18T07:47:22.948Z</time></trkpt><trkpt lat="43.5345738" lon="12.253808"><ele>611.0</ele><time>2026-04-18T07:47:23.948Z</time></trkpt><trkpt lat="43.5345798" lon="12.2539355"><ele>613.0</ele><time>2026-04-18T07:47:24.948Z</time></trkpt><trkpt lat="43.5346191" lon="12.2541652"><ele>612.6</ele><time>2026-04-18T07:47:26.949Z</time></trkpt><trkpt lat="43.5346258" lon="12.2542685"><ele>612.1999999999999</ele><time>2026-04-18T07:47:27.948Z</time></trkpt><trkpt lat="43.5345862" lon="12.2544072"><ele>611.8</ele><time>2026-04-18T07:47:29.949Z</time></trkpt><trkpt lat="43.5345931" lon="12.2545607"><ele>611.4</ele><time>2026-04-18T07:47:31.949Z</time></trkpt><trkpt lat="43.5346228" lon="12.254678"><ele>611.0</ele><time>2026-04-18T07:47:33.949Z</time></trkpt><trkpt lat="43.5346745" lon="12.2548148"><ele>611.0</ele><time>2026-04-18T07:47:35.948Z</time></trkpt><trkpt lat="43.5347122" lon="12.2548965"><ele>611.0</ele><time>2026-04-18T07:47:36.949Z</time></trkpt><trkpt lat="43.5347514" lon="12.2549683"><ele>611.0</ele><time>2026-04-18T07:47:37.948Z</time></trkpt><trkpt lat="43.5348244" lon="12.2550873"><ele>611.0</ele><time>2026-04-18T07:47:39.947Z</time></trkpt><trkpt lat="43.5348867" lon="12.2551885"><ele>611.0</ele><time>2026-04-18T07:47:41.947Z</time></trkpt><trkpt lat="43.5349643" lon="12.2553155"><ele>611.0</ele><time>2026-04-18T07:47:43.947Z</time></trkpt><trkpt lat="43.5350068" lon="12.2553812"><ele>611.0</ele><time>2026-04-18T07:47:44.948Z</time></trkpt><trkpt lat="43.5350616" lon="12.255444"><ele>611.0</ele><time>2026-04-18T07:47:45.948Z</time></trkpt><trkpt lat="43.5351164" lon="12.2555826"><ele>611.0</ele><time>2026-04-18T07:47:47.949Z</time></trkpt><trkpt lat="43.535137" lon="12.2557006"><ele>611.0</ele><time>2026-04-18T07:47:48.948Z</time></trkpt><trkpt lat="43.535162" lon="12.2557829"><ele>611.0</ele><time>2026-04-18T07:47:49.948Z</time></trkpt><trkpt lat="43.5351845" lon="12.2558692"><ele>608.5</ele><time>2026-04-18T07:47:50.947Z</time></trkpt><trkpt lat="43.5352154" lon="12.2559806"><ele>606.0</ele><time>2026-04-18T07:47:51.947Z</time></trkpt><trkpt lat="43.5352725" lon="12.2561351"><ele>603.5</ele><time>2026-04-18T07:47:53.949Z</time></trkpt><trkpt lat="43.5353574" lon="12.2562724"><ele>601.0</ele><time>2026-04-18T07:47:55.948Z</time></trkpt><trkpt lat="43.5354188" lon="12.2564194"><ele>604.2</ele><time>2026-04-18T07:47:57.949Z</time></trkpt><trkpt lat="43.5354617" lon="12.2565026"><ele>607.4000000000001</ele><time>2026-04-18T07:47:58.947Z</time></trkpt><trkpt lat="43.5355428" lon="12.2566521"><ele>610.6</ele><time>2026-04-18T07:48:00.949Z</time></trkpt><trkpt lat="43.5355596" lon="12.2568025"><ele>613.8000000000001</ele><time>2026-04-18T07:48:02.949Z</time></trkpt><trkpt lat="43.5356236" lon="12.2569372"><ele>617.0</ele><time>2026-04-18T07:48:04.948Z</time></trkpt><trkpt lat="43.5356577" lon="12.2570176"><ele>617.0</ele><time>2026-04-18T07:48:05.948Z</time></trkpt><trkpt lat="43.5356914" lon="12.2571005"><ele>617.0</ele><time>2026-04-18T07:48:06.949Z</time></trkpt><trkpt lat="43.5357641" lon="12.2571283"><ele>617.0</ele><time>2026-04-18T07:48:07.948Z</time></trkpt><trkpt lat="43.5358221" lon="12.2571921"><ele>617.0</ele><time>2026-04-18T07:48:08.948Z</time></trkpt><trkpt lat="43.5358893" lon="12.2572815"><ele>617.0</ele><time>2026-04-18T07:48:09.948Z</time></trkpt><trkpt lat="43.5359494" lon="12.2573325"><ele>617.0</ele><time>2026-04-18T07:48:10.948Z</time></trkpt><trkpt lat="43.5360107" lon="12.257392"><ele>615.3333333333333</ele><time>2026-04-18T07:48:11.949Z</time></trkpt><trkpt lat="43.5360669" lon="12.2574463"><ele>613.6666666666666</ele><time>2026-04-18T07:48:12.948Z</time></trkpt><trkpt lat="43.5361282" lon="12.2574888"><ele>612.0</ele><time>2026-04-18T07:48:14.949Z</time></trkpt><trkpt lat="43.5362024" lon="12.2575546"><ele>610.3333333333334</ele><time>2026-04-18T07:48:16.948Z</time></trkpt><trkpt lat="43.5362856" lon="12.2576596"><ele>608.6666666666667</ele><time>2026-04-18T07:48:18.948Z</time></trkpt><trkpt lat="43.5363363" lon="12.2577781"><ele>607.0</ele><time>2026-04-18T07:48:20.948Z</time></trkpt><trkpt lat="43.5363553" lon="12.2578826"><ele>607.0</ele><time>2026-04-18T07:48:22.948Z</time></trkpt><trkpt lat="43.5363825" lon="12.2580187"><ele>607.0</ele><time>2026-04-18T07:48:24.948Z</time></trkpt><trkpt lat="43.5364369" lon="12.25816"><ele>607.0</ele><time>2026-04-18T07:48:26.949Z</time></trkpt><trkpt lat="43.5364568" lon="12.2582432"><ele>607.0</ele><time>2026-04-18T07:48:27.949Z</time></trkpt><trkpt lat="43.5364912" lon="12.258324"><ele>607.0</ele><time>2026-04-18T07:48:28.947Z</time></trkpt><trkpt lat="43.5365279" lon="12.2584045"><ele>607.0</ele><time>2026-04-18T07:48:29.949Z</time></trkpt><trkpt lat="43.5365751" lon="12.2584849"><ele>607.0</ele><time>2026-04-18T07:48:30.949Z</time></trkpt><trkpt lat="43.53662" lon="12.2585744"><ele>607.0</ele><time>2026-04-18T07:48:31.948Z</time></trkpt><trkpt lat="43.5366654" lon="12.2586515"><ele>607.0</ele><time>2026-04-18T07:48:32.948Z</time></trkpt><trkpt lat="43.5366915" lon="12.2587328"><ele>607.0</ele><time>2026-04-18T07:48:33.947Z</time></trkpt><trkpt lat="43.5367091" lon="12.2588334"><ele>607.0</ele><time>2026-04-18T07:48:34.948Z</time></trkpt><trkpt lat="43.5367289" lon="12.2589501"><ele>607.0</ele><time>2026-04-18T07:48:35.948Z</time></trkpt><trkpt lat="43.5367487" lon="12.2590576"><ele>607.0</ele><time>2026-04-18T07:48:36.948Z</time></trkpt><trkpt lat="43.5367776" lon="12.2591696"><ele>607.0</ele><time>2026-04-18T07:48:37.947Z</time></trkpt><trkpt lat="43.536814" lon="12.2592878"><ele>607.0</ele><time>2026-04-18T07:48:38.948Z</time></trkpt><trkpt lat="43.5368481" lon="12.2594157"><ele>607.0</ele><time>2026-04-18T07:48:39.948Z</time></trkpt><trkpt lat="43.5368668" lon="12.2595302"><ele>607.0</ele><time>2026-04-18T07:48:40.948Z</time></trkpt><trkpt lat="43.5368736" lon="12.2596475"><ele>607.0</ele><time>2026-04-18T07:48:41.949Z</time></trkpt><trkpt lat="43.5368746" lon="12.259764"><ele>606.6666666666667</ele><time>2026-04-18T07:48:42.949Z</time></trkpt><trkpt lat="43.5368801" lon="12.2598748"><ele>606.3333333333334</ele><time>2026-04-18T07:48:43.948Z</time></trkpt><trkpt lat="43.5369071" lon="12.2600147"><ele>606.0</ele><time>2026-04-18T07:48:44.948Z</time></trkpt><trkpt lat="43.536935" lon="12.2601163"><ele>605.6666666666666</ele><time>2026-04-18T07:48:45.948Z</time></trkpt><trkpt lat="43.5369642" lon="12.2602175"><ele>605.3333333333333</ele><time>2026-04-18T07:48:46.947Z</time></trkpt><trkpt lat="43.537002" lon="12.2603163"><ele>605.0</ele><time>2026-04-18T07:48:47.948Z</time></trkpt><trkpt lat="43.5370291" lon="12.2604201"><ele>605.0</ele><time>2026-04-18T07:48:48.948Z</time></trkpt><trkpt lat="43.5370467" lon="12.2605043"><ele>605.0</ele><time>2026-04-18T07:48:49.948Z</time></trkpt><trkpt lat="43.5370866" lon="12.2605922"><ele>605.0</ele><time>2026-04-18T07:48:50.947Z</time></trkpt><trkpt lat="43.5371452" lon="12.2607365"><ele>605.0</ele><time>2026-04-18T07:48:52.948Z</time></trkpt><trkpt lat="43.5371795" lon="12.2608181"><ele>605.0</ele><time>2026-04-18T07:48:53.949Z</time></trkpt><trkpt lat="43.5372007" lon="12.2609008"><ele>605.0</ele><time>2026-04-18T07:48:54.948Z</time></trkpt><trkpt lat="43.5371469" lon="12.2609814"><ele>607.2</ele><time>2026-04-18T07:48:56.948Z</time></trkpt><trkpt lat="43.5370248" lon="12.2611085"><ele>609.4</ele><time>2026-04-18T07:48:59.948Z</time></trkpt><trkpt lat="43.5369553" lon="12.2611744"><ele>611.6</ele><time>2026-04-18T07:49:00.948Z</time></trkpt><trkpt lat="43.5368488" lon="12.2612485"><ele>613.8</ele><time>2026-04-18T07:49:01.948Z</time></trkpt><trkpt lat="43.5367772" lon="12.2613159"><ele>616.0</ele><time>2026-04-18T07:49:02.949Z</time></trkpt><trkpt lat="43.5367126" lon="12.2613791"><ele>616.0</ele><time>2026-04-18T07:49:03.949Z</time></trkpt><trkpt lat="43.5366495" lon="12.2614198"><ele>616.0</ele><time>2026-04-18T07:49:04.949Z</time></trkpt><trkpt lat="43.5365218" lon="12.2614988"><ele>616.0</ele><time>2026-04-18T07:49:06.948Z</time></trkpt><trkpt lat="43.5364516" lon="12.2615415"><ele>616.0</ele><time>2026-04-18T07:49:07.949Z</time></trkpt><trkpt lat="43.5363913" lon="12.261592"><ele>616.0</ele><time>2026-04-18T07:49:08.947Z</time></trkpt><trkpt lat="43.5363452" lon="12.2616634"><ele>616.0</ele><time>2026-04-18T07:49:09.948Z</time></trkpt><trkpt lat="43.5362929" lon="12.2617313"><ele>619.0</ele><time>2026-04-18T07:49:10.948Z</time></trkpt><trkpt lat="43.5362693" lon="12.2618716"><ele>622.0</ele><time>2026-04-18T07:49:12.948Z</time></trkpt><trkpt lat="43.5363241" lon="12.2619608"><ele>625.0</ele><time>2026-04-18T07:49:13.948Z</time></trkpt><trkpt lat="43.536329" lon="12.2621303"><ele>628.0</ele><time>2026-04-18T07:49:15.949Z</time></trkpt><trkpt lat="43.5363723" lon="12.2622672"><ele>631.0</ele><time>2026-04-18T07:49:17.948Z</time></trkpt><trkpt lat="43.5364253" lon="12.2624383"><ele>631.5</ele><time>2026-04-18T07:49:19.948Z</time></trkpt><trkpt lat="43.5364603" lon="12.2625577"><ele>632.0</ele><time>2026-04-18T07:49:20.948Z</time></trkpt><trkpt lat="43.5364811" lon="12.2626649"><ele>632.5</ele><time>2026-04-18T07:49:21.947Z</time></trkpt><trkpt lat="43.5365037" lon="12.2627772"><ele>633.0</ele><time>2026-04-18T07:49:22.948Z</time></trkpt><trkpt lat="43.5365043" lon="12.2628871"><ele>633.5</ele><time>2026-04-18T07:49:23.948Z</time></trkpt><trkpt lat="43.5365562" lon="12.2629679"><ele>634.0</ele><time>2026-04-18T07:49:24.947Z</time></trkpt><trkpt lat="43.5365791" lon="12.2630611"><ele>632.0</ele><time>2026-04-18T07:49:25.948Z</time></trkpt><trkpt lat="43.5366105" lon="12.2631485"><ele>630.0</ele><time>2026-04-18T07:49:26.947Z</time></trkpt><trkpt lat="43.5366651" lon="12.2633122"><ele>628.0</ele><time>2026-04-18T07:49:28.948Z</time></trkpt><trkpt lat="43.536722" lon="12.2634613"><ele>626.0</ele><time>2026-04-18T07:49:30.948Z</time></trkpt><trkpt lat="43.5367986" lon="12.2635848"><ele>624.0</ele><time>2026-04-18T07:49:32.948Z</time></trkpt><trkpt lat="43.5368098" lon="12.263735"><ele>624.0</ele><time>2026-04-18T07:49:34.948Z</time></trkpt><trkpt lat="43.5368184" lon="12.2638754"><ele>624.0</ele><time>2026-04-18T07:49:36.947Z</time></trkpt><trkpt lat="43.5368827" lon="12.2639975"><ele>624.0</ele><time>2026-04-18T07:49:38.948Z</time></trkpt><trkpt lat="43.5369929" lon="12.2640908"><ele>624.0</ele><time>2026-04-18T07:49:40.947Z</time></trkpt><trkpt lat="43.5370488" lon="12.2641575"><ele>624.0</ele><time>2026-04-18T07:49:41.947Z</time></trkpt><trkpt lat="43.5371358" lon="12.2641509"><ele>623.5</ele><time>2026-04-18T07:49:42.948Z</time></trkpt><trkpt lat="43.5372221" lon="12.264195"><ele>623.0</ele><time>2026-04-18T07:49:43.949Z</time></trkpt><trkpt lat="43.5372958" lon="12.264219"><ele>622.5</ele><time>2026-04-18T07:49:44.948Z</time></trkpt><trkpt lat="43.5373691" lon="12.2642105"><ele>622.0</ele><time>2026-04-18T07:49:45.948Z</time></trkpt><trkpt lat="43.5374421" lon="12.264212"><ele>621.5</ele><time>2026-04-18T07:49:46.948Z</time></trkpt><trkpt lat="43.5375567" lon="12.2642045"><ele>621.0</ele><time>2026-04-18T07:49:47.948Z</time></trkpt><trkpt lat="43.5376255" lon="12.2642298"><ele>621.0</ele><time>2026-04-18T07:49:48.948Z</time></trkpt><trkpt lat="43.537716" lon="12.264254"><ele>621.0</ele><time>2026-04-18T07:49:49.948Z</time></trkpt><trkpt lat="43.5378011" lon="12.264259"><ele>621.0</ele><time>2026-04-18T07:49:50.948Z</time></trkpt><trkpt lat="43.5378837" lon="12.2642703"><ele>621.0</ele><time>2026-04-18T07:49:51.949Z</time></trkpt><trkpt lat="43.5379735" lon="12.2642858"><ele>621.0</ele><time>2026-04-18T07:49:52.947Z</time></trkpt><trkpt lat="43.5380592" lon="12.2643268"><ele>621.0</ele><time>2026-04-18T07:49:53.949Z</time></trkpt><trkpt lat="43.5381312" lon="12.2643259"><ele>621.0</ele><time>2026-04-18T07:49:54.947Z</time></trkpt><trkpt lat="43.5382057" lon="12.2643279"><ele>621.0</ele><time>2026-04-18T07:49:56.948Z</time></trkpt><trkpt lat="43.5383186" lon="12.2643202"><ele>621.0</ele><time>2026-04-18T07:49:58.949Z</time></trkpt><trkpt lat="43.5383812" lon="12.2643027"><ele>621.0</ele><time>2026-04-18T07:49:59.948Z</time></trkpt><trkpt lat="43.5384629" lon="12.2643324"><ele>621.0</ele><time>2026-04-18T07:50:01.948Z</time></trkpt><trkpt lat="43.5385427" lon="12.2643895"><ele>621.0</ele><time>2026-04-18T07:50:03.947Z</time></trkpt><trkpt lat="43.5385966" lon="12.2644906"><ele>621.0</ele><time>2026-04-18T07:50:05.949Z</time></trkpt><trkpt lat="43.5386336" lon="12.2646323"><ele>621.0</ele><time>2026-04-18T07:50:07.948Z</time></trkpt><trkpt lat="43.5386834" lon="12.2649003"><ele>621.0</ele><time>2026-04-18T07:50:09.947Z</time></trkpt><trkpt lat="43.538704" lon="12.2649885"><ele>621.0</ele><time>2026-04-18T07:50:10.947Z</time></trkpt><trkpt lat="43.5387116" lon="12.2651756"><ele>620.5</ele><time>2026-04-18T07:50:11.948Z</time></trkpt><trkpt lat="43.538731" lon="12.2653358"><ele>620.0</ele><time>2026-04-18T07:50:13.948Z</time></trkpt><trkpt lat="43.5387389" lon="12.2654941"><ele>619.5</ele><time>2026-04-18T07:50:15.948Z</time></trkpt><trkpt lat="43.5387457" lon="12.2656358"><ele>619.0</ele><time>2026-04-18T07:50:17.948Z</time></trkpt><trkpt lat="43.5387177" lon="12.2658137"><ele>618.6666666666667</ele><time>2026-04-18T07:50:19.949Z</time></trkpt><trkpt lat="43.5387342" lon="12.2659624"><ele>618.3333333333334</ele><time>2026-04-18T07:50:21.948Z</time></trkpt><trkpt lat="43.5387368" lon="12.2660575"><ele>618.0</ele><time>2026-04-18T07:50:22.948Z</time></trkpt><trkpt lat="43.5387102" lon="12.2661763"><ele>617.6666666666666</ele><time>2026-04-18T07:50:23.948Z</time></trkpt><trkpt lat="43.5386948" lon="12.266272"><ele>617.3333333333333</ele><time>2026-04-18T07:50:24.949Z</time></trkpt><trkpt lat="43.538678" lon="12.2663662"><ele>617.0</ele><time>2026-04-18T07:50:25.947Z</time></trkpt><trkpt lat="43.5386581" lon="12.2664554"><ele>617.0</ele><time>2026-04-18T07:50:26.949Z</time></trkpt><trkpt lat="43.5386431" lon="12.266543"><ele>617.0</ele><time>2026-04-18T07:50:27.947Z</time></trkpt><trkpt lat="43.5385838" lon="12.2667529"><ele>617.0</ele><time>2026-04-18T07:50:29.947Z</time></trkpt><trkpt lat="43.5385483" lon="12.2668393"><ele>617.0</ele><time>2026-04-18T07:50:30.947Z</time></trkpt><trkpt lat="43.538517" lon="12.2669313"><ele>617.0</ele><time>2026-04-18T07:50:31.947Z</time></trkpt><trkpt lat="43.5384699" lon="12.2670426"><ele>617.0</ele><time>2026-04-18T07:50:32.947Z</time></trkpt><trkpt lat="43.5383925" lon="12.2671461"><ele>617.0</ele><time>2026-04-18T07:50:34.949Z</time></trkpt><trkpt lat="43.538335" lon="12.2672075"><ele>617.0</ele><time>2026-04-18T07:50:35.947Z</time></trkpt><trkpt lat="43.5382305" lon="12.2672716"><ele>617.0</ele><time>2026-04-18T07:50:37.949Z</time></trkpt><trkpt lat="43.5381737" lon="12.2673106"><ele>617.0</ele><time>2026-04-18T07:50:38.948Z</time></trkpt><trkpt lat="43.5381008" lon="12.2673313"><ele>617.0</ele><time>2026-04-18T07:50:39.949Z</time></trkpt><trkpt lat="43.5380326" lon="12.2673684"><ele>618.6666666666666</ele><time>2026-04-18T07:50:41.947Z</time></trkpt><trkpt lat="43.5379471" lon="12.2674269"><ele>620.3333333333333</ele><time>2026-04-18T07:50:43.949Z</time></trkpt><trkpt lat="43.5378745" lon="12.2674772"><ele>622.0</ele><time>2026-04-18T07:50:45.948Z</time></trkpt><trkpt lat="43.5377987" lon="12.2675169"><ele>623.6666666666666</ele><time>2026-04-18T07:50:47.947Z</time></trkpt><trkpt lat="43.5377178" lon="12.2675182"><ele>625.3333333333334</ele><time>2026-04-18T07:50:49.948Z</time></trkpt><trkpt lat="43.5376312" lon="12.2675314"><ele>627.0</ele><time>2026-04-18T07:50:52.949Z</time></trkpt><trkpt lat="43.5375536" lon="12.267546"><ele>627.0</ele><time>2026-04-18T07:50:54.948Z</time></trkpt><trkpt lat="43.5374642" lon="12.267632"><ele>627.0</ele><time>2026-04-18T07:50:55.947Z</time></trkpt><trkpt lat="43.5373214" lon="12.2677002"><ele>627.0</ele><time>2026-04-18T07:50:56.947Z</time></trkpt><trkpt lat="43.5372516" lon="12.2677743"><ele>627.0</ele><time>2026-04-18T07:50:57.949Z</time></trkpt><trkpt lat="43.5371272" lon="12.2678366"><ele>627.0</ele><time>2026-04-18T07:50:59.948Z</time></trkpt><trkpt lat="43.5370772" lon="12.2678915"><ele>627.0</ele><time>2026-04-18T07:51:00.949Z</time></trkpt><trkpt lat="43.5370097" lon="12.2679342"><ele>627.0</ele><time>2026-04-18T07:51:01.947Z</time></trkpt><trkpt lat="43.5369167" lon="12.2680018"><ele>627.0</ele><time>2026-04-18T07:51:03.948Z</time></trkpt><trkpt lat="43.5368365" lon="12.268027"><ele>627.0</ele><time>2026-04-18T07:51:05.949Z</time></trkpt><trkpt lat="43.5367521" lon="12.2679975"><ele>627.0</ele><time>2026-04-18T07:51:07.948Z</time></trkpt><trkpt lat="43.536668" lon="12.2679637"><ele>627.0</ele><time>2026-04-18T07:51:09.947Z</time></trkpt><trkpt lat="43.5365929" lon="12.267917"><ele>627.0</ele><time>2026-04-18T07:51:11.949Z</time></trkpt><trkpt lat="43.5365222" lon="12.2678546"><ele>627.0</ele><time>2026-04-18T07:51:13.948Z</time></trkpt><trkpt lat="43.5364653" lon="12.2678011"><ele>627.0</ele><time>2026-04-18T07:51:14.948Z</time></trkpt><trkpt lat="43.5364053" lon="12.2678282"><ele>627.0</ele><time>2026-04-18T07:51:15.948Z</time></trkpt><trkpt lat="43.5363074" lon="12.2678337"><ele>627.0</ele><time>2026-04-18T07:51:17.949Z</time></trkpt><trkpt lat="43.5361913" lon="12.2677912"><ele>626.5</ele><time>2026-04-18T07:51:19.947Z</time></trkpt><trkpt lat="43.5360606" lon="12.2677851"><ele>626.0</ele><time>2026-04-18T07:51:22.947Z</time></trkpt><trkpt lat="43.5359878" lon="12.2678135"><ele>625.5</ele><time>2026-04-18T07:51:24.948Z</time></trkpt><trkpt lat="43.5359284" lon="12.2678529"><ele>625.0</ele><time>2026-04-18T07:51:26.947Z</time></trkpt><trkpt lat="43.5358735" lon="12.2679048"><ele>624.5</ele><time>2026-04-18T07:51:28.947Z</time></trkpt><trkpt lat="43.5358024" lon="12.2679758"><ele>624.0</ele><time>2026-04-18T07:51:31.948Z</time></trkpt><trkpt lat="43.5357458" lon="12.2680366"><ele>624.0</ele><time>2026-04-18T07:51:33.948Z</time></trkpt><trkpt lat="43.5356798" lon="12.2680762"><ele>624.0</ele><time>2026-04-18T07:51:36.948Z</time></trkpt><trkpt lat="43.5356091" lon="12.2680968"><ele>624.0</ele><time>2026-04-18T07:51:39.948Z</time></trkpt><trkpt lat="43.5355365" lon="12.2681311"><ele>624.0</ele><time>2026-04-18T07:51:41.949Z</time></trkpt><trkpt lat="43.5354632" lon="12.2681799"><ele>624.0</ele><time>2026-04-18T07:51:43.949Z</time></trkpt><trkpt lat="43.5353785" lon="12.2681977"><ele>624.0</ele><time>2026-04-18T07:51:45.948Z</time></trkpt><trkpt lat="43.535299" lon="12.2682161"><ele>621.6666666666666</ele><time>2026-04-18T07:51:47.949Z</time></trkpt><trkpt lat="43.5352002" lon="12.268208"><ele>619.3333333333334</ele><time>2026-04-18T07:51:49.948Z</time></trkpt><trkpt lat="43.5351123" lon="12.2682406"><ele>617.0</ele><time>2026-04-18T07:51:51.948Z</time></trkpt><trkpt lat="43.5350319" lon="12.2682356"><ele>614.6666666666667</ele><time>2026-04-18T07:51:54.948Z</time></trkpt><trkpt lat="43.5349647" lon="12.2682064"><ele>612.3333333333334</ele><time>2026-04-18T07:51:56.948Z</time></trkpt><trkpt lat="43.5349001" lon="12.2681723"><ele>610.0</ele><time>2026-04-18T07:51:57.947Z</time></trkpt><trkpt lat="43.5348154" lon="12.2681149"><ele>609.6666666666667</ele><time>2026-04-18T07:51:59.949Z</time></trkpt><trkpt lat="43.5347311" lon="12.2680909"><ele>609.3333333333334</ele><time>2026-04-18T07:52:01.949Z</time></trkpt><trkpt lat="43.5346505" lon="12.2680784"><ele>609.0</ele><time>2026-04-18T07:52:02.949Z</time></trkpt><trkpt lat="43.5345649" lon="12.2680625"><ele>608.6666666666666</ele><time>2026-04-18T07:52:04.948Z</time></trkpt><trkpt lat="43.5344797" lon="12.2680772"><ele>608.3333333333333</ele><time>2026-04-18T07:52:06.948Z</time></trkpt><trkpt lat="43.5344032" lon="12.2680267"><ele>608.0</ele><time>2026-04-18T07:52:09.947Z</time></trkpt><trkpt lat="43.5343312" lon="12.2679146"><ele>603.8</ele><time>2026-04-18T07:52:11.949Z</time></trkpt><trkpt lat="43.5342472" lon="12.2678233"><ele>599.5999999999999</ele><time>2026-04-18T07:52:13.949Z</time></trkpt><trkpt lat="43.5341571" lon="12.2677779"><ele>595.4000000000001</ele><time>2026-04-18T07:52:15.947Z</time></trkpt><trkpt lat="43.5340939" lon="12.2677761"><ele>591.2</ele><time>2026-04-18T07:52:16.947Z</time></trkpt><trkpt lat="43.5339969" lon="12.2678056"><ele>587.0</ele><time>2026-04-18T07:52:18.948Z</time></trkpt><trkpt lat="43.5339178" lon="12.2678696"><ele>587.0</ele><time>2026-04-18T07:52:20.949Z</time></trkpt><trkpt lat="43.5338476" lon="12.2679231"><ele>587.0</ele><time>2026-04-18T07:52:23.949Z</time></trkpt><trkpt lat="43.533784" lon="12.2679207"><ele>587.0</ele><time>2026-04-18T07:52:26.947Z</time></trkpt><trkpt lat="43.5336844" lon="12.2678954"><ele>587.0</ele><time>2026-04-18T07:52:29.948Z</time></trkpt><trkpt lat="43.5336075" lon="12.2679156"><ele>587.0</ele><time>2026-04-18T07:52:31.948Z</time></trkpt><trkpt lat="43.5335246" lon="12.267956"><ele>587.0</ele><time>2026-04-18T07:52:33.948Z</time></trkpt><trkpt lat="43.5334505" lon="12.2679837"><ele>583.3333333333333</ele><time>2026-04-18T07:52:35.949Z</time></trkpt><trkpt lat="43.5333756" lon="12.2680176"><ele>579.6666666666666</ele><time>2026-04-18T07:52:37.949Z</time></trkpt><trkpt lat="43.5332954" lon="12.2680617"><ele>576.0</ele><time>2026-04-18T07:52:39.947Z</time></trkpt><trkpt lat="43.5332021" lon="12.2680498"><ele>572.3333333333334</ele><time>2026-04-18T07:52:42.949Z</time></trkpt><trkpt lat="43.533129" lon="12.2680114"><ele>568.6666666666667</ele><time>2026-04-18T07:52:44.948Z</time></trkpt><trkpt lat="43.5330654" lon="12.2679684"><ele>565.0</ele><time>2026-04-18T07:52:46.949Z</time></trkpt><trkpt lat="43.5329981" lon="12.2679596"><ele>565.0</ele><time>2026-04-18T07:52:48.948Z</time></trkpt><trkpt lat="43.5329018" lon="12.2679632"><ele>565.0</ele><time>2026-04-18T07:52:51.948Z</time></trkpt><trkpt lat="43.5328385" lon="12.2679964"><ele>565.0</ele><time>2026-04-18T07:52:53.948Z</time></trkpt><trkpt lat="43.5327572" lon="12.2679854"><ele>565.0</ele><time>2026-04-18T07:52:56.948Z</time></trkpt><trkpt lat="43.5326781" lon="12.2679319"><ele>565.0</ele><time>2026-04-18T07:52:59.948Z</time></trkpt><trkpt lat="43.5325749" lon="12.2678735"><ele>565.0</ele><time>2026-04-18T07:53:00.948Z</time></trkpt><trkpt lat="43.5324867" lon="12.2678407"><ele>560.6</ele><time>2026-04-18T07:53:02.948Z</time></trkpt><trkpt lat="43.532393" lon="12.2678986"><ele>556.2</ele><time>2026-04-18T07:53:04.948Z</time></trkpt><trkpt lat="43.532334" lon="12.2679686"><ele>551.8</ele><time>2026-04-18T07:53:06.948Z</time></trkpt><trkpt lat="43.5322361" lon="12.2680372"><ele>547.4</ele><time>2026-04-18T07:53:08.947Z</time></trkpt><trkpt lat="43.5321569" lon="12.2680483"><ele>543.0</ele><time>2026-04-18T07:53:10.947Z</time></trkpt><trkpt lat="43.5320706" lon="12.2680264"><ele>539.3333333333334</ele><time>2026-04-18T07:53:13.949Z</time></trkpt><trkpt lat="43.5319861" lon="12.2679762"><ele>535.6666666666666</ele><time>2026-04-18T07:53:15.947Z</time></trkpt><trkpt lat="43.5319326" lon="12.2679016"><ele>532.0</ele><time>2026-04-18T07:53:17.948Z</time></trkpt><trkpt lat="43.5318784" lon="12.2678262"><ele>528.3333333333333</ele><time>2026-04-18T07:53:19.949Z</time></trkpt><trkpt lat="43.5318151" lon="12.2677759"><ele>524.6666666666666</ele><time>2026-04-18T07:53:21.947Z</time></trkpt><trkpt lat="43.5317207" lon="12.2677838"><ele>521.0</ele><time>2026-04-18T07:53:24.949Z</time></trkpt><trkpt lat="43.5316477" lon="12.2678082"><ele>521.0</ele><time>2026-04-18T07:53:26.949Z</time></trkpt><trkpt lat="43.5315685" lon="12.2678714"><ele>521.0</ele><time>2026-04-18T07:53:28.949Z</time></trkpt><trkpt lat="43.5315133" lon="12.2679183"><ele>521.0</ele><time>2026-04-18T07:53:29.947Z</time></trkpt><trkpt lat="43.5314525" lon="12.267986"><ele>521.0</ele><time>2026-04-18T07:53:31.948Z</time></trkpt><trkpt lat="43.5313961" lon="12.2680558"><ele>521.0</ele><time>2026-04-18T07:53:33.948Z</time></trkpt><trkpt lat="43.5313415" lon="12.2681224"><ele>521.0</ele><time>2026-04-18T07:53:35.948Z</time></trkpt><trkpt lat="43.5313042" lon="12.268212"><ele>522.1666666666666</ele><time>2026-04-18T07:53:37.949Z</time></trkpt><trkpt lat="43.5312877" lon="12.2683307"><ele>523.3333333333333</ele><time>2026-04-18T07:53:39.947Z</time></trkpt><trkpt lat="43.5312853" lon="12.2684713"><ele>524.5</ele><time>2026-04-18T07:53:41.949Z</time></trkpt><trkpt lat="43.5312932" lon="12.2685913"><ele>525.6666666666666</ele><time>2026-04-18T07:53:43.947Z</time></trkpt><trkpt lat="43.531294" lon="12.2686844"><ele>526.8333333333334</ele><time>2026-04-18T07:53:44.947Z</time></trkpt><trkpt lat="43.531219" lon="12.2686291"><ele>528.0</ele><time>2026-04-18T07:53:47.947Z</time></trkpt><trkpt lat="43.5311518" lon="12.2685961"><ele>522.6</ele><time>2026-04-18T07:53:50.949Z</time></trkpt><trkpt lat="43.531084" lon="12.2685093"><ele>517.1999999999999</ele><time>2026-04-18T07:53:51.947Z</time></trkpt><trkpt lat="43.531" lon="12.2684118"><ele>511.8</ele><time>2026-04-18T07:53:53.948Z</time></trkpt><trkpt lat="43.5309408" lon="12.2683078"><ele>506.4</ele><time>2026-04-18T07:53:55.948Z</time></trkpt><trkpt lat="43.5309143" lon="12.2682046"><ele>501.0</ele><time>2026-04-18T07:53:57.949Z</time></trkpt><trkpt lat="43.5309107" lon="12.2680727"><ele>500.6666666666667</ele><time>2026-04-18T07:54:00.948Z</time></trkpt><trkpt lat="43.5308714" lon="12.2679523"><ele>500.33333333333337</ele><time>2026-04-18T07:54:02.948Z</time></trkpt><trkpt lat="43.5308375" lon="12.2678632"><ele>500.0</ele><time>2026-04-18T07:54:03.947Z</time></trkpt><trkpt lat="43.5307622" lon="12.2677492"><ele>499.6666666666667</ele><time>2026-04-18T07:54:05.949Z</time></trkpt><trkpt lat="43.5307118" lon="12.2676914"><ele>499.33333333333337</ele><time>2026-04-18T07:54:06.948Z</time></trkpt><trkpt lat="43.530651" lon="12.2676005"><ele>499.0</ele><time>2026-04-18T07:54:08.949Z</time></trkpt><trkpt lat="43.530543" lon="12.2675646"><ele>499.00000000000006</ele><time>2026-04-18T07:54:10.948Z</time></trkpt><trkpt lat="43.5304569" lon="12.2675627"><ele>499.0</ele><time>2026-04-18T07:54:12.948Z</time></trkpt><trkpt lat="43.5303856" lon="12.2676191"><ele>499.0</ele><time>2026-04-18T07:54:13.948Z</time></trkpt><trkpt lat="43.5303097" lon="12.2677615"><ele>499.0</ele><time>2026-04-18T07:54:15.949Z</time></trkpt><trkpt lat="43.5302664" lon="12.2678284"><ele>499.00000000000006</ele><time>2026-04-18T07:54:16.948Z</time></trkpt><trkpt lat="43.5302338" lon="12.2679052"><ele>499.0</ele><time>2026-04-18T07:54:17.947Z</time></trkpt><trkpt lat="43.5301826" lon="12.2680102"><ele>494.4</ele><time>2026-04-18T07:54:19.947Z</time></trkpt><trkpt lat="43.5301119" lon="12.2679844"><ele>489.79999999999995</ele><time>2026-04-18T07:54:20.949Z</time></trkpt><trkpt lat="43.5300252" lon="12.2679642"><ele>485.20000000000005</ele><time>2026-04-18T07:54:22.948Z</time></trkpt><trkpt lat="43.5299334" lon="12.2679515"><ele>480.6</ele><time>2026-04-18T07:54:24.949Z</time></trkpt><trkpt lat="43.5298283" lon="12.2679557"><ele>476.0</ele><time>2026-04-18T07:54:26.949Z</time></trkpt><trkpt lat="43.5297367" lon="12.2679603"><ele>476.0</ele><time>2026-04-18T07:54:28.948Z</time></trkpt><trkpt lat="43.5296653" lon="12.2679796"><ele>476.0</ele><time>2026-04-18T07:54:29.949Z</time></trkpt><trkpt lat="43.5295771" lon="12.2680577"><ele>476.0</ele><time>2026-04-18T07:54:31.948Z</time></trkpt><trkpt lat="43.5295042" lon="12.2680808"><ele>476.0</ele><time>2026-04-18T07:54:33.948Z</time></trkpt><trkpt lat="43.5294084" lon="12.2681011"><ele>476.0</ele><time>2026-04-18T07:54:35.948Z</time></trkpt><trkpt lat="43.5292983" lon="12.2681021"><ele>471.8</ele><time>2026-04-18T07:54:37.947Z</time></trkpt><trkpt lat="43.5291983" lon="12.2680853"><ele>467.6</ele><time>2026-04-18T07:54:39.947Z</time></trkpt><trkpt lat="43.5291369" lon="12.268056"><ele>463.4</ele><time>2026-04-18T07:54:40.947Z</time></trkpt><trkpt lat="43.529061" lon="12.2679751"><ele>459.2</ele><time>2026-04-18T07:54:42.949Z</time></trkpt><trkpt lat="43.5289554" lon="12.2679473"><ele>455.0</ele><time>2026-04-18T07:54:44.949Z</time></trkpt><trkpt lat="43.5288394" lon="12.267952"><ele>455.0</ele><time>2026-04-18T07:54:46.948Z</time></trkpt><trkpt lat="43.5287743" lon="12.2679592"><ele>455.0</ele><time>2026-04-18T07:54:47.947Z</time></trkpt><trkpt lat="43.5287058" lon="12.2679631"><ele>455.0</ele><time>2026-04-18T07:54:48.948Z</time></trkpt><trkpt lat="43.5286402" lon="12.2679589"><ele>455.0</ele><time>2026-04-18T07:54:49.949Z</time></trkpt><trkpt lat="43.5285762" lon="12.2679618"><ele>455.0</ele><time>2026-04-18T07:54:50.948Z</time></trkpt><trkpt lat="43.5285114" lon="12.2679628"><ele>455.0</ele><time>2026-04-18T07:54:51.949Z</time></trkpt><trkpt lat="43.5283984" lon="12.2679696"><ele>455.0</ele><time>2026-04-18T07:54:53.948Z</time></trkpt><trkpt lat="43.5283072" lon="12.2679696"><ele>452.0</ele><time>2026-04-18T07:54:55.949Z</time></trkpt><trkpt lat="43.5282221" lon="12.2679442"><ele>449.0</ele><time>2026-04-18T07:54:57.948Z</time></trkpt><trkpt lat="43.5281316" lon="12.2678551"><ele>446.0</ele><time>2026-04-18T07:54:59.948Z</time></trkpt><trkpt lat="43.5280754" lon="12.2678091"><ele>443.0</ele><time>2026-04-18T07:55:00.949Z</time></trkpt><trkpt lat="43.5279396" lon="12.2677796"><ele>440.0</ele><time>2026-04-18T07:55:02.948Z</time></trkpt><trkpt lat="43.527875" lon="12.267794"><ele>438.4</ele><time>2026-04-18T07:55:03.949Z</time></trkpt><trkpt lat="43.5277576" lon="12.2677843"><ele>436.8</ele><time>2026-04-18T07:55:05.949Z</time></trkpt><trkpt lat="43.5276511" lon="12.2677448"><ele>435.20000000000005</ele><time>2026-04-18T07:55:07.949Z</time></trkpt><trkpt lat="43.5275566" lon="12.2677152"><ele>433.6</ele><time>2026-04-18T07:55:09.948Z</time></trkpt><trkpt lat="43.5274797" lon="12.2676839"><ele>432.0</ele><time>2026-04-18T07:55:11.948Z</time></trkpt><trkpt lat="43.5274038" lon="12.2676532"><ele>432.0</ele><time>2026-04-18T07:55:13.948Z</time></trkpt><trkpt lat="43.5273155" lon="12.2676291"><ele>432.0</ele><time>2026-04-18T07:55:15.948Z</time></trkpt><trkpt lat="43.5272319" lon="12.2676391"><ele>432.0</ele><time>2026-04-18T07:55:17.949Z</time></trkpt><trkpt lat="43.5271501" lon="12.2676681"><ele>432.0</ele><time>2026-04-18T07:55:19.949Z</time></trkpt><trkpt lat="43.5270785" lon="12.2677097"><ele>432.0</ele><time>2026-04-18T07:55:21.949Z</time></trkpt><trkpt lat="43.5270029" lon="12.2677313"><ele>432.0</ele><time>2026-04-18T07:55:23.948Z</time></trkpt><trkpt lat="43.5269172" lon="12.2677445"><ele>430.6</ele><time>2026-04-18T07:55:25.948Z</time></trkpt><trkpt lat="43.5268265" lon="12.2677538"><ele>429.20000000000005</ele><time>2026-04-18T07:55:27.947Z</time></trkpt><trkpt lat="43.526716" lon="12.2677735"><ele>427.8</ele><time>2026-04-18T07:55:29.949Z</time></trkpt><trkpt lat="43.5266271" lon="12.2677507"><ele>426.4</ele><time>2026-04-18T07:55:31.948Z</time></trkpt><trkpt lat="43.5265256" lon="12.2677043"><ele>425.0</ele><time>2026-04-18T07:55:33.947Z</time></trkpt><trkpt lat="43.5264738" lon="12.2676262"><ele>424.99999999999994</ele><time>2026-04-18T07:55:34.949Z</time></trkpt><trkpt lat="43.5264146" lon="12.2675776"><ele>425.0</ele><time>2026-04-18T07:55:35.947Z</time></trkpt><trkpt lat="43.5263245" lon="12.2675616"><ele>425.0</ele><time>2026-04-18T07:55:36.947Z</time></trkpt><trkpt lat="43.5262367" lon="12.2675708"><ele>425.0</ele><time>2026-04-18T07:55:37.949Z</time></trkpt><trkpt lat="43.5261455" lon="12.2675989"><ele>424.99999999999994</ele><time>2026-04-18T07:55:38.948Z</time></trkpt><trkpt lat="43.5260415" lon="12.2676174"><ele>425.0</ele><time>2026-04-18T07:55:39.948Z</time></trkpt><trkpt lat="43.5259429" lon="12.2676268"><ele>424.8333333333333</ele><time>2026-04-18T07:55:40.948Z</time></trkpt><trkpt lat="43.5258529" lon="12.2676145"><ele>424.66666666666663</ele><time>2026-04-18T07:55:41.947Z</time></trkpt><trkpt lat="43.5257695" lon="12.2675889"><ele>424.5</ele><time>2026-04-18T07:55:42.949Z</time></trkpt><trkpt lat="43.5256968" lon="12.2675325"><ele>424.33333333333337</ele><time>2026-04-18T07:55:43.949Z</time></trkpt><trkpt lat="43.5256419" lon="12.2674768"><ele>424.1666666666667</ele><time>2026-04-18T07:55:44.948Z</time></trkpt><trkpt lat="43.5255701" lon="12.2674385"><ele>424.0</ele><time>2026-04-18T07:55:46.948Z</time></trkpt><trkpt lat="43.5255974" lon="12.2675352"><ele>424.00000000000006</ele><time>2026-04-18T07:55:49.948Z</time></trkpt><trkpt lat="43.5256333" lon="12.2676209"><ele>424.0</ele><time>2026-04-18T07:55:50.949Z</time></trkpt><trkpt lat="43.525672" lon="12.2677127"><ele>424.0</ele><time>2026-04-18T07:55:51.948Z</time></trkpt><trkpt lat="43.5257148" lon="12.26779"><ele>424.0</ele><time>2026-04-18T07:55:52.948Z</time></trkpt><trkpt lat="43.5257599" lon="12.2678753"><ele>424.00000000000006</ele><time>2026-04-18T07:55:53.948Z</time></trkpt><trkpt lat="43.5257419" lon="12.267959"><ele>424.0</ele><time>2026-04-18T07:55:54.949Z</time></trkpt><trkpt lat="43.5257045" lon="12.2680749"><ele>424.0</ele><time>2026-04-18T07:55:55.948Z</time></trkpt><trkpt lat="43.5256257" lon="12.2681083"><ele>424.0</ele><time>2026-04-18T07:55:57.948Z</time></trkpt><trkpt lat="43.5255168" lon="12.2681242"><ele>424.0</ele><time>2026-04-18T07:55:59.949Z</time></trkpt><trkpt lat="43.5254351" lon="12.2681379"><ele>424.0</ele><time>2026-04-18T07:56:01.948Z</time></trkpt><trkpt lat="43.5253361" lon="12.26813"><ele>424.0</ele><time>2026-04-18T07:56:04.949Z</time></trkpt><trkpt lat="43.5252555" lon="12.2681153"><ele>422.00000000000006</ele><time>2026-04-18T07:56:05.949Z</time></trkpt><trkpt lat="43.5252029" lon="12.2681846"><ele>420.0</ele><time>2026-04-18T07:56:06.948Z</time></trkpt><trkpt lat="43.5251444" lon="12.2682335"><ele>418.0</ele><time>2026-04-18T07:56:07.948Z</time></trkpt><trkpt lat="43.5251715" lon="12.2683267"><ele>416.0</ele><time>2026-04-18T07:56:10.948Z</time></trkpt><trkpt lat="43.5252699" lon="12.2683522"><ele>414.00000000000006</ele><time>2026-04-18T07:56:12.948Z</time></trkpt><trkpt lat="43.5253564" lon="12.2684872"><ele>412.0</ele><time>2026-04-18T07:56:16.948Z</time></trkpt><trkpt lat="43.525401" lon="12.2685856"><ele>412.0</ele><time>2026-04-18T07:56:18.949Z</time></trkpt><trkpt lat="43.5254506" lon="12.2687305"><ele>412.0</ele><time>2026-04-18T07:56:20.948Z</time></trkpt><trkpt lat="43.5254934" lon="12.2688788"><ele>412.0</ele><time>2026-04-18T07:56:22.948Z</time></trkpt><trkpt lat="43.5255626" lon="12.2690179"><ele>412.0</ele><time>2026-04-18T07:56:24.948Z</time></trkpt><trkpt lat="43.5256345" lon="12.269141"><ele>413.0</ele><time>2026-04-18T07:56:26.949Z</time></trkpt><trkpt lat="43.525676" lon="12.2692178"><ele>414.0</ele><time>2026-04-18T07:56:27.948Z</time></trkpt><trkpt lat="43.5257973" lon="12.2693468"><ele>415.0</ele><time>2026-04-18T07:56:29.949Z</time></trkpt><trkpt lat="43.5258554" lon="12.2693872"><ele>416.0</ele><time>2026-04-18T07:56:30.948Z</time></trkpt><trkpt lat="43.5259423" lon="12.2694733"><ele>417.0</ele><time>2026-04-18T07:56:32.948Z</time></trkpt><trkpt lat="43.5260313" lon="12.2695461"><ele>417.0</ele><time>2026-04-18T07:56:34.947Z</time></trkpt><trkpt lat="43.5260292" lon="12.2696474"><ele>417.0</ele><time>2026-04-18T07:56:37.947Z</time></trkpt><trkpt lat="43.5260135" lon="12.2697499"><ele>417.0</ele><time>2026-04-18T07:56:38.948Z</time></trkpt><trkpt lat="43.5259463" lon="12.2697671"><ele>417.0</ele><time>2026-04-18T07:56:39.949Z</time></trkpt><trkpt lat="43.5258239" lon="12.2698869"><ele>417.0</ele><time>2026-04-18T07:56:41.949Z</time></trkpt><trkpt lat="43.5256582" lon="12.2699268"><ele>419.5</ele><time>2026-04-18T07:56:43.948Z</time></trkpt><trkpt lat="43.5255547" lon="12.2698999"><ele>422.0</ele><time>2026-04-18T07:56:45.948Z</time></trkpt><trkpt lat="43.5254714" lon="12.2698713"><ele>424.5</ele><time>2026-04-18T07:56:46.947Z</time></trkpt><trkpt lat="43.5254076" lon="12.2698661"><ele>427.0</ele><time>2026-04-18T07:56:47.948Z</time></trkpt><trkpt lat="43.5253272" lon="12.2698535"><ele>429.5</ele><time>2026-04-18T07:56:48.948Z</time></trkpt><trkpt lat="43.5252435" lon="12.2698131"><ele>432.0</ele><time>2026-04-18T07:56:49.948Z</time></trkpt><trkpt lat="43.5251439" lon="12.2698066"><ele>431.0</ele><time>2026-04-18T07:56:51.947Z</time></trkpt><trkpt lat="43.5250559" lon="12.2697974"><ele>430.0</ele><time>2026-04-18T07:56:53.948Z</time></trkpt><trkpt lat="43.5249907" lon="12.2697636"><ele>429.0</ele><time>2026-04-18T07:56:55.949Z</time></trkpt><trkpt lat="43.5249076" lon="12.2697068"><ele>428.0</ele><time>2026-04-18T07:56:57.948Z</time></trkpt><trkpt lat="43.524833" lon="12.269681"><ele>427.0</ele><time>2026-04-18T07:56:58.948Z</time></trkpt><trkpt lat="43.5247563" lon="12.2696471"><ele>426.0</ele><time>2026-04-18T07:57:00.949Z</time></trkpt><trkpt lat="43.5246724" lon="12.2695716"><ele>426.0</ele><time>2026-04-18T07:57:02.947Z</time></trkpt><trkpt lat="43.5246005" lon="12.2695561"><ele>426.0</ele><time>2026-04-18T07:57:03.949Z</time></trkpt><trkpt lat="43.5245253" lon="12.2695238"><ele>426.0</ele><time>2026-04-18T07:57:04.949Z</time></trkpt><trkpt lat="43.5244344" lon="12.2694711"><ele>426.0</ele><time>2026-04-18T07:57:06.949Z</time></trkpt><trkpt lat="43.524376" lon="12.269403"><ele>426.0</ele><time>2026-04-18T07:57:07.948Z</time></trkpt><trkpt lat="43.5242965" lon="12.2693652"><ele>426.0</ele><time>2026-04-18T07:57:08.948Z</time></trkpt><trkpt lat="43.5241962" lon="12.2693047"><ele>430.6</ele><time>2026-04-18T07:57:09.949Z</time></trkpt><trkpt lat="43.5240875" lon="12.2692432"><ele>435.20000000000005</ele><time>2026-04-18T07:57:11.948Z</time></trkpt><trkpt lat="43.5239703" lon="12.2692103"><ele>439.79999999999995</ele><time>2026-04-18T07:57:13.948Z</time></trkpt><trkpt lat="43.5238817" lon="12.2691917"><ele>444.4</ele><time>2026-04-18T07:57:15.948Z</time></trkpt><trkpt lat="43.5237924" lon="12.2691648"><ele>449.0</ele><time>2026-04-18T07:57:17.948Z</time></trkpt><trkpt lat="43.5237249" lon="12.2692053"><ele>451.2</ele><time>2026-04-18T07:57:18.948Z</time></trkpt><trkpt lat="43.5236459" lon="12.2692056"><ele>453.4</ele><time>2026-04-18T07:57:20.948Z</time></trkpt><trkpt lat="43.5235719" lon="12.2691987"><ele>455.6</ele><time>2026-04-18T07:57:22.948Z</time></trkpt><trkpt lat="43.5234398" lon="12.269158"><ele>457.8</ele><time>2026-04-18T07:57:24.949Z</time></trkpt><trkpt lat="43.5233566" lon="12.269253"><ele>460.0</ele><time>2026-04-18T07:57:26.947Z</time></trkpt><trkpt lat="43.523365" lon="12.2693632"><ele>460.0</ele><time>2026-04-18T07:57:28.949Z</time></trkpt><trkpt lat="43.5233968" lon="12.2694922"><ele>460.0</ele><time>2026-04-18T07:57:30.947Z</time></trkpt><trkpt lat="43.5234645" lon="12.2694975"><ele>460.0</ele><time>2026-04-18T07:57:31.948Z</time></trkpt><trkpt lat="43.5235319" lon="12.2695401"><ele>460.0</ele><time>2026-04-18T07:57:32.948Z</time></trkpt><trkpt lat="43.5236276" lon="12.2696298"><ele>460.0</ele><time>2026-04-18T07:57:34.947Z</time></trkpt><trkpt lat="43.523746" lon="12.2696987"><ele>458.1666666666667</ele><time>2026-04-18T07:57:36.949Z</time></trkpt><trkpt lat="43.5238089" lon="12.2697287"><ele>456.33333333333337</ele><time>2026-04-18T07:57:37.949Z</time></trkpt><trkpt lat="43.5238737" lon="12.2697672"><ele>454.5</ele><time>2026-04-18T07:57:38.949Z</time></trkpt><trkpt lat="43.5239356" lon="12.2698222"><ele>452.66666666666663</ele><time>2026-04-18T07:57:39.948Z</time></trkpt><trkpt lat="43.5240246" lon="12.2699547"><ele>450.8333333333333</ele><time>2026-04-18T07:57:41.948Z</time></trkpt><trkpt lat="43.5240627" lon="12.2700457"><ele>449.0</ele><time>2026-04-18T07:57:42.949Z</time></trkpt><trkpt lat="43.5241053" lon="12.2701179"><ele>452.99999999999994</ele><time>2026-04-18T07:57:43.949Z</time></trkpt><trkpt lat="43.5241358" lon="12.2702089"><ele>457.0</ele><time>2026-04-18T07:57:44.948Z</time></trkpt><trkpt lat="43.524173" lon="12.2702896"><ele>461.0</ele><time>2026-04-18T07:57:45.948Z</time></trkpt><trkpt lat="43.5242222" lon="12.2703686"><ele>465.0</ele><time>2026-04-18T07:57:46.948Z</time></trkpt><trkpt lat="43.5242554" lon="12.2704877"><ele>468.99999999999994</ele><time>2026-04-18T07:57:48.948Z</time></trkpt><trkpt lat="43.5242759" lon="12.2706127"><ele>473.0</ele><time>2026-04-18T07:57:50.948Z</time></trkpt><trkpt lat="43.5242762" lon="12.2707832"><ele>475.59999999999997</ele><time>2026-04-18T07:57:51.948Z</time></trkpt><trkpt lat="43.5242617" lon="12.2709367"><ele>478.19999999999993</ele><time>2026-04-18T07:57:53.948Z</time></trkpt><trkpt lat="43.5242773" lon="12.2710339"><ele>480.8</ele><time>2026-04-18T07:57:54.948Z</time></trkpt><trkpt lat="43.5242414" lon="12.2712058"><ele>483.4</ele><time>2026-04-18T07:57:56.947Z</time></trkpt><trkpt lat="43.524213" lon="12.2713516"><ele>486.0</ele><time>2026-04-18T07:57:57.948Z</time></trkpt><trkpt lat="43.5241752" lon="12.2714572"><ele>487.3333333333333</ele><time>2026-04-18T07:57:58.948Z</time></trkpt><trkpt lat="43.5241355" lon="12.2715258"><ele>488.66666666666663</ele><time>2026-04-18T07:57:59.948Z</time></trkpt><trkpt lat="43.5241094" lon="12.2716151"><ele>490.0</ele><time>2026-04-18T07:58:00.949Z</time></trkpt><trkpt lat="43.5240208" lon="12.2716701"><ele>491.3333333333333</ele><time>2026-04-18T07:58:02.948Z</time></trkpt><trkpt lat="43.5239523" lon="12.2717544"><ele>492.66666666666663</ele><time>2026-04-18T07:58:04.948Z</time></trkpt><trkpt lat="43.5238703" lon="12.2718315"><ele>494.0</ele><time>2026-04-18T07:58:07.948Z</time></trkpt><trkpt lat="43.5238021" lon="12.2719006"><ele>494.0</ele><time>2026-04-18T07:58:10.948Z</time></trkpt><trkpt lat="43.5237337" lon="12.2719625"><ele>494.0</ele><time>2026-04-18T07:58:13.947Z</time></trkpt><trkpt lat="43.5236585" lon="12.2719642"><ele>494.0</ele><time>2026-04-18T07:58:15.949Z</time></trkpt><trkpt lat="43.523441" lon="12.2720174"><ele>494.0</ele><time>2026-04-18T07:58:17.948Z</time></trkpt><trkpt lat="43.5233358" lon="12.2720666"><ele>495.4</ele><time>2026-04-18T07:58:18.948Z</time></trkpt><trkpt lat="43.523228" lon="12.2720911"><ele>496.79999999999995</ele><time>2026-04-18T07:58:19.949Z</time></trkpt><trkpt lat="43.5231207" lon="12.2721303"><ele>498.20000000000005</ele><time>2026-04-18T07:58:20.949Z</time></trkpt><trkpt lat="43.5229955" lon="12.2721786"><ele>499.6</ele><time>2026-04-18T07:58:22.949Z</time></trkpt><trkpt lat="43.5229185" lon="12.2721673"><ele>501.0</ele><time>2026-04-18T07:58:23.948Z</time></trkpt><trkpt lat="43.5228394" lon="12.2721532"><ele>501.8</ele><time>2026-04-18T07:58:24.949Z</time></trkpt><trkpt lat="43.5227347" lon="12.2721172"><ele>502.6</ele><time>2026-04-18T07:58:25.947Z</time></trkpt><trkpt lat="43.5226143" lon="12.2720467"><ele>503.4</ele><time>2026-04-18T07:58:26.948Z</time></trkpt><trkpt lat="43.5225429" lon="12.2720275"><ele>504.2</ele><time>2026-04-18T07:58:27.948Z</time></trkpt><trkpt lat="43.5224392" lon="12.2720564"><ele>505.0</ele><time>2026-04-18T07:58:29.947Z</time></trkpt><trkpt lat="43.52235" lon="12.2721404"><ele>505.00000000000006</ele><time>2026-04-18T07:58:31.947Z</time></trkpt><trkpt lat="43.5222699" lon="12.2721432"><ele>505.0</ele><time>2026-04-18T07:58:32.948Z</time></trkpt><trkpt lat="43.5221607" lon="12.2721625"><ele>505.0</ele><time>2026-04-18T07:58:33.949Z</time></trkpt><trkpt lat="43.522089" lon="12.2721729"><ele>505.0</ele><time>2026-04-18T07:58:34.948Z</time></trkpt><trkpt lat="43.5220133" lon="12.2721909"><ele>505.00000000000006</ele><time>2026-04-18T07:58:35.948Z</time></trkpt><trkpt lat="43.521927" lon="12.2721926"><ele>505.0</ele><time>2026-04-18T07:58:36.948Z</time></trkpt><trkpt lat="43.5218187" lon="12.2719886"><ele>506.6</ele><time>2026-04-18T07:58:37.948Z</time></trkpt><trkpt lat="43.521725" lon="12.2718958"><ele>508.2</ele><time>2026-04-18T07:58:38.948Z</time></trkpt><trkpt lat="43.5216372" lon="12.271834"><ele>509.79999999999995</ele><time>2026-04-18T07:58:39.948Z</time></trkpt><trkpt lat="43.5215139" lon="12.2717755"><ele>511.4</ele><time>2026-04-18T07:58:41.948Z</time></trkpt><trkpt lat="43.5214417" lon="12.2717415"><ele>513.0</ele><time>2026-04-18T07:58:42.948Z</time></trkpt><trkpt lat="43.5213378" lon="12.271736"><ele>513.0</ele><time>2026-04-18T07:58:43.947Z</time></trkpt><trkpt lat="43.5212888" lon="12.2716499"><ele>513.0</ele><time>2026-04-18T07:58:44.949Z</time></trkpt><trkpt lat="43.5212175" lon="12.2716326"><ele>513.0</ele><time>2026-04-18T07:58:45.948Z</time></trkpt><trkpt lat="43.5211528" lon="12.2715802"><ele>513.0</ele><time>2026-04-18T07:58:46.949Z</time></trkpt><trkpt lat="43.5210581" lon="12.2716056"><ele>513.0</ele><time>2026-04-18T07:58:47.949Z</time></trkpt><trkpt lat="43.5209772" lon="12.271618"><ele>513.0</ele><time>2026-04-18T07:58:48.948Z</time></trkpt><trkpt lat="43.5208988" lon="12.271633"><ele>514.0</ele><time>2026-04-18T07:58:49.948Z</time></trkpt><trkpt lat="43.5208151" lon="12.2716457"><ele>515.0</ele><time>2026-04-18T07:58:51.948Z</time></trkpt><trkpt lat="43.520737" lon="12.2716643"><ele>516.0</ele><time>2026-04-18T07:58:53.949Z</time></trkpt><trkpt lat="43.5207284" lon="12.2717598"><ele>517.0</ele><time>2026-04-18T07:59:01.947Z</time></trkpt><trkpt lat="43.5208094" lon="12.2718282"><ele>518.0</ele><time>2026-04-18T07:59:03.949Z</time></trkpt><trkpt lat="43.5208872" lon="12.2719272"><ele>519.0</ele><time>2026-04-18T07:59:05.948Z</time></trkpt><trkpt lat="43.5209519" lon="12.2720425"><ele>519.0</ele><time>2026-04-18T07:59:07.948Z</time></trkpt><trkpt lat="43.5209659" lon="12.2721289"><ele>519.0</ele><time>2026-04-18T07:59:10.948Z</time></trkpt><trkpt lat="43.5209766" lon="12.2722481"><ele>519.0</ele><time>2026-04-18T07:59:15.948Z</time></trkpt><trkpt lat="43.5209863" lon="12.2724189"><ele>519.0</ele><time>2026-04-18T07:59:17.947Z</time></trkpt><trkpt lat="43.5209893" lon="12.2725818"><ele>519.0</ele><time>2026-04-18T07:59:19.949Z</time></trkpt><trkpt lat="43.5209896" lon="12.2727406"><ele>519.8</ele><time>2026-04-18T07:59:21.949Z</time></trkpt><trkpt lat="43.5209679" lon="12.272865"><ele>520.5999999999999</ele><time>2026-04-18T07:59:23.947Z</time></trkpt><trkpt lat="43.5209453" lon="12.273051"><ele>521.4</ele><time>2026-04-18T07:59:25.947Z</time></trkpt><trkpt lat="43.5209149" lon="12.2731649"><ele>522.1999999999999</ele><time>2026-04-18T07:59:26.948Z</time></trkpt><trkpt lat="43.5208766" lon="12.2732876"><ele>523.0</ele><time>2026-04-18T07:59:27.948Z</time></trkpt><trkpt lat="43.520834" lon="12.2734292"><ele>523.1999999999999</ele><time>2026-04-18T07:59:28.948Z</time></trkpt><trkpt lat="43.5207909" lon="12.2735789"><ele>523.4</ele><time>2026-04-18T07:59:29.947Z</time></trkpt><trkpt lat="43.5207399" lon="12.273726"><ele>523.5999999999999</ele><time>2026-04-18T07:59:30.949Z</time></trkpt><trkpt lat="43.5206985" lon="12.2738735"><ele>523.8</ele><time>2026-04-18T07:59:31.947Z</time></trkpt><trkpt lat="43.5206707" lon="12.274002"><ele>524.0</ele><time>2026-04-18T07:59:32.949Z</time></trkpt><trkpt lat="43.5206599" lon="12.2741646"><ele>524.4</ele><time>2026-04-18T07:59:33.948Z</time></trkpt><trkpt lat="43.5206357" lon="12.2743311"><ele>524.8</ele><time>2026-04-18T07:59:34.947Z</time></trkpt><trkpt lat="43.5206197" lon="12.274477"><ele>525.2</ele><time>2026-04-18T07:59:35.948Z</time></trkpt><trkpt lat="43.5206074" lon="12.2746011"><ele>525.6</ele><time>2026-04-18T07:59:36.947Z</time></trkpt><trkpt lat="43.5205795" lon="12.2747075"><ele>526.0</ele><time>2026-04-18T07:59:37.948Z</time></trkpt><trkpt lat="43.5205422" lon="12.274796"><ele>527.25</ele><time>2026-04-18T07:59:38.947Z</time></trkpt><trkpt lat="43.5205123" lon="12.2749245"><ele>528.5</ele><time>2026-04-18T07:59:39.947Z</time></trkpt><trkpt lat="43.5204329" lon="12.2751222"><ele>529.75</ele><time>2026-04-18T07:59:41.948Z</time></trkpt><trkpt lat="43.5203598" lon="12.2752594"><ele>531.0</ele><time>2026-04-18T07:59:42.948Z</time></trkpt><trkpt lat="43.520306" lon="12.2754202"><ele>531.0</ele><time>2026-04-18T07:59:43.947Z</time></trkpt><trkpt lat="43.5202776" lon="12.2755373"><ele>531.0</ele><time>2026-04-18T07:59:44.948Z</time></trkpt><trkpt lat="43.5202306" lon="12.2756364"><ele>531.0</ele><time>2026-04-18T07:59:45.948Z</time></trkpt><trkpt lat="43.520168" lon="12.2757117"><ele>531.0</ele><time>2026-04-18T07:59:46.949Z</time></trkpt><trkpt lat="43.5201109" lon="12.275777"><ele>531.0</ele><time>2026-04-18T07:59:47.947Z</time></trkpt><trkpt lat="43.5200394" lon="12.2758344"><ele>531.0</ele><time>2026-04-18T07:59:48.948Z</time></trkpt><trkpt lat="43.5198944" lon="12.2758112"><ele>531.6</ele><time>2026-04-18T07:59:49.948Z</time></trkpt><trkpt lat="43.5197778" lon="12.2758242"><ele>532.2</ele><time>2026-04-18T07:59:50.948Z</time></trkpt><trkpt lat="43.5196652" lon="12.2758369"><ele>532.8</ele><time>2026-04-18T07:59:51.948Z</time></trkpt><trkpt lat="43.5195927" lon="12.2758493"><ele>533.4</ele><time>2026-04-18T07:59:52.948Z</time></trkpt><trkpt lat="43.5194993" lon="12.2758862"><ele>534.0</ele><time>2026-04-18T07:59:53.949Z</time></trkpt><trkpt lat="43.5194252" lon="12.2759381"><ele>535.0000000000001</ele><time>2026-04-18T07:59:54.948Z</time></trkpt><trkpt lat="43.5193487" lon="12.2759536"><ele>536.0</ele><time>2026-04-18T07:59:55.948Z</time></trkpt><trkpt lat="43.5192804" lon="12.2759807"><ele>537.0</ele><time>2026-04-18T07:59:56.948Z</time></trkpt><trkpt lat="43.5192265" lon="12.2760273"><ele>538.0</ele><time>2026-04-18T07:59:57.948Z</time></trkpt><trkpt lat="43.5191702" lon="12.2760821"><ele>539.0</ele><time>2026-04-18T07:59:58.947Z</time></trkpt><trkpt lat="43.5191317" lon="12.2761571"><ele>540.0000000000001</ele><time>2026-04-18T07:59:59.949Z</time></trkpt><trkpt lat="43.5190918" lon="12.276236"><ele>541.0</ele><time>2026-04-18T08:00:00.949Z</time></trkpt><trkpt lat="43.5190454" lon="12.2763274"><ele>541.6</ele><time>2026-04-18T08:00:01.948Z</time></trkpt><trkpt lat="43.5190201" lon="12.2765202"><ele>542.2</ele><time>2026-04-18T08:00:03.948Z</time></trkpt><trkpt lat="43.519045" lon="12.2766984"><ele>542.8</ele><time>2026-04-18T08:00:04.949Z</time></trkpt><trkpt lat="43.5190557" lon="12.276829"><ele>543.4</ele><time>2026-04-18T08:00:05.949Z</time></trkpt><trkpt lat="43.5190682" lon="12.2769232"><ele>544.0</ele><time>2026-04-18T08:00:06.948Z</time></trkpt><trkpt lat="43.5190732" lon="12.2770162"><ele>544.0</ele><time>2026-04-18T08:00:07.947Z</time></trkpt><trkpt lat="43.5190667" lon="12.2771181"><ele>544.0</ele><time>2026-04-18T08:00:08.947Z</time></trkpt><trkpt lat="43.519062" lon="12.2772662"><ele>544.0</ele><time>2026-04-18T08:00:10.947Z</time></trkpt><trkpt lat="43.5190438" lon="12.2773878"><ele>544.0</ele><time>2026-04-18T08:00:12.949Z</time></trkpt><trkpt lat="43.5190082" lon="12.2774946"><ele>544.0</ele><time>2026-04-18T08:00:14.948Z</time></trkpt><trkpt lat="43.5189724" lon="12.2775837"><ele>544.0</ele><time>2026-04-18T08:00:16.948Z</time></trkpt><trkpt lat="43.5189185" lon="12.2776731"><ele>543.3333333333334</ele><time>2026-04-18T08:00:18.948Z</time></trkpt><trkpt lat="43.5188919" lon="12.2777546"><ele>542.6666666666667</ele><time>2026-04-18T08:00:19.949Z</time></trkpt><trkpt lat="43.5188322" lon="12.2778506"><ele>542.0</ele><time>2026-04-18T08:00:21.947Z</time></trkpt><trkpt lat="43.5187895" lon="12.2779449"><ele>541.3333333333334</ele><time>2026-04-18T08:00:24.948Z</time></trkpt><trkpt lat="43.5187485" lon="12.2780431"><ele>540.6666666666666</ele><time>2026-04-18T08:00:27.949Z</time></trkpt><trkpt lat="43.5187087" lon="12.2781162"><ele>540.0</ele><time>2026-04-18T08:04:02.948Z</time></trkpt><trkpt lat="43.5187327" lon="12.2782454"><ele>540.0</ele><time>2026-04-18T08:04:06.948Z</time></trkpt><trkpt lat="43.5187296" lon="12.2783531"><ele>540.0</ele><time>2026-04-18T08:04:08.949Z</time></trkpt><trkpt lat="43.5187293" lon="12.2784678"><ele>540.0</ele><time>2026-04-18T08:04:10.947Z</time></trkpt><trkpt lat="43.518756" lon="12.2785596"><ele>540.0</ele><time>2026-04-18T08:04:12.949Z</time></trkpt><trkpt lat="43.5188002" lon="12.2786475"><ele>540.0</ele><time>2026-04-18T08:04:14.948Z</time></trkpt><trkpt lat="43.5188434" lon="12.2787462"><ele>540.0</ele><time>2026-04-18T08:04:16.947Z</time></trkpt><trkpt lat="43.5188208" lon="12.2788382"><ele>540.0</ele><time>2026-04-18T08:04:19.947Z</time></trkpt><trkpt lat="43.518758" lon="12.2787974"><ele>540.0</ele><time>2026-04-18T08:04:21.948Z</time></trkpt><trkpt lat="43.5186671" lon="12.2786945"><ele>540.0</ele><time>2026-04-18T08:04:23.948Z</time></trkpt><trkpt lat="43.5185913" lon="12.27857"><ele>540.0</ele><time>2026-04-18T08:04:25.948Z</time></trkpt><trkpt lat="43.518548" lon="12.27849"><ele>540.0</ele><time>2026-04-18T08:04:26.948Z</time></trkpt><trkpt lat="43.5184963" lon="12.2784141"><ele>540.0</ele><time>2026-04-18T08:04:27.949Z</time></trkpt><trkpt lat="43.5184576" lon="12.27833"><ele>540.0</ele><time>2026-04-18T08:04:28.948Z</time></trkpt><trkpt lat="43.5184208" lon="12.2782446"><ele>540.0</ele><time>2026-04-18T08:04:29.949Z</time></trkpt><trkpt lat="43.5183749" lon="12.2781624"><ele>540.0</ele><time>2026-04-18T08:04:30.948Z</time></trkpt><trkpt lat="43.5183266" lon="12.2780924"><ele>540.0</ele><time>2026-04-18T08:04:31.949Z</time></trkpt><trkpt lat="43.518283" lon="12.2780153"><ele>540.0</ele><time>2026-04-18T08:04:32.949Z</time></trkpt><trkpt lat="43.518245" lon="12.2779375"><ele>540.0</ele><time>2026-04-18T08:04:33.948Z</time></trkpt><trkpt lat="43.5182073" lon="12.2778494"><ele>540.5714285714286</ele><time>2026-04-18T08:04:34.947Z</time></trkpt><trkpt lat="43.5181821" lon="12.2777503"><ele>541.1428571428571</ele><time>2026-04-18T08:04:35.949Z</time></trkpt><trkpt lat="43.5181481" lon="12.2776583"><ele>541.7142857142857</ele><time>2026-04-18T08:04:36.947Z</time></trkpt><trkpt lat="43.5181336" lon="12.2775599"><ele>542.2857142857142</ele><time>2026-04-18T08:04:37.948Z</time></trkpt><trkpt lat="43.5181145" lon="12.2774671"><ele>542.8571428571429</ele><time>2026-04-18T08:04:38.949Z</time></trkpt><trkpt lat="43.5180908" lon="12.2773727"><ele>543.4285714285713</ele><time>2026-04-18T08:04:39.949Z</time></trkpt><trkpt lat="43.518075" lon="12.2772875"><ele>544.0</ele><time>2026-04-18T08:04:40.948Z</time></trkpt><trkpt lat="43.5180639" lon="12.2771985"><ele>544.0</ele><time>2026-04-18T08:04:41.948Z</time></trkpt><trkpt lat="43.5180258" lon="12.2771144"><ele>544.0</ele><time>2026-04-18T08:04:43.949Z</time></trkpt><trkpt lat="43.5179939" lon="12.2770302"><ele>544.0</ele><time>2026-04-18T08:04:45.948Z</time></trkpt><trkpt lat="43.5179397" lon="12.2769198"><ele>544.0</ele><time>2026-04-18T08:04:48.949Z</time></trkpt><trkpt lat="43.5178694" lon="12.2768114"><ele>544.0</ele><time>2026-04-18T08:04:50.948Z</time></trkpt><trkpt lat="43.5178023" lon="12.2767564"><ele>544.0</ele><time>2026-04-18T08:04:51.948Z</time></trkpt><trkpt lat="43.517752" lon="12.2766784"><ele>542.8333333333334</ele><time>2026-04-18T08:04:52.948Z</time></trkpt><trkpt lat="43.5177122" lon="12.2765933"><ele>541.6666666666667</ele><time>2026-04-18T08:04:53.949Z</time></trkpt><trkpt lat="43.5176644" lon="12.2765314"><ele>540.5</ele><time>2026-04-18T08:04:54.948Z</time></trkpt><trkpt lat="43.5176229" lon="12.2764572"><ele>539.3333333333334</ele><time>2026-04-18T08:04:55.949Z</time></trkpt><trkpt lat="43.5175102" lon="12.2763615"><ele>538.1666666666666</ele><time>2026-04-18T08:04:57.948Z</time></trkpt><trkpt lat="43.5174487" lon="12.276313"><ele>537.0</ele><time>2026-04-18T08:04:58.948Z</time></trkpt><trkpt lat="43.5173847" lon="12.2762629"><ele>536.8000000000001</ele><time>2026-04-18T08:04:59.949Z</time></trkpt><trkpt lat="43.5173175" lon="12.2761876"><ele>536.6</ele><time>2026-04-18T08:05:00.949Z</time></trkpt><trkpt lat="43.5172452" lon="12.2761467"><ele>536.4000000000001</ele><time>2026-04-18T08:05:01.947Z</time></trkpt><trkpt lat="43.5171895" lon="12.2760919"><ele>536.2</ele><time>2026-04-18T08:05:02.947Z</time></trkpt><trkpt lat="43.5170865" lon="12.2759949"><ele>536.0</ele><time>2026-04-18T08:05:04.949Z</time></trkpt><trkpt lat="43.516996" lon="12.2758767"><ele>535.6666666666666</ele><time>2026-04-18T08:05:06.947Z</time></trkpt><trkpt lat="43.5169492" lon="12.2758073"><ele>535.3333333333333</ele><time>2026-04-18T08:05:07.948Z</time></trkpt><trkpt lat="43.5168993" lon="12.2757537"><ele>535.0</ele><time>2026-04-18T08:05:08.947Z</time></trkpt><trkpt lat="43.5168005" lon="12.2756639"><ele>534.6666666666666</ele><time>2026-04-18T08:05:10.949Z</time></trkpt><trkpt lat="43.5167525" lon="12.2755998"><ele>534.3333333333334</ele><time>2026-04-18T08:05:11.948Z</time></trkpt><trkpt lat="43.5167011" lon="12.2755395"><ele>534.0</ele><time>2026-04-18T08:05:12.948Z</time></trkpt><trkpt lat="43.5166167" lon="12.2754087"><ele>532.4</ele><time>2026-04-18T08:05:14.948Z</time></trkpt><trkpt lat="43.5165858" lon="12.2753076"><ele>530.8</ele><time>2026-04-18T08:05:15.948Z</time></trkpt><trkpt lat="43.5165014" lon="12.2751758"><ele>529.2</ele><time>2026-04-18T08:05:17.948Z</time></trkpt><trkpt lat="43.5163961" lon="12.2751011"><ele>527.6</ele><time>2026-04-18T08:05:19.948Z</time></trkpt><trkpt lat="43.5163093" lon="12.2750947"><ele>526.0</ele><time>2026-04-18T08:05:21.947Z</time></trkpt><trkpt lat="43.5161998" lon="12.2750207"><ele>524.25</ele><time>2026-04-18T08:05:23.948Z</time></trkpt><trkpt lat="43.516094" lon="12.2749497"><ele>522.5</ele><time>2026-04-18T08:05:25.948Z</time></trkpt><trkpt lat="43.515988" lon="12.2748783"><ele>520.75</ele><time>2026-04-18T08:05:27.947Z</time></trkpt><trkpt lat="43.5158865" lon="12.2748183"><ele>519.0</ele><time>2026-04-18T08:05:29.949Z</time></trkpt><trkpt lat="43.5157862" lon="12.2747577"><ele>515.25</ele><time>2026-04-18T08:05:31.948Z</time></trkpt><trkpt lat="43.5156732" lon="12.2747155"><ele>511.5</ele><time>2026-04-18T08:05:33.948Z</time></trkpt><trkpt lat="43.5155956" lon="12.2746463"><ele>507.75</ele><time>2026-04-18T08:05:35.948Z</time></trkpt><trkpt lat="43.5155068" lon="12.2745955"><ele>504.0</ele><time>2026-04-18T08:05:37.948Z</time></trkpt><trkpt lat="43.5153712" lon="12.2744523"><ele>503.6666666666667</ele><time>2026-04-18T08:05:40.947Z</time></trkpt><trkpt lat="43.5153083" lon="12.2743853"><ele>503.33333333333337</ele><time>2026-04-18T08:05:41.947Z</time></trkpt><trkpt lat="43.5152684" lon="12.2743027"><ele>503.0</ele><time>2026-04-18T08:05:42.947Z</time></trkpt><trkpt lat="43.5152111" lon="12.2742462"><ele>502.6666666666667</ele><time>2026-04-18T08:05:43.949Z</time></trkpt><trkpt lat="43.5151461" lon="12.2741862"><ele>502.33333333333337</ele><time>2026-04-18T08:05:44.949Z</time></trkpt><trkpt lat="43.5150728" lon="12.2741416"><ele>502.0</ele><time>2026-04-18T08:05:45.948Z</time></trkpt><trkpt lat="43.5150244" lon="12.2740725"><ele>502.00000000000006</ele><time>2026-04-18T08:05:46.948Z</time></trkpt><trkpt lat="43.5149706" lon="12.2739897"><ele>502.0</ele><time>2026-04-18T08:05:47.947Z</time></trkpt><trkpt lat="43.514925" lon="12.2738814"><ele>502.0</ele><time>2026-04-18T08:05:48.948Z</time></trkpt><trkpt lat="43.5148703" lon="12.2738046"><ele>502.0</ele><time>2026-04-18T08:05:49.948Z</time></trkpt><trkpt lat="43.5148219" lon="12.2737427"><ele>502.00000000000006</ele><time>2026-04-18T08:05:50.948Z</time></trkpt><trkpt lat="43.5147158" lon="12.2736709"><ele>502.0</ele><time>2026-04-18T08:05:52.949Z</time></trkpt><trkpt lat="43.5146122" lon="12.2736394"><ele>500.0</ele><time>2026-04-18T08:05:54.948Z</time></trkpt><trkpt lat="43.5145457" lon="12.273581"><ele>498.00000000000006</ele><time>2026-04-18T08:05:56.948Z</time></trkpt><trkpt lat="43.5144677" lon="12.2734556"><ele>496.00000000000006</ele><time>2026-04-18T08:05:58.947Z</time></trkpt><trkpt lat="43.5144091" lon="12.2733088"><ele>494.0</ele><time>2026-04-18T08:06:00.948Z</time></trkpt><trkpt lat="43.5143501" lon="12.2731661"><ele>492.0</ele><time>2026-04-18T08:06:02.949Z</time></trkpt><trkpt lat="43.5142619" lon="12.2730891"><ele>490.0</ele><time>2026-04-18T08:06:04.949Z</time></trkpt><trkpt lat="43.5141635" lon="12.273038"><ele>488.00000000000006</ele><time>2026-04-18T08:06:06.949Z</time></trkpt><trkpt lat="43.5141071" lon="12.2729922"><ele>486.00000000000006</ele><time>2026-04-18T08:06:07.948Z</time></trkpt><trkpt lat="43.5140236" lon="12.2728643"><ele>484.0</ele><time>2026-04-18T08:06:09.948Z</time></trkpt><trkpt lat="43.5139279" lon="12.2727389"><ele>482.0</ele><time>2026-04-18T08:06:11.948Z</time></trkpt><trkpt lat="43.5138407" lon="12.2726383"><ele>482.40000000000003</ele><time>2026-04-18T08:06:13.948Z</time></trkpt><trkpt lat="43.5137324" lon="12.2725552"><ele>482.80000000000007</ele><time>2026-04-18T08:06:15.948Z</time></trkpt><trkpt lat="43.5136307" lon="12.272461"><ele>483.2</ele><time>2026-04-18T08:06:17.948Z</time></trkpt><trkpt lat="43.5135677" lon="12.2723827"><ele>483.6</ele><time>2026-04-18T08:06:18.948Z</time></trkpt><trkpt lat="43.5135269" lon="12.2723164"><ele>484.0</ele><time>2026-04-18T08:06:19.947Z</time></trkpt><trkpt lat="43.513472" lon="12.2722702"><ele>482.4</ele><time>2026-04-18T08:06:20.949Z</time></trkpt><trkpt lat="43.5133847" lon="12.2721766"><ele>480.79999999999995</ele><time>2026-04-18T08:06:22.948Z</time></trkpt><trkpt lat="43.5133351" lon="12.2721194"><ele>479.20000000000005</ele><time>2026-04-18T08:06:24.948Z</time></trkpt><trkpt lat="43.5132366" lon="12.2720067"><ele>477.6</ele><time>2026-04-18T08:06:26.949Z</time></trkpt><trkpt lat="43.5131331" lon="12.2719082"><ele>476.0</ele><time>2026-04-18T08:06:28.948Z</time></trkpt><trkpt lat="43.5130738" lon="12.2718632"><ele>475.99999999999994</ele><time>2026-04-18T08:06:29.948Z</time></trkpt><trkpt lat="43.5130133" lon="12.2718295"><ele>476.0</ele><time>2026-04-18T08:06:30.948Z</time></trkpt><trkpt lat="43.5128924" lon="12.2717703"><ele>476.0</ele><time>2026-04-18T08:06:32.947Z</time></trkpt><trkpt lat="43.5128356" lon="12.2717124"><ele>476.0</ele><time>2026-04-18T08:06:33.947Z</time></trkpt><trkpt lat="43.5127824" lon="12.2716568"><ele>475.99999999999994</ele><time>2026-04-18T08:06:34.949Z</time></trkpt><trkpt lat="43.5127278" lon="12.2716038"><ele>476.0</ele><time>2026-04-18T08:06:35.947Z</time></trkpt><trkpt lat="43.5126545" lon="12.2714768"><ele>474.16666666666663</ele><time>2026-04-18T08:06:37.949Z</time></trkpt><trkpt lat="43.5125975" lon="12.2714108"><ele>472.3333333333333</ele><time>2026-04-18T08:06:39.948Z</time></trkpt><trkpt lat="43.5125324" lon="12.271366"><ele>470.5</ele><time>2026-04-18T08:06:41.948Z</time></trkpt><trkpt lat="43.5124403" lon="12.2713169"><ele>468.66666666666663</ele><time>2026-04-18T08:06:43.948Z</time></trkpt><trkpt lat="43.5123705" lon="12.2712292"><ele>466.8333333333333</ele><time>2026-04-18T08:06:45.948Z</time></trkpt><trkpt lat="43.5122858" lon="12.2711787"><ele>465.0</ele><time>2026-04-18T08:06:47.948Z</time></trkpt><trkpt lat="43.5122014" lon="12.2711429"><ele>465.0</ele><time>2026-04-18T08:06:49.948Z</time></trkpt><trkpt lat="43.5121114" lon="12.2710793"><ele>465.0</ele><time>2026-04-18T08:06:50.948Z</time></trkpt><trkpt lat="43.5120294" lon="12.2710566"><ele>465.0</ele><time>2026-04-18T08:06:52.948Z</time></trkpt><trkpt lat="43.5119249" lon="12.2709951"><ele>465.0</ele><time>2026-04-18T08:06:54.948Z</time></trkpt><trkpt lat="43.5118256" lon="12.2709362"><ele>465.0</ele><time>2026-04-18T08:06:56.948Z</time></trkpt><trkpt lat="43.5117535" lon="12.2708929"><ele>465.0</ele><time>2026-04-18T08:06:57.949Z</time></trkpt><trkpt lat="43.5116893" lon="12.2708623"><ele>465.0</ele><time>2026-04-18T08:06:58.948Z</time></trkpt><trkpt lat="43.5115849" lon="12.2707901"><ele>465.0</ele><time>2026-04-18T08:07:00.947Z</time></trkpt><trkpt lat="43.5115211" lon="12.2707582"><ele>465.0</ele><time>2026-04-18T08:07:01.949Z</time></trkpt><trkpt lat="43.5114159" lon="12.2707424"><ele>465.0</ele><time>2026-04-18T08:07:03.948Z</time></trkpt><trkpt lat="43.5113207" lon="12.270728"><ele>462.4</ele><time>2026-04-18T08:07:05.948Z</time></trkpt><trkpt lat="43.5111929" lon="12.2706979"><ele>459.8</ele><time>2026-04-18T08:07:07.948Z</time></trkpt><trkpt lat="43.511082" lon="12.2707333"><ele>457.20000000000005</ele><time>2026-04-18T08:07:09.948Z</time></trkpt><trkpt lat="43.5109785" lon="12.2707304"><ele>454.6</ele><time>2026-04-18T08:07:11.948Z</time></trkpt><trkpt lat="43.5108801" lon="12.2706965"><ele>452.0</ele><time>2026-04-18T08:07:13.949Z</time></trkpt><trkpt lat="43.5107852" lon="12.2706521"><ele>451.6</ele><time>2026-04-18T08:07:15.948Z</time></trkpt><trkpt lat="43.5107058" lon="12.2705882"><ele>451.20000000000005</ele><time>2026-04-18T08:07:17.948Z</time></trkpt><trkpt lat="43.5105994" lon="12.2705423"><ele>450.8</ele><time>2026-04-18T08:07:19.948Z</time></trkpt><trkpt lat="43.5105046" lon="12.2704703"><ele>450.4</ele><time>2026-04-18T08:07:21.949Z</time></trkpt><trkpt lat="43.5103973" lon="12.2704416"><ele>450.0</ele><time>2026-04-18T08:07:23.949Z</time></trkpt><trkpt lat="43.5103094" lon="12.2703848"><ele>448.4</ele><time>2026-04-18T08:07:25.948Z</time></trkpt><trkpt lat="43.5101845" lon="12.2703418"><ele>446.8</ele><time>2026-04-18T08:07:27.948Z</time></trkpt><trkpt lat="43.5100986" lon="12.2702823"><ele>445.20000000000005</ele><time>2026-04-18T08:07:29.948Z</time></trkpt><trkpt lat="43.5099967" lon="12.2702746"><ele>443.6</ele><time>2026-04-18T08:07:31.948Z</time></trkpt><trkpt lat="43.5099235" lon="12.2702565"><ele>442.0</ele><time>2026-04-18T08:07:33.948Z</time></trkpt><trkpt lat="43.5098552" lon="12.2702223"><ele>442.00000000000006</ele><time>2026-04-18T08:07:34.949Z</time></trkpt><trkpt lat="43.5097544" lon="12.2701477"><ele>442.0</ele><time>2026-04-18T08:07:36.948Z</time></trkpt><trkpt lat="43.5096618" lon="12.2701338"><ele>442.0</ele><time>2026-04-18T08:07:37.948Z</time></trkpt><trkpt lat="43.5095988" lon="12.2701489"><ele>442.0</ele><time>2026-04-18T08:07:38.949Z</time></trkpt><trkpt lat="43.509522" lon="12.2701513"><ele>442.00000000000006</ele><time>2026-04-18T08:07:39.948Z</time></trkpt><trkpt lat="43.5094537" lon="12.2701468"><ele>442.0</ele><time>2026-04-18T08:07:41.948Z</time></trkpt><trkpt lat="43.5093824" lon="12.2701273"><ele>440.20000000000005</ele><time>2026-04-18T08:07:43.947Z</time></trkpt><trkpt lat="43.509294" lon="12.2701141"><ele>438.40000000000003</ele><time>2026-04-18T08:07:45.948Z</time></trkpt><trkpt lat="43.5092148" lon="12.2701128"><ele>436.59999999999997</ele><time>2026-04-18T08:07:47.949Z</time></trkpt><trkpt lat="43.5091136" lon="12.2701517"><ele>434.79999999999995</ele><time>2026-04-18T08:07:49.948Z</time></trkpt><trkpt lat="43.5090222" lon="12.2701856"><ele>433.0</ele><time>2026-04-18T08:07:51.949Z</time></trkpt><trkpt lat="43.5089207" lon="12.2701753"><ele>433.0</ele><time>2026-04-18T08:07:53.947Z</time></trkpt><trkpt lat="43.5088278" lon="12.2701403"><ele>432.99999999999994</ele><time>2026-04-18T08:07:55.949Z</time></trkpt><trkpt lat="43.5087147" lon="12.2701685"><ele>432.99999999999994</ele><time>2026-04-18T08:07:57.948Z</time></trkpt><trkpt lat="43.5086118" lon="12.2701331"><ele>433.0</ele><time>2026-04-18T08:07:59.949Z</time></trkpt><trkpt lat="43.508515" lon="12.2700772"><ele>433.0</ele><time>2026-04-18T08:08:01.948Z</time></trkpt><trkpt lat="43.5084151" lon="12.2699855"><ele>429.79999999999995</ele><time>2026-04-18T08:08:03.947Z</time></trkpt><trkpt lat="43.5083327" lon="12.269906"><ele>426.59999999999997</ele><time>2026-04-18T08:08:05.949Z</time></trkpt><trkpt lat="43.5082554" lon="12.2698333"><ele>423.4</ele><time>2026-04-18T08:08:07.947Z</time></trkpt><trkpt lat="43.5082118" lon="12.2697614"><ele>420.20000000000005</ele><time>2026-04-18T08:08:10.948Z</time></trkpt><trkpt lat="43.5081486" lon="12.2696726"><ele>417.0</ele><time>2026-04-18T08:08:14.949Z</time></trkpt><trkpt lat="43.5080646" lon="12.2696035"><ele>416.5714285714286</ele><time>2026-04-18T08:08:16.948Z</time></trkpt><trkpt lat="43.5079857" lon="12.269551"><ele>416.1428571428571</ele><time>2026-04-18T08:08:18.948Z</time></trkpt><trkpt lat="43.5079161" lon="12.2695256"><ele>415.7142857142857</ele><time>2026-04-18T08:08:20.949Z</time></trkpt><trkpt lat="43.5078371" lon="12.2695189"><ele>415.28571428571433</ele><time>2026-04-18T08:08:22.949Z</time></trkpt><trkpt lat="43.5077722" lon="12.2694932"><ele>414.8571428571429</ele><time>2026-04-18T08:08:25.948Z</time></trkpt><trkpt lat="43.5077103" lon="12.2694674"><ele>414.42857142857144</ele><time>2026-04-18T08:08:28.949Z</time></trkpt><trkpt lat="43.5076322" lon="12.2694651"><ele>414.0</ele><time>2026-04-18T08:08:32.947Z</time></trkpt><trkpt lat="43.5075597" lon="12.2694991"><ele>411.0</ele><time>2026-04-18T08:08:35.949Z</time></trkpt><trkpt lat="43.5075005" lon="12.2695605"><ele>408.0</ele><time>2026-04-18T08:08:38.947Z</time></trkpt><trkpt lat="43.5074256" lon="12.2696453"><ele>405.0</ele><time>2026-04-18T08:08:41.948Z</time></trkpt><trkpt lat="43.507377" lon="12.2697167"><ele>402.0</ele><time>2026-04-18T08:08:43.947Z</time></trkpt><trkpt lat="43.507344" lon="12.2698005"><ele>399.0</ele><time>2026-04-18T08:08:45.948Z</time></trkpt><trkpt lat="43.5072904" lon="12.2698582"><ele>396.0</ele><time>2026-04-18T08:08:48.947Z</time></trkpt><trkpt lat="43.5072268" lon="12.2698155"><ele>394.5</ele><time>2026-04-18T08:08:52.948Z</time></trkpt><trkpt lat="43.5072494" lon="12.2696967"><ele>393.0</ele><time>2026-04-18T08:08:55.949Z</time></trkpt><trkpt lat="43.5072837" lon="12.2696068"><ele>391.5</ele><time>2026-04-18T08:08:57.947Z</time></trkpt><trkpt lat="43.5073287" lon="12.2695155"><ele>390.0</ele><time>2026-04-18T08:08:59.949Z</time></trkpt><trkpt lat="43.5073917" lon="12.2694467"><ele>388.5</ele><time>2026-04-18T08:09:01.948Z</time></trkpt><trkpt lat="43.5074522" lon="12.2693716"><ele>387.0</ele><time>2026-04-18T08:09:03.948Z</time></trkpt><trkpt lat="43.5075084" lon="12.2693106"><ele>387.0</ele><time>2026-04-18T08:09:05.949Z</time></trkpt><trkpt lat="43.5075543" lon="12.2692329"><ele>387.0</ele><time>2026-04-18T08:09:07.948Z</time></trkpt><trkpt lat="43.5075813" lon="12.2691448"><ele>387.0</ele><time>2026-04-18T08:09:08.947Z</time></trkpt><trkpt lat="43.5075514" lon="12.2690465"><ele>387.0</ele><time>2026-04-18T08:09:09.948Z</time></trkpt><trkpt lat="43.5076031" lon="12.2689233"><ele>387.0</ele><time>2026-04-18T08:09:11.948Z</time></trkpt><trkpt lat="43.5076574" lon="12.2688066"><ele>387.0</ele><time>2026-04-18T08:09:13.948Z</time></trkpt><trkpt lat="43.5076874" lon="12.2686823"><ele>384.6666666666667</ele><time>2026-04-18T08:09:15.949Z</time></trkpt><trkpt lat="43.5076682" lon="12.268599"><ele>382.3333333333333</ele><time>2026-04-18T08:09:17.948Z</time></trkpt><trkpt lat="43.507659" lon="12.2685087"><ele>380.0</ele><time>2026-04-18T08:09:19.948Z</time></trkpt><trkpt lat="43.5076735" lon="12.2683968"><ele>377.66666666666663</ele><time>2026-04-18T08:09:22.949Z</time></trkpt><trkpt lat="43.5076819" lon="12.2683024"><ele>375.3333333333333</ele><time>2026-04-18T08:09:26.949Z</time></trkpt><trkpt lat="43.5076057" lon="12.2683258"><ele>373.0</ele><time>2026-04-18T08:09:31.947Z</time></trkpt><trkpt lat="43.5075147" lon="12.2684568"><ele>373.0</ele><time>2026-04-18T08:09:33.948Z</time></trkpt><trkpt lat="43.5074725" lon="12.2685218"><ele>373.0</ele><time>2026-04-18T08:09:34.947Z</time></trkpt><trkpt lat="43.5074116" lon="12.2686573"><ele>373.0</ele><time>2026-04-18T08:09:36.948Z</time></trkpt><trkpt lat="43.5073546" lon="12.2687418"><ele>373.0</ele><time>2026-04-18T08:09:37.948Z</time></trkpt><trkpt lat="43.5072939" lon="12.2688168"><ele>373.0</ele><time>2026-04-18T08:09:38.947Z</time></trkpt><trkpt lat="43.5072395" lon="12.2688957"><ele>373.0</ele><time>2026-04-18T08:09:39.949Z</time></trkpt><trkpt lat="43.5071916" lon="12.2689539"><ele>372.5</ele><time>2026-04-18T08:09:40.948Z</time></trkpt><trkpt lat="43.5071375" lon="12.2690292"><ele>372.0</ele><time>2026-04-18T08:09:41.947Z</time></trkpt><trkpt lat="43.50708" lon="12.2691188"><ele>371.5</ele><time>2026-04-18T08:09:42.949Z</time></trkpt><trkpt lat="43.5070148" lon="12.2692166"><ele>371.0</ele><time>2026-04-18T08:09:43.948Z</time></trkpt><trkpt lat="43.5069586" lon="12.2692993"><ele>370.5</ele><time>2026-04-18T08:09:44.947Z</time></trkpt><trkpt lat="43.5068895" lon="12.2694071"><ele>370.0</ele><time>2026-04-18T08:09:45.948Z</time></trkpt><trkpt lat="43.5068084" lon="12.2695301"><ele>370.0</ele><time>2026-04-18T08:09:46.948Z</time></trkpt><trkpt lat="43.5067282" lon="12.2696457"><ele>370.0</ele><time>2026-04-18T08:09:47.947Z</time></trkpt><trkpt lat="43.5066558" lon="12.2697548"><ele>370.0</ele><time>2026-04-18T08:09:48.947Z</time></trkpt><trkpt lat="43.5065863" lon="12.2698577"><ele>370.0</ele><time>2026-04-18T08:09:49.949Z</time></trkpt><trkpt lat="43.5065297" lon="12.269963"><ele>370.0</ele><time>2026-04-18T08:09:50.949Z</time></trkpt><trkpt lat="43.5064727" lon="12.2700435"><ele>370.16666666666663</ele><time>2026-04-18T08:09:51.949Z</time></trkpt><trkpt lat="43.5064065" lon="12.2701279"><ele>370.3333333333333</ele><time>2026-04-18T08:09:52.948Z</time></trkpt><trkpt lat="43.5063503" lon="12.2702055"><ele>370.5</ele><time>2026-04-18T08:09:53.947Z</time></trkpt><trkpt lat="43.5062994" lon="12.2702792"><ele>370.6666666666667</ele><time>2026-04-18T08:09:54.947Z</time></trkpt><trkpt lat="43.5062492" lon="12.2703526"><ele>370.83333333333337</ele><time>2026-04-18T08:09:55.948Z</time></trkpt><trkpt lat="43.5061572" lon="12.2704538"><ele>371.0</ele><time>2026-04-18T08:09:57.948Z</time></trkpt><trkpt lat="43.5060574" lon="12.2704828"><ele>371.0</ele><time>2026-04-18T08:09:59.947Z</time></trkpt><trkpt lat="43.5059461" lon="12.270486"><ele>371.0</ele><time>2026-04-18T08:10:01.949Z</time></trkpt><trkpt lat="43.5058805" lon="12.2704872"><ele>371.0</ele><time>2026-04-18T08:10:02.948Z</time></trkpt><trkpt lat="43.5058125" lon="12.2704933"><ele>371.0</ele><time>2026-04-18T08:10:03.949Z</time></trkpt><trkpt lat="43.5057439" lon="12.2705145"><ele>371.0</ele><time>2026-04-18T08:10:04.948Z</time></trkpt><trkpt lat="43.5056774" lon="12.2705398"><ele>371.0</ele><time>2026-04-18T08:10:05.948Z</time></trkpt><trkpt lat="43.5056108" lon="12.270565"><ele>371.20000000000005</ele><time>2026-04-18T08:10:06.947Z</time></trkpt><trkpt lat="43.5054971" lon="12.2706264"><ele>371.40000000000003</ele><time>2026-04-18T08:10:08.948Z</time></trkpt><trkpt lat="43.5053945" lon="12.2706905"><ele>371.6</ele><time>2026-04-18T08:10:10.948Z</time></trkpt><trkpt lat="43.5053247" lon="12.2707501"><ele>371.8</ele><time>2026-04-18T08:10:11.949Z</time></trkpt><trkpt lat="43.5052606" lon="12.2707985"><ele>372.0</ele><time>2026-04-18T08:10:12.947Z</time></trkpt><trkpt lat="43.505195" lon="12.2708622"><ele>372.0</ele><time>2026-04-18T08:10:13.948Z</time></trkpt><trkpt lat="43.5051357" lon="12.2709174"><ele>372.0</ele><time>2026-04-18T08:10:14.948Z</time></trkpt><trkpt lat="43.5050595" lon="12.2709709"><ele>372.0</ele><time>2026-04-18T08:10:15.949Z</time></trkpt><trkpt lat="43.5049893" lon="12.2710366"><ele>372.0</ele><time>2026-04-18T08:10:16.948Z</time></trkpt><trkpt lat="43.5049311" lon="12.2711213"><ele>372.0</ele><time>2026-04-18T08:10:17.948Z</time></trkpt><trkpt lat="43.504858" lon="12.2712107"><ele>372.0</ele><time>2026-04-18T08:10:18.948Z</time></trkpt><trkpt lat="43.504789" lon="12.2713048"><ele>372.0</ele><time>2026-04-18T08:10:19.947Z</time></trkpt><trkpt lat="43.5047243" lon="12.2713917"><ele>372.0</ele><time>2026-04-18T08:10:20.948Z</time></trkpt><trkpt lat="43.5046617" lon="12.2714837"><ele>372.0</ele><time>2026-04-18T08:10:21.948Z</time></trkpt><trkpt lat="43.5045873" lon="12.2715676"><ele>372.0</ele><time>2026-04-18T08:10:22.947Z</time></trkpt><trkpt lat="43.5045151" lon="12.2716619"><ele>372.0</ele><time>2026-04-18T08:10:23.949Z</time></trkpt><trkpt lat="43.504447" lon="12.2717557"><ele>371.8</ele><time>2026-04-18T08:10:24.948Z</time></trkpt><trkpt lat="43.504379" lon="12.2718631"><ele>371.6</ele><time>2026-04-18T08:10:25.948Z</time></trkpt><trkpt lat="43.5043134" lon="12.2719742"><ele>371.40000000000003</ele><time>2026-04-18T08:10:26.949Z</time></trkpt><trkpt lat="43.5042425" lon="12.2720801"><ele>371.20000000000005</ele><time>2026-04-18T08:10:27.948Z</time></trkpt><trkpt lat="43.5041726" lon="12.2721927"><ele>371.0</ele><time>2026-04-18T08:10:28.948Z</time></trkpt><trkpt lat="43.5041004" lon="12.2723089"><ele>373.20000000000005</ele><time>2026-04-18T08:10:29.947Z</time></trkpt><trkpt lat="43.5040286" lon="12.2724204"><ele>375.40000000000003</ele><time>2026-04-18T08:10:30.948Z</time></trkpt><trkpt lat="43.5039605" lon="12.272529"><ele>377.6</ele><time>2026-04-18T08:10:31.948Z</time></trkpt><trkpt lat="43.5038903" lon="12.2726351"><ele>379.8</ele><time>2026-04-18T08:10:32.948Z</time></trkpt><trkpt lat="43.5038382" lon="12.2727174"><ele>382.0</ele><time>2026-04-18T08:10:33.948Z</time></trkpt><trkpt lat="43.503785" lon="12.2727979"><ele>381.5</ele><time>2026-04-18T08:10:34.948Z</time></trkpt><trkpt lat="43.5037369" lon="12.2728792"><ele>381.0</ele><time>2026-04-18T08:10:35.947Z</time></trkpt><trkpt lat="43.5036966" lon="12.2729725"><ele>380.5</ele><time>2026-04-18T08:10:36.949Z</time></trkpt><trkpt lat="43.5036548" lon="12.2730715"><ele>380.0</ele><time>2026-04-18T08:10:37.949Z</time></trkpt><trkpt lat="43.5036175" lon="12.2731769"><ele>379.5</ele><time>2026-04-18T08:10:38.948Z</time></trkpt><trkpt lat="43.5035779" lon="12.2733107"><ele>379.0</ele><time>2026-04-18T08:10:39.948Z</time></trkpt><trkpt lat="43.5035365" lon="12.273434"><ele>379.0</ele><time>2026-04-18T08:10:40.948Z</time></trkpt><trkpt lat="43.5034916" lon="12.2735663"><ele>379.0</ele><time>2026-04-18T08:10:41.948Z</time></trkpt><trkpt lat="43.5034496" lon="12.2736976"><ele>379.0</ele><time>2026-04-18T08:10:42.948Z</time></trkpt><trkpt lat="43.5034128" lon="12.2737989"><ele>379.0</ele><time>2026-04-18T08:10:43.948Z</time></trkpt><trkpt lat="43.503375" lon="12.2739043"><ele>379.0</ele><time>2026-04-18T08:10:45.947Z</time></trkpt><trkpt lat="43.5033168" lon="12.2740097"><ele>379.79999999999995</ele><time>2026-04-18T08:10:53.948Z</time></trkpt><trkpt lat="43.5032616" lon="12.2741077"><ele>380.59999999999997</ele><time>2026-04-18T08:10:55.948Z</time></trkpt><trkpt lat="43.5032006" lon="12.2742375"><ele>381.4</ele><time>2026-04-18T08:10:57.949Z</time></trkpt><trkpt lat="43.5031573" lon="12.274391"><ele>382.2</ele><time>2026-04-18T08:10:59.949Z</time></trkpt><trkpt lat="43.5031209" lon="12.2744877"><ele>383.0</ele><time>2026-04-18T08:11:02.947Z</time></trkpt><trkpt lat="43.503052" lon="12.2746081"><ele>383.0</ele><time>2026-04-18T08:11:04.949Z</time></trkpt><trkpt lat="43.5029957" lon="12.2746664"><ele>383.0</ele><time>2026-04-18T08:11:06.948Z</time></trkpt><trkpt lat="43.5029323" lon="12.2746869"><ele>383.0</ele><time>2026-04-18T08:11:10.948Z</time></trkpt><trkpt lat="43.502854" lon="12.2746249"><ele>383.0</ele><time>2026-04-18T08:11:13.948Z</time></trkpt><trkpt lat="43.5027662" lon="12.2745644"><ele>383.0</ele><time>2026-04-18T08:11:15.948Z</time></trkpt><trkpt lat="43.502712" lon="12.2745198"><ele>383.0</ele><time>2026-04-18T08:11:17.948Z</time></trkpt><trkpt lat="43.5026531" lon="12.2744695"><ele>381.5</ele><time>2026-04-18T08:11:19.947Z</time></trkpt><trkpt lat="43.5025818" lon="12.2744472"><ele>380.0</ele><time>2026-04-18T08:11:22.947Z</time></trkpt><trkpt lat="43.5024895" lon="12.2744208"><ele>378.5</ele><time>2026-04-18T08:11:25.948Z</time></trkpt><trkpt lat="43.5024113" lon="12.2744231"><ele>377.0</ele><time>2026-04-18T08:11:27.947Z</time></trkpt><trkpt lat="43.5023366" lon="12.2744584"><ele>375.5</ele><time>2026-04-18T08:11:29.948Z</time></trkpt><trkpt lat="43.5022332" lon="12.2744665"><ele>374.0</ele><time>2026-04-18T08:11:31.948Z</time></trkpt><trkpt lat="43.5021304" lon="12.2743753"><ele>377.0</ele><time>2026-04-18T08:11:32.948Z</time></trkpt><trkpt lat="43.5020493" lon="12.2742853"><ele>380.0</ele><time>2026-04-18T08:11:33.948Z</time></trkpt><trkpt lat="43.5019665" lon="12.2742681"><ele>383.0</ele><time>2026-04-18T08:11:34.948Z</time></trkpt><trkpt lat="43.5019026" lon="12.2742319"><ele>386.0</ele><time>2026-04-18T08:11:35.948Z</time></trkpt><trkpt lat="43.5017854" lon="12.2742393"><ele>388.99999999999994</ele><time>2026-04-18T08:11:37.948Z</time></trkpt><trkpt lat="43.5017196" lon="12.2742234"><ele>392.0</ele><time>2026-04-18T08:11:38.948Z</time></trkpt><trkpt lat="43.501621" lon="12.2741705"><ele>392.0</ele><time>2026-04-18T08:11:40.947Z</time></trkpt><trkpt lat="43.501562" lon="12.2741358"><ele>392.0</ele><time>2026-04-18T08:11:41.949Z</time></trkpt><trkpt lat="43.5015718" lon="12.273944"><ele>392.0</ele><time>2026-04-18T08:11:42.947Z</time></trkpt><trkpt lat="43.5015251" lon="12.2738146"><ele>392.0</ele><time>2026-04-18T08:11:44.947Z</time></trkpt><trkpt lat="43.5014498" lon="12.2736698"><ele>392.0</ele><time>2026-04-18T08:11:46.949Z</time></trkpt><trkpt lat="43.5014066" lon="12.2736047"><ele>393.16666666666663</ele><time>2026-04-18T08:11:47.949Z</time></trkpt><trkpt lat="43.5013753" lon="12.2735105"><ele>394.3333333333333</ele><time>2026-04-18T08:11:48.948Z</time></trkpt><trkpt lat="43.5013311" lon="12.273433"><ele>395.5</ele><time>2026-04-18T08:11:49.949Z</time></trkpt><trkpt lat="43.5012337" lon="12.2733047"><ele>396.66666666666663</ele><time>2026-04-18T08:11:51.947Z</time></trkpt><trkpt lat="43.501188" lon="12.2732288"><ele>397.8333333333333</ele><time>2026-04-18T08:11:52.948Z</time></trkpt><trkpt lat="43.5011373" lon="12.2731507"><ele>399.0</ele><time>2026-04-18T08:11:53.948Z</time></trkpt><trkpt lat="43.5010789" lon="12.2730497"><ele>402.4</ele><time>2026-04-18T08:11:56.949Z</time></trkpt><trkpt lat="43.5010317" lon="12.2729505"><ele>405.79999999999995</ele><time>2026-04-18T08:11:58.947Z</time></trkpt><trkpt lat="43.5009706" lon="12.2728643"><ele>409.20000000000005</ele><time>2026-04-18T08:12:00.948Z</time></trkpt><trkpt lat="43.5008986" lon="12.2727502"><ele>412.6</ele><time>2026-04-18T08:12:02.948Z</time></trkpt><trkpt lat="43.500823" lon="12.2726665"><ele>416.0</ele><time>2026-04-18T08:12:04.948Z</time></trkpt><trkpt lat="43.5007463" lon="12.2725168"><ele>416.0</ele><time>2026-04-18T08:12:06.948Z</time></trkpt><trkpt lat="43.5006877" lon="12.2723965"><ele>416.0</ele><time>2026-04-18T08:12:08.949Z</time></trkpt><trkpt lat="43.5006381" lon="12.2722679"><ele>416.0</ele><time>2026-04-18T08:12:10.948Z</time></trkpt><trkpt lat="43.5005823" lon="12.2721654"><ele>416.0</ele><time>2026-04-18T08:12:11.948Z</time></trkpt><trkpt lat="43.5004904" lon="12.2720358"><ele>416.0</ele><time>2026-04-18T08:12:14.948Z</time></trkpt><trkpt lat="43.5004501" lon="12.2719509"><ele>419.8</ele><time>2026-04-18T08:12:15.948Z</time></trkpt><trkpt lat="43.5003436" lon="12.2719128"><ele>423.6</ele><time>2026-04-18T08:12:17.949Z</time></trkpt><trkpt lat="43.5002634" lon="12.2718369"><ele>427.4</ele><time>2026-04-18T08:12:18.949Z</time></trkpt><trkpt lat="43.5001718" lon="12.2717751"><ele>431.2</ele><time>2026-04-18T08:12:20.948Z</time></trkpt><trkpt lat="43.5001071" lon="12.2717385"><ele>435.0</ele><time>2026-04-18T08:12:21.949Z</time></trkpt><trkpt lat="43.5000289" lon="12.2717225"><ele>435.0</ele><time>2026-04-18T08:12:22.948Z</time></trkpt><trkpt lat="43.4999324" lon="12.2716312"><ele>435.0</ele><time>2026-04-18T08:12:23.949Z</time></trkpt><trkpt lat="43.4998706" lon="12.2716023"><ele>435.0</ele><time>2026-04-18T08:12:24.948Z</time></trkpt><trkpt lat="43.4997713" lon="12.2715331"><ele>435.0</ele><time>2026-04-18T08:12:26.947Z</time></trkpt><trkpt lat="43.4996808" lon="12.2714729"><ele>435.0</ele><time>2026-04-18T08:12:28.948Z</time></trkpt><trkpt lat="43.4996021" lon="12.2714132"><ele>437.4</ele><time>2026-04-18T08:12:30.949Z</time></trkpt><trkpt lat="43.4995246" lon="12.2712121"><ele>439.8</ele><time>2026-04-18T08:12:32.948Z</time></trkpt><trkpt lat="43.4994965" lon="12.2711149"><ele>442.20000000000005</ele><time>2026-04-18T08:12:35.948Z</time></trkpt><trkpt lat="43.4994772" lon="12.2710065"><ele>444.6</ele><time>2026-04-18T08:12:38.949Z</time></trkpt><trkpt lat="43.4994454" lon="12.2709149"><ele>447.0</ele><time>2026-04-18T08:12:42.948Z</time></trkpt><trkpt lat="43.4993747" lon="12.2708437"><ele>447.0</ele><time>2026-04-18T08:12:45.948Z</time></trkpt><trkpt lat="43.4993191" lon="12.2707968"><ele>447.0</ele><time>2026-04-18T08:12:47.948Z</time></trkpt><trkpt lat="43.4992654" lon="12.2707286"><ele>447.0</ele><time>2026-04-18T08:12:49.948Z</time></trkpt><trkpt lat="43.4992234" lon="12.2706613"><ele>447.0</ele><time>2026-04-18T08:12:51.948Z</time></trkpt><trkpt lat="43.4991896" lon="12.2705607"><ele>447.0</ele><time>2026-04-18T08:12:53.948Z</time></trkpt><trkpt lat="43.4991523" lon="12.2704319"><ele>447.0</ele><time>2026-04-18T08:12:55.949Z</time></trkpt><trkpt lat="43.4991287" lon="12.2703058"><ele>447.5</ele><time>2026-04-18T08:12:57.948Z</time></trkpt><trkpt lat="43.4991224" lon="12.270204"><ele>448.0</ele><time>2026-04-18T08:12:59.948Z</time></trkpt><trkpt lat="43.4991079" lon="12.2701183"><ele>448.5</ele><time>2026-04-18T08:13:01.948Z</time></trkpt><trkpt lat="43.4990504" lon="12.2700501"><ele>449.0</ele><time>2026-04-18T08:13:03.948Z</time></trkpt><trkpt lat="43.498983" lon="12.2699821"><ele>449.5</ele><time>2026-04-18T08:13:05.947Z</time></trkpt><trkpt lat="43.498961" lon="12.2698921"><ele>450.0</ele><time>2026-04-18T08:13:07.948Z</time></trkpt><trkpt lat="43.4989458" lon="12.2697479"><ele>449.8333333333333</ele><time>2026-04-18T08:13:10.949Z</time></trkpt><trkpt lat="43.4989176" lon="12.2696344"><ele>449.66666666666663</ele><time>2026-04-18T08:13:12.947Z</time></trkpt><trkpt lat="43.4989033" lon="12.2695329"><ele>449.5</ele><time>2026-04-18T08:13:14.948Z</time></trkpt><trkpt lat="43.4988677" lon="12.2694498"><ele>449.3333333333333</ele><time>2026-04-18T08:13:16.949Z</time></trkpt><trkpt lat="43.4988192" lon="12.2693757"><ele>449.16666666666663</ele><time>2026-04-18T08:13:19.948Z</time></trkpt><trkpt lat="43.4987594" lon="12.2693339"><ele>449.0</ele><time>2026-04-18T08:13:22.948Z</time></trkpt><trkpt lat="43.4986572" lon="12.2694281"><ele>449.0</ele><time>2026-04-18T08:13:23.948Z</time></trkpt><trkpt lat="43.4985881" lon="12.2695176"><ele>449.0</ele><time>2026-04-18T08:13:24.948Z</time></trkpt><trkpt lat="43.4985123" lon="12.2696042"><ele>449.0</ele><time>2026-04-18T08:13:25.947Z</time></trkpt><trkpt lat="43.4984179" lon="12.2697187"><ele>449.0</ele><time>2026-04-18T08:13:26.947Z</time></trkpt><trkpt lat="43.4983307" lon="12.2698144"><ele>449.0</ele><time>2026-04-18T08:13:27.949Z</time></trkpt><trkpt lat="43.4982631" lon="12.2698483"><ele>450.0</ele><time>2026-04-18T08:13:28.949Z</time></trkpt><trkpt lat="43.4981805" lon="12.2699179"><ele>451.0</ele><time>2026-04-18T08:13:29.948Z</time></trkpt><trkpt lat="43.4981038" lon="12.2699886"><ele>452.0</ele><time>2026-04-18T08:13:30.948Z</time></trkpt><trkpt lat="43.4979918" lon="12.2700736"><ele>453.0</ele><time>2026-04-18T08:13:32.948Z</time></trkpt><trkpt lat="43.4979597" lon="12.2701771"><ele>454.0</ele><time>2026-04-18T08:13:33.949Z</time></trkpt><trkpt lat="43.4979106" lon="12.2702348"><ele>455.6666666666667</ele><time>2026-04-18T08:13:34.947Z</time></trkpt><trkpt lat="43.4978519" lon="12.2702985"><ele>457.33333333333337</ele><time>2026-04-18T08:13:35.947Z</time></trkpt><trkpt lat="43.4977866" lon="12.2703683"><ele>459.0</ele><time>2026-04-18T08:13:36.948Z</time></trkpt><trkpt lat="43.4977244" lon="12.2704336"><ele>460.66666666666663</ele><time>2026-04-18T08:13:37.948Z</time></trkpt><trkpt lat="43.4976485" lon="12.2705233"><ele>462.3333333333333</ele><time>2026-04-18T08:13:38.949Z</time></trkpt><trkpt lat="43.4975878" lon="12.2705988"><ele>464.0</ele><time>2026-04-18T08:13:39.948Z</time></trkpt><trkpt lat="43.4975346" lon="12.2706707"><ele>465.4</ele><time>2026-04-18T08:13:40.949Z</time></trkpt><trkpt lat="43.4974704" lon="12.27082"><ele>466.79999999999995</ele><time>2026-04-18T08:13:42.948Z</time></trkpt><trkpt lat="43.4974441" lon="12.2709122"><ele>468.20000000000005</ele><time>2026-04-18T08:13:43.947Z</time></trkpt><trkpt lat="43.497411" lon="12.2710637"><ele>469.6</ele><time>2026-04-18T08:13:44.948Z</time></trkpt><trkpt lat="43.4973479" lon="12.2711332"><ele>471.0</ele><time>2026-04-18T08:13:45.949Z</time></trkpt><trkpt lat="43.4973105" lon="12.2712067"><ele>471.0</ele><time>2026-04-18T08:13:46.948Z</time></trkpt><trkpt lat="43.49722" lon="12.2713415"><ele>471.0</ele><time>2026-04-18T08:13:48.948Z</time></trkpt><trkpt lat="43.497182" lon="12.2714153"><ele>471.0</ele><time>2026-04-18T08:13:49.948Z</time></trkpt><trkpt lat="43.4971415" lon="12.2714965"><ele>471.0</ele><time>2026-04-18T08:13:50.948Z</time></trkpt><trkpt lat="43.4970968" lon="12.2715861"><ele>471.0</ele><time>2026-04-18T08:13:51.949Z</time></trkpt><trkpt lat="43.4970596" lon="12.2716637"><ele>471.0</ele><time>2026-04-18T08:13:52.949Z</time></trkpt><trkpt lat="43.4969667" lon="12.2717684"><ele>471.0</ele><time>2026-04-18T08:13:54.948Z</time></trkpt><trkpt lat="43.4969108" lon="12.2718663"><ele>471.0</ele><time>2026-04-18T08:13:55.948Z</time></trkpt><trkpt lat="43.496861" lon="12.2719709"><ele>471.0</ele><time>2026-04-18T08:13:57.948Z</time></trkpt><trkpt lat="43.4968122" lon="12.2721291"><ele>471.0</ele><time>2026-04-18T08:13:59.949Z</time></trkpt><trkpt lat="43.4967967" lon="12.2722437"><ele>471.0</ele><time>2026-04-18T08:14:01.947Z</time></trkpt><trkpt lat="43.4968356" lon="12.2723615"><ele>471.0</ele><time>2026-04-18T08:14:03.948Z</time></trkpt><trkpt lat="43.4968705" lon="12.2724837"><ele>471.0</ele><time>2026-04-18T08:14:05.948Z</time></trkpt><trkpt lat="43.4969334" lon="12.2726719"><ele>471.0</ele><time>2026-04-18T08:14:07.947Z</time></trkpt><trkpt lat="43.4969585" lon="12.27282"><ele>471.0</ele><time>2026-04-18T08:14:09.948Z</time></trkpt><trkpt lat="43.4969833" lon="12.2729062"><ele>471.0</ele><time>2026-04-18T08:14:10.948Z</time></trkpt><trkpt lat="43.4970068" lon="12.2730368"><ele>471.6</ele><time>2026-04-18T08:14:12.949Z</time></trkpt><trkpt lat="43.4970479" lon="12.2731799"><ele>472.20000000000005</ele><time>2026-04-18T08:14:14.948Z</time></trkpt><trkpt lat="43.4970568" lon="12.2733023"><ele>472.79999999999995</ele><time>2026-04-18T08:14:16.948Z</time></trkpt><trkpt lat="43.4970632" lon="12.273394"><ele>473.4</ele><time>2026-04-18T08:14:17.949Z</time></trkpt><trkpt lat="43.4970162" lon="12.2735025"><ele>474.0</ele><time>2026-04-18T08:14:19.948Z</time></trkpt><trkpt lat="43.4969594" lon="12.2736065"><ele>474.0</ele><time>2026-04-18T08:14:21.948Z</time></trkpt><trkpt lat="43.4968608" lon="12.2736662"><ele>474.0</ele><time>2026-04-18T08:14:24.948Z</time></trkpt><trkpt lat="43.4967468" lon="12.2736942"><ele>474.0</ele><time>2026-04-18T08:14:26.948Z</time></trkpt><trkpt lat="43.496681" lon="12.2736979"><ele>474.0</ele><time>2026-04-18T08:14:27.947Z</time></trkpt><trkpt lat="43.4965518" lon="12.2736945"><ele>474.0</ele><time>2026-04-18T08:14:29.948Z</time></trkpt><trkpt lat="43.4964385" lon="12.2736424"><ele>474.0</ele><time>2026-04-18T08:14:31.948Z</time></trkpt><trkpt lat="43.4963766" lon="12.2736147"><ele>474.0</ele><time>2026-04-18T08:14:32.948Z</time></trkpt><trkpt lat="43.4962854" lon="12.2735877"><ele>474.0</ele><time>2026-04-18T08:14:33.948Z</time></trkpt><trkpt lat="43.4962184" lon="12.2735784"><ele>474.0</ele><time>2026-04-18T08:14:34.947Z</time></trkpt><trkpt lat="43.4960893" lon="12.2735477"><ele>474.0</ele><time>2026-04-18T08:14:36.948Z</time></trkpt><trkpt lat="43.4960221" lon="12.2735243"><ele>474.0</ele><time>2026-04-18T08:14:37.948Z</time></trkpt><trkpt lat="43.4959626" lon="12.2734935"><ele>473.1666666666667</ele><time>2026-04-18T08:14:38.948Z</time></trkpt><trkpt lat="43.495894" lon="12.2734749"><ele>472.33333333333337</ele><time>2026-04-18T08:14:39.949Z</time></trkpt><trkpt lat="43.4957964" lon="12.2734668"><ele>471.5</ele><time>2026-04-18T08:14:40.948Z</time></trkpt><trkpt lat="43.4956959" lon="12.2734228"><ele>470.6666666666667</ele><time>2026-04-18T08:14:41.947Z</time></trkpt><trkpt lat="43.4956165" lon="12.2733904"><ele>469.83333333333337</ele><time>2026-04-18T08:14:42.948Z</time></trkpt><trkpt lat="43.495536" lon="12.2733978"><ele>469.0</ele><time>2026-04-18T08:14:43.948Z</time></trkpt><trkpt lat="43.4954286" lon="12.273471"><ele>469.0</ele><time>2026-04-18T08:14:45.947Z</time></trkpt><trkpt lat="43.4954354" lon="12.2736302"><ele>469.0</ele><time>2026-04-18T08:14:47.948Z</time></trkpt><trkpt lat="43.4953578" lon="12.2737382"><ele>469.0</ele><time>2026-04-18T08:14:48.947Z</time></trkpt><trkpt lat="43.4952672" lon="12.2738084"><ele>469.0</ele><time>2026-04-18T08:14:50.949Z</time></trkpt><trkpt lat="43.4951866" lon="12.2738096"><ele>469.0</ele><time>2026-04-18T08:14:51.947Z</time></trkpt><trkpt lat="43.4950591" lon="12.2738211"><ele>469.2</ele><time>2026-04-18T08:14:53.948Z</time></trkpt><trkpt lat="43.4949651" lon="12.2738345"><ele>469.4</ele><time>2026-04-18T08:14:55.949Z</time></trkpt><trkpt lat="43.4949062" lon="12.2738758"><ele>469.6</ele><time>2026-04-18T08:14:56.948Z</time></trkpt><trkpt lat="43.4947995" lon="12.2739451"><ele>469.8</ele><time>2026-04-18T08:14:58.948Z</time></trkpt><trkpt lat="43.4947013" lon="12.2739652"><ele>470.0</ele><time>2026-04-18T08:15:00.948Z</time></trkpt><trkpt lat="43.4945807" lon="12.2739373"><ele>468.49999999999994</ele><time>2026-04-18T08:15:02.948Z</time></trkpt><trkpt lat="43.4945057" lon="12.2739506"><ele>467.0</ele><time>2026-04-18T08:15:03.948Z</time></trkpt><trkpt lat="43.4944429" lon="12.2739031"><ele>465.5</ele><time>2026-04-18T08:15:04.949Z</time></trkpt><trkpt lat="43.4943595" lon="12.2738626"><ele>464.0</ele><time>2026-04-18T08:15:05.948Z</time></trkpt><trkpt lat="43.4942804" lon="12.2738148"><ele>462.49999999999994</ele><time>2026-04-18T08:15:06.948Z</time></trkpt><trkpt lat="43.4942231" lon="12.273778"><ele>461.0</ele><time>2026-04-18T08:15:07.949Z</time></trkpt><trkpt lat="43.4941285" lon="12.2737331"><ele>460.99999999999994</ele><time>2026-04-18T08:15:09.949Z</time></trkpt><trkpt lat="43.4940341" lon="12.2736623"><ele>461.0</ele><time>2026-04-18T08:15:11.947Z</time></trkpt><trkpt lat="43.4939636" lon="12.2736216"><ele>461.0</ele><time>2026-04-18T08:15:14.949Z</time></trkpt><trkpt lat="43.4939245" lon="12.2735305"><ele>461.0</ele><time>2026-04-18T08:15:16.947Z</time></trkpt><trkpt lat="43.4938283" lon="12.2735756"><ele>460.99999999999994</ele><time>2026-04-18T08:15:17.947Z</time></trkpt><trkpt lat="43.493765" lon="12.2736055"><ele>461.0</ele><time>2026-04-18T08:15:18.949Z</time></trkpt><trkpt lat="43.4936925" lon="12.2735989"><ele>458.3333333333333</ele><time>2026-04-18T08:15:21.948Z</time></trkpt><trkpt lat="43.4936517" lon="12.2736702"><ele>455.66666666666663</ele><time>2026-04-18T08:15:24.948Z</time></trkpt><trkpt lat="43.4936359" lon="12.2738143"><ele>453.0</ele><time>2026-04-18T08:15:25.947Z</time></trkpt><trkpt lat="43.4936185" lon="12.273937"><ele>450.33333333333337</ele><time>2026-04-18T08:15:27.948Z</time></trkpt><trkpt lat="43.4936303" lon="12.2740388"><ele>447.6666666666667</ele><time>2026-04-18T08:15:29.949Z</time></trkpt><trkpt lat="43.4936202" lon="12.2741418"><ele>445.0</ele><time>2026-04-18T08:15:31.947Z</time></trkpt><trkpt lat="43.4935524" lon="12.2741959"><ele>443.0</ele><time>2026-04-18T08:15:33.949Z</time></trkpt><trkpt lat="43.4934623" lon="12.2742012"><ele>441.0</ele><time>2026-04-18T08:15:35.947Z</time></trkpt><trkpt lat="43.4933816" lon="12.2742577"><ele>439.0</ele><time>2026-04-18T08:15:37.949Z</time></trkpt><trkpt lat="43.4933269" lon="12.2743576"><ele>437.0</ele><time>2026-04-18T08:15:38.948Z</time></trkpt><trkpt lat="43.4932596" lon="12.2745094"><ele>435.0</ele><time>2026-04-18T08:15:40.949Z</time></trkpt><trkpt lat="43.4931966" lon="12.2745853"><ele>435.0</ele><time>2026-04-18T08:15:42.948Z</time></trkpt><trkpt lat="43.4931164" lon="12.2746103"><ele>435.0</ele><time>2026-04-18T08:15:44.948Z</time></trkpt><trkpt lat="43.4930685" lon="12.2746783"><ele>435.0</ele><time>2026-04-18T08:15:46.948Z</time></trkpt><trkpt lat="43.4930461" lon="12.2747636"><ele>435.0</ele><time>2026-04-18T08:15:48.947Z</time></trkpt><trkpt lat="43.4930475" lon="12.274863"><ele>435.0</ele><time>2026-04-18T08:15:50.948Z</time></trkpt><trkpt lat="43.4932361" lon="12.2748108"><ele>433.5</ele><time>2026-04-18T08:15:52.948Z</time></trkpt><trkpt lat="43.4933339" lon="12.2748253"><ele>432.0</ele><time>2026-04-18T08:15:56.948Z</time></trkpt><trkpt lat="43.4933977" lon="12.2748484"><ele>430.5</ele><time>2026-04-18T08:15:58.947Z</time></trkpt><trkpt lat="43.4934681" lon="12.2748731"><ele>429.0</ele><time>2026-04-18T08:16:01.948Z</time></trkpt><trkpt lat="43.4935504" lon="12.2749459"><ele>427.5</ele><time>2026-04-18T08:16:04.949Z</time></trkpt><trkpt lat="43.493536" lon="12.2750669"><ele>426.0</ele><time>2026-04-18T08:16:07.948Z</time></trkpt><trkpt lat="43.4934832" lon="12.2751476"><ele>425.99999999999994</ele><time>2026-04-18T08:16:09.948Z</time></trkpt><trkpt lat="43.4934894" lon="12.2752418"><ele>426.0</ele><time>2026-04-18T08:16:11.949Z</time></trkpt><trkpt lat="43.4934919" lon="12.2753377"><ele>426.0</ele><time>2026-04-18T08:16:13.949Z</time></trkpt><trkpt lat="43.4934899" lon="12.2754474"><ele>426.0</ele><time>2026-04-18T08:16:16.947Z</time></trkpt><trkpt lat="43.4934987" lon="12.2755341"><ele>426.0</ele><time>2026-04-18T08:16:19.947Z</time></trkpt><trkpt lat="43.4934942" lon="12.275636"><ele>425.99999999999994</ele><time>2026-04-18T08:16:22.949Z</time></trkpt><trkpt lat="43.4934765" lon="12.2757384"><ele>426.0</ele><time>2026-04-18T08:16:24.948Z</time></trkpt><trkpt lat="43.4934296" lon="12.2758547"><ele>422.3333333333333</ele><time>2026-04-18T08:16:26.948Z</time></trkpt><trkpt lat="43.4933645" lon="12.275955"><ele>418.66666666666663</ele><time>2026-04-18T08:16:28.948Z</time></trkpt><trkpt lat="43.4932814" lon="12.2760093"><ele>415.0</ele><time>2026-04-18T08:16:29.948Z</time></trkpt><trkpt lat="43.4932255" lon="12.2760638"><ele>411.3333333333333</ele><time>2026-04-18T08:16:31.948Z</time></trkpt><trkpt lat="43.4931532" lon="12.276109"><ele>407.66666666666663</ele><time>2026-04-18T08:16:34.947Z</time></trkpt><trkpt lat="43.4930801" lon="12.2760754"><ele>404.0</ele><time>2026-04-18T08:16:37.948Z</time></trkpt><trkpt lat="43.4930342" lon="12.2760132"><ele>403.99999999999994</ele><time>2026-04-18T08:16:58.947Z</time></trkpt><trkpt lat="43.4929807" lon="12.2759533"><ele>404.0</ele><time>2026-04-18T08:17:00.948Z</time></trkpt><trkpt lat="43.4928901" lon="12.2758848"><ele>404.0</ele><time>2026-04-18T08:17:01.948Z</time></trkpt><trkpt lat="43.492834" lon="12.275839"><ele>404.0</ele><time>2026-04-18T08:17:02.948Z</time></trkpt><trkpt lat="43.4927843" lon="12.2757646"><ele>403.99999999999994</ele><time>2026-04-18T08:17:03.948Z</time></trkpt><trkpt lat="43.4926922" lon="12.2756229"><ele>404.0</ele><time>2026-04-18T08:17:05.948Z</time></trkpt><trkpt lat="43.4926014" lon="12.2756027"><ele>404.79999999999995</ele><time>2026-04-18T08:17:07.949Z</time></trkpt><trkpt lat="43.4925384" lon="12.275537"><ele>405.59999999999997</ele><time>2026-04-18T08:17:09.948Z</time></trkpt><trkpt lat="43.4924273" lon="12.2754676"><ele>406.4</ele><time>2026-04-18T08:17:11.948Z</time></trkpt><trkpt lat="43.4923722" lon="12.2754189"><ele>407.2</ele><time>2026-04-18T08:17:12.948Z</time></trkpt><trkpt lat="43.4922593" lon="12.2753817"><ele>408.0</ele><time>2026-04-18T08:17:14.947Z</time></trkpt><trkpt lat="43.4922019" lon="12.2753058"><ele>408.0</ele><time>2026-04-18T08:17:16.948Z</time></trkpt><trkpt lat="43.4921168" lon="12.2752515"><ele>408.0</ele><time>2026-04-18T08:17:18.947Z</time></trkpt><trkpt lat="43.4920435" lon="12.2752668"><ele>408.0</ele><time>2026-04-18T08:17:19.947Z</time></trkpt><trkpt lat="43.4919619" lon="12.2752191"><ele>408.0</ele><time>2026-04-18T08:17:21.947Z</time></trkpt><trkpt lat="43.4918766" lon="12.2751637"><ele>408.0</ele><time>2026-04-18T08:17:23.948Z</time></trkpt><trkpt lat="43.491826" lon="12.2750905"><ele>408.0</ele><time>2026-04-18T08:17:24.948Z</time></trkpt><trkpt lat="43.4917352" lon="12.2750054"><ele>404.59999999999997</ele><time>2026-04-18T08:17:26.948Z</time></trkpt><trkpt lat="43.4916642" lon="12.2749697"><ele>401.2</ele><time>2026-04-18T08:17:27.947Z</time></trkpt><trkpt lat="43.4915604" lon="12.2749303"><ele>397.8</ele><time>2026-04-18T08:17:29.948Z</time></trkpt><trkpt lat="43.4914623" lon="12.2749108"><ele>394.4</ele><time>2026-04-18T08:17:31.948Z</time></trkpt><trkpt lat="43.4913774" lon="12.2748768"><ele>391.0</ele><time>2026-04-18T08:17:32.947Z</time></trkpt><trkpt lat="43.4912969" lon="12.2748545"><ele>389.0</ele><time>2026-04-18T08:17:34.947Z</time></trkpt><trkpt lat="43.4912148" lon="12.2748653"><ele>387.0</ele><time>2026-04-18T08:17:36.947Z</time></trkpt><trkpt lat="43.4910958" lon="12.2748585"><ele>385.0</ele><time>2026-04-18T08:17:40.949Z</time></trkpt><trkpt lat="43.4910252" lon="12.2748444"><ele>383.0</ele><time>2026-04-18T08:17:42.948Z</time></trkpt><trkpt lat="43.490912" lon="12.2748257"><ele>381.0</ele><time>2026-04-18T08:17:44.948Z</time></trkpt><trkpt lat="43.4908474" lon="12.2748046"><ele>381.7142857142857</ele><time>2026-04-18T08:17:45.947Z</time></trkpt><trkpt lat="43.4907771" lon="12.2747614"><ele>382.42857142857144</ele><time>2026-04-18T08:17:47.949Z</time></trkpt><trkpt lat="43.4906994" lon="12.2747485"><ele>383.14285714285717</ele><time>2026-04-18T08:17:54.948Z</time></trkpt><trkpt lat="43.4906499" lon="12.2746801"><ele>383.8571428571429</ele><time>2026-04-18T08:17:56.948Z</time></trkpt><trkpt lat="43.4906114" lon="12.2746106"><ele>384.57142857142856</ele><time>2026-04-18T08:18:04.948Z</time></trkpt><trkpt lat="43.4905618" lon="12.2745557"><ele>385.28571428571433</ele><time>2026-04-18T08:18:08.948Z</time></trkpt><trkpt lat="43.49049" lon="12.2745417"><ele>386.0</ele><time>2026-04-18T08:18:12.949Z</time></trkpt><trkpt lat="43.4904168" lon="12.2745065"><ele>383.5714285714286</ele><time>2026-04-18T08:18:15.948Z</time></trkpt><trkpt lat="43.4903564" lon="12.2744572"><ele>381.14285714285717</ele><time>2026-04-18T08:18:18.948Z</time></trkpt><trkpt lat="43.4902906" lon="12.2744004"><ele>378.7142857142857</ele><time>2026-04-18T08:18:21.948Z</time></trkpt><trkpt lat="43.4902557" lon="12.2743175"><ele>376.28571428571433</ele><time>2026-04-18T08:18:24.947Z</time></trkpt><trkpt lat="43.4902176" lon="12.274218"><ele>373.85714285714283</ele><time>2026-04-18T08:18:27.948Z</time></trkpt><trkpt lat="43.4901638" lon="12.2741715"><ele>371.42857142857144</ele><time>2026-04-18T08:18:29.948Z</time></trkpt><trkpt lat="43.4901065" lon="12.2741219"><ele>369.0</ele><time>2026-04-18T08:18:31.947Z</time></trkpt><trkpt lat="43.4900435" lon="12.2740843"><ele>369.0</ele><time>2026-04-18T08:18:33.947Z</time></trkpt><trkpt lat="43.4899696" lon="12.273994"><ele>369.0</ele><time>2026-04-18T08:18:35.949Z</time></trkpt><trkpt lat="43.4898887" lon="12.2738824"><ele>369.0</ele><time>2026-04-18T08:18:37.948Z</time></trkpt><trkpt lat="43.4898377" lon="12.2738248"><ele>369.0</ele><time>2026-04-18T08:18:38.948Z</time></trkpt><trkpt lat="43.4897831" lon="12.273737"><ele>369.0</ele><time>2026-04-18T08:18:39.947Z</time></trkpt><trkpt lat="43.4897333" lon="12.273665"><ele>369.0</ele><time>2026-04-18T08:18:40.948Z</time></trkpt><trkpt lat="43.4896261" lon="12.2735859"><ele>369.0</ele><time>2026-04-18T08:18:42.947Z</time></trkpt><trkpt lat="43.4895638" lon="12.2735172"><ele>369.0</ele><time>2026-04-18T08:18:43.948Z</time></trkpt><trkpt lat="43.4894784" lon="12.2734352"><ele>369.0</ele><time>2026-04-18T08:18:45.947Z</time></trkpt><trkpt lat="43.4894075" lon="12.2734214"><ele>369.0</ele><time>2026-04-18T08:18:47.948Z</time></trkpt><trkpt lat="43.4893355" lon="12.2733783"><ele>369.0</ele><time>2026-04-18T08:18:49.949Z</time></trkpt><trkpt lat="43.4892724" lon="12.2733434"><ele>369.0</ele><time>2026-04-18T08:18:51.947Z</time></trkpt><trkpt lat="43.4892065" lon="12.2732898"><ele>369.0</ele><time>2026-04-18T08:18:53.948Z</time></trkpt><trkpt lat="43.4891363" lon="12.2732895"><ele>369.0</ele><time>2026-04-18T08:18:55.948Z</time></trkpt><trkpt lat="43.4890736" lon="12.2732641"><ele>369.0</ele><time>2026-04-18T08:18:57.948Z</time></trkpt><trkpt lat="43.4889814" lon="12.2732306"><ele>369.0</ele><time>2026-04-18T08:18:59.948Z</time></trkpt><trkpt lat="43.488909" lon="12.2731957"><ele>369.0</ele><time>2026-04-18T08:19:01.947Z</time></trkpt><trkpt lat="43.4888345" lon="12.2731585"><ele>369.0</ele><time>2026-04-18T08:19:04.948Z</time></trkpt><trkpt lat="43.4887705" lon="12.2731106"><ele>368.3333333333333</ele><time>2026-04-18T08:19:06.949Z</time></trkpt><trkpt lat="43.4887036" lon="12.2730407"><ele>367.6666666666667</ele><time>2026-04-18T08:19:08.948Z</time></trkpt><trkpt lat="43.4886257" lon="12.2729673"><ele>367.0</ele><time>2026-04-18T08:19:10.948Z</time></trkpt><trkpt lat="43.4885626" lon="12.2728857"><ele>366.33333333333337</ele><time>2026-04-18T08:19:12.948Z</time></trkpt><trkpt lat="43.4885007" lon="12.2728087"><ele>365.6666666666667</ele><time>2026-04-18T08:19:14.949Z</time></trkpt><trkpt lat="43.4884491" lon="12.2727447"><ele>365.0</ele><time>2026-04-18T08:19:16.947Z</time></trkpt><trkpt lat="43.4883777" lon="12.2726484"><ele>365.00000000000006</ele><time>2026-04-18T08:19:27.946Z</time></trkpt><trkpt lat="43.4883253" lon="12.2725763"><ele>365.0</ele><time>2026-04-18T08:19:29.946Z</time></trkpt><trkpt lat="43.4882659" lon="12.2725265"><ele>365.0</ele><time>2026-04-18T08:19:31.948Z</time></trkpt><trkpt lat="43.4882077" lon="12.2724869"><ele>365.0</ele><time>2026-04-18T08:19:36.948Z</time></trkpt><trkpt lat="43.4881556" lon="12.2724321"><ele>365.0</ele><time>2026-04-18T08:19:53.946Z</time></trkpt><trkpt lat="43.4880942" lon="12.2724088"><ele>365.00000000000006</ele><time>2026-04-18T08:20:32.947Z</time></trkpt><trkpt lat="43.4880355" lon="12.2723626"><ele>365.0</ele><time>2026-04-18T08:20:35.947Z</time></trkpt><trkpt lat="43.4879817" lon="12.2722988"><ele>364.1666666666667</ele><time>2026-04-18T08:20:38.947Z</time></trkpt><trkpt lat="43.4879498" lon="12.2721636"><ele>363.33333333333337</ele><time>2026-04-18T08:20:40.948Z</time></trkpt><trkpt lat="43.4879256" lon="12.2720686"><ele>362.5</ele><time>2026-04-18T08:20:43.948Z</time></trkpt><trkpt lat="43.4878852" lon="12.2719872"><ele>361.6666666666667</ele><time>2026-04-18T08:21:17.947Z</time></trkpt><trkpt lat="43.487823" lon="12.271891"><ele>360.8333333333333</ele><time>2026-04-18T08:21:20.948Z</time></trkpt><trkpt lat="43.4877931" lon="12.2718131"><ele>360.0</ele><time>2026-04-18T08:21:21.946Z</time></trkpt><trkpt lat="43.487765" lon="12.2717352"><ele>360.0</ele><time>2026-04-18T08:21:22.947Z</time></trkpt><trkpt lat="43.4877111" lon="12.2716008"><ele>360.0</ele><time>2026-04-18T08:21:24.946Z</time></trkpt><trkpt lat="43.4876677" lon="12.2715168"><ele>360.0</ele><time>2026-04-18T08:21:25.946Z</time></trkpt><trkpt lat="43.4876275" lon="12.2714352"><ele>360.0</ele><time>2026-04-18T08:21:26.947Z</time></trkpt><trkpt lat="43.4875431" lon="12.2713316"><ele>360.0</ele><time>2026-04-18T08:21:28.947Z</time></trkpt><trkpt lat="43.4874995" lon="12.2712194"><ele>360.0</ele><time>2026-04-18T08:21:30.947Z</time></trkpt><trkpt lat="43.4874922" lon="12.2710635"><ele>360.0</ele><time>2026-04-18T08:21:32.947Z</time></trkpt><trkpt lat="43.4874814" lon="12.2709151"><ele>360.0</ele><time>2026-04-18T08:21:34.947Z</time></trkpt><trkpt lat="43.4874746" lon="12.270784"><ele>360.0</ele><time>2026-04-18T08:21:36.947Z</time></trkpt><trkpt lat="43.4874441" lon="12.2706011"><ele>359.8</ele><time>2026-04-18T08:21:39.947Z</time></trkpt><trkpt lat="43.4873995" lon="12.2704724"><ele>359.6</ele><time>2026-04-18T08:21:41.947Z</time></trkpt><trkpt lat="43.4873219" lon="12.2703653"><ele>359.4</ele><time>2026-04-18T08:21:43.948Z</time></trkpt><trkpt lat="43.4872242" lon="12.2703317"><ele>359.2</ele><time>2026-04-18T08:21:45.948Z</time></trkpt><trkpt lat="43.4871499" lon="12.2702823"><ele>359.0</ele><time>2026-04-18T08:21:46.947Z</time></trkpt><trkpt lat="43.4870603" lon="12.2701957"><ele>358.6666666666667</ele><time>2026-04-18T08:21:48.948Z</time></trkpt><trkpt lat="43.4870044" lon="12.2700905"><ele>358.33333333333337</ele><time>2026-04-18T08:21:50.946Z</time></trkpt><trkpt lat="43.4869416" lon="12.2700058"><ele>358.0</ele><time>2026-04-18T08:21:52.947Z</time></trkpt><trkpt lat="43.4868831" lon="12.269967"><ele>357.6666666666667</ele><time>2026-04-18T08:21:54.948Z</time></trkpt><trkpt lat="43.4868339" lon="12.2698983"><ele>357.3333333333333</ele><time>2026-04-18T08:21:57.947Z</time></trkpt><trkpt lat="43.4868292" lon="12.2698001"><ele>357.0</ele><time>2026-04-18T08:22:01.947Z</time></trkpt><trkpt lat="43.4868831" lon="12.269714"><ele>357.40000000000003</ele><time>2026-04-18T08:22:04.947Z</time></trkpt><trkpt lat="43.4868669" lon="12.2698154"><ele>357.8</ele><time>2026-04-18T08:22:13.947Z</time></trkpt><trkpt lat="43.4869018" lon="12.2699222"><ele>358.2</ele><time>2026-04-18T08:22:16.947Z</time></trkpt><trkpt lat="43.4869862" lon="12.2700777"><ele>358.6</ele><time>2026-04-18T08:22:18.947Z</time></trkpt><trkpt lat="43.4870715" lon="12.2701785"><ele>359.0</ele><time>2026-04-18T08:22:20.947Z</time></trkpt><trkpt lat="43.4871559" lon="12.2702619"><ele>359.0</ele><time>2026-04-18T08:22:22.947Z</time></trkpt><trkpt lat="43.4872546" lon="12.2703106"><ele>359.0</ele><time>2026-04-18T08:22:24.947Z</time></trkpt><trkpt lat="43.487318" lon="12.2703439"><ele>359.0</ele><time>2026-04-18T08:22:25.947Z</time></trkpt><trkpt lat="43.4873992" lon="12.2704903"><ele>359.0</ele><time>2026-04-18T08:22:27.946Z</time></trkpt><trkpt lat="43.4874704" lon="12.2706321"><ele>359.0</ele><time>2026-04-18T08:22:29.947Z</time></trkpt><trkpt lat="43.4874812" lon="12.2707196"><ele>359.1666666666667</ele><time>2026-04-18T08:22:30.948Z</time></trkpt><trkpt lat="43.4874744" lon="12.2708539"><ele>359.33333333333337</ele><time>2026-04-18T08:22:31.947Z</time></trkpt><trkpt lat="43.4874778" lon="12.2709647"><ele>359.5</ele><time>2026-04-18T08:22:32.946Z</time></trkpt><trkpt lat="43.4874864" lon="12.2710637"><ele>359.6666666666667</ele><time>2026-04-18T08:22:33.948Z</time></trkpt><trkpt lat="43.4874993" lon="12.2711505"><ele>359.8333333333333</ele><time>2026-04-18T08:22:34.948Z</time></trkpt><trkpt lat="43.4875039" lon="12.2712626"><ele>360.0</ele><time>2026-04-18T08:22:35.946Z</time></trkpt><trkpt lat="43.4875757" lon="12.2713495"><ele>360.0</ele><time>2026-04-18T08:22:37.947Z</time></trkpt><trkpt lat="43.4876344" lon="12.2713853"><ele>360.0</ele><time>2026-04-18T08:22:38.947Z</time></trkpt><trkpt lat="43.487711" lon="12.2714975"><ele>360.0</ele><time>2026-04-18T08:22:40.948Z</time></trkpt><trkpt lat="43.4877665" lon="12.2716308"><ele>360.0</ele><time>2026-04-18T08:22:42.947Z</time></trkpt><trkpt lat="43.4877817" lon="12.2717541"><ele>360.0</ele><time>2026-04-18T08:22:44.948Z</time></trkpt><trkpt lat="43.4878296" lon="12.2718767"><ele>360.0</ele><time>2026-04-18T08:22:46.946Z</time></trkpt><trkpt lat="43.4878722" lon="12.2719769"><ele>360.0</ele><time>2026-04-18T08:22:48.947Z</time></trkpt><trkpt lat="43.4879277" lon="12.2720557"><ele>360.0</ele><time>2026-04-18T08:22:50.947Z</time></trkpt><trkpt lat="43.4878979" lon="12.2721387"><ele>360.0</ele><time>2026-04-18T08:22:53.946Z</time></trkpt><trkpt lat="43.487792" lon="12.2722079"><ele>360.0</ele><time>2026-04-18T08:23:48.946Z</time></trkpt><trkpt lat="43.4877155" lon="12.2722158"><ele>360.0</ele><time>2026-04-18T08:24:23.948Z</time></trkpt><trkpt lat="43.4877524" lon="12.2721429"><ele>360.0</ele><time>2026-04-18T08:25:31.947Z</time></trkpt><trkpt lat="43.4878088" lon="12.2722085"><ele>360.0</ele><time>2026-04-18T08:27:50.948Z</time></trkpt><trkpt lat="43.4877503" lon="12.2721187"><ele>360.0</ele><time>2026-04-18T08:28:14.948Z</time></trkpt><trkpt lat="43.4877553" lon="12.2722152"><ele>360.0</ele><time>2026-04-18T08:29:46.948Z</time></trkpt><trkpt lat="43.4877757" lon="12.2721285"><ele>360.0</ele><time>2026-04-18T08:31:24.948Z</time></trkpt><trkpt lat="43.4876979" lon="12.2721231"><ele>360.0</ele><time>2026-04-18T08:32:27.948Z</time></trkpt><trkpt lat="43.4876421" lon="12.2720798"><ele>360.0</ele><time>2026-04-18T08:32:39.948Z</time></trkpt><trkpt lat="43.4875756" lon="12.2721172"><ele>360.0</ele><time>2026-04-18T08:34:24.948Z</time></trkpt><trkpt lat="43.4875142" lon="12.2721553"><ele>360.0</ele><time>2026-04-18T08:34:29.947Z</time></trkpt><trkpt lat="43.4874409" lon="12.2721381"><ele>360.0</ele><time>2026-04-18T08:34:34.946Z</time></trkpt><trkpt lat="43.4873683" lon="12.2721268"><ele>360.0</ele><time>2026-04-18T08:34:43.947Z</time></trkpt><trkpt lat="43.4872927" lon="12.2721062"><ele>360.0</ele><time>2026-04-18T08:34:47.948Z</time></trkpt><trkpt lat="43.4870556" lon="12.2719433"><ele>362.0</ele><time>2026-04-18T08:34:52.948Z</time></trkpt><trkpt lat="43.4870021" lon="12.2718698"><ele>364.0</ele><time>2026-04-18T08:35:07.948Z</time></trkpt><trkpt lat="43.4869323" lon="12.2718084"><ele>366.0</ele><time>2026-04-18T08:35:09.947Z</time></trkpt><trkpt lat="43.4868848" lon="12.2717472"><ele>368.0</ele><time>2026-04-18T08:35:10.946Z</time></trkpt><trkpt lat="43.4868167" lon="12.2717063"><ele>370.0</ele><time>2026-04-18T08:35:12.947Z</time></trkpt><trkpt lat="43.4867478" lon="12.2717621"><ele>372.0</ele><time>2026-04-18T08:35:14.947Z</time></trkpt><trkpt lat="43.4866947" lon="12.2718334"><ele>372.0</ele><time>2026-04-18T08:35:16.948Z</time></trkpt><trkpt lat="43.4866927" lon="12.2719511"><ele>372.0</ele><time>2026-04-18T08:35:18.947Z</time></trkpt><trkpt lat="43.4867247" lon="12.2720272"><ele>372.0</ele><time>2026-04-18T08:35:20.946Z</time></trkpt><trkpt lat="43.4867525" lon="12.2721222"><ele>372.0</ele><time>2026-04-18T08:35:22.948Z</time></trkpt><trkpt lat="43.4867852" lon="12.2722189"><ele>372.0</ele><time>2026-04-18T08:35:24.947Z</time></trkpt><trkpt lat="43.4868507" lon="12.272287"><ele>372.0</ele><time>2026-04-18T08:35:26.947Z</time></trkpt><trkpt lat="43.486893" lon="12.2723944"><ele>375.40000000000003</ele><time>2026-04-18T08:35:28.947Z</time></trkpt><trkpt lat="43.4869261" lon="12.2725008"><ele>378.8</ele><time>2026-04-18T08:35:30.947Z</time></trkpt><trkpt lat="43.4868877" lon="12.272597"><ele>382.2</ele><time>2026-04-18T08:35:33.948Z</time></trkpt><trkpt lat="43.4868039" lon="12.272606"><ele>385.6</ele><time>2026-04-18T08:35:34.946Z</time></trkpt><trkpt lat="43.4867197" lon="12.2726603"><ele>389.0</ele><time>2026-04-18T08:35:36.947Z</time></trkpt><trkpt lat="43.4866467" lon="12.2727873"><ele>389.0</ele><time>2026-04-18T08:35:38.947Z</time></trkpt><trkpt lat="43.4865896" lon="12.2729222"><ele>389.0</ele><time>2026-04-18T08:35:40.947Z</time></trkpt><trkpt lat="43.48654" lon="12.2730671"><ele>389.0</ele><time>2026-04-18T08:35:42.948Z</time></trkpt><trkpt lat="43.4864973" lon="12.2732594"><ele>389.0</ele><time>2026-04-18T08:35:43.947Z</time></trkpt><trkpt lat="43.4864653" lon="12.2733467"><ele>389.0</ele><time>2026-04-18T08:35:44.946Z</time></trkpt><trkpt lat="43.4863965" lon="12.2735149"><ele>391.4</ele><time>2026-04-18T08:35:46.946Z</time></trkpt><trkpt lat="43.4863485" lon="12.2735815"><ele>393.79999999999995</ele><time>2026-04-18T08:35:47.948Z</time></trkpt><trkpt lat="43.4862276" lon="12.2736334"><ele>396.20000000000005</ele><time>2026-04-18T08:35:50.947Z</time></trkpt><trkpt lat="43.4861221" lon="12.2737203"><ele>398.6</ele><time>2026-04-18T08:35:52.948Z</time></trkpt><trkpt lat="43.4860684" lon="12.2737765"><ele>401.0</ele><time>2026-04-18T08:35:53.947Z</time></trkpt><trkpt lat="43.4859962" lon="12.2738907"><ele>404.8</ele><time>2026-04-18T08:35:54.946Z</time></trkpt><trkpt lat="43.4859469" lon="12.2739505"><ele>408.6</ele><time>2026-04-18T08:35:55.947Z</time></trkpt><trkpt lat="43.4858837" lon="12.2739628"><ele>412.4</ele><time>2026-04-18T08:35:56.948Z</time></trkpt><trkpt lat="43.4857759" lon="12.2740049"><ele>416.2</ele><time>2026-04-18T08:35:58.947Z</time></trkpt><trkpt lat="43.4857297" lon="12.2741438"><ele>420.0</ele><time>2026-04-18T08:36:00.948Z</time></trkpt><trkpt lat="43.4856197" lon="12.2742511"><ele>420.0</ele><time>2026-04-18T08:36:02.947Z</time></trkpt><trkpt lat="43.4855404" lon="12.2742843"><ele>420.0</ele><time>2026-04-18T08:36:03.947Z</time></trkpt><trkpt lat="43.4854522" lon="12.2742953"><ele>420.0</ele><time>2026-04-18T08:36:05.947Z</time></trkpt><trkpt lat="43.4853621" lon="12.2742935"><ele>420.0</ele><time>2026-04-18T08:36:07.948Z</time></trkpt><trkpt lat="43.4852883" lon="12.274306"><ele>420.0</ele><time>2026-04-18T08:36:08.947Z</time></trkpt><trkpt lat="43.4852059" lon="12.2743437"><ele>420.0</ele><time>2026-04-18T08:36:10.947Z</time></trkpt><trkpt lat="43.4851686" lon="12.2744326"><ele>421.0</ele><time>2026-04-18T08:36:12.946Z</time></trkpt><trkpt lat="43.485136" lon="12.2745348"><ele>422.0</ele><time>2026-04-18T08:36:15.947Z</time></trkpt><trkpt lat="43.485141" lon="12.2746641"><ele>423.0</ele><time>2026-04-18T08:36:25.946Z</time></trkpt><trkpt lat="43.4851361" lon="12.2748721"><ele>424.0</ele><time>2026-04-18T08:36:27.947Z</time></trkpt><trkpt lat="43.4851208" lon="12.2749624"><ele>425.0</ele><time>2026-04-18T08:36:28.947Z</time></trkpt><trkpt lat="43.4850911" lon="12.2751361"><ele>428.25</ele><time>2026-04-18T08:36:30.947Z</time></trkpt><trkpt lat="43.4850891" lon="12.2752841"><ele>431.5</ele><time>2026-04-18T08:36:32.948Z</time></trkpt><trkpt lat="43.4850364" lon="12.2754529"><ele>434.75</ele><time>2026-04-18T08:36:34.947Z</time></trkpt><trkpt lat="43.4849927" lon="12.2755853"><ele>438.0</ele><time>2026-04-18T08:36:35.948Z</time></trkpt><trkpt lat="43.4849208" lon="12.2757424"><ele>438.0</ele><time>2026-04-18T08:36:37.948Z</time></trkpt><trkpt lat="43.4847967" lon="12.2757842"><ele>438.0</ele><time>2026-04-18T08:36:39.946Z</time></trkpt><trkpt lat="43.4847192" lon="12.2758283"><ele>438.0</ele><time>2026-04-18T08:36:40.948Z</time></trkpt><trkpt lat="43.4846431" lon="12.2758724"><ele>438.0</ele><time>2026-04-18T08:36:41.948Z</time></trkpt><trkpt lat="43.4845779" lon="12.2759164"><ele>438.0</ele><time>2026-04-18T08:36:42.947Z</time></trkpt><trkpt lat="43.4845161" lon="12.2758721"><ele>438.0</ele><time>2026-04-18T08:36:46.947Z</time></trkpt><trkpt lat="43.4844399" lon="12.2758888"><ele>442.25</ele><time>2026-04-18T08:36:48.947Z</time></trkpt><trkpt lat="43.4842929" lon="12.2758976"><ele>446.5</ele><time>2026-04-18T08:36:50.946Z</time></trkpt><trkpt lat="43.484137" lon="12.275976"><ele>450.75</ele><time>2026-04-18T08:36:51.948Z</time></trkpt><trkpt lat="43.4840266" lon="12.2759972"><ele>455.0</ele><time>2026-04-18T08:36:52.947Z</time></trkpt><trkpt lat="43.4839442" lon="12.2759521"><ele>454.99999999999994</ele><time>2026-04-18T08:36:53.947Z</time></trkpt><trkpt lat="43.4838391" lon="12.2759191"><ele>455.0</ele><time>2026-04-18T08:36:54.946Z</time></trkpt><trkpt lat="43.4837634" lon="12.2758904"><ele>455.0</ele><time>2026-04-18T08:36:55.946Z</time></trkpt><trkpt lat="43.4836894" lon="12.2759139"><ele>455.0</ele><time>2026-04-18T08:36:57.946Z</time></trkpt><trkpt lat="43.4836212" lon="12.2759356"><ele>454.99999999999994</ele><time>2026-04-18T08:36:58.947Z</time></trkpt><trkpt lat="43.4835522" lon="12.2759547"><ele>455.0</ele><time>2026-04-18T08:36:59.945Z</time></trkpt><trkpt lat="43.4834854" lon="12.2760492"><ele>456.2857142857143</ele><time>2026-04-18T08:37:01.947Z</time></trkpt><trkpt lat="43.4834778" lon="12.2761691"><ele>457.57142857142856</ele><time>2026-04-18T08:37:03.946Z</time></trkpt><trkpt lat="43.4834791" lon="12.276277"><ele>458.8571428571429</ele><time>2026-04-18T08:37:08.946Z</time></trkpt><trkpt lat="43.4834446" lon="12.276375"><ele>460.14285714285717</ele><time>2026-04-18T08:37:13.947Z</time></trkpt><trkpt lat="43.4834009" lon="12.2764431"><ele>461.42857142857144</ele><time>2026-04-18T08:37:15.946Z</time></trkpt><trkpt lat="43.48335" lon="12.2765056"><ele>462.7142857142858</ele><time>2026-04-18T08:37:17.946Z</time></trkpt><trkpt lat="43.4833185" lon="12.2765822"><ele>464.00000000000006</ele><time>2026-04-18T08:37:19.945Z</time></trkpt><trkpt lat="43.4832637" lon="12.2766702"><ele>464.0</ele><time>2026-04-18T08:37:22.946Z</time></trkpt><trkpt lat="43.4832275" lon="12.276749"><ele>464.0</ele><time>2026-04-18T08:37:24.946Z</time></trkpt><trkpt lat="43.483204" lon="12.2768506"><ele>464.0</ele><time>2026-04-18T08:37:26.945Z</time></trkpt><trkpt lat="43.4832962" lon="12.2769928"><ele>464.0</ele><time>2026-04-18T08:37:27.946Z</time></trkpt><trkpt lat="43.4833564" lon="12.2771246"><ele>464.0</ele><time>2026-04-18T08:37:29.946Z</time></trkpt><trkpt lat="43.4833866" lon="12.2772031"><ele>465.5</ele><time>2026-04-18T08:37:30.946Z</time></trkpt><trkpt lat="43.4834232" lon="12.2772764"><ele>467.0</ele><time>2026-04-18T08:37:31.945Z</time></trkpt><trkpt lat="43.4835594" lon="12.2774913"><ele>468.5</ele><time>2026-04-18T08:37:32.945Z</time></trkpt><trkpt lat="43.4836368" lon="12.2775825"><ele>470.0</ele><time>2026-04-18T08:37:33.946Z</time></trkpt><trkpt lat="43.4837278" lon="12.2777248"><ele>470.0</ele><time>2026-04-18T08:37:35.946Z</time></trkpt><trkpt lat="43.4837903" lon="12.2778168"><ele>470.0</ele><time>2026-04-18T08:37:37.945Z</time></trkpt><trkpt lat="43.4838585" lon="12.2781545"><ele>470.0</ele><time>2026-04-18T08:37:39.946Z</time></trkpt><trkpt lat="43.4838841" lon="12.2782386"><ele>470.0</ele><time>2026-04-18T08:37:40.946Z</time></trkpt><trkpt lat="43.4839346" lon="12.2783737"><ele>470.0</ele><time>2026-04-18T08:37:42.946Z</time></trkpt><trkpt lat="43.4839632" lon="12.2784612"><ele>470.0</ele><time>2026-04-18T08:37:44.947Z</time></trkpt><trkpt lat="43.4839745" lon="12.2785593"><ele>470.0</ele><time>2026-04-18T08:37:47.946Z</time></trkpt><trkpt lat="43.484" lon="12.2786808"><ele>470.0</ele><time>2026-04-18T08:37:48.946Z</time></trkpt><trkpt lat="43.4840568" lon="12.2787629"><ele>470.0</ele><time>2026-04-18T08:37:50.947Z</time></trkpt><trkpt lat="43.4841641" lon="12.2788908"><ele>471.0</ele><time>2026-04-18T08:37:53.946Z</time></trkpt><trkpt lat="43.4842088" lon="12.2789666"><ele>472.0</ele><time>2026-04-18T08:37:54.945Z</time></trkpt><trkpt lat="43.4842556" lon="12.2790419"><ele>473.0</ele><time>2026-04-18T08:37:55.946Z</time></trkpt><trkpt lat="43.4843401" lon="12.2791635"><ele>474.0</ele><time>2026-04-18T08:37:57.947Z</time></trkpt><trkpt lat="43.4844092" lon="12.2792755"><ele>475.0</ele><time>2026-04-18T08:37:58.945Z</time></trkpt><trkpt lat="43.4844674" lon="12.2793901"><ele>475.0</ele><time>2026-04-18T08:38:00.945Z</time></trkpt><trkpt lat="43.4845319" lon="12.2794514"><ele>475.0</ele><time>2026-04-18T08:38:01.946Z</time></trkpt><trkpt lat="43.4846312" lon="12.2795404"><ele>475.0</ele><time>2026-04-18T08:38:03.946Z</time></trkpt><trkpt lat="43.4847004" lon="12.279655"><ele>475.0</ele><time>2026-04-18T08:38:05.946Z</time></trkpt><trkpt lat="43.484786" lon="12.2797927"><ele>475.0</ele><time>2026-04-18T08:38:07.945Z</time></trkpt><trkpt lat="43.4848526" lon="12.2798744"><ele>476.33333333333337</ele><time>2026-04-18T08:38:08.946Z</time></trkpt><trkpt lat="43.4848951" lon="12.2799526"><ele>477.6666666666667</ele><time>2026-04-18T08:38:09.946Z</time></trkpt><trkpt lat="43.484955" lon="12.2800344"><ele>479.0</ele><time>2026-04-18T08:38:10.946Z</time></trkpt><trkpt lat="43.4850048" lon="12.280109"><ele>480.33333333333337</ele><time>2026-04-18T08:38:11.946Z</time></trkpt><trkpt lat="43.4850523" lon="12.280178"><ele>481.6666666666667</ele><time>2026-04-18T08:38:12.946Z</time></trkpt><trkpt lat="43.4851396" lon="12.2802951"><ele>483.0</ele><time>2026-04-18T08:38:14.946Z</time></trkpt><trkpt lat="43.4852298" lon="12.280412"><ele>483.0</ele><time>2026-04-18T08:38:16.946Z</time></trkpt><trkpt lat="43.4852712" lon="12.2804781"><ele>482.99999999999994</ele><time>2026-04-18T08:38:17.946Z</time></trkpt><trkpt lat="43.4853463" lon="12.2806301"><ele>482.99999999999994</ele><time>2026-04-18T08:38:19.946Z</time></trkpt><trkpt lat="43.4854143" lon="12.2807683"><ele>483.0</ele><time>2026-04-18T08:38:21.946Z</time></trkpt><trkpt lat="43.4854562" lon="12.2809084"><ele>483.0</ele><time>2026-04-18T08:38:23.946Z</time></trkpt><trkpt lat="43.4854927" lon="12.2810345"><ele>483.79999999999995</ele><time>2026-04-18T08:38:25.946Z</time></trkpt><trkpt lat="43.4855542" lon="12.2811559"><ele>484.59999999999997</ele><time>2026-04-18T08:38:27.946Z</time></trkpt><trkpt lat="43.4856147" lon="12.2812654"><ele>485.40000000000003</ele><time>2026-04-18T08:38:29.947Z</time></trkpt><trkpt lat="43.4856662" lon="12.2813716"><ele>486.20000000000005</ele><time>2026-04-18T08:38:31.947Z</time></trkpt><trkpt lat="43.4857254" lon="12.2814477"><ele>487.0</ele><time>2026-04-18T08:38:33.946Z</time></trkpt><trkpt lat="43.4857766" lon="12.2815651"><ele>488.40000000000003</ele><time>2026-04-18T08:38:35.947Z</time></trkpt><trkpt lat="43.4858373" lon="12.2816545"><ele>489.80000000000007</ele><time>2026-04-18T08:38:37.946Z</time></trkpt><trkpt lat="43.4859154" lon="12.2817265"><ele>491.2</ele><time>2026-04-18T08:38:39.945Z</time></trkpt><trkpt lat="43.4859899" lon="12.2818143"><ele>492.6</ele><time>2026-04-18T08:38:42.945Z</time></trkpt><trkpt lat="43.4860713" lon="12.2818758"><ele>494.0</ele><time>2026-04-18T08:38:43.946Z</time></trkpt><trkpt lat="43.486137" lon="12.2819853"><ele>494.0</ele><time>2026-04-18T08:38:45.946Z</time></trkpt><trkpt lat="43.4861944" lon="12.2820778"><ele>494.0</ele><time>2026-04-18T08:38:47.946Z</time></trkpt><trkpt lat="43.4862392" lon="12.2822157"><ele>494.0</ele><time>2026-04-18T08:38:49.946Z</time></trkpt><trkpt lat="43.4862802" lon="12.2823551"><ele>494.0</ele><time>2026-04-18T08:38:51.945Z</time></trkpt><trkpt lat="43.4863141" lon="12.2824355"><ele>494.0</ele><time>2026-04-18T08:38:52.947Z</time></trkpt><trkpt lat="43.4863449" lon="12.2825337"><ele>493.79999999999995</ele><time>2026-04-18T08:38:53.946Z</time></trkpt><trkpt lat="43.4863967" lon="12.2826331"><ele>493.59999999999997</ele><time>2026-04-18T08:38:55.946Z</time></trkpt><trkpt lat="43.4864664" lon="12.2827413"><ele>493.4</ele><time>2026-04-18T08:38:57.946Z</time></trkpt><trkpt lat="43.4865391" lon="12.2828114"><ele>493.2</ele><time>2026-04-18T08:38:59.945Z</time></trkpt><trkpt lat="43.4866241" lon="12.2828884"><ele>493.0</ele><time>2026-04-18T08:39:01.945Z</time></trkpt><trkpt lat="43.4867269" lon="12.2829398"><ele>493.0</ele><time>2026-04-18T08:39:03.946Z</time></trkpt><trkpt lat="43.4867907" lon="12.2829683"><ele>492.99999999999994</ele><time>2026-04-18T08:39:04.946Z</time></trkpt><trkpt lat="43.4868964" lon="12.2830358"><ele>492.99999999999994</ele><time>2026-04-18T08:39:06.946Z</time></trkpt><trkpt lat="43.4869585" lon="12.2830639"><ele>493.0</ele><time>2026-04-18T08:39:07.945Z</time></trkpt><trkpt lat="43.4870672" lon="12.2831291"><ele>493.0</ele><time>2026-04-18T08:39:09.946Z</time></trkpt><trkpt lat="43.4871676" lon="12.2831966"><ele>495.75</ele><time>2026-04-18T08:39:11.946Z</time></trkpt><trkpt lat="43.4872761" lon="12.2832565"><ele>498.5</ele><time>2026-04-18T08:39:13.945Z</time></trkpt><trkpt lat="43.4873843" lon="12.2833352"><ele>501.25</ele><time>2026-04-18T08:39:15.945Z</time></trkpt><trkpt lat="43.4874854" lon="12.2834119"><ele>504.0</ele><time>2026-04-18T08:39:17.946Z</time></trkpt><trkpt lat="43.4875858" lon="12.2834781"><ele>504.0</ele><time>2026-04-18T08:39:19.946Z</time></trkpt><trkpt lat="43.4876984" lon="12.2835307"><ele>504.0</ele><time>2026-04-18T08:39:21.947Z</time></trkpt><trkpt lat="43.4877553" lon="12.2835709"><ele>504.0</ele><time>2026-04-18T08:39:22.947Z</time></trkpt><trkpt lat="43.4878148" lon="12.2836015"><ele>504.0</ele><time>2026-04-18T08:39:23.946Z</time></trkpt><trkpt lat="43.4879373" lon="12.2836524"><ele>504.0</ele><time>2026-04-18T08:39:25.946Z</time></trkpt><trkpt lat="43.4879991" lon="12.2836793"><ele>504.0</ele><time>2026-04-18T08:39:26.946Z</time></trkpt><trkpt lat="43.4880602" lon="12.2837076"><ele>504.8333333333333</ele><time>2026-04-18T08:39:27.946Z</time></trkpt><trkpt lat="43.4881237" lon="12.2837359"><ele>505.66666666666663</ele><time>2026-04-18T08:39:28.946Z</time></trkpt><trkpt lat="43.4881927" lon="12.2837576"><ele>506.5</ele><time>2026-04-18T08:39:29.947Z</time></trkpt><trkpt lat="43.4882705" lon="12.2837748"><ele>507.3333333333333</ele><time>2026-04-18T08:39:30.945Z</time></trkpt><trkpt lat="43.4883485" lon="12.2837888"><ele>508.16666666666663</ele><time>2026-04-18T08:39:31.945Z</time></trkpt><trkpt lat="43.4884299" lon="12.2837923"><ele>509.0</ele><time>2026-04-18T08:39:32.946Z</time></trkpt><trkpt lat="43.488513" lon="12.2837936"><ele>509.0</ele><time>2026-04-18T08:39:33.945Z</time></trkpt><trkpt lat="43.4885841" lon="12.2837789"><ele>509.0</ele><time>2026-04-18T08:39:34.946Z</time></trkpt><trkpt lat="43.4886964" lon="12.2837557"><ele>509.0</ele><time>2026-04-18T08:39:36.946Z</time></trkpt><trkpt lat="43.4888034" lon="12.2837595"><ele>509.0</ele><time>2026-04-18T08:39:38.946Z</time></trkpt><trkpt lat="43.488913" lon="12.2837775"><ele>509.0</ele><time>2026-04-18T08:39:40.946Z</time></trkpt><trkpt lat="43.4889948" lon="12.2838089"><ele>509.79999999999995</ele><time>2026-04-18T08:39:42.946Z</time></trkpt><trkpt lat="43.4890863" lon="12.2838574"><ele>510.59999999999997</ele><time>2026-04-18T08:39:44.946Z</time></trkpt><trkpt lat="43.4891899" lon="12.2839204"><ele>511.4</ele><time>2026-04-18T08:39:46.946Z</time></trkpt><trkpt lat="43.4892961" lon="12.2839788"><ele>512.1999999999999</ele><time>2026-04-18T08:39:48.945Z</time></trkpt><trkpt lat="43.4894087" lon="12.2840315"><ele>513.0</ele><time>2026-04-18T08:39:50.945Z</time></trkpt><trkpt lat="43.4895155" lon="12.2840889"><ele>515.5</ele><time>2026-04-18T08:39:52.946Z</time></trkpt><trkpt lat="43.4896204" lon="12.2841426"><ele>518.0</ele><time>2026-04-18T08:39:54.947Z</time></trkpt><trkpt lat="43.4897294" lon="12.2841971"><ele>520.5</ele><time>2026-04-18T08:39:56.946Z</time></trkpt><trkpt lat="43.4898219" lon="12.2842596"><ele>523.0</ele><time>2026-04-18T08:39:58.947Z</time></trkpt><trkpt lat="43.4899349" lon="12.2843421"><ele>523.0</ele><time>2026-04-18T08:40:00.946Z</time></trkpt><trkpt lat="43.4899941" lon="12.2843816"><ele>523.0</ele><time>2026-04-18T08:40:01.947Z</time></trkpt><trkpt lat="43.4900524" lon="12.284419"><ele>523.0</ele><time>2026-04-18T08:40:02.945Z</time></trkpt><trkpt lat="43.4901698" lon="12.2844893"><ele>523.0</ele><time>2026-04-18T08:40:04.947Z</time></trkpt><trkpt lat="43.4902856" lon="12.2845044"><ele>523.0</ele><time>2026-04-18T08:40:06.946Z</time></trkpt><trkpt lat="43.4903911" lon="12.2845213"><ele>522.0</ele><time>2026-04-18T08:40:08.945Z</time></trkpt><trkpt lat="43.4904784" lon="12.284533"><ele>521.0</ele><time>2026-04-18T08:40:10.945Z</time></trkpt><trkpt lat="43.4905565" lon="12.2845596"><ele>520.0</ele><time>2026-04-18T08:40:13.946Z</time></trkpt><trkpt lat="43.4906273" lon="12.2846558"><ele>519.0</ele><time>2026-04-18T08:40:17.946Z</time></trkpt><trkpt lat="43.4906962" lon="12.2847682"><ele>518.0</ele><time>2026-04-18T08:40:19.946Z</time></trkpt><trkpt lat="43.4907844" lon="12.2848509"><ele>518.0</ele><time>2026-04-18T08:40:21.945Z</time></trkpt><trkpt lat="43.4908725" lon="12.2848989"><ele>518.0</ele><time>2026-04-18T08:40:23.945Z</time></trkpt><trkpt lat="43.4909612" lon="12.2849507"><ele>518.0</ele><time>2026-04-18T08:40:25.947Z</time></trkpt><trkpt lat="43.4910375" lon="12.285018"><ele>518.0</ele><time>2026-04-18T08:40:27.946Z</time></trkpt><trkpt lat="43.491025" lon="12.2851061"><ele>518.0</ele><time>2026-04-18T08:40:28.946Z</time></trkpt><trkpt lat="43.4910391" lon="12.2852445"><ele>518.0</ele><time>2026-04-18T08:40:30.946Z</time></trkpt><trkpt lat="43.4911335" lon="12.2853199"><ele>518.0</ele><time>2026-04-18T08:40:32.946Z</time></trkpt><trkpt lat="43.4912121" lon="12.28537"><ele>518.0</ele><time>2026-04-18T08:40:34.945Z</time></trkpt><trkpt lat="43.491263" lon="12.285465"><ele>518.0</ele><time>2026-04-18T08:40:36.947Z</time></trkpt><trkpt lat="43.4913115" lon="12.2855251"><ele>518.0</ele><time>2026-04-18T08:40:38.945Z</time></trkpt><trkpt lat="43.4913571" lon="12.2856147"><ele>518.0</ele><time>2026-04-18T08:40:40.946Z</time></trkpt><trkpt lat="43.4914119" lon="12.2857103"><ele>518.0</ele><time>2026-04-18T08:40:42.945Z</time></trkpt><trkpt lat="43.4914807" lon="12.2858326"><ele>517.8</ele><time>2026-04-18T08:40:44.946Z</time></trkpt><trkpt lat="43.4915676" lon="12.2859621"><ele>517.5999999999999</ele><time>2026-04-18T08:40:46.946Z</time></trkpt><trkpt lat="43.4916171" lon="12.2860238"><ele>517.4000000000001</ele><time>2026-04-18T08:40:47.947Z</time></trkpt><trkpt lat="43.4916608" lon="12.2860911"><ele>517.2</ele><time>2026-04-18T08:40:48.946Z</time></trkpt><trkpt lat="43.4917463" lon="12.2862295"><ele>517.0</ele><time>2026-04-18T08:40:50.946Z</time></trkpt><trkpt lat="43.4917981" lon="12.2863256"><ele>517.0</ele><time>2026-04-18T08:40:52.946Z</time></trkpt><trkpt lat="43.491841" lon="12.2864022"><ele>517.0</ele><time>2026-04-18T08:40:53.946Z</time></trkpt><trkpt lat="43.4919056" lon="12.2865311"><ele>517.0</ele><time>2026-04-18T08:40:55.946Z</time></trkpt><trkpt lat="43.4919392" lon="12.2866064"><ele>517.0</ele><time>2026-04-18T08:40:56.946Z</time></trkpt><trkpt lat="43.492015" lon="12.2867562"><ele>517.0</ele><time>2026-04-18T08:40:58.946Z</time></trkpt><trkpt lat="43.4920599" lon="12.2868413"><ele>517.0</ele><time>2026-04-18T08:40:59.945Z</time></trkpt><trkpt lat="43.4921038" lon="12.2869214"><ele>517.0</ele><time>2026-04-18T08:41:00.946Z</time></trkpt><trkpt lat="43.4922002" lon="12.2870933"><ele>517.0</ele><time>2026-04-18T08:41:02.947Z</time></trkpt><trkpt lat="43.4922477" lon="12.2871815"><ele>517.0</ele><time>2026-04-18T08:41:03.947Z</time></trkpt><trkpt lat="43.4922895" lon="12.2872577"><ele>517.0</ele><time>2026-04-18T08:41:04.947Z</time></trkpt><trkpt lat="43.4923413" lon="12.2873818"><ele>517.6666666666667</ele><time>2026-04-18T08:41:06.946Z</time></trkpt><trkpt lat="43.4923647" lon="12.2874906"><ele>518.3333333333334</ele><time>2026-04-18T08:41:08.946Z</time></trkpt><trkpt lat="43.4923707" lon="12.2875859"><ele>519.0</ele><time>2026-04-18T08:41:10.945Z</time></trkpt><trkpt lat="43.4924118" lon="12.287653"><ele>519.6666666666666</ele><time>2026-04-18T08:41:12.946Z</time></trkpt><trkpt lat="43.492448" lon="12.2877422"><ele>520.3333333333333</ele><time>2026-04-18T08:41:15.945Z</time></trkpt><trkpt lat="43.4925086" lon="12.2878215"><ele>521.0</ele><time>2026-04-18T08:41:17.946Z</time></trkpt><trkpt lat="43.4926036" lon="12.2878757"><ele>521.0</ele><time>2026-04-18T08:41:18.946Z</time></trkpt><trkpt lat="43.492679" lon="12.2879718"><ele>521.0</ele><time>2026-04-18T08:41:19.946Z</time></trkpt><trkpt lat="43.4927335" lon="12.2880193"><ele>521.0</ele><time>2026-04-18T08:41:20.946Z</time></trkpt><trkpt lat="43.4928202" lon="12.2881298"><ele>521.0</ele><time>2026-04-18T08:41:22.945Z</time></trkpt><trkpt lat="43.492924" lon="12.2882317"><ele>521.0</ele><time>2026-04-18T08:41:24.947Z</time></trkpt><trkpt lat="43.493035" lon="12.2883055"><ele>520.8</ele><time>2026-04-18T08:41:26.945Z</time></trkpt><trkpt lat="43.4931354" lon="12.2883361"><ele>520.6</ele><time>2026-04-18T08:41:27.946Z</time></trkpt><trkpt lat="43.4932243" lon="12.2883767"><ele>520.4</ele><time>2026-04-18T08:41:29.946Z</time></trkpt><trkpt lat="43.4933166" lon="12.2884619"><ele>520.2</ele><time>2026-04-18T08:41:31.946Z</time></trkpt><trkpt lat="43.4933799" lon="12.2885216"><ele>520.0</ele><time>2026-04-18T08:41:32.946Z</time></trkpt><trkpt lat="43.4934762" lon="12.2886375"><ele>520.0</ele><time>2026-04-18T08:41:34.946Z</time></trkpt><trkpt lat="43.4935071" lon="12.2887971"><ele>520.0</ele><time>2026-04-18T08:41:36.947Z</time></trkpt><trkpt lat="43.4935212" lon="12.2888917"><ele>520.0</ele><time>2026-04-18T08:41:38.946Z</time></trkpt><trkpt lat="43.4935873" lon="12.2890187"><ele>520.0</ele><time>2026-04-18T08:41:40.946Z</time></trkpt><trkpt lat="43.4936445" lon="12.2890845"><ele>520.0</ele><time>2026-04-18T08:41:42.946Z</time></trkpt><trkpt lat="43.4936743" lon="12.289167"><ele>520.0</ele><time>2026-04-18T08:41:43.947Z</time></trkpt><trkpt lat="43.4937057" lon="12.2892478"><ele>520.0</ele><time>2026-04-18T08:41:44.946Z</time></trkpt><trkpt lat="43.4937385" lon="12.2893252"><ele>520.0</ele><time>2026-04-18T08:41:45.945Z</time></trkpt><trkpt lat="43.4937949" lon="12.2894201"><ele>520.0</ele><time>2026-04-18T08:41:46.946Z</time></trkpt><trkpt lat="43.4938429" lon="12.2895054"><ele>520.0</ele><time>2026-04-18T08:41:47.946Z</time></trkpt><trkpt lat="43.4939157" lon="12.2896069"><ele>520.0</ele><time>2026-04-18T08:41:48.946Z</time></trkpt><trkpt lat="43.4939716" lon="12.2897021"><ele>520.0</ele><time>2026-04-18T08:41:49.947Z</time></trkpt><trkpt lat="43.494029" lon="12.2897801"><ele>520.6666666666667</ele><time>2026-04-18T08:41:50.946Z</time></trkpt><trkpt lat="43.4940844" lon="12.2898267"><ele>521.3333333333334</ele><time>2026-04-18T08:41:51.946Z</time></trkpt><trkpt lat="43.494145" lon="12.2899"><ele>522.0</ele><time>2026-04-18T08:41:52.946Z</time></trkpt><trkpt lat="43.4942108" lon="12.2899924"><ele>522.6666666666666</ele><time>2026-04-18T08:41:53.947Z</time></trkpt><trkpt lat="43.4942782" lon="12.2900654"><ele>523.3333333333333</ele><time>2026-04-18T08:41:54.945Z</time></trkpt><trkpt lat="43.4943448" lon="12.2901438"><ele>524.0</ele><time>2026-04-18T08:41:55.945Z</time></trkpt><trkpt lat="43.4944142" lon="12.2902226"><ele>524.0</ele><time>2026-04-18T08:41:56.946Z</time></trkpt><trkpt lat="43.4944793" lon="12.2903029"><ele>524.0</ele><time>2026-04-18T08:41:57.947Z</time></trkpt><trkpt lat="43.49454" lon="12.2903795"><ele>524.0</ele><time>2026-04-18T08:41:58.946Z</time></trkpt><trkpt lat="43.4945752" lon="12.2904521"><ele>524.0</ele><time>2026-04-18T08:41:59.945Z</time></trkpt><trkpt lat="43.49464" lon="12.2905413"><ele>524.0</ele><time>2026-04-18T08:42:00.946Z</time></trkpt><trkpt lat="43.494686" lon="12.2906208"><ele>524.0</ele><time>2026-04-18T08:42:01.946Z</time></trkpt><trkpt lat="43.4947731" lon="12.2907804"><ele>524.2</ele><time>2026-04-18T08:42:03.947Z</time></trkpt><trkpt lat="43.4948126" lon="12.2908564"><ele>524.4</ele><time>2026-04-18T08:42:04.945Z</time></trkpt><trkpt lat="43.4948867" lon="12.2909515"><ele>524.6</ele><time>2026-04-18T08:42:06.946Z</time></trkpt><trkpt lat="43.4949905" lon="12.2910295"><ele>524.8</ele><time>2026-04-18T08:42:08.946Z</time></trkpt><trkpt lat="43.4950468" lon="12.2910861"><ele>525.0</ele><time>2026-04-18T08:42:09.945Z</time></trkpt><trkpt lat="43.4951399" lon="12.2912091"><ele>525.0</ele><time>2026-04-18T08:42:11.945Z</time></trkpt><trkpt lat="43.495218" lon="12.2913362"><ele>525.0</ele><time>2026-04-18T08:42:13.945Z</time></trkpt><trkpt lat="43.4952797" lon="12.2914538"><ele>525.0</ele><time>2026-04-18T08:42:15.946Z</time></trkpt><trkpt lat="43.4953239" lon="12.2915228"><ele>525.0</ele><time>2026-04-18T08:42:16.946Z</time></trkpt><trkpt lat="43.4954151" lon="12.2916457"><ele>525.0</ele><time>2026-04-18T08:42:18.945Z</time></trkpt><trkpt lat="43.4954641" lon="12.2917119"><ele>525.6666666666666</ele><time>2026-04-18T08:42:19.946Z</time></trkpt><trkpt lat="43.4955212" lon="12.2917724"><ele>526.3333333333334</ele><time>2026-04-18T08:42:20.947Z</time></trkpt><trkpt lat="43.4955773" lon="12.2918263"><ele>527.0</ele><time>2026-04-18T08:42:21.946Z</time></trkpt><trkpt lat="43.4956421" lon="12.2918637"><ele>527.6666666666667</ele><time>2026-04-18T08:42:22.946Z</time></trkpt><trkpt lat="43.4957115" lon="12.2919348"><ele>528.3333333333334</ele><time>2026-04-18T08:42:23.947Z</time></trkpt><trkpt lat="43.4957792" lon="12.2919956"><ele>529.0</ele><time>2026-04-18T08:42:24.947Z</time></trkpt><trkpt lat="43.495838" lon="12.2920523"><ele>529.0</ele><time>2026-04-18T08:42:25.947Z</time></trkpt><trkpt lat="43.4958795" lon="12.2921316"><ele>529.0</ele><time>2026-04-18T08:42:26.946Z</time></trkpt><trkpt lat="43.4959342" lon="12.2922232"><ele>529.0</ele><time>2026-04-18T08:42:27.945Z</time></trkpt><trkpt lat="43.4960051" lon="12.2923488"><ele>529.0</ele><time>2026-04-18T08:42:28.947Z</time></trkpt><trkpt lat="43.4960573" lon="12.2924232"><ele>529.0</ele><time>2026-04-18T08:42:29.947Z</time></trkpt><trkpt lat="43.4961241" lon="12.2924687"><ele>529.0</ele><time>2026-04-18T08:42:30.945Z</time></trkpt><trkpt lat="43.496175" lon="12.2925313"><ele>529.0</ele><time>2026-04-18T08:42:31.945Z</time></trkpt><trkpt lat="43.4962252" lon="12.2925915"><ele>529.0</ele><time>2026-04-18T08:42:32.946Z</time></trkpt><trkpt lat="43.4962785" lon="12.292658"><ele>529.0</ele><time>2026-04-18T08:42:33.945Z</time></trkpt><trkpt lat="43.4963187" lon="12.2927344"><ele>529.0</ele><time>2026-04-18T08:42:34.947Z</time></trkpt><trkpt lat="43.4963613" lon="12.2928012"><ele>529.0</ele><time>2026-04-18T08:42:35.946Z</time></trkpt><trkpt lat="43.4964133" lon="12.2928674"><ele>529.0</ele><time>2026-04-18T08:42:36.947Z</time></trkpt><trkpt lat="43.4964699" lon="12.2929503"><ele>529.0</ele><time>2026-04-18T08:42:37.946Z</time></trkpt><trkpt lat="43.496538" lon="12.2930454"><ele>529.6666666666667</ele><time>2026-04-18T08:42:38.945Z</time></trkpt><trkpt lat="43.4966003" lon="12.293106"><ele>530.3333333333334</ele><time>2026-04-18T08:42:39.947Z</time></trkpt><trkpt lat="43.496663" lon="12.2931765"><ele>531.0</ele><time>2026-04-18T08:42:40.946Z</time></trkpt><trkpt lat="43.4967161" lon="12.2932396"><ele>531.6666666666666</ele><time>2026-04-18T08:42:41.945Z</time></trkpt><trkpt lat="43.4968056" lon="12.2933332"><ele>532.3333333333333</ele><time>2026-04-18T08:42:42.946Z</time></trkpt><trkpt lat="43.496857" lon="12.2933945"><ele>533.0</ele><time>2026-04-18T08:42:43.947Z</time></trkpt><trkpt lat="43.4969592" lon="12.2935086"><ele>533.0</ele><time>2026-04-18T08:42:45.946Z</time></trkpt><trkpt lat="43.4969945" lon="12.2935954"><ele>533.0</ele><time>2026-04-18T08:42:46.947Z</time></trkpt><trkpt lat="43.4970443" lon="12.2936654"><ele>533.0</ele><time>2026-04-18T08:42:47.946Z</time></trkpt><trkpt lat="43.4970979" lon="12.293713"><ele>533.0</ele><time>2026-04-18T08:42:48.946Z</time></trkpt><trkpt lat="43.4972105" lon="12.2937894"><ele>533.0</ele><time>2026-04-18T08:42:50.946Z</time></trkpt><trkpt lat="43.4972653" lon="12.2938515"><ele>533.0</ele><time>2026-04-18T08:42:51.947Z</time></trkpt><trkpt lat="43.4973697" lon="12.2939869"><ele>534.6</ele><time>2026-04-18T08:42:52.946Z</time></trkpt><trkpt lat="43.4974713" lon="12.2940544"><ele>536.1999999999999</ele><time>2026-04-18T08:42:54.946Z</time></trkpt><trkpt lat="43.4975418" lon="12.2941273"><ele>537.8</ele><time>2026-04-18T08:42:56.946Z</time></trkpt><trkpt lat="43.4976068" lon="12.2941768"><ele>539.4</ele><time>2026-04-18T08:42:58.946Z</time></trkpt><trkpt lat="43.4976866" lon="12.2942973"><ele>541.0</ele><time>2026-04-18T08:43:00.946Z</time></trkpt><trkpt lat="43.4977329" lon="12.2943585"><ele>541.0</ele><time>2026-04-18T08:43:01.946Z</time></trkpt><trkpt lat="43.4978452" lon="12.2943993"><ele>541.0</ele><time>2026-04-18T08:43:03.946Z</time></trkpt><trkpt lat="43.4979347" lon="12.294518"><ele>541.0</ele><time>2026-04-18T08:43:05.945Z</time></trkpt><trkpt lat="43.4980464" lon="12.2945866"><ele>541.0</ele><time>2026-04-18T08:43:07.946Z</time></trkpt><trkpt lat="43.4981341" lon="12.2946568"><ele>541.7142857142858</ele><time>2026-04-18T08:43:09.947Z</time></trkpt><trkpt lat="43.4981856" lon="12.2947256"><ele>542.4285714285714</ele><time>2026-04-18T08:43:10.946Z</time></trkpt><trkpt lat="43.4982389" lon="12.2947762"><ele>543.1428571428571</ele><time>2026-04-18T08:43:11.947Z</time></trkpt><trkpt lat="43.4982891" lon="12.2948523"><ele>543.8571428571429</ele><time>2026-04-18T08:43:12.945Z</time></trkpt><trkpt lat="43.498341" lon="12.2949158"><ele>544.5714285714286</ele><time>2026-04-18T08:43:13.946Z</time></trkpt><trkpt lat="43.4983885" lon="12.2949773"><ele>545.2857142857143</ele><time>2026-04-18T08:43:14.945Z</time></trkpt><trkpt lat="43.4984145" lon="12.2950689"><ele>546.0</ele><time>2026-04-18T08:43:15.945Z</time></trkpt><trkpt lat="43.4984548" lon="12.2951482"><ele>546.0</ele><time>2026-04-18T08:43:16.946Z</time></trkpt><trkpt lat="43.4984935" lon="12.2952292"><ele>546.0</ele><time>2026-04-18T08:43:17.945Z</time></trkpt><trkpt lat="43.4985357" lon="12.2953348"><ele>546.0</ele><time>2026-04-18T08:43:18.947Z</time></trkpt><trkpt lat="43.4985839" lon="12.2954743"><ele>546.0</ele><time>2026-04-18T08:43:20.946Z</time></trkpt><trkpt lat="43.4986533" lon="12.2956101"><ele>546.0</ele><time>2026-04-18T08:43:22.946Z</time></trkpt><trkpt lat="43.4986717" lon="12.2956963"><ele>545.6</ele><time>2026-04-18T08:43:23.947Z</time></trkpt><trkpt lat="43.498777" lon="12.295796"><ele>545.2</ele><time>2026-04-18T08:43:24.946Z</time></trkpt><trkpt lat="43.4987706" lon="12.2959048"><ele>544.8</ele><time>2026-04-18T08:43:26.945Z</time></trkpt><trkpt lat="43.4987879" lon="12.2960529"><ele>544.4</ele><time>2026-04-18T08:43:28.946Z</time></trkpt><trkpt lat="43.4988145" lon="12.2961851"><ele>544.0</ele><time>2026-04-18T08:43:30.945Z</time></trkpt><trkpt lat="43.4988611" lon="12.2963066"><ele>545.4</ele><time>2026-04-18T08:43:32.946Z</time></trkpt><trkpt lat="43.498932" lon="12.296448"><ele>546.8</ele><time>2026-04-18T08:43:34.945Z</time></trkpt><trkpt lat="43.4989785" lon="12.2965439"><ele>548.2</ele><time>2026-04-18T08:43:35.945Z</time></trkpt><trkpt lat="43.4990295" lon="12.2966263"><ele>549.6</ele><time>2026-04-18T08:43:36.947Z</time></trkpt><trkpt lat="43.4990855" lon="12.2967233"><ele>551.0</ele><time>2026-04-18T08:43:37.946Z</time></trkpt><trkpt lat="43.4991945" lon="12.296875"><ele>551.0</ele><time>2026-04-18T08:43:39.947Z</time></trkpt><trkpt lat="43.4992454" lon="12.2969627"><ele>551.0</ele><time>2026-04-18T08:43:40.946Z</time></trkpt><trkpt lat="43.4993004" lon="12.297053"><ele>551.0</ele><time>2026-04-18T08:43:41.946Z</time></trkpt><trkpt lat="43.4993591" lon="12.2971535"><ele>551.0</ele><time>2026-04-18T08:43:42.945Z</time></trkpt><trkpt lat="43.4994161" lon="12.2972496"><ele>551.0</ele><time>2026-04-18T08:43:43.947Z</time></trkpt><trkpt lat="43.4994645" lon="12.2973061"><ele>551.0</ele><time>2026-04-18T08:43:44.946Z</time></trkpt><trkpt lat="43.4995046" lon="12.2973884"><ele>551.0</ele><time>2026-04-18T08:43:45.947Z</time></trkpt><trkpt lat="43.4995751" lon="12.2975308"><ele>551.0</ele><time>2026-04-18T08:43:46.946Z</time></trkpt><trkpt lat="43.4996261" lon="12.2976368"><ele>551.0</ele><time>2026-04-18T08:43:47.945Z</time></trkpt><trkpt lat="43.4996603" lon="12.2977252"><ele>551.0</ele><time>2026-04-18T08:43:48.946Z</time></trkpt><trkpt lat="43.4997141" lon="12.2978283"><ele>551.0</ele><time>2026-04-18T08:43:49.946Z</time></trkpt><trkpt lat="43.4997509" lon="12.297922"><ele>551.0</ele><time>2026-04-18T08:43:50.946Z</time></trkpt><trkpt lat="43.4998248" lon="12.2980731"><ele>551.0</ele><time>2026-04-18T08:43:52.947Z</time></trkpt><trkpt lat="43.4998872" lon="12.2980375"><ele>551.0</ele><time>2026-04-18T08:43:53.945Z</time></trkpt><trkpt lat="43.5000206" lon="12.2981377"><ele>551.0</ele><time>2026-04-18T08:43:55.945Z</time></trkpt><trkpt lat="43.5000507" lon="12.2982985"><ele>552.6</ele><time>2026-04-18T08:43:57.946Z</time></trkpt><trkpt lat="43.50011" lon="12.2984455"><ele>554.2</ele><time>2026-04-18T08:43:59.947Z</time></trkpt><trkpt lat="43.5001382" lon="12.2986049"><ele>555.8</ele><time>2026-04-18T08:44:01.947Z</time></trkpt><trkpt lat="43.5001528" lon="12.2987343"><ele>557.4</ele><time>2026-04-18T08:44:03.946Z</time></trkpt><trkpt lat="43.5002022" lon="12.2988555"><ele>559.0</ele><time>2026-04-18T08:44:04.946Z</time></trkpt><trkpt lat="43.5002416" lon="12.2989826"><ele>559.6</ele><time>2026-04-18T08:44:05.945Z</time></trkpt><trkpt lat="43.5002656" lon="12.2990638"><ele>560.2</ele><time>2026-04-18T08:44:06.946Z</time></trkpt><trkpt lat="43.5003257" lon="12.299182"><ele>560.8000000000001</ele><time>2026-04-18T08:44:08.946Z</time></trkpt><trkpt lat="43.5003865" lon="12.2993411"><ele>561.4</ele><time>2026-04-18T08:44:10.946Z</time></trkpt><trkpt lat="43.5004684" lon="12.2994939"><ele>562.0</ele><time>2026-04-18T08:44:12.947Z</time></trkpt><trkpt lat="43.500522" lon="12.2996438"><ele>564.0</ele><time>2026-04-18T08:44:14.947Z</time></trkpt><trkpt lat="43.500569" lon="12.2997573"><ele>566.0</ele><time>2026-04-18T08:44:15.946Z</time></trkpt><trkpt lat="43.5005897" lon="12.299861"><ele>568.0</ele><time>2026-04-18T08:44:16.947Z</time></trkpt><trkpt lat="43.5006088" lon="12.3000066"><ele>570.0</ele><time>2026-04-18T08:44:18.945Z</time></trkpt><trkpt lat="43.5006342" lon="12.3000999"><ele>572.0</ele><time>2026-04-18T08:44:19.947Z</time></trkpt><trkpt lat="43.5007281" lon="12.3002159"><ele>571.9999999999999</ele><time>2026-04-18T08:44:21.946Z</time></trkpt><trkpt lat="43.5007977" lon="12.3002631"><ele>572.0</ele><time>2026-04-18T08:44:23.945Z</time></trkpt><trkpt lat="43.5008473" lon="12.3003249"><ele>572.0</ele><time>2026-04-18T08:44:25.946Z</time></trkpt><trkpt lat="43.50091" lon="12.3004192"><ele>572.0</ele><time>2026-04-18T08:44:27.947Z</time></trkpt><trkpt lat="43.5009343" lon="12.3005264"><ele>572.0</ele><time>2026-04-18T08:44:29.945Z</time></trkpt><trkpt lat="43.5009713" lon="12.3005985"><ele>571.9999999999999</ele><time>2026-04-18T08:44:30.945Z</time></trkpt><trkpt lat="43.5010166" lon="12.3006638"><ele>572.0</ele><time>2026-04-18T08:44:31.945Z</time></trkpt><trkpt lat="43.5010751" lon="12.3007664"><ele>571.8571428571428</ele><time>2026-04-18T08:44:33.946Z</time></trkpt><trkpt lat="43.5011446" lon="12.300787"><ele>571.7142857142857</ele><time>2026-04-18T08:44:35.946Z</time></trkpt><trkpt lat="43.5012133" lon="12.300755"><ele>571.5714285714286</ele><time>2026-04-18T08:44:37.947Z</time></trkpt><trkpt lat="43.5012747" lon="12.3008049"><ele>571.4285714285713</ele><time>2026-04-18T08:44:40.947Z</time></trkpt><trkpt lat="43.5013154" lon="12.300885"><ele>571.2857142857142</ele><time>2026-04-18T08:44:42.947Z</time></trkpt><trkpt lat="43.5013839" lon="12.3009455"><ele>571.1428571428571</ele><time>2026-04-18T08:44:44.946Z</time></trkpt><trkpt lat="43.501453" lon="12.3009787"><ele>571.0</ele><time>2026-04-18T08:44:47.947Z</time></trkpt><trkpt lat="43.5015175" lon="12.3010747"><ele>570.5</ele><time>2026-04-18T08:44:50.946Z</time></trkpt><trkpt lat="43.5015775" lon="12.3011474"><ele>570.0</ele><time>2026-04-18T08:44:52.945Z</time></trkpt><trkpt lat="43.5016383" lon="12.3012412"><ele>569.5</ele><time>2026-04-18T08:44:54.946Z</time></trkpt><trkpt lat="43.5016666" lon="12.3013338"><ele>569.0</ele><time>2026-04-18T08:44:55.946Z</time></trkpt><trkpt lat="43.5017206" lon="12.3014083"><ele>568.5</ele><time>2026-04-18T08:44:56.946Z</time></trkpt><trkpt lat="43.5017604" lon="12.3014866"><ele>568.0</ele><time>2026-04-18T08:44:57.946Z</time></trkpt><trkpt lat="43.501824" lon="12.301587"><ele>568.0</ele><time>2026-04-18T08:44:58.945Z</time></trkpt><trkpt lat="43.5018676" lon="12.3016591"><ele>568.0</ele><time>2026-04-18T08:44:59.945Z</time></trkpt><trkpt lat="43.501918" lon="12.3017436"><ele>568.0</ele><time>2026-04-18T08:45:00.946Z</time></trkpt><trkpt lat="43.5019678" lon="12.3018225"><ele>568.0</ele><time>2026-04-18T08:45:01.947Z</time></trkpt><trkpt lat="43.5020175" lon="12.3019011"><ele>568.0</ele><time>2026-04-18T08:45:02.946Z</time></trkpt><trkpt lat="43.5021854" lon="12.3019484"><ele>567.3333333333334</ele><time>2026-04-18T08:45:05.945Z</time></trkpt><trkpt lat="43.5022565" lon="12.3020127"><ele>566.6666666666667</ele><time>2026-04-18T08:45:08.945Z</time></trkpt><trkpt lat="43.5022925" lon="12.3021017"><ele>566.0</ele><time>2026-04-18T08:45:11.946Z</time></trkpt><trkpt lat="43.502369" lon="12.3020718"><ele>565.3333333333334</ele><time>2026-04-18T08:45:13.945Z</time></trkpt><trkpt lat="43.5024416" lon="12.3020829"><ele>564.6666666666666</ele><time>2026-04-18T08:45:15.945Z</time></trkpt><trkpt lat="43.5025239" lon="12.3022026"><ele>564.0</ele><time>2026-04-18T08:45:16.946Z</time></trkpt><trkpt lat="43.5026236" lon="12.3022657"><ele>564.0</ele><time>2026-04-18T08:45:18.946Z</time></trkpt><trkpt lat="43.5027138" lon="12.3024185"><ele>564.0</ele><time>2026-04-18T08:45:20.947Z</time></trkpt><trkpt lat="43.5027838" lon="12.3024873"><ele>564.0</ele><time>2026-04-18T08:45:22.946Z</time></trkpt><trkpt lat="43.5028766" lon="12.3025659"><ele>564.0</ele><time>2026-04-18T08:45:24.947Z</time></trkpt><trkpt lat="43.5029489" lon="12.3026819"><ele>564.0</ele><time>2026-04-18T08:45:26.946Z</time></trkpt><trkpt lat="43.5030179" lon="12.3027607"><ele>562.3333333333334</ele><time>2026-04-18T08:45:27.945Z</time></trkpt><trkpt lat="43.5030703" lon="12.3028128"><ele>560.6666666666666</ele><time>2026-04-18T08:45:28.946Z</time></trkpt><trkpt lat="43.503141" lon="12.302908"><ele>559.0</ele><time>2026-04-18T08:45:30.947Z</time></trkpt><trkpt lat="43.5031733" lon="12.3030024"><ele>557.3333333333333</ele><time>2026-04-18T08:45:32.946Z</time></trkpt><trkpt lat="43.5031862" lon="12.3030874"><ele>555.6666666666666</ele><time>2026-04-18T08:45:34.946Z</time></trkpt><trkpt lat="43.5031471" lon="12.3031947"><ele>554.0</ele><time>2026-04-18T08:45:37.946Z</time></trkpt><trkpt lat="43.5031103" lon="12.3032684"><ele>553.0</ele><time>2026-04-18T08:45:40.946Z</time></trkpt><trkpt lat="43.5030988" lon="12.3033784"><ele>552.0</ele><time>2026-04-18T08:45:44.945Z</time></trkpt><trkpt lat="43.5031013" lon="12.3034706"><ele>551.0</ele><time>2026-04-18T08:45:46.945Z</time></trkpt><trkpt lat="43.5031095" lon="12.3035808"><ele>550.0</ele><time>2026-04-18T08:45:48.945Z</time></trkpt><trkpt lat="43.503138" lon="12.3037325"><ele>549.0</ele><time>2026-04-18T08:45:50.946Z</time></trkpt><trkpt lat="43.5031696" lon="12.3038132"><ele>548.0</ele><time>2026-04-18T08:45:52.946Z</time></trkpt><trkpt lat="43.5032196" lon="12.3038786"><ele>546.1999999999999</ele><time>2026-04-18T08:45:54.946Z</time></trkpt><trkpt lat="43.5032753" lon="12.3039673"><ele>544.4</ele><time>2026-04-18T08:45:56.945Z</time></trkpt><trkpt lat="43.5033508" lon="12.3041345"><ele>542.5999999999999</ele><time>2026-04-18T08:45:58.946Z</time></trkpt><trkpt lat="43.5033887" lon="12.3042394"><ele>540.8</ele><time>2026-04-18T08:45:59.946Z</time></trkpt><trkpt lat="43.5034319" lon="12.3043581"><ele>539.0</ele><time>2026-04-18T08:46:00.946Z</time></trkpt><trkpt lat="43.5034685" lon="12.3044441"><ele>539.0</ele><time>2026-04-18T08:46:01.946Z</time></trkpt><trkpt lat="43.5035154" lon="12.304538"><ele>539.0</ele><time>2026-04-18T08:46:02.947Z</time></trkpt><trkpt lat="43.503561" lon="12.304631"><ele>539.0</ele><time>2026-04-18T08:46:03.947Z</time></trkpt><trkpt lat="43.5036013" lon="12.3047331"><ele>539.0</ele><time>2026-04-18T08:46:04.946Z</time></trkpt><trkpt lat="43.5036419" lon="12.3048312"><ele>539.0</ele><time>2026-04-18T08:46:05.946Z</time></trkpt><trkpt lat="43.5036826" lon="12.3049226"><ele>539.0</ele><time>2026-04-18T08:46:06.946Z</time></trkpt><trkpt lat="43.5037182" lon="12.3050138"><ele>539.4285714285714</ele><time>2026-04-18T08:46:07.946Z</time></trkpt><trkpt lat="43.5037513" lon="12.3050961"><ele>539.8571428571429</ele><time>2026-04-18T08:46:08.945Z</time></trkpt><trkpt lat="43.5037845" lon="12.305176"><ele>540.2857142857142</ele><time>2026-04-18T08:46:09.946Z</time></trkpt><trkpt lat="43.5038155" lon="12.3052631"><ele>540.7142857142858</ele><time>2026-04-18T08:46:10.947Z</time></trkpt><trkpt lat="43.5038451" lon="12.3053488"><ele>541.1428571428571</ele><time>2026-04-18T08:46:11.946Z</time></trkpt><trkpt lat="43.5038713" lon="12.3054348"><ele>541.5714285714286</ele><time>2026-04-18T08:46:12.945Z</time></trkpt><trkpt lat="43.5038928" lon="12.3055265"><ele>542.0</ele><time>2026-04-18T08:46:13.945Z</time></trkpt><trkpt lat="43.5039024" lon="12.3056235"><ele>542.0</ele><time>2026-04-18T08:46:14.946Z</time></trkpt><trkpt lat="43.5039157" lon="12.3057263"><ele>542.0</ele><time>2026-04-18T08:46:15.947Z</time></trkpt><trkpt lat="43.5039274" lon="12.3058238"><ele>542.0</ele><time>2026-04-18T08:46:16.945Z</time></trkpt><trkpt lat="43.5039288" lon="12.3059642"><ele>542.0</ele><time>2026-04-18T08:46:17.946Z</time></trkpt><trkpt lat="43.503938" lon="12.3060651"><ele>542.0</ele><time>2026-04-18T08:46:18.947Z</time></trkpt><trkpt lat="43.5039404" lon="12.306161"><ele>542.0</ele><time>2026-04-18T08:46:19.946Z</time></trkpt><trkpt lat="43.5039462" lon="12.3063121"><ele>542.0</ele><time>2026-04-18T08:46:21.947Z</time></trkpt><trkpt lat="43.5038895" lon="12.3063726"><ele>542.0</ele><time>2026-04-18T08:46:23.945Z</time></trkpt><trkpt lat="43.503815" lon="12.3063691"><ele>542.0</ele><time>2026-04-18T08:46:25.946Z</time></trkpt><trkpt lat="43.5037262" lon="12.3063631"><ele>542.0</ele><time>2026-04-18T08:46:27.947Z</time></trkpt><trkpt lat="43.5036445" lon="12.3063421"><ele>542.0</ele><time>2026-04-18T08:46:29.946Z</time></trkpt><trkpt lat="43.503559" lon="12.3063859"><ele>542.0</ele><time>2026-04-18T08:46:31.947Z</time></trkpt><trkpt lat="43.5035428" lon="12.306504"><ele>542.1666666666666</ele><time>2026-04-18T08:46:34.945Z</time></trkpt><trkpt lat="43.5035252" lon="12.3065942"><ele>542.3333333333333</ele><time>2026-04-18T08:46:35.947Z</time></trkpt><trkpt lat="43.5035172" lon="12.3066938"><ele>542.5</ele><time>2026-04-18T08:46:38.945Z</time></trkpt><trkpt lat="43.5034809" lon="12.3068495"><ele>542.6666666666666</ele><time>2026-04-18T08:46:40.946Z</time></trkpt><trkpt lat="43.5034563" lon="12.3069318"><ele>542.8333333333334</ele><time>2026-04-18T08:46:41.947Z</time></trkpt><trkpt lat="43.5034286" lon="12.3070157"><ele>543.0</ele><time>2026-04-18T08:46:42.946Z</time></trkpt><trkpt lat="43.5033979" lon="12.3071003"><ele>543.0</ele><time>2026-04-18T08:46:43.946Z</time></trkpt><trkpt lat="43.5033672" lon="12.3071908"><ele>543.0</ele><time>2026-04-18T08:46:44.946Z</time></trkpt><trkpt lat="43.5033359" lon="12.307278"><ele>543.0</ele><time>2026-04-18T08:46:45.947Z</time></trkpt><trkpt lat="43.5033052" lon="12.3073694"><ele>543.0</ele><time>2026-04-18T08:46:46.946Z</time></trkpt><trkpt lat="43.5032763" lon="12.3074623"><ele>543.0</ele><time>2026-04-18T08:46:47.947Z</time></trkpt><trkpt lat="43.5032479" lon="12.3075526"><ele>543.0</ele><time>2026-04-18T08:46:48.945Z</time></trkpt><trkpt lat="43.5032176" lon="12.3076443"><ele>543.0</ele><time>2026-04-18T08:46:49.945Z</time></trkpt><trkpt lat="43.5031849" lon="12.3077289"><ele>542.1666666666666</ele><time>2026-04-18T08:46:50.946Z</time></trkpt><trkpt lat="43.5031573" lon="12.3078115"><ele>541.3333333333334</ele><time>2026-04-18T08:46:51.946Z</time></trkpt><trkpt lat="43.5031086" lon="12.3079429"><ele>540.5</ele><time>2026-04-18T08:46:53.946Z</time></trkpt><trkpt lat="43.5030659" lon="12.3080644"><ele>539.6666666666667</ele><time>2026-04-18T08:46:55.945Z</time></trkpt><trkpt lat="43.5030301" lon="12.308175"><ele>538.8333333333334</ele><time>2026-04-18T08:46:57.946Z</time></trkpt><trkpt lat="43.5029943" lon="12.3082854"><ele>538.0</ele><time>2026-04-18T08:46:59.947Z</time></trkpt><trkpt lat="43.5029408" lon="12.3083635"><ele>534.0</ele><time>2026-04-18T08:47:01.945Z</time></trkpt><trkpt lat="43.5028488" lon="12.3084057"><ele>530.0</ele><time>2026-04-18T08:47:03.946Z</time></trkpt><trkpt lat="43.5027414" lon="12.3084245"><ele>526.0</ele><time>2026-04-18T08:47:05.946Z</time></trkpt><trkpt lat="43.5026291" lon="12.3084363"><ele>522.0</ele><time>2026-04-18T08:47:07.946Z</time></trkpt><trkpt lat="43.5025635" lon="12.308455"><ele>518.0</ele><time>2026-04-18T08:47:08.945Z</time></trkpt><trkpt lat="43.5024974" lon="12.3084636"><ele>518.0</ele><time>2026-04-18T08:47:09.947Z</time></trkpt><trkpt lat="43.5024333" lon="12.3084641"><ele>518.0</ele><time>2026-04-18T08:47:10.946Z</time></trkpt><trkpt lat="43.5023301" lon="12.3084526"><ele>518.0</ele><time>2026-04-18T08:47:12.947Z</time></trkpt><trkpt lat="43.5022349" lon="12.3084549"><ele>518.0</ele><time>2026-04-18T08:47:14.946Z</time></trkpt><trkpt lat="43.5021361" lon="12.3084559"><ele>518.0</ele><time>2026-04-18T08:47:16.946Z</time></trkpt><trkpt lat="43.5020318" lon="12.3084588"><ele>516.8</ele><time>2026-04-18T08:47:18.947Z</time></trkpt><trkpt lat="43.5019285" lon="12.3084584"><ele>515.5999999999999</ele><time>2026-04-18T08:47:20.946Z</time></trkpt><trkpt lat="43.5018195" lon="12.3084617"><ele>514.4000000000001</ele><time>2026-04-18T08:47:22.946Z</time></trkpt><trkpt lat="43.5017068" lon="12.3084733"><ele>513.2</ele><time>2026-04-18T08:47:24.946Z</time></trkpt><trkpt lat="43.5016057" lon="12.3084725"><ele>512.0</ele><time>2026-04-18T08:47:26.946Z</time></trkpt><trkpt lat="43.5015196" lon="12.3084712"><ele>512.0</ele><time>2026-04-18T08:47:28.947Z</time></trkpt><trkpt lat="43.5014306" lon="12.3085166"><ele>512.0</ele><time>2026-04-18T08:47:30.946Z</time></trkpt><trkpt lat="43.5013547" lon="12.3086024"><ele>512.0</ele><time>2026-04-18T08:47:32.945Z</time></trkpt><trkpt lat="43.5012584" lon="12.3086731"><ele>512.0</ele><time>2026-04-18T08:47:34.946Z</time></trkpt><trkpt lat="43.5011445" lon="12.3087166"><ele>512.0</ele><time>2026-04-18T08:47:36.945Z</time></trkpt><trkpt lat="43.5010587" lon="12.3087567"><ele>511.49999999999994</ele><time>2026-04-18T08:47:38.946Z</time></trkpt><trkpt lat="43.5009904" lon="12.3087694"><ele>511.0</ele><time>2026-04-18T08:47:40.946Z</time></trkpt><trkpt lat="43.5009322" lon="12.3088263"><ele>510.5</ele><time>2026-04-18T08:47:42.947Z</time></trkpt><trkpt lat="43.5008525" lon="12.3088286"><ele>510.0</ele><time>2026-04-18T08:47:44.946Z</time></trkpt><trkpt lat="43.5007818" lon="12.3087883"><ele>509.49999999999994</ele><time>2026-04-18T08:47:46.947Z</time></trkpt><trkpt lat="43.500709" lon="12.3087174"><ele>509.0</ele><time>2026-04-18T08:47:48.946Z</time></trkpt><trkpt lat="43.5006571" lon="12.3086197"><ele>508.99999999999994</ele><time>2026-04-18T08:47:50.945Z</time></trkpt><trkpt lat="43.5006152" lon="12.3085052"><ele>509.0</ele><time>2026-04-18T08:47:52.946Z</time></trkpt><trkpt lat="43.5005968" lon="12.3083951"><ele>509.0</ele><time>2026-04-18T08:47:54.946Z</time></trkpt><trkpt lat="43.5005677" lon="12.3082868"><ele>509.0</ele><time>2026-04-18T08:47:56.946Z</time></trkpt><trkpt lat="43.5005533" lon="12.3081943"><ele>508.99999999999994</ele><time>2026-04-18T08:47:58.947Z</time></trkpt><trkpt lat="43.5005231" lon="12.3080743"><ele>509.0</ele><time>2026-04-18T08:48:01.945Z</time></trkpt><trkpt lat="43.500436" lon="12.3080294"><ele>505.71428571428567</ele><time>2026-04-18T08:48:04.946Z</time></trkpt><trkpt lat="43.500373" lon="12.3080724"><ele>502.42857142857144</ele><time>2026-04-18T08:48:06.946Z</time></trkpt><trkpt lat="43.500321" lon="12.3081662"><ele>499.1428571428571</ele><time>2026-04-18T08:48:08.945Z</time></trkpt><trkpt lat="43.5002945" lon="12.3082486"><ele>495.85714285714283</ele><time>2026-04-18T08:48:10.946Z</time></trkpt><trkpt lat="43.5002929" lon="12.3083411"><ele>492.57142857142856</ele><time>2026-04-18T08:48:12.946Z</time></trkpt><trkpt lat="43.5003018" lon="12.3084311"><ele>489.2857142857143</ele><time>2026-04-18T08:48:14.947Z</time></trkpt><trkpt lat="43.5002773" lon="12.3085538"><ele>486.0</ele><time>2026-04-18T08:48:16.946Z</time></trkpt><trkpt lat="43.5002585" lon="12.3086918"><ele>486.0</ele><time>2026-04-18T08:48:18.947Z</time></trkpt><trkpt lat="43.5002349" lon="12.3087891"><ele>486.0</ele><time>2026-04-18T08:48:20.946Z</time></trkpt><trkpt lat="43.5002012" lon="12.3088675"><ele>486.0</ele><time>2026-04-18T08:51:26.947Z</time></trkpt><trkpt lat="43.5001283" lon="12.3088867"><ele>486.0</ele><time>2026-04-18T08:51:30.947Z</time></trkpt><trkpt lat="43.5000911" lon="12.3088152"><ele>486.0</ele><time>2026-04-18T08:51:34.946Z</time></trkpt><trkpt lat="43.5000943" lon="12.3086792"><ele>486.0</ele><time>2026-04-18T08:51:36.947Z</time></trkpt><trkpt lat="43.4999961" lon="12.3085574"><ele>486.0</ele><time>2026-04-18T08:51:38.946Z</time></trkpt><trkpt lat="43.499926" lon="12.308448"><ele>486.0</ele><time>2026-04-18T08:51:39.946Z</time></trkpt><trkpt lat="43.4998844" lon="12.3083722"><ele>486.0</ele><time>2026-04-18T08:51:40.945Z</time></trkpt><trkpt lat="43.4998045" lon="12.3083136"><ele>486.0</ele><time>2026-04-18T08:51:42.946Z</time></trkpt><trkpt lat="43.499734" lon="12.3082159"><ele>486.0</ele><time>2026-04-18T08:51:44.947Z</time></trkpt><trkpt lat="43.4996668" lon="12.3081226"><ele>485.0</ele><time>2026-04-18T08:51:46.945Z</time></trkpt><trkpt lat="43.4995881" lon="12.3079824"><ele>484.0</ele><time>2026-04-18T08:51:48.945Z</time></trkpt><trkpt lat="43.4995227" lon="12.3079289"><ele>483.0</ele><time>2026-04-18T08:51:50.945Z</time></trkpt><trkpt lat="43.4994803" lon="12.3078568"><ele>482.0</ele><time>2026-04-18T08:51:54.945Z</time></trkpt><trkpt lat="43.4994166" lon="12.30781"><ele>481.0</ele><time>2026-04-18T08:51:57.946Z</time></trkpt><trkpt lat="43.4993433" lon="12.307799"><ele>480.0</ele><time>2026-04-18T08:52:00.946Z</time></trkpt><trkpt lat="43.4992673" lon="12.3078098"><ele>477.8</ele><time>2026-04-18T08:52:03.947Z</time></trkpt><trkpt lat="43.4991925" lon="12.3077692"><ele>475.6</ele><time>2026-04-18T08:52:09.946Z</time></trkpt><trkpt lat="43.4990926" lon="12.3077371"><ele>473.4</ele><time>2026-04-18T08:52:14.946Z</time></trkpt><trkpt lat="43.4990097" lon="12.3077037"><ele>471.2</ele><time>2026-04-18T08:52:17.946Z</time></trkpt><trkpt lat="43.4989166" lon="12.3076796"><ele>469.0</ele><time>2026-04-18T08:52:19.946Z</time></trkpt><trkpt lat="43.4988042" lon="12.3076746"><ele>469.0</ele><time>2026-04-18T08:52:21.945Z</time></trkpt><trkpt lat="43.4986996" lon="12.3076491"><ele>469.0</ele><time>2026-04-18T08:52:23.945Z</time></trkpt><trkpt lat="43.4986141" lon="12.3076216"><ele>469.0</ele><time>2026-04-18T08:52:25.946Z</time></trkpt><trkpt lat="43.4985516" lon="12.307681"><ele>469.0</ele><time>2026-04-18T08:52:28.946Z</time></trkpt><trkpt lat="43.4983741" lon="12.3077601"><ele>469.0</ele><time>2026-04-18T08:52:30.946Z</time></trkpt><trkpt lat="43.4982005" lon="12.3078058"><ele>469.0</ele><time>2026-04-18T08:52:32.945Z</time></trkpt><trkpt lat="43.4981082" lon="12.3078197"><ele>469.0</ele><time>2026-04-18T08:52:33.947Z</time></trkpt><trkpt lat="43.4980501" lon="12.3077852"><ele>469.0</ele><time>2026-04-18T08:52:34.945Z</time></trkpt><trkpt lat="43.4979508" lon="12.3077361"><ele>469.0</ele><time>2026-04-18T08:52:36.946Z</time></trkpt><trkpt lat="43.4978563" lon="12.30772"><ele>467.79999999999995</ele><time>2026-04-18T08:52:38.945Z</time></trkpt><trkpt lat="43.4977923" lon="12.3077871"><ele>466.59999999999997</ele><time>2026-04-18T08:52:41.946Z</time></trkpt><trkpt lat="43.497728" lon="12.3078414"><ele>465.4</ele><time>2026-04-18T08:52:43.945Z</time></trkpt><trkpt lat="43.4976354" lon="12.3078812"><ele>464.2</ele><time>2026-04-18T08:52:45.946Z</time></trkpt><trkpt lat="43.4974707" lon="12.307861"><ele>463.0</ele><time>2026-04-18T08:52:46.945Z</time></trkpt><trkpt lat="43.49738" lon="12.3078503"><ele>463.0</ele><time>2026-04-18T08:52:47.946Z</time></trkpt><trkpt lat="43.4972643" lon="12.3078057"><ele>462.99999999999994</ele><time>2026-04-18T08:52:49.946Z</time></trkpt><trkpt lat="43.4971544" lon="12.307782"><ele>462.99999999999994</ele><time>2026-04-18T08:52:51.947Z</time></trkpt><trkpt lat="43.4970676" lon="12.3078226"><ele>463.0</ele><time>2026-04-18T08:52:53.946Z</time></trkpt><trkpt lat="43.4970161" lon="12.3078728"><ele>463.0</ele><time>2026-04-18T08:52:54.946Z</time></trkpt><trkpt lat="43.4969251" lon="12.3079138"><ele>463.0</ele><time>2026-04-18T08:52:57.945Z</time></trkpt><trkpt lat="43.4968427" lon="12.307944"><ele>462.99999999999994</ele><time>2026-04-18T08:52:59.946Z</time></trkpt><trkpt lat="43.4967067" lon="12.3080232"><ele>462.99999999999994</ele><time>2026-04-18T08:53:01.947Z</time></trkpt><trkpt lat="43.49661" lon="12.3080775"><ele>463.0</ele><time>2026-04-18T08:53:03.947Z</time></trkpt><trkpt lat="43.4965384" lon="12.3081179"><ele>463.0</ele><time>2026-04-18T08:53:04.946Z</time></trkpt><trkpt lat="43.4964466" lon="12.3081807"><ele>463.00000000000006</ele><time>2026-04-18T08:53:06.946Z</time></trkpt><trkpt lat="43.4963795" lon="12.3082355"><ele>463.0</ele><time>2026-04-18T08:53:08.945Z</time></trkpt><trkpt lat="43.4963249" lon="12.3083088"><ele>463.0</ele><time>2026-04-18T08:53:09.946Z</time></trkpt><trkpt lat="43.496226" lon="12.3083975"><ele>463.0</ele><time>2026-04-18T08:53:11.947Z</time></trkpt><trkpt lat="43.4961819" lon="12.3084615"><ele>463.00000000000006</ele><time>2026-04-18T08:53:12.946Z</time></trkpt><trkpt lat="43.496128" lon="12.3085149"><ele>463.0</ele><time>2026-04-18T08:53:13.946Z</time></trkpt><trkpt lat="43.4960804" lon="12.3085883"><ele>463.79999999999995</ele><time>2026-04-18T08:53:14.946Z</time></trkpt><trkpt lat="43.4960309" lon="12.3086947"><ele>464.59999999999997</ele><time>2026-04-18T08:53:15.945Z</time></trkpt><trkpt lat="43.4959915" lon="12.3087691"><ele>465.40000000000003</ele><time>2026-04-18T08:53:16.945Z</time></trkpt><trkpt lat="43.4959228" lon="12.3088868"><ele>466.20000000000005</ele><time>2026-04-18T08:53:18.946Z</time></trkpt><trkpt lat="43.4958873" lon="12.3089942"><ele>467.0</ele><time>2026-04-18T08:53:19.945Z</time></trkpt><trkpt lat="43.4958379" lon="12.3091593"><ele>468.3333333333333</ele><time>2026-04-18T08:53:21.946Z</time></trkpt><trkpt lat="43.4958337" lon="12.309256"><ele>469.66666666666663</ele><time>2026-04-18T08:53:23.945Z</time></trkpt><trkpt lat="43.4957706" lon="12.3092759"><ele>471.0</ele><time>2026-04-18T08:53:25.945Z</time></trkpt><trkpt lat="43.4957341" lon="12.3093813"><ele>472.33333333333337</ele><time>2026-04-18T08:53:27.945Z</time></trkpt><trkpt lat="43.4957097" lon="12.3094892"><ele>473.6666666666667</ele><time>2026-04-18T08:53:29.946Z</time></trkpt><trkpt lat="43.4956578" lon="12.3095751"><ele>475.0</ele><time>2026-04-18T08:53:31.945Z</time></trkpt><trkpt lat="43.4955966" lon="12.3096119"><ele>475.00000000000006</ele><time>2026-04-18T08:53:33.946Z</time></trkpt><trkpt lat="43.495542" lon="12.3096654"><ele>475.0</ele><time>2026-04-18T08:53:35.947Z</time></trkpt><trkpt lat="43.4955099" lon="12.3097684"><ele>475.0</ele><time>2026-04-18T08:53:38.946Z</time></trkpt><trkpt lat="43.495495" lon="12.3098684"><ele>475.0</ele><time>2026-04-18T08:53:42.945Z</time></trkpt><trkpt lat="43.4954087" lon="12.3099204"><ele>475.00000000000006</ele><time>2026-04-18T08:53:49.945Z</time></trkpt><trkpt lat="43.4953246" lon="12.3099219"><ele>475.0</ele><time>2026-04-18T08:53:52.946Z</time></trkpt><trkpt lat="43.4952575" lon="12.3099057"><ele>477.6</ele><time>2026-04-18T08:53:56.946Z</time></trkpt><trkpt lat="43.4951796" lon="12.3099103"><ele>480.2</ele><time>2026-04-18T08:53:59.945Z</time></trkpt><trkpt lat="43.4951051" lon="12.3099771"><ele>482.79999999999995</ele><time>2026-04-18T08:54:02.947Z</time></trkpt><trkpt lat="43.4949782" lon="12.3100743"><ele>485.4</ele><time>2026-04-18T08:54:05.946Z</time></trkpt><trkpt lat="43.4948619" lon="12.3101368"><ele>488.0</ele><time>2026-04-18T08:54:07.946Z</time></trkpt><trkpt lat="43.49477" lon="12.3101034"><ele>487.99999999999994</ele><time>2026-04-18T08:54:09.945Z</time></trkpt><trkpt lat="43.494682" lon="12.3100867"><ele>488.0</ele><time>2026-04-18T08:54:12.946Z</time></trkpt><trkpt lat="43.4946008" lon="12.3100326"><ele>488.0</ele><time>2026-04-18T08:54:14.946Z</time></trkpt><trkpt lat="43.4945206" lon="12.3099949"><ele>488.0</ele><time>2026-04-18T08:54:16.946Z</time></trkpt><trkpt lat="43.4944395" lon="12.3099658"><ele>487.99999999999994</ele><time>2026-04-18T08:54:18.945Z</time></trkpt><trkpt lat="43.4943733" lon="12.3099366"><ele>488.0</ele><time>2026-04-18T08:54:20.946Z</time></trkpt><trkpt lat="43.4942953" lon="12.3099207"><ele>489.66666666666663</ele><time>2026-04-18T08:54:22.946Z</time></trkpt><trkpt lat="43.4942245" lon="12.3098877"><ele>491.3333333333333</ele><time>2026-04-18T08:54:24.946Z</time></trkpt><trkpt lat="43.4941384" lon="12.309903"><ele>493.0</ele><time>2026-04-18T08:54:25.946Z</time></trkpt><trkpt lat="43.4940405" lon="12.3099731"><ele>494.66666666666663</ele><time>2026-04-18T08:54:27.945Z</time></trkpt><trkpt lat="43.4939711" lon="12.3100471"><ele>496.3333333333333</ele><time>2026-04-18T08:54:29.946Z</time></trkpt><trkpt lat="43.4939054" lon="12.3101052"><ele>498.0</ele><time>2026-04-18T08:54:30.946Z</time></trkpt><trkpt lat="43.4938402" lon="12.3101548"><ele>498.0</ele><time>2026-04-18T08:54:32.946Z</time></trkpt><trkpt lat="43.4937774" lon="12.3102046"><ele>498.0</ele><time>2026-04-18T08:54:34.946Z</time></trkpt><trkpt lat="43.4936927" lon="12.3102373"><ele>498.0</ele><time>2026-04-18T08:54:37.946Z</time></trkpt><trkpt lat="43.4936023" lon="12.3102536"><ele>498.0</ele><time>2026-04-18T08:54:39.947Z</time></trkpt><trkpt lat="43.4935687" lon="12.3101746"><ele>498.0</ele><time>2026-04-18T08:54:41.946Z</time></trkpt><trkpt lat="43.4935141" lon="12.3100992"><ele>498.0</ele><time>2026-04-18T08:54:44.947Z</time></trkpt><trkpt lat="43.4934562" lon="12.3100191"><ele>502.0</ele><time>2026-04-18T08:54:47.947Z</time></trkpt><trkpt lat="43.4934236" lon="12.3097518"><ele>506.0</ele><time>2026-04-18T08:54:48.945Z</time></trkpt><trkpt lat="43.4933719" lon="12.3096108"><ele>510.0</ele><time>2026-04-18T08:54:49.946Z</time></trkpt><trkpt lat="43.4933266" lon="12.3094939"><ele>514.0</ele><time>2026-04-18T08:54:50.947Z</time></trkpt><trkpt lat="43.4932842" lon="12.3093935"><ele>514.0</ele><time>2026-04-18T08:54:51.947Z</time></trkpt><trkpt lat="43.493214" lon="12.309264"><ele>514.0</ele><time>2026-04-18T08:54:53.945Z</time></trkpt><trkpt lat="43.4931668" lon="12.3091293"><ele>514.0</ele><time>2026-04-18T08:54:55.947Z</time></trkpt><trkpt lat="43.4931473" lon="12.309019"><ele>514.0</ele><time>2026-04-18T08:54:57.945Z</time></trkpt><trkpt lat="43.4931591" lon="12.3089253"><ele>514.0</ele><time>2026-04-18T08:54:59.945Z</time></trkpt><trkpt lat="43.4932069" lon="12.3088224"><ele>514.6</ele><time>2026-04-18T08:55:01.945Z</time></trkpt><trkpt lat="43.4932953" lon="12.3087626"><ele>515.2</ele><time>2026-04-18T08:55:02.946Z</time></trkpt><trkpt lat="43.4934068" lon="12.3087235"><ele>515.8000000000001</ele><time>2026-04-18T08:55:04.945Z</time></trkpt><trkpt lat="43.4935166" lon="12.3086896"><ele>516.4</ele><time>2026-04-18T08:55:06.947Z</time></trkpt><trkpt lat="43.4935938" lon="12.3086695"><ele>517.0</ele><time>2026-04-18T08:55:07.946Z</time></trkpt><trkpt lat="43.4936573" lon="12.3086122"><ele>517.0</ele><time>2026-04-18T08:55:09.945Z</time></trkpt><trkpt lat="43.4936605" lon="12.3085076"><ele>517.0</ele><time>2026-04-18T08:55:12.946Z</time></trkpt><trkpt lat="43.4935992" lon="12.3084772"><ele>517.0</ele><time>2026-04-18T08:55:14.945Z</time></trkpt><trkpt lat="43.4935275" lon="12.3084222"><ele>517.0</ele><time>2026-04-18T08:55:16.946Z</time></trkpt><trkpt lat="43.4934141" lon="12.3083662"><ele>517.0</ele><time>2026-04-18T08:55:18.946Z</time></trkpt><trkpt lat="43.4933487" lon="12.3083391"><ele>517.0</ele><time>2026-04-18T08:55:19.945Z</time></trkpt><trkpt lat="43.4932941" lon="12.308285"><ele>517.0</ele><time>2026-04-18T08:55:20.947Z</time></trkpt><trkpt lat="43.4932336" lon="12.3082516"><ele>517.0</ele><time>2026-04-18T08:55:21.947Z</time></trkpt><trkpt lat="43.4931778" lon="12.3082104"><ele>517.0</ele><time>2026-04-18T08:55:22.946Z</time></trkpt><trkpt lat="43.4930944" lon="12.3081944"><ele>517.0</ele><time>2026-04-18T08:55:23.945Z</time></trkpt><trkpt lat="43.4929638" lon="12.3081747"><ele>517.0</ele><time>2026-04-18T08:55:25.947Z</time></trkpt><trkpt lat="43.4928952" lon="12.3081893"><ele>517.0</ele><time>2026-04-18T08:55:26.946Z</time></trkpt><trkpt lat="43.4928161" lon="12.308214"><ele>519.1666666666667</ele><time>2026-04-18T08:55:27.946Z</time></trkpt><trkpt lat="43.4927389" lon="12.3082362"><ele>521.3333333333334</ele><time>2026-04-18T08:55:28.946Z</time></trkpt><trkpt lat="43.4926615" lon="12.3082532"><ele>523.5</ele><time>2026-04-18T08:55:29.945Z</time></trkpt><trkpt lat="43.4925896" lon="12.3083399"><ele>525.6666666666666</ele><time>2026-04-18T08:55:31.945Z</time></trkpt><trkpt lat="43.4925172" lon="12.3083822"><ele>527.8333333333333</ele><time>2026-04-18T08:55:33.946Z</time></trkpt><trkpt lat="43.4924172" lon="12.3083945"><ele>530.0</ele><time>2026-04-18T08:55:36.946Z</time></trkpt><trkpt lat="43.4923383" lon="12.3084068"><ele>530.0</ele><time>2026-04-18T08:55:38.945Z</time></trkpt><trkpt lat="43.4922318" lon="12.3083273"><ele>530.0</ele><time>2026-04-18T08:55:39.947Z</time></trkpt><trkpt lat="43.492168" lon="12.30829"><ele>530.0</ele><time>2026-04-18T08:55:40.947Z</time></trkpt><trkpt lat="43.4921019" lon="12.3082698"><ele>530.0</ele><time>2026-04-18T08:55:41.947Z</time></trkpt><trkpt lat="43.4920111" lon="12.3082638"><ele>530.0</ele><time>2026-04-18T08:55:42.946Z</time></trkpt><trkpt lat="43.4919469" lon="12.3082799"><ele>530.0</ele><time>2026-04-18T08:55:43.945Z</time></trkpt><trkpt lat="43.4918756" lon="12.3083219"><ele>532.0</ele><time>2026-04-18T08:55:45.947Z</time></trkpt><trkpt lat="43.4917747" lon="12.3083915"><ele>534.0</ele><time>2026-04-18T08:55:47.947Z</time></trkpt><trkpt lat="43.4916967" lon="12.3085171"><ele>536.0</ele><time>2026-04-18T08:55:49.946Z</time></trkpt><trkpt lat="43.4916464" lon="12.3085969"><ele>538.0</ele><time>2026-04-18T08:55:50.946Z</time></trkpt><trkpt lat="43.4915691" lon="12.308681"><ele>540.0</ele><time>2026-04-18T08:55:52.946Z</time></trkpt><trkpt lat="43.4914793" lon="12.3086754"><ele>540.0</ele><time>2026-04-18T08:55:54.946Z</time></trkpt><trkpt lat="43.4913854" lon="12.3086416"><ele>540.0</ele><time>2026-04-18T08:55:56.946Z</time></trkpt><trkpt lat="43.4912647" lon="12.3086108"><ele>540.0</ele><time>2026-04-18T08:55:58.945Z</time></trkpt><trkpt lat="43.4911956" lon="12.3086247"><ele>540.0</ele><time>2026-04-18T08:55:59.945Z</time></trkpt><trkpt lat="43.4911281" lon="12.3086464"><ele>540.0</ele><time>2026-04-18T08:56:00.946Z</time></trkpt><trkpt lat="43.4910528" lon="12.3086906"><ele>540.0</ele><time>2026-04-18T08:56:01.946Z</time></trkpt><trkpt lat="43.4909872" lon="12.3087254"><ele>540.8333333333334</ele><time>2026-04-18T08:56:02.945Z</time></trkpt><trkpt lat="43.4909129" lon="12.3087618"><ele>541.6666666666666</ele><time>2026-04-18T08:56:03.947Z</time></trkpt><trkpt lat="43.4908261" lon="12.3087792"><ele>542.5</ele><time>2026-04-18T08:56:04.945Z</time></trkpt><trkpt lat="43.4907178" lon="12.3088077"><ele>543.3333333333333</ele><time>2026-04-18T08:56:07.945Z</time></trkpt><trkpt lat="43.4906659" lon="12.308886"><ele>544.1666666666666</ele><time>2026-04-18T08:56:10.945Z</time></trkpt><trkpt lat="43.4906992" lon="12.309007"><ele>545.0</ele><time>2026-04-18T08:56:14.947Z</time></trkpt><trkpt lat="43.4907636" lon="12.3091211"><ele>546.6</ele><time>2026-04-18T08:56:16.946Z</time></trkpt><trkpt lat="43.4908518" lon="12.309183"><ele>548.2</ele><time>2026-04-18T08:56:18.947Z</time></trkpt><trkpt lat="43.4909501" lon="12.3092653"><ele>549.8</ele><time>2026-04-18T08:56:20.947Z</time></trkpt><trkpt lat="43.491004" lon="12.3093196"><ele>551.4</ele><time>2026-04-18T08:56:21.946Z</time></trkpt><trkpt lat="43.4910602" lon="12.3093669"><ele>553.0</ele><time>2026-04-18T08:56:22.945Z</time></trkpt><trkpt lat="43.4911469" lon="12.3094488"><ele>553.0</ele><time>2026-04-18T08:56:23.946Z</time></trkpt><trkpt lat="43.4912292" lon="12.3095118"><ele>553.0</ele><time>2026-04-18T08:56:24.946Z</time></trkpt><trkpt lat="43.4913116" lon="12.3095569"><ele>553.0</ele><time>2026-04-18T08:56:25.947Z</time></trkpt><trkpt lat="43.4913912" lon="12.3096056"><ele>553.0</ele><time>2026-04-18T08:56:26.945Z</time></trkpt><trkpt lat="43.4914764" lon="12.3096471"><ele>553.0</ele><time>2026-04-18T08:56:27.946Z</time></trkpt><trkpt lat="43.4915674" lon="12.3096718"><ele>553.1999999999999</ele><time>2026-04-18T08:56:28.946Z</time></trkpt><trkpt lat="43.4916627" lon="12.3097101"><ele>553.4</ele><time>2026-04-18T08:56:29.947Z</time></trkpt><trkpt lat="43.4917538" lon="12.3097404"><ele>553.5999999999999</ele><time>2026-04-18T08:56:30.946Z</time></trkpt><trkpt lat="43.4918427" lon="12.3097787"><ele>553.8</ele><time>2026-04-18T08:56:31.946Z</time></trkpt><trkpt lat="43.4919305" lon="12.3098309"><ele>554.0</ele><time>2026-04-18T08:56:32.946Z</time></trkpt><trkpt lat="43.492009" lon="12.3099083"><ele>554.2</ele><time>2026-04-18T08:56:33.947Z</time></trkpt><trkpt lat="43.4920712" lon="12.3100116"><ele>554.4</ele><time>2026-04-18T08:56:34.946Z</time></trkpt><trkpt lat="43.4921294" lon="12.3101239"><ele>554.6</ele><time>2026-04-18T08:56:35.946Z</time></trkpt><trkpt lat="43.4921823" lon="12.31024"><ele>554.8</ele><time>2026-04-18T08:56:36.947Z</time></trkpt><trkpt lat="43.4922469" lon="12.310356"><ele>555.0</ele><time>2026-04-18T08:56:37.947Z</time></trkpt><trkpt lat="43.4923164" lon="12.3104781"><ele>553.75</ele><time>2026-04-18T08:56:38.946Z</time></trkpt><trkpt lat="43.4923832" lon="12.3106051"><ele>552.5</ele><time>2026-04-18T08:56:39.947Z</time></trkpt><trkpt lat="43.4924542" lon="12.3107327"><ele>551.25</ele><time>2026-04-18T08:56:40.946Z</time></trkpt><trkpt lat="43.4925245" lon="12.3108685"><ele>550.0</ele><time>2026-04-18T08:56:41.945Z</time></trkpt><trkpt lat="43.4925966" lon="12.3109992"><ele>550.0</ele><time>2026-04-18T08:56:42.947Z</time></trkpt><trkpt lat="43.4926684" lon="12.3111163"><ele>550.0</ele><time>2026-04-18T08:56:43.946Z</time></trkpt><trkpt lat="43.4927454" lon="12.3112173"><ele>550.0</ele><time>2026-04-18T08:56:44.946Z</time></trkpt><trkpt lat="43.4928331" lon="12.3113175"><ele>550.0</ele><time>2026-04-18T08:56:45.945Z</time></trkpt><trkpt lat="43.4929212" lon="12.3114121"><ele>550.0</ele><time>2026-04-18T08:56:46.946Z</time></trkpt><trkpt lat="43.4930128" lon="12.3115074"><ele>550.25</ele><time>2026-04-18T08:56:47.946Z</time></trkpt><trkpt lat="43.4931059" lon="12.3116034"><ele>550.5</ele><time>2026-04-18T08:56:48.945Z</time></trkpt><trkpt lat="43.4931997" lon="12.3117034"><ele>550.75</ele><time>2026-04-18T08:56:49.946Z</time></trkpt><trkpt lat="43.493297" lon="12.3117989"><ele>551.0</ele><time>2026-04-18T08:56:50.946Z</time></trkpt><trkpt lat="43.4933894" lon="12.3119016"><ele>551.0</ele><time>2026-04-18T08:56:51.946Z</time></trkpt><trkpt lat="43.4934793" lon="12.3120133"><ele>551.0</ele><time>2026-04-18T08:56:52.946Z</time></trkpt><trkpt lat="43.4935718" lon="12.3121264"><ele>551.0</ele><time>2026-04-18T08:56:53.947Z</time></trkpt><trkpt lat="43.4936623" lon="12.3122409"><ele>551.0</ele><time>2026-04-18T08:56:54.946Z</time></trkpt><trkpt lat="43.4937546" lon="12.3123575"><ele>550.8</ele><time>2026-04-18T08:56:55.946Z</time></trkpt><trkpt lat="43.4938394" lon="12.3124656"><ele>550.6</ele><time>2026-04-18T08:56:56.946Z</time></trkpt><trkpt lat="43.4939163" lon="12.3125672"><ele>550.4</ele><time>2026-04-18T08:56:57.945Z</time></trkpt><trkpt lat="43.4939903" lon="12.3126611"><ele>550.2</ele><time>2026-04-18T08:56:58.946Z</time></trkpt><trkpt lat="43.4940648" lon="12.3127538"><ele>550.0</ele><time>2026-04-18T08:56:59.947Z</time></trkpt><trkpt lat="43.4941439" lon="12.3128466"><ele>550.0</ele><time>2026-04-18T08:57:00.945Z</time></trkpt><trkpt lat="43.4942225" lon="12.3129412"><ele>550.0</ele><time>2026-04-18T08:57:01.946Z</time></trkpt><trkpt lat="43.4943038" lon="12.3130346"><ele>550.0</ele><time>2026-04-18T08:57:02.946Z</time></trkpt><trkpt lat="43.4943825" lon="12.3131204"><ele>550.0</ele><time>2026-04-18T08:57:03.947Z</time></trkpt><trkpt lat="43.4944592" lon="12.3132025"><ele>550.0</ele><time>2026-04-18T08:57:04.945Z</time></trkpt><trkpt lat="43.4945276" lon="12.3132687"><ele>550.3333333333334</ele><time>2026-04-18T08:57:05.946Z</time></trkpt><trkpt lat="43.494591" lon="12.3133287"><ele>550.6666666666667</ele><time>2026-04-18T08:57:06.946Z</time></trkpt><trkpt lat="43.4946517" lon="12.3133874"><ele>551.0</ele><time>2026-04-18T08:57:07.946Z</time></trkpt><trkpt lat="43.4947167" lon="12.3134539"><ele>551.3333333333334</ele><time>2026-04-18T08:57:08.946Z</time></trkpt><trkpt lat="43.4947891" lon="12.313527"><ele>551.6666666666666</ele><time>2026-04-18T08:57:09.946Z</time></trkpt><trkpt lat="43.4948639" lon="12.3136048"><ele>552.0</ele><time>2026-04-18T08:57:10.945Z</time></trkpt><trkpt lat="43.494944" lon="12.313682"><ele>552.0</ele><time>2026-04-18T08:57:11.945Z</time></trkpt><trkpt lat="43.4950345" lon="12.3137594"><ele>552.0</ele><time>2026-04-18T08:57:12.947Z</time></trkpt><trkpt lat="43.4951219" lon="12.3138377"><ele>552.0</ele><time>2026-04-18T08:57:13.946Z</time></trkpt><trkpt lat="43.4952104" lon="12.3139143"><ele>552.0</ele><time>2026-04-18T08:57:14.945Z</time></trkpt><trkpt lat="43.4953007" lon="12.3140043"><ele>552.0</ele><time>2026-04-18T08:57:15.946Z</time></trkpt><trkpt lat="43.4953971" lon="12.3140899"><ele>553.25</ele><time>2026-04-18T08:57:16.947Z</time></trkpt><trkpt lat="43.4954993" lon="12.3141795"><ele>554.5</ele><time>2026-04-18T08:57:17.946Z</time></trkpt><trkpt lat="43.4956041" lon="12.3142579"><ele>555.75</ele><time>2026-04-18T08:57:18.946Z</time></trkpt><trkpt lat="43.4957042" lon="12.3143308"><ele>557.0</ele><time>2026-04-18T08:57:19.947Z</time></trkpt><trkpt lat="43.4957956" lon="12.3144005"><ele>557.0</ele><time>2026-04-18T08:57:20.946Z</time></trkpt><trkpt lat="43.49589" lon="12.3144633"><ele>557.0</ele><time>2026-04-18T08:57:21.947Z</time></trkpt><trkpt lat="43.495988" lon="12.3145241"><ele>557.0</ele><time>2026-04-18T08:57:22.947Z</time></trkpt><trkpt lat="43.4960905" lon="12.3145855"><ele>557.0</ele><time>2026-04-18T08:57:23.945Z</time></trkpt><trkpt lat="43.4962023" lon="12.3146346"><ele>557.0</ele><time>2026-04-18T08:57:24.946Z</time></trkpt><trkpt lat="43.4963208" lon="12.314666"><ele>556.25</ele><time>2026-04-18T08:57:25.947Z</time></trkpt><trkpt lat="43.4964389" lon="12.3147074"><ele>555.5</ele><time>2026-04-18T08:57:26.946Z</time></trkpt><trkpt lat="43.4965634" lon="12.3147448"><ele>554.75</ele><time>2026-04-18T08:57:27.947Z</time></trkpt><trkpt lat="43.4966808" lon="12.3147953"><ele>554.0</ele><time>2026-04-18T08:57:28.946Z</time></trkpt><trkpt lat="43.4968011" lon="12.3148495"><ele>554.0</ele><time>2026-04-18T08:57:29.947Z</time></trkpt><trkpt lat="43.4969201" lon="12.3149105"><ele>554.0</ele><time>2026-04-18T08:57:30.945Z</time></trkpt><trkpt lat="43.4970344" lon="12.3149826"><ele>554.0</ele><time>2026-04-18T08:57:31.947Z</time></trkpt><trkpt lat="43.4971481" lon="12.3150585"><ele>554.0</ele><time>2026-04-18T08:57:32.947Z</time></trkpt><trkpt lat="43.4972457" lon="12.3151304"><ele>555.3333333333333</ele><time>2026-04-18T08:57:33.945Z</time></trkpt><trkpt lat="43.4973314" lon="12.3152004"><ele>556.6666666666666</ele><time>2026-04-18T08:57:34.946Z</time></trkpt><trkpt lat="43.4974037" lon="12.3152712"><ele>558.0</ele><time>2026-04-18T08:57:35.945Z</time></trkpt><trkpt lat="43.4974726" lon="12.3153474"><ele>559.3333333333334</ele><time>2026-04-18T08:57:36.945Z</time></trkpt><trkpt lat="43.4975467" lon="12.3154147"><ele>560.6666666666667</ele><time>2026-04-18T08:57:37.946Z</time></trkpt><trkpt lat="43.4976135" lon="12.3154657"><ele>562.0</ele><time>2026-04-18T08:57:38.947Z</time></trkpt><trkpt lat="43.4976696" lon="12.3155083"><ele>562.0</ele><time>2026-04-18T08:57:39.945Z</time></trkpt><trkpt lat="43.4977695" lon="12.3155504"><ele>562.0</ele><time>2026-04-18T08:57:41.944Z</time></trkpt><trkpt lat="43.4978406" lon="12.3155544"><ele>562.0</ele><time>2026-04-18T08:57:43.945Z</time></trkpt><trkpt lat="43.4978993" lon="12.3156554"><ele>562.0</ele><time>2026-04-18T08:57:46.945Z</time></trkpt><trkpt lat="43.4979368" lon="12.3157429"><ele>562.0</ele><time>2026-04-18T08:57:48.945Z</time></trkpt><trkpt lat="43.4979838" lon="12.3158177"><ele>562.0</ele><time>2026-04-18T08:57:50.945Z</time></trkpt><trkpt lat="43.4980522" lon="12.3158527"><ele>564.8000000000001</ele><time>2026-04-18T08:57:53.944Z</time></trkpt><trkpt lat="43.4981709" lon="12.3159341"><ele>567.6</ele><time>2026-04-18T08:57:57.946Z</time></trkpt><trkpt lat="43.4982505" lon="12.3160023"><ele>570.4000000000001</ele><time>2026-04-18T08:57:59.945Z</time></trkpt><trkpt lat="43.4983373" lon="12.3160888"><ele>573.2</ele><time>2026-04-18T08:58:01.946Z</time></trkpt><trkpt lat="43.498397" lon="12.3162038"><ele>576.0</ele><time>2026-04-18T08:58:03.945Z</time></trkpt><trkpt lat="43.4984738" lon="12.3163326"><ele>576.0</ele><time>2026-04-18T08:58:05.945Z</time></trkpt><trkpt lat="43.4985315" lon="12.3163986"><ele>576.0</ele><time>2026-04-18T08:58:07.945Z</time></trkpt><trkpt lat="43.4986015" lon="12.31646"><ele>576.0</ele><time>2026-04-18T08:58:10.944Z</time></trkpt><trkpt lat="43.4986717" lon="12.3165255"><ele>576.0</ele><time>2026-04-18T08:58:12.945Z</time></trkpt><trkpt lat="43.4987493" lon="12.3165842"><ele>576.0</ele><time>2026-04-18T08:58:14.944Z</time></trkpt><trkpt lat="43.4987991" lon="12.3166404"><ele>576.0</ele><time>2026-04-18T08:58:16.946Z</time></trkpt><trkpt lat="43.4988241" lon="12.316727"><ele>580.4</ele><time>2026-04-18T08:58:18.944Z</time></trkpt><trkpt lat="43.4989268" lon="12.3169155"><ele>584.8</ele><time>2026-04-18T08:58:20.944Z</time></trkpt><trkpt lat="43.4989993" lon="12.3169569"><ele>589.1999999999999</ele><time>2026-04-18T08:58:21.944Z</time></trkpt><trkpt lat="43.4991168" lon="12.3169443"><ele>593.6</ele><time>2026-04-18T08:58:22.945Z</time></trkpt><trkpt lat="43.4991816" lon="12.3169366"><ele>598.0</ele><time>2026-04-18T08:58:31.945Z</time></trkpt><trkpt lat="43.4992595" lon="12.3169729"><ele>598.0</ele><time>2026-04-18T08:58:36.945Z</time></trkpt><trkpt lat="43.4993325" lon="12.316994"><ele>598.0</ele><time>2026-04-18T08:58:39.944Z</time></trkpt><trkpt lat="43.4994197" lon="12.3170137"><ele>598.0</ele><time>2026-04-18T08:58:42.945Z</time></trkpt><trkpt lat="43.499506" lon="12.317021"><ele>598.0</ele><time>2026-04-18T08:58:45.945Z</time></trkpt><trkpt lat="43.4995876" lon="12.3170118"><ele>598.0</ele><time>2026-04-18T08:58:46.946Z</time></trkpt><trkpt lat="43.4996896" lon="12.3170073"><ele>598.0</ele><time>2026-04-18T08:58:48.945Z</time></trkpt><trkpt lat="43.4997531" lon="12.3170175"><ele>599.0</ele><time>2026-04-18T08:58:49.946Z</time></trkpt><trkpt lat="43.4998306" lon="12.3170466"><ele>600.0</ele><time>2026-04-18T08:58:50.945Z</time></trkpt><trkpt lat="43.4999496" lon="12.3170841"><ele>601.0</ele><time>2026-04-18T08:58:52.945Z</time></trkpt><trkpt lat="43.5000386" lon="12.3171303"><ele>602.0</ele><time>2026-04-18T08:58:54.945Z</time></trkpt><trkpt lat="43.5001369" lon="12.3171955"><ele>603.0</ele><time>2026-04-18T08:58:56.946Z</time></trkpt><trkpt lat="43.5002249" lon="12.3172681"><ele>604.8333333333334</ele><time>2026-04-18T08:58:58.945Z</time></trkpt><trkpt lat="43.5003058" lon="12.3173049"><ele>606.6666666666666</ele><time>2026-04-18T08:59:00.944Z</time></trkpt><trkpt lat="43.5004025" lon="12.3173933"><ele>608.5</ele><time>2026-04-18T08:59:02.945Z</time></trkpt><trkpt lat="43.5004644" lon="12.3174365"><ele>610.3333333333333</ele><time>2026-04-18T08:59:03.945Z</time></trkpt><trkpt lat="43.5005444" lon="12.3175135"><ele>612.1666666666666</ele><time>2026-04-18T08:59:05.945Z</time></trkpt><trkpt lat="43.5006014" lon="12.3175726"><ele>614.0</ele><time>2026-04-18T08:59:06.945Z</time></trkpt><trkpt lat="43.5006622" lon="12.3176508"><ele>614.0</ele><time>2026-04-18T08:59:08.944Z</time></trkpt><trkpt lat="43.5007387" lon="12.3177385"><ele>614.0</ele><time>2026-04-18T08:59:10.945Z</time></trkpt><trkpt lat="43.5008015" lon="12.317833"><ele>614.0</ele><time>2026-04-18T08:59:11.945Z</time></trkpt><trkpt lat="43.5008631" lon="12.3178839"><ele>614.0</ele><time>2026-04-18T08:59:13.944Z</time></trkpt><trkpt lat="43.5009163" lon="12.3179731"><ele>614.0</ele><time>2026-04-18T08:59:15.944Z</time></trkpt><trkpt lat="43.5008921" lon="12.318061"><ele>614.0</ele><time>2026-04-18T08:59:19.945Z</time></trkpt><trkpt lat="43.5007659" lon="12.3181427"><ele>616.2</ele><time>2026-04-18T08:59:21.945Z</time></trkpt><trkpt lat="43.500702" lon="12.3181897"><ele>618.4</ele><time>2026-04-18T08:59:22.946Z</time></trkpt><trkpt lat="43.5006255" lon="12.3182373"><ele>620.6</ele><time>2026-04-18T08:59:23.945Z</time></trkpt><trkpt lat="43.5005867" lon="12.3183333"><ele>622.8</ele><time>2026-04-18T08:59:24.944Z</time></trkpt><trkpt lat="43.5004479" lon="12.3184036"><ele>625.0</ele><time>2026-04-18T08:59:25.946Z</time></trkpt><trkpt lat="43.5004149" lon="12.3184819"><ele>625.0</ele><time>2026-04-18T08:59:26.946Z</time></trkpt><trkpt lat="43.5004159" lon="12.3185839"><ele>625.0</ele><time>2026-04-18T08:59:27.945Z</time></trkpt><trkpt lat="43.5003662" lon="12.3187251"><ele>625.0</ele><time>2026-04-18T08:59:29.945Z</time></trkpt><trkpt lat="43.5003192" lon="12.3188104"><ele>625.0</ele><time>2026-04-18T08:59:30.945Z</time></trkpt><trkpt lat="43.5002056" lon="12.3189004"><ele>625.0</ele><time>2026-04-18T08:59:32.945Z</time></trkpt><trkpt lat="43.5001367" lon="12.3189763"><ele>627.6</ele><time>2026-04-18T08:59:33.946Z</time></trkpt><trkpt lat="43.5000768" lon="12.3190529"><ele>630.2</ele><time>2026-04-18T08:59:34.945Z</time></trkpt><trkpt lat="43.5000174" lon="12.3191566"><ele>632.8</ele><time>2026-04-18T08:59:35.945Z</time></trkpt><trkpt lat="43.4999682" lon="12.3192487"><ele>635.4</ele><time>2026-04-18T08:59:36.946Z</time></trkpt><trkpt lat="43.4999083" lon="12.3193671"><ele>638.0</ele><time>2026-04-18T08:59:37.946Z</time></trkpt><trkpt lat="43.4998424" lon="12.3194656"><ele>638.0</ele><time>2026-04-18T08:59:38.944Z</time></trkpt><trkpt lat="43.49979" lon="12.3195616"><ele>638.0</ele><time>2026-04-18T08:59:39.945Z</time></trkpt><trkpt lat="43.4997264" lon="12.3196459"><ele>638.0</ele><time>2026-04-18T08:59:40.944Z</time></trkpt><trkpt lat="43.4996455" lon="12.3197257"><ele>638.0</ele><time>2026-04-18T08:59:41.944Z</time></trkpt><trkpt lat="43.4995677" lon="12.319774"><ele>638.0</ele><time>2026-04-18T08:59:42.946Z</time></trkpt><trkpt lat="43.4995025" lon="12.3198086"><ele>638.0</ele><time>2026-04-18T08:59:43.945Z</time></trkpt><trkpt lat="43.4994303" lon="12.3198153"><ele>637.8333333333333</ele><time>2026-04-18T08:59:44.945Z</time></trkpt><trkpt lat="43.4992969" lon="12.3198402"><ele>637.6666666666666</ele><time>2026-04-18T08:59:46.944Z</time></trkpt><trkpt lat="43.4992278" lon="12.319852"><ele>637.5</ele><time>2026-04-18T08:59:47.945Z</time></trkpt><trkpt lat="43.4991524" lon="12.3198584"><ele>637.3333333333334</ele><time>2026-04-18T08:59:48.944Z</time></trkpt><trkpt lat="43.4990824" lon="12.3198308"><ele>637.1666666666667</ele><time>2026-04-18T08:59:49.945Z</time></trkpt><trkpt lat="43.4990163" lon="12.319824"><ele>637.0</ele><time>2026-04-18T08:59:50.945Z</time></trkpt><trkpt lat="43.4989383" lon="12.3197947"><ele>637.0</ele><time>2026-04-18T08:59:51.945Z</time></trkpt><trkpt lat="43.4988659" lon="12.3197531"><ele>637.0</ele><time>2026-04-18T08:59:52.946Z</time></trkpt><trkpt lat="43.4987995" lon="12.3197"><ele>637.0</ele><time>2026-04-18T08:59:53.944Z</time></trkpt><trkpt lat="43.4986975" lon="12.3196308"><ele>637.0</ele><time>2026-04-18T08:59:55.945Z</time></trkpt><trkpt lat="43.4985949" lon="12.3196254"><ele>637.0</ele><time>2026-04-18T08:59:57.946Z</time></trkpt><trkpt lat="43.4984724" lon="12.3196523"><ele>634.6666666666667</ele><time>2026-04-18T08:59:59.946Z</time></trkpt><trkpt lat="43.4984019" lon="12.3196658"><ele>632.3333333333334</ele><time>2026-04-18T09:00:00.945Z</time></trkpt><trkpt lat="43.4983365" lon="12.3196746"><ele>630.0</ele><time>2026-04-18T09:00:01.944Z</time></trkpt><trkpt lat="43.4982377" lon="12.3196948"><ele>627.6666666666666</ele><time>2026-04-18T09:00:03.945Z</time></trkpt><trkpt lat="43.4981523" lon="12.3196803"><ele>625.3333333333333</ele><time>2026-04-18T09:00:05.945Z</time></trkpt><trkpt lat="43.4980862" lon="12.3196715"><ele>623.0</ele><time>2026-04-18T09:00:06.945Z</time></trkpt><trkpt lat="43.4980052" lon="12.3196462"><ele>623.0</ele><time>2026-04-18T09:00:08.945Z</time></trkpt><trkpt lat="43.4979454" lon="12.3197159"><ele>623.0</ele><time>2026-04-18T09:00:10.946Z</time></trkpt><trkpt lat="43.4979155" lon="12.3198083"><ele>623.0</ele><time>2026-04-18T09:00:12.944Z</time></trkpt><trkpt lat="43.4979366" lon="12.3199698"><ele>623.0</ele><time>2026-04-18T09:00:14.944Z</time></trkpt><trkpt lat="43.497953" lon="12.3201761"><ele>623.0</ele><time>2026-04-18T09:00:16.945Z</time></trkpt><trkpt lat="43.4979221" lon="12.3203127"><ele>623.3333333333333</ele><time>2026-04-18T09:00:17.944Z</time></trkpt><trkpt lat="43.4979185" lon="12.3204015"><ele>623.6666666666666</ele><time>2026-04-18T09:00:18.946Z</time></trkpt><trkpt lat="43.4979183" lon="12.3204955"><ele>624.0</ele><time>2026-04-18T09:00:19.944Z</time></trkpt><trkpt lat="43.4979156" lon="12.3206385"><ele>624.3333333333334</ele><time>2026-04-18T09:00:20.944Z</time></trkpt><trkpt lat="43.4979339" lon="12.3208183"><ele>624.6666666666667</ele><time>2026-04-18T09:00:22.945Z</time></trkpt><trkpt lat="43.497949" lon="12.3209172"><ele>625.0</ele><time>2026-04-18T09:00:23.945Z</time></trkpt><trkpt lat="43.4979702" lon="12.3210249"><ele>622.5</ele><time>2026-04-18T09:00:24.946Z</time></trkpt><trkpt lat="43.4979801" lon="12.3211333"><ele>620.0</ele><time>2026-04-18T09:00:25.944Z</time></trkpt><trkpt lat="43.4979888" lon="12.3212528"><ele>617.5</ele><time>2026-04-18T09:00:26.945Z</time></trkpt><trkpt lat="43.4979996" lon="12.3213453"><ele>615.0</ele><time>2026-04-18T09:00:27.944Z</time></trkpt><trkpt lat="43.4980027" lon="12.3214482"><ele>612.5</ele><time>2026-04-18T09:00:28.946Z</time></trkpt><trkpt lat="43.497931" lon="12.3215668"><ele>610.0</ele><time>2026-04-18T09:00:30.946Z</time></trkpt><trkpt lat="43.4978565" lon="12.3215993"><ele>606.0</ele><time>2026-04-18T09:00:31.945Z</time></trkpt><trkpt lat="43.4977886" lon="12.3216834"><ele>602.0</ele><time>2026-04-18T09:00:33.945Z</time></trkpt><trkpt lat="43.4977462" lon="12.3218217"><ele>598.0</ele><time>2026-04-18T09:00:35.945Z</time></trkpt><trkpt lat="43.4977402" lon="12.321954"><ele>594.0</ele><time>2026-04-18T09:00:37.946Z</time></trkpt><trkpt lat="43.4977238" lon="12.322038"><ele>590.0</ele><time>2026-04-18T09:00:39.945Z</time></trkpt><trkpt lat="43.4977258" lon="12.3221529"><ele>586.0</ele><time>2026-04-18T09:00:41.945Z</time></trkpt><trkpt lat="43.4977672" lon="12.3220846"><ele>586.0</ele><time>2026-04-18T09:00:42.944Z</time></trkpt><trkpt lat="43.4978288" lon="12.322024"><ele>586.0</ele><time>2026-04-18T09:01:03.945Z</time></trkpt><trkpt lat="43.497908" lon="12.3219207"><ele>586.0</ele><time>2026-04-18T09:01:06.946Z</time></trkpt><trkpt lat="43.4979842" lon="12.3218196"><ele>586.0</ele><time>2026-04-18T09:01:08.945Z</time></trkpt><trkpt lat="43.498044" lon="12.3217438"><ele>586.0</ele><time>2026-04-18T09:01:10.945Z</time></trkpt><trkpt lat="43.4981276" lon="12.3217263"><ele>587.8</ele><time>2026-04-18T09:01:12.946Z</time></trkpt><trkpt lat="43.4982301" lon="12.3217425"><ele>589.6</ele><time>2026-04-18T09:01:14.946Z</time></trkpt><trkpt lat="43.4983029" lon="12.3217672"><ele>591.4</ele><time>2026-04-18T09:01:15.945Z</time></trkpt><trkpt lat="43.4984148" lon="12.3217936"><ele>593.2</ele><time>2026-04-18T09:01:17.944Z</time></trkpt><trkpt lat="43.4985015" lon="12.3218891"><ele>595.0</ele><time>2026-04-18T09:01:19.945Z</time></trkpt><trkpt lat="43.498545" lon="12.3219577"><ele>595.0</ele><time>2026-04-18T09:01:20.946Z</time></trkpt><trkpt lat="43.4985931" lon="12.3220152"><ele>595.0</ele><time>2026-04-18T09:01:21.945Z</time></trkpt><trkpt lat="43.4986701" lon="12.3220464"><ele>595.0</ele><time>2026-04-18T09:01:22.944Z</time></trkpt><trkpt lat="43.4987583" lon="12.3221172"><ele>595.0</ele><time>2026-04-18T09:01:24.946Z</time></trkpt><trkpt lat="43.4988228" lon="12.322153"><ele>595.0</ele><time>2026-04-18T09:01:25.945Z</time></trkpt><trkpt lat="43.4988888" lon="12.3221848"><ele>595.0</ele><time>2026-04-18T09:01:26.946Z</time></trkpt><trkpt lat="43.498952" lon="12.3222488"><ele>592.5</ele><time>2026-04-18T09:01:28.946Z</time></trkpt><trkpt lat="43.4990156" lon="12.3222841"><ele>590.0</ele><time>2026-04-18T09:01:29.946Z</time></trkpt><trkpt lat="43.4991028" lon="12.3224014"><ele>587.5</ele><time>2026-04-18T09:01:31.946Z</time></trkpt><trkpt lat="43.4991645" lon="12.322472"><ele>585.0</ele><time>2026-04-18T09:01:32.944Z</time></trkpt><trkpt lat="43.4992199" lon="12.3225477"><ele>582.5</ele><time>2026-04-18T09:01:33.946Z</time></trkpt><trkpt lat="43.4992545" lon="12.3226401"><ele>580.0</ele><time>2026-04-18T09:01:34.945Z</time></trkpt><trkpt lat="43.4992799" lon="12.322731"><ele>580.0</ele><time>2026-04-18T09:01:35.945Z</time></trkpt><trkpt lat="43.4993308" lon="12.3228653"><ele>580.0</ele><time>2026-04-18T09:01:37.945Z</time></trkpt><trkpt lat="43.4993787" lon="12.3229949"><ele>580.0</ele><time>2026-04-18T09:01:39.945Z</time></trkpt><trkpt lat="43.4993936" lon="12.3231903"><ele>580.0</ele><time>2026-04-18T09:01:41.945Z</time></trkpt><trkpt lat="43.4993678" lon="12.3233155"><ele>578.5</ele><time>2026-04-18T09:01:43.944Z</time></trkpt><trkpt lat="43.4993804" lon="12.3234311"><ele>577.0</ele><time>2026-04-18T09:01:45.944Z</time></trkpt><trkpt lat="43.4993901" lon="12.3235316"><ele>575.5</ele><time>2026-04-18T09:01:47.944Z</time></trkpt><trkpt lat="43.4994221" lon="12.3236376"><ele>574.0</ele><time>2026-04-18T09:01:49.945Z</time></trkpt><trkpt lat="43.4994267" lon="12.3237455"><ele>572.5</ele><time>2026-04-18T09:01:51.945Z</time></trkpt><trkpt lat="43.4994008" lon="12.3238301"><ele>571.0</ele><time>2026-04-18T09:01:53.945Z</time></trkpt><trkpt lat="43.4993785" lon="12.3239236"><ele>569.8333333333334</ele><time>2026-04-18T09:01:55.945Z</time></trkpt><trkpt lat="43.4993413" lon="12.3239938"><ele>568.6666666666667</ele><time>2026-04-18T09:01:57.944Z</time></trkpt><trkpt lat="43.4992924" lon="12.3241017"><ele>567.5</ele><time>2026-04-18T09:01:59.944Z</time></trkpt><trkpt lat="43.4992398" lon="12.324197"><ele>566.3333333333334</ele><time>2026-04-18T09:02:01.946Z</time></trkpt><trkpt lat="43.4991901" lon="12.3242898"><ele>565.1666666666666</ele><time>2026-04-18T09:02:04.945Z</time></trkpt><trkpt lat="43.4991578" lon="12.3243898"><ele>564.0</ele><time>2026-04-18T09:02:07.945Z</time></trkpt><trkpt lat="43.4991548" lon="12.3244912"><ele>564.0</ele><time>2026-04-18T09:02:09.946Z</time></trkpt><trkpt lat="43.4991648" lon="12.3246754"><ele>564.0</ele><time>2026-04-18T09:02:11.945Z</time></trkpt><trkpt lat="43.4991391" lon="12.3247583"><ele>564.0</ele><time>2026-04-18T09:02:12.945Z</time></trkpt><trkpt lat="43.499121" lon="12.3248924"><ele>564.0</ele><time>2026-04-18T09:02:15.945Z</time></trkpt><trkpt lat="43.4991643" lon="12.3250004"><ele>564.0</ele><time>2026-04-18T09:02:17.945Z</time></trkpt><trkpt lat="43.4991863" lon="12.3251533"><ele>562.5714285714286</ele><time>2026-04-18T09:02:19.946Z</time></trkpt><trkpt lat="43.4992031" lon="12.3252383"><ele>561.1428571428571</ele><time>2026-04-18T09:02:21.944Z</time></trkpt><trkpt lat="43.4991747" lon="12.3253529"><ele>559.7142857142857</ele><time>2026-04-18T09:02:23.944Z</time></trkpt><trkpt lat="43.4991314" lon="12.3254306"><ele>558.2857142857142</ele><time>2026-04-18T09:02:28.945Z</time></trkpt><trkpt lat="43.4990668" lon="12.3254376"><ele>556.8571428571428</ele><time>2026-04-18T09:02:30.944Z</time></trkpt><trkpt lat="43.4989986" lon="12.3254516"><ele>555.4285714285714</ele><time>2026-04-18T09:02:32.946Z</time></trkpt><trkpt lat="43.4989148" lon="12.3254778"><ele>554.0</ele><time>2026-04-18T09:02:35.944Z</time></trkpt><trkpt lat="43.4988512" lon="12.3254897"><ele>554.0</ele><time>2026-04-18T09:02:38.946Z</time></trkpt><trkpt lat="43.4987727" lon="12.3254963"><ele>554.0</ele><time>2026-04-18T09:02:41.946Z</time></trkpt><trkpt lat="43.4987034" lon="12.3254709"><ele>554.0</ele><time>2026-04-18T09:02:43.946Z</time></trkpt><trkpt lat="43.4986482" lon="12.3253409"><ele>554.0</ele><time>2026-04-18T09:02:45.946Z</time></trkpt><trkpt lat="43.4986074" lon="12.3252718"><ele>554.0</ele><time>2026-04-18T09:02:47.945Z</time></trkpt><trkpt lat="43.4985678" lon="12.3251934"><ele>554.0</ele><time>2026-04-18T09:02:51.946Z</time></trkpt><trkpt lat="43.4985421" lon="12.3250961"><ele>551.6666666666666</ele><time>2026-04-18T09:02:53.945Z</time></trkpt><trkpt lat="43.4985146" lon="12.3249974"><ele>549.3333333333333</ele><time>2026-04-18T09:02:56.945Z</time></trkpt><trkpt lat="43.498455" lon="12.3249414"><ele>547.0</ele><time>2026-04-18T09:03:00.945Z</time></trkpt><trkpt lat="43.4983843" lon="12.3248596"><ele>544.6666666666666</ele><time>2026-04-18T09:03:03.945Z</time></trkpt><trkpt lat="43.4982924" lon="12.3248644"><ele>542.3333333333334</ele><time>2026-04-18T09:03:06.945Z</time></trkpt><trkpt lat="43.4982739" lon="12.3249589"><ele>540.0</ele><time>2026-04-18T09:03:10.944Z</time></trkpt><trkpt lat="43.4982261" lon="12.3250333"><ele>540.0</ele><time>2026-04-18T09:03:25.944Z</time></trkpt><trkpt lat="43.498164" lon="12.3251105"><ele>540.0</ele><time>2026-04-18T09:03:30.945Z</time></trkpt><trkpt lat="43.4981045" lon="12.3251545"><ele>540.0</ele><time>2026-04-18T09:03:34.946Z</time></trkpt><trkpt lat="43.4980808" lon="12.3252509"><ele>540.0</ele><time>2026-04-18T09:03:38.944Z</time></trkpt><trkpt lat="43.4981226" lon="12.325326"><ele>540.0</ele><time>2026-04-18T09:03:40.945Z</time></trkpt><trkpt lat="43.4981292" lon="12.3254437"><ele>540.0</ele><time>2026-04-18T09:03:44.946Z</time></trkpt><trkpt lat="43.4981153" lon="12.3255606"><ele>538.2</ele><time>2026-04-18T09:03:47.946Z</time></trkpt><trkpt lat="43.4981016" lon="12.3256581"><ele>536.4</ele><time>2026-04-18T09:03:50.946Z</time></trkpt><trkpt lat="43.4980839" lon="12.3257536"><ele>534.6</ele><time>2026-04-18T09:03:52.945Z</time></trkpt><trkpt lat="43.498096" lon="12.3259027"><ele>532.8</ele><time>2026-04-18T09:03:54.944Z</time></trkpt><trkpt lat="43.4982042" lon="12.3260872"><ele>531.0</ele><time>2026-04-18T09:03:55.946Z</time></trkpt><trkpt lat="43.4982702" lon="12.3261656"><ele>531.0</ele><time>2026-04-18T09:03:57.946Z</time></trkpt><trkpt lat="43.4983166" lon="12.3262568"><ele>531.0</ele><time>2026-04-18T09:04:01.945Z</time></trkpt><trkpt lat="43.4982872" lon="12.326336"><ele>531.0</ele><time>2026-04-18T09:04:04.944Z</time></trkpt><trkpt lat="43.4982137" lon="12.3264339"><ele>531.0</ele><time>2026-04-18T09:04:06.945Z</time></trkpt><trkpt lat="43.4981622" lon="12.3264883"><ele>531.0</ele><time>2026-04-18T09:04:07.946Z</time></trkpt><trkpt lat="43.4980605" lon="12.3265682"><ele>531.0</ele><time>2026-04-18T09:04:09.945Z</time></trkpt><trkpt lat="43.4979635" lon="12.3266243"><ele>533.0</ele><time>2026-04-18T09:04:10.945Z</time></trkpt><trkpt lat="43.4978946" lon="12.3266637"><ele>535.0</ele><time>2026-04-18T09:04:11.946Z</time></trkpt><trkpt lat="43.497832" lon="12.3267415"><ele>537.0</ele><time>2026-04-18T09:04:12.945Z</time></trkpt><trkpt lat="43.4977497" lon="12.3268063"><ele>539.0</ele><time>2026-04-18T09:04:13.945Z</time></trkpt><trkpt lat="43.4976718" lon="12.3268679"><ele>541.0</ele><time>2026-04-18T09:04:14.946Z</time></trkpt><trkpt lat="43.4975951" lon="12.3270204"><ele>541.0</ele><time>2026-04-18T09:04:15.945Z</time></trkpt><trkpt lat="43.4974932" lon="12.3271323"><ele>541.0</ele><time>2026-04-18T09:04:16.944Z</time></trkpt><trkpt lat="43.4974061" lon="12.3271895"><ele>541.0</ele><time>2026-04-18T09:04:17.945Z</time></trkpt><trkpt lat="43.4973151" lon="12.3271721"><ele>541.0</ele><time>2026-04-18T09:04:19.944Z</time></trkpt><trkpt lat="43.4972553" lon="12.3272092"><ele>541.0</ele><time>2026-04-18T09:04:21.945Z</time></trkpt><trkpt lat="43.4971283" lon="12.3273235"><ele>537.0</ele><time>2026-04-18T09:04:23.946Z</time></trkpt><trkpt lat="43.4970544" lon="12.3273"><ele>533.0</ele><time>2026-04-18T09:04:24.944Z</time></trkpt><trkpt lat="43.4969175" lon="12.327384"><ele>529.0</ele><time>2026-04-18T09:04:26.946Z</time></trkpt><trkpt lat="43.4968554" lon="12.3274118"><ele>525.0</ele><time>2026-04-18T09:04:27.945Z</time></trkpt><trkpt lat="43.4967171" lon="12.3275373"><ele>525.0</ele><time>2026-04-18T09:04:29.945Z</time></trkpt><trkpt lat="43.4966531" lon="12.3276"><ele>525.0</ele><time>2026-04-18T09:04:30.944Z</time></trkpt><trkpt lat="43.496569" lon="12.3275701"><ele>525.0</ele><time>2026-04-18T09:04:31.945Z</time></trkpt><trkpt lat="43.4964993" lon="12.3275896"><ele>525.0</ele><time>2026-04-18T09:04:32.945Z</time></trkpt><trkpt lat="43.4964301" lon="12.3276084"><ele>525.0</ele><time>2026-04-18T09:04:33.946Z</time></trkpt><trkpt lat="43.4963467" lon="12.3275575"><ele>525.0</ele><time>2026-04-18T09:04:34.944Z</time></trkpt><trkpt lat="43.4962577" lon="12.3276132"><ele>525.6666666666666</ele><time>2026-04-18T09:04:36.945Z</time></trkpt><trkpt lat="43.496207" lon="12.3275429"><ele>526.3333333333334</ele><time>2026-04-18T09:04:39.945Z</time></trkpt><trkpt lat="43.49616" lon="12.327472"><ele>527.0</ele><time>2026-04-18T09:04:40.945Z</time></trkpt><trkpt lat="43.4960361" lon="12.3274377"><ele>527.6666666666667</ele><time>2026-04-18T09:04:42.945Z</time></trkpt><trkpt lat="43.4959348" lon="12.3274255"><ele>528.3333333333334</ele><time>2026-04-18T09:04:44.946Z</time></trkpt><trkpt lat="43.4958876" lon="12.3274908"><ele>529.0</ele><time>2026-04-18T09:04:46.944Z</time></trkpt><trkpt lat="43.4958365" lon="12.3275471"><ele>529.0</ele><time>2026-04-18T09:04:48.946Z</time></trkpt><trkpt lat="43.4957701" lon="12.3275712"><ele>529.0</ele><time>2026-04-18T09:04:51.945Z</time></trkpt><trkpt lat="43.495741" lon="12.3276578"><ele>529.0</ele><time>2026-04-18T09:04:54.945Z</time></trkpt><trkpt lat="43.4957169" lon="12.3277405"><ele>529.0</ele><time>2026-04-18T09:04:56.944Z</time></trkpt><trkpt lat="43.4956417" lon="12.3278174"><ele>529.0</ele><time>2026-04-18T09:04:59.946Z</time></trkpt><trkpt lat="43.4955569" lon="12.3278888"><ele>529.0</ele><time>2026-04-18T09:05:01.944Z</time></trkpt><trkpt lat="43.4955189" lon="12.3279592"><ele>529.0</ele><time>2026-04-18T09:05:03.945Z</time></trkpt><trkpt lat="43.4954645" lon="12.3280405"><ele>529.0</ele><time>2026-04-18T09:05:05.946Z</time></trkpt><trkpt lat="43.4953669" lon="12.3281444"><ele>529.0</ele><time>2026-04-18T09:05:07.945Z</time></trkpt><trkpt lat="43.4953058" lon="12.3282122"><ele>529.0</ele><time>2026-04-18T09:05:08.945Z</time></trkpt><trkpt lat="43.495189" lon="12.3283408"><ele>529.0</ele><time>2026-04-18T09:05:09.945Z</time></trkpt><trkpt lat="43.4951076" lon="12.3283799"><ele>529.0</ele><time>2026-04-18T09:05:11.946Z</time></trkpt><trkpt lat="43.4950511" lon="12.3283412"><ele>529.0</ele><time>2026-04-18T09:05:14.946Z</time></trkpt><trkpt lat="43.4949639" lon="12.3283379"><ele>529.0</ele><time>2026-04-18T09:05:17.946Z</time></trkpt><trkpt lat="43.4948903" lon="12.3283533"><ele>529.0</ele><time>2026-04-18T09:05:19.945Z</time></trkpt><trkpt lat="43.4948149" lon="12.3284882"><ele>529.0</ele><time>2026-04-18T09:05:22.945Z</time></trkpt><trkpt lat="43.4947556" lon="12.3286749"><ele>529.0</ele><time>2026-04-18T09:05:24.945Z</time></trkpt><trkpt lat="43.4947333" lon="12.3288464"><ele>529.0</ele><time>2026-04-18T09:05:25.945Z</time></trkpt><trkpt lat="43.4946954" lon="12.3289804"><ele>529.0</ele><time>2026-04-18T09:05:26.945Z</time></trkpt><trkpt lat="43.494637" lon="12.3290893"><ele>529.0</ele><time>2026-04-18T09:05:27.944Z</time></trkpt><trkpt lat="43.4945631" lon="12.3291843"><ele>529.0</ele><time>2026-04-18T09:05:29.946Z</time></trkpt><trkpt lat="43.4945015" lon="12.3292396"><ele>529.8333333333334</ele><time>2026-04-18T09:05:33.945Z</time></trkpt><trkpt lat="43.4944346" lon="12.3292687"><ele>530.6666666666667</ele><time>2026-04-18T09:05:37.945Z</time></trkpt><trkpt lat="43.4943448" lon="12.329344"><ele>531.5</ele><time>2026-04-18T09:05:39.945Z</time></trkpt><trkpt lat="43.4942892" lon="12.3294383"><ele>532.3333333333334</ele><time>2026-04-18T09:05:42.946Z</time></trkpt><trkpt lat="43.494243" lon="12.3295468"><ele>533.1666666666666</ele><time>2026-04-18T09:05:44.945Z</time></trkpt><trkpt lat="43.4941995" lon="12.3296316"><ele>534.0</ele><time>2026-04-18T09:05:45.945Z</time></trkpt><trkpt lat="43.4941505" lon="12.3296987"><ele>536.2</ele><time>2026-04-18T09:05:46.945Z</time></trkpt><trkpt lat="43.4940539" lon="12.3298026"><ele>538.4</ele><time>2026-04-18T09:05:48.945Z</time></trkpt><trkpt lat="43.4939983" lon="12.3298466"><ele>540.6</ele><time>2026-04-18T09:05:49.946Z</time></trkpt><trkpt lat="43.4939368" lon="12.3298975"><ele>542.8</ele><time>2026-04-18T09:05:50.946Z</time></trkpt><trkpt lat="43.4938182" lon="12.330023"><ele>545.0</ele><time>2026-04-18T09:05:51.944Z</time></trkpt><trkpt lat="43.4937458" lon="12.3300583"><ele>545.0</ele><time>2026-04-18T09:05:52.945Z</time></trkpt><trkpt lat="43.4936221" lon="12.3301432"><ele>545.0</ele><time>2026-04-18T09:05:53.946Z</time></trkpt><trkpt lat="43.4935172" lon="12.3302537"><ele>545.0</ele><time>2026-04-18T09:05:55.945Z</time></trkpt><trkpt lat="43.4934219" lon="12.3303304"><ele>545.0</ele><time>2026-04-18T09:05:57.945Z</time></trkpt><trkpt lat="43.4933062" lon="12.3303748"><ele>545.0</ele><time>2026-04-18T09:05:59.945Z</time></trkpt><trkpt lat="43.4932486" lon="12.330478"><ele>545.0</ele><time>2026-04-18T09:06:02.946Z</time></trkpt><trkpt lat="43.4931921" lon="12.3305228"><ele>545.0</ele><time>2026-04-18T09:06:03.945Z</time></trkpt><trkpt lat="43.4931417" lon="12.3306054"><ele>545.0</ele><time>2026-04-18T09:06:05.944Z</time></trkpt><trkpt lat="43.4930199" lon="12.3308238"><ele>545.0</ele><time>2026-04-18T09:06:07.944Z</time></trkpt><trkpt lat="43.4929701" lon="12.3308773"><ele>540.4</ele><time>2026-04-18T09:06:09.944Z</time></trkpt><trkpt lat="43.4928934" lon="12.3310413"><ele>535.8</ele><time>2026-04-18T09:06:10.946Z</time></trkpt><trkpt lat="43.4928564" lon="12.3311207"><ele>531.2</ele><time>2026-04-18T09:06:13.945Z</time></trkpt><trkpt lat="43.4928235" lon="12.3312529"><ele>526.6</ele><time>2026-04-18T09:06:16.944Z</time></trkpt><trkpt lat="43.4927685" lon="12.331328"><ele>522.0</ele><time>2026-04-18T09:06:19.945Z</time></trkpt><trkpt lat="43.492675" lon="12.3314105"><ele>518.2</ele><time>2026-04-18T09:06:24.944Z</time></trkpt><trkpt lat="43.492575" lon="12.331503"><ele>514.4000000000001</ele><time>2026-04-18T09:06:26.945Z</time></trkpt><trkpt lat="43.49248" lon="12.3316139"><ele>510.59999999999997</ele><time>2026-04-18T09:06:27.945Z</time></trkpt><trkpt lat="43.4923868" lon="12.3317009"><ele>506.79999999999995</ele><time>2026-04-18T09:06:28.944Z</time></trkpt><trkpt lat="43.4923139" lon="12.331755"><ele>503.0</ele><time>2026-04-18T09:06:29.944Z</time></trkpt><trkpt lat="43.4922198" lon="12.3318231"><ele>502.99999999999994</ele><time>2026-04-18T09:06:30.945Z</time></trkpt><trkpt lat="43.4921631" lon="12.3318657"><ele>503.0</ele><time>2026-04-18T09:06:31.945Z</time></trkpt><trkpt lat="43.4921007" lon="12.3318869"><ele>503.0</ele><time>2026-04-18T09:06:32.946Z</time></trkpt><trkpt lat="43.4920146" lon="12.3319254"><ele>503.0</ele><time>2026-04-18T09:06:33.944Z</time></trkpt><trkpt lat="43.4919337" lon="12.3319883"><ele>502.99999999999994</ele><time>2026-04-18T09:06:34.945Z</time></trkpt><trkpt lat="43.4918551" lon="12.3319834"><ele>503.0</ele><time>2026-04-18T09:06:35.945Z</time></trkpt><trkpt lat="43.4917886" lon="12.3319437"><ele>502.99999999999994</ele><time>2026-04-18T09:06:37.945Z</time></trkpt><trkpt lat="43.4916794" lon="12.3319471"><ele>503.0</ele><time>2026-04-18T09:06:39.944Z</time></trkpt><trkpt lat="43.4916074" lon="12.3319362"><ele>503.0</ele><time>2026-04-18T09:06:40.944Z</time></trkpt><trkpt lat="43.4915411" lon="12.3318693"><ele>503.0</ele><time>2026-04-18T09:06:44.944Z</time></trkpt><trkpt lat="43.491456" lon="12.3318647"><ele>502.99999999999994</ele><time>2026-04-18T09:06:53.946Z</time></trkpt><trkpt lat="43.4913894" lon="12.3319142"><ele>503.0</ele><time>2026-04-18T09:06:57.945Z</time></trkpt><trkpt lat="43.4913133" lon="12.3318761"><ele>500.0</ele><time>2026-04-18T09:07:00.945Z</time></trkpt><trkpt lat="43.4911267" lon="12.3317796"><ele>497.0</ele><time>2026-04-18T09:07:02.945Z</time></trkpt><trkpt lat="43.491034" lon="12.3317529"><ele>494.0</ele><time>2026-04-18T09:07:03.945Z</time></trkpt><trkpt lat="43.4908699" lon="12.3316302"><ele>494.0</ele><time>2026-04-18T09:07:04.946Z</time></trkpt><trkpt lat="43.4907538" lon="12.3315822"><ele>494.0</ele><time>2026-04-18T09:07:05.945Z</time></trkpt><trkpt lat="43.4906297" lon="12.3314849"><ele>494.0</ele><time>2026-04-18T09:07:06.946Z</time></trkpt><trkpt lat="43.4904985" lon="12.3313362"><ele>494.0</ele><time>2026-04-18T09:07:07.944Z</time></trkpt><trkpt lat="43.4903763" lon="12.331194"><ele>488.0</ele><time>2026-04-18T09:07:08.945Z</time></trkpt><trkpt lat="43.4902826" lon="12.3311101"><ele>482.0</ele><time>2026-04-18T09:07:09.944Z</time></trkpt><trkpt lat="43.490127" lon="12.3308502"><ele>476.0</ele><time>2026-04-18T09:07:10.944Z</time></trkpt><trkpt lat="43.490035" lon="12.3307493"><ele>476.0</ele><time>2026-04-18T09:07:12.944Z</time></trkpt><trkpt lat="43.4899722" lon="12.3307033"><ele>476.0</ele><time>2026-04-18T09:07:13.945Z</time></trkpt><trkpt lat="43.4899571" lon="12.3306177"><ele>476.0</ele><time>2026-04-18T09:07:14.944Z</time></trkpt><trkpt lat="43.4898982" lon="12.3305531"><ele>476.0</ele><time>2026-04-18T09:07:16.945Z</time></trkpt><trkpt lat="43.4898633" lon="12.3304551"><ele>476.0</ele><time>2026-04-18T09:07:18.944Z</time></trkpt><trkpt lat="43.4898756" lon="12.3303523"><ele>476.0</ele><time>2026-04-18T09:07:20.945Z</time></trkpt><trkpt lat="43.4898499" lon="12.3302673"><ele>476.0</ele><time>2026-04-18T09:07:22.945Z</time></trkpt><trkpt lat="43.4897798" lon="12.3302"><ele>475.6</ele><time>2026-04-18T09:07:24.945Z</time></trkpt><trkpt lat="43.4896516" lon="12.3301361"><ele>475.20000000000005</ele><time>2026-04-18T09:07:25.945Z</time></trkpt><trkpt lat="43.4895352" lon="12.3300973"><ele>474.79999999999995</ele><time>2026-04-18T09:07:27.944Z</time></trkpt><trkpt lat="43.4894664" lon="12.3300572"><ele>474.4</ele><time>2026-04-18T09:07:28.945Z</time></trkpt><trkpt lat="43.4894042" lon="12.3300267"><ele>474.0</ele><time>2026-04-18T09:07:29.944Z</time></trkpt><trkpt lat="43.489437" lon="12.3299526"><ele>469.6</ele><time>2026-04-18T09:07:31.944Z</time></trkpt><trkpt lat="43.4893939" lon="12.32987"><ele>465.2</ele><time>2026-04-18T09:07:33.945Z</time></trkpt><trkpt lat="43.4893592" lon="12.3297645"><ele>460.80000000000007</ele><time>2026-04-18T09:07:35.944Z</time></trkpt><trkpt lat="43.4893491" lon="12.3296576"><ele>456.40000000000003</ele><time>2026-04-18T09:07:37.945Z</time></trkpt><trkpt lat="43.4894113" lon="12.3295678"><ele>452.0</ele><time>2026-04-18T09:07:40.945Z</time></trkpt><trkpt lat="43.48951" lon="12.3294083"><ele>451.99999999999994</ele><time>2026-04-18T09:07:42.944Z</time></trkpt><trkpt lat="43.4895605" lon="12.3293385"><ele>452.0</ele><time>2026-04-18T09:07:43.945Z</time></trkpt><trkpt lat="43.4895987" lon="12.3292315"><ele>452.0</ele><time>2026-04-18T09:07:44.946Z</time></trkpt><trkpt lat="43.4895399" lon="12.3291979"><ele>452.0</ele><time>2026-04-18T09:07:45.944Z</time></trkpt><trkpt lat="43.4894904" lon="12.3291093"><ele>451.99999999999994</ele><time>2026-04-18T09:07:48.945Z</time></trkpt><trkpt lat="43.4894295" lon="12.3291417"><ele>452.0</ele><time>2026-04-18T09:07:50.946Z</time></trkpt><trkpt lat="43.4893992" lon="12.3292557"><ele>452.0</ele><time>2026-04-18T09:07:54.945Z</time></trkpt><trkpt lat="43.4893591" lon="12.32943"><ele>452.0</ele><time>2026-04-18T09:07:56.944Z</time></trkpt><trkpt lat="43.4893336" lon="12.3295239"><ele>452.0</ele><time>2026-04-18T09:07:57.945Z</time></trkpt><trkpt lat="43.4892611" lon="12.3296697"><ele>452.0</ele><time>2026-04-18T09:07:59.945Z</time></trkpt><trkpt lat="43.4892287" lon="12.3298254"><ele>452.0</ele><time>2026-04-18T09:08:01.945Z</time></trkpt><trkpt lat="43.4892359" lon="12.3299138"><ele>452.0</ele><time>2026-04-18T09:08:02.946Z</time></trkpt><trkpt lat="43.4892595" lon="12.3300089"><ele>452.0</ele><time>2026-04-18T09:08:03.946Z</time></trkpt><trkpt lat="43.4892875" lon="12.330097"><ele>452.0</ele><time>2026-04-18T09:08:04.946Z</time></trkpt><trkpt lat="43.4893261" lon="12.3301864"><ele>452.0</ele><time>2026-04-18T09:08:05.944Z</time></trkpt><trkpt lat="43.4893686" lon="12.3302799"><ele>452.0</ele><time>2026-04-18T09:08:06.945Z</time></trkpt><trkpt lat="43.4894071" lon="12.3303743"><ele>452.0</ele><time>2026-04-18T09:08:07.944Z</time></trkpt><trkpt lat="43.4894421" lon="12.3304698"><ele>451.3333333333333</ele><time>2026-04-18T09:08:08.945Z</time></trkpt><trkpt lat="43.4894706" lon="12.3305701"><ele>450.66666666666663</ele><time>2026-04-18T09:08:09.946Z</time></trkpt><trkpt lat="43.4894957" lon="12.3306705"><ele>450.0</ele><time>2026-04-18T09:08:10.946Z</time></trkpt><trkpt lat="43.4895225" lon="12.3307652"><ele>449.33333333333337</ele><time>2026-04-18T09:08:11.946Z</time></trkpt><trkpt lat="43.4895487" lon="12.3308703"><ele>448.6666666666667</ele><time>2026-04-18T09:08:12.945Z</time></trkpt><trkpt lat="43.4896054" lon="12.3310335"><ele>448.0</ele><time>2026-04-18T09:08:14.945Z</time></trkpt><trkpt lat="43.4896401" lon="12.3311184"><ele>451.6666666666667</ele><time>2026-04-18T09:08:15.946Z</time></trkpt><trkpt lat="43.4896728" lon="12.3312163"><ele>455.33333333333337</ele><time>2026-04-18T09:08:16.945Z</time></trkpt><trkpt lat="43.4897119" lon="12.33131"><ele>459.0</ele><time>2026-04-18T09:08:17.945Z</time></trkpt><trkpt lat="43.4897475" lon="12.3313892"><ele>462.66666666666663</ele><time>2026-04-18T09:08:18.945Z</time></trkpt><trkpt lat="43.4897737" lon="12.3314943"><ele>466.3333333333333</ele><time>2026-04-18T09:08:19.945Z</time></trkpt><trkpt lat="43.4898178" lon="12.3316083"><ele>470.0</ele><time>2026-04-18T09:08:20.945Z</time></trkpt><trkpt lat="43.4898661" lon="12.3317519"><ele>470.0</ele><time>2026-04-18T09:08:21.945Z</time></trkpt><trkpt lat="43.489908" lon="12.3318926"><ele>470.0</ele><time>2026-04-18T09:08:22.944Z</time></trkpt><trkpt lat="43.4899593" lon="12.3320178"><ele>470.0</ele><time>2026-04-18T09:08:23.946Z</time></trkpt><trkpt lat="43.4900353" lon="12.3322121"><ele>470.0</ele><time>2026-04-18T09:08:25.946Z</time></trkpt><trkpt lat="43.490086" lon="12.3322792"><ele>470.0</ele><time>2026-04-18T09:08:26.945Z</time></trkpt><trkpt lat="43.4901404" lon="12.3323383"><ele>470.6</ele><time>2026-04-18T09:08:27.946Z</time></trkpt><trkpt lat="43.4902276" lon="12.3324098"><ele>471.2</ele><time>2026-04-18T09:08:29.945Z</time></trkpt><trkpt lat="43.4903234" lon="12.3324731"><ele>471.79999999999995</ele><time>2026-04-18T09:08:31.945Z</time></trkpt><trkpt lat="43.4904458" lon="12.332532"><ele>472.4</ele><time>2026-04-18T09:08:33.946Z</time></trkpt><trkpt lat="43.4905151" lon="12.3325556"><ele>473.0</ele><time>2026-04-18T09:08:34.945Z</time></trkpt><trkpt lat="43.4905784" lon="12.3325786"><ele>473.0</ele><time>2026-04-18T09:08:35.946Z</time></trkpt><trkpt lat="43.4906704" lon="12.3326083"><ele>472.99999999999994</ele><time>2026-04-18T09:08:36.945Z</time></trkpt><trkpt lat="43.4907515" lon="12.3326404"><ele>472.99999999999994</ele><time>2026-04-18T09:08:37.945Z</time></trkpt><trkpt lat="43.4908477" lon="12.3326575"><ele>473.0</ele><time>2026-04-18T09:08:38.945Z</time></trkpt><trkpt lat="43.4909461" lon="12.3326857"><ele>473.0</ele><time>2026-04-18T09:08:39.946Z</time></trkpt><trkpt lat="43.4910696" lon="12.3327315"><ele>473.0</ele><time>2026-04-18T09:08:40.945Z</time></trkpt><trkpt lat="43.4911929" lon="12.3327633"><ele>472.99999999999994</ele><time>2026-04-18T09:08:41.945Z</time></trkpt><trkpt lat="43.4912482" lon="12.3328378"><ele>472.99999999999994</ele><time>2026-04-18T09:08:42.946Z</time></trkpt><trkpt lat="43.4913262" lon="12.3328893"><ele>473.0</ele><time>2026-04-18T09:08:43.945Z</time></trkpt><trkpt lat="43.4913919" lon="12.3329553"><ele>473.0</ele><time>2026-04-18T09:08:44.944Z</time></trkpt><trkpt lat="43.4914553" lon="12.3330225"><ele>471.2</ele><time>2026-04-18T09:08:45.945Z</time></trkpt><trkpt lat="43.4915301" lon="12.3330902"><ele>469.4</ele><time>2026-04-18T09:08:46.945Z</time></trkpt><trkpt lat="43.4916396" lon="12.3331911"><ele>467.59999999999997</ele><time>2026-04-18T09:08:47.945Z</time></trkpt><trkpt lat="43.4917232" lon="12.333282"><ele>465.79999999999995</ele><time>2026-04-18T09:08:48.945Z</time></trkpt><trkpt lat="43.4918004" lon="12.3333602"><ele>464.0</ele><time>2026-04-18T09:08:49.944Z</time></trkpt><trkpt lat="43.4918811" lon="12.3334307"><ele>464.0</ele><time>2026-04-18T09:08:50.946Z</time></trkpt><trkpt lat="43.4919645" lon="12.3335186"><ele>464.0</ele><time>2026-04-18T09:08:51.945Z</time></trkpt><trkpt lat="43.4920483" lon="12.3335902"><ele>464.0</ele><time>2026-04-18T09:08:52.944Z</time></trkpt><trkpt lat="43.4921279" lon="12.3336535"><ele>464.0</ele><time>2026-04-18T09:08:53.945Z</time></trkpt><trkpt lat="43.4921905" lon="12.3337116"><ele>464.0</ele><time>2026-04-18T09:08:54.946Z</time></trkpt><trkpt lat="43.4922673" lon="12.3337706"><ele>463.49999999999994</ele><time>2026-04-18T09:08:55.946Z</time></trkpt><trkpt lat="43.4923358" lon="12.3338275"><ele>463.0</ele><time>2026-04-18T09:08:56.945Z</time></trkpt><trkpt lat="43.4924025" lon="12.3339016"><ele>462.5</ele><time>2026-04-18T09:08:57.944Z</time></trkpt><trkpt lat="43.4924742" lon="12.3339693"><ele>462.0</ele><time>2026-04-18T09:08:58.945Z</time></trkpt><trkpt lat="43.492566" lon="12.334002"><ele>461.49999999999994</ele><time>2026-04-18T09:08:59.944Z</time></trkpt><trkpt lat="43.4926608" lon="12.3340432"><ele>461.0</ele><time>2026-04-18T09:09:00.945Z</time></trkpt><trkpt lat="43.492746" lon="12.3340698"><ele>460.99999999999994</ele><time>2026-04-18T09:09:01.945Z</time></trkpt><trkpt lat="43.4928165" lon="12.3340876"><ele>461.0</ele><time>2026-04-18T09:09:02.945Z</time></trkpt><trkpt lat="43.4928977" lon="12.3340811"><ele>461.0</ele><time>2026-04-18T09:09:03.946Z</time></trkpt><trkpt lat="43.4929651" lon="12.3340812"><ele>461.0</ele><time>2026-04-18T09:09:04.946Z</time></trkpt><trkpt lat="43.4930364" lon="12.3340776"><ele>460.99999999999994</ele><time>2026-04-18T09:09:05.944Z</time></trkpt><trkpt lat="43.4931019" lon="12.3340526"><ele>461.0</ele><time>2026-04-18T09:09:06.946Z</time></trkpt><trkpt lat="43.4931907" lon="12.3339803"><ele>461.49999999999994</ele><time>2026-04-18T09:09:07.944Z</time></trkpt><trkpt lat="43.4932789" lon="12.3339345"><ele>462.0</ele><time>2026-04-18T09:09:08.945Z</time></trkpt><trkpt lat="43.4933646" lon="12.3338895"><ele>462.5</ele><time>2026-04-18T09:09:09.944Z</time></trkpt><trkpt lat="43.4934324" lon="12.3338185"><ele>463.0</ele><time>2026-04-18T09:09:10.946Z</time></trkpt><trkpt lat="43.4935034" lon="12.3337455"><ele>463.49999999999994</ele><time>2026-04-18T09:09:11.944Z</time></trkpt><trkpt lat="43.4935665" lon="12.3336862"><ele>464.0</ele><time>2026-04-18T09:09:12.945Z</time></trkpt><trkpt lat="43.4935146" lon="12.3335272"><ele>466.4</ele><time>2026-04-18T09:09:13.944Z</time></trkpt><trkpt lat="43.493525" lon="12.3334222"><ele>468.79999999999995</ele><time>2026-04-18T09:09:14.944Z</time></trkpt><trkpt lat="43.493588" lon="12.3332556"><ele>471.20000000000005</ele><time>2026-04-18T09:09:16.944Z</time></trkpt><trkpt lat="43.4936544" lon="12.3333027"><ele>473.6</ele><time>2026-04-18T09:09:17.945Z</time></trkpt><trkpt lat="43.493676" lon="12.3334163"><ele>476.0</ele><time>2026-04-18T09:09:18.946Z</time></trkpt><trkpt lat="43.4937016" lon="12.3335465"><ele>475.99999999999994</ele><time>2026-04-18T09:09:20.945Z</time></trkpt><trkpt lat="43.4936736" lon="12.3336464"><ele>476.0</ele><time>2026-04-18T09:09:21.945Z</time></trkpt><trkpt lat="43.4936502" lon="12.3337367"><ele>476.0</ele><time>2026-04-18T09:09:22.945Z</time></trkpt><trkpt lat="43.4936328" lon="12.3338378"><ele>476.0</ele><time>2026-04-18T09:09:23.945Z</time></trkpt><trkpt lat="43.4936395" lon="12.3339374"><ele>475.99999999999994</ele><time>2026-04-18T09:09:24.946Z</time></trkpt><trkpt lat="43.4936479" lon="12.3340351"><ele>476.0</ele><time>2026-04-18T09:09:25.945Z</time></trkpt><trkpt lat="43.4936374" lon="12.3342108"><ele>473.99999999999994</ele><time>2026-04-18T09:09:27.945Z</time></trkpt><trkpt lat="43.4936119" lon="12.3343106"><ele>472.0</ele><time>2026-04-18T09:09:28.946Z</time></trkpt><trkpt lat="43.4935877" lon="12.3344129"><ele>470.0</ele><time>2026-04-18T09:09:29.945Z</time></trkpt><trkpt lat="43.4935714" lon="12.3345156"><ele>468.0</ele><time>2026-04-18T09:09:30.946Z</time></trkpt><trkpt lat="43.4935793" lon="12.3346755"><ele>465.99999999999994</ele><time>2026-04-18T09:09:32.944Z</time></trkpt><trkpt lat="43.4936041" lon="12.3347602"><ele>464.0</ele><time>2026-04-18T09:09:33.946Z</time></trkpt><trkpt lat="43.4936728" lon="12.3349001"><ele>463.3333333333333</ele><time>2026-04-18T09:09:35.944Z</time></trkpt><trkpt lat="43.4937213" lon="12.3349577"><ele>462.66666666666663</ele><time>2026-04-18T09:09:36.945Z</time></trkpt><trkpt lat="43.4937877" lon="12.3350043"><ele>462.0</ele><time>2026-04-18T09:09:37.946Z</time></trkpt><trkpt lat="43.4938549" lon="12.335059"><ele>461.33333333333337</ele><time>2026-04-18T09:09:38.945Z</time></trkpt><trkpt lat="43.4939253" lon="12.33512"><ele>460.6666666666667</ele><time>2026-04-18T09:09:39.946Z</time></trkpt><trkpt lat="43.4939927" lon="12.3351626"><ele>460.0</ele><time>2026-04-18T09:09:40.944Z</time></trkpt><trkpt lat="43.4940727" lon="12.3352708"><ele>460.1666666666667</ele><time>2026-04-18T09:09:42.944Z</time></trkpt><trkpt lat="43.4941274" lon="12.3354151"><ele>460.33333333333337</ele><time>2026-04-18T09:09:44.945Z</time></trkpt><trkpt lat="43.4941657" lon="12.3354889"><ele>460.5</ele><time>2026-04-18T09:09:45.944Z</time></trkpt><trkpt lat="43.4942167" lon="12.3355599"><ele>460.66666666666663</ele><time>2026-04-18T09:09:46.946Z</time></trkpt><trkpt lat="43.4942674" lon="12.3356184"><ele>460.8333333333333</ele><time>2026-04-18T09:09:47.945Z</time></trkpt><trkpt lat="43.494352" lon="12.33571"><ele>461.0</ele><time>2026-04-18T09:09:49.945Z</time></trkpt><trkpt lat="43.4944747" lon="12.335747"><ele>463.20000000000005</ele><time>2026-04-18T09:09:51.945Z</time></trkpt><trkpt lat="43.494604" lon="12.3357418"><ele>465.40000000000003</ele><time>2026-04-18T09:09:53.944Z</time></trkpt><trkpt lat="43.4946882" lon="12.3357415"><ele>467.6</ele><time>2026-04-18T09:09:54.944Z</time></trkpt><trkpt lat="43.4947906" lon="12.3357587"><ele>469.8</ele><time>2026-04-18T09:09:55.944Z</time></trkpt><trkpt lat="43.4948761" lon="12.3357676"><ele>472.0</ele><time>2026-04-18T09:09:56.945Z</time></trkpt><trkpt lat="43.4950885" lon="12.3358103"><ele>472.0</ele><time>2026-04-18T09:09:58.946Z</time></trkpt><trkpt lat="43.4952262" lon="12.3358487"><ele>472.0</ele><time>2026-04-18T09:09:59.945Z</time></trkpt><trkpt lat="43.4953496" lon="12.335894"><ele>472.0</ele><time>2026-04-18T09:10:00.944Z</time></trkpt><trkpt lat="43.4954584" lon="12.3359271"><ele>472.0</ele><time>2026-04-18T09:10:01.945Z</time></trkpt><trkpt lat="43.4955693" lon="12.3359556"><ele>473.6</ele><time>2026-04-18T09:10:02.945Z</time></trkpt><trkpt lat="43.4956749" lon="12.3359837"><ele>475.20000000000005</ele><time>2026-04-18T09:10:03.946Z</time></trkpt><trkpt lat="43.4957821" lon="12.3360181"><ele>476.8</ele><time>2026-04-18T09:10:04.944Z</time></trkpt><trkpt lat="43.4958895" lon="12.336053"><ele>478.4</ele><time>2026-04-18T09:10:05.945Z</time></trkpt><trkpt lat="43.4959993" lon="12.3360835"><ele>480.0</ele><time>2026-04-18T09:10:06.945Z</time></trkpt><trkpt lat="43.4960978" lon="12.3361264"><ele>480.0</ele><time>2026-04-18T09:10:07.944Z</time></trkpt><trkpt lat="43.4961961" lon="12.3361711"><ele>480.0</ele><time>2026-04-18T09:10:08.945Z</time></trkpt><trkpt lat="43.4963118" lon="12.3361967"><ele>480.0</ele><time>2026-04-18T09:10:09.946Z</time></trkpt><trkpt lat="43.4964181" lon="12.3362244"><ele>480.0</ele><time>2026-04-18T09:10:10.944Z</time></trkpt><trkpt lat="43.4965222" lon="12.3362577"><ele>480.0</ele><time>2026-04-18T09:10:11.944Z</time></trkpt><trkpt lat="43.4966187" lon="12.3362963"><ele>478.8333333333333</ele><time>2026-04-18T09:10:12.945Z</time></trkpt><trkpt lat="43.496697" lon="12.3363338"><ele>477.66666666666663</ele><time>2026-04-18T09:10:13.944Z</time></trkpt><trkpt lat="43.4967677" lon="12.3363541"><ele>476.5</ele><time>2026-04-18T09:10:14.945Z</time></trkpt><trkpt lat="43.4968406" lon="12.3363784"><ele>475.3333333333333</ele><time>2026-04-18T09:10:15.946Z</time></trkpt><trkpt lat="43.4969165" lon="12.3364073"><ele>474.16666666666663</ele><time>2026-04-18T09:10:16.946Z</time></trkpt><trkpt lat="43.4969967" lon="12.336435"><ele>473.0</ele><time>2026-04-18T09:10:17.945Z</time></trkpt><trkpt lat="43.4970757" lon="12.3364737"><ele>473.99999999999994</ele><time>2026-04-18T09:10:18.945Z</time></trkpt><trkpt lat="43.4971666" lon="12.3365021"><ele>475.0</ele><time>2026-04-18T09:10:19.945Z</time></trkpt><trkpt lat="43.4972489" lon="12.3365436"><ele>476.0</ele><time>2026-04-18T09:10:20.945Z</time></trkpt><trkpt lat="43.497325" lon="12.3365729"><ele>477.0</ele><time>2026-04-18T09:10:21.946Z</time></trkpt><trkpt lat="43.4974018" lon="12.3365964"><ele>477.99999999999994</ele><time>2026-04-18T09:10:22.946Z</time></trkpt><trkpt lat="43.4974768" lon="12.3366127"><ele>479.0</ele><time>2026-04-18T09:10:23.945Z</time></trkpt><trkpt lat="43.4975482" lon="12.3366239"><ele>479.0</ele><time>2026-04-18T09:10:24.946Z</time></trkpt><trkpt lat="43.4976157" lon="12.3366247"><ele>479.0</ele><time>2026-04-18T09:10:25.944Z</time></trkpt><trkpt lat="43.4976867" lon="12.3366206"><ele>479.0</ele><time>2026-04-18T09:10:26.945Z</time></trkpt><trkpt lat="43.497759" lon="12.3366249"><ele>479.0</ele><time>2026-04-18T09:10:27.944Z</time></trkpt><trkpt lat="43.4978218" lon="12.3366559"><ele>479.0</ele><time>2026-04-18T09:10:28.944Z</time></trkpt><trkpt lat="43.4978857" lon="12.3366899"><ele>479.0</ele><time>2026-04-18T09:10:29.946Z</time></trkpt><trkpt lat="43.4979794" lon="12.3367488"><ele>479.0</ele><time>2026-04-18T09:10:31.945Z</time></trkpt><trkpt lat="43.4980851" lon="12.3368238"><ele>478.66666666666663</ele><time>2026-04-18T09:10:33.946Z</time></trkpt><trkpt lat="43.4981382" lon="12.3368773"><ele>478.3333333333333</ele><time>2026-04-18T09:10:34.946Z</time></trkpt><trkpt lat="43.4981918" lon="12.3369541"><ele>478.0</ele><time>2026-04-18T09:10:35.946Z</time></trkpt><trkpt lat="43.4982456" lon="12.33703"><ele>477.66666666666663</ele><time>2026-04-18T09:10:36.945Z</time></trkpt><trkpt lat="43.4983095" lon="12.3371186"><ele>477.3333333333333</ele><time>2026-04-18T09:10:37.945Z</time></trkpt><trkpt lat="43.4983682" lon="12.337193"><ele>477.0</ele><time>2026-04-18T09:10:38.945Z</time></trkpt><trkpt lat="43.4984255" lon="12.3372636"><ele>477.0</ele><time>2026-04-18T09:10:39.944Z</time></trkpt><trkpt lat="43.4984896" lon="12.337328"><ele>477.0</ele><time>2026-04-18T09:10:40.946Z</time></trkpt><trkpt lat="43.4985607" lon="12.3373804"><ele>477.0</ele><time>2026-04-18T09:10:41.945Z</time></trkpt><trkpt lat="43.4986332" lon="12.3374144"><ele>477.0</ele><time>2026-04-18T09:10:42.944Z</time></trkpt><trkpt lat="43.4987058" lon="12.3374447"><ele>477.0</ele><time>2026-04-18T09:10:43.945Z</time></trkpt><trkpt lat="43.4987876" lon="12.3374798"><ele>477.0</ele><time>2026-04-18T09:10:44.945Z</time></trkpt><trkpt lat="43.4988674" lon="12.3375105"><ele>478.1666666666667</ele><time>2026-04-18T09:10:45.944Z</time></trkpt><trkpt lat="43.4989507" lon="12.3375371"><ele>479.33333333333337</ele><time>2026-04-18T09:10:46.945Z</time></trkpt><trkpt lat="43.4990314" lon="12.3375752"><ele>480.5</ele><time>2026-04-18T09:10:47.944Z</time></trkpt><trkpt lat="43.4991114" lon="12.337608"><ele>481.6666666666667</ele><time>2026-04-18T09:10:48.944Z</time></trkpt><trkpt lat="43.4992" lon="12.3376257"><ele>482.83333333333337</ele><time>2026-04-18T09:10:49.945Z</time></trkpt><trkpt lat="43.4992977" lon="12.3376404"><ele>484.0</ele><time>2026-04-18T09:10:50.944Z</time></trkpt><trkpt lat="43.4993861" lon="12.337657"><ele>484.00000000000006</ele><time>2026-04-18T09:10:51.945Z</time></trkpt><trkpt lat="43.4994664" lon="12.3376773"><ele>484.0</ele><time>2026-04-18T09:10:52.945Z</time></trkpt><trkpt lat="43.499545" lon="12.3377021"><ele>484.0</ele><time>2026-04-18T09:10:53.945Z</time></trkpt><trkpt lat="43.4996082" lon="12.3377293"><ele>484.0</ele><time>2026-04-18T09:10:54.944Z</time></trkpt><trkpt lat="43.4996899" lon="12.3377827"><ele>484.00000000000006</ele><time>2026-04-18T09:10:56.945Z</time></trkpt><trkpt lat="43.4997931" lon="12.3377806"><ele>484.0</ele><time>2026-04-18T09:10:58.944Z</time></trkpt><trkpt lat="43.4998448" lon="12.337853"><ele>484.0</ele><time>2026-04-18T09:11:00.945Z</time></trkpt><trkpt lat="43.4998823" lon="12.3380042"><ele>484.0</ele><time>2026-04-18T09:11:02.946Z</time></trkpt><trkpt lat="43.49991" lon="12.338084"><ele>484.0</ele><time>2026-04-18T09:11:03.946Z</time></trkpt><trkpt lat="43.4999497" lon="12.3381582"><ele>484.0</ele><time>2026-04-18T09:11:04.945Z</time></trkpt><trkpt lat="43.5000059" lon="12.3382857"><ele>484.0</ele><time>2026-04-18T09:11:06.944Z</time></trkpt><trkpt lat="43.5000716" lon="12.3383862"><ele>484.0</ele><time>2026-04-18T09:11:08.945Z</time></trkpt><trkpt lat="43.5001501" lon="12.3384772"><ele>484.0</ele><time>2026-04-18T09:11:10.945Z</time></trkpt><trkpt lat="43.5002433" lon="12.3385526"><ele>484.0</ele><time>2026-04-18T09:11:12.945Z</time></trkpt><trkpt lat="43.5003371" lon="12.3386343"><ele>484.0</ele><time>2026-04-18T09:11:14.945Z</time></trkpt><trkpt lat="43.5004227" lon="12.3387073"><ele>484.0</ele><time>2026-04-18T09:11:16.945Z</time></trkpt><trkpt lat="43.5004731" lon="12.3387627"><ele>484.4</ele><time>2026-04-18T09:11:17.945Z</time></trkpt><trkpt lat="43.5005443" lon="12.3388617"><ele>484.79999999999995</ele><time>2026-04-18T09:11:19.945Z</time></trkpt><trkpt lat="43.500607" lon="12.3389822"><ele>485.20000000000005</ele><time>2026-04-18T09:11:21.944Z</time></trkpt><trkpt lat="43.5006396" lon="12.3391281"><ele>485.6</ele><time>2026-04-18T09:11:23.945Z</time></trkpt><trkpt lat="43.5006431" lon="12.3392936"><ele>486.0</ele><time>2026-04-18T09:11:25.945Z</time></trkpt><trkpt lat="43.5006532" lon="12.3394174"><ele>486.0</ele><time>2026-04-18T09:11:26.944Z</time></trkpt><trkpt lat="43.500681" lon="12.3395906"><ele>486.0</ele><time>2026-04-18T09:11:27.946Z</time></trkpt><trkpt lat="43.500734" lon="12.33972"><ele>486.0</ele><time>2026-04-18T09:11:28.944Z</time></trkpt><trkpt lat="43.5007783" lon="12.3398258"><ele>486.0</ele><time>2026-04-18T09:11:29.944Z</time></trkpt><trkpt lat="43.500835" lon="12.339932"><ele>486.0</ele><time>2026-04-18T09:11:30.946Z</time></trkpt><trkpt lat="43.5008861" lon="12.3400272"><ele>486.8333333333333</ele><time>2026-04-18T09:11:31.945Z</time></trkpt><trkpt lat="43.5009216" lon="12.3401282"><ele>487.66666666666663</ele><time>2026-04-18T09:11:32.945Z</time></trkpt><trkpt lat="43.5009709" lon="12.34025"><ele>488.5</ele><time>2026-04-18T09:11:33.945Z</time></trkpt><trkpt lat="43.501021" lon="12.3403473"><ele>489.3333333333333</ele><time>2026-04-18T09:11:34.945Z</time></trkpt><trkpt lat="43.5010608" lon="12.3404417"><ele>490.16666666666663</ele><time>2026-04-18T09:11:35.945Z</time></trkpt><trkpt lat="43.5011153" lon="12.3405203"><ele>491.0</ele><time>2026-04-18T09:11:36.944Z</time></trkpt><trkpt lat="43.5011706" lon="12.3405997"><ele>491.4285714285714</ele><time>2026-04-18T09:11:37.946Z</time></trkpt><trkpt lat="43.5012193" lon="12.3406654"><ele>491.8571428571428</ele><time>2026-04-18T09:11:38.946Z</time></trkpt><trkpt lat="43.5012728" lon="12.3407275"><ele>492.2857142857143</ele><time>2026-04-18T09:11:39.944Z</time></trkpt><trkpt lat="43.5013225" lon="12.3408043"><ele>492.71428571428567</ele><time>2026-04-18T09:11:40.944Z</time></trkpt><trkpt lat="43.5013738" lon="12.3408791"><ele>493.1428571428571</ele><time>2026-04-18T09:11:41.946Z</time></trkpt><trkpt lat="43.5014089" lon="12.3409638"><ele>493.57142857142856</ele><time>2026-04-18T09:11:42.945Z</time></trkpt><trkpt lat="43.501441" lon="12.3410536"><ele>494.0</ele><time>2026-04-18T09:11:43.946Z</time></trkpt><trkpt lat="43.5014757" lon="12.3411488"><ele>496.49999999999994</ele><time>2026-04-18T09:11:44.945Z</time></trkpt><trkpt lat="43.5014989" lon="12.3412362"><ele>499.0</ele><time>2026-04-18T09:11:45.945Z</time></trkpt><trkpt lat="43.5015192" lon="12.3413275"><ele>501.5</ele><time>2026-04-18T09:11:46.945Z</time></trkpt><trkpt lat="43.5015429" lon="12.3414123"><ele>504.0</ele><time>2026-04-18T09:11:47.945Z</time></trkpt><trkpt lat="43.5015615" lon="12.3414985"><ele>506.49999999999994</ele><time>2026-04-18T09:11:48.945Z</time></trkpt><trkpt lat="43.5016148" lon="12.3416373"><ele>509.0</ele><time>2026-04-18T09:11:49.945Z</time></trkpt><trkpt lat="43.5016545" lon="12.3417318"><ele>508.99999999999994</ele><time>2026-04-18T09:11:50.945Z</time></trkpt><trkpt lat="43.5016597" lon="12.3418765"><ele>509.0</ele><time>2026-04-18T09:11:51.944Z</time></trkpt><trkpt lat="43.5016723" lon="12.3419878"><ele>509.0</ele><time>2026-04-18T09:11:52.946Z</time></trkpt><trkpt lat="43.5017135" lon="12.3421061"><ele>509.0</ele><time>2026-04-18T09:11:53.945Z</time></trkpt><trkpt lat="43.5017183" lon="12.3422164"><ele>508.99999999999994</ele><time>2026-04-18T09:11:54.945Z</time></trkpt><trkpt lat="43.5017611" lon="12.3422929"><ele>509.0</ele><time>2026-04-18T09:11:55.945Z</time></trkpt><trkpt lat="43.5017691" lon="12.3424046"><ele>507.8333333333333</ele><time>2026-04-18T09:11:56.945Z</time></trkpt><trkpt lat="43.5017792" lon="12.3425344"><ele>506.66666666666663</ele><time>2026-04-18T09:11:57.944Z</time></trkpt><trkpt lat="43.5017994" lon="12.3426454"><ele>505.5</ele><time>2026-04-18T09:11:58.945Z</time></trkpt><trkpt lat="43.501799" lon="12.3427512"><ele>504.33333333333337</ele><time>2026-04-18T09:11:59.944Z</time></trkpt><trkpt lat="43.5018588" lon="12.3428878"><ele>503.1666666666667</ele><time>2026-04-18T09:12:01.945Z</time></trkpt><trkpt lat="43.501891" lon="12.3429708"><ele>502.0</ele><time>2026-04-18T09:12:02.945Z</time></trkpt><trkpt lat="43.5019347" lon="12.3430623"><ele>501.99999999999994</ele><time>2026-04-18T09:12:03.945Z</time></trkpt><trkpt lat="43.5019693" lon="12.3431425"><ele>502.0</ele><time>2026-04-18T09:12:04.944Z</time></trkpt><trkpt lat="43.5020088" lon="12.3432205"><ele>501.99999999999994</ele><time>2026-04-18T09:12:05.945Z</time></trkpt><trkpt lat="43.5020521" lon="12.3432946"><ele>501.99999999999994</ele><time>2026-04-18T09:12:06.945Z</time></trkpt><trkpt lat="43.502089" lon="12.343373"><ele>502.0</ele><time>2026-04-18T09:12:07.945Z</time></trkpt><trkpt lat="43.5021222" lon="12.3434645"><ele>501.99999999999994</ele><time>2026-04-18T09:12:08.945Z</time></trkpt><trkpt lat="43.5021745" lon="12.3435774"><ele>501.99999999999994</ele><time>2026-04-18T09:12:09.945Z</time></trkpt><trkpt lat="43.5022258" lon="12.3436833"><ele>504.50000000000006</ele><time>2026-04-18T09:12:10.945Z</time></trkpt><trkpt lat="43.502261" lon="12.343776"><ele>507.0</ele><time>2026-04-18T09:12:11.946Z</time></trkpt><trkpt lat="43.5023002" lon="12.3438754"><ele>509.5</ele><time>2026-04-18T09:12:12.945Z</time></trkpt><trkpt lat="43.5023441" lon="12.343958"><ele>512.0</ele><time>2026-04-18T09:12:13.946Z</time></trkpt><trkpt lat="43.5024062" lon="12.3440414"><ele>514.5</ele><time>2026-04-18T09:12:14.945Z</time></trkpt><trkpt lat="43.5024677" lon="12.3441986"><ele>517.0</ele><time>2026-04-18T09:12:16.944Z</time></trkpt><trkpt lat="43.5024556" lon="12.34435"><ele>517.0</ele><time>2026-04-18T09:12:17.944Z</time></trkpt><trkpt lat="43.5024574" lon="12.3444543"><ele>517.0</ele><time>2026-04-18T09:12:18.946Z</time></trkpt><trkpt lat="43.5024572" lon="12.3445812"><ele>517.0</ele><time>2026-04-18T09:12:19.945Z</time></trkpt><trkpt lat="43.5024808" lon="12.3448022"><ele>517.0</ele><time>2026-04-18T09:12:21.945Z</time></trkpt><trkpt lat="43.5024829" lon="12.3449068"><ele>517.0</ele><time>2026-04-18T09:12:22.944Z</time></trkpt><trkpt lat="43.5024907" lon="12.3450914"><ele>516.8000000000001</ele><time>2026-04-18T09:12:24.946Z</time></trkpt><trkpt lat="43.5025022" lon="12.3452032"><ele>516.6</ele><time>2026-04-18T09:12:25.946Z</time></trkpt><trkpt lat="43.5025236" lon="12.3453059"><ele>516.4000000000001</ele><time>2026-04-18T09:12:26.946Z</time></trkpt><trkpt lat="43.5025459" lon="12.3454309"><ele>516.2</ele><time>2026-04-18T09:12:27.945Z</time></trkpt><trkpt lat="43.5025708" lon="12.3455622"><ele>516.0</ele><time>2026-04-18T09:12:28.944Z</time></trkpt><trkpt lat="43.5025871" lon="12.3457069"><ele>515.2</ele><time>2026-04-18T09:12:29.945Z</time></trkpt><trkpt lat="43.50261" lon="12.3459655"><ele>514.4000000000001</ele><time>2026-04-18T09:12:30.946Z</time></trkpt><trkpt lat="43.502641" lon="12.3460663"><ele>513.6</ele><time>2026-04-18T09:12:31.945Z</time></trkpt><trkpt lat="43.5026873" lon="12.3461364"><ele>512.8000000000001</ele><time>2026-04-18T09:12:32.944Z</time></trkpt><trkpt lat="43.5027269" lon="12.3462046"><ele>512.0</ele><time>2026-04-18T09:12:33.946Z</time></trkpt><trkpt lat="43.5028188" lon="12.3462826"><ele>511.99999999999994</ele><time>2026-04-18T09:12:35.944Z</time></trkpt><trkpt lat="43.5028924" lon="12.3463077"><ele>512.0</ele><time>2026-04-18T09:12:36.945Z</time></trkpt><trkpt lat="43.5029782" lon="12.3463393"><ele>512.0</ele><time>2026-04-18T09:12:38.944Z</time></trkpt><trkpt lat="43.5030192" lon="12.3464385"><ele>512.0</ele><time>2026-04-18T09:12:42.946Z</time></trkpt><trkpt lat="43.5030416" lon="12.3465253"><ele>511.99999999999994</ele><time>2026-04-18T09:12:45.946Z</time></trkpt><trkpt lat="43.5030868" lon="12.3466438"><ele>512.0</ele><time>2026-04-18T09:12:47.945Z</time></trkpt><trkpt lat="43.5031451" lon="12.3467353"><ele>513.6666666666666</ele><time>2026-04-18T09:12:49.944Z</time></trkpt><trkpt lat="43.5032219" lon="12.3468862"><ele>515.3333333333334</ele><time>2026-04-18T09:12:51.945Z</time></trkpt><trkpt lat="43.5033002" lon="12.3471611"><ele>517.0</ele><time>2026-04-18T09:12:52.944Z</time></trkpt><trkpt lat="43.5033163" lon="12.3473349"><ele>517.0</ele><time>2026-04-18T09:12:53.944Z</time></trkpt><trkpt lat="43.5033884" lon="12.3473737"><ele>517.0</ele><time>2026-04-18T09:12:54.944Z</time></trkpt><trkpt lat="43.503416" lon="12.3474565"><ele>517.0</ele><time>2026-04-18T09:12:56.944Z</time></trkpt><trkpt lat="43.5034614" lon="12.347554"><ele>517.0</ele><time>2026-04-18T09:12:58.946Z</time></trkpt><trkpt lat="43.5033935" lon="12.3475588"><ele>517.0</ele><time>2026-04-18T09:13:01.945Z</time></trkpt><trkpt lat="43.5033185" lon="12.3475457"><ele>517.0</ele><time>2026-04-18T09:13:03.944Z</time></trkpt><trkpt lat="43.5032556" lon="12.3475689"><ele>517.0</ele><time>2026-04-18T09:13:05.945Z</time></trkpt><trkpt lat="43.5031701" lon="12.3475173"><ele>517.0</ele><time>2026-04-18T09:13:08.945Z</time></trkpt><trkpt lat="43.5031168" lon="12.3474583"><ele>517.0</ele><time>2026-04-18T09:13:10.944Z</time></trkpt><trkpt lat="43.5030632" lon="12.3474087"><ele>517.0</ele><time>2026-04-18T09:13:18.944Z</time></trkpt><trkpt lat="43.5029774" lon="12.3473292"><ele>517.0</ele><time>2026-04-18T09:13:57.944Z</time></trkpt><trkpt lat="43.5029037" lon="12.3473518"><ele>517.0</ele><time>2026-04-18T09:14:02.944Z</time></trkpt><trkpt lat="43.5028164" lon="12.3473305"><ele>517.0</ele><time>2026-04-18T09:14:05.946Z</time></trkpt><trkpt lat="43.5027442" lon="12.3473326"><ele>516.4</ele><time>2026-04-18T09:14:07.945Z</time></trkpt><trkpt lat="43.5026513" lon="12.3473293"><ele>515.8000000000001</ele><time>2026-04-18T09:14:09.946Z</time></trkpt><trkpt lat="43.5025449" lon="12.3473012"><ele>515.2</ele><time>2026-04-18T09:14:10.944Z</time></trkpt><trkpt lat="43.5024693" lon="12.3472161"><ele>514.6</ele><time>2026-04-18T09:14:11.945Z</time></trkpt><trkpt lat="43.5023795" lon="12.347126"><ele>514.0</ele><time>2026-04-18T09:14:12.945Z</time></trkpt><trkpt lat="43.502299" lon="12.3470526"><ele>514.0</ele><time>2026-04-18T09:14:13.945Z</time></trkpt><trkpt lat="43.5022032" lon="12.346938"><ele>514.0</ele><time>2026-04-18T09:14:14.945Z</time></trkpt><trkpt lat="43.5020964" lon="12.3468408"><ele>514.0</ele><time>2026-04-18T09:14:15.944Z</time></trkpt><trkpt lat="43.5020002" lon="12.3467509"><ele>514.0</ele><time>2026-04-18T09:14:16.946Z</time></trkpt><trkpt lat="43.5019238" lon="12.3466741"><ele>517.4</ele><time>2026-04-18T09:14:17.946Z</time></trkpt><trkpt lat="43.5018504" lon="12.3465113"><ele>520.8</ele><time>2026-04-18T09:14:18.945Z</time></trkpt><trkpt lat="43.5017757" lon="12.3464111"><ele>524.2</ele><time>2026-04-18T09:14:20.945Z</time></trkpt><trkpt lat="43.5016948" lon="12.3464005"><ele>527.6</ele><time>2026-04-18T09:14:28.944Z</time></trkpt><trkpt lat="43.5016188" lon="12.346386"><ele>531.0</ele><time>2026-04-18T09:14:32.944Z</time></trkpt><trkpt lat="43.5015519" lon="12.3463843"><ele>532.6</ele><time>2026-04-18T09:14:34.944Z</time></trkpt><trkpt lat="43.5014736" lon="12.3463382"><ele>534.2</ele><time>2026-04-18T09:14:36.945Z</time></trkpt><trkpt lat="43.5014095" lon="12.3461805"><ele>535.8</ele><time>2026-04-18T09:14:37.945Z</time></trkpt><trkpt lat="43.5013423" lon="12.3461298"><ele>537.4</ele><time>2026-04-18T09:14:38.945Z</time></trkpt><trkpt lat="43.5012653" lon="12.3460698"><ele>539.0</ele><time>2026-04-18T09:14:40.945Z</time></trkpt><trkpt lat="43.5012217" lon="12.3459753"><ele>539.0</ele><time>2026-04-18T09:14:41.945Z</time></trkpt><trkpt lat="43.5011713" lon="12.3458703"><ele>539.0</ele><time>2026-04-18T09:14:42.944Z</time></trkpt><trkpt lat="43.5011268" lon="12.345748"><ele>539.0</ele><time>2026-04-18T09:14:43.945Z</time></trkpt><trkpt lat="43.5010864" lon="12.3456499"><ele>539.0</ele><time>2026-04-18T09:14:44.945Z</time></trkpt><trkpt lat="43.5011074" lon="12.3454565"><ele>539.0</ele><time>2026-04-18T09:14:45.945Z</time></trkpt><trkpt lat="43.5010838" lon="12.3453549"><ele>537.0</ele><time>2026-04-18T09:14:46.945Z</time></trkpt><trkpt lat="43.5010599" lon="12.3452513"><ele>535.0</ele><time>2026-04-18T09:14:47.946Z</time></trkpt><trkpt lat="43.5010133" lon="12.3451641"><ele>533.0</ele><time>2026-04-18T09:14:48.945Z</time></trkpt><trkpt lat="43.5009316" lon="12.3451358"><ele>531.0</ele><time>2026-04-18T09:14:50.944Z</time></trkpt><trkpt lat="43.5008402" lon="12.3450643"><ele>529.0</ele><time>2026-04-18T09:14:51.944Z</time></trkpt><trkpt lat="43.5008869" lon="12.34514"><ele>527.0</ele><time>2026-04-18T09:14:55.945Z</time></trkpt><trkpt lat="43.5009281" lon="12.3452157"><ele>527.0</ele><time>2026-04-18T09:14:57.946Z</time></trkpt><trkpt lat="43.5009491" lon="12.3453143"><ele>527.0</ele><time>2026-04-18T09:14:59.944Z</time></trkpt><trkpt lat="43.500969" lon="12.3454571"><ele>527.0</ele><time>2026-04-18T09:15:00.944Z</time></trkpt><trkpt lat="43.5009901" lon="12.3457196"><ele>527.0</ele><time>2026-04-18T09:15:01.945Z</time></trkpt><trkpt lat="43.5009908" lon="12.345811"><ele>527.0</ele><time>2026-04-18T09:15:02.945Z</time></trkpt><trkpt lat="43.5009821" lon="12.3459188"><ele>531.0</ele><time>2026-04-18T09:15:03.945Z</time></trkpt><trkpt lat="43.5009742" lon="12.3460155"><ele>535.0</ele><time>2026-04-18T09:15:05.945Z</time></trkpt><trkpt lat="43.5010819" lon="12.3463069"><ele>539.0</ele><time>2026-04-18T09:15:09.945Z</time></trkpt><trkpt lat="43.5010817" lon="12.3465024"><ele>537.6666666666666</ele><time>2026-04-18T09:15:11.945Z</time></trkpt><trkpt lat="43.5011434" lon="12.3465502"><ele>536.3333333333333</ele><time>2026-04-18T09:15:15.944Z</time></trkpt><trkpt lat="43.5011579" lon="12.3466357"><ele>535.0</ele><time>2026-04-18T09:15:17.944Z</time></trkpt><trkpt lat="43.5011849" lon="12.3467219"><ele>533.6666666666666</ele><time>2026-04-18T09:15:18.945Z</time></trkpt><trkpt lat="43.5012636" lon="12.3468861"><ele>532.3333333333334</ele><time>2026-04-18T09:15:20.945Z</time></trkpt><trkpt lat="43.501274" lon="12.34702"><ele>531.0</ele><time>2026-04-18T09:15:22.945Z</time></trkpt><trkpt lat="43.5012406" lon="12.3470978"><ele>534.8</ele><time>2026-04-18T09:15:24.946Z</time></trkpt><trkpt lat="43.5012491" lon="12.3472186"><ele>538.6</ele><time>2026-04-18T09:15:27.946Z</time></trkpt><trkpt lat="43.5013119" lon="12.3472999"><ele>542.4</ele><time>2026-04-18T09:15:29.945Z</time></trkpt><trkpt lat="43.5013634" lon="12.3474097"><ele>546.2</ele><time>2026-04-18T09:15:32.945Z</time></trkpt><trkpt lat="43.5014204" lon="12.3475367"><ele>550.0</ele><time>2026-04-18T09:15:33.945Z</time></trkpt><trkpt lat="43.5014784" lon="12.3476349"><ele>550.0</ele><time>2026-04-18T09:15:34.944Z</time></trkpt><trkpt lat="43.5015711" lon="12.3476657"><ele>550.0</ele><time>2026-04-18T09:15:35.944Z</time></trkpt><trkpt lat="43.5016261" lon="12.3477329"><ele>550.0</ele><time>2026-04-18T09:15:36.945Z</time></trkpt><trkpt lat="43.5017461" lon="12.3477795"><ele>550.0</ele><time>2026-04-18T09:15:38.945Z</time></trkpt><trkpt lat="43.5018146" lon="12.3478243"><ele>550.0</ele><time>2026-04-18T09:15:40.945Z</time></trkpt><trkpt lat="43.5018699" lon="12.3478782"><ele>550.0</ele><time>2026-04-18T09:15:42.946Z</time></trkpt><trkpt lat="43.5019242" lon="12.347957"><ele>553.3333333333334</ele><time>2026-04-18T09:15:45.946Z</time></trkpt><trkpt lat="43.5019405" lon="12.3480525"><ele>556.6666666666667</ele><time>2026-04-18T09:15:47.945Z</time></trkpt><trkpt lat="43.501871" lon="12.3481792"><ele>560.0</ele><time>2026-04-18T09:15:49.945Z</time></trkpt><trkpt lat="43.5018125" lon="12.3482364"><ele>563.3333333333334</ele><time>2026-04-18T09:15:51.945Z</time></trkpt><trkpt lat="43.5017467" lon="12.3482779"><ele>566.6666666666666</ele><time>2026-04-18T09:15:54.945Z</time></trkpt><trkpt lat="43.5016973" lon="12.3483371"><ele>570.0</ele><time>2026-04-18T09:15:55.945Z</time></trkpt><trkpt lat="43.5015781" lon="12.3485087"><ele>570.0</ele><time>2026-04-18T09:15:56.945Z</time></trkpt><trkpt lat="43.5014829" lon="12.3486963"><ele>570.0</ele><time>2026-04-18T09:15:57.945Z</time></trkpt><trkpt lat="43.5014363" lon="12.3487924"><ele>570.0</ele><time>2026-04-18T09:16:00.946Z</time></trkpt><trkpt lat="43.5013756" lon="12.3488389"><ele>570.0</ele><time>2026-04-18T09:16:02.945Z</time></trkpt><trkpt lat="43.5013051" lon="12.3489169"><ele>570.0</ele><time>2026-04-18T09:16:05.945Z</time></trkpt><trkpt lat="43.5012365" lon="12.3489821"><ele>575.25</ele><time>2026-04-18T09:16:07.944Z</time></trkpt><trkpt lat="43.5010938" lon="12.3491417"><ele>580.5</ele><time>2026-04-18T09:16:09.944Z</time></trkpt><trkpt lat="43.5010168" lon="12.3491958"><ele>585.75</ele><time>2026-04-18T09:16:10.945Z</time></trkpt><trkpt lat="43.5008914" lon="12.3493411"><ele>591.0</ele><time>2026-04-18T09:16:12.945Z</time></trkpt><trkpt lat="43.5007841" lon="12.3494282"><ele>591.0</ele><time>2026-04-18T09:16:24.945Z</time></trkpt><trkpt lat="43.5007648" lon="12.3495361"><ele>591.0</ele><time>2026-04-18T09:16:29.945Z</time></trkpt><trkpt lat="43.5007864" lon="12.3496344"><ele>591.0</ele><time>2026-04-18T09:16:32.945Z</time></trkpt><trkpt lat="43.5008296" lon="12.3497495"><ele>591.0</ele><time>2026-04-18T09:16:35.945Z</time></trkpt><trkpt lat="43.5008663" lon="12.349824"><ele>591.0</ele><time>2026-04-18T09:16:37.945Z</time></trkpt><trkpt lat="43.5008933" lon="12.3499048"><ele>591.0</ele><time>2026-04-18T09:16:39.946Z</time></trkpt><trkpt lat="43.5009572" lon="12.3499937"><ele>595.0</ele><time>2026-04-18T09:16:41.945Z</time></trkpt><trkpt lat="43.5010479" lon="12.3500475"><ele>599.0</ele><time>2026-04-18T09:16:43.944Z</time></trkpt><trkpt lat="43.5011402" lon="12.350082"><ele>603.0</ele><time>2026-04-18T09:16:45.944Z</time></trkpt><trkpt lat="43.5012133" lon="12.3501047"><ele>607.0</ele><time>2026-04-18T09:16:48.944Z</time></trkpt><trkpt lat="43.5012973" lon="12.3501157"><ele>611.0</ele><time>2026-04-18T09:16:51.946Z</time></trkpt><trkpt lat="43.5013521" lon="12.3501666"><ele>615.0</ele><time>2026-04-18T09:16:53.945Z</time></trkpt><trkpt lat="43.5014414" lon="12.3502376"><ele>615.0</ele><time>2026-04-18T09:16:55.945Z</time></trkpt><trkpt lat="43.50161" lon="12.3503052"><ele>615.0</ele><time>2026-04-18T09:16:57.945Z</time></trkpt><trkpt lat="43.5016728" lon="12.3503387"><ele>615.0</ele><time>2026-04-18T09:16:58.946Z</time></trkpt><trkpt lat="43.5016818" lon="12.3504595"><ele>615.0</ele><time>2026-04-18T09:17:02.946Z</time></trkpt><trkpt lat="43.5016757" lon="12.3505808"><ele>615.0</ele><time>2026-04-18T09:17:08.945Z</time></trkpt><trkpt lat="43.5016221" lon="12.3506301"><ele>617.6666666666666</ele><time>2026-04-18T09:17:12.946Z</time></trkpt><trkpt lat="43.5015496" lon="12.3506921"><ele>620.3333333333334</ele><time>2026-04-18T09:17:15.946Z</time></trkpt><trkpt lat="43.5014621" lon="12.3508476"><ele>623.0</ele><time>2026-04-18T09:17:17.944Z</time></trkpt><trkpt lat="43.5014255" lon="12.3509302"><ele>625.6666666666667</ele><time>2026-04-18T09:17:19.946Z</time></trkpt><trkpt lat="43.5014038" lon="12.351027"><ele>628.3333333333334</ele><time>2026-04-18T09:17:22.946Z</time></trkpt><trkpt lat="43.5013521" lon="12.3511036"><ele>631.0</ele><time>2026-04-18T09:17:25.945Z</time></trkpt><trkpt lat="43.5012982" lon="12.3511683"><ele>633.4</ele><time>2026-04-18T09:17:27.944Z</time></trkpt><trkpt lat="43.5012113" lon="12.3512945"><ele>635.8</ele><time>2026-04-18T09:17:28.945Z</time></trkpt><trkpt lat="43.5011504" lon="12.351412"><ele>638.1999999999999</ele><time>2026-04-18T09:17:30.945Z</time></trkpt><trkpt lat="43.5011089" lon="12.3515238"><ele>640.6</ele><time>2026-04-18T09:17:32.945Z</time></trkpt><trkpt lat="43.5010698" lon="12.3516306"><ele>643.0</ele><time>2026-04-18T09:17:33.945Z</time></trkpt><trkpt lat="43.5010491" lon="12.3517834"><ele>644.6666666666667</ele><time>2026-04-18T09:17:34.944Z</time></trkpt><trkpt lat="43.5010239" lon="12.3518668"><ele>646.3333333333334</ele><time>2026-04-18T09:17:36.945Z</time></trkpt><trkpt lat="43.500963" lon="12.3518951"><ele>648.0</ele><time>2026-04-18T09:18:53.945Z</time></trkpt><trkpt lat="43.5008972" lon="12.3518759"><ele>649.6666666666666</ele><time>2026-04-18T09:18:56.945Z</time></trkpt><trkpt lat="43.5008285" lon="12.3518194"><ele>651.3333333333333</ele><time>2026-04-18T09:18:58.944Z</time></trkpt><trkpt lat="43.5007812" lon="12.351743"><ele>653.0</ele><time>2026-04-18T09:19:01.945Z</time></trkpt><trkpt lat="43.5006754" lon="12.3516192"><ele>653.0</ele><time>2026-04-18T09:19:03.945Z</time></trkpt><trkpt lat="43.5006126" lon="12.3515621"><ele>653.0</ele><time>2026-04-18T09:19:04.945Z</time></trkpt><trkpt lat="43.5005675" lon="12.3514934"><ele>653.0</ele><time>2026-04-18T09:19:05.944Z</time></trkpt><trkpt lat="43.5005105" lon="12.3514316"><ele>653.0</ele><time>2026-04-18T09:19:06.945Z</time></trkpt><trkpt lat="43.5004437" lon="12.3513735"><ele>653.0</ele><time>2026-04-18T09:19:07.945Z</time></trkpt><trkpt lat="43.5003823" lon="12.3513017"><ele>653.0</ele><time>2026-04-18T09:19:09.944Z</time></trkpt><trkpt lat="43.50031" lon="12.3512522"><ele>655.5</ele><time>2026-04-18T09:19:15.946Z</time></trkpt><trkpt lat="43.5002201" lon="12.3512497"><ele>658.0</ele><time>2026-04-18T09:19:17.945Z</time></trkpt><trkpt lat="43.5001368" lon="12.3512622"><ele>660.5</ele><time>2026-04-18T09:19:19.945Z</time></trkpt><trkpt lat="43.5000699" lon="12.3512237"><ele>663.0</ele><time>2026-04-18T09:19:21.944Z</time></trkpt><trkpt lat="43.4999996" lon="12.3512246"><ele>665.5</ele><time>2026-04-18T09:19:23.946Z</time></trkpt><trkpt lat="43.4998788" lon="12.3512314"><ele>668.0</ele><time>2026-04-18T09:19:25.945Z</time></trkpt><trkpt lat="43.4998152" lon="12.351267"><ele>668.0</ele><time>2026-04-18T09:19:26.945Z</time></trkpt><trkpt lat="43.499719" lon="12.3513428"><ele>668.0</ele><time>2026-04-18T09:19:27.945Z</time></trkpt><trkpt lat="43.4996638" lon="12.3514072"><ele>668.0</ele><time>2026-04-18T09:19:28.945Z</time></trkpt><trkpt lat="43.4995952" lon="12.3514691"><ele>668.0</ele><time>2026-04-18T09:19:29.944Z</time></trkpt><trkpt lat="43.4995151" lon="12.3515388"><ele>668.0</ele><time>2026-04-18T09:19:30.945Z</time></trkpt><trkpt lat="43.4994491" lon="12.3515845"><ele>668.0</ele><time>2026-04-18T09:19:31.945Z</time></trkpt><trkpt lat="43.4993574" lon="12.3515915"><ele>669.6666666666666</ele><time>2026-04-18T09:19:32.944Z</time></trkpt><trkpt lat="43.4993117" lon="12.3516517"><ele>671.3333333333333</ele><time>2026-04-18T09:19:33.945Z</time></trkpt><trkpt lat="43.4992036" lon="12.3516832"><ele>673.0</ele><time>2026-04-18T09:19:35.944Z</time></trkpt><trkpt lat="43.4991192" lon="12.3516899"><ele>674.6666666666666</ele><time>2026-04-18T09:19:37.944Z</time></trkpt><trkpt lat="43.4990572" lon="12.3516602"><ele>676.3333333333334</ele><time>2026-04-18T09:19:39.946Z</time></trkpt><trkpt lat="43.4989818" lon="12.3516282"><ele>678.0</ele><time>2026-04-18T09:19:41.946Z</time></trkpt><trkpt lat="43.4989317" lon="12.3515394"><ele>678.0</ele><time>2026-04-18T09:19:42.944Z</time></trkpt><trkpt lat="43.4988182" lon="12.3514721"><ele>678.0</ele><time>2026-04-18T09:19:44.945Z</time></trkpt><trkpt lat="43.498733" lon="12.3514843"><ele>678.0</ele><time>2026-04-18T09:19:46.945Z</time></trkpt><trkpt lat="43.4986528" lon="12.3514696"><ele>678.0</ele><time>2026-04-18T09:19:48.946Z</time></trkpt><trkpt lat="43.4985516" lon="12.3514562"><ele>678.0</ele><time>2026-04-18T09:19:50.945Z</time></trkpt><trkpt lat="43.4984878" lon="12.351421"><ele>676.5</ele><time>2026-04-18T09:19:51.945Z</time></trkpt><trkpt lat="43.4984238" lon="12.3514583"><ele>675.0</ele><time>2026-04-18T09:19:52.945Z</time></trkpt><trkpt lat="43.4983546" lon="12.3514394"><ele>673.5</ele><time>2026-04-18T09:19:53.944Z</time></trkpt><trkpt lat="43.4982839" lon="12.3514155"><ele>672.0</ele><time>2026-04-18T09:19:54.946Z</time></trkpt><trkpt lat="43.4981461" lon="12.351418"><ele>670.5</ele><time>2026-04-18T09:19:56.944Z</time></trkpt><trkpt lat="43.4981274" lon="12.3515271"><ele>669.0</ele><time>2026-04-18T09:19:59.945Z</time></trkpt><trkpt lat="43.4981115" lon="12.351638"><ele>669.0</ele><time>2026-04-18T09:20:02.944Z</time></trkpt><trkpt lat="43.4980965" lon="12.3517272"><ele>669.0</ele><time>2026-04-18T09:20:04.944Z</time></trkpt><trkpt lat="43.498096" lon="12.3518488"><ele>669.0</ele><time>2026-04-18T09:20:07.945Z</time></trkpt><trkpt lat="43.4981034" lon="12.3519642"><ele>669.0</ele><time>2026-04-18T09:20:11.946Z</time></trkpt><trkpt lat="43.4980877" lon="12.3520566"><ele>669.0</ele><time>2026-04-18T09:20:14.946Z</time></trkpt><trkpt lat="43.498088" lon="12.3521435"><ele>669.0</ele><time>2026-04-18T09:20:17.945Z</time></trkpt><trkpt lat="43.4980998" lon="12.3522629"><ele>669.0</ele><time>2026-04-18T09:20:20.945Z</time></trkpt><trkpt lat="43.4981121" lon="12.35236"><ele>669.0</ele><time>2026-04-18T09:20:22.946Z</time></trkpt><trkpt lat="43.4981117" lon="12.3524825"><ele>669.0</ele><time>2026-04-18T09:20:24.945Z</time></trkpt><trkpt lat="43.4980545" lon="12.3525667"><ele>669.0</ele><time>2026-04-18T09:20:27.945Z</time></trkpt><trkpt lat="43.4980018" lon="12.352636"><ele>669.0</ele><time>2026-04-18T09:20:29.945Z</time></trkpt><trkpt lat="43.4979566" lon="12.3527211"><ele>669.0</ele><time>2026-04-18T09:20:31.945Z</time></trkpt><trkpt lat="43.4978916" lon="12.3528178"><ele>669.0</ele><time>2026-04-18T09:20:34.944Z</time></trkpt><trkpt lat="43.4978429" lon="12.3528781"><ele>669.0</ele><time>2026-04-18T09:20:36.946Z</time></trkpt><trkpt lat="43.4978053" lon="12.3529577"><ele>669.0</ele><time>2026-04-18T09:20:38.946Z</time></trkpt><trkpt lat="43.4977563" lon="12.3530235"><ele>669.0</ele><time>2026-04-18T09:20:40.945Z</time></trkpt><trkpt lat="43.497708" lon="12.3531242"><ele>669.0</ele><time>2026-04-18T09:20:43.945Z</time></trkpt><trkpt lat="43.4976504" lon="12.3531869"><ele>669.0</ele><time>2026-04-18T09:20:45.946Z</time></trkpt><trkpt lat="43.4975972" lon="12.3532471"><ele>669.0</ele><time>2026-04-18T09:20:47.945Z</time></trkpt><trkpt lat="43.4975339" lon="12.3533066"><ele>671.2</ele><time>2026-04-18T09:20:49.944Z</time></trkpt><trkpt lat="43.4974787" lon="12.3533916"><ele>673.4000000000001</ele><time>2026-04-18T09:20:51.946Z</time></trkpt><trkpt lat="43.497396" lon="12.3534986"><ele>675.6</ele><time>2026-04-18T09:20:53.944Z</time></trkpt><trkpt lat="43.4973056" lon="12.3535714"><ele>677.8</ele><time>2026-04-18T09:20:55.946Z</time></trkpt><trkpt lat="43.4972249" lon="12.3536374"><ele>680.0</ele><time>2026-04-18T09:20:57.945Z</time></trkpt><trkpt lat="43.4971155" lon="12.3537263"><ele>680.0</ele><time>2026-04-18T09:20:59.945Z</time></trkpt><trkpt lat="43.4970482" lon="12.3537518"><ele>680.0</ele><time>2026-04-18T09:21:01.945Z</time></trkpt><trkpt lat="43.4969689" lon="12.3537763"><ele>680.0</ele><time>2026-04-18T09:21:04.945Z</time></trkpt><trkpt lat="43.4968967" lon="12.3538221"><ele>680.0</ele><time>2026-04-18T09:21:07.945Z</time></trkpt><trkpt lat="43.4968342" lon="12.3538524"><ele>680.0</ele><time>2026-04-18T09:21:11.944Z</time></trkpt><trkpt lat="43.4967718" lon="12.3538773"><ele>680.0</ele><time>2026-04-18T09:21:27.944Z</time></trkpt><trkpt lat="43.4967032" lon="12.3539218"><ele>680.0</ele><time>2026-04-18T09:21:32.946Z</time></trkpt><trkpt lat="43.4966286" lon="12.3539485"><ele>680.0</ele><time>2026-04-18T09:21:34.944Z</time></trkpt><trkpt lat="43.4965085" lon="12.3539899"><ele>680.0</ele><time>2026-04-18T09:21:36.945Z</time></trkpt><trkpt lat="43.4964084" lon="12.3540554"><ele>680.0</ele><time>2026-04-18T09:21:37.945Z</time></trkpt><trkpt lat="43.4962489" lon="12.3540778"><ele>680.0</ele><time>2026-04-18T09:21:38.946Z</time></trkpt><trkpt lat="43.4961328" lon="12.3541437"><ele>677.6</ele><time>2026-04-18T09:21:39.945Z</time></trkpt><trkpt lat="43.4960157" lon="12.3541984"><ele>675.2</ele><time>2026-04-18T09:21:40.946Z</time></trkpt><trkpt lat="43.495943" lon="12.354192"><ele>672.8</ele><time>2026-04-18T09:21:41.944Z</time></trkpt><trkpt lat="43.4959145" lon="12.3542838"><ele>670.4</ele><time>2026-04-18T09:21:42.945Z</time></trkpt><trkpt lat="43.4958679" lon="12.3543699"><ele>668.0</ele><time>2026-04-18T09:21:43.946Z</time></trkpt><trkpt lat="43.4958316" lon="12.3545192"><ele>668.0</ele><time>2026-04-18T09:21:45.945Z</time></trkpt><trkpt lat="43.4959137" lon="12.3545956"><ele>668.0</ele><time>2026-04-18T09:21:47.946Z</time></trkpt><trkpt lat="43.4959656" lon="12.3546596"><ele>668.0</ele><time>2026-04-18T09:21:48.944Z</time></trkpt><trkpt lat="43.4960853" lon="12.3547674"><ele>668.0</ele><time>2026-04-18T09:21:50.945Z</time></trkpt><trkpt lat="43.4961409" lon="12.3548373"><ele>668.0</ele><time>2026-04-18T09:21:53.945Z</time></trkpt><trkpt lat="43.4963059" lon="12.3548695"><ele>673.2</ele><time>2026-04-18T09:22:02.945Z</time></trkpt><trkpt lat="43.496398" lon="12.3548934"><ele>678.4</ele><time>2026-04-18T09:22:05.945Z</time></trkpt><trkpt lat="43.4964753" lon="12.3549235"><ele>683.6</ele><time>2026-04-18T09:22:07.945Z</time></trkpt><trkpt lat="43.4965716" lon="12.3549575"><ele>688.8000000000001</ele><time>2026-04-18T09:22:09.946Z</time></trkpt><trkpt lat="43.4966331" lon="12.3549976"><ele>694.0</ele><time>2026-04-18T09:22:10.945Z</time></trkpt><trkpt lat="43.4967402" lon="12.3550883"><ele>694.0</ele><time>2026-04-18T09:22:12.944Z</time></trkpt><trkpt lat="43.4967994" lon="12.3551266"><ele>694.0</ele><time>2026-04-18T09:22:13.944Z</time></trkpt><trkpt lat="43.4968581" lon="12.3551659"><ele>694.0</ele><time>2026-04-18T09:22:14.945Z</time></trkpt><trkpt lat="43.49693" lon="12.3552538"><ele>694.0</ele><time>2026-04-18T09:22:16.945Z</time></trkpt><trkpt lat="43.4969701" lon="12.355332"><ele>694.0</ele><time>2026-04-18T09:22:18.946Z</time></trkpt><trkpt lat="43.4970142" lon="12.3554208"><ele>694.0</ele><time>2026-04-18T09:22:20.944Z</time></trkpt><trkpt lat="43.497106" lon="12.3556374"><ele>698.5</ele><time>2026-04-18T09:22:22.945Z</time></trkpt><trkpt lat="43.4971362" lon="12.3557661"><ele>703.0</ele><time>2026-04-18T09:22:23.945Z</time></trkpt><trkpt lat="43.4972038" lon="12.3558634"><ele>707.5</ele><time>2026-04-18T09:22:25.946Z</time></trkpt><trkpt lat="43.497273" lon="12.3560198"><ele>712.0</ele><time>2026-04-18T09:22:27.944Z</time></trkpt><trkpt lat="43.4974207" lon="12.3562033"><ele>711.0</ele><time>2026-04-18T09:22:28.944Z</time></trkpt><trkpt lat="43.4975051" lon="12.3564154"><ele>710.0</ele><time>2026-04-18T09:22:29.945Z</time></trkpt><trkpt lat="43.4974825" lon="12.356559"><ele>709.0</ele><time>2026-04-18T09:22:30.945Z</time></trkpt><trkpt lat="43.4975185" lon="12.3566491"><ele>708.0</ele><time>2026-04-18T09:22:31.945Z</time></trkpt><trkpt lat="43.4975543" lon="12.3567555"><ele>707.0</ele><time>2026-04-18T09:22:32.946Z</time></trkpt><trkpt lat="43.4975642" lon="12.3569171"><ele>707.0</ele><time>2026-04-18T09:22:34.945Z</time></trkpt><trkpt lat="43.4975931" lon="12.3570526"><ele>707.0</ele><time>2026-04-18T09:22:36.944Z</time></trkpt><trkpt lat="43.4976605" lon="12.3571856"><ele>707.0</ele><time>2026-04-18T09:22:38.945Z</time></trkpt><trkpt lat="43.4977394" lon="12.3573418"><ele>707.0</ele><time>2026-04-18T09:22:39.944Z</time></trkpt><trkpt lat="43.4977706" lon="12.3574424"><ele>707.0</ele><time>2026-04-18T09:22:40.945Z</time></trkpt><trkpt lat="43.4978026" lon="12.3575983"><ele>705.0</ele><time>2026-04-18T09:22:42.945Z</time></trkpt><trkpt lat="43.4978473" lon="12.3576742"><ele>703.0</ele><time>2026-04-18T09:22:43.946Z</time></trkpt><trkpt lat="43.4978877" lon="12.3577516"><ele>701.0</ele><time>2026-04-18T09:22:44.945Z</time></trkpt><trkpt lat="43.4979332" lon="12.3578332"><ele>699.0</ele><time>2026-04-18T09:22:45.946Z</time></trkpt><trkpt lat="43.4980552" lon="12.3579929"><ele>697.0</ele><time>2026-04-18T09:22:46.945Z</time></trkpt><trkpt lat="43.4981123" lon="12.3580791"><ele>697.0</ele><time>2026-04-18T09:22:48.945Z</time></trkpt><trkpt lat="43.498165" lon="12.3582644"><ele>697.0</ele><time>2026-04-18T09:22:50.945Z</time></trkpt><trkpt lat="43.49816" lon="12.3583994"><ele>697.0</ele><time>2026-04-18T09:22:51.944Z</time></trkpt><trkpt lat="43.4981863" lon="12.3585199"><ele>697.0</ele><time>2026-04-18T09:22:53.945Z</time></trkpt><trkpt lat="43.4982599" lon="12.3585614"><ele>697.0</ele><time>2026-04-18T09:22:55.946Z</time></trkpt><trkpt lat="43.4982997" lon="12.3586589"><ele>697.0</ele><time>2026-04-18T09:22:57.945Z</time></trkpt><trkpt lat="43.4983237" lon="12.3587649"><ele>697.0</ele><time>2026-04-18T09:22:59.944Z</time></trkpt><trkpt lat="43.4982626" lon="12.3588911"><ele>697.0</ele><time>2026-04-18T09:23:00.945Z</time></trkpt><trkpt lat="43.4982685" lon="12.3590296"><ele>697.0</ele><time>2026-04-18T09:23:02.945Z</time></trkpt><trkpt lat="43.4982377" lon="12.3591181"><ele>697.0</ele><time>2026-04-18T09:23:03.944Z</time></trkpt><trkpt lat="43.4982079" lon="12.359197"><ele>697.0</ele><time>2026-04-18T09:23:05.945Z</time></trkpt><trkpt lat="43.4982266" lon="12.3592826"><ele>699.0</ele><time>2026-04-18T09:23:08.946Z</time></trkpt><trkpt lat="43.4982509" lon="12.3594261"><ele>701.0</ele><time>2026-04-18T09:23:10.945Z</time></trkpt><trkpt lat="43.4982651" lon="12.3595161"><ele>703.0</ele><time>2026-04-18T09:23:11.946Z</time></trkpt><trkpt lat="43.4982998" lon="12.3596568"><ele>705.0</ele><time>2026-04-18T09:23:13.945Z</time></trkpt><trkpt lat="43.498345" lon="12.3597523"><ele>707.0</ele><time>2026-04-18T09:23:15.944Z</time></trkpt><trkpt lat="43.4983658" lon="12.3599148"><ele>707.5</ele><time>2026-04-18T09:23:17.946Z</time></trkpt><trkpt lat="43.4983571" lon="12.3600661"><ele>708.0</ele><time>2026-04-18T09:23:19.944Z</time></trkpt><trkpt lat="43.49831" lon="12.3601995"><ele>708.5</ele><time>2026-04-18T09:23:21.944Z</time></trkpt><trkpt lat="43.4982027" lon="12.3604057"><ele>709.0</ele><time>2026-04-18T09:23:23.945Z</time></trkpt><trkpt lat="43.4981423" lon="12.3604907"><ele>708.75</ele><time>2026-04-18T09:23:24.946Z</time></trkpt><trkpt lat="43.4980631" lon="12.3605608"><ele>708.5</ele><time>2026-04-18T09:23:25.945Z</time></trkpt><trkpt lat="43.4979612" lon="12.36066"><ele>708.25</ele><time>2026-04-18T09:23:27.945Z</time></trkpt><trkpt lat="43.4978224" lon="12.3608128"><ele>708.0</ele><time>2026-04-18T09:23:29.944Z</time></trkpt><trkpt lat="43.4977665" lon="12.360854"><ele>708.0</ele><time>2026-04-18T09:23:30.945Z</time></trkpt><trkpt lat="43.4976938" lon="12.3608729"><ele>708.0</ele><time>2026-04-18T09:23:32.945Z</time></trkpt><trkpt lat="43.497631" lon="12.3609577"><ele>708.0</ele><time>2026-04-18T09:23:34.945Z</time></trkpt><trkpt lat="43.4975593" lon="12.3610168"><ele>708.0</ele><time>2026-04-18T09:23:36.944Z</time></trkpt><trkpt lat="43.497506" lon="12.3610816"><ele>708.0</ele><time>2026-04-18T09:23:39.945Z</time></trkpt><trkpt lat="43.4974503" lon="12.3611362"><ele>708.0</ele><time>2026-04-18T09:23:42.946Z</time></trkpt><trkpt lat="43.4973979" lon="12.3611992"><ele>708.0</ele><time>2026-04-18T09:23:45.945Z</time></trkpt><trkpt lat="43.497453" lon="12.3612456"><ele>708.0</ele><time>2026-04-18T09:23:48.944Z</time></trkpt><trkpt lat="43.4975391" lon="12.3612311"><ele>708.0</ele><time>2026-04-18T09:23:51.945Z</time></trkpt><trkpt lat="43.4976069" lon="12.3612343"><ele>708.0</ele><time>2026-04-18T09:25:10.944Z</time></trkpt><trkpt lat="43.4976872" lon="12.3612834"><ele>708.0</ele><time>2026-04-18T09:25:13.944Z</time></trkpt><trkpt lat="43.4977705" lon="12.3612861"><ele>708.0</ele><time>2026-04-18T09:25:15.943Z</time></trkpt><trkpt lat="43.4978404" lon="12.3612929"><ele>707.3333333333334</ele><time>2026-04-18T09:25:17.943Z</time></trkpt><trkpt lat="43.4978598" lon="12.3613826"><ele>706.6666666666666</ele><time>2026-04-18T09:25:20.943Z</time></trkpt><trkpt lat="43.4977648" lon="12.361479"><ele>706.0</ele><time>2026-04-18T09:25:22.944Z</time></trkpt><trkpt lat="43.4976589" lon="12.3615037"><ele>705.3333333333333</ele><time>2026-04-18T09:25:24.944Z</time></trkpt><trkpt lat="43.4975761" lon="12.3615376"><ele>704.6666666666666</ele><time>2026-04-18T09:25:26.945Z</time></trkpt><trkpt lat="43.4975094" lon="12.3615521"><ele>704.0</ele><time>2026-04-18T09:25:27.944Z</time></trkpt><trkpt lat="43.4974193" lon="12.3615926"><ele>704.0</ele><time>2026-04-18T09:25:29.943Z</time></trkpt><trkpt lat="43.4973324" lon="12.3616167"><ele>704.0</ele><time>2026-04-18T09:25:31.943Z</time></trkpt><trkpt lat="43.497245" lon="12.3616529"><ele>704.0</ele><time>2026-04-18T09:25:33.944Z</time></trkpt><trkpt lat="43.4971519" lon="12.361647"><ele>704.0</ele><time>2026-04-18T09:25:36.944Z</time></trkpt><trkpt lat="43.4970802" lon="12.3616692"><ele>704.0</ele><time>2026-04-18T09:25:38.944Z</time></trkpt><trkpt lat="43.4970276" lon="12.3617311"><ele>704.0</ele><time>2026-04-18T09:25:41.944Z</time></trkpt><trkpt lat="43.4969919" lon="12.3618513"><ele>704.8000000000001</ele><time>2026-04-18T09:25:45.943Z</time></trkpt><trkpt lat="43.4969752" lon="12.3619526"><ele>705.6</ele><time>2026-04-18T09:25:46.945Z</time></trkpt><trkpt lat="43.4969631" lon="12.3621199"><ele>706.4</ele><time>2026-04-18T09:25:48.945Z</time></trkpt><trkpt lat="43.4969343" lon="12.3622015"><ele>707.2</ele><time>2026-04-18T09:25:49.944Z</time></trkpt><trkpt lat="43.4968766" lon="12.3623268"><ele>708.0</ele><time>2026-04-18T09:25:51.943Z</time></trkpt><trkpt lat="43.496768" lon="12.3623487"><ele>705.3333333333334</ele><time>2026-04-18T09:25:53.943Z</time></trkpt><trkpt lat="43.4966853" lon="12.3623736"><ele>702.6666666666666</ele><time>2026-04-18T09:25:55.943Z</time></trkpt><trkpt lat="43.4965911" lon="12.3624142"><ele>700.0</ele><time>2026-04-18T09:25:58.945Z</time></trkpt><trkpt lat="43.4965203" lon="12.3624523"><ele>697.3333333333333</ele><time>2026-04-18T09:26:00.944Z</time></trkpt><trkpt lat="43.4964587" lon="12.3625018"><ele>694.6666666666666</ele><time>2026-04-18T09:26:02.944Z</time></trkpt><trkpt lat="43.4963923" lon="12.3625635"><ele>692.0</ele><time>2026-04-18T09:26:04.944Z</time></trkpt><trkpt lat="43.4963082" lon="12.3625677"><ele>690.4000000000001</ele><time>2026-04-18T09:26:06.943Z</time></trkpt><trkpt lat="43.4961925" lon="12.3625628"><ele>688.8000000000001</ele><time>2026-04-18T09:26:08.944Z</time></trkpt><trkpt lat="43.4960945" lon="12.3626069"><ele>687.2</ele><time>2026-04-18T09:26:09.944Z</time></trkpt><trkpt lat="43.4960144" lon="12.3625881"><ele>685.6</ele><time>2026-04-18T09:26:11.944Z</time></trkpt><trkpt lat="43.4958935" lon="12.3626012"><ele>684.0</ele><time>2026-04-18T09:26:13.945Z</time></trkpt><trkpt lat="43.4958239" lon="12.3626366"><ele>684.0</ele><time>2026-04-18T09:26:15.943Z</time></trkpt><trkpt lat="43.495724" lon="12.3626653"><ele>684.0</ele><time>2026-04-18T09:26:17.944Z</time></trkpt><trkpt lat="43.4956361" lon="12.362736"><ele>684.0</ele><time>2026-04-18T09:26:19.944Z</time></trkpt><trkpt lat="43.4955018" lon="12.3627933"><ele>684.0</ele><time>2026-04-18T09:26:21.944Z</time></trkpt><trkpt lat="43.4954226" lon="12.3628613"><ele>684.0</ele><time>2026-04-18T09:26:26.943Z</time></trkpt><trkpt lat="43.4953416" lon="12.3629097"><ele>681.6</ele><time>2026-04-18T09:26:28.944Z</time></trkpt><trkpt lat="43.4952696" lon="12.3629247"><ele>679.2</ele><time>2026-04-18T09:26:30.943Z</time></trkpt><trkpt lat="43.495176" lon="12.3629553"><ele>676.8000000000001</ele><time>2026-04-18T09:26:32.945Z</time></trkpt><trkpt lat="43.495084" lon="12.3630006"><ele>674.4000000000001</ele><time>2026-04-18T09:26:34.944Z</time></trkpt><trkpt lat="43.495059" lon="12.3631502"><ele>672.0</ele><time>2026-04-18T09:26:36.944Z</time></trkpt><trkpt lat="43.4949979" lon="12.3632503"><ele>670.6</ele><time>2026-04-18T09:26:40.944Z</time></trkpt><trkpt lat="43.4949229" lon="12.3632901"><ele>669.2</ele><time>2026-04-18T09:26:42.944Z</time></trkpt><trkpt lat="43.4948281" lon="12.3633312"><ele>667.8</ele><time>2026-04-18T09:26:44.945Z</time></trkpt><trkpt lat="43.4947151" lon="12.3633778"><ele>666.4</ele><time>2026-04-18T09:26:46.943Z</time></trkpt><trkpt lat="43.4946386" lon="12.3633526"><ele>665.0</ele><time>2026-04-18T09:26:48.944Z</time></trkpt><trkpt lat="43.4945548" lon="12.3633802"><ele>662.3333333333333</ele><time>2026-04-18T09:26:50.944Z</time></trkpt><trkpt lat="43.4944667" lon="12.3633953"><ele>659.6666666666666</ele><time>2026-04-18T09:26:52.944Z</time></trkpt><trkpt lat="43.4943758" lon="12.3633463"><ele>657.0</ele><time>2026-04-18T09:26:54.944Z</time></trkpt><trkpt lat="43.4943022" lon="12.3633232"><ele>654.3333333333334</ele><time>2026-04-18T09:26:55.944Z</time></trkpt><trkpt lat="43.4942004" lon="12.3633214"><ele>651.6666666666667</ele><time>2026-04-18T09:26:57.944Z</time></trkpt><trkpt lat="43.494138" lon="12.3633974"><ele>649.0</ele><time>2026-04-18T09:26:59.943Z</time></trkpt><trkpt lat="43.4940381" lon="12.3634418"><ele>649.0</ele><time>2026-04-18T09:27:01.944Z</time></trkpt><trkpt lat="43.4939644" lon="12.3634615"><ele>649.0</ele><time>2026-04-18T09:27:03.943Z</time></trkpt><trkpt lat="43.4939051" lon="12.3635499"><ele>649.0</ele><time>2026-04-18T09:27:05.944Z</time></trkpt><trkpt lat="43.4938338" lon="12.3635473"><ele>649.0</ele><time>2026-04-18T09:27:06.943Z</time></trkpt><trkpt lat="43.4937421" lon="12.3635259"><ele>649.0</ele><time>2026-04-18T09:27:08.944Z</time></trkpt><trkpt lat="43.4936461" lon="12.3635069"><ele>649.0</ele><time>2026-04-18T09:27:10.945Z</time></trkpt><trkpt lat="43.4935515" lon="12.3635202"><ele>645.3333333333334</ele><time>2026-04-18T09:27:12.945Z</time></trkpt><trkpt lat="43.4934763" lon="12.3635517"><ele>641.6666666666667</ele><time>2026-04-18T09:27:13.944Z</time></trkpt><trkpt lat="43.4933358" lon="12.3635787"><ele>638.0</ele><time>2026-04-18T09:27:15.944Z</time></trkpt><trkpt lat="43.4932795" lon="12.3636427"><ele>634.3333333333334</ele><time>2026-04-18T09:27:16.944Z</time></trkpt><trkpt lat="43.4932199" lon="12.3636847"><ele>630.6666666666666</ele><time>2026-04-18T09:27:17.944Z</time></trkpt><trkpt lat="43.4931811" lon="12.3637646"><ele>627.0</ele><time>2026-04-18T09:27:18.944Z</time></trkpt><trkpt lat="43.4931377" lon="12.3638754"><ele>625.6</ele><time>2026-04-18T09:27:19.945Z</time></trkpt><trkpt lat="43.4930841" lon="12.3639529"><ele>624.2</ele><time>2026-04-18T09:27:20.944Z</time></trkpt><trkpt lat="43.4929993" lon="12.3640636"><ele>622.8</ele><time>2026-04-18T09:27:22.944Z</time></trkpt><trkpt lat="43.4928924" lon="12.3640419"><ele>621.4</ele><time>2026-04-18T09:27:24.945Z</time></trkpt><trkpt lat="43.4928239" lon="12.3639989"><ele>620.0</ele><time>2026-04-18T09:27:26.945Z</time></trkpt><trkpt lat="43.4927522" lon="12.3639344"><ele>620.0</ele><time>2026-04-18T09:27:28.944Z</time></trkpt><trkpt lat="43.4926016" lon="12.363946"><ele>620.0</ele><time>2026-04-18T09:27:30.943Z</time></trkpt><trkpt lat="43.4924868" lon="12.3640044"><ele>620.0</ele><time>2026-04-18T09:27:31.943Z</time></trkpt><trkpt lat="43.492395" lon="12.3640387"><ele>620.0</ele><time>2026-04-18T09:27:32.945Z</time></trkpt><trkpt lat="43.4923059" lon="12.3640627"><ele>620.0</ele><time>2026-04-18T09:27:33.944Z</time></trkpt><trkpt lat="43.4922326" lon="12.3640713"><ele>620.0</ele><time>2026-04-18T09:27:34.944Z</time></trkpt><trkpt lat="43.4921545" lon="12.3640856"><ele>620.0</ele><time>2026-04-18T09:27:35.944Z</time></trkpt><trkpt lat="43.4920758" lon="12.3639926"><ele>620.0</ele><time>2026-04-18T09:27:37.944Z</time></trkpt><trkpt lat="43.4919627" lon="12.3639345"><ele>620.0</ele><time>2026-04-18T09:27:39.943Z</time></trkpt><trkpt lat="43.4918936" lon="12.3639261"><ele>620.0</ele><time>2026-04-18T09:27:40.944Z</time></trkpt><trkpt lat="43.4918151" lon="12.3639236"><ele>619.8333333333333</ele><time>2026-04-18T09:27:41.943Z</time></trkpt><trkpt lat="43.4917519" lon="12.3639394"><ele>619.6666666666666</ele><time>2026-04-18T09:27:42.944Z</time></trkpt><trkpt lat="43.4916624" lon="12.3639523"><ele>619.5</ele><time>2026-04-18T09:27:44.944Z</time></trkpt><trkpt lat="43.4915354" lon="12.3639597"><ele>619.3333333333334</ele><time>2026-04-18T09:27:46.943Z</time></trkpt><trkpt lat="43.491469" lon="12.3639399"><ele>619.1666666666667</ele><time>2026-04-18T09:27:47.945Z</time></trkpt><trkpt lat="43.4913975" lon="12.3639296"><ele>619.0</ele><time>2026-04-18T09:27:48.944Z</time></trkpt><trkpt lat="43.4912975" lon="12.363862"><ele>619.2</ele><time>2026-04-18T09:27:49.945Z</time></trkpt><trkpt lat="43.4911817" lon="12.3638413"><ele>619.4</ele><time>2026-04-18T09:27:51.944Z</time></trkpt><trkpt lat="43.4910797" lon="12.3638871"><ele>619.6</ele><time>2026-04-18T09:27:53.943Z</time></trkpt><trkpt lat="43.4910186" lon="12.3639522"><ele>619.8</ele><time>2026-04-18T09:27:54.945Z</time></trkpt><trkpt lat="43.4909476" lon="12.3640005"><ele>620.0</ele><time>2026-04-18T09:27:55.945Z</time></trkpt><trkpt lat="43.4908622" lon="12.3640508"><ele>620.0</ele><time>2026-04-18T09:27:56.945Z</time></trkpt><trkpt lat="43.4907972" lon="12.3640828"><ele>620.0</ele><time>2026-04-18T09:27:57.944Z</time></trkpt><trkpt lat="43.490706" lon="12.3641334"><ele>620.0</ele><time>2026-04-18T09:27:58.944Z</time></trkpt><trkpt lat="43.4906388" lon="12.364145"><ele>620.0</ele><time>2026-04-18T09:27:59.944Z</time></trkpt><trkpt lat="43.4905611" lon="12.364172"><ele>620.0</ele><time>2026-04-18T09:28:00.943Z</time></trkpt><trkpt lat="43.4904398" lon="12.3642166"><ele>620.0</ele><time>2026-04-18T09:28:02.945Z</time></trkpt><trkpt lat="43.4903537" lon="12.3642232"><ele>619.4</ele><time>2026-04-18T09:28:04.945Z</time></trkpt><trkpt lat="43.4902471" lon="12.3642301"><ele>618.8</ele><time>2026-04-18T09:28:06.943Z</time></trkpt><trkpt lat="43.4901587" lon="12.3642271"><ele>618.2</ele><time>2026-04-18T09:28:08.944Z</time></trkpt><trkpt lat="43.4899919" lon="12.3642256"><ele>617.6</ele><time>2026-04-18T09:28:10.944Z</time></trkpt><trkpt lat="43.4899158" lon="12.3642317"><ele>617.0</ele><time>2026-04-18T09:28:11.944Z</time></trkpt><trkpt lat="43.4897818" lon="12.3642603"><ele>617.0</ele><time>2026-04-18T09:28:13.945Z</time></trkpt><trkpt lat="43.4896915" lon="12.3642732"><ele>617.0</ele><time>2026-04-18T09:28:15.944Z</time></trkpt><trkpt lat="43.4896038" lon="12.3642485"><ele>617.0</ele><time>2026-04-18T09:28:17.945Z</time></trkpt><trkpt lat="43.4895101" lon="12.3642013"><ele>617.0</ele><time>2026-04-18T09:28:19.945Z</time></trkpt><trkpt lat="43.4894065" lon="12.3641584"><ele>617.0</ele><time>2026-04-18T09:28:21.944Z</time></trkpt><trkpt lat="43.4893094" lon="12.3641145"><ele>614.8000000000001</ele><time>2026-04-18T09:28:23.944Z</time></trkpt><trkpt lat="43.4891953" lon="12.3640123"><ele>612.6</ele><time>2026-04-18T09:28:25.944Z</time></trkpt><trkpt lat="43.4891382" lon="12.3639699"><ele>610.4000000000001</ele><time>2026-04-18T09:28:26.944Z</time></trkpt><trkpt lat="43.4890268" lon="12.3639096"><ele>608.2</ele><time>2026-04-18T09:28:28.944Z</time></trkpt><trkpt lat="43.4889267" lon="12.3638418"><ele>606.0</ele><time>2026-04-18T09:28:30.943Z</time></trkpt><trkpt lat="43.4888651" lon="12.3638118"><ele>606.0</ele><time>2026-04-18T09:28:34.944Z</time></trkpt><trkpt lat="43.4887889" lon="12.3638218"><ele>606.0</ele><time>2026-04-18T09:28:37.944Z</time></trkpt><trkpt lat="43.4887829" lon="12.3639117"><ele>606.0</ele><time>2026-04-18T09:28:40.944Z</time></trkpt><trkpt lat="43.4888004" lon="12.3640137"><ele>606.0</ele><time>2026-04-18T09:28:42.944Z</time></trkpt><trkpt lat="43.4888497" lon="12.3641271"><ele>606.0</ele><time>2026-04-18T09:28:44.944Z</time></trkpt><trkpt lat="43.4888832" lon="12.364208"><ele>606.0</ele><time>2026-04-18T09:28:45.945Z</time></trkpt><trkpt lat="43.4889603" lon="12.3643253"><ele>606.0</ele><time>2026-04-18T09:28:47.943Z</time></trkpt><trkpt lat="43.4890439" lon="12.3644144"><ele>606.0</ele><time>2026-04-18T09:28:49.944Z</time></trkpt><trkpt lat="43.4891296" lon="12.3645159"><ele>606.0</ele><time>2026-04-18T09:28:51.944Z</time></trkpt><trkpt lat="43.4892131" lon="12.3645306"><ele>606.0</ele><time>2026-04-18T09:28:53.944Z</time></trkpt><trkpt lat="43.4893058" lon="12.364604"><ele>606.0</ele><time>2026-04-18T09:28:55.944Z</time></trkpt><trkpt lat="43.4893653" lon="12.3646489"><ele>606.1666666666666</ele><time>2026-04-18T09:28:56.944Z</time></trkpt><trkpt lat="43.4894342" lon="12.3647169"><ele>606.3333333333334</ele><time>2026-04-18T09:28:57.944Z</time></trkpt><trkpt lat="43.4894969" lon="12.3647714"><ele>606.5</ele><time>2026-04-18T09:28:58.944Z</time></trkpt><trkpt lat="43.4895658" lon="12.364834"><ele>606.6666666666667</ele><time>2026-04-18T09:28:59.943Z</time></trkpt><trkpt lat="43.4896287" lon="12.3648531"><ele>606.8333333333334</ele><time>2026-04-18T09:29:00.943Z</time></trkpt><trkpt lat="43.4897264" lon="12.3649483"><ele>607.0</ele><time>2026-04-18T09:29:02.944Z</time></trkpt><trkpt lat="43.4897781" lon="12.3649982"><ele>607.0</ele><time>2026-04-18T09:29:03.945Z</time></trkpt><trkpt lat="43.4898615" lon="12.3650812"><ele>607.0</ele><time>2026-04-18T09:29:05.943Z</time></trkpt><trkpt lat="43.4899559" lon="12.3651718"><ele>607.0</ele><time>2026-04-18T09:29:07.944Z</time></trkpt><trkpt lat="43.4900007" lon="12.365237"><ele>607.0</ele><time>2026-04-18T09:29:08.944Z</time></trkpt><trkpt lat="43.4900897" lon="12.3653723"><ele>607.0</ele><time>2026-04-18T09:29:10.944Z</time></trkpt><trkpt lat="43.4901289" lon="12.3654746"><ele>602.6</ele><time>2026-04-18T09:29:11.943Z</time></trkpt><trkpt lat="43.490158" lon="12.3655529"><ele>598.2</ele><time>2026-04-18T09:29:12.944Z</time></trkpt><trkpt lat="43.4901761" lon="12.365638"><ele>593.8</ele><time>2026-04-18T09:29:13.944Z</time></trkpt><trkpt lat="43.490215" lon="12.3658821"><ele>589.4</ele><time>2026-04-18T09:29:16.944Z</time></trkpt><trkpt lat="43.4902556" lon="12.3659993"><ele>585.0</ele><time>2026-04-18T09:29:18.945Z</time></trkpt><trkpt lat="43.4903363" lon="12.3660721"><ele>585.0</ele><time>2026-04-18T09:29:20.943Z</time></trkpt><trkpt lat="43.4903685" lon="12.3661713"><ele>585.0</ele><time>2026-04-18T09:29:23.944Z</time></trkpt><trkpt lat="43.4903118" lon="12.3662894"><ele>585.0</ele><time>2026-04-18T09:29:25.944Z</time></trkpt><trkpt lat="43.4902511" lon="12.3664546"><ele>585.0</ele><time>2026-04-18T09:29:27.943Z</time></trkpt><trkpt lat="43.4902017" lon="12.3666005"><ele>585.0</ele><time>2026-04-18T09:29:29.943Z</time></trkpt><trkpt lat="43.4901858" lon="12.3667492"><ele>583.5</ele><time>2026-04-18T09:29:31.944Z</time></trkpt><trkpt lat="43.4901882" lon="12.3668682"><ele>582.0</ele><time>2026-04-18T09:29:33.943Z</time></trkpt><trkpt lat="43.4901892" lon="12.3670216"><ele>580.5</ele><time>2026-04-18T09:29:35.945Z</time></trkpt><trkpt lat="43.4901523" lon="12.3671131"><ele>579.0</ele><time>2026-04-18T09:29:37.945Z</time></trkpt><trkpt lat="43.4900915" lon="12.3671662"><ele>577.5</ele><time>2026-04-18T09:29:38.944Z</time></trkpt><trkpt lat="43.4900125" lon="12.3671377"><ele>576.0</ele><time>2026-04-18T09:29:40.944Z</time></trkpt><trkpt lat="43.4899022" lon="12.3670861"><ele>576.0</ele><time>2026-04-18T09:29:42.944Z</time></trkpt><trkpt lat="43.4898841" lon="12.3669788"><ele>576.0</ele><time>2026-04-18T09:29:43.944Z</time></trkpt><trkpt lat="43.4898455" lon="12.3669085"><ele>576.0</ele><time>2026-04-18T09:29:44.944Z</time></trkpt><trkpt lat="43.4897955" lon="12.3667826"><ele>576.0</ele><time>2026-04-18T09:29:45.943Z</time></trkpt><trkpt lat="43.4897368" lon="12.3668549"><ele>576.0</ele><time>2026-04-18T09:29:47.945Z</time></trkpt><trkpt lat="43.4897986" lon="12.366973"><ele>576.0</ele><time>2026-04-18T09:29:49.944Z</time></trkpt><trkpt lat="43.4898332" lon="12.367047"><ele>576.0</ele><time>2026-04-18T09:29:50.944Z</time></trkpt><trkpt lat="43.4898423" lon="12.3671874"><ele>576.0</ele><time>2026-04-18T09:29:52.943Z</time></trkpt><trkpt lat="43.4898388" lon="12.3673357"><ele>576.0</ele><time>2026-04-18T09:29:54.943Z</time></trkpt><trkpt lat="43.4898582" lon="12.3674819"><ele>576.0</ele><time>2026-04-18T09:29:56.944Z</time></trkpt><trkpt lat="43.4898563" lon="12.3676194"><ele>576.0</ele><time>2026-04-18T09:29:58.944Z</time></trkpt><trkpt lat="43.4898482" lon="12.3677438"><ele>574.1666666666666</ele><time>2026-04-18T09:30:00.944Z</time></trkpt><trkpt lat="43.4898566" lon="12.3678329"><ele>572.3333333333334</ele><time>2026-04-18T09:30:01.945Z</time></trkpt><trkpt lat="43.489879" lon="12.3679787"><ele>570.5</ele><time>2026-04-18T09:30:03.944Z</time></trkpt><trkpt lat="43.4899125" lon="12.3680876"><ele>568.6666666666667</ele><time>2026-04-18T09:30:05.945Z</time></trkpt><trkpt lat="43.4898959" lon="12.3682107"><ele>566.8333333333334</ele><time>2026-04-18T09:30:07.943Z</time></trkpt><trkpt lat="43.4898346" lon="12.3682663"><ele>565.0</ele><time>2026-04-18T09:30:09.944Z</time></trkpt><trkpt lat="43.4897295" lon="12.3683287"><ele>563.1666666666667</ele><time>2026-04-18T09:30:12.945Z</time></trkpt><trkpt lat="43.4896687" lon="12.3683655"><ele>561.3333333333334</ele><time>2026-04-18T09:30:13.943Z</time></trkpt><trkpt lat="43.4896682" lon="12.3684627"><ele>559.5</ele><time>2026-04-18T09:30:15.944Z</time></trkpt><trkpt lat="43.4896421" lon="12.3685501"><ele>557.6666666666666</ele><time>2026-04-18T09:30:17.943Z</time></trkpt><trkpt lat="43.4895631" lon="12.3685739"><ele>555.8333333333333</ele><time>2026-04-18T09:30:19.944Z</time></trkpt><trkpt lat="43.4894669" lon="12.3686495"><ele>554.0</ele><time>2026-04-18T09:30:21.945Z</time></trkpt><trkpt lat="43.4893785" lon="12.3687044"><ele>552.6</ele><time>2026-04-18T09:30:23.945Z</time></trkpt><trkpt lat="43.4892733" lon="12.3687102"><ele>551.2</ele><time>2026-04-18T09:30:24.944Z</time></trkpt><trkpt lat="43.4891912" lon="12.3687288"><ele>549.8000000000001</ele><time>2026-04-18T09:30:25.944Z</time></trkpt><trkpt lat="43.489093" lon="12.3688223"><ele>548.4</ele><time>2026-04-18T09:30:27.944Z</time></trkpt><trkpt lat="43.488994" lon="12.3689174"><ele>547.0</ele><time>2026-04-18T09:30:29.944Z</time></trkpt><trkpt lat="43.4889109" lon="12.3689897"><ele>544.6</ele><time>2026-04-18T09:30:31.944Z</time></trkpt><trkpt lat="43.4889591" lon="12.3690617"><ele>542.2</ele><time>2026-04-18T09:30:35.944Z</time></trkpt><trkpt lat="43.4890545" lon="12.3690481"><ele>539.8</ele><time>2026-04-18T09:30:38.944Z</time></trkpt><trkpt lat="43.4891305" lon="12.3690291"><ele>537.4</ele><time>2026-04-18T09:30:39.945Z</time></trkpt><trkpt lat="43.4892107" lon="12.3690209"><ele>535.0</ele><time>2026-04-18T09:30:40.945Z</time></trkpt><trkpt lat="43.4893392" lon="12.3690124"><ele>535.0</ele><time>2026-04-18T09:30:42.945Z</time></trkpt><trkpt lat="43.4894595" lon="12.3690093"><ele>535.0</ele><time>2026-04-18T09:30:44.944Z</time></trkpt><trkpt lat="43.4895227" lon="12.3690047"><ele>535.0</ele><time>2026-04-18T09:30:45.944Z</time></trkpt><trkpt lat="43.4895958" lon="12.3689962"><ele>535.0</ele><time>2026-04-18T09:30:46.944Z</time></trkpt><trkpt lat="43.4896655" lon="12.3690141"><ele>535.0</ele><time>2026-04-18T09:30:47.943Z</time></trkpt><trkpt lat="43.4897399" lon="12.3689939"><ele>535.0</ele><time>2026-04-18T09:30:48.944Z</time></trkpt><trkpt lat="43.4898234" lon="12.3690408"><ele>534.5</ele><time>2026-04-18T09:30:49.944Z</time></trkpt><trkpt lat="43.4899006" lon="12.3690675"><ele>534.0</ele><time>2026-04-18T09:30:50.944Z</time></trkpt><trkpt lat="43.4899832" lon="12.3691083"><ele>533.5</ele><time>2026-04-18T09:30:51.943Z</time></trkpt><trkpt lat="43.4900646" lon="12.3691563"><ele>533.0</ele><time>2026-04-18T09:30:52.944Z</time></trkpt><trkpt lat="43.4901548" lon="12.3692076"><ele>532.5</ele><time>2026-04-18T09:30:53.944Z</time></trkpt><trkpt lat="43.4902399" lon="12.3692631"><ele>532.0</ele><time>2026-04-18T09:30:54.945Z</time></trkpt><trkpt lat="43.490334" lon="12.3693053"><ele>531.6666666666667</ele><time>2026-04-18T09:30:55.945Z</time></trkpt><trkpt lat="43.4904466" lon="12.3693144"><ele>531.3333333333334</ele><time>2026-04-18T09:30:56.945Z</time></trkpt><trkpt lat="43.4905344" lon="12.3693792"><ele>531.0</ele><time>2026-04-18T09:30:58.944Z</time></trkpt><trkpt lat="43.4905793" lon="12.369452"><ele>530.6666666666666</ele><time>2026-04-18T09:31:00.944Z</time></trkpt><trkpt lat="43.4905981" lon="12.3695732"><ele>530.3333333333333</ele><time>2026-04-18T09:31:02.945Z</time></trkpt><trkpt lat="43.4906316" lon="12.3696589"><ele>530.0</ele><time>2026-04-18T09:31:03.943Z</time></trkpt><trkpt lat="43.4906563" lon="12.3697497"><ele>527.6666666666666</ele><time>2026-04-18T09:31:04.944Z</time></trkpt><trkpt lat="43.4906725" lon="12.3698454"><ele>525.3333333333333</ele><time>2026-04-18T09:31:05.944Z</time></trkpt><trkpt lat="43.490681" lon="12.3699367"><ele>523.0</ele><time>2026-04-18T09:31:06.945Z</time></trkpt><trkpt lat="43.4906662" lon="12.3701056"><ele>520.6666666666666</ele><time>2026-04-18T09:31:08.944Z</time></trkpt><trkpt lat="43.490655" lon="12.3702309"><ele>518.3333333333334</ele><time>2026-04-18T09:31:10.943Z</time></trkpt><trkpt lat="43.4906407" lon="12.3703485"><ele>516.0</ele><time>2026-04-18T09:31:13.943Z</time></trkpt><trkpt lat="43.4906802" lon="12.37043"><ele>515.9999999999999</ele><time>2026-04-18T09:31:15.945Z</time></trkpt><trkpt lat="43.4907527" lon="12.3704549"><ele>516.0</ele><time>2026-04-18T09:31:18.945Z</time></trkpt><trkpt lat="43.4907978" lon="12.3705498"><ele>516.0</ele><time>2026-04-18T09:31:21.943Z</time></trkpt><trkpt lat="43.4907303" lon="12.3705895"><ele>516.0</ele><time>2026-04-18T09:31:25.945Z</time></trkpt><trkpt lat="43.4906762" lon="12.3705252"><ele>516.0</ele><time>2026-04-18T09:31:27.944Z</time></trkpt><trkpt lat="43.4907396" lon="12.3705622"><ele>515.9999999999999</ele><time>2026-04-18T09:31:35.944Z</time></trkpt><trkpt lat="43.4908031" lon="12.3705234"><ele>516.0</ele><time>2026-04-18T09:31:39.944Z</time></trkpt><trkpt lat="43.4908388" lon="12.370418"><ele>515.9999999999999</ele><time>2026-04-18T09:31:42.945Z</time></trkpt><trkpt lat="43.4909" lon="12.3703691"><ele>516.0</ele><time>2026-04-18T09:31:44.944Z</time></trkpt><trkpt lat="43.4909792" lon="12.3703636"><ele>516.0</ele><time>2026-04-18T09:31:46.944Z</time></trkpt><trkpt lat="43.4910582" lon="12.37039"><ele>516.0</ele><time>2026-04-18T09:31:49.943Z</time></trkpt><trkpt lat="43.4911232" lon="12.3704145"><ele>516.0</ele><time>2026-04-18T09:31:51.945Z</time></trkpt><trkpt lat="43.4911717" lon="12.3704714"><ele>515.9999999999999</ele><time>2026-04-18T09:31:53.945Z</time></trkpt><trkpt lat="43.4911948" lon="12.3705544"><ele>516.0</ele><time>2026-04-18T09:31:55.945Z</time></trkpt><trkpt lat="43.4911463" lon="12.3707351"><ele>516.5</ele><time>2026-04-18T09:31:57.944Z</time></trkpt><trkpt lat="43.4911175" lon="12.3708365"><ele>517.0</ele><time>2026-04-18T09:31:58.944Z</time></trkpt><trkpt lat="43.49108" lon="12.3709137"><ele>517.5</ele><time>2026-04-18T09:31:59.944Z</time></trkpt><trkpt lat="43.4910437" lon="12.3709991"><ele>518.0</ele><time>2026-04-18T09:32:00.944Z</time></trkpt><trkpt lat="43.4910286" lon="12.3711258"><ele>518.5</ele><time>2026-04-18T09:32:01.943Z</time></trkpt><trkpt lat="43.4910116" lon="12.3712101"><ele>519.0</ele><time>2026-04-18T09:32:02.944Z</time></trkpt><trkpt lat="43.4909492" lon="12.3713246"><ele>522.0</ele><time>2026-04-18T09:32:04.945Z</time></trkpt><trkpt lat="43.4909122" lon="12.3714194"><ele>525.0</ele><time>2026-04-18T09:32:05.943Z</time></trkpt><trkpt lat="43.490872" lon="12.371568"><ele>528.0</ele><time>2026-04-18T09:32:07.945Z</time></trkpt><trkpt lat="43.4908561" lon="12.3716538"><ele>531.0</ele><time>2026-04-18T09:32:08.944Z</time></trkpt><trkpt lat="43.4908263" lon="12.3717971"><ele>534.0</ele><time>2026-04-18T09:32:10.943Z</time></trkpt><trkpt lat="43.4908403" lon="12.3719195"><ele>534.0</ele><time>2026-04-18T09:32:12.943Z</time></trkpt><trkpt lat="43.4908842" lon="12.3720275"><ele>534.0</ele><time>2026-04-18T09:32:13.944Z</time></trkpt><trkpt lat="43.4909569" lon="12.3721094"><ele>534.0</ele><time>2026-04-18T09:32:16.943Z</time></trkpt><trkpt lat="43.491033" lon="12.3720413"><ele>534.0</ele><time>2026-04-18T09:32:17.944Z</time></trkpt><trkpt lat="43.4911574" lon="12.3720416"><ele>534.0</ele><time>2026-04-18T09:32:19.945Z</time></trkpt><trkpt lat="43.4912293" lon="12.3720473"><ele>536.2</ele><time>2026-04-18T09:32:20.943Z</time></trkpt><trkpt lat="43.4913427" lon="12.3720447"><ele>538.4</ele><time>2026-04-18T09:32:22.944Z</time></trkpt><trkpt lat="43.4914432" lon="12.3720958"><ele>540.6</ele><time>2026-04-18T09:32:24.944Z</time></trkpt><trkpt lat="43.4915152" lon="12.3721196"><ele>542.8</ele><time>2026-04-18T09:32:25.943Z</time></trkpt><trkpt lat="43.4915584" lon="12.3722042"><ele>545.0</ele><time>2026-04-18T09:32:27.944Z</time></trkpt><trkpt lat="43.4915982" lon="12.3723762"><ele>549.25</ele><time>2026-04-18T09:32:30.943Z</time></trkpt><trkpt lat="43.4916464" lon="12.3725135"><ele>553.5</ele><time>2026-04-18T09:32:32.944Z</time></trkpt><trkpt lat="43.4916991" lon="12.3726897"><ele>557.75</ele><time>2026-04-18T09:32:34.944Z</time></trkpt><trkpt lat="43.4917076" lon="12.372791"><ele>562.0</ele><time>2026-04-18T09:32:35.945Z</time></trkpt><trkpt lat="43.4917506" lon="12.3729699"><ele>564.5</ele><time>2026-04-18T09:32:37.944Z</time></trkpt><trkpt lat="43.4917774" lon="12.3730487"><ele>567.0</ele><time>2026-04-18T09:32:38.943Z</time></trkpt><trkpt lat="43.4917428" lon="12.3731839"><ele>569.5</ele><time>2026-04-18T09:32:40.944Z</time></trkpt><trkpt lat="43.4916963" lon="12.373309"><ele>572.0</ele><time>2026-04-18T09:32:42.944Z</time></trkpt><trkpt lat="43.4916687" lon="12.3733887"><ele>574.5</ele><time>2026-04-18T09:32:43.944Z</time></trkpt><trkpt lat="43.4916445" lon="12.373473"><ele>577.0</ele><time>2026-04-18T09:32:44.944Z</time></trkpt><trkpt lat="43.4916315" lon="12.3735763"><ele>577.0</ele><time>2026-04-18T09:32:46.943Z</time></trkpt><trkpt lat="43.4915818" lon="12.3737102"><ele>577.0</ele><time>2026-04-18T09:32:48.945Z</time></trkpt><trkpt lat="43.4915542" lon="12.3738157"><ele>577.0</ele><time>2026-04-18T09:32:50.945Z</time></trkpt><trkpt lat="43.4915365" lon="12.3739101"><ele>577.0</ele><time>2026-04-18T09:32:52.943Z</time></trkpt><trkpt lat="43.4915128" lon="12.3740337"><ele>577.0</ele><time>2026-04-18T09:32:54.945Z</time></trkpt><trkpt lat="43.491526" lon="12.3741367"><ele>577.0</ele><time>2026-04-18T09:32:56.945Z</time></trkpt><trkpt lat="43.4915155" lon="12.3742431"><ele>580.8000000000001</ele><time>2026-04-18T09:32:59.944Z</time></trkpt><trkpt lat="43.4915221" lon="12.374343"><ele>584.6</ele><time>2026-04-18T09:33:01.945Z</time></trkpt><trkpt lat="43.4915348" lon="12.374467"><ele>588.4000000000001</ele><time>2026-04-18T09:33:02.943Z</time></trkpt><trkpt lat="43.4916278" lon="12.3745825"><ele>592.2</ele><time>2026-04-18T09:33:03.944Z</time></trkpt><trkpt lat="43.4916919" lon="12.3747203"><ele>596.0</ele><time>2026-04-18T09:33:04.943Z</time></trkpt><trkpt lat="43.4917141" lon="12.3748354"><ele>598.0</ele><time>2026-04-18T09:33:05.944Z</time></trkpt><trkpt lat="43.49176" lon="12.3749473"><ele>600.0</ele><time>2026-04-18T09:33:07.944Z</time></trkpt><trkpt lat="43.4918275" lon="12.374977"><ele>602.0</ele><time>2026-04-18T09:33:09.945Z</time></trkpt><trkpt lat="43.491864" lon="12.3750485"><ele>604.0</ele><time>2026-04-18T09:33:11.944Z</time></trkpt><trkpt lat="43.4918851" lon="12.3751815"><ele>606.0</ele><time>2026-04-18T09:33:13.943Z</time></trkpt><trkpt lat="43.4919162" lon="12.3752772"><ele>608.0</ele><time>2026-04-18T09:33:14.944Z</time></trkpt><trkpt lat="43.4919524" lon="12.3754731"><ele>610.0</ele><time>2026-04-18T09:33:16.945Z</time></trkpt><trkpt lat="43.4919822" lon="12.3755542"><ele>612.0</ele><time>2026-04-18T09:33:17.943Z</time></trkpt><trkpt lat="43.4920107" lon="12.3756348"><ele>614.0</ele><time>2026-04-18T09:33:18.943Z</time></trkpt><trkpt lat="43.4920664" lon="12.375749"><ele>616.0</ele><time>2026-04-18T09:33:20.944Z</time></trkpt><trkpt lat="43.4921419" lon="12.3758464"><ele>618.0</ele><time>2026-04-18T09:33:21.944Z</time></trkpt><trkpt lat="43.4922139" lon="12.3759041"><ele>620.0</ele><time>2026-04-18T09:33:22.944Z</time></trkpt><trkpt lat="43.4923009" lon="12.3759717"><ele>621.8</ele><time>2026-04-18T09:33:23.945Z</time></trkpt><trkpt lat="43.4923761" lon="12.3760031"><ele>623.6</ele><time>2026-04-18T09:33:24.945Z</time></trkpt><trkpt lat="43.4924655" lon="12.3760751"><ele>625.4</ele><time>2026-04-18T09:33:25.944Z</time></trkpt><trkpt lat="43.4925661" lon="12.3761892"><ele>627.2</ele><time>2026-04-18T09:33:27.945Z</time></trkpt><trkpt lat="43.4926108" lon="12.3762556"><ele>629.0</ele><time>2026-04-18T09:33:28.944Z</time></trkpt><trkpt lat="43.4927083" lon="12.3763626"><ele>630.4</ele><time>2026-04-18T09:33:30.944Z</time></trkpt><trkpt lat="43.4927911" lon="12.3763866"><ele>631.8</ele><time>2026-04-18T09:33:31.945Z</time></trkpt><trkpt lat="43.4928757" lon="12.3764723"><ele>633.2</ele><time>2026-04-18T09:33:33.945Z</time></trkpt><trkpt lat="43.4929771" lon="12.3765444"><ele>634.6</ele><time>2026-04-18T09:33:35.944Z</time></trkpt><trkpt lat="43.4930364" lon="12.3766083"><ele>636.0</ele><time>2026-04-18T09:33:36.945Z</time></trkpt><trkpt lat="43.4931389" lon="12.3766972"><ele>637.8333333333334</ele><time>2026-04-18T09:33:37.944Z</time></trkpt><trkpt lat="43.4932142" lon="12.3767826"><ele>639.6666666666666</ele><time>2026-04-18T09:33:38.945Z</time></trkpt><trkpt lat="43.4933018" lon="12.3768589"><ele>641.5</ele><time>2026-04-18T09:33:39.945Z</time></trkpt><trkpt lat="43.4933702" lon="12.3768799"><ele>643.3333333333333</ele><time>2026-04-18T09:33:40.944Z</time></trkpt><trkpt lat="43.4934132" lon="12.376947"><ele>645.1666666666666</ele><time>2026-04-18T09:33:41.945Z</time></trkpt><trkpt lat="43.4934614" lon="12.3770593"><ele>647.0</ele><time>2026-04-18T09:33:43.945Z</time></trkpt><trkpt lat="43.4935113" lon="12.3772181"><ele>647.0</ele><time>2026-04-18T09:33:45.945Z</time></trkpt><trkpt lat="43.4935618" lon="12.3772999"><ele>647.0</ele><time>2026-04-18T09:33:46.943Z</time></trkpt><trkpt lat="43.4936289" lon="12.3773992"><ele>647.0</ele><time>2026-04-18T09:33:48.943Z</time></trkpt><trkpt lat="43.4936826" lon="12.3774453"><ele>647.0</ele><time>2026-04-18T09:33:49.943Z</time></trkpt><trkpt lat="43.4937522" lon="12.3775144"><ele>647.0</ele><time>2026-04-18T09:33:52.945Z</time></trkpt><trkpt lat="43.4938425" lon="12.377652"><ele>648.0</ele><time>2026-04-18T09:33:54.944Z</time></trkpt><trkpt lat="43.4939031" lon="12.3777262"><ele>649.0</ele><time>2026-04-18T09:33:55.944Z</time></trkpt><trkpt lat="43.4939346" lon="12.377831"><ele>650.0</ele><time>2026-04-18T09:33:57.945Z</time></trkpt><trkpt lat="43.4940555" lon="12.377978"><ele>651.0</ele><time>2026-04-18T09:33:58.944Z</time></trkpt><trkpt lat="43.4941362" lon="12.3780951"><ele>652.0</ele><time>2026-04-18T09:34:00.943Z</time></trkpt><trkpt lat="43.4942009" lon="12.3781302"><ele>652.0</ele><time>2026-04-18T09:34:01.943Z</time></trkpt><trkpt lat="43.4943571" lon="12.3782778"><ele>652.0</ele><time>2026-04-18T09:34:02.944Z</time></trkpt><trkpt lat="43.4944819" lon="12.3783432"><ele>652.0</ele><time>2026-04-18T09:34:03.944Z</time></trkpt><trkpt lat="43.4945526" lon="12.3783755"><ele>652.0</ele><time>2026-04-18T09:34:04.944Z</time></trkpt><trkpt lat="43.4946226" lon="12.378406"><ele>652.3333333333334</ele><time>2026-04-18T09:34:05.945Z</time></trkpt><trkpt lat="43.4947006" lon="12.378445"><ele>652.6666666666667</ele><time>2026-04-18T09:34:06.944Z</time></trkpt><trkpt lat="43.4947659" lon="12.3784846"><ele>653.0</ele><time>2026-04-18T09:34:07.943Z</time></trkpt><trkpt lat="43.4948337" lon="12.3785257"><ele>653.3333333333334</ele><time>2026-04-18T09:34:08.945Z</time></trkpt><trkpt lat="43.4949084" lon="12.3785789"><ele>653.6666666666666</ele><time>2026-04-18T09:34:09.944Z</time></trkpt><trkpt lat="43.4949728" lon="12.3786784"><ele>654.0</ele><time>2026-04-18T09:34:10.944Z</time></trkpt><trkpt lat="43.4950543" lon="12.3787323"><ele>654.0</ele><time>2026-04-18T09:34:11.944Z</time></trkpt><trkpt lat="43.4951131" lon="12.3787991"><ele>654.0</ele><time>2026-04-18T09:34:13.944Z</time></trkpt><trkpt lat="43.4951838" lon="12.3788534"><ele>654.0</ele><time>2026-04-18T09:34:15.944Z</time></trkpt><trkpt lat="43.4953182" lon="12.3789892"><ele>654.0</ele><time>2026-04-18T09:34:17.943Z</time></trkpt><trkpt lat="43.4954061" lon="12.3790673"><ele>654.0</ele><time>2026-04-18T09:34:18.944Z</time></trkpt><trkpt lat="43.4954904" lon="12.3791519"><ele>655.6666666666666</ele><time>2026-04-18T09:34:19.944Z</time></trkpt><trkpt lat="43.4956083" lon="12.3792461"><ele>657.3333333333334</ele><time>2026-04-18T09:34:21.945Z</time></trkpt><trkpt lat="43.4956713" lon="12.379287"><ele>659.0</ele><time>2026-04-18T09:34:22.944Z</time></trkpt><trkpt lat="43.4957377" lon="12.3793096"><ele>660.6666666666667</ele><time>2026-04-18T09:34:23.945Z</time></trkpt><trkpt lat="43.4958005" lon="12.3793477"><ele>662.3333333333334</ele><time>2026-04-18T09:34:24.945Z</time></trkpt><trkpt lat="43.4958618" lon="12.3793759"><ele>664.0</ele><time>2026-04-18T09:34:25.944Z</time></trkpt><trkpt lat="43.4959225" lon="12.3794088"><ele>664.0</ele><time>2026-04-18T09:34:26.945Z</time></trkpt><trkpt lat="43.4960158" lon="12.3793746"><ele>664.0</ele><time>2026-04-18T09:34:27.945Z</time></trkpt><trkpt lat="43.4961712" lon="12.3793535"><ele>664.0</ele><time>2026-04-18T09:34:29.945Z</time></trkpt><trkpt lat="43.4962724" lon="12.3793313"><ele>664.0</ele><time>2026-04-18T09:34:30.945Z</time></trkpt><trkpt lat="43.496363" lon="12.379395"><ele>664.4000000000001</ele><time>2026-04-18T09:34:32.944Z</time></trkpt><trkpt lat="43.4965096" lon="12.3794819"><ele>664.8</ele><time>2026-04-18T09:34:34.944Z</time></trkpt><trkpt lat="43.4965356" lon="12.3796026"><ele>665.2</ele><time>2026-04-18T09:34:35.945Z</time></trkpt><trkpt lat="43.4965626" lon="12.3797205"><ele>665.5999999999999</ele><time>2026-04-18T09:34:36.944Z</time></trkpt><trkpt lat="43.496597" lon="12.3798201"><ele>666.0</ele><time>2026-04-18T09:34:37.945Z</time></trkpt><trkpt lat="43.49664" lon="12.3799201"><ele>666.0</ele><time>2026-04-18T09:34:38.945Z</time></trkpt><trkpt lat="43.4966631" lon="12.3800041"><ele>666.0</ele><time>2026-04-18T09:34:39.944Z</time></trkpt><trkpt lat="43.4966924" lon="12.380081"><ele>666.0</ele><time>2026-04-18T09:34:40.943Z</time></trkpt><trkpt lat="43.4967652" lon="12.3801814"><ele>666.0</ele><time>2026-04-18T09:34:42.945Z</time></trkpt><trkpt lat="43.496823" lon="12.3802245"><ele>666.0</ele><time>2026-04-18T09:34:43.944Z</time></trkpt><trkpt lat="43.4968913" lon="12.380307"><ele>666.0</ele><time>2026-04-18T09:34:44.944Z</time></trkpt><trkpt lat="43.4969443" lon="12.3803581"><ele>666.0</ele><time>2026-04-18T09:34:45.944Z</time></trkpt><trkpt lat="43.4970083" lon="12.380425"><ele>666.0</ele><time>2026-04-18T09:34:46.944Z</time></trkpt><trkpt lat="43.4970454" lon="12.380512"><ele>666.0</ele><time>2026-04-18T09:34:47.944Z</time></trkpt><trkpt lat="43.4970863" lon="12.3806252"><ele>666.0</ele><time>2026-04-18T09:34:48.944Z</time></trkpt><trkpt lat="43.4971326" lon="12.3806919"><ele>666.0</ele><time>2026-04-18T09:34:49.943Z</time></trkpt><trkpt lat="43.4971509" lon="12.3807967"><ele>666.0</ele><time>2026-04-18T09:34:50.945Z</time></trkpt><trkpt lat="43.4971753" lon="12.3808877"><ele>665.7142857142858</ele><time>2026-04-18T09:34:51.944Z</time></trkpt><trkpt lat="43.4971925" lon="12.3809801"><ele>665.4285714285713</ele><time>2026-04-18T09:34:52.944Z</time></trkpt><trkpt lat="43.4971871" lon="12.3810821"><ele>665.1428571428571</ele><time>2026-04-18T09:34:53.945Z</time></trkpt><trkpt lat="43.4971989" lon="12.3811725"><ele>664.8571428571429</ele><time>2026-04-18T09:34:54.943Z</time></trkpt><trkpt lat="43.4972124" lon="12.3812587"><ele>664.5714285714287</ele><time>2026-04-18T09:34:55.944Z</time></trkpt><trkpt lat="43.497243" lon="12.3813368"><ele>664.2857142857142</ele><time>2026-04-18T09:34:56.944Z</time></trkpt><trkpt lat="43.4972748" lon="12.3814148"><ele>664.0</ele><time>2026-04-18T09:34:57.944Z</time></trkpt><trkpt lat="43.4973115" lon="12.3815153"><ele>664.0</ele><time>2026-04-18T09:34:58.944Z</time></trkpt><trkpt lat="43.4973719" lon="12.3816045"><ele>664.0</ele><time>2026-04-18T09:34:59.944Z</time></trkpt><trkpt lat="43.4974277" lon="12.3816734"><ele>664.0</ele><time>2026-04-18T09:35:00.944Z</time></trkpt><trkpt lat="43.4974735" lon="12.381754"><ele>664.0</ele><time>2026-04-18T09:35:01.943Z</time></trkpt><trkpt lat="43.4975215" lon="12.3818356"><ele>664.0</ele><time>2026-04-18T09:35:02.943Z</time></trkpt><trkpt lat="43.4975605" lon="12.382014"><ele>664.0</ele><time>2026-04-18T09:35:04.943Z</time></trkpt><trkpt lat="43.4975686" lon="12.3821168"><ele>665.2</ele><time>2026-04-18T09:35:05.944Z</time></trkpt><trkpt lat="43.4975709" lon="12.3822099"><ele>666.4000000000001</ele><time>2026-04-18T09:35:06.944Z</time></trkpt><trkpt lat="43.4975969" lon="12.3823298"><ele>667.6</ele><time>2026-04-18T09:35:08.945Z</time></trkpt><trkpt lat="43.4976997" lon="12.3823944"><ele>668.8</ele><time>2026-04-18T09:35:10.945Z</time></trkpt><trkpt lat="43.497848" lon="12.3824121"><ele>670.0</ele><time>2026-04-18T09:35:12.943Z</time></trkpt><trkpt lat="43.4979461" lon="12.382425"><ele>670.0</ele><time>2026-04-18T09:35:13.944Z</time></trkpt><trkpt lat="43.4980381" lon="12.382423"><ele>670.0</ele><time>2026-04-18T09:35:14.944Z</time></trkpt><trkpt lat="43.4981241" lon="12.382452"><ele>670.0</ele><time>2026-04-18T09:35:15.944Z</time></trkpt><trkpt lat="43.4981868" lon="12.382487"><ele>670.0</ele><time>2026-04-18T09:35:16.944Z</time></trkpt><trkpt lat="43.498267" lon="12.3825561"><ele>670.0</ele><time>2026-04-18T09:35:18.945Z</time></trkpt><trkpt lat="43.4983293" lon="12.3825892"><ele>670.0</ele><time>2026-04-18T09:35:19.943Z</time></trkpt><trkpt lat="43.4983987" lon="12.3826174"><ele>670.0</ele><time>2026-04-18T09:35:20.944Z</time></trkpt><trkpt lat="43.4984758" lon="12.3826349"><ele>670.0</ele><time>2026-04-18T09:35:21.944Z</time></trkpt><trkpt lat="43.4985642" lon="12.3826847"><ele>670.0</ele><time>2026-04-18T09:35:22.944Z</time></trkpt><trkpt lat="43.498648" lon="12.3827498"><ele>670.0</ele><time>2026-04-18T09:35:23.944Z</time></trkpt><trkpt lat="43.4987169" lon="12.3828212"><ele>670.0</ele><time>2026-04-18T09:35:24.944Z</time></trkpt><trkpt lat="43.4987801" lon="12.3829213"><ele>671.0</ele><time>2026-04-18T09:35:25.944Z</time></trkpt><trkpt lat="43.4988474" lon="12.3830324"><ele>672.0</ele><time>2026-04-18T09:35:26.943Z</time></trkpt><trkpt lat="43.4989006" lon="12.3831329"><ele>673.0</ele><time>2026-04-18T09:35:27.944Z</time></trkpt><trkpt lat="43.498954" lon="12.3832428"><ele>674.0</ele><time>2026-04-18T09:35:28.943Z</time></trkpt><trkpt lat="43.4990088" lon="12.3833687"><ele>675.0</ele><time>2026-04-18T09:35:29.943Z</time></trkpt><trkpt lat="43.4990555" lon="12.3834719"><ele>675.0</ele><time>2026-04-18T09:35:30.944Z</time></trkpt><trkpt lat="43.4990961" lon="12.3835715"><ele>675.0</ele><time>2026-04-18T09:35:31.943Z</time></trkpt><trkpt lat="43.4991439" lon="12.3836665"><ele>675.0</ele><time>2026-04-18T09:35:32.945Z</time></trkpt><trkpt lat="43.4991606" lon="12.3837727"><ele>675.0</ele><time>2026-04-18T09:35:33.943Z</time></trkpt><trkpt lat="43.4991546" lon="12.3839509"><ele>675.0</ele><time>2026-04-18T09:35:35.945Z</time></trkpt><trkpt lat="43.4991487" lon="12.3841139"><ele>672.4</ele><time>2026-04-18T09:35:37.943Z</time></trkpt><trkpt lat="43.4991545" lon="12.3842278"><ele>669.8</ele><time>2026-04-18T09:35:38.945Z</time></trkpt><trkpt lat="43.4991545" lon="12.3843314"><ele>667.2</ele><time>2026-04-18T09:35:39.943Z</time></trkpt><trkpt lat="43.4991482" lon="12.3844344"><ele>664.6</ele><time>2026-04-18T09:35:40.944Z</time></trkpt><trkpt lat="43.4991379" lon="12.3846056"><ele>662.0</ele><time>2026-04-18T09:35:42.945Z</time></trkpt><trkpt lat="43.4991976" lon="12.3847248"><ele>663.6</ele><time>2026-04-18T09:35:44.945Z</time></trkpt><trkpt lat="43.499255" lon="12.3847723"><ele>665.2</ele><time>2026-04-18T09:35:45.945Z</time></trkpt><trkpt lat="43.4993724" lon="12.384813"><ele>666.8</ele><time>2026-04-18T09:35:47.944Z</time></trkpt><trkpt lat="43.4994437" lon="12.3848247"><ele>668.4</ele><time>2026-04-18T09:35:48.945Z</time></trkpt><trkpt lat="43.4995489" lon="12.3848491"><ele>670.0</ele><time>2026-04-18T09:35:50.945Z</time></trkpt><trkpt lat="43.4996093" lon="12.384965"><ele>670.0</ele><time>2026-04-18T09:35:52.944Z</time></trkpt><trkpt lat="43.4996522" lon="12.3850499"><ele>670.0</ele><time>2026-04-18T09:35:54.944Z</time></trkpt><trkpt lat="43.4997185" lon="12.3850878"><ele>670.0</ele><time>2026-04-18T09:35:56.944Z</time></trkpt><trkpt lat="43.4998326" lon="12.3851209"><ele>670.0</ele><time>2026-04-18T09:35:58.945Z</time></trkpt><trkpt lat="43.4999055" lon="12.3851363"><ele>670.0</ele><time>2026-04-18T09:35:59.944Z</time></trkpt><trkpt lat="43.4999821" lon="12.3851535"><ele>670.0</ele><time>2026-04-18T09:36:00.944Z</time></trkpt><trkpt lat="43.5000579" lon="12.385161"><ele>670.0</ele><time>2026-04-18T09:36:01.944Z</time></trkpt><trkpt lat="43.5001362" lon="12.3851605"><ele>670.0</ele><time>2026-04-18T09:36:02.944Z</time></trkpt><trkpt lat="43.5002156" lon="12.385157"><ele>670.0</ele><time>2026-04-18T09:36:03.944Z</time></trkpt><trkpt lat="43.5003125" lon="12.3851568"><ele>670.0</ele><time>2026-04-18T09:36:04.945Z</time></trkpt><trkpt lat="43.5003992" lon="12.3851476"><ele>670.0</ele><time>2026-04-18T09:36:05.944Z</time></trkpt><trkpt lat="43.5004817" lon="12.3851451"><ele>670.0</ele><time>2026-04-18T09:36:06.944Z</time></trkpt><trkpt lat="43.5005915" lon="12.3851994"><ele>672.0</ele><time>2026-04-18T09:36:08.943Z</time></trkpt><trkpt lat="43.5006898" lon="12.3852094"><ele>674.0</ele><time>2026-04-18T09:36:10.943Z</time></trkpt><trkpt lat="43.5007668" lon="12.3851606"><ele>676.0</ele><time>2026-04-18T09:36:12.944Z</time></trkpt><trkpt lat="43.5008446" lon="12.3850494"><ele>678.0</ele><time>2026-04-18T09:36:14.944Z</time></trkpt><trkpt lat="43.5008996" lon="12.3849753"><ele>680.0</ele><time>2026-04-18T09:36:15.943Z</time></trkpt><trkpt lat="43.5009522" lon="12.3849054"><ele>682.0</ele><time>2026-04-18T09:36:16.943Z</time></trkpt><trkpt lat="43.5010316" lon="12.3847646"><ele>686.8</ele><time>2026-04-18T09:36:17.944Z</time></trkpt><trkpt lat="43.501157" lon="12.3846777"><ele>691.6</ele><time>2026-04-18T09:36:19.944Z</time></trkpt><trkpt lat="43.5012153" lon="12.3846208"><ele>696.4</ele><time>2026-04-18T09:36:20.945Z</time></trkpt><trkpt lat="43.5012841" lon="12.3845612"><ele>701.1999999999999</ele><time>2026-04-18T09:36:21.944Z</time></trkpt><trkpt lat="43.5013871" lon="12.3845578"><ele>706.0</ele><time>2026-04-18T09:36:22.944Z</time></trkpt><trkpt lat="43.5014609" lon="12.3845368"><ele>706.0</ele><time>2026-04-18T09:36:23.944Z</time></trkpt><trkpt lat="43.5015298" lon="12.3845266"><ele>706.0</ele><time>2026-04-18T09:36:24.944Z</time></trkpt><trkpt lat="43.5016008" lon="12.384601"><ele>706.0</ele><time>2026-04-18T09:36:26.944Z</time></trkpt><trkpt lat="43.5016904" lon="12.3846373"><ele>706.0</ele><time>2026-04-18T09:36:28.944Z</time></trkpt><trkpt lat="43.5017535" lon="12.3846876"><ele>706.0</ele><time>2026-04-18T09:36:29.945Z</time></trkpt><trkpt lat="43.5018507" lon="12.3847566"><ele>706.0</ele><time>2026-04-18T09:36:30.944Z</time></trkpt><trkpt lat="43.5019166" lon="12.3848022"><ele>703.5</ele><time>2026-04-18T09:36:31.944Z</time></trkpt><trkpt lat="43.5019786" lon="12.3848598"><ele>701.0</ele><time>2026-04-18T09:36:32.943Z</time></trkpt><trkpt lat="43.5020526" lon="12.3849049"><ele>698.5</ele><time>2026-04-18T09:36:33.945Z</time></trkpt><trkpt lat="43.502117" lon="12.3849657"><ele>696.0</ele><time>2026-04-18T09:36:34.944Z</time></trkpt><trkpt lat="43.5021809" lon="12.3850068"><ele>693.5</ele><time>2026-04-18T09:36:35.945Z</time></trkpt><trkpt lat="43.5022638" lon="12.3850389"><ele>691.0</ele><time>2026-04-18T09:36:36.943Z</time></trkpt><trkpt lat="43.5023728" lon="12.3850563"><ele>691.0</ele><time>2026-04-18T09:36:38.943Z</time></trkpt><trkpt lat="43.5024709" lon="12.3851783"><ele>691.0</ele><time>2026-04-18T09:36:40.943Z</time></trkpt><trkpt lat="43.5025922" lon="12.3853052"><ele>691.0</ele><time>2026-04-18T09:36:42.944Z</time></trkpt><trkpt lat="43.5026525" lon="12.3853613"><ele>691.0</ele><time>2026-04-18T09:36:43.944Z</time></trkpt><trkpt lat="43.5027192" lon="12.3854039"><ele>691.0</ele><time>2026-04-18T09:36:44.944Z</time></trkpt><trkpt lat="43.5028313" lon="12.3854659"><ele>691.0</ele><time>2026-04-18T09:36:46.945Z</time></trkpt><trkpt lat="43.5028937" lon="12.3855058"><ele>691.0</ele><time>2026-04-18T09:36:47.944Z</time></trkpt><trkpt lat="43.502965" lon="12.3855569"><ele>691.0</ele><time>2026-04-18T09:36:48.945Z</time></trkpt><trkpt lat="43.5030466" lon="12.3855958"><ele>691.0</ele><time>2026-04-18T09:36:49.945Z</time></trkpt><trkpt lat="43.503117" lon="12.3856121"><ele>691.0</ele><time>2026-04-18T09:36:50.944Z</time></trkpt><trkpt lat="43.5032187" lon="12.3856509"><ele>691.0</ele><time>2026-04-18T09:36:52.945Z</time></trkpt><trkpt lat="43.503351" lon="12.3856968"><ele>694.3333333333334</ele><time>2026-04-18T09:36:54.944Z</time></trkpt><trkpt lat="43.5034269" lon="12.3857214"><ele>697.6666666666667</ele><time>2026-04-18T09:36:55.944Z</time></trkpt><trkpt lat="43.5034919" lon="12.3857551"><ele>701.0</ele><time>2026-04-18T09:36:57.943Z</time></trkpt><trkpt lat="43.5035762" lon="12.3858405"><ele>704.3333333333334</ele><time>2026-04-18T09:36:59.944Z</time></trkpt><trkpt lat="43.5036051" lon="12.3859758"><ele>707.6666666666666</ele><time>2026-04-18T09:37:01.945Z</time></trkpt><trkpt lat="43.5036741" lon="12.3860554"><ele>711.0</ele><time>2026-04-18T09:37:03.943Z</time></trkpt><trkpt lat="43.5037607" lon="12.3861308"><ele>711.0</ele><time>2026-04-18T09:37:05.944Z</time></trkpt><trkpt lat="43.5038582" lon="12.3861883"><ele>711.0</ele><time>2026-04-18T09:37:07.944Z</time></trkpt><trkpt lat="43.5039208" lon="12.3862086"><ele>711.0</ele><time>2026-04-18T09:37:08.944Z</time></trkpt><trkpt lat="43.5039888" lon="12.3862356"><ele>711.0</ele><time>2026-04-18T09:37:09.945Z</time></trkpt><trkpt lat="43.5041243" lon="12.3862664"><ele>711.0</ele><time>2026-04-18T09:37:11.944Z</time></trkpt><trkpt lat="43.5042006" lon="12.3863013"><ele>711.0</ele><time>2026-04-18T09:37:12.943Z</time></trkpt><trkpt lat="43.5042738" lon="12.3863189"><ele>711.0</ele><time>2026-04-18T09:37:13.944Z</time></trkpt><trkpt lat="43.5043446" lon="12.3863498"><ele>711.0</ele><time>2026-04-18T09:37:14.943Z</time></trkpt><trkpt lat="43.5044135" lon="12.3863827"><ele>711.0</ele><time>2026-04-18T09:37:15.945Z</time></trkpt><trkpt lat="43.5044924" lon="12.3864264"><ele>711.0</ele><time>2026-04-18T09:37:18.944Z</time></trkpt><trkpt lat="43.5045488" lon="12.3864852"><ele>711.0</ele><time>2026-04-18T09:37:21.943Z</time></trkpt><trkpt lat="43.504694" lon="12.3865038"><ele>712.0</ele><time>2026-04-18T09:37:24.943Z</time></trkpt><trkpt lat="43.5048116" lon="12.3865056"><ele>713.0</ele><time>2026-04-18T09:37:26.944Z</time></trkpt><trkpt lat="43.5049164" lon="12.3865895"><ele>714.0</ele><time>2026-04-18T09:37:28.943Z</time></trkpt><trkpt lat="43.5049867" lon="12.3866906"><ele>715.0</ele><time>2026-04-18T09:37:30.945Z</time></trkpt><trkpt lat="43.50505" lon="12.3868105"><ele>716.0</ele><time>2026-04-18T09:37:32.945Z</time></trkpt><trkpt lat="43.5051224" lon="12.3869249"><ele>716.0</ele><time>2026-04-18T09:37:34.944Z</time></trkpt><trkpt lat="43.5051571" lon="12.3870068"><ele>716.0</ele><time>2026-04-18T09:37:35.944Z</time></trkpt><trkpt lat="43.5051925" lon="12.3871069"><ele>716.0</ele><time>2026-04-18T09:37:36.945Z</time></trkpt><trkpt lat="43.5052433" lon="12.3872408"><ele>716.0</ele><time>2026-04-18T09:37:38.944Z</time></trkpt><trkpt lat="43.5053004" lon="12.3873663"><ele>716.0</ele><time>2026-04-18T09:37:40.945Z</time></trkpt><trkpt lat="43.5053551" lon="12.387426"><ele>716.0</ele><time>2026-04-18T09:37:41.943Z</time></trkpt><trkpt lat="43.5054104" lon="12.3874697"><ele>715.1999999999999</ele><time>2026-04-18T09:37:42.944Z</time></trkpt><trkpt lat="43.5054536" lon="12.3875329"><ele>714.4</ele><time>2026-04-18T09:37:43.944Z</time></trkpt><trkpt lat="43.505542" lon="12.3876941"><ele>713.6</ele><time>2026-04-18T09:37:44.945Z</time></trkpt><trkpt lat="43.5055898" lon="12.3877615"><ele>712.8</ele><time>2026-04-18T09:37:45.944Z</time></trkpt><trkpt lat="43.5056426" lon="12.3878116"><ele>712.0</ele><time>2026-04-18T09:37:46.943Z</time></trkpt><trkpt lat="43.505733" lon="12.3879174"><ele>712.0</ele><time>2026-04-18T09:37:48.945Z</time></trkpt><trkpt lat="43.5058305" lon="12.3879895"><ele>712.0</ele><time>2026-04-18T09:37:50.945Z</time></trkpt><trkpt lat="43.505921" lon="12.3880659"><ele>712.0</ele><time>2026-04-18T09:37:52.945Z</time></trkpt><trkpt lat="43.5060029" lon="12.3881122"><ele>712.0</ele><time>2026-04-18T09:37:54.945Z</time></trkpt><trkpt lat="43.506062" lon="12.3881731"><ele>712.0</ele><time>2026-04-18T09:37:56.945Z</time></trkpt><trkpt lat="43.5060908" lon="12.388279"><ele>711.8333333333334</ele><time>2026-04-18T09:37:58.944Z</time></trkpt><trkpt lat="43.5061263" lon="12.3883982"><ele>711.6666666666667</ele><time>2026-04-18T09:38:00.943Z</time></trkpt><trkpt lat="43.5061796" lon="12.3884809"><ele>711.5</ele><time>2026-04-18T09:38:01.943Z</time></trkpt><trkpt lat="43.506217" lon="12.3885513"><ele>711.3333333333334</ele><time>2026-04-18T09:38:02.944Z</time></trkpt><trkpt lat="43.5062162" lon="12.3886914"><ele>711.1666666666666</ele><time>2026-04-18T09:38:04.944Z</time></trkpt><trkpt lat="43.5061939" lon="12.3887787"><ele>711.0</ele><time>2026-04-18T09:38:05.943Z</time></trkpt><trkpt lat="43.5061363" lon="12.3888867"><ele>710.8333333333334</ele><time>2026-04-18T09:38:07.943Z</time></trkpt><trkpt lat="43.5061289" lon="12.3890019"><ele>710.6666666666666</ele><time>2026-04-18T09:38:08.944Z</time></trkpt><trkpt lat="43.5061398" lon="12.3890921"><ele>710.5</ele><time>2026-04-18T09:38:09.945Z</time></trkpt><trkpt lat="43.5061479" lon="12.3891919"><ele>710.3333333333333</ele><time>2026-04-18T09:38:10.943Z</time></trkpt><trkpt lat="43.5061592" lon="12.3892835"><ele>710.1666666666666</ele><time>2026-04-18T09:38:11.944Z</time></trkpt><trkpt lat="43.5061702" lon="12.3893907"><ele>710.0</ele><time>2026-04-18T09:38:12.944Z</time></trkpt><trkpt lat="43.5062108" lon="12.3895533"><ele>710.0</ele><time>2026-04-18T09:38:13.944Z</time></trkpt><trkpt lat="43.5062317" lon="12.389652"><ele>710.0</ele><time>2026-04-18T09:38:14.944Z</time></trkpt><trkpt lat="43.5062607" lon="12.3897529"><ele>710.0</ele><time>2026-04-18T09:38:15.944Z</time></trkpt><trkpt lat="43.5062841" lon="12.3898553"><ele>710.0</ele><time>2026-04-18T09:38:16.944Z</time></trkpt><trkpt lat="43.5063005" lon="12.3899462"><ele>710.0</ele><time>2026-04-18T09:38:17.944Z</time></trkpt><trkpt lat="43.5063099" lon="12.3901046"><ele>710.0</ele><time>2026-04-18T09:38:19.943Z</time></trkpt><trkpt lat="43.5063866" lon="12.390302"><ele>713.2</ele><time>2026-04-18T09:38:21.943Z</time></trkpt><trkpt lat="43.5064155" lon="12.3903826"><ele>716.4</ele><time>2026-04-18T09:38:22.945Z</time></trkpt><trkpt lat="43.5064399" lon="12.3904762"><ele>719.5999999999999</ele><time>2026-04-18T09:38:23.943Z</time></trkpt><trkpt lat="43.506426" lon="12.3905769"><ele>722.8</ele><time>2026-04-18T09:38:24.945Z</time></trkpt><trkpt lat="43.5064905" lon="12.3906984"><ele>726.0</ele><time>2026-04-18T09:38:26.945Z</time></trkpt><trkpt lat="43.5066325" lon="12.3909238"><ele>725.1999999999999</ele><time>2026-04-18T09:38:29.943Z</time></trkpt><trkpt lat="43.5067129" lon="12.3910571"><ele>724.4</ele><time>2026-04-18T09:38:31.943Z</time></trkpt><trkpt lat="43.5067576" lon="12.391126"><ele>723.6</ele><time>2026-04-18T09:38:32.945Z</time></trkpt><trkpt lat="43.5068515" lon="12.3912224"><ele>722.8</ele><time>2026-04-18T09:38:34.945Z</time></trkpt><trkpt lat="43.5069167" lon="12.3912935"><ele>722.0</ele><time>2026-04-18T09:38:35.945Z</time></trkpt><trkpt lat="43.5069913" lon="12.3913518"><ele>722.0</ele><time>2026-04-18T09:38:36.943Z</time></trkpt><trkpt lat="43.5070592" lon="12.3913983"><ele>722.0</ele><time>2026-04-18T09:38:37.943Z</time></trkpt><trkpt lat="43.5071208" lon="12.3914523"><ele>722.0</ele><time>2026-04-18T09:38:38.943Z</time></trkpt><trkpt lat="43.5071747" lon="12.3915048"><ele>722.0</ele><time>2026-04-18T09:38:39.944Z</time></trkpt><trkpt lat="43.5072822" lon="12.3916169"><ele>722.0</ele><time>2026-04-18T09:38:41.944Z</time></trkpt><trkpt lat="43.5073326" lon="12.3916982"><ele>722.0</ele><time>2026-04-18T09:38:42.944Z</time></trkpt><trkpt lat="43.5073812" lon="12.391803"><ele>724.3333333333333</ele><time>2026-04-18T09:38:43.943Z</time></trkpt><trkpt lat="43.5074323" lon="12.3918849"><ele>726.6666666666666</ele><time>2026-04-18T09:38:44.945Z</time></trkpt><trkpt lat="43.5075125" lon="12.3919533"><ele>729.0</ele><time>2026-04-18T09:38:45.943Z</time></trkpt><trkpt lat="43.5075885" lon="12.3919991"><ele>731.3333333333334</ele><time>2026-04-18T09:38:46.944Z</time></trkpt><trkpt lat="43.5076591" lon="12.3920264"><ele>733.6666666666667</ele><time>2026-04-18T09:38:47.945Z</time></trkpt><trkpt lat="43.5077647" lon="12.3920033"><ele>736.0</ele><time>2026-04-18T09:38:48.943Z</time></trkpt><trkpt lat="43.5078482" lon="12.3920356"><ele>736.0</ele><time>2026-04-18T09:38:49.943Z</time></trkpt><trkpt lat="43.5079099" lon="12.3920711"><ele>736.0</ele><time>2026-04-18T09:38:50.944Z</time></trkpt><trkpt lat="43.5079736" lon="12.3921023"><ele>736.0</ele><time>2026-04-18T09:38:51.944Z</time></trkpt><trkpt lat="43.5080041" lon="12.3922068"><ele>736.0</ele><time>2026-04-18T09:38:52.944Z</time></trkpt><trkpt lat="43.5080571" lon="12.3922918"><ele>736.0</ele><time>2026-04-18T09:38:53.944Z</time></trkpt><trkpt lat="43.5081075" lon="12.3923709"><ele>736.0</ele><time>2026-04-18T09:38:54.945Z</time></trkpt><trkpt lat="43.5081522" lon="12.3924537"><ele>736.0</ele><time>2026-04-18T09:38:55.944Z</time></trkpt><trkpt lat="43.5081935" lon="12.3925391"><ele>736.8333333333334</ele><time>2026-04-18T09:38:56.945Z</time></trkpt><trkpt lat="43.5082311" lon="12.3926324"><ele>737.6666666666667</ele><time>2026-04-18T09:38:57.945Z</time></trkpt><trkpt lat="43.5082602" lon="12.3927266"><ele>738.5</ele><time>2026-04-18T09:38:58.944Z</time></trkpt><trkpt lat="43.5083157" lon="12.392889"><ele>739.3333333333334</ele><time>2026-04-18T09:39:00.944Z</time></trkpt><trkpt lat="43.5083477" lon="12.3929749"><ele>740.1666666666666</ele><time>2026-04-18T09:39:02.943Z</time></trkpt><trkpt lat="43.5084025" lon="12.3930651"><ele>741.0</ele><time>2026-04-18T09:39:04.944Z</time></trkpt><trkpt lat="43.508489" lon="12.3931942"><ele>741.0</ele><time>2026-04-18T09:39:06.943Z</time></trkpt><trkpt lat="43.508536" lon="12.3933398"><ele>741.0</ele><time>2026-04-18T09:39:08.944Z</time></trkpt><trkpt lat="43.5085306" lon="12.3935158"><ele>741.0</ele><time>2026-04-18T09:39:10.944Z</time></trkpt><trkpt lat="43.5085378" lon="12.3936048"><ele>741.0</ele><time>2026-04-18T09:39:11.945Z</time></trkpt><trkpt lat="43.5085628" lon="12.3937571"><ele>741.0</ele><time>2026-04-18T09:39:13.945Z</time></trkpt><trkpt lat="43.5085814" lon="12.3938494"><ele>741.6666666666666</ele><time>2026-04-18T09:39:14.943Z</time></trkpt><trkpt lat="43.5085923" lon="12.3939397"><ele>742.3333333333334</ele><time>2026-04-18T09:39:15.944Z</time></trkpt><trkpt lat="43.5086085" lon="12.3940572"><ele>743.0</ele><time>2026-04-18T09:39:16.943Z</time></trkpt><trkpt lat="43.5086191" lon="12.3941615"><ele>743.6666666666667</ele><time>2026-04-18T09:39:17.944Z</time></trkpt><trkpt lat="43.5086363" lon="12.3942609"><ele>744.3333333333334</ele><time>2026-04-18T09:39:18.945Z</time></trkpt><trkpt lat="43.5086423" lon="12.3943791"><ele>745.0</ele><time>2026-04-18T09:39:19.944Z</time></trkpt><trkpt lat="43.5086661" lon="12.3945069"><ele>745.0</ele><time>2026-04-18T09:39:20.944Z</time></trkpt><trkpt lat="43.5086804" lon="12.3946382"><ele>745.0</ele><time>2026-04-18T09:39:21.943Z</time></trkpt><trkpt lat="43.5086992" lon="12.3947543"><ele>745.0</ele><time>2026-04-18T09:39:22.943Z</time></trkpt><trkpt lat="43.5087285" lon="12.3948357"><ele>745.0</ele><time>2026-04-18T09:39:23.943Z</time></trkpt><trkpt lat="43.5088075" lon="12.3950762"><ele>745.0</ele><time>2026-04-18T09:39:24.944Z</time></trkpt><trkpt lat="43.5088816" lon="12.3951585"><ele>747.75</ele><time>2026-04-18T09:39:25.945Z</time></trkpt><trkpt lat="43.5089937" lon="12.3953146"><ele>750.5</ele><time>2026-04-18T09:39:27.944Z</time></trkpt><trkpt lat="43.5090439" lon="12.3953987"><ele>753.25</ele><time>2026-04-18T09:39:28.943Z</time></trkpt><trkpt lat="43.5091063" lon="12.3955694"><ele>756.0</ele><time>2026-04-18T09:39:29.945Z</time></trkpt><trkpt lat="43.5091389" lon="12.3956802"><ele>756.0</ele><time>2026-04-18T09:39:30.945Z</time></trkpt><trkpt lat="43.5091666" lon="12.3957877"><ele>756.0</ele><time>2026-04-18T09:39:31.943Z</time></trkpt><trkpt lat="43.509169" lon="12.3958966"><ele>756.0</ele><time>2026-04-18T09:39:32.944Z</time></trkpt><trkpt lat="43.5091622" lon="12.3959839"><ele>756.0</ele><time>2026-04-18T09:39:33.944Z</time></trkpt><trkpt lat="43.5091776" lon="12.396071"><ele>756.0</ele><time>2026-04-18T09:39:34.944Z</time></trkpt><trkpt lat="43.5092193" lon="12.3961592"><ele>756.0</ele><time>2026-04-18T09:39:36.945Z</time></trkpt><trkpt lat="43.5092211" lon="12.3962572"><ele>756.0</ele><time>2026-04-18T09:39:41.944Z</time></trkpt><trkpt lat="43.5092195" lon="12.3963553"><ele>755.6666666666666</ele><time>2026-04-18T09:39:45.945Z</time></trkpt><trkpt lat="43.5092013" lon="12.3964443"><ele>755.3333333333334</ele><time>2026-04-18T09:39:47.945Z</time></trkpt><trkpt lat="43.509228" lon="12.3965488"><ele>755.0</ele><time>2026-04-18T09:39:50.944Z</time></trkpt><trkpt lat="43.5092847" lon="12.3966034"><ele>754.6666666666667</ele><time>2026-04-18T09:39:51.944Z</time></trkpt><trkpt lat="43.5093303" lon="12.3966911"><ele>754.3333333333334</ele><time>2026-04-18T09:39:53.945Z</time></trkpt><trkpt lat="43.5093733" lon="12.3967636"><ele>754.0</ele><time>2026-04-18T09:39:54.944Z</time></trkpt><trkpt lat="43.509476" lon="12.3968146"><ele>754.0</ele><time>2026-04-18T09:39:56.943Z</time></trkpt><trkpt lat="43.5095318" lon="12.3969394"><ele>754.0</ele><time>2026-04-18T09:39:58.945Z</time></trkpt><trkpt lat="43.5095241" lon="12.3970831"><ele>754.0</ele><time>2026-04-18T09:40:00.944Z</time></trkpt><trkpt lat="43.5095249" lon="12.3971798"><ele>754.0</ele><time>2026-04-18T09:40:01.943Z</time></trkpt><trkpt lat="43.5095385" lon="12.3973091"><ele>754.0</ele><time>2026-04-18T09:40:02.945Z</time></trkpt><trkpt lat="43.5095438" lon="12.3974166"><ele>753.8333333333334</ele><time>2026-04-18T09:40:03.944Z</time></trkpt><trkpt lat="43.5095485" lon="12.3975152"><ele>753.6666666666667</ele><time>2026-04-18T09:40:04.944Z</time></trkpt><trkpt lat="43.509577" lon="12.3976655"><ele>753.5</ele><time>2026-04-18T09:40:05.944Z</time></trkpt><trkpt lat="43.5095514" lon="12.3977661"><ele>753.3333333333334</ele><time>2026-04-18T09:40:06.945Z</time></trkpt><trkpt lat="43.5095571" lon="12.3978723"><ele>753.1666666666666</ele><time>2026-04-18T09:40:07.944Z</time></trkpt><trkpt lat="43.5095427" lon="12.3980049"><ele>753.0</ele><time>2026-04-18T09:40:08.945Z</time></trkpt><trkpt lat="43.5095556" lon="12.3981505"><ele>755.0</ele><time>2026-04-18T09:40:09.943Z</time></trkpt><trkpt lat="43.509599" lon="12.3983237"><ele>757.0</ele><time>2026-04-18T09:40:10.944Z</time></trkpt><trkpt lat="43.5096282" lon="12.3984847"><ele>759.0</ele><time>2026-04-18T09:40:11.945Z</time></trkpt><trkpt lat="43.5096568" lon="12.3985628"><ele>761.0</ele><time>2026-04-18T09:40:12.944Z</time></trkpt><trkpt lat="43.5096818" lon="12.3986655"><ele>763.0</ele><time>2026-04-18T09:40:13.944Z</time></trkpt><trkpt lat="43.5096574" lon="12.3987811"><ele>762.8333333333334</ele><time>2026-04-18T09:40:15.944Z</time></trkpt><trkpt lat="43.5096198" lon="12.3989322"><ele>762.6666666666667</ele><time>2026-04-18T09:40:17.944Z</time></trkpt><trkpt lat="43.509592" lon="12.3990288"><ele>762.5</ele><time>2026-04-18T09:40:18.943Z</time></trkpt><trkpt lat="43.5095769" lon="12.3991317"><ele>762.3333333333334</ele><time>2026-04-18T09:40:19.943Z</time></trkpt><trkpt lat="43.5095801" lon="12.3992468"><ele>762.1666666666666</ele><time>2026-04-18T09:40:20.944Z</time></trkpt><trkpt lat="43.5096057" lon="12.3993341"><ele>762.0</ele><time>2026-04-18T09:40:21.945Z</time></trkpt><trkpt lat="43.5096281" lon="12.3994589"><ele>760.6</ele><time>2026-04-18T09:40:22.943Z</time></trkpt><trkpt lat="43.5095548" lon="12.3996054"><ele>759.2</ele><time>2026-04-18T09:40:24.945Z</time></trkpt><trkpt lat="43.5095402" lon="12.399748"><ele>757.8</ele><time>2026-04-18T09:40:26.943Z</time></trkpt><trkpt lat="43.50955" lon="12.3998417"><ele>756.4</ele><time>2026-04-18T09:40:27.944Z</time></trkpt><trkpt lat="43.5096209" lon="12.3999077"><ele>755.0</ele><time>2026-04-18T09:40:28.943Z</time></trkpt><trkpt lat="43.5096595" lon="12.4000046"><ele>755.6</ele><time>2026-04-18T09:40:30.945Z</time></trkpt><trkpt lat="43.5096644" lon="12.4000985"><ele>756.2</ele><time>2026-04-18T09:40:34.945Z</time></trkpt><trkpt lat="43.509602" lon="12.4001496"><ele>756.8</ele><time>2026-04-18T09:40:35.943Z</time></trkpt><trkpt lat="43.5095968" lon="12.400275"><ele>757.4</ele><time>2026-04-18T09:40:37.945Z</time></trkpt><trkpt lat="43.5095886" lon="12.400401"><ele>758.0</ele><time>2026-04-18T09:40:39.944Z</time></trkpt><trkpt lat="43.5095375" lon="12.4005792"><ele>758.0</ele><time>2026-04-18T09:40:41.943Z</time></trkpt><trkpt lat="43.5095042" lon="12.4006613"><ele>758.0</ele><time>2026-04-18T09:40:42.944Z</time></trkpt><trkpt lat="43.5094675" lon="12.4008026"><ele>758.0</ele><time>2026-04-18T09:40:44.944Z</time></trkpt><trkpt lat="43.5094288" lon="12.4009124"><ele>758.0</ele><time>2026-04-18T09:40:46.944Z</time></trkpt><trkpt lat="43.5093334" lon="12.4009618"><ele>758.0</ele><time>2026-04-18T09:40:48.944Z</time></trkpt><trkpt lat="43.5092683" lon="12.4010337"><ele>758.0</ele><time>2026-04-18T09:40:50.944Z</time></trkpt><trkpt lat="43.5092124" lon="12.401149"><ele>758.0</ele><time>2026-04-18T09:40:52.945Z</time></trkpt><trkpt lat="43.5091746" lon="12.4012248"><ele>758.0</ele><time>2026-04-18T09:40:53.944Z</time></trkpt><trkpt lat="43.509102" lon="12.4013435"><ele>758.0</ele><time>2026-04-18T09:40:55.944Z</time></trkpt><trkpt lat="43.5090499" lon="12.4014876"><ele>758.0</ele><time>2026-04-18T09:40:57.945Z</time></trkpt><trkpt lat="43.5090149" lon="12.4016222"><ele>758.3333333333333</ele><time>2026-04-18T09:40:59.943Z</time></trkpt><trkpt lat="43.5089939" lon="12.401706"><ele>758.6666666666666</ele><time>2026-04-18T09:41:00.943Z</time></trkpt><trkpt lat="43.5089776" lon="12.4018019"><ele>759.0</ele><time>2026-04-18T09:41:01.944Z</time></trkpt><trkpt lat="43.5089739" lon="12.4019305"><ele>759.3333333333334</ele><time>2026-04-18T09:41:02.944Z</time></trkpt><trkpt lat="43.5090061" lon="12.4020722"><ele>759.6666666666667</ele><time>2026-04-18T09:41:03.944Z</time></trkpt><trkpt lat="43.509012" lon="12.4021779"><ele>760.0</ele><time>2026-04-18T09:41:04.943Z</time></trkpt><trkpt lat="43.5089663" lon="12.4022537"><ele>757.6666666666667</ele><time>2026-04-18T09:41:05.945Z</time></trkpt><trkpt lat="43.5089321" lon="12.4023555"><ele>755.3333333333334</ele><time>2026-04-18T09:41:06.944Z</time></trkpt><trkpt lat="43.5088661" lon="12.4024303"><ele>753.0</ele><time>2026-04-18T09:41:07.945Z</time></trkpt><trkpt lat="43.5088187" lon="12.4025258"><ele>750.6666666666666</ele><time>2026-04-18T09:41:08.944Z</time></trkpt><trkpt lat="43.5087518" lon="12.4026121"><ele>748.3333333333333</ele><time>2026-04-18T09:41:09.944Z</time></trkpt><trkpt lat="43.5086809" lon="12.4026985"><ele>746.0</ele><time>2026-04-18T09:41:11.943Z</time></trkpt><trkpt lat="43.5086331" lon="12.4027718"><ele>744.0</ele><time>2026-04-18T09:41:12.943Z</time></trkpt><trkpt lat="43.5085491" lon="12.4029385"><ele>742.0</ele><time>2026-04-18T09:41:14.945Z</time></trkpt><trkpt lat="43.5085299" lon="12.4030711"><ele>740.0</ele><time>2026-04-18T09:41:15.943Z</time></trkpt><trkpt lat="43.5085047" lon="12.4031622"><ele>738.0</ele><time>2026-04-18T09:41:16.944Z</time></trkpt><trkpt lat="43.5084924" lon="12.4032723"><ele>736.0</ele><time>2026-04-18T09:41:18.944Z</time></trkpt><trkpt lat="43.508455" lon="12.4033775"><ele>735.6666666666667</ele><time>2026-04-18T09:41:20.944Z</time></trkpt><trkpt lat="43.5083941" lon="12.4034664"><ele>735.3333333333334</ele><time>2026-04-18T09:41:22.944Z</time></trkpt><trkpt lat="43.5083443" lon="12.4035572"><ele>735.0</ele><time>2026-04-18T09:41:24.943Z</time></trkpt><trkpt lat="43.5082902" lon="12.4036361"><ele>734.6666666666666</ele><time>2026-04-18T09:41:26.945Z</time></trkpt><trkpt lat="43.5082481" lon="12.403739"><ele>734.3333333333333</ele><time>2026-04-18T09:41:28.945Z</time></trkpt><trkpt lat="43.508312" lon="12.4037367"><ele>734.0</ele><time>2026-04-18T09:42:40.944Z</time></trkpt><trkpt lat="43.5083486" lon="12.4036607"><ele>734.0</ele><time>2026-04-18T09:42:48.944Z</time></trkpt><trkpt lat="43.5084142" lon="12.4036632"><ele>734.0</ele><time>2026-04-18T09:42:57.944Z</time></trkpt><trkpt lat="43.5083465" lon="12.4036548"><ele>734.0</ele><time>2026-04-18T09:45:16.944Z</time></trkpt><trkpt lat="43.5083056" lon="12.4037225"><ele>734.0</ele><time>2026-04-18T09:45:25.943Z</time></trkpt><trkpt lat="43.5082578" lon="12.403661"><ele>734.0</ele><time>2026-04-18T09:45:32.944Z</time></trkpt><trkpt lat="43.5082386" lon="12.4037531"><ele>734.0</ele><time>2026-04-18T09:45:56.943Z</time></trkpt><trkpt lat="43.5082143" lon="12.4038351"><ele>734.0</ele><time>2026-04-18T09:46:02.924Z</time></trkpt><trkpt lat="43.508268" lon="12.4037844"><ele>734.0</ele><time>2026-04-18T09:50:16.948Z</time></trkpt><trkpt lat="43.5082089" lon="12.403818"><ele>734.0</ele><time>2026-04-18T09:53:35.942Z</time></trkpt><trkpt lat="43.5081099" lon="12.4039283"><ele>734.0</ele><time>2026-04-18T09:53:37.944Z</time></trkpt><trkpt lat="43.5080007" lon="12.4040269"><ele>734.0</ele><time>2026-04-18T09:53:39.943Z</time></trkpt><trkpt lat="43.5079445" lon="12.4041126"><ele>734.0</ele><time>2026-04-18T09:53:40.943Z</time></trkpt><trkpt lat="43.5078894" lon="12.4042215"><ele>730.0</ele><time>2026-04-18T09:53:41.943Z</time></trkpt><trkpt lat="43.5077855" lon="12.4045095"><ele>726.0</ele><time>2026-04-18T09:53:43.943Z</time></trkpt><trkpt lat="43.5077429" lon="12.4046769"><ele>722.0</ele><time>2026-04-18T09:53:44.943Z</time></trkpt><trkpt lat="43.5076995" lon="12.4047887"><ele>726.6666666666666</ele><time>2026-04-18T09:53:45.942Z</time></trkpt><trkpt lat="43.5076333" lon="12.4048514"><ele>731.3333333333333</ele><time>2026-04-18T09:53:46.943Z</time></trkpt><trkpt lat="43.5075865" lon="12.4047671"><ele>736.0</ele><time>2026-04-18T09:53:47.943Z</time></trkpt><trkpt lat="43.5074548" lon="12.4047576"><ele>740.6666666666666</ele><time>2026-04-18T09:53:49.942Z</time></trkpt><trkpt lat="43.507381" lon="12.4047475"><ele>745.3333333333334</ele><time>2026-04-18T09:53:50.944Z</time></trkpt><trkpt lat="43.5073086" lon="12.404718"><ele>750.0</ele><time>2026-04-18T09:53:51.942Z</time></trkpt><trkpt lat="43.5072418" lon="12.4046972"><ele>750.0</ele><time>2026-04-18T09:53:52.943Z</time></trkpt><trkpt lat="43.5071735" lon="12.4046717"><ele>750.0</ele><time>2026-04-18T09:53:53.942Z</time></trkpt><trkpt lat="43.5070806" lon="12.4047121"><ele>750.0</ele><time>2026-04-18T09:53:54.943Z</time></trkpt><trkpt lat="43.5070263" lon="12.4047744"><ele>750.0</ele><time>2026-04-18T09:53:55.944Z</time></trkpt><trkpt lat="43.5068696" lon="12.4048171"><ele>750.0</ele><time>2026-04-18T09:53:56.943Z</time></trkpt><trkpt lat="43.5067892" lon="12.4048422"><ele>748.8</ele><time>2026-04-18T09:53:57.944Z</time></trkpt><trkpt lat="43.5066955" lon="12.4048732"><ele>747.6</ele><time>2026-04-18T09:53:58.943Z</time></trkpt><trkpt lat="43.5066144" lon="12.4048976"><ele>746.4000000000001</ele><time>2026-04-18T09:53:59.942Z</time></trkpt><trkpt lat="43.5065116" lon="12.4049113"><ele>745.2</ele><time>2026-04-18T09:54:00.944Z</time></trkpt><trkpt lat="43.5064227" lon="12.4049489"><ele>744.0</ele><time>2026-04-18T09:54:01.942Z</time></trkpt><trkpt lat="43.5063362" lon="12.4049669"><ele>743.0</ele><time>2026-04-18T09:54:02.944Z</time></trkpt><trkpt lat="43.5062137" lon="12.4050173"><ele>742.0</ele><time>2026-04-18T09:54:03.943Z</time></trkpt><trkpt lat="43.506094" lon="12.4050023"><ele>741.0</ele><time>2026-04-18T09:54:04.944Z</time></trkpt><trkpt lat="43.5059896" lon="12.4050321"><ele>740.0</ele><time>2026-04-18T09:54:05.943Z</time></trkpt><trkpt lat="43.5058878" lon="12.4050457"><ele>740.0</ele><time>2026-04-18T09:54:06.943Z</time></trkpt><trkpt lat="43.5057769" lon="12.4050451"><ele>740.0</ele><time>2026-04-18T09:54:07.943Z</time></trkpt><trkpt lat="43.5056745" lon="12.4050483"><ele>740.0</ele><time>2026-04-18T09:54:08.942Z</time></trkpt><trkpt lat="43.5055582" lon="12.4050403"><ele>740.0</ele><time>2026-04-18T09:54:09.943Z</time></trkpt><trkpt lat="43.5054733" lon="12.405067"><ele>740.0</ele><time>2026-04-18T09:54:10.943Z</time></trkpt><trkpt lat="43.5053767" lon="12.405092"><ele>740.6666666666666</ele><time>2026-04-18T09:54:11.944Z</time></trkpt><trkpt lat="43.5052459" lon="12.4051158"><ele>741.3333333333333</ele><time>2026-04-18T09:54:13.944Z</time></trkpt><trkpt lat="43.5051358" lon="12.4051096"><ele>742.0</ele><time>2026-04-18T09:54:15.944Z</time></trkpt><trkpt lat="43.5050727" lon="12.4051446"><ele>742.6666666666666</ele><time>2026-04-18T09:54:18.943Z</time></trkpt><trkpt lat="43.5051143" lon="12.405213"><ele>743.3333333333334</ele><time>2026-04-18T09:54:21.944Z</time></trkpt><trkpt lat="43.5051778" lon="12.4051997"><ele>744.0</ele><time>2026-04-18T09:54:22.942Z</time></trkpt><trkpt lat="43.5052804" lon="12.4052142"><ele>744.0</ele><time>2026-04-18T09:54:24.942Z</time></trkpt><trkpt lat="43.5053821" lon="12.4052157"><ele>744.0</ele><time>2026-04-18T09:54:26.942Z</time></trkpt><trkpt lat="43.5054459" lon="12.4052071"><ele>744.0</ele><time>2026-04-18T09:54:27.943Z</time></trkpt><trkpt lat="43.5055434" lon="12.4052054"><ele>744.0</ele><time>2026-04-18T09:54:28.942Z</time></trkpt><trkpt lat="43.5056174" lon="12.4052037"><ele>744.0</ele><time>2026-04-18T09:54:29.943Z</time></trkpt><trkpt lat="43.505694" lon="12.4052051"><ele>744.0</ele><time>2026-04-18T09:54:30.942Z</time></trkpt><trkpt lat="43.5057673" lon="12.4051882"><ele>743.3333333333334</ele><time>2026-04-18T09:54:31.943Z</time></trkpt><trkpt lat="43.5058503" lon="12.4051762"><ele>742.6666666666666</ele><time>2026-04-18T09:54:32.943Z</time></trkpt><trkpt lat="43.50594" lon="12.4051852"><ele>742.0</ele><time>2026-04-18T09:54:33.943Z</time></trkpt><trkpt lat="43.506016" lon="12.4051887"><ele>741.3333333333333</ele><time>2026-04-18T09:54:34.942Z</time></trkpt><trkpt lat="43.5060731" lon="12.4052461"><ele>740.6666666666666</ele><time>2026-04-18T09:54:35.943Z</time></trkpt><trkpt lat="43.5061285" lon="12.405288"><ele>740.0</ele><time>2026-04-18T09:54:36.944Z</time></trkpt><trkpt lat="43.5062303" lon="12.405402"><ele>740.6666666666666</ele><time>2026-04-18T09:54:38.942Z</time></trkpt><trkpt lat="43.5062978" lon="12.4054437"><ele>741.3333333333333</ele><time>2026-04-18T09:54:39.944Z</time></trkpt><trkpt lat="43.5063646" lon="12.4054824"><ele>742.0</ele><time>2026-04-18T09:54:40.944Z</time></trkpt><trkpt lat="43.5064291" lon="12.4055132"><ele>742.6666666666666</ele><time>2026-04-18T09:54:41.942Z</time></trkpt><trkpt lat="43.50649" lon="12.4055552"><ele>743.3333333333334</ele><time>2026-04-18T09:54:42.942Z</time></trkpt><trkpt lat="43.5065568" lon="12.4055971"><ele>744.0</ele><time>2026-04-18T09:54:43.944Z</time></trkpt><trkpt lat="43.5066289" lon="12.4057136"><ele>747.6</ele><time>2026-04-18T09:54:45.943Z</time></trkpt><trkpt lat="43.5066444" lon="12.4058538"><ele>751.2</ele><time>2026-04-18T09:54:47.944Z</time></trkpt><trkpt lat="43.5066119" lon="12.4059915"><ele>754.8000000000001</ele><time>2026-04-18T09:54:49.942Z</time></trkpt><trkpt lat="43.506564" lon="12.4061466"><ele>758.4000000000001</ele><time>2026-04-18T09:54:51.944Z</time></trkpt><trkpt lat="43.5065106" lon="12.4062459"><ele>762.0</ele><time>2026-04-18T09:54:52.942Z</time></trkpt><trkpt lat="43.5064708" lon="12.4063274"><ele>762.2857142857142</ele><time>2026-04-18T09:54:53.942Z</time></trkpt><trkpt lat="43.5064401" lon="12.4064079"><ele>762.5714285714287</ele><time>2026-04-18T09:54:54.942Z</time></trkpt><trkpt lat="43.5064248" lon="12.4064942"><ele>762.8571428571429</ele><time>2026-04-18T09:54:55.942Z</time></trkpt><trkpt lat="43.5064223" lon="12.4065863"><ele>763.1428571428571</ele><time>2026-04-18T09:54:56.944Z</time></trkpt><trkpt lat="43.5064208" lon="12.4066811"><ele>763.4285714285713</ele><time>2026-04-18T09:54:57.942Z</time></trkpt><trkpt lat="43.5064142" lon="12.4068133"><ele>763.7142857142858</ele><time>2026-04-18T09:54:58.944Z</time></trkpt><trkpt lat="43.5064075" lon="12.4069071"><ele>764.0</ele><time>2026-04-18T09:54:59.942Z</time></trkpt><trkpt lat="43.5063755" lon="12.4069961"><ele>764.0</ele><time>2026-04-18T09:55:00.943Z</time></trkpt><trkpt lat="43.5063232" lon="12.4070989"><ele>764.0</ele><time>2026-04-18T09:55:01.943Z</time></trkpt><trkpt lat="43.5062626" lon="12.4071976"><ele>764.0</ele><time>2026-04-18T09:55:02.943Z</time></trkpt><trkpt lat="43.5062058" lon="12.4072858"><ele>764.0</ele><time>2026-04-18T09:55:03.943Z</time></trkpt><trkpt lat="43.5061601" lon="12.4073841"><ele>764.0</ele><time>2026-04-18T09:55:04.944Z</time></trkpt><trkpt lat="43.506094" lon="12.407479"><ele>761.6666666666666</ele><time>2026-04-18T09:55:05.943Z</time></trkpt><trkpt lat="43.5060649" lon="12.4075846"><ele>759.3333333333333</ele><time>2026-04-18T09:55:06.944Z</time></trkpt><trkpt lat="43.5060388" lon="12.4077037"><ele>757.0</ele><time>2026-04-18T09:55:07.943Z</time></trkpt><trkpt lat="43.5060227" lon="12.4078102"><ele>754.6666666666666</ele><time>2026-04-18T09:55:08.942Z</time></trkpt><trkpt lat="43.5059999" lon="12.4079053"><ele>752.3333333333334</ele><time>2026-04-18T09:55:09.943Z</time></trkpt><trkpt lat="43.505969" lon="12.4079897"><ele>750.0</ele><time>2026-04-18T09:55:10.944Z</time></trkpt><trkpt lat="43.5059235" lon="12.4080625"><ele>750.0</ele><time>2026-04-18T09:55:11.943Z</time></trkpt><trkpt lat="43.5058755" lon="12.4081352"><ele>750.0</ele><time>2026-04-18T09:55:12.944Z</time></trkpt><trkpt lat="43.505829" lon="12.4082028"><ele>750.0</ele><time>2026-04-18T09:55:13.942Z</time></trkpt><trkpt lat="43.5057792" lon="12.408275"><ele>750.0</ele><time>2026-04-18T09:55:14.942Z</time></trkpt><trkpt lat="43.5057251" lon="12.4083466"><ele>750.0</ele><time>2026-04-18T09:55:15.943Z</time></trkpt><trkpt lat="43.5056644" lon="12.4084217"><ele>750.0</ele><time>2026-04-18T09:55:16.944Z</time></trkpt><trkpt lat="43.5056192" lon="12.4085055"><ele>750.0</ele><time>2026-04-18T09:55:17.943Z</time></trkpt><trkpt lat="43.5055638" lon="12.4086551"><ele>750.0</ele><time>2026-04-18T09:55:19.943Z</time></trkpt><trkpt lat="43.5055378" lon="12.4087391"><ele>750.0</ele><time>2026-04-18T09:55:20.944Z</time></trkpt><trkpt lat="43.5055191" lon="12.4088346"><ele>750.0</ele><time>2026-04-18T09:55:21.943Z</time></trkpt><trkpt lat="43.5055025" lon="12.4089229"><ele>750.0</ele><time>2026-04-18T09:55:22.943Z</time></trkpt><trkpt lat="43.5054898" lon="12.4090168"><ele>750.0</ele><time>2026-04-18T09:55:23.943Z</time></trkpt><trkpt lat="43.5054651" lon="12.4091245"><ele>750.0</ele><time>2026-04-18T09:55:24.943Z</time></trkpt><trkpt lat="43.5054441" lon="12.4092277"><ele>750.0</ele><time>2026-04-18T09:55:25.943Z</time></trkpt><trkpt lat="43.505422" lon="12.4093411"><ele>750.0</ele><time>2026-04-18T09:55:26.944Z</time></trkpt><trkpt lat="43.505394" lon="12.4094534"><ele>750.0</ele><time>2026-04-18T09:55:27.943Z</time></trkpt><trkpt lat="43.5053542" lon="12.4095576"><ele>750.0</ele><time>2026-04-18T09:55:28.944Z</time></trkpt><trkpt lat="43.5053064" lon="12.4096581"><ele>750.0</ele><time>2026-04-18T09:55:29.944Z</time></trkpt><trkpt lat="43.5052483" lon="12.4097576"><ele>750.0</ele><time>2026-04-18T09:55:30.943Z</time></trkpt><trkpt lat="43.5051963" lon="12.4098546"><ele>750.0</ele><time>2026-04-18T09:55:31.943Z</time></trkpt><trkpt lat="43.5051529" lon="12.4099422"><ele>750.0</ele><time>2026-04-18T09:55:32.942Z</time></trkpt><trkpt lat="43.5051144" lon="12.4100324"><ele>750.0</ele><time>2026-04-18T09:55:33.943Z</time></trkpt><trkpt lat="43.5050687" lon="12.4101308"><ele>750.0</ele><time>2026-04-18T09:55:34.943Z</time></trkpt><trkpt lat="43.5050227" lon="12.4102305"><ele>750.0</ele><time>2026-04-18T09:55:35.942Z</time></trkpt><trkpt lat="43.5049749" lon="12.4103333"><ele>750.0</ele><time>2026-04-18T09:55:36.943Z</time></trkpt><trkpt lat="43.5049245" lon="12.410437"><ele>750.0</ele><time>2026-04-18T09:55:37.944Z</time></trkpt><trkpt lat="43.5048737" lon="12.4105391"><ele>751.2</ele><time>2026-04-18T09:55:38.942Z</time></trkpt><trkpt lat="43.5048172" lon="12.4106345"><ele>752.4</ele><time>2026-04-18T09:55:39.942Z</time></trkpt><trkpt lat="43.5047552" lon="12.4107285"><ele>753.5999999999999</ele><time>2026-04-18T09:55:40.943Z</time></trkpt><trkpt lat="43.504689" lon="12.4108231"><ele>754.8</ele><time>2026-04-18T09:55:41.944Z</time></trkpt><trkpt lat="43.504623" lon="12.4109183"><ele>756.0</ele><time>2026-04-18T09:55:42.943Z</time></trkpt><trkpt lat="43.5045604" lon="12.4110182"><ele>756.0</ele><time>2026-04-18T09:55:43.943Z</time></trkpt><trkpt lat="43.5045117" lon="12.4111274"><ele>756.0</ele><time>2026-04-18T09:55:44.944Z</time></trkpt><trkpt lat="43.5044908" lon="12.4112489"><ele>756.0</ele><time>2026-04-18T09:55:45.943Z</time></trkpt><trkpt lat="43.5044808" lon="12.4113799"><ele>756.0</ele><time>2026-04-18T09:55:46.943Z</time></trkpt><trkpt lat="43.5044587" lon="12.4115122"><ele>756.0</ele><time>2026-04-18T09:55:47.943Z</time></trkpt><trkpt lat="43.504424" lon="12.4116476"><ele>757.5999999999999</ele><time>2026-04-18T09:55:48.942Z</time></trkpt><trkpt lat="43.5043844" lon="12.4117835"><ele>759.2</ele><time>2026-04-18T09:55:49.943Z</time></trkpt><trkpt lat="43.5043438" lon="12.4119182"><ele>760.8</ele><time>2026-04-18T09:55:50.943Z</time></trkpt><trkpt lat="43.5043" lon="12.4120458"><ele>762.4000000000001</ele><time>2026-04-18T09:55:51.942Z</time></trkpt><trkpt lat="43.5042622" lon="12.4121785"><ele>764.0</ele><time>2026-04-18T09:55:52.943Z</time></trkpt><trkpt lat="43.5042358" lon="12.4123199"><ele>765.2</ele><time>2026-04-18T09:55:53.942Z</time></trkpt><trkpt lat="43.5042297" lon="12.4124705"><ele>766.4000000000001</ele><time>2026-04-18T09:55:54.944Z</time></trkpt><trkpt lat="43.5042411" lon="12.4126196"><ele>767.6</ele><time>2026-04-18T09:55:55.942Z</time></trkpt><trkpt lat="43.5042366" lon="12.4127685"><ele>768.8</ele><time>2026-04-18T09:55:56.943Z</time></trkpt><trkpt lat="43.5042275" lon="12.4129095"><ele>770.0</ele><time>2026-04-18T09:55:57.942Z</time></trkpt><trkpt lat="43.504197" lon="12.4130464"><ele>771.4</ele><time>2026-04-18T09:55:58.943Z</time></trkpt><trkpt lat="43.5041633" lon="12.4131793"><ele>772.8</ele><time>2026-04-18T09:55:59.944Z</time></trkpt><trkpt lat="43.5041187" lon="12.4133071"><ele>774.2</ele><time>2026-04-18T09:56:00.944Z</time></trkpt><trkpt lat="43.5040591" lon="12.4134187"><ele>775.6</ele><time>2026-04-18T09:56:01.944Z</time></trkpt><trkpt lat="43.5039988" lon="12.4135341"><ele>777.0</ele><time>2026-04-18T09:56:02.942Z</time></trkpt><trkpt lat="43.503935" lon="12.413617"><ele>777.0</ele><time>2026-04-18T09:56:03.942Z</time></trkpt><trkpt lat="43.5038198" lon="12.4136457"><ele>777.0</ele><time>2026-04-18T09:56:04.943Z</time></trkpt><trkpt lat="43.5037247" lon="12.4136966"><ele>777.0</ele><time>2026-04-18T09:56:05.943Z</time></trkpt><trkpt lat="43.5036374" lon="12.4137487"><ele>777.0</ele><time>2026-04-18T09:56:06.944Z</time></trkpt><trkpt lat="43.5035698" lon="12.4138"><ele>777.0</ele><time>2026-04-18T09:56:07.942Z</time></trkpt><trkpt lat="43.5034916" lon="12.4139222"><ele>780.3333333333334</ele><time>2026-04-18T09:56:09.942Z</time></trkpt><trkpt lat="43.5035641" lon="12.4140435"><ele>783.6666666666667</ele><time>2026-04-18T09:56:11.943Z</time></trkpt><trkpt lat="43.5036082" lon="12.4141097"><ele>787.0</ele><time>2026-04-18T09:56:12.944Z</time></trkpt><trkpt lat="43.5036451" lon="12.4141845"><ele>790.3333333333334</ele><time>2026-04-18T09:56:13.944Z</time></trkpt><trkpt lat="43.5036797" lon="12.414285"><ele>793.6666666666667</ele><time>2026-04-18T09:56:14.942Z</time></trkpt><trkpt lat="43.5037026" lon="12.4143867"><ele>797.0</ele><time>2026-04-18T09:56:15.943Z</time></trkpt><trkpt lat="43.5037176" lon="12.4144815"><ele>797.0000000000001</ele><time>2026-04-18T09:56:16.943Z</time></trkpt><trkpt lat="43.5037221" lon="12.4145868"><ele>797.0</ele><time>2026-04-18T09:56:17.943Z</time></trkpt><trkpt lat="43.5036989" lon="12.4146914"><ele>797.0</ele><time>2026-04-18T09:56:18.942Z</time></trkpt><trkpt lat="43.5036631" lon="12.4147774"><ele>797.0</ele><time>2026-04-18T09:56:19.943Z</time></trkpt><trkpt lat="43.5036127" lon="12.4148587"><ele>797.0000000000001</ele><time>2026-04-18T09:56:20.944Z</time></trkpt><trkpt lat="43.5035262" lon="12.4149365"><ele>797.0</ele><time>2026-04-18T09:56:21.944Z</time></trkpt><trkpt lat="43.5034641" lon="12.4150453"><ele>797.6</ele><time>2026-04-18T09:56:22.943Z</time></trkpt><trkpt lat="43.5034005" lon="12.4151563"><ele>798.2</ele><time>2026-04-18T09:56:23.943Z</time></trkpt><trkpt lat="43.5033269" lon="12.415264"><ele>798.8</ele><time>2026-04-18T09:56:24.942Z</time></trkpt><trkpt lat="43.5032633" lon="12.4153732"><ele>799.4</ele><time>2026-04-18T09:56:25.942Z</time></trkpt><trkpt lat="43.5032034" lon="12.4154819"><ele>800.0</ele><time>2026-04-18T09:56:26.944Z</time></trkpt><trkpt lat="43.503138" lon="12.4155944"><ele>800.0</ele><time>2026-04-18T09:56:27.943Z</time></trkpt><trkpt lat="43.5030786" lon="12.4157133"><ele>800.0</ele><time>2026-04-18T09:56:28.943Z</time></trkpt><trkpt lat="43.5030446" lon="12.4158272"><ele>800.0</ele><time>2026-04-18T09:56:29.943Z</time></trkpt><trkpt lat="43.5030181" lon="12.4159551"><ele>800.0</ele><time>2026-04-18T09:56:30.944Z</time></trkpt><trkpt lat="43.5030143" lon="12.4160808"><ele>800.0</ele><time>2026-04-18T09:56:31.943Z</time></trkpt><trkpt lat="43.5030128" lon="12.4161977"><ele>800.0000000000001</ele><time>2026-04-18T09:56:32.944Z</time></trkpt><trkpt lat="43.5030132" lon="12.4163126"><ele>800.0</ele><time>2026-04-18T09:56:33.944Z</time></trkpt><trkpt lat="43.5030069" lon="12.4164222"><ele>800.0</ele><time>2026-04-18T09:56:34.943Z</time></trkpt><trkpt lat="43.5029825" lon="12.4165644"><ele>800.0</ele><time>2026-04-18T09:56:36.944Z</time></trkpt><trkpt lat="43.5029245" lon="12.4166532"><ele>800.0000000000001</ele><time>2026-04-18T09:56:38.943Z</time></trkpt><trkpt lat="43.5028671" lon="12.4167212"><ele>800.0</ele><time>2026-04-18T09:56:40.943Z</time></trkpt><trkpt lat="43.5028097" lon="12.4168612"><ele>801.8333333333334</ele><time>2026-04-18T09:56:42.943Z</time></trkpt><trkpt lat="43.5027606" lon="12.4170075"><ele>803.6666666666667</ele><time>2026-04-18T09:56:44.943Z</time></trkpt><trkpt lat="43.5027441" lon="12.4170942"><ele>805.5</ele><time>2026-04-18T09:56:45.942Z</time></trkpt><trkpt lat="43.502736" lon="12.4171924"><ele>807.3333333333333</ele><time>2026-04-18T09:56:46.943Z</time></trkpt><trkpt lat="43.5027388" lon="12.4173023"><ele>809.1666666666666</ele><time>2026-04-18T09:56:47.944Z</time></trkpt><trkpt lat="43.5027466" lon="12.4173996"><ele>811.0</ele><time>2026-04-18T09:56:48.944Z</time></trkpt><trkpt lat="43.5027606" lon="12.4174851"><ele>807.4285714285714</ele><time>2026-04-18T09:56:49.943Z</time></trkpt><trkpt lat="43.5027694" lon="12.4175807"><ele>803.8571428571429</ele><time>2026-04-18T09:56:50.942Z</time></trkpt><trkpt lat="43.5027806" lon="12.4176768"><ele>800.2857142857143</ele><time>2026-04-18T09:56:51.942Z</time></trkpt><trkpt lat="43.5027919" lon="12.4177753"><ele>796.7142857142858</ele><time>2026-04-18T09:56:52.944Z</time></trkpt><trkpt lat="43.5028069" lon="12.4178772"><ele>793.1428571428571</ele><time>2026-04-18T09:56:53.943Z</time></trkpt><trkpt lat="43.50282" lon="12.4179881"><ele>789.5714285714287</ele><time>2026-04-18T09:56:54.943Z</time></trkpt><trkpt lat="43.5028358" lon="12.4180866"><ele>786.0</ele><time>2026-04-18T09:56:55.943Z</time></trkpt><trkpt lat="43.5028454" lon="12.4181897"><ele>786.3333333333334</ele><time>2026-04-18T09:56:56.943Z</time></trkpt><trkpt lat="43.5028513" lon="12.4182954"><ele>786.6666666666667</ele><time>2026-04-18T09:56:57.943Z</time></trkpt><trkpt lat="43.5028382" lon="12.4183984"><ele>787.0</ele><time>2026-04-18T09:56:58.942Z</time></trkpt><trkpt lat="43.5028222" lon="12.4185041"><ele>787.3333333333334</ele><time>2026-04-18T09:56:59.943Z</time></trkpt><trkpt lat="43.5028012" lon="12.4186155"><ele>787.6666666666667</ele><time>2026-04-18T09:57:00.943Z</time></trkpt><trkpt lat="43.5027794" lon="12.4187279"><ele>788.0</ele><time>2026-04-18T09:57:01.943Z</time></trkpt><trkpt lat="43.5027618" lon="12.4188519"><ele>788.0000000000001</ele><time>2026-04-18T09:57:02.944Z</time></trkpt><trkpt lat="43.5027601" lon="12.4189801"><ele>788.0</ele><time>2026-04-18T09:57:03.944Z</time></trkpt><trkpt lat="43.5027824" lon="12.4191023"><ele>788.0</ele><time>2026-04-18T09:57:04.943Z</time></trkpt><trkpt lat="43.5028242" lon="12.4192074"><ele>788.0</ele><time>2026-04-18T09:57:05.943Z</time></trkpt><trkpt lat="43.5028818" lon="12.419292"><ele>788.0000000000001</ele><time>2026-04-18T09:57:06.943Z</time></trkpt><trkpt lat="43.5029449" lon="12.4193662"><ele>788.0</ele><time>2026-04-18T09:57:07.943Z</time></trkpt><trkpt lat="43.5030067" lon="12.4194445"><ele>787.8</ele><time>2026-04-18T09:57:08.942Z</time></trkpt><trkpt lat="43.5031191" lon="12.4196199"><ele>787.5999999999999</ele><time>2026-04-18T09:57:10.943Z</time></trkpt><trkpt lat="43.5031603" lon="12.4197195"><ele>787.4000000000001</ele><time>2026-04-18T09:57:11.943Z</time></trkpt><trkpt lat="43.5031824" lon="12.4198208"><ele>787.2</ele><time>2026-04-18T09:57:12.943Z</time></trkpt><trkpt lat="43.5031901" lon="12.4199166"><ele>787.0</ele><time>2026-04-18T09:57:13.942Z</time></trkpt><trkpt lat="43.5031806" lon="12.4200633"><ele>788.6</ele><time>2026-04-18T09:57:15.942Z</time></trkpt><trkpt lat="43.5031737" lon="12.4201806"><ele>790.2</ele><time>2026-04-18T09:57:17.944Z</time></trkpt><trkpt lat="43.5031746" lon="12.4203246"><ele>791.8</ele><time>2026-04-18T09:57:19.944Z</time></trkpt><trkpt lat="43.5031843" lon="12.4204723"><ele>793.4</ele><time>2026-04-18T09:57:22.944Z</time></trkpt><trkpt lat="43.5032118" lon="12.4205739"><ele>795.0</ele><time>2026-04-18T09:57:24.942Z</time></trkpt><trkpt lat="43.5032569" lon="12.4206758"><ele>795.6</ele><time>2026-04-18T09:57:26.944Z</time></trkpt><trkpt lat="43.5033118" lon="12.4207707"><ele>796.2</ele><time>2026-04-18T09:57:28.943Z</time></trkpt><trkpt lat="43.5033836" lon="12.4208646"><ele>796.8</ele><time>2026-04-18T09:57:30.943Z</time></trkpt><trkpt lat="43.5034383" lon="12.4209829"><ele>797.4</ele><time>2026-04-18T09:57:32.944Z</time></trkpt><trkpt lat="43.5035023" lon="12.4211252"><ele>798.0</ele><time>2026-04-18T09:57:34.943Z</time></trkpt><trkpt lat="43.5035655" lon="12.4212536"><ele>799.3333333333334</ele><time>2026-04-18T09:57:36.943Z</time></trkpt><trkpt lat="43.503636" lon="12.4213829"><ele>800.6666666666667</ele><time>2026-04-18T09:57:38.943Z</time></trkpt><trkpt lat="43.503678" lon="12.4214477"><ele>802.0</ele><time>2026-04-18T09:57:39.942Z</time></trkpt><trkpt lat="43.5037304" lon="12.4215091"><ele>803.3333333333334</ele><time>2026-04-18T09:57:40.943Z</time></trkpt><trkpt lat="43.5037903" lon="12.4215661"><ele>804.6666666666667</ele><time>2026-04-18T09:57:41.943Z</time></trkpt><trkpt lat="43.5038588" lon="12.4216165"><ele>806.0</ele><time>2026-04-18T09:57:42.942Z</time></trkpt><trkpt lat="43.5039255" lon="12.4216729"><ele>806.0000000000001</ele><time>2026-04-18T09:57:43.943Z</time></trkpt><trkpt lat="43.5039865" lon="12.4217358"><ele>806.0</ele><time>2026-04-18T09:57:44.943Z</time></trkpt><trkpt lat="43.5040407" lon="12.4218102"><ele>806.0</ele><time>2026-04-18T09:57:45.944Z</time></trkpt><trkpt lat="43.5040713" lon="12.4218886"><ele>806.0</ele><time>2026-04-18T09:57:46.944Z</time></trkpt><trkpt lat="43.5040838" lon="12.4219775"><ele>806.0000000000001</ele><time>2026-04-18T09:57:47.943Z</time></trkpt><trkpt lat="43.5040735" lon="12.422148"><ele>806.0</ele><time>2026-04-18T09:57:49.943Z</time></trkpt><trkpt lat="43.504073" lon="12.42229"><ele>801.5999999999999</ele><time>2026-04-18T09:57:51.944Z</time></trkpt><trkpt lat="43.5041327" lon="12.4223515"><ele>797.2</ele><time>2026-04-18T09:57:53.944Z</time></trkpt><trkpt lat="43.5042246" lon="12.4223341"><ele>792.8</ele><time>2026-04-18T09:57:55.943Z</time></trkpt><trkpt lat="43.5043331" lon="12.4222655"><ele>788.4000000000001</ele><time>2026-04-18T09:57:57.944Z</time></trkpt><trkpt lat="43.5044667" lon="12.4222403"><ele>784.0</ele><time>2026-04-18T09:57:59.944Z</time></trkpt><trkpt lat="43.5045372" lon="12.4222629"><ele>785.2857142857143</ele><time>2026-04-18T09:58:00.943Z</time></trkpt><trkpt lat="43.5046042" lon="12.4223032"><ele>786.5714285714286</ele><time>2026-04-18T09:58:01.944Z</time></trkpt><trkpt lat="43.5046699" lon="12.422352"><ele>787.8571428571429</ele><time>2026-04-18T09:58:02.942Z</time></trkpt><trkpt lat="43.5047394" lon="12.4223859"><ele>789.1428571428571</ele><time>2026-04-18T09:58:03.942Z</time></trkpt><trkpt lat="43.5048078" lon="12.4224027"><ele>790.4285714285714</ele><time>2026-04-18T09:58:04.944Z</time></trkpt><trkpt lat="43.5048803" lon="12.4224117"><ele>791.7142857142858</ele><time>2026-04-18T09:58:05.944Z</time></trkpt><trkpt lat="43.5049457" lon="12.4224044"><ele>793.0</ele><time>2026-04-18T09:58:06.943Z</time></trkpt><trkpt lat="43.5050089" lon="12.4224275"><ele>792.9999999999999</ele><time>2026-04-18T09:58:07.944Z</time></trkpt><trkpt lat="43.5051071" lon="12.4225265"><ele>793.0</ele><time>2026-04-18T09:58:09.944Z</time></trkpt><trkpt lat="43.5051388" lon="12.4226078"><ele>793.0</ele><time>2026-04-18T09:58:10.943Z</time></trkpt><trkpt lat="43.5051788" lon="12.4226965"><ele>793.0</ele><time>2026-04-18T09:58:11.942Z</time></trkpt><trkpt lat="43.5051991" lon="12.4227898"><ele>792.9999999999999</ele><time>2026-04-18T09:58:12.944Z</time></trkpt><trkpt lat="43.5052121" lon="12.4228829"><ele>793.0</ele><time>2026-04-18T09:58:13.944Z</time></trkpt><trkpt lat="43.50522" lon="12.4229851"><ele>791.3333333333333</ele><time>2026-04-18T09:58:14.944Z</time></trkpt><trkpt lat="43.5052149" lon="12.4230875"><ele>789.6666666666666</ele><time>2026-04-18T09:58:15.943Z</time></trkpt><trkpt lat="43.5051905" lon="12.423182"><ele>788.0</ele><time>2026-04-18T09:58:16.942Z</time></trkpt><trkpt lat="43.5051517" lon="12.4232583"><ele>786.3333333333333</ele><time>2026-04-18T09:58:17.943Z</time></trkpt><trkpt lat="43.5051075" lon="12.4233347"><ele>784.6666666666666</ele><time>2026-04-18T09:58:18.943Z</time></trkpt><trkpt lat="43.505069" lon="12.4234228"><ele>783.0</ele><time>2026-04-18T09:58:19.943Z</time></trkpt><trkpt lat="43.5050105" lon="12.4236223"><ele>783.0</ele><time>2026-04-18T09:58:21.942Z</time></trkpt><trkpt lat="43.5049794" lon="12.4237223"><ele>783.0</ele><time>2026-04-18T09:58:22.944Z</time></trkpt><trkpt lat="43.5049444" lon="12.4238084"><ele>783.0</ele><time>2026-04-18T09:58:23.942Z</time></trkpt><trkpt lat="43.5049059" lon="12.4238836"><ele>783.0</ele><time>2026-04-18T09:58:24.943Z</time></trkpt><trkpt lat="43.5048684" lon="12.4239613"><ele>783.0</ele><time>2026-04-18T09:58:25.943Z</time></trkpt><trkpt lat="43.5048522" lon="12.4240479"><ele>783.0</ele><time>2026-04-18T09:58:26.944Z</time></trkpt><trkpt lat="43.5048481" lon="12.4241469"><ele>783.0</ele><time>2026-04-18T09:58:27.944Z</time></trkpt><trkpt lat="43.50485" lon="12.4242505"><ele>783.1666666666666</ele><time>2026-04-18T09:58:28.944Z</time></trkpt><trkpt lat="43.50485" lon="12.4243603"><ele>783.3333333333333</ele><time>2026-04-18T09:58:29.943Z</time></trkpt><trkpt lat="43.5048448" lon="12.4244743"><ele>783.5</ele><time>2026-04-18T09:58:30.944Z</time></trkpt><trkpt lat="43.5048146" lon="12.4245792"><ele>783.6666666666666</ele><time>2026-04-18T09:58:31.943Z</time></trkpt><trkpt lat="43.5047764" lon="12.424674"><ele>783.8333333333333</ele><time>2026-04-18T09:58:32.943Z</time></trkpt><trkpt lat="43.5047358" lon="12.424763"><ele>784.0</ele><time>2026-04-18T09:58:33.943Z</time></trkpt><trkpt lat="43.5046986" lon="12.4248389"><ele>783.1666666666666</ele><time>2026-04-18T09:58:34.943Z</time></trkpt><trkpt lat="43.504649" lon="12.4249699"><ele>782.3333333333333</ele><time>2026-04-18T09:58:36.944Z</time></trkpt><trkpt lat="43.5046081" lon="12.4250634"><ele>781.5</ele><time>2026-04-18T09:58:38.943Z</time></trkpt><trkpt lat="43.5045186" lon="12.4250934"><ele>780.6666666666667</ele><time>2026-04-18T09:58:41.944Z</time></trkpt><trkpt lat="43.5044433" lon="12.4250598"><ele>779.8333333333334</ele><time>2026-04-18T09:58:43.942Z</time></trkpt><trkpt lat="43.5043638" lon="12.4250619"><ele>779.0</ele><time>2026-04-18T09:58:45.943Z</time></trkpt><trkpt lat="43.5042629" lon="12.4251132"><ele>779.4285714285714</ele><time>2026-04-18T09:58:47.944Z</time></trkpt><trkpt lat="43.5042063" lon="12.4251568"><ele>779.8571428571429</ele><time>2026-04-18T09:58:48.943Z</time></trkpt><trkpt lat="43.5041463" lon="12.4252197"><ele>780.2857142857142</ele><time>2026-04-18T09:58:49.942Z</time></trkpt><trkpt lat="43.5040958" lon="12.4252949"><ele>780.7142857142858</ele><time>2026-04-18T09:58:50.942Z</time></trkpt><trkpt lat="43.504051" lon="12.4253636"><ele>781.1428571428571</ele><time>2026-04-18T09:58:51.943Z</time></trkpt><trkpt lat="43.5040069" lon="12.4254455"><ele>781.5714285714286</ele><time>2026-04-18T09:58:52.944Z</time></trkpt><trkpt lat="43.5039558" lon="12.4255409"><ele>782.0</ele><time>2026-04-18T09:58:53.942Z</time></trkpt><trkpt lat="43.5039096" lon="12.4256172"><ele>782.0000000000001</ele><time>2026-04-18T09:58:54.942Z</time></trkpt><trkpt lat="43.5038712" lon="12.4257016"><ele>782.0</ele><time>2026-04-18T09:58:55.942Z</time></trkpt><trkpt lat="43.5038025" lon="12.4257984"><ele>782.0</ele><time>2026-04-18T09:58:56.943Z</time></trkpt><trkpt lat="43.5037503" lon="12.4258964"><ele>782.0</ele><time>2026-04-18T09:58:57.943Z</time></trkpt><trkpt lat="43.5036877" lon="12.4260025"><ele>782.0000000000001</ele><time>2026-04-18T09:58:58.943Z</time></trkpt><trkpt lat="43.5036492" lon="12.4260968"><ele>782.0</ele><time>2026-04-18T09:58:59.942Z</time></trkpt><trkpt lat="43.5036014" lon="12.4261885"><ele>782.0</ele><time>2026-04-18T09:59:00.943Z</time></trkpt><trkpt lat="43.5035854" lon="12.4262907"><ele>782.0</ele><time>2026-04-18T09:59:01.942Z</time></trkpt><trkpt lat="43.5035052" lon="12.4264373"><ele>782.0</ele><time>2026-04-18T09:59:03.944Z</time></trkpt><trkpt lat="43.5034499" lon="12.4265166"><ele>782.0</ele><time>2026-04-18T09:59:04.943Z</time></trkpt><trkpt lat="43.5033712" lon="12.4266325"><ele>782.0</ele><time>2026-04-18T09:59:05.942Z</time></trkpt><trkpt lat="43.503315" lon="12.4267243"><ele>782.0</ele><time>2026-04-18T09:59:06.944Z</time></trkpt><trkpt lat="43.5032531" lon="12.4268232"><ele>782.0</ele><time>2026-04-18T09:59:07.943Z</time></trkpt><trkpt lat="43.5031882" lon="12.4269176"><ele>782.0</ele><time>2026-04-18T09:59:08.944Z</time></trkpt><trkpt lat="43.5031184" lon="12.4269983"><ele>782.0</ele><time>2026-04-18T09:59:09.943Z</time></trkpt><trkpt lat="43.5030343" lon="12.4270831"><ele>782.0</ele><time>2026-04-18T09:59:10.942Z</time></trkpt><trkpt lat="43.5029472" lon="12.4271636"><ele>781.8</ele><time>2026-04-18T09:59:11.944Z</time></trkpt><trkpt lat="43.5028648" lon="12.4272505"><ele>781.6</ele><time>2026-04-18T09:59:12.943Z</time></trkpt><trkpt lat="43.5027855" lon="12.4273219"><ele>781.4</ele><time>2026-04-18T09:59:13.943Z</time></trkpt><trkpt lat="43.502707" lon="12.4274032"><ele>781.1999999999999</ele><time>2026-04-18T09:59:14.943Z</time></trkpt><trkpt lat="43.5026368" lon="12.427489"><ele>781.0</ele><time>2026-04-18T09:59:15.943Z</time></trkpt><trkpt lat="43.5025657" lon="12.4275853"><ele>781.0</ele><time>2026-04-18T09:59:16.943Z</time></trkpt><trkpt lat="43.5025046" lon="12.4276922"><ele>781.0</ele><time>2026-04-18T09:59:17.943Z</time></trkpt><trkpt lat="43.5024669" lon="12.4277968"><ele>781.0</ele><time>2026-04-18T09:59:18.942Z</time></trkpt><trkpt lat="43.502418" lon="12.4279141"><ele>781.0</ele><time>2026-04-18T09:59:19.943Z</time></trkpt><trkpt lat="43.5023823" lon="12.4280214"><ele>781.0</ele><time>2026-04-18T09:59:20.944Z</time></trkpt><trkpt lat="43.5023319" lon="12.4281216"><ele>781.4</ele><time>2026-04-18T09:59:21.943Z</time></trkpt><trkpt lat="43.5022823" lon="12.4282401"><ele>781.8</ele><time>2026-04-18T09:59:22.942Z</time></trkpt><trkpt lat="43.5022249" lon="12.4283612"><ele>782.1999999999999</ele><time>2026-04-18T09:59:23.942Z</time></trkpt><trkpt lat="43.5021745" lon="12.4284902"><ele>782.5999999999999</ele><time>2026-04-18T09:59:24.943Z</time></trkpt><trkpt lat="43.5021284" lon="12.4286114"><ele>783.0</ele><time>2026-04-18T09:59:25.942Z</time></trkpt><trkpt lat="43.5020816" lon="12.4287228"><ele>781.8</ele><time>2026-04-18T09:59:26.943Z</time></trkpt><trkpt lat="43.5020344" lon="12.4288241"><ele>780.5999999999999</ele><time>2026-04-18T09:59:27.943Z</time></trkpt><trkpt lat="43.5019946" lon="12.4289117"><ele>779.4000000000001</ele><time>2026-04-18T09:59:28.943Z</time></trkpt><trkpt lat="43.50193" lon="12.4290499"><ele>778.2</ele><time>2026-04-18T09:59:30.944Z</time></trkpt><trkpt lat="43.5019124" lon="12.4291376"><ele>777.0</ele><time>2026-04-18T09:59:31.943Z</time></trkpt><trkpt lat="43.5019035" lon="12.4293171"><ele>777.0</ele><time>2026-04-18T09:59:33.944Z</time></trkpt><trkpt lat="43.5018936" lon="12.4294161"><ele>777.0</ele><time>2026-04-18T09:59:34.943Z</time></trkpt><trkpt lat="43.5018872" lon="12.429525"><ele>777.0</ele><time>2026-04-18T09:59:35.943Z</time></trkpt><trkpt lat="43.5018821" lon="12.4296312"><ele>777.0</ele><time>2026-04-18T09:59:36.943Z</time></trkpt><trkpt lat="43.5018751" lon="12.4297442"><ele>777.0</ele><time>2026-04-18T09:59:37.942Z</time></trkpt><trkpt lat="43.501868" lon="12.429857"><ele>777.0</ele><time>2026-04-18T09:59:38.942Z</time></trkpt><trkpt lat="43.5018647" lon="12.4299661"><ele>778.1428571428571</ele><time>2026-04-18T09:59:39.943Z</time></trkpt><trkpt lat="43.5018646" lon="12.4300762"><ele>779.2857142857142</ele><time>2026-04-18T09:59:40.943Z</time></trkpt><trkpt lat="43.5018699" lon="12.4301843"><ele>780.4285714285714</ele><time>2026-04-18T09:59:41.943Z</time></trkpt><trkpt lat="43.5018764" lon="12.4302821"><ele>781.5714285714286</ele><time>2026-04-18T09:59:42.943Z</time></trkpt><trkpt lat="43.5018882" lon="12.4303788"><ele>782.7142857142857</ele><time>2026-04-18T09:59:43.944Z</time></trkpt><trkpt lat="43.5019053" lon="12.4304866"><ele>783.8571428571429</ele><time>2026-04-18T09:59:44.942Z</time></trkpt><trkpt lat="43.5018898" lon="12.430578"><ele>785.0</ele><time>2026-04-18T09:59:45.943Z</time></trkpt><trkpt lat="43.5018746" lon="12.4306776"><ele>786.75</ele><time>2026-04-18T09:59:46.943Z</time></trkpt><trkpt lat="43.5018684" lon="12.4308035"><ele>788.5</ele><time>2026-04-18T09:59:48.942Z</time></trkpt><trkpt lat="43.5019336" lon="12.4308963"><ele>790.25</ele><time>2026-04-18T09:59:50.942Z</time></trkpt><trkpt lat="43.5020608" lon="12.4309911"><ele>792.0</ele><time>2026-04-18T09:59:52.943Z</time></trkpt><trkpt lat="43.5021682" lon="12.4311136"><ele>792.0</ele><time>2026-04-18T09:59:54.943Z</time></trkpt><trkpt lat="43.5022506" lon="12.4311985"><ele>792.0</ele><time>2026-04-18T09:59:56.943Z</time></trkpt><trkpt lat="43.5023685" lon="12.4313214"><ele>792.0</ele><time>2026-04-18T09:59:58.943Z</time></trkpt><trkpt lat="43.5024583" lon="12.4314502"><ele>792.0</ele><time>2026-04-18T09:59:59.943Z</time></trkpt><trkpt lat="43.5025539" lon="12.4316155"><ele>793.2</ele><time>2026-04-18T10:00:00.944Z</time></trkpt><trkpt lat="43.5026412" lon="12.4317294"><ele>794.4000000000001</ele><time>2026-04-18T10:00:01.943Z</time></trkpt><trkpt lat="43.5026928" lon="12.4318063"><ele>795.5999999999999</ele><time>2026-04-18T10:00:02.943Z</time></trkpt><trkpt lat="43.5027419" lon="12.431877"><ele>796.8</ele><time>2026-04-18T10:00:03.943Z</time></trkpt><trkpt lat="43.502859" lon="12.4319955"><ele>798.0</ele><time>2026-04-18T10:00:05.943Z</time></trkpt><trkpt lat="43.5029163" lon="12.4320447"><ele>798.0</ele><time>2026-04-18T10:00:06.942Z</time></trkpt><trkpt lat="43.5029892" lon="12.4321038"><ele>798.0</ele><time>2026-04-18T10:00:07.942Z</time></trkpt><trkpt lat="43.503097" lon="12.4322271"><ele>798.0</ele><time>2026-04-18T10:00:08.943Z</time></trkpt><trkpt lat="43.5031645" lon="12.4322818"><ele>798.0</ele><time>2026-04-18T10:00:09.942Z</time></trkpt><trkpt lat="43.5032323" lon="12.4323335"><ele>798.0</ele><time>2026-04-18T10:00:10.942Z</time></trkpt><trkpt lat="43.5033047" lon="12.4323737"><ele>798.1428571428571</ele><time>2026-04-18T10:00:11.943Z</time></trkpt><trkpt lat="43.5033687" lon="12.4323692"><ele>798.2857142857142</ele><time>2026-04-18T10:00:12.942Z</time></trkpt><trkpt lat="43.503427" lon="12.432404"><ele>798.4285714285714</ele><time>2026-04-18T10:00:13.943Z</time></trkpt><trkpt lat="43.5034897" lon="12.4324415"><ele>798.5714285714286</ele><time>2026-04-18T10:00:14.943Z</time></trkpt><trkpt lat="43.5035338" lon="12.4325307"><ele>798.7142857142857</ele><time>2026-04-18T10:00:15.943Z</time></trkpt><trkpt lat="43.5035903" lon="12.4326059"><ele>798.8571428571429</ele><time>2026-04-18T10:00:16.944Z</time></trkpt><trkpt lat="43.5036397" lon="12.4326774"><ele>799.0</ele><time>2026-04-18T10:00:17.943Z</time></trkpt><trkpt lat="43.5037143" lon="12.4327488"><ele>796.8000000000001</ele><time>2026-04-18T10:00:18.942Z</time></trkpt><trkpt lat="43.5038399" lon="12.4328377"><ele>794.6</ele><time>2026-04-18T10:00:20.943Z</time></trkpt><trkpt lat="43.5039044" lon="12.4329052"><ele>792.4</ele><time>2026-04-18T10:00:21.944Z</time></trkpt><trkpt lat="43.5039638" lon="12.4330164"><ele>790.2</ele><time>2026-04-18T10:00:23.944Z</time></trkpt><trkpt lat="43.5040094" lon="12.4331079"><ele>788.0</ele><time>2026-04-18T10:00:24.943Z</time></trkpt><trkpt lat="43.5040542" lon="12.4331946"><ele>787.8333333333334</ele><time>2026-04-18T10:00:25.942Z</time></trkpt><trkpt lat="43.5041114" lon="12.433269"><ele>787.6666666666667</ele><time>2026-04-18T10:00:26.944Z</time></trkpt><trkpt lat="43.5041604" lon="12.4333285"><ele>787.5</ele><time>2026-04-18T10:00:27.943Z</time></trkpt><trkpt lat="43.5042318" lon="12.4334163"><ele>787.3333333333333</ele><time>2026-04-18T10:00:29.943Z</time></trkpt><trkpt lat="43.5042878" lon="12.4334824"><ele>787.1666666666666</ele><time>2026-04-18T10:00:30.943Z</time></trkpt><trkpt lat="43.5043407" lon="12.4335473"><ele>787.0</ele><time>2026-04-18T10:00:31.942Z</time></trkpt><trkpt lat="43.5044112" lon="12.4336019"><ele>787.0</ele><time>2026-04-18T10:00:32.942Z</time></trkpt><trkpt lat="43.5044755" lon="12.4336536"><ele>787.0</ele><time>2026-04-18T10:00:33.942Z</time></trkpt><trkpt lat="43.5045618" lon="12.4337271"><ele>787.0</ele><time>2026-04-18T10:00:35.943Z</time></trkpt><trkpt lat="43.5046103" lon="12.433798"><ele>787.0</ele><time>2026-04-18T10:00:36.943Z</time></trkpt><trkpt lat="43.5046606" lon="12.4339103"><ele>787.0</ele><time>2026-04-18T10:00:37.943Z</time></trkpt><trkpt lat="43.5046673" lon="12.4340757"><ele>785.0</ele><time>2026-04-18T10:00:39.943Z</time></trkpt><trkpt lat="43.5046768" lon="12.4341798"><ele>783.0</ele><time>2026-04-18T10:00:40.943Z</time></trkpt><trkpt lat="43.5046817" lon="12.4342901"><ele>781.0</ele><time>2026-04-18T10:00:41.942Z</time></trkpt><trkpt lat="43.504685" lon="12.43439"><ele>779.0</ele><time>2026-04-18T10:00:42.943Z</time></trkpt><trkpt lat="43.5047063" lon="12.4345552"><ele>777.0</ele><time>2026-04-18T10:00:44.943Z</time></trkpt><trkpt lat="43.5047297" lon="12.4346901"><ele>777.0</ele><time>2026-04-18T10:00:46.944Z</time></trkpt><trkpt lat="43.5047722" lon="12.4348091"><ele>777.0</ele><time>2026-04-18T10:00:48.943Z</time></trkpt><trkpt lat="43.5048158" lon="12.434923"><ele>777.0</ele><time>2026-04-18T10:00:50.944Z</time></trkpt><trkpt lat="43.5048082" lon="12.4350259"><ele>777.0</ele><time>2026-04-18T10:00:52.942Z</time></trkpt><trkpt lat="43.504785" lon="12.4351389"><ele>777.0</ele><time>2026-04-18T10:00:53.943Z</time></trkpt><trkpt lat="43.5047734" lon="12.4353078"><ele>777.0</ele><time>2026-04-18T10:00:55.943Z</time></trkpt><trkpt lat="43.5047848" lon="12.4353958"><ele>777.0</ele><time>2026-04-18T10:00:56.942Z</time></trkpt><trkpt lat="43.5048265" lon="12.4355529"><ele>777.0</ele><time>2026-04-18T10:00:58.943Z</time></trkpt><trkpt lat="43.5049029" lon="12.4357252"><ele>777.0</ele><time>2026-04-18T10:01:00.943Z</time></trkpt><trkpt lat="43.5049496" lon="12.4358026"><ele>777.0</ele><time>2026-04-18T10:01:01.944Z</time></trkpt><trkpt lat="43.5049855" lon="12.4358818"><ele>779.2</ele><time>2026-04-18T10:01:02.943Z</time></trkpt><trkpt lat="43.5050013" lon="12.4359812"><ele>781.4000000000001</ele><time>2026-04-18T10:01:03.943Z</time></trkpt><trkpt lat="43.5050197" lon="12.4360691"><ele>783.5999999999999</ele><time>2026-04-18T10:01:04.942Z</time></trkpt><trkpt lat="43.5050422" lon="12.4361714"><ele>785.8</ele><time>2026-04-18T10:01:05.942Z</time></trkpt><trkpt lat="43.5050177" lon="12.4364514"><ele>788.0</ele><time>2026-04-18T10:01:06.943Z</time></trkpt><trkpt lat="43.5050322" lon="12.4365657"><ele>789.2</ele><time>2026-04-18T10:01:07.944Z</time></trkpt><trkpt lat="43.505031" lon="12.4367136"><ele>790.4</ele><time>2026-04-18T10:01:08.942Z</time></trkpt><trkpt lat="43.5050413" lon="12.4368771"><ele>791.6</ele><time>2026-04-18T10:01:09.943Z</time></trkpt><trkpt lat="43.5050457" lon="12.437053"><ele>792.8000000000001</ele><time>2026-04-18T10:01:11.943Z</time></trkpt><trkpt lat="43.5050259" lon="12.4371649"><ele>794.0</ele><time>2026-04-18T10:01:13.942Z</time></trkpt><trkpt lat="43.5049656" lon="12.4372783"><ele>795.1666666666667</ele><time>2026-04-18T10:01:15.943Z</time></trkpt><trkpt lat="43.5049609" lon="12.4373828"><ele>796.3333333333334</ele><time>2026-04-18T10:01:17.944Z</time></trkpt><trkpt lat="43.5050195" lon="12.4374569"><ele>797.5</ele><time>2026-04-18T10:01:19.943Z</time></trkpt><trkpt lat="43.5050794" lon="12.4374973"><ele>798.6666666666667</ele><time>2026-04-18T10:01:20.942Z</time></trkpt><trkpt lat="43.5051349" lon="12.4375571"><ele>799.8333333333334</ele><time>2026-04-18T10:01:21.944Z</time></trkpt><trkpt lat="43.5052026" lon="12.4376595"><ele>801.0</ele><time>2026-04-18T10:01:22.943Z</time></trkpt><trkpt lat="43.5052274" lon="12.4377979"><ele>801.0</ele><time>2026-04-18T10:01:23.943Z</time></trkpt><trkpt lat="43.5052618" lon="12.4379174"><ele>801.0</ele><time>2026-04-18T10:01:24.943Z</time></trkpt><trkpt lat="43.5053099" lon="12.4380606"><ele>801.0</ele><time>2026-04-18T10:01:25.942Z</time></trkpt><trkpt lat="43.5053039" lon="12.4381694"><ele>801.0</ele><time>2026-04-18T10:01:26.944Z</time></trkpt><trkpt lat="43.5053048" lon="12.438275"><ele>801.0</ele><time>2026-04-18T10:01:27.943Z</time></trkpt><trkpt lat="43.5052971" lon="12.4383853"><ele>801.0</ele><time>2026-04-18T10:01:28.944Z</time></trkpt><trkpt lat="43.5052728" lon="12.4384959"><ele>801.5999999999999</ele><time>2026-04-18T10:01:29.943Z</time></trkpt><trkpt lat="43.5052557" lon="12.4386111"><ele>802.2</ele><time>2026-04-18T10:01:30.943Z</time></trkpt><trkpt lat="43.5052309" lon="12.4387357"><ele>802.8</ele><time>2026-04-18T10:01:31.942Z</time></trkpt><trkpt lat="43.5051961" lon="12.4388805"><ele>803.4000000000001</ele><time>2026-04-18T10:01:32.943Z</time></trkpt><trkpt lat="43.5051593" lon="12.4390133"><ele>804.0</ele><time>2026-04-18T10:01:33.943Z</time></trkpt><trkpt lat="43.5051185" lon="12.4391258"><ele>806.2</ele><time>2026-04-18T10:01:34.943Z</time></trkpt><trkpt lat="43.5050569" lon="12.4393025"><ele>808.4000000000001</ele><time>2026-04-18T10:01:35.943Z</time></trkpt><trkpt lat="43.5050204" lon="12.4394025"><ele>810.6</ele><time>2026-04-18T10:01:36.943Z</time></trkpt><trkpt lat="43.5049705" lon="12.4395654"><ele>812.8</ele><time>2026-04-18T10:01:38.942Z</time></trkpt><trkpt lat="43.5049624" lon="12.4396533"><ele>815.0</ele><time>2026-04-18T10:01:39.943Z</time></trkpt><trkpt lat="43.5049163" lon="12.4397924"><ele>817.2</ele><time>2026-04-18T10:01:41.944Z</time></trkpt><trkpt lat="43.5048438" lon="12.4399352"><ele>819.4</ele><time>2026-04-18T10:01:43.943Z</time></trkpt><trkpt lat="43.5048061" lon="12.4400266"><ele>821.5999999999999</ele><time>2026-04-18T10:01:44.943Z</time></trkpt><trkpt lat="43.5047482" lon="12.440192"><ele>823.8</ele><time>2026-04-18T10:01:46.942Z</time></trkpt><trkpt lat="43.5046905" lon="12.4403083"><ele>826.0</ele><time>2026-04-18T10:01:47.942Z</time></trkpt><trkpt lat="43.504641" lon="12.4403869"><ele>829.0</ele><time>2026-04-18T10:01:48.944Z</time></trkpt><trkpt lat="43.5046354" lon="12.4405559"><ele>832.0</ele><time>2026-04-18T10:01:50.942Z</time></trkpt><trkpt lat="43.5046245" lon="12.4407024"><ele>835.0</ele><time>2026-04-18T10:01:51.942Z</time></trkpt><trkpt lat="43.5046219" lon="12.4408349"><ele>838.0</ele><time>2026-04-18T10:01:52.943Z</time></trkpt><trkpt lat="43.5046019" lon="12.4410762"><ele>838.0</ele><time>2026-04-18T10:01:54.942Z</time></trkpt><trkpt lat="43.5045911" lon="12.4412004"><ele>838.0</ele><time>2026-04-18T10:01:55.944Z</time></trkpt><trkpt lat="43.5045769" lon="12.4413928"><ele>838.0</ele><time>2026-04-18T10:01:57.943Z</time></trkpt><trkpt lat="43.5046403" lon="12.4416586"><ele>838.0</ele><time>2026-04-18T10:01:59.943Z</time></trkpt><trkpt lat="43.5047099" lon="12.4417293"><ele>840.3333333333333</ele><time>2026-04-18T10:02:00.942Z</time></trkpt><trkpt lat="43.5047959" lon="12.4417464"><ele>842.6666666666666</ele><time>2026-04-18T10:02:02.942Z</time></trkpt><trkpt lat="43.5048425" lon="12.4418344"><ele>845.0</ele><time>2026-04-18T10:02:04.943Z</time></trkpt><trkpt lat="43.5048665" lon="12.441929"><ele>847.3333333333333</ele><time>2026-04-18T10:02:05.943Z</time></trkpt><trkpt lat="43.5049238" lon="12.4420343"><ele>849.6666666666666</ele><time>2026-04-18T10:02:07.944Z</time></trkpt><trkpt lat="43.5050204" lon="12.442061"><ele>852.0</ele><time>2026-04-18T10:02:09.943Z</time></trkpt><trkpt lat="43.5051526" lon="12.4420696"><ele>852.0</ele><time>2026-04-18T10:02:11.942Z</time></trkpt><trkpt lat="43.5052391" lon="12.4420702"><ele>852.0</ele><time>2026-04-18T10:02:12.942Z</time></trkpt><trkpt lat="43.5053332" lon="12.4420794"><ele>852.0</ele><time>2026-04-18T10:02:13.943Z</time></trkpt><trkpt lat="43.5054015" lon="12.4420852"><ele>852.0</ele><time>2026-04-18T10:02:14.943Z</time></trkpt><trkpt lat="43.5055031" lon="12.4421878"><ele>852.0</ele><time>2026-04-18T10:02:16.943Z</time></trkpt><trkpt lat="43.505607" lon="12.442309"><ele>850.8571428571428</ele><time>2026-04-18T10:02:18.942Z</time></trkpt><trkpt lat="43.5056631" lon="12.4423832"><ele>849.7142857142857</ele><time>2026-04-18T10:02:19.944Z</time></trkpt><trkpt lat="43.5057178" lon="12.4424443"><ele>848.5714285714286</ele><time>2026-04-18T10:02:20.943Z</time></trkpt><trkpt lat="43.5057764" lon="12.4425312"><ele>847.4285714285713</ele><time>2026-04-18T10:02:21.944Z</time></trkpt><trkpt lat="43.5058265" lon="12.4425902"><ele>846.2857142857143</ele><time>2026-04-18T10:02:22.943Z</time></trkpt><trkpt lat="43.5058762" lon="12.4426451"><ele>845.1428571428571</ele><time>2026-04-18T10:02:23.943Z</time></trkpt><trkpt lat="43.5059434" lon="12.4427054"><ele>844.0</ele><time>2026-04-18T10:02:24.943Z</time></trkpt><trkpt lat="43.5060064" lon="12.4427571"><ele>843.9999999999999</ele><time>2026-04-18T10:02:25.943Z</time></trkpt><trkpt lat="43.5060711" lon="12.4428251"><ele>844.0</ele><time>2026-04-18T10:02:26.943Z</time></trkpt><trkpt lat="43.5061233" lon="12.4428924"><ele>844.0</ele><time>2026-04-18T10:02:27.944Z</time></trkpt><trkpt lat="43.506169" lon="12.442955"><ele>844.0</ele><time>2026-04-18T10:02:28.943Z</time></trkpt><trkpt lat="43.5062126" lon="12.4430272"><ele>843.9999999999999</ele><time>2026-04-18T10:02:29.942Z</time></trkpt><trkpt lat="43.5062571" lon="12.4431655"><ele>844.0</ele><time>2026-04-18T10:02:31.942Z</time></trkpt><trkpt lat="43.5063227" lon="12.4432549"><ele>843.2</ele><time>2026-04-18T10:02:33.942Z</time></trkpt><trkpt lat="43.5064319" lon="12.4433471"><ele>842.4000000000001</ele><time>2026-04-18T10:02:35.943Z</time></trkpt><trkpt lat="43.5065191" lon="12.4433716"><ele>841.6</ele><time>2026-04-18T10:02:36.944Z</time></trkpt><trkpt lat="43.506601" lon="12.4434272"><ele>840.8</ele><time>2026-04-18T10:02:37.943Z</time></trkpt><trkpt lat="43.5066732" lon="12.4434728"><ele>840.0</ele><time>2026-04-18T10:02:38.943Z</time></trkpt><trkpt lat="43.5067386" lon="12.4435206"><ele>840.0</ele><time>2026-04-18T10:02:39.943Z</time></trkpt><trkpt lat="43.5068301" lon="12.4437214"><ele>840.0</ele><time>2026-04-18T10:02:41.943Z</time></trkpt><trkpt lat="43.5068846" lon="12.4438163"><ele>840.0</ele><time>2026-04-18T10:02:42.943Z</time></trkpt><trkpt lat="43.5069411" lon="12.443936"><ele>840.0</ele><time>2026-04-18T10:02:43.943Z</time></trkpt><trkpt lat="43.5069999" lon="12.4440491"><ele>840.5</ele><time>2026-04-18T10:02:44.944Z</time></trkpt><trkpt lat="43.5070634" lon="12.4441841"><ele>841.0</ele><time>2026-04-18T10:02:45.942Z</time></trkpt><trkpt lat="43.5071568" lon="12.4443507"><ele>841.5</ele><time>2026-04-18T10:02:46.943Z</time></trkpt><trkpt lat="43.5072438" lon="12.4444979"><ele>842.0</ele><time>2026-04-18T10:02:47.944Z</time></trkpt><trkpt lat="43.5073139" lon="12.4446349"><ele>845.4000000000001</ele><time>2026-04-18T10:02:48.943Z</time></trkpt><trkpt lat="43.5073863" lon="12.4447598"><ele>848.8000000000001</ele><time>2026-04-18T10:02:49.943Z</time></trkpt><trkpt lat="43.5074551" lon="12.4448611"><ele>852.2</ele><time>2026-04-18T10:02:50.942Z</time></trkpt><trkpt lat="43.5075188" lon="12.4449598"><ele>855.6</ele><time>2026-04-18T10:02:51.944Z</time></trkpt><trkpt lat="43.5075792" lon="12.4450626"><ele>859.0</ele><time>2026-04-18T10:02:52.944Z</time></trkpt><trkpt lat="43.5076347" lon="12.4451356"><ele>858.9999999999999</ele><time>2026-04-18T10:02:53.943Z</time></trkpt><trkpt lat="43.507682" lon="12.4452558"><ele>859.0</ele><time>2026-04-18T10:02:54.943Z</time></trkpt><trkpt lat="43.5077309" lon="12.4453186"><ele>859.0</ele><time>2026-04-18T10:02:55.942Z</time></trkpt><trkpt lat="43.5077941" lon="12.4453801"><ele>859.0</ele><time>2026-04-18T10:02:57.944Z</time></trkpt><trkpt lat="43.5078683" lon="12.4454312"><ele>858.9999999999999</ele><time>2026-04-18T10:02:59.944Z</time></trkpt><trkpt lat="43.5079484" lon="12.4454232"><ele>859.0</ele><time>2026-04-18T10:03:01.944Z</time></trkpt><trkpt lat="43.5080343" lon="12.4454336"><ele>857.8000000000001</ele><time>2026-04-18T10:03:02.944Z</time></trkpt><trkpt lat="43.5081225" lon="12.4454062"><ele>856.6000000000001</ele><time>2026-04-18T10:03:03.943Z</time></trkpt><trkpt lat="43.5082257" lon="12.4454046"><ele>855.4</ele><time>2026-04-18T10:03:04.942Z</time></trkpt><trkpt lat="43.5083192" lon="12.4454148"><ele>854.2</ele><time>2026-04-18T10:03:05.943Z</time></trkpt><trkpt lat="43.508415" lon="12.4454298"><ele>853.0</ele><time>2026-04-18T10:03:06.943Z</time></trkpt><trkpt lat="43.5085189" lon="12.4454476"><ele>852.5999999999999</ele><time>2026-04-18T10:03:07.942Z</time></trkpt><trkpt lat="43.5085897" lon="12.4454855"><ele>852.1999999999999</ele><time>2026-04-18T10:03:08.944Z</time></trkpt><trkpt lat="43.5086621" lon="12.4455279"><ele>851.8</ele><time>2026-04-18T10:03:09.944Z</time></trkpt><trkpt lat="43.5087661" lon="12.4456351"><ele>851.4</ele><time>2026-04-18T10:03:10.943Z</time></trkpt><trkpt lat="43.5088598" lon="12.4457062"><ele>851.0</ele><time>2026-04-18T10:03:11.943Z</time></trkpt><trkpt lat="43.5089454" lon="12.4457717"><ele>851.0</ele><time>2026-04-18T10:03:12.944Z</time></trkpt><trkpt lat="43.5090381" lon="12.4458219"><ele>851.0</ele><time>2026-04-18T10:03:13.943Z</time></trkpt><trkpt lat="43.5091152" lon="12.4458513"><ele>851.0</ele><time>2026-04-18T10:03:14.943Z</time></trkpt><trkpt lat="43.5092035" lon="12.4458786"><ele>851.0</ele><time>2026-04-18T10:03:15.943Z</time></trkpt><trkpt lat="43.5093295" lon="12.4459642"><ele>851.0</ele><time>2026-04-18T10:03:17.942Z</time></trkpt><trkpt lat="43.5093926" lon="12.4460023"><ele>851.0000000000001</ele><time>2026-04-18T10:03:18.942Z</time></trkpt><trkpt lat="43.5094515" lon="12.4460437"><ele>851.0</ele><time>2026-04-18T10:03:19.943Z</time></trkpt><trkpt lat="43.5095127" lon="12.4460859"><ele>851.0</ele><time>2026-04-18T10:03:20.942Z</time></trkpt><trkpt lat="43.50958" lon="12.4461546"><ele>851.0</ele><time>2026-04-18T10:03:22.942Z</time></trkpt><trkpt lat="43.5096171" lon="12.4462483"><ele>851.0000000000001</ele><time>2026-04-18T10:03:25.943Z</time></trkpt><trkpt lat="43.5096905" lon="12.4463005"><ele>851.0</ele><time>2026-04-18T10:03:29.943Z</time></trkpt><trkpt lat="43.5097513" lon="12.4463794"><ele>851.5999999999999</ele><time>2026-04-18T10:03:31.943Z</time></trkpt><trkpt lat="43.5098371" lon="12.4464653"><ele>852.2</ele><time>2026-04-18T10:03:33.942Z</time></trkpt><trkpt lat="43.5099138" lon="12.4465149"><ele>852.8000000000001</ele><time>2026-04-18T10:03:34.942Z</time></trkpt><trkpt lat="43.5100009" lon="12.4465505"><ele>853.4000000000001</ele><time>2026-04-18T10:03:35.943Z</time></trkpt><trkpt lat="43.5101127" lon="12.4466287"><ele>854.0</ele><time>2026-04-18T10:03:36.944Z</time></trkpt><trkpt lat="43.5101794" lon="12.4466779"><ele>854.0000000000001</ele><time>2026-04-18T10:03:37.943Z</time></trkpt><trkpt lat="43.5102339" lon="12.4467369"><ele>854.0</ele><time>2026-04-18T10:03:38.942Z</time></trkpt><trkpt lat="43.5102738" lon="12.4468057"><ele>854.0</ele><time>2026-04-18T10:03:39.944Z</time></trkpt><trkpt lat="43.5103348" lon="12.446889"><ele>854.0</ele><time>2026-04-18T10:03:40.943Z</time></trkpt><trkpt lat="43.5103991" lon="12.4470546"><ele>854.0000000000001</ele><time>2026-04-18T10:03:42.943Z</time></trkpt><trkpt lat="43.5104395" lon="12.4471542"><ele>854.0</ele><time>2026-04-18T10:03:43.943Z</time></trkpt><trkpt lat="43.5105005" lon="12.447262"><ele>855.1666666666667</ele><time>2026-04-18T10:03:44.943Z</time></trkpt><trkpt lat="43.5105515" lon="12.447367"><ele>856.3333333333334</ele><time>2026-04-18T10:03:45.942Z</time></trkpt><trkpt lat="43.5105925" lon="12.4474488"><ele>857.5</ele><time>2026-04-18T10:03:46.944Z</time></trkpt><trkpt lat="43.5106343" lon="12.4475487"><ele>858.6666666666667</ele><time>2026-04-18T10:03:47.943Z</time></trkpt><trkpt lat="43.5106804" lon="12.4476411"><ele>859.8333333333334</ele><time>2026-04-18T10:03:48.944Z</time></trkpt><trkpt lat="43.5107382" lon="12.447722"><ele>861.0</ele><time>2026-04-18T10:03:49.942Z</time></trkpt><trkpt lat="43.5108567" lon="12.4478003"><ele>861.0</ele><time>2026-04-18T10:03:51.942Z</time></trkpt><trkpt lat="43.5109217" lon="12.4478482"><ele>861.0</ele><time>2026-04-18T10:03:52.943Z</time></trkpt><trkpt lat="43.5109863" lon="12.4479156"><ele>861.0</ele><time>2026-04-18T10:03:53.944Z</time></trkpt><trkpt lat="43.5110518" lon="12.4479877"><ele>861.0</ele><time>2026-04-18T10:03:54.943Z</time></trkpt><trkpt lat="43.5110917" lon="12.4480945"><ele>861.0</ele><time>2026-04-18T10:03:55.943Z</time></trkpt><trkpt lat="43.5111097" lon="12.4481924"><ele>861.0</ele><time>2026-04-18T10:03:56.943Z</time></trkpt><trkpt lat="43.5111001" lon="12.4483289"><ele>859.1666666666666</ele><time>2026-04-18T10:03:57.943Z</time></trkpt><trkpt lat="43.5110969" lon="12.4484238"><ele>857.3333333333333</ele><time>2026-04-18T10:03:58.943Z</time></trkpt><trkpt lat="43.5110924" lon="12.4485264"><ele>855.5</ele><time>2026-04-18T10:03:59.944Z</time></trkpt><trkpt lat="43.511102" lon="12.4486272"><ele>853.6666666666666</ele><time>2026-04-18T10:04:00.943Z</time></trkpt><trkpt lat="43.5111205" lon="12.4487252"><ele>851.8333333333333</ele><time>2026-04-18T10:04:01.942Z</time></trkpt><trkpt lat="43.5111514" lon="12.4488059"><ele>850.0</ele><time>2026-04-18T10:04:02.943Z</time></trkpt><trkpt lat="43.5112365" lon="12.4488797"><ele>848.8</ele><time>2026-04-18T10:04:04.944Z</time></trkpt><trkpt lat="43.511294" lon="12.4489151"><ele>847.6</ele><time>2026-04-18T10:04:05.943Z</time></trkpt><trkpt lat="43.511428" lon="12.4488329"><ele>846.4000000000001</ele><time>2026-04-18T10:04:08.943Z</time></trkpt><trkpt lat="43.5114844" lon="12.4487246"><ele>845.2</ele><time>2026-04-18T10:04:10.942Z</time></trkpt><trkpt lat="43.5115776" lon="12.4486026"><ele>844.0</ele><time>2026-04-18T10:04:12.944Z</time></trkpt><trkpt lat="43.5117048" lon="12.4485191"><ele>845.2</ele><time>2026-04-18T10:04:14.942Z</time></trkpt><trkpt lat="43.5118129" lon="12.4484893"><ele>846.4000000000001</ele><time>2026-04-18T10:04:16.943Z</time></trkpt><trkpt lat="43.5119213" lon="12.4484479"><ele>847.6</ele><time>2026-04-18T10:04:18.942Z</time></trkpt><trkpt lat="43.511984" lon="12.4484194"><ele>848.8</ele><time>2026-04-18T10:04:19.944Z</time></trkpt><trkpt lat="43.5120486" lon="12.4483963"><ele>850.0</ele><time>2026-04-18T10:04:20.944Z</time></trkpt><trkpt lat="43.5121402" lon="12.4482887"><ele>850.0</ele><time>2026-04-18T10:04:22.942Z</time></trkpt><trkpt lat="43.5122323" lon="12.4481801"><ele>850.0</ele><time>2026-04-18T10:04:24.942Z</time></trkpt><trkpt lat="43.5123439" lon="12.4481241"><ele>850.0</ele><time>2026-04-18T10:04:26.943Z</time></trkpt><trkpt lat="43.5124483" lon="12.4481563"><ele>850.0</ele><time>2026-04-18T10:04:28.943Z</time></trkpt><trkpt lat="43.5125161" lon="12.4482329"><ele>850.0</ele><time>2026-04-18T10:04:30.942Z</time></trkpt><trkpt lat="43.512558" lon="12.4483381"><ele>849.9999999999999</ele><time>2026-04-18T10:04:32.943Z</time></trkpt><trkpt lat="43.5126248" lon="12.4484344"><ele>850.0</ele><time>2026-04-18T10:04:34.943Z</time></trkpt><trkpt lat="43.5126778" lon="12.4484829"><ele>850.0</ele><time>2026-04-18T10:04:35.943Z</time></trkpt><trkpt lat="43.5127286" lon="12.4485562"><ele>850.0</ele><time>2026-04-18T10:04:36.943Z</time></trkpt><trkpt lat="43.5128034" lon="12.4486923"><ele>849.9999999999999</ele><time>2026-04-18T10:04:38.944Z</time></trkpt><trkpt lat="43.5128468" lon="12.4487979"><ele>850.0</ele><time>2026-04-18T10:04:40.942Z</time></trkpt><trkpt lat="43.5128839" lon="12.4488729"><ele>852.4</ele><time>2026-04-18T10:04:41.943Z</time></trkpt><trkpt lat="43.5129467" lon="12.4490021"><ele>854.8</ele><time>2026-04-18T10:04:43.943Z</time></trkpt><trkpt lat="43.5129735" lon="12.449098"><ele>857.2</ele><time>2026-04-18T10:04:44.944Z</time></trkpt><trkpt lat="43.5130332" lon="12.449286"><ele>859.6</ele><time>2026-04-18T10:04:46.942Z</time></trkpt><trkpt lat="43.513066" lon="12.4493854"><ele>862.0</ele><time>2026-04-18T10:04:47.943Z</time></trkpt><trkpt lat="43.5131088" lon="12.4495571"><ele>856.2</ele><time>2026-04-18T10:04:49.943Z</time></trkpt><trkpt lat="43.5131108" lon="12.4497154"><ele>850.4000000000001</ele><time>2026-04-18T10:04:51.942Z</time></trkpt><trkpt lat="43.5131865" lon="12.4498941"><ele>844.5999999999999</ele><time>2026-04-18T10:04:53.943Z</time></trkpt><trkpt lat="43.5132596" lon="12.4498504"><ele>838.8</ele><time>2026-04-18T10:04:55.942Z</time></trkpt><trkpt lat="43.513316" lon="12.4497858"><ele>833.0</ele><time>2026-04-18T10:04:56.944Z</time></trkpt><trkpt lat="43.5133811" lon="12.449744"><ele>833.0</ele><time>2026-04-18T10:04:57.942Z</time></trkpt><trkpt lat="43.5134524" lon="12.4497083"><ele>833.0</ele><time>2026-04-18T10:04:58.943Z</time></trkpt><trkpt lat="43.5135334" lon="12.4496731"><ele>833.0</ele><time>2026-04-18T10:04:59.943Z</time></trkpt><trkpt lat="43.5136106" lon="12.4496684"><ele>833.0</ele><time>2026-04-18T10:05:00.943Z</time></trkpt><trkpt lat="43.5137165" lon="12.449658"><ele>833.0</ele><time>2026-04-18T10:05:02.944Z</time></trkpt><trkpt lat="43.5138534" lon="12.4497382"><ele>832.8571428571429</ele><time>2026-04-18T10:05:04.944Z</time></trkpt><trkpt lat="43.5139417" lon="12.4497442"><ele>832.7142857142858</ele><time>2026-04-18T10:05:05.943Z</time></trkpt><trkpt lat="43.5139343" lon="12.449845"><ele>832.5714285714286</ele><time>2026-04-18T10:05:06.944Z</time></trkpt><trkpt lat="43.5139907" lon="12.4498912"><ele>832.4285714285714</ele><time>2026-04-18T10:05:07.943Z</time></trkpt><trkpt lat="43.5140385" lon="12.4499529"><ele>832.2857142857143</ele><time>2026-04-18T10:05:08.942Z</time></trkpt><trkpt lat="43.5140729" lon="12.450047"><ele>832.1428571428571</ele><time>2026-04-18T10:05:09.943Z</time></trkpt><trkpt lat="43.5141262" lon="12.4501047"><ele>832.0</ele><time>2026-04-18T10:05:10.943Z</time></trkpt><trkpt lat="43.5141879" lon="12.4501718"><ele>832.0</ele><time>2026-04-18T10:05:11.943Z</time></trkpt><trkpt lat="43.5142819" lon="12.4501197"><ele>832.0</ele><time>2026-04-18T10:05:13.942Z</time></trkpt><trkpt lat="43.514397" lon="12.4500547"><ele>832.0</ele><time>2026-04-18T10:05:15.944Z</time></trkpt><trkpt lat="43.5145264" lon="12.4500357"><ele>832.0</ele><time>2026-04-18T10:05:17.944Z</time></trkpt><trkpt lat="43.5145958" lon="12.4500614"><ele>832.0</ele><time>2026-04-18T10:05:18.943Z</time></trkpt><trkpt lat="43.5146725" lon="12.4501146"><ele>832.0</ele><time>2026-04-18T10:05:19.942Z</time></trkpt><trkpt lat="43.5147374" lon="12.4501499"><ele>832.0</ele><time>2026-04-18T10:05:20.942Z</time></trkpt><trkpt lat="43.5148188" lon="12.4502059"><ele>832.0</ele><time>2026-04-18T10:05:22.943Z</time></trkpt><trkpt lat="43.5148892" lon="12.4503265"><ele>832.0</ele><time>2026-04-18T10:05:24.943Z</time></trkpt><trkpt lat="43.5149315" lon="12.4504733"><ele>832.0</ele><time>2026-04-18T10:05:26.942Z</time></trkpt><trkpt lat="43.5149755" lon="12.4506058"><ele>823.75</ele><time>2026-04-18T10:05:28.942Z</time></trkpt><trkpt lat="43.5150376" lon="12.4507731"><ele>815.5</ele><time>2026-04-18T10:05:30.943Z</time></trkpt><trkpt lat="43.515123" lon="12.4508694"><ele>807.25</ele><time>2026-04-18T10:05:32.943Z</time></trkpt><trkpt lat="43.5152105" lon="12.450944"><ele>799.0</ele><time>2026-04-18T10:05:34.943Z</time></trkpt><trkpt lat="43.5152866" lon="12.4510598"><ele>798.9999999999999</ele><time>2026-04-18T10:05:36.943Z</time></trkpt><trkpt lat="43.5153715" lon="12.4511928"><ele>799.0</ele><time>2026-04-18T10:05:38.943Z</time></trkpt><trkpt lat="43.5154129" lon="12.4512616"><ele>799.0</ele><time>2026-04-18T10:05:39.943Z</time></trkpt><trkpt lat="43.5154558" lon="12.4513433"><ele>799.0</ele><time>2026-04-18T10:05:40.943Z</time></trkpt><trkpt lat="43.5154944" lon="12.4514224"><ele>798.9999999999999</ele><time>2026-04-18T10:05:41.943Z</time></trkpt><trkpt lat="43.5155058" lon="12.4515351"><ele>799.0</ele><time>2026-04-18T10:05:43.943Z</time></trkpt><trkpt lat="43.5155226" lon="12.4516612"><ele>798.5</ele><time>2026-04-18T10:05:47.944Z</time></trkpt><trkpt lat="43.5155712" lon="12.45184"><ele>798.0</ele><time>2026-04-18T10:05:49.942Z</time></trkpt><trkpt lat="43.5155904" lon="12.4519754"><ele>797.5</ele><time>2026-04-18T10:05:51.944Z</time></trkpt><trkpt lat="43.5156222" lon="12.4521434"><ele>797.0</ele><time>2026-04-18T10:05:53.943Z</time></trkpt><trkpt lat="43.5156505" lon="12.4523761"><ele>797.0</ele><time>2026-04-18T10:05:55.943Z</time></trkpt><trkpt lat="43.5158201" lon="12.4524162"><ele>797.0</ele><time>2026-04-18T10:05:56.943Z</time></trkpt><trkpt lat="43.5159179" lon="12.452518"><ele>797.0</ele><time>2026-04-18T10:05:58.943Z</time></trkpt><trkpt lat="43.5159717" lon="12.4525929"><ele>797.0</ele><time>2026-04-18T10:05:59.944Z</time></trkpt><trkpt lat="43.5160114" lon="12.4527198"><ele>797.0000000000001</ele><time>2026-04-18T10:06:00.944Z</time></trkpt><trkpt lat="43.5160515" lon="12.4527963"><ele>797.0</ele><time>2026-04-18T10:06:01.942Z</time></trkpt><trkpt lat="43.5160898" lon="12.4528789"><ele>797.0</ele><time>2026-04-18T10:06:02.943Z</time></trkpt><trkpt lat="43.5161267" lon="12.4529537"><ele>797.0</ele><time>2026-04-18T10:06:03.943Z</time></trkpt><trkpt lat="43.5161979" lon="12.4530087"><ele>797.0000000000001</ele><time>2026-04-18T10:06:04.944Z</time></trkpt><trkpt lat="43.5163154" lon="12.4530607"><ele>797.0</ele><time>2026-04-18T10:06:05.942Z</time></trkpt><trkpt lat="43.5164274" lon="12.4530943"><ele>799.0000000000001</ele><time>2026-04-18T10:06:06.944Z</time></trkpt><trkpt lat="43.5165125" lon="12.4531183"><ele>801.0</ele><time>2026-04-18T10:06:07.943Z</time></trkpt><trkpt lat="43.5165987" lon="12.4531106"><ele>803.0</ele><time>2026-04-18T10:06:08.943Z</time></trkpt><trkpt lat="43.5166714" lon="12.4531259"><ele>805.0</ele><time>2026-04-18T10:06:09.943Z</time></trkpt><trkpt lat="43.5167388" lon="12.4531336"><ele>807.0000000000001</ele><time>2026-04-18T10:06:10.943Z</time></trkpt><trkpt lat="43.5168405" lon="12.4531616"><ele>809.0</ele><time>2026-04-18T10:06:12.943Z</time></trkpt><trkpt lat="43.5169004" lon="12.453202"><ele>809.0</ele><time>2026-04-18T10:06:13.943Z</time></trkpt><trkpt lat="43.5170226" lon="12.4532915"><ele>809.0</ele><time>2026-04-18T10:06:15.944Z</time></trkpt><trkpt lat="43.5170908" lon="12.4533154"><ele>809.0</ele><time>2026-04-18T10:06:16.944Z</time></trkpt><trkpt lat="43.5172133" lon="12.4533354"><ele>809.0</ele><time>2026-04-18T10:06:18.943Z</time></trkpt><trkpt lat="43.517336" lon="12.4533487"><ele>810.0</ele><time>2026-04-18T10:06:20.942Z</time></trkpt><trkpt lat="43.5174455" lon="12.4533572"><ele>811.0</ele><time>2026-04-18T10:06:21.943Z</time></trkpt><trkpt lat="43.5175369" lon="12.4533507"><ele>812.0</ele><time>2026-04-18T10:06:23.943Z</time></trkpt><trkpt lat="43.5176389" lon="12.4533804"><ele>813.0</ele><time>2026-04-18T10:06:25.944Z</time></trkpt><trkpt lat="43.5177438" lon="12.4534328"><ele>814.0</ele><time>2026-04-18T10:06:27.942Z</time></trkpt><trkpt lat="43.5178014" lon="12.4534764"><ele>814.0</ele><time>2026-04-18T10:06:28.943Z</time></trkpt><trkpt lat="43.5178919" lon="12.4535727"><ele>814.0</ele><time>2026-04-18T10:06:30.943Z</time></trkpt><trkpt lat="43.5179704" lon="12.4536463"><ele>814.0</ele><time>2026-04-18T10:06:31.942Z</time></trkpt><trkpt lat="43.5180359" lon="12.4536887"><ele>814.0</ele><time>2026-04-18T10:06:32.944Z</time></trkpt><trkpt lat="43.5181035" lon="12.4537238"><ele>814.0</ele><time>2026-04-18T10:06:33.943Z</time></trkpt><trkpt lat="43.5182284" lon="12.4538703"><ele>815.75</ele><time>2026-04-18T10:06:35.943Z</time></trkpt><trkpt lat="43.5183041" lon="12.4541233"><ele>817.5</ele><time>2026-04-18T10:06:37.943Z</time></trkpt><trkpt lat="43.5183159" lon="12.4542308"><ele>819.25</ele><time>2026-04-18T10:06:38.944Z</time></trkpt><trkpt lat="43.518291" lon="12.4543334"><ele>821.0</ele><time>2026-04-18T10:06:40.943Z</time></trkpt><trkpt lat="43.5182766" lon="12.4544947"><ele>820.25</ele><time>2026-04-18T10:06:42.943Z</time></trkpt><trkpt lat="43.518259" lon="12.4546693"><ele>819.5</ele><time>2026-04-18T10:06:44.942Z</time></trkpt><trkpt lat="43.5183351" lon="12.4547262"><ele>818.75</ele><time>2026-04-18T10:06:46.944Z</time></trkpt><trkpt lat="43.5183697" lon="12.454809"><ele>818.0</ele><time>2026-04-18T10:06:47.942Z</time></trkpt><trkpt lat="43.5184283" lon="12.4550824"><ele>818.0</ele><time>2026-04-18T10:06:49.943Z</time></trkpt><trkpt lat="43.5185165" lon="12.4551846"><ele>818.0</ele><time>2026-04-18T10:06:51.942Z</time></trkpt><trkpt lat="43.5185806" lon="12.4552468"><ele>818.0</ele><time>2026-04-18T10:06:52.944Z</time></trkpt><trkpt lat="43.5186509" lon="12.4553349"><ele>818.0</ele><time>2026-04-18T10:06:53.943Z</time></trkpt><trkpt lat="43.5187252" lon="12.4554334"><ele>818.0</ele><time>2026-04-18T10:06:54.943Z</time></trkpt><trkpt lat="43.5187508" lon="12.4555485"><ele>817.5999999999999</ele><time>2026-04-18T10:06:55.942Z</time></trkpt><trkpt lat="43.518779" lon="12.4556354"><ele>817.1999999999999</ele><time>2026-04-18T10:06:56.943Z</time></trkpt><trkpt lat="43.5188253" lon="12.455757"><ele>816.8</ele><time>2026-04-18T10:06:58.943Z</time></trkpt><trkpt lat="43.5188414" lon="12.4558671"><ele>816.4</ele><time>2026-04-18T10:07:00.943Z</time></trkpt><trkpt lat="43.518815" lon="12.4560451"><ele>816.0</ele><time>2026-04-18T10:07:02.942Z</time></trkpt><trkpt lat="43.5188016" lon="12.4561976"><ele>816.8</ele><time>2026-04-18T10:07:04.943Z</time></trkpt><trkpt lat="43.5188634" lon="12.456383"><ele>817.5999999999999</ele><time>2026-04-18T10:07:06.944Z</time></trkpt><trkpt lat="43.5189352" lon="12.4565093"><ele>818.4</ele><time>2026-04-18T10:07:08.943Z</time></trkpt><trkpt lat="43.5190129" lon="12.4565054"><ele>819.2</ele><time>2026-04-18T10:07:10.943Z</time></trkpt><trkpt lat="43.5191078" lon="12.4565316"><ele>820.0</ele><time>2026-04-18T10:07:12.943Z</time></trkpt><trkpt lat="43.5191676" lon="12.4566115"><ele>819.9999999999999</ele><time>2026-04-18T10:07:14.944Z</time></trkpt><trkpt lat="43.5192075" lon="12.456682"><ele>820.0</ele><time>2026-04-18T10:07:16.943Z</time></trkpt><trkpt lat="43.5192558" lon="12.4567507"><ele>820.0</ele><time>2026-04-18T10:07:18.942Z</time></trkpt><trkpt lat="43.5192865" lon="12.4568373"><ele>820.0</ele><time>2026-04-18T10:07:20.943Z</time></trkpt><trkpt lat="43.5193571" lon="12.4569337"><ele>819.9999999999999</ele><time>2026-04-18T10:07:21.943Z</time></trkpt><trkpt lat="43.519437" lon="12.456966"><ele>820.0</ele><time>2026-04-18T10:07:23.943Z</time></trkpt><trkpt lat="43.5195203" lon="12.4569948"><ele>818.4999999999999</ele><time>2026-04-18T10:07:25.942Z</time></trkpt><trkpt lat="43.5195944" lon="12.4569898"><ele>817.0</ele><time>2026-04-18T10:07:26.944Z</time></trkpt><trkpt lat="43.5196634" lon="12.456999"><ele>815.5</ele><time>2026-04-18T10:07:27.943Z</time></trkpt><trkpt lat="43.5197385" lon="12.4570008"><ele>814.0</ele><time>2026-04-18T10:07:28.943Z</time></trkpt><trkpt lat="43.5198631" lon="12.4569941"><ele>812.4999999999999</ele><time>2026-04-18T10:07:30.943Z</time></trkpt><trkpt lat="43.519948" lon="12.4570133"><ele>811.0</ele><time>2026-04-18T10:07:32.943Z</time></trkpt><trkpt lat="43.5200028" lon="12.4571355"><ele>810.9999999999999</ele><time>2026-04-18T10:07:35.943Z</time></trkpt><trkpt lat="43.520049" lon="12.4572819"><ele>811.0</ele><time>2026-04-18T10:07:37.943Z</time></trkpt><trkpt lat="43.5201279" lon="12.4573951"><ele>811.0</ele><time>2026-04-18T10:07:39.942Z</time></trkpt><trkpt lat="43.5201742" lon="12.4574614"><ele>811.0</ele><time>2026-04-18T10:07:40.943Z</time></trkpt><trkpt lat="43.5202259" lon="12.4575131"><ele>810.9999999999999</ele><time>2026-04-18T10:07:41.943Z</time></trkpt><trkpt lat="43.5202854" lon="12.457556"><ele>811.0</ele><time>2026-04-18T10:07:42.944Z</time></trkpt><trkpt lat="43.5203994" lon="12.457631"><ele>810.8571428571428</ele><time>2026-04-18T10:07:44.944Z</time></trkpt><trkpt lat="43.5204613" lon="12.4576677"><ele>810.7142857142858</ele><time>2026-04-18T10:07:45.942Z</time></trkpt><trkpt lat="43.5205233" lon="12.4577055"><ele>810.5714285714286</ele><time>2026-04-18T10:07:46.943Z</time></trkpt><trkpt lat="43.5205783" lon="12.4577547"><ele>810.4285714285713</ele><time>2026-04-18T10:07:47.943Z</time></trkpt><trkpt lat="43.5206334" lon="12.4578055"><ele>810.2857142857142</ele><time>2026-04-18T10:07:48.943Z</time></trkpt><trkpt lat="43.5207237" lon="12.4578665"><ele>810.1428571428571</ele><time>2026-04-18T10:07:50.943Z</time></trkpt><trkpt lat="43.5207952" lon="12.4578799"><ele>810.0</ele><time>2026-04-18T10:07:51.943Z</time></trkpt><trkpt lat="43.520865" lon="12.4578855"><ele>810.0</ele><time>2026-04-18T10:07:52.943Z</time></trkpt><trkpt lat="43.5209523" lon="12.4578766"><ele>810.0</ele><time>2026-04-18T10:07:53.944Z</time></trkpt><trkpt lat="43.5210486" lon="12.4578835"><ele>810.0</ele><time>2026-04-18T10:07:54.942Z</time></trkpt><trkpt lat="43.5211385" lon="12.4578678"><ele>810.0</ele><time>2026-04-18T10:07:55.944Z</time></trkpt><trkpt lat="43.5212276" lon="12.4578359"><ele>810.0</ele><time>2026-04-18T10:07:56.942Z</time></trkpt><trkpt lat="43.5213104" lon="12.4578343"><ele>810.0</ele><time>2026-04-18T10:07:57.941Z</time></trkpt><trkpt lat="43.5213831" lon="12.457808"><ele>811.0</ele><time>2026-04-18T10:07:58.941Z</time></trkpt><trkpt lat="43.5214523" lon="12.4578199"><ele>812.0</ele><time>2026-04-18T10:07:59.943Z</time></trkpt><trkpt lat="43.5215201" lon="12.4578174"><ele>813.0</ele><time>2026-04-18T10:08:00.942Z</time></trkpt><trkpt lat="43.5215846" lon="12.4578187"><ele>814.0</ele><time>2026-04-18T10:08:01.942Z</time></trkpt><trkpt lat="43.5217237" lon="12.4577931"><ele>815.0</ele><time>2026-04-18T10:08:02.941Z</time></trkpt><trkpt lat="43.521824" lon="12.4577785"><ele>816.0</ele><time>2026-04-18T10:08:03.942Z</time></trkpt><trkpt lat="43.5218955" lon="12.4578206"><ele>816.0</ele><time>2026-04-18T10:08:07.941Z</time></trkpt><trkpt lat="43.5219983" lon="12.4578038"><ele>816.0</ele><time>2026-04-18T10:08:12.942Z</time></trkpt><trkpt lat="43.5220774" lon="12.4577866"><ele>816.0</ele><time>2026-04-18T10:08:15.942Z</time></trkpt><trkpt lat="43.5221605" lon="12.4577739"><ele>816.0</ele><time>2026-04-18T10:08:18.943Z</time></trkpt><trkpt lat="43.5222269" lon="12.457797"><ele>816.0</ele><time>2026-04-18T10:08:20.943Z</time></trkpt><trkpt lat="43.5223132" lon="12.4578466"><ele>816.0</ele><time>2026-04-18T10:08:23.942Z</time></trkpt><trkpt lat="43.5223761" lon="12.4579052"><ele>816.5999999999999</ele><time>2026-04-18T10:08:25.941Z</time></trkpt><trkpt lat="43.5224672" lon="12.4579528"><ele>817.2</ele><time>2026-04-18T10:08:27.942Z</time></trkpt><trkpt lat="43.5225679" lon="12.4580231"><ele>817.8</ele><time>2026-04-18T10:08:29.942Z</time></trkpt><trkpt lat="43.5226354" lon="12.4580534"><ele>818.4000000000001</ele><time>2026-04-18T10:08:31.943Z</time></trkpt><trkpt lat="43.5227034" lon="12.4581045"><ele>819.0</ele><time>2026-04-18T10:08:33.942Z</time></trkpt><trkpt lat="43.5227846" lon="12.4581727"><ele>819.0</ele><time>2026-04-18T10:08:36.943Z</time></trkpt><trkpt lat="43.5228339" lon="12.4582408"><ele>819.0</ele><time>2026-04-18T10:08:38.941Z</time></trkpt><trkpt lat="43.5228732" lon="12.4583184"><ele>819.0</ele><time>2026-04-18T10:08:41.943Z</time></trkpt><trkpt lat="43.5229193" lon="12.4583987"><ele>819.0</ele><time>2026-04-18T10:08:45.943Z</time></trkpt><trkpt lat="43.5229539" lon="12.458479"><ele>819.0</ele><time>2026-04-18T10:08:50.942Z</time></trkpt><trkpt lat="43.5230266" lon="12.4585267"><ele>819.0</ele><time>2026-04-18T10:08:53.941Z</time></trkpt><trkpt lat="43.5230836" lon="12.458614"><ele>819.0</ele><time>2026-04-18T10:08:56.943Z</time></trkpt><trkpt lat="43.5231419" lon="12.4587086"><ele>815.3333333333334</ele><time>2026-04-18T10:08:59.942Z</time></trkpt><trkpt lat="43.5232048" lon="12.4587971"><ele>811.6666666666667</ele><time>2026-04-18T10:09:02.942Z</time></trkpt><trkpt lat="43.5232632" lon="12.458848"><ele>808.0</ele><time>2026-04-18T10:09:04.941Z</time></trkpt><trkpt lat="43.5233444" lon="12.4589127"><ele>804.3333333333334</ele><time>2026-04-18T10:09:06.941Z</time></trkpt><trkpt lat="43.5234274" lon="12.4589857"><ele>800.6666666666667</ele><time>2026-04-18T10:09:08.942Z</time></trkpt><trkpt lat="43.5235062" lon="12.4590476"><ele>797.0</ele><time>2026-04-18T10:09:10.943Z</time></trkpt><trkpt lat="43.5235767" lon="12.4591053"><ele>797.0000000000001</ele><time>2026-04-18T10:09:12.942Z</time></trkpt><trkpt lat="43.5236335" lon="12.4591767"><ele>797.0</ele><time>2026-04-18T10:09:14.941Z</time></trkpt><trkpt lat="43.523698" lon="12.4592375"><ele>797.0</ele><time>2026-04-18T10:09:16.943Z</time></trkpt><trkpt lat="43.5237655" lon="12.4592955"><ele>797.0</ele><time>2026-04-18T10:09:18.941Z</time></trkpt><trkpt lat="43.5238252" lon="12.4593599"><ele>797.0000000000001</ele><time>2026-04-18T10:09:21.941Z</time></trkpt><trkpt lat="43.5238761" lon="12.4594114"><ele>797.0</ele><time>2026-04-18T10:09:23.943Z</time></trkpt><trkpt lat="43.5239478" lon="12.4595133"><ele>797.3333333333334</ele><time>2026-04-18T10:09:25.941Z</time></trkpt><trkpt lat="43.5239849" lon="12.4596205"><ele>797.6666666666667</ele><time>2026-04-18T10:09:27.942Z</time></trkpt><trkpt lat="43.5240245" lon="12.4597269"><ele>798.0</ele><time>2026-04-18T10:09:30.943Z</time></trkpt><trkpt lat="43.5240651" lon="12.4598454"><ele>798.3333333333333</ele><time>2026-04-18T10:09:32.943Z</time></trkpt><trkpt lat="43.5241148" lon="12.4599472"><ele>798.6666666666666</ele><time>2026-04-18T10:09:34.942Z</time></trkpt><trkpt lat="43.5241544" lon="12.4600518"><ele>799.0</ele><time>2026-04-18T10:09:36.942Z</time></trkpt><trkpt lat="43.5242" lon="12.4601373"><ele>798.9999999999999</ele><time>2026-04-18T10:09:38.941Z</time></trkpt><trkpt lat="43.5242638" lon="12.4602287"><ele>799.0</ele><time>2026-04-18T10:09:40.942Z</time></trkpt><trkpt lat="43.5243304" lon="12.4603084"><ele>799.0</ele><time>2026-04-18T10:09:42.941Z</time></trkpt><trkpt lat="43.5243956" lon="12.4603814"><ele>799.0</ele><time>2026-04-18T10:09:44.942Z</time></trkpt><trkpt lat="43.5244603" lon="12.4604595"><ele>798.9999999999999</ele><time>2026-04-18T10:09:46.942Z</time></trkpt><trkpt lat="43.5245117" lon="12.4605604"><ele>799.0</ele><time>2026-04-18T10:09:48.942Z</time></trkpt><trkpt lat="43.5245724" lon="12.4606543"><ele>794.8333333333333</ele><time>2026-04-18T10:09:50.943Z</time></trkpt><trkpt lat="43.5246284" lon="12.4607474"><ele>790.6666666666666</ele><time>2026-04-18T10:09:53.942Z</time></trkpt><trkpt lat="43.524685" lon="12.4608035"><ele>786.5</ele><time>2026-04-18T10:09:55.942Z</time></trkpt><trkpt lat="43.5247357" lon="12.4608774"><ele>782.3333333333333</ele><time>2026-04-18T10:09:57.943Z</time></trkpt><trkpt lat="43.5247547" lon="12.4610029"><ele>778.1666666666666</ele><time>2026-04-18T10:10:00.943Z</time></trkpt><trkpt lat="43.5247859" lon="12.4610788"><ele>774.0</ele><time>2026-04-18T10:10:02.941Z</time></trkpt><trkpt lat="43.5248121" lon="12.4611835"><ele>774.0</ele><time>2026-04-18T10:10:05.941Z</time></trkpt><trkpt lat="43.524879" lon="12.4612525"><ele>774.0</ele><time>2026-04-18T10:10:07.941Z</time></trkpt><trkpt lat="43.5248432" lon="12.4613657"><ele>774.0</ele><time>2026-04-18T10:10:10.942Z</time></trkpt><trkpt lat="43.5247993" lon="12.4614776"><ele>774.0</ele><time>2026-04-18T10:10:12.941Z</time></trkpt><trkpt lat="43.5247565" lon="12.4616121"><ele>774.0</ele><time>2026-04-18T10:10:14.942Z</time></trkpt><trkpt lat="43.5246975" lon="12.4617135"><ele>770.75</ele><time>2026-04-18T10:10:16.943Z</time></trkpt><trkpt lat="43.5245967" lon="12.4617959"><ele>767.5</ele><time>2026-04-18T10:10:18.943Z</time></trkpt><trkpt lat="43.5244872" lon="12.4618297"><ele>764.25</ele><time>2026-04-18T10:10:20.942Z</time></trkpt><trkpt lat="43.5243607" lon="12.461854"><ele>761.0</ele><time>2026-04-18T10:10:22.942Z</time></trkpt><trkpt lat="43.524266" lon="12.4618988"><ele>760.8</ele><time>2026-04-18T10:10:24.943Z</time></trkpt><trkpt lat="43.5240911" lon="12.461889"><ele>760.5999999999999</ele><time>2026-04-18T10:10:26.941Z</time></trkpt><trkpt lat="43.5240524" lon="12.4618139"><ele>760.4</ele><time>2026-04-18T10:10:29.942Z</time></trkpt><trkpt lat="43.5239788" lon="12.4618006"><ele>760.2</ele><time>2026-04-18T10:10:33.943Z</time></trkpt><trkpt lat="43.5239194" lon="12.4617421"><ele>760.0</ele><time>2026-04-18T10:11:12.943Z</time></trkpt><trkpt lat="43.5238495" lon="12.4617399"><ele>760.0</ele><time>2026-04-18T10:11:14.941Z</time></trkpt><trkpt lat="43.5237907" lon="12.4618086"><ele>760.0</ele><time>2026-04-18T10:11:16.942Z</time></trkpt><trkpt lat="43.5237796" lon="12.4619242"><ele>760.0</ele><time>2026-04-18T10:11:19.943Z</time></trkpt><trkpt lat="43.5238384" lon="12.4621312"><ele>760.0</ele><time>2026-04-18T10:11:22.942Z</time></trkpt><trkpt lat="43.5238926" lon="12.4623354"><ele>758.3333333333334</ele><time>2026-04-18T10:11:24.942Z</time></trkpt><trkpt lat="43.5239114" lon="12.4624391"><ele>756.6666666666667</ele><time>2026-04-18T10:11:25.943Z</time></trkpt><trkpt lat="43.5239315" lon="12.4625387"><ele>755.0</ele><time>2026-04-18T10:11:26.942Z</time></trkpt><trkpt lat="43.5239845" lon="12.4626068"><ele>753.3333333333334</ele><time>2026-04-18T10:11:27.942Z</time></trkpt><trkpt lat="43.5240212" lon="12.4626931"><ele>751.6666666666666</ele><time>2026-04-18T10:11:28.943Z</time></trkpt><trkpt lat="43.5240647" lon="12.4627755"><ele>750.0</ele><time>2026-04-18T10:11:29.942Z</time></trkpt><trkpt lat="43.52414" lon="12.4628088"><ele>750.0</ele><time>2026-04-18T10:11:30.942Z</time></trkpt><trkpt lat="43.5242269" lon="12.4628465"><ele>750.0</ele><time>2026-04-18T10:11:31.941Z</time></trkpt><trkpt lat="43.5244002" lon="12.4628816"><ele>750.0</ele><time>2026-04-18T10:11:32.942Z</time></trkpt><trkpt lat="43.5244802" lon="12.4629351"><ele>750.0</ele><time>2026-04-18T10:11:33.942Z</time></trkpt><trkpt lat="43.5245842" lon="12.4629633"><ele>746.2</ele><time>2026-04-18T10:11:34.942Z</time></trkpt><trkpt lat="43.5246931" lon="12.4629932"><ele>742.4</ele><time>2026-04-18T10:11:35.943Z</time></trkpt><trkpt lat="43.5248165" lon="12.4630215"><ele>738.5999999999999</ele><time>2026-04-18T10:11:36.942Z</time></trkpt><trkpt lat="43.5249089" lon="12.4630734"><ele>734.8</ele><time>2026-04-18T10:11:37.943Z</time></trkpt><trkpt lat="43.5249779" lon="12.4631552"><ele>731.0</ele><time>2026-04-18T10:11:38.941Z</time></trkpt><trkpt lat="43.5250003" lon="12.4632574"><ele>731.0</ele><time>2026-04-18T10:11:39.942Z</time></trkpt><trkpt lat="43.5250374" lon="12.4633471"><ele>731.0</ele><time>2026-04-18T10:11:40.942Z</time></trkpt><trkpt lat="43.5250518" lon="12.4634604"><ele>731.0</ele><time>2026-04-18T10:11:41.942Z</time></trkpt><trkpt lat="43.5250387" lon="12.4636064"><ele>731.0</ele><time>2026-04-18T10:11:42.941Z</time></trkpt><trkpt lat="43.5250614" lon="12.4637322"><ele>731.0</ele><time>2026-04-18T10:11:43.941Z</time></trkpt><trkpt lat="43.525084" lon="12.4638536"><ele>730.75</ele><time>2026-04-18T10:11:44.941Z</time></trkpt><trkpt lat="43.5251284" lon="12.4639788"><ele>730.5</ele><time>2026-04-18T10:11:45.943Z</time></trkpt><trkpt lat="43.5252109" lon="12.4640883"><ele>730.25</ele><time>2026-04-18T10:11:46.942Z</time></trkpt><trkpt lat="43.5253045" lon="12.4642027"><ele>730.0</ele><time>2026-04-18T10:11:47.941Z</time></trkpt><trkpt lat="43.5253914" lon="12.4643093"><ele>727.5</ele><time>2026-04-18T10:11:48.942Z</time></trkpt><trkpt lat="43.5254851" lon="12.4643794"><ele>725.0</ele><time>2026-04-18T10:11:49.942Z</time></trkpt><trkpt lat="43.5255744" lon="12.4644455"><ele>722.5</ele><time>2026-04-18T10:11:50.943Z</time></trkpt><trkpt lat="43.5256911" lon="12.4645266"><ele>720.0</ele><time>2026-04-18T10:11:51.941Z</time></trkpt><trkpt lat="43.5258042" lon="12.4646106"><ele>725.6666666666666</ele><time>2026-04-18T10:11:52.942Z</time></trkpt><trkpt lat="43.5259404" lon="12.4647018"><ele>731.3333333333333</ele><time>2026-04-18T10:11:53.941Z</time></trkpt><trkpt lat="43.526075" lon="12.4647994"><ele>737.0</ele><time>2026-04-18T10:11:54.942Z</time></trkpt><trkpt lat="43.5262089" lon="12.4648836"><ele>734.25</ele><time>2026-04-18T10:11:55.942Z</time></trkpt><trkpt lat="43.5263355" lon="12.4649671"><ele>731.5</ele><time>2026-04-18T10:11:56.942Z</time></trkpt><trkpt lat="43.5264489" lon="12.4650546"><ele>728.75</ele><time>2026-04-18T10:11:57.942Z</time></trkpt><trkpt lat="43.52648" lon="12.4651426"><ele>726.0</ele><time>2026-04-18T10:11:58.942Z</time></trkpt><trkpt lat="43.5265702" lon="12.4652363"><ele>726.0</ele><time>2026-04-18T10:11:59.942Z</time></trkpt><trkpt lat="43.5266381" lon="12.4653523"><ele>726.0</ele><time>2026-04-18T10:12:00.943Z</time></trkpt><trkpt lat="43.5267668" lon="12.465455"><ele>726.0</ele><time>2026-04-18T10:12:01.942Z</time></trkpt><trkpt lat="43.526831" lon="12.4655233"><ele>726.0</ele><time>2026-04-18T10:12:02.942Z</time></trkpt><trkpt lat="43.5269161" lon="12.465567"><ele>726.0</ele><time>2026-04-18T10:12:03.942Z</time></trkpt><trkpt lat="43.5270079" lon="12.4655876"><ele>730.0</ele><time>2026-04-18T10:12:04.942Z</time></trkpt><trkpt lat="43.5271391" lon="12.4655699"><ele>734.0</ele><time>2026-04-18T10:12:05.942Z</time></trkpt><trkpt lat="43.5273492" lon="12.4655551"><ele>738.0</ele><time>2026-04-18T10:12:06.942Z</time></trkpt><trkpt lat="43.5274854" lon="12.4655485"><ele>738.0</ele><time>2026-04-18T10:12:07.942Z</time></trkpt><trkpt lat="43.527604" lon="12.4655309"><ele>738.0</ele><time>2026-04-18T10:12:08.942Z</time></trkpt><trkpt lat="43.527671" lon="12.4655399"><ele>738.0</ele><time>2026-04-18T10:12:09.942Z</time></trkpt><trkpt lat="43.5277424" lon="12.4655736"><ele>738.0</ele><time>2026-04-18T10:12:10.942Z</time></trkpt><trkpt lat="43.5277929" lon="12.4656366"><ele>738.0</ele><time>2026-04-18T10:12:11.941Z</time></trkpt><trkpt lat="43.5278313" lon="12.4657106"><ele>738.0</ele><time>2026-04-18T10:12:12.942Z</time></trkpt><trkpt lat="43.5278589" lon="12.4658021"><ele>738.0</ele><time>2026-04-18T10:12:13.942Z</time></trkpt><trkpt lat="43.5278317" lon="12.4659439"><ele>738.0</ele><time>2026-04-18T10:12:14.943Z</time></trkpt><trkpt lat="43.5278267" lon="12.4662148"><ele>738.0</ele><time>2026-04-18T10:12:16.941Z</time></trkpt><trkpt lat="43.5278255" lon="12.4663368"><ele>738.0</ele><time>2026-04-18T10:12:17.942Z</time></trkpt><trkpt lat="43.5278628" lon="12.4664591"><ele>734.6666666666666</ele><time>2026-04-18T10:12:18.943Z</time></trkpt><trkpt lat="43.5279179" lon="12.4665273"><ele>731.3333333333334</ele><time>2026-04-18T10:12:19.941Z</time></trkpt><trkpt lat="43.5279716" lon="12.4666228"><ele>728.0</ele><time>2026-04-18T10:12:20.942Z</time></trkpt><trkpt lat="43.5280251" lon="12.4666854"><ele>724.6666666666667</ele><time>2026-04-18T10:12:21.941Z</time></trkpt><trkpt lat="43.5280722" lon="12.4667642"><ele>721.3333333333334</ele><time>2026-04-18T10:12:22.942Z</time></trkpt><trkpt lat="43.5281333" lon="12.4668377"><ele>718.0</ele><time>2026-04-18T10:12:23.941Z</time></trkpt><trkpt lat="43.528265" lon="12.4670266"><ele>722.25</ele><time>2026-04-18T10:12:25.942Z</time></trkpt><trkpt lat="43.5283449" lon="12.4671356"><ele>726.5</ele><time>2026-04-18T10:12:26.943Z</time></trkpt><trkpt lat="43.5283906" lon="12.4672924"><ele>730.75</ele><time>2026-04-18T10:12:27.943Z</time></trkpt><trkpt lat="43.5284569" lon="12.4674209"><ele>735.0</ele><time>2026-04-18T10:12:28.941Z</time></trkpt><trkpt lat="43.528534" lon="12.4675667"><ele>735.0</ele><time>2026-04-18T10:12:29.943Z</time></trkpt><trkpt lat="43.5285687" lon="12.4678621"><ele>735.0</ele><time>2026-04-18T10:12:31.943Z</time></trkpt><trkpt lat="43.5286198" lon="12.4679505"><ele>735.0</ele><time>2026-04-18T10:12:32.942Z</time></trkpt><trkpt lat="43.5286866" lon="12.4679903"><ele>735.0</ele><time>2026-04-18T10:12:34.942Z</time></trkpt><trkpt lat="43.5287322" lon="12.4680571"><ele>735.0</ele><time>2026-04-18T10:12:46.943Z</time></trkpt><trkpt lat="43.5287349" lon="12.4681483"><ele>735.5714285714286</ele><time>2026-04-18T10:12:57.942Z</time></trkpt><trkpt lat="43.5287293" lon="12.4682418"><ele>736.1428571428571</ele><time>2026-04-18T10:13:24.942Z</time></trkpt><trkpt lat="43.5287289" lon="12.4683347"><ele>736.7142857142858</ele><time>2026-04-18T10:13:30.942Z</time></trkpt><trkpt lat="43.5287603" lon="12.468415"><ele>737.2857142857142</ele><time>2026-04-18T10:13:34.942Z</time></trkpt><trkpt lat="43.5287895" lon="12.4684933"><ele>737.8571428571429</ele><time>2026-04-18T10:13:37.943Z</time></trkpt><trkpt lat="43.5288051" lon="12.4686201"><ele>738.4285714285714</ele><time>2026-04-18T10:13:40.942Z</time></trkpt><trkpt lat="43.5288246" lon="12.4687226"><ele>739.0</ele><time>2026-04-18T10:13:42.942Z</time></trkpt><trkpt lat="43.5288569" lon="12.4688344"><ele>741.0</ele><time>2026-04-18T10:13:45.942Z</time></trkpt><trkpt lat="43.5288343" lon="12.4689273"><ele>743.0</ele><time>2026-04-18T10:13:55.942Z</time></trkpt><trkpt lat="43.5288422" lon="12.4690168"><ele>745.0</ele><time>2026-04-18T10:13:59.942Z</time></trkpt><trkpt lat="43.5288964" lon="12.4690848"><ele>747.0</ele><time>2026-04-18T10:14:02.943Z</time></trkpt><trkpt lat="43.5289035" lon="12.469177"><ele>749.0</ele><time>2026-04-18T10:14:07.942Z</time></trkpt><trkpt lat="43.528864" lon="12.4692475"><ele>751.0</ele><time>2026-04-18T10:14:12.016Z</time></trkpt><trkpt lat="43.528815" lon="12.4693388"><ele>753.0</ele><time>2026-04-18T10:14:15.943Z</time></trkpt><trkpt lat="43.5287851" lon="12.4694437"><ele>753.0</ele><time>2026-04-18T10:14:18.942Z</time></trkpt><trkpt lat="43.5287432" lon="12.4695421"><ele>753.0</ele><time>2026-04-18T10:14:21.943Z</time></trkpt><trkpt lat="43.5287083" lon="12.4696232"><ele>753.0</ele><time>2026-04-18T10:14:25.941Z</time></trkpt><trkpt lat="43.5286595" lon="12.4696824"><ele>753.0</ele><time>2026-04-18T10:14:30.017Z</time></trkpt><trkpt lat="43.5286459" lon="12.4697765"><ele>753.0</ele><time>2026-04-18T10:14:34.941Z</time></trkpt><trkpt lat="43.5286158" lon="12.4698944"><ele>753.0</ele><time>2026-04-18T10:14:37.942Z</time></trkpt><trkpt lat="43.5285738" lon="12.4699591"><ele>753.0</ele><time>2026-04-18T10:14:40.941Z</time></trkpt><trkpt lat="43.5285093" lon="12.4699977"><ele>758.0</ele><time>2026-04-18T10:14:44.975Z</time></trkpt><trkpt lat="43.528426" lon="12.4700551"><ele>763.0</ele><time>2026-04-18T10:14:47.927Z</time></trkpt><trkpt lat="43.5283463" lon="12.4701079"><ele>768.0</ele><time>2026-04-18T10:14:49.925Z</time></trkpt><trkpt lat="43.5282661" lon="12.4701458"><ele>773.0</ele><time>2026-04-18T10:14:51.97Z</time></trkpt><trkpt lat="43.5281923" lon="12.4702181"><ele>778.0</ele><time>2026-04-18T10:14:53.941Z</time></trkpt><trkpt lat="43.5281195" lon="12.4703309"><ele>777.9999999999999</ele><time>2026-04-18T10:14:55.943Z</time></trkpt><trkpt lat="43.5280732" lon="12.4703913"><ele>778.0</ele><time>2026-04-18T10:14:57.99Z</time></trkpt><trkpt lat="43.5280324" lon="12.4704629"><ele>778.0</ele><time>2026-04-18T10:15:00.003Z</time></trkpt><trkpt lat="43.5280498" lon="12.4705769"><ele>778.0</ele><time>2026-04-18T10:15:03.942Z</time></trkpt><trkpt lat="43.5280731" lon="12.4707063"><ele>777.9999999999999</ele><time>2026-04-18T10:15:07.005Z</time></trkpt><trkpt lat="43.5281252" lon="12.470796"><ele>778.0</ele><time>2026-04-18T10:15:09.007Z</time></trkpt><trkpt lat="43.5281973" lon="12.4708562"><ele>780.0</ele><time>2026-04-18T10:15:10.941Z</time></trkpt><trkpt lat="43.5282483" lon="12.4709161"><ele>782.0</ele><time>2026-04-18T10:15:12.941Z</time></trkpt><trkpt lat="43.5283529" lon="12.4709601"><ele>784.0</ele><time>2026-04-18T10:15:13.943Z</time></trkpt><trkpt lat="43.528481" lon="12.4710092"><ele>786.0</ele><time>2026-04-18T10:15:14.942Z</time></trkpt><trkpt lat="43.5285521" lon="12.4710696"><ele>788.0</ele><time>2026-04-18T10:15:16.942Z</time></trkpt><trkpt lat="43.5286239" lon="12.471139"><ele>788.0</ele><time>2026-04-18T10:15:18.942Z</time></trkpt><trkpt lat="43.5287034" lon="12.4711696"><ele>788.0</ele><time>2026-04-18T10:15:20.942Z</time></trkpt><trkpt lat="43.5288093" lon="12.4711528"><ele>788.0</ele><time>2026-04-18T10:15:21.941Z</time></trkpt><trkpt lat="43.5288729" lon="12.4711697"><ele>788.0</ele><time>2026-04-18T10:15:22.942Z</time></trkpt><trkpt lat="43.5289884" lon="12.4711946"><ele>788.0</ele><time>2026-04-18T10:15:24.941Z</time></trkpt><trkpt lat="43.5290702" lon="12.4712474"><ele>792.2</ele><time>2026-04-18T10:15:26.942Z</time></trkpt><trkpt lat="43.5291286" lon="12.471284"><ele>796.4</ele><time>2026-04-18T10:15:27.941Z</time></trkpt><trkpt lat="43.5292173" lon="12.4713673"><ele>800.6</ele><time>2026-04-18T10:15:29.941Z</time></trkpt><trkpt lat="43.5293137" lon="12.4714707"><ele>804.8000000000001</ele><time>2026-04-18T10:15:31.942Z</time></trkpt><trkpt lat="43.5294018" lon="12.471575"><ele>809.0</ele><time>2026-04-18T10:15:33.942Z</time></trkpt><trkpt lat="43.5294425" lon="12.4716428"><ele>809.0000000000001</ele><time>2026-04-18T10:15:35.941Z</time></trkpt><trkpt lat="43.5295005" lon="12.4717326"><ele>809.0</ele><time>2026-04-18T10:15:37.941Z</time></trkpt><trkpt lat="43.5295254" lon="12.4718162"><ele>809.0</ele><time>2026-04-18T10:15:38.941Z</time></trkpt><trkpt lat="43.5295727" lon="12.4718851"><ele>809.0</ele><time>2026-04-18T10:15:40.942Z</time></trkpt><trkpt lat="43.5296429" lon="12.4719865"><ele>809.0000000000001</ele><time>2026-04-18T10:15:52.942Z</time></trkpt><trkpt lat="43.5297265" lon="12.4720344"><ele>809.0</ele><time>2026-04-18T10:16:57.942Z</time></trkpt><trkpt lat="43.529714" lon="12.4721426"><ele>809.7142857142858</ele><time>2026-04-18T10:22:15.942Z</time></trkpt><trkpt lat="43.5296814" lon="12.472058"><ele>810.4285714285714</ele><time>2026-04-18T10:27:45.942Z</time></trkpt><trkpt lat="43.5297237" lon="12.4721405"><ele>811.1428571428571</ele><time>2026-04-18T10:29:18.942Z</time></trkpt><trkpt lat="43.5297734" lon="12.4722197"><ele>811.8571428571429</ele><time>2026-04-18T10:29:24.942Z</time></trkpt><trkpt lat="43.5298155" lon="12.4722973"><ele>812.5714285714286</ele><time>2026-04-18T10:29:29.941Z</time></trkpt><trkpt lat="43.529835" lon="12.4723851"><ele>813.2857142857143</ele><time>2026-04-18T10:29:32.942Z</time></trkpt><trkpt lat="43.5298631" lon="12.4724816"><ele>814.0</ele><time>2026-04-18T10:29:35.942Z</time></trkpt><trkpt lat="43.5298904" lon="12.4726106"><ele>816.4285714285714</ele><time>2026-04-18T10:29:38.943Z</time></trkpt><trkpt lat="43.5298924" lon="12.4727055"><ele>818.8571428571429</ele><time>2026-04-18T10:29:40.941Z</time></trkpt><trkpt lat="43.5298756" lon="12.4728087"><ele>821.2857142857142</ele><time>2026-04-18T10:29:42.942Z</time></trkpt><trkpt lat="43.5298463" lon="12.4729031"><ele>823.7142857142858</ele><time>2026-04-18T10:29:43.942Z</time></trkpt><trkpt lat="43.5298229" lon="12.472997"><ele>826.1428571428571</ele><time>2026-04-18T10:29:45.941Z</time></trkpt><trkpt lat="43.5298072" lon="12.4730988"><ele>828.5714285714286</ele><time>2026-04-18T10:29:47.941Z</time></trkpt><trkpt lat="43.5297892" lon="12.4732"><ele>831.0</ele><time>2026-04-18T10:29:49.942Z</time></trkpt><trkpt lat="43.5297724" lon="12.4732973"><ele>832.8571428571428</ele><time>2026-04-18T10:29:51.943Z</time></trkpt><trkpt lat="43.5297588" lon="12.4733908"><ele>834.7142857142857</ele><time>2026-04-18T10:29:53.942Z</time></trkpt><trkpt lat="43.5297746" lon="12.4734846"><ele>836.5714285714286</ele><time>2026-04-18T10:29:55.942Z</time></trkpt><trkpt lat="43.5298018" lon="12.4735747"><ele>838.4285714285713</ele><time>2026-04-18T10:29:57.942Z</time></trkpt><trkpt lat="43.5298335" lon="12.4736715"><ele>840.2857142857143</ele><time>2026-04-18T10:29:59.942Z</time></trkpt><trkpt lat="43.5298722" lon="12.4737592"><ele>842.1428571428571</ele><time>2026-04-18T10:30:01.941Z</time></trkpt><trkpt lat="43.529912" lon="12.4738366"><ele>844.0</ele><time>2026-04-18T10:30:03.942Z</time></trkpt><trkpt lat="43.529946" lon="12.4739172"><ele>846.2857142857143</ele><time>2026-04-18T10:30:05.942Z</time></trkpt><trkpt lat="43.529959" lon="12.4740046"><ele>848.5714285714287</ele><time>2026-04-18T10:30:07.942Z</time></trkpt><trkpt lat="43.5298833" lon="12.4740367"><ele>850.8571428571429</ele><time>2026-04-18T10:30:17.942Z</time></trkpt><trkpt lat="43.5298071" lon="12.4741023"><ele>853.1428571428571</ele><time>2026-04-18T10:30:20.942Z</time></trkpt><trkpt lat="43.5297517" lon="12.4741533"><ele>855.4285714285714</ele><time>2026-04-18T10:30:21.942Z</time></trkpt><trkpt lat="43.5296976" lon="12.4741991"><ele>857.7142857142857</ele><time>2026-04-18T10:30:22.942Z</time></trkpt><trkpt lat="43.5296378" lon="12.4742375"><ele>860.0</ele><time>2026-04-18T10:30:23.942Z</time></trkpt><trkpt lat="43.5295687" lon="12.4742888"><ele>857.0000000000001</ele><time>2026-04-18T10:30:24.942Z</time></trkpt><trkpt lat="43.5294872" lon="12.4743154"><ele>854.0</ele><time>2026-04-18T10:30:25.942Z</time></trkpt><trkpt lat="43.5294008" lon="12.4743426"><ele>851.0</ele><time>2026-04-18T10:30:26.941Z</time></trkpt><trkpt lat="43.5293152" lon="12.4743697"><ele>848.0</ele><time>2026-04-18T10:30:27.942Z</time></trkpt><trkpt lat="43.5292314" lon="12.474402"><ele>845.0000000000001</ele><time>2026-04-18T10:30:28.943Z</time></trkpt><trkpt lat="43.5291472" lon="12.474445"><ele>842.0</ele><time>2026-04-18T10:30:29.942Z</time></trkpt><trkpt lat="43.5290741" lon="12.4745141"><ele>847.2</ele><time>2026-04-18T10:30:30.942Z</time></trkpt><trkpt lat="43.5290116" lon="12.4746161"><ele>852.4000000000001</ele><time>2026-04-18T10:30:31.941Z</time></trkpt><trkpt lat="43.5289704" lon="12.4747328"><ele>857.5999999999999</ele><time>2026-04-18T10:30:32.941Z</time></trkpt><trkpt lat="43.5289315" lon="12.4748667"><ele>862.8</ele><time>2026-04-18T10:30:33.942Z</time></trkpt><trkpt lat="43.5288938" lon="12.4749993"><ele>868.0</ele><time>2026-04-18T10:30:34.941Z</time></trkpt><trkpt lat="43.528845" lon="12.4751258"><ele>868.0</ele><time>2026-04-18T10:30:35.941Z</time></trkpt><trkpt lat="43.5287752" lon="12.4752469"><ele>868.0</ele><time>2026-04-18T10:30:36.942Z</time></trkpt><trkpt lat="43.5286932" lon="12.475355"><ele>868.0</ele><time>2026-04-18T10:30:37.942Z</time></trkpt><trkpt lat="43.5286016" lon="12.4754604"><ele>868.0</ele><time>2026-04-18T10:30:38.943Z</time></trkpt><trkpt lat="43.5285046" lon="12.4755688"><ele>865.5</ele><time>2026-04-18T10:30:39.942Z</time></trkpt><trkpt lat="43.528407" lon="12.4756782"><ele>863.0</ele><time>2026-04-18T10:30:40.942Z</time></trkpt><trkpt lat="43.5283079" lon="12.4757896"><ele>860.5</ele><time>2026-04-18T10:30:41.942Z</time></trkpt><trkpt lat="43.5282067" lon="12.4759044"><ele>858.0</ele><time>2026-04-18T10:30:42.942Z</time></trkpt><trkpt lat="43.5281074" lon="12.4760103"><ele>858.0</ele><time>2026-04-18T10:30:43.943Z</time></trkpt><trkpt lat="43.5280124" lon="12.4761276"><ele>858.0</ele><time>2026-04-18T10:30:44.942Z</time></trkpt><trkpt lat="43.5279218" lon="12.4762582"><ele>858.0</ele><time>2026-04-18T10:30:45.942Z</time></trkpt><trkpt lat="43.527839" lon="12.4763958"><ele>858.0</ele><time>2026-04-18T10:30:46.942Z</time></trkpt><trkpt lat="43.527757" lon="12.4765297"><ele>855.6666666666667</ele><time>2026-04-18T10:30:47.941Z</time></trkpt><trkpt lat="43.5276773" lon="12.4766711"><ele>853.3333333333334</ele><time>2026-04-18T10:30:48.942Z</time></trkpt><trkpt lat="43.527594" lon="12.476813"><ele>851.0</ele><time>2026-04-18T10:30:49.941Z</time></trkpt><trkpt lat="43.5274474" lon="12.4770884"><ele>853.75</ele><time>2026-04-18T10:30:51.942Z</time></trkpt><trkpt lat="43.5273799" lon="12.4772319"><ele>856.5</ele><time>2026-04-18T10:30:52.942Z</time></trkpt><trkpt lat="43.527317" lon="12.4773779"><ele>859.25</ele><time>2026-04-18T10:30:53.941Z</time></trkpt><trkpt lat="43.5272677" lon="12.4775241"><ele>862.0</ele><time>2026-04-18T10:30:54.942Z</time></trkpt><trkpt lat="43.5272279" lon="12.477659"><ele>861.9999999999999</ele><time>2026-04-18T10:30:55.941Z</time></trkpt><trkpt lat="43.5271957" lon="12.4777823"><ele>862.0</ele><time>2026-04-18T10:30:56.943Z</time></trkpt><trkpt lat="43.527173" lon="12.4778906"><ele>862.0</ele><time>2026-04-18T10:30:57.943Z</time></trkpt><trkpt lat="43.5271529" lon="12.4779862"><ele>862.0</ele><time>2026-04-18T10:30:58.943Z</time></trkpt><trkpt lat="43.5271236" lon="12.4781094"><ele>861.9999999999999</ele><time>2026-04-18T10:31:00.942Z</time></trkpt><trkpt lat="43.5270973" lon="12.4782311"><ele>862.0</ele><time>2026-04-18T10:31:03.943Z</time></trkpt><trkpt lat="43.5270878" lon="12.4783546"><ele>860.8571428571429</ele><time>2026-04-18T10:31:06.943Z</time></trkpt><trkpt lat="43.5270696" lon="12.4784382"><ele>859.7142857142857</ele><time>2026-04-18T10:31:08.942Z</time></trkpt><trkpt lat="43.5270535" lon="12.4785238"><ele>858.5714285714286</ele><time>2026-04-18T10:31:11.943Z</time></trkpt><trkpt lat="43.5270228" lon="12.4786314"><ele>857.4285714285714</ele><time>2026-04-18T10:31:15.942Z</time></trkpt><trkpt lat="43.5269905" lon="12.4787252"><ele>856.2857142857142</ele><time>2026-04-18T10:31:19.942Z</time></trkpt><trkpt lat="43.5269774" lon="12.4788104"><ele>855.1428571428571</ele><time>2026-04-18T10:31:22.941Z</time></trkpt><trkpt lat="43.5269761" lon="12.4789015"><ele>854.0</ele><time>2026-04-18T10:31:27.943Z</time></trkpt><trkpt lat="43.5270187" lon="12.4788319"><ele>854.0000000000001</ele><time>2026-04-18T10:32:32.941Z</time></trkpt><trkpt lat="43.5269932" lon="12.4787399"><ele>854.0</ele><time>2026-04-18T10:32:37.942Z</time></trkpt><trkpt lat="43.5270386" lon="12.4786786"><ele>854.0</ele><time>2026-04-18T10:32:45.942Z</time></trkpt><trkpt lat="43.5271533" lon="12.4786456"><ele>854.0</ele><time>2026-04-18T10:33:50.942Z</time></trkpt><trkpt lat="43.527112" lon="12.478724"><ele>854.0000000000001</ele><time>2026-04-18T10:39:48.897Z</time></trkpt><trkpt lat="43.5270307" lon="12.478814"><ele>854.0</ele><time>2026-04-18T10:40:05.941Z</time></trkpt><trkpt lat="43.52698" lon="12.4786926"><ele>844.0</ele><time>2026-04-18T10:40:16.941Z</time></trkpt></trkseg><trkseg><trkpt lat="43.5270865" lon="12.4788471"><ele>868.5714285714286</ele><time>2026-04-18T11:51:49.936Z</time></trkpt><trkpt lat="43.5270568" lon="12.4789237"><ele>866.1428571428571</ele><time>2026-04-18T11:53:25.937Z</time></trkpt><trkpt lat="43.5269948" lon="12.4789619"><ele>863.7142857142858</ele><time>2026-04-18T11:53:39.936Z</time></trkpt><trkpt lat="43.5269239" lon="12.4789466"><ele>861.2857142857142</ele><time>2026-04-18T11:55:37.936Z</time></trkpt><trkpt lat="43.5269166" lon="12.4790416"><ele>858.8571428571429</ele><time>2026-04-18T11:58:07.935Z</time></trkpt><trkpt lat="43.5268864" lon="12.4791245"><ele>856.4285714285714</ele><time>2026-04-18T11:58:09.936Z</time></trkpt><trkpt lat="43.5268735" lon="12.4792462"><ele>854.0</ele><time>2026-04-18T11:58:12.936Z</time></trkpt><trkpt lat="43.5268924" lon="12.4793496"><ele>854.0000000000001</ele><time>2026-04-18T11:58:15.936Z</time></trkpt><trkpt lat="43.5269299" lon="12.4794516"><ele>854.0</ele><time>2026-04-18T11:58:17.936Z</time></trkpt><trkpt lat="43.5269609" lon="12.4795536"><ele>854.0</ele><time>2026-04-18T11:58:20.936Z</time></trkpt><trkpt lat="43.5269377" lon="12.479635"><ele>854.0</ele><time>2026-04-18T11:58:22.937Z</time></trkpt><trkpt lat="43.5268735" lon="12.4796061"><ele>854.0000000000001</ele><time>2026-04-18T11:58:25.936Z</time></trkpt><trkpt lat="43.526872" lon="12.4794434"><ele>854.0</ele><time>2026-04-18T11:58:28.937Z</time></trkpt><trkpt lat="43.5268892" lon="12.4793519"><ele>854.0000000000001</ele><time>2026-04-18T11:58:30.935Z</time></trkpt><trkpt lat="43.5269199" lon="12.4792651"><ele>854.0</ele><time>2026-04-18T11:58:32.936Z</time></trkpt><trkpt lat="43.5269312" lon="12.4791795"><ele>854.0</ele><time>2026-04-18T11:59:16.936Z</time></trkpt><trkpt lat="43.5268846" lon="12.4792379"><ele>854.0</ele><time>2026-04-18T11:59:21.935Z</time></trkpt><trkpt lat="43.5268502" lon="12.4793724"><ele>854.0000000000001</ele><time>2026-04-18T11:59:23.936Z</time></trkpt><trkpt lat="43.5268359" lon="12.479486"><ele>854.0</ele><time>2026-04-18T11:59:24.937Z</time></trkpt><trkpt lat="43.5268186" lon="12.4796055"><ele>854.0</ele><time>2026-04-18T11:59:26.935Z</time></trkpt><trkpt lat="43.5268631" lon="12.4796963"><ele>854.0000000000001</ele><time>2026-04-18T11:59:42.936Z</time></trkpt><trkpt lat="43.5269275" lon="12.4796611"><ele>854.0000000000001</ele><time>2026-04-18T11:59:44.937Z</time></trkpt><trkpt lat="43.5269811" lon="12.4795531"><ele>854.0</ele><time>2026-04-18T11:59:45.937Z</time></trkpt><trkpt lat="43.5270415" lon="12.4793751"><ele>854.0</ele><time>2026-04-18T11:59:46.937Z</time></trkpt><trkpt lat="43.5271051" lon="12.4792285"><ele>859.6666666666667</ele><time>2026-04-18T11:59:47.937Z</time></trkpt><trkpt lat="43.5271816" lon="12.4790606"><ele>865.3333333333333</ele><time>2026-04-18T11:59:48.936Z</time></trkpt><trkpt lat="43.5272835" lon="12.4788856"><ele>871.0</ele><time>2026-04-18T11:59:49.936Z</time></trkpt><trkpt lat="43.5273997" lon="12.4787597"><ele>871.4</ele><time>2026-04-18T11:59:50.935Z</time></trkpt><trkpt lat="43.5275101" lon="12.4786493"><ele>871.8</ele><time>2026-04-18T11:59:51.936Z</time></trkpt><trkpt lat="43.5276238" lon="12.4785493"><ele>872.1999999999999</ele><time>2026-04-18T11:59:52.935Z</time></trkpt><trkpt lat="43.5277173" lon="12.4785021"><ele>872.5999999999999</ele><time>2026-04-18T11:59:53.937Z</time></trkpt><trkpt lat="43.5277709" lon="12.4785784"><ele>873.0</ele><time>2026-04-18T11:59:54.936Z</time></trkpt><trkpt lat="43.5278493" lon="12.4785832"><ele>877.0</ele><time>2026-04-18T11:59:56.937Z</time></trkpt><trkpt lat="43.5279585" lon="12.478516"><ele>881.0</ele><time>2026-04-18T11:59:58.935Z</time></trkpt><trkpt lat="43.5280312" lon="12.4784644"><ele>885.0</ele><time>2026-04-18T11:59:59.936Z</time></trkpt><trkpt lat="43.5280803" lon="12.4783948"><ele>889.0</ele><time>2026-04-18T12:00:00.936Z</time></trkpt><trkpt lat="43.5281497" lon="12.4782992"><ele>893.0</ele><time>2026-04-18T12:00:01.937Z</time></trkpt><trkpt lat="43.5282395" lon="12.4781629"><ele>893.0000000000001</ele><time>2026-04-18T12:00:02.937Z</time></trkpt><trkpt lat="43.5282922" lon="12.4780964"><ele>893.0</ele><time>2026-04-18T12:00:03.936Z</time></trkpt><trkpt lat="43.5283649" lon="12.4780032"><ele>893.0</ele><time>2026-04-18T12:00:04.937Z</time></trkpt><trkpt lat="43.5284463" lon="12.4779001"><ele>893.0</ele><time>2026-04-18T12:00:05.936Z</time></trkpt><trkpt lat="43.5285101" lon="12.4778414"><ele>893.0000000000001</ele><time>2026-04-18T12:00:06.936Z</time></trkpt><trkpt lat="43.5285722" lon="12.4777625"><ele>893.0</ele><time>2026-04-18T12:00:07.936Z</time></trkpt><trkpt lat="43.5286446" lon="12.4777029"><ele>893.3333333333334</ele><time>2026-04-18T12:00:08.937Z</time></trkpt><trkpt lat="43.5287042" lon="12.4776296"><ele>893.6666666666667</ele><time>2026-04-18T12:00:09.935Z</time></trkpt><trkpt lat="43.5287984" lon="12.4775555"><ele>894.0</ele><time>2026-04-18T12:00:10.935Z</time></trkpt><trkpt lat="43.528868" lon="12.4774942"><ele>894.3333333333333</ele><time>2026-04-18T12:00:11.936Z</time></trkpt><trkpt lat="43.5289363" lon="12.4774362"><ele>894.6666666666666</ele><time>2026-04-18T12:00:12.936Z</time></trkpt><trkpt lat="43.5289613" lon="12.4773463"><ele>895.0</ele><time>2026-04-18T12:00:13.937Z</time></trkpt><trkpt lat="43.5290112" lon="12.477286"><ele>896.4285714285713</ele><time>2026-04-18T12:00:14.935Z</time></trkpt><trkpt lat="43.5290585" lon="12.4772196"><ele>897.8571428571429</ele><time>2026-04-18T12:00:15.936Z</time></trkpt><trkpt lat="43.529106" lon="12.4771441"><ele>899.2857142857142</ele><time>2026-04-18T12:00:16.936Z</time></trkpt><trkpt lat="43.5291644" lon="12.47707"><ele>900.7142857142857</ele><time>2026-04-18T12:00:17.937Z</time></trkpt><trkpt lat="43.5292234" lon="12.4770014"><ele>902.1428571428571</ele><time>2026-04-18T12:00:18.935Z</time></trkpt><trkpt lat="43.5292843" lon="12.4769582"><ele>903.5714285714286</ele><time>2026-04-18T12:00:19.937Z</time></trkpt><trkpt lat="43.5293314" lon="12.476883"><ele>905.0</ele><time>2026-04-18T12:00:21.937Z</time></trkpt><trkpt lat="43.5293652" lon="12.4768008"><ele>905.0</ele><time>2026-04-18T12:00:24.935Z</time></trkpt><trkpt lat="43.5294253" lon="12.4767184"><ele>905.0</ele><time>2026-04-18T12:00:27.936Z</time></trkpt><trkpt lat="43.5295046" lon="12.4766165"><ele>905.0</ele><time>2026-04-18T12:00:29.936Z</time></trkpt><trkpt lat="43.5295763" lon="12.4764991"><ele>905.0</ele><time>2026-04-18T12:00:31.936Z</time></trkpt><trkpt lat="43.5296353" lon="12.4763926"><ele>905.0</ele><time>2026-04-18T12:00:33.936Z</time></trkpt><trkpt lat="43.5297052" lon="12.4763094"><ele>905.8333333333334</ele><time>2026-04-18T12:00:35.936Z</time></trkpt><trkpt lat="43.529776" lon="12.4762246"><ele>906.6666666666667</ele><time>2026-04-18T12:00:37.936Z</time></trkpt><trkpt lat="43.5298424" lon="12.476143"><ele>907.5</ele><time>2026-04-18T12:00:41.937Z</time></trkpt><trkpt lat="43.5298949" lon="12.4760675"><ele>908.3333333333333</ele><time>2026-04-18T12:00:45.936Z</time></trkpt><trkpt lat="43.5299719" lon="12.4760329"><ele>909.1666666666666</ele><time>2026-04-18T12:00:49.936Z</time></trkpt><trkpt lat="43.5300387" lon="12.4760094"><ele>910.0</ele><time>2026-04-18T12:00:51.936Z</time></trkpt><trkpt lat="43.5300807" lon="12.4759438"><ele>909.9999999999999</ele><time>2026-04-18T12:00:54.936Z</time></trkpt><trkpt lat="43.5301096" lon="12.4758553"><ele>910.0</ele><time>2026-04-18T12:00:58.935Z</time></trkpt><trkpt lat="43.5301444" lon="12.4757285"><ele>910.0</ele><time>2026-04-18T12:01:00.936Z</time></trkpt><trkpt lat="43.5302213" lon="12.4756582"><ele>910.0</ele><time>2026-04-18T12:01:02.936Z</time></trkpt><trkpt lat="43.530319" lon="12.475631"><ele>909.9999999999999</ele><time>2026-04-18T12:01:04.936Z</time></trkpt><trkpt lat="43.5303871" lon="12.4756264"><ele>910.0</ele><time>2026-04-18T12:01:05.935Z</time></trkpt><trkpt lat="43.5304833" lon="12.4755966"><ele>910.0</ele><time>2026-04-18T12:01:07.937Z</time></trkpt><trkpt lat="43.5305682" lon="12.4755422"><ele>910.0</ele><time>2026-04-18T12:01:12.936Z</time></trkpt><trkpt lat="43.5306666" lon="12.4755182"><ele>910.0</ele><time>2026-04-18T12:01:14.936Z</time></trkpt><trkpt lat="43.5307725" lon="12.4755374"><ele>910.0</ele><time>2026-04-18T12:01:16.936Z</time></trkpt><trkpt lat="43.5308506" lon="12.475549"><ele>910.0</ele><time>2026-04-18T12:01:18.935Z</time></trkpt><trkpt lat="43.5309561" lon="12.4756005"><ele>904.5</ele><time>2026-04-18T12:01:20.936Z</time></trkpt><trkpt lat="43.5313383" lon="12.4755315"><ele>899.0</ele><time>2026-04-18T12:01:25.936Z</time></trkpt><trkpt lat="43.5314753" lon="12.475446"><ele>898.2</ele><time>2026-04-18T12:01:26.935Z</time></trkpt><trkpt lat="43.5315892" lon="12.4753891"><ele>897.4000000000001</ele><time>2026-04-18T12:01:27.936Z</time></trkpt><trkpt lat="43.5316673" lon="12.4753418"><ele>896.6</ele><time>2026-04-18T12:01:28.936Z</time></trkpt><trkpt lat="43.5317418" lon="12.4752912"><ele>895.8</ele><time>2026-04-18T12:01:29.936Z</time></trkpt><trkpt lat="43.5318765" lon="12.4751889"><ele>895.0</ele><time>2026-04-18T12:01:31.936Z</time></trkpt><trkpt lat="43.5319653" lon="12.4751422"><ele>895.0</ele><time>2026-04-18T12:01:32.937Z</time></trkpt><trkpt lat="43.5320249" lon="12.4751036"><ele>895.0</ele><time>2026-04-18T12:01:33.935Z</time></trkpt><trkpt lat="43.5321546" lon="12.4750543"><ele>895.0</ele><time>2026-04-18T12:01:35.936Z</time></trkpt><trkpt lat="43.5322198" lon="12.4750284"><ele>895.0</ele><time>2026-04-18T12:01:36.936Z</time></trkpt><trkpt lat="43.532344" lon="12.4749486"><ele>895.0</ele><time>2026-04-18T12:01:38.937Z</time></trkpt><trkpt lat="43.5324122" lon="12.4748853"><ele>896.6666666666666</ele><time>2026-04-18T12:01:40.936Z</time></trkpt><trkpt lat="43.5324942" lon="12.4748253"><ele>898.3333333333333</ele><time>2026-04-18T12:01:42.937Z</time></trkpt><trkpt lat="43.5325597" lon="12.4748175"><ele>900.0</ele><time>2026-04-18T12:01:46.935Z</time></trkpt><trkpt lat="43.5326284" lon="12.4747657"><ele>901.6666666666667</ele><time>2026-04-18T12:01:49.935Z</time></trkpt><trkpt lat="43.5326874" lon="12.4747344"><ele>903.3333333333334</ele><time>2026-04-18T12:01:51.936Z</time></trkpt><trkpt lat="43.5327833" lon="12.4746888"><ele>905.0</ele><time>2026-04-18T12:01:53.935Z</time></trkpt><trkpt lat="43.5328398" lon="12.4746123"><ele>907.6</ele><time>2026-04-18T12:01:55.935Z</time></trkpt><trkpt lat="43.5329109" lon="12.4745685"><ele>910.2</ele><time>2026-04-18T12:01:57.935Z</time></trkpt><trkpt lat="43.5330258" lon="12.4745015"><ele>912.8</ele><time>2026-04-18T12:01:59.936Z</time></trkpt><trkpt lat="43.5331148" lon="12.4744662"><ele>915.4</ele><time>2026-04-18T12:02:00.936Z</time></trkpt><trkpt lat="43.5331942" lon="12.4744329"><ele>918.0</ele><time>2026-04-18T12:02:01.937Z</time></trkpt><trkpt lat="43.5332624" lon="12.4743999"><ele>918.0</ele><time>2026-04-18T12:02:02.936Z</time></trkpt><trkpt lat="43.5333459" lon="12.4743861"><ele>918.0</ele><time>2026-04-18T12:02:03.936Z</time></trkpt><trkpt lat="43.5334188" lon="12.4743611"><ele>918.0</ele><time>2026-04-18T12:02:04.935Z</time></trkpt><trkpt lat="43.5334864" lon="12.4743288"><ele>918.0</ele><time>2026-04-18T12:02:05.935Z</time></trkpt><trkpt lat="43.5335913" lon="12.4742889"><ele>918.0</ele><time>2026-04-18T12:02:07.936Z</time></trkpt><trkpt lat="43.5336596" lon="12.4742521"><ele>918.0</ele><time>2026-04-18T12:02:08.936Z</time></trkpt><trkpt lat="43.5337778" lon="12.47421"><ele>920.8</ele><time>2026-04-18T12:02:10.935Z</time></trkpt><trkpt lat="43.5338277" lon="12.474141"><ele>923.5999999999999</ele><time>2026-04-18T12:02:11.935Z</time></trkpt><trkpt lat="43.5339298" lon="12.4740541"><ele>926.4000000000001</ele><time>2026-04-18T12:02:13.936Z</time></trkpt><trkpt lat="43.533987" lon="12.4740057"><ele>929.2</ele><time>2026-04-18T12:02:14.937Z</time></trkpt><trkpt lat="43.5340998" lon="12.4739865"><ele>932.0</ele><time>2026-04-18T12:02:16.936Z</time></trkpt><trkpt lat="43.5342069" lon="12.4739282"><ele>932.0000000000001</ele><time>2026-04-18T12:02:18.936Z</time></trkpt><trkpt lat="43.5342731" lon="12.4738356"><ele>932.0</ele><time>2026-04-18T12:02:20.935Z</time></trkpt><trkpt lat="43.5343558" lon="12.4737995"><ele>932.0</ele><time>2026-04-18T12:02:23.936Z</time></trkpt><trkpt lat="43.5344338" lon="12.4737719"><ele>932.0</ele><time>2026-04-18T12:02:27.935Z</time></trkpt><trkpt lat="43.5345236" lon="12.4737342"><ele>932.0000000000001</ele><time>2026-04-18T12:02:30.935Z</time></trkpt><trkpt lat="43.5346015" lon="12.4736816"><ele>932.0</ele><time>2026-04-18T12:02:32.936Z</time></trkpt><trkpt lat="43.5346699" lon="12.47364"><ele>934.5000000000001</ele><time>2026-04-18T12:02:34.937Z</time></trkpt><trkpt lat="43.5347587" lon="12.4736314"><ele>937.0</ele><time>2026-04-18T12:02:37.936Z</time></trkpt><trkpt lat="43.5348231" lon="12.4736358"><ele>939.5</ele><time>2026-04-18T12:02:39.935Z</time></trkpt><trkpt lat="43.5348921" lon="12.4736438"><ele>942.0</ele><time>2026-04-18T12:02:41.936Z</time></trkpt><trkpt lat="43.5349791" lon="12.4736405"><ele>944.5000000000001</ele><time>2026-04-18T12:02:44.936Z</time></trkpt><trkpt lat="43.5350792" lon="12.473622"><ele>947.0</ele><time>2026-04-18T12:02:46.936Z</time></trkpt><trkpt lat="43.5352013" lon="12.4736262"><ele>947.0000000000001</ele><time>2026-04-18T12:02:47.936Z</time></trkpt><trkpt lat="43.5353044" lon="12.4736288"><ele>947.0</ele><time>2026-04-18T12:02:49.936Z</time></trkpt><trkpt lat="43.5353832" lon="12.4736289"><ele>947.0</ele><time>2026-04-18T12:02:51.936Z</time></trkpt><trkpt lat="43.5354782" lon="12.4736048"><ele>947.0</ele><time>2026-04-18T12:02:54.935Z</time></trkpt><trkpt lat="43.5355538" lon="12.4735677"><ele>947.0000000000001</ele><time>2026-04-18T12:02:56.936Z</time></trkpt><trkpt lat="43.5356302" lon="12.4735362"><ele>947.0</ele><time>2026-04-18T12:02:58.936Z</time></trkpt><trkpt lat="43.5356968" lon="12.4734394"><ele>947.3333333333334</ele><time>2026-04-18T12:03:00.936Z</time></trkpt><trkpt lat="43.5357455" lon="12.4733574"><ele>947.6666666666667</ele><time>2026-04-18T12:03:02.936Z</time></trkpt><trkpt lat="43.5358069" lon="12.4732878"><ele>948.0</ele><time>2026-04-18T12:03:04.935Z</time></trkpt><trkpt lat="43.5358849" lon="12.4732423"><ele>948.3333333333333</ele><time>2026-04-18T12:03:06.937Z</time></trkpt><trkpt lat="43.5359512" lon="12.4732006"><ele>948.6666666666666</ele><time>2026-04-18T12:03:07.935Z</time></trkpt><trkpt lat="43.5360109" lon="12.4731625"><ele>949.0</ele><time>2026-04-18T12:03:08.936Z</time></trkpt><trkpt lat="43.5361045" lon="12.4730809"><ele>949.0000000000001</ele><time>2026-04-18T12:03:10.935Z</time></trkpt><trkpt lat="43.5361662" lon="12.4730259"><ele>949.0</ele><time>2026-04-18T12:03:12.937Z</time></trkpt><trkpt lat="43.5362305" lon="12.4730081"><ele>949.0000000000001</ele><time>2026-04-18T12:03:14.935Z</time></trkpt><trkpt lat="43.536307" lon="12.4729634"><ele>949.0000000000001</ele><time>2026-04-18T12:03:18.937Z</time></trkpt><trkpt lat="43.5363498" lon="12.4728901"><ele>949.0</ele><time>2026-04-18T12:03:20.935Z</time></trkpt><trkpt lat="43.5363928" lon="12.472803"><ele>949.0000000000001</ele><time>2026-04-18T12:03:22.937Z</time></trkpt><trkpt lat="43.5364446" lon="12.472742"><ele>949.0000000000001</ele><time>2026-04-18T12:03:24.936Z</time></trkpt><trkpt lat="43.5364968" lon="12.4726849"><ele>945.8333333333333</ele><time>2026-04-18T12:03:27.935Z</time></trkpt><trkpt lat="43.5365837" lon="12.4726507"><ele>942.6666666666666</ele><time>2026-04-18T12:03:30.936Z</time></trkpt><trkpt lat="43.5366648" lon="12.4727126"><ele>939.5</ele><time>2026-04-18T12:03:32.935Z</time></trkpt><trkpt lat="43.5367195" lon="12.4727749"><ele>936.3333333333333</ele><time>2026-04-18T12:03:34.937Z</time></trkpt><trkpt lat="43.5367832" lon="12.4727727"><ele>933.1666666666666</ele><time>2026-04-18T12:03:38.935Z</time></trkpt><trkpt lat="43.5368712" lon="12.4727556"><ele>930.0</ele><time>2026-04-18T12:03:43.937Z</time></trkpt><trkpt lat="43.5369181" lon="12.4726716"><ele>930.0</ele><time>2026-04-18T12:03:48.936Z</time></trkpt><trkpt lat="43.5369682" lon="12.4726076"><ele>930.0</ele><time>2026-04-18T12:03:52.935Z</time></trkpt><trkpt lat="43.5370221" lon="12.4725409"><ele>930.0</ele><time>2026-04-18T12:03:56.935Z</time></trkpt><trkpt lat="43.5370949" lon="12.4725004"><ele>930.0</ele><time>2026-04-18T12:03:58.937Z</time></trkpt><trkpt lat="43.537162" lon="12.472457"><ele>930.0</ele><time>2026-04-18T12:04:02.935Z</time></trkpt><trkpt lat="43.5372061" lon="12.4723811"><ele>930.0</ele><time>2026-04-18T12:04:06.936Z</time></trkpt><trkpt lat="43.5372573" lon="12.4723031"><ele>930.0</ele><time>2026-04-18T12:04:09.936Z</time></trkpt><trkpt lat="43.5373028" lon="12.4721764"><ele>925.1666666666666</ele><time>2026-04-18T12:04:12.934Z</time></trkpt><trkpt lat="43.5373183" lon="12.4720629"><ele>920.3333333333333</ele><time>2026-04-18T12:04:15.935Z</time></trkpt><trkpt lat="43.5373394" lon="12.4719738"><ele>915.5</ele><time>2026-04-18T12:04:18.935Z</time></trkpt><trkpt lat="43.5373929" lon="12.4718613"><ele>910.6666666666666</ele><time>2026-04-18T12:04:23.936Z</time></trkpt><trkpt lat="43.5374488" lon="12.4717895"><ele>905.8333333333333</ele><time>2026-04-18T12:04:26.936Z</time></trkpt><trkpt lat="43.5375039" lon="12.4717159"><ele>901.0</ele><time>2026-04-18T12:04:30.935Z</time></trkpt><trkpt lat="43.5375647" lon="12.4716244"><ele>900.9999999999999</ele><time>2026-04-18T12:04:33.935Z</time></trkpt><trkpt lat="43.5376274" lon="12.4715296"><ele>901.0</ele><time>2026-04-18T12:04:35.935Z</time></trkpt><trkpt lat="43.5376858" lon="12.4714502"><ele>901.0</ele><time>2026-04-18T12:04:38.935Z</time></trkpt><trkpt lat="43.5377088" lon="12.4713613"><ele>901.0</ele><time>2026-04-18T12:04:42.936Z</time></trkpt><trkpt lat="43.5377485" lon="12.471237"><ele>900.9999999999999</ele><time>2026-04-18T12:04:44.935Z</time></trkpt><trkpt lat="43.5377865" lon="12.4711298"><ele>901.0</ele><time>2026-04-18T12:04:47.934Z</time></trkpt><trkpt lat="43.5378197" lon="12.4710442"><ele>897.9999999999999</ele><time>2026-04-18T12:04:51.936Z</time></trkpt><trkpt lat="43.5378136" lon="12.4709452"><ele>895.0</ele><time>2026-04-18T12:04:54.935Z</time></trkpt><trkpt lat="43.5378003" lon="12.4708349"><ele>892.0</ele><time>2026-04-18T12:04:56.936Z</time></trkpt><trkpt lat="43.537855" lon="12.4707384"><ele>889.0</ele><time>2026-04-18T12:04:59.935Z</time></trkpt><trkpt lat="43.5378995" lon="12.4706624"><ele>885.9999999999999</ele><time>2026-04-18T12:05:01.935Z</time></trkpt><trkpt lat="43.5379878" lon="12.4706208"><ele>883.0</ele><time>2026-04-18T12:05:03.936Z</time></trkpt><trkpt lat="43.5380941" lon="12.4705896"><ele>882.2</ele><time>2026-04-18T12:05:04.935Z</time></trkpt><trkpt lat="43.5381498" lon="12.4705165"><ele>881.4</ele><time>2026-04-18T12:05:05.935Z</time></trkpt><trkpt lat="43.5382483" lon="12.4704531"><ele>880.6000000000001</ele><time>2026-04-18T12:05:07.935Z</time></trkpt><trkpt lat="43.5383428" lon="12.4703829"><ele>879.8000000000001</ele><time>2026-04-18T12:05:09.936Z</time></trkpt><trkpt lat="43.5384475" lon="12.4703054"><ele>879.0</ele><time>2026-04-18T12:05:11.935Z</time></trkpt><trkpt lat="43.5385574" lon="12.4702897"><ele>878.2857142857143</ele><time>2026-04-18T12:05:12.936Z</time></trkpt><trkpt lat="43.5386031" lon="12.4702298"><ele>877.5714285714287</ele><time>2026-04-18T12:05:13.935Z</time></trkpt><trkpt lat="43.5386527" lon="12.4701739"><ele>876.8571428571429</ele><time>2026-04-18T12:05:14.935Z</time></trkpt><trkpt lat="43.5387257" lon="12.4701005"><ele>876.1428571428571</ele><time>2026-04-18T12:05:16.935Z</time></trkpt><trkpt lat="43.5387888" lon="12.4700812"><ele>875.4285714285714</ele><time>2026-04-18T12:05:19.934Z</time></trkpt><trkpt lat="43.5388531" lon="12.4701095"><ele>874.7142857142857</ele><time>2026-04-18T12:05:22.934Z</time></trkpt><trkpt lat="43.5389268" lon="12.4700494"><ele>874.0</ele><time>2026-04-18T12:05:26.935Z</time></trkpt><trkpt lat="43.5390011" lon="12.4699695"><ele>874.0</ele><time>2026-04-18T12:05:28.935Z</time></trkpt><trkpt lat="43.5390457" lon="12.46988"><ele>874.0</ele><time>2026-04-18T12:05:32.935Z</time></trkpt><trkpt lat="43.5390517" lon="12.4697707"><ele>874.0</ele><time>2026-04-18T12:05:34.935Z</time></trkpt><trkpt lat="43.5390818" lon="12.4696838"><ele>874.0</ele><time>2026-04-18T12:05:41.936Z</time></trkpt><trkpt lat="43.5390717" lon="12.4695931"><ele>874.0</ele><time>2026-04-18T12:05:44.934Z</time></trkpt><trkpt lat="43.5391042" lon="12.4695072"><ele>874.0</ele><time>2026-04-18T12:05:46.935Z</time></trkpt><trkpt lat="43.5391459" lon="12.4694076"><ele>874.0</ele><time>2026-04-18T12:05:48.936Z</time></trkpt><trkpt lat="43.5391972" lon="12.4693427"><ele>873.4999999999999</ele><time>2026-04-18T12:05:50.936Z</time></trkpt><trkpt lat="43.5392557" lon="12.4692714"><ele>873.0</ele><time>2026-04-18T12:05:52.935Z</time></trkpt><trkpt lat="43.5393194" lon="12.4691899"><ele>872.5</ele><time>2026-04-18T12:05:54.936Z</time></trkpt><trkpt lat="43.5393914" lon="12.4690922"><ele>872.0</ele><time>2026-04-18T12:05:56.936Z</time></trkpt><trkpt lat="43.539462" lon="12.4689859"><ele>871.4999999999999</ele><time>2026-04-18T12:05:58.935Z</time></trkpt><trkpt lat="43.5395185" lon="12.4689102"><ele>871.0</ele><time>2026-04-18T12:06:00.936Z</time></trkpt><trkpt lat="43.5395566" lon="12.4688094"><ele>873.8</ele><time>2026-04-18T12:06:02.936Z</time></trkpt><trkpt lat="43.5395818" lon="12.4686823"><ele>876.5999999999999</ele><time>2026-04-18T12:06:04.936Z</time></trkpt><trkpt lat="43.5396161" lon="12.4686017"><ele>879.4</ele><time>2026-04-18T12:06:08.935Z</time></trkpt><trkpt lat="43.5397042" lon="12.4685384"><ele>882.2</ele><time>2026-04-18T12:06:11.935Z</time></trkpt><trkpt lat="43.5398187" lon="12.4684477"><ele>885.0</ele><time>2026-04-18T12:06:12.934Z</time></trkpt><trkpt lat="43.5399291" lon="12.46836"><ele>885.0</ele><time>2026-04-18T12:06:13.936Z</time></trkpt><trkpt lat="43.5399994" lon="12.4681281"><ele>885.0</ele><time>2026-04-18T12:06:15.936Z</time></trkpt><trkpt lat="43.5400345" lon="12.4680511"><ele>885.0</ele><time>2026-04-18T12:06:16.934Z</time></trkpt><trkpt lat="43.5400593" lon="12.4679088"><ele>885.0</ele><time>2026-04-18T12:06:17.936Z</time></trkpt><trkpt lat="43.5401039" lon="12.4677451"><ele>885.8</ele><time>2026-04-18T12:06:19.934Z</time></trkpt><trkpt lat="43.5401696" lon="12.4676493"><ele>886.6</ele><time>2026-04-18T12:06:21.934Z</time></trkpt><trkpt lat="43.5402507" lon="12.4675438"><ele>887.4000000000001</ele><time>2026-04-18T12:06:23.936Z</time></trkpt><trkpt lat="43.5403278" lon="12.4674725"><ele>888.2</ele><time>2026-04-18T12:06:25.934Z</time></trkpt><trkpt lat="43.5404128" lon="12.4674074"><ele>889.0</ele><time>2026-04-18T12:06:27.935Z</time></trkpt><trkpt lat="43.5405255" lon="12.4673325"><ele>889.0</ele><time>2026-04-18T12:06:29.934Z</time></trkpt><trkpt lat="43.5406249" lon="12.4672257"><ele>889.0000000000001</ele><time>2026-04-18T12:06:30.936Z</time></trkpt><trkpt lat="43.5407057" lon="12.4671494"><ele>889.0000000000001</ele><time>2026-04-18T12:06:31.936Z</time></trkpt><trkpt lat="43.5408154" lon="12.4670829"><ele>889.0</ele><time>2026-04-18T12:06:32.935Z</time></trkpt><trkpt lat="43.5408977" lon="12.4670177"><ele>889.0</ele><time>2026-04-18T12:06:33.935Z</time></trkpt><trkpt lat="43.5409875" lon="12.4669502"><ele>886.4999999999999</ele><time>2026-04-18T12:06:34.935Z</time></trkpt><trkpt lat="43.5410611" lon="12.4669248"><ele>884.0</ele><time>2026-04-18T12:06:35.934Z</time></trkpt><trkpt lat="43.5411186" lon="12.4668864"><ele>881.5</ele><time>2026-04-18T12:06:36.935Z</time></trkpt><trkpt lat="43.5411896" lon="12.4668399"><ele>879.0</ele><time>2026-04-18T12:06:38.935Z</time></trkpt><trkpt lat="43.5412514" lon="12.4667727"><ele>876.4999999999999</ele><time>2026-04-18T12:06:40.935Z</time></trkpt><trkpt lat="43.5413245" lon="12.4666931"><ele>874.0</ele><time>2026-04-18T12:06:42.936Z</time></trkpt><trkpt lat="43.5414163" lon="12.4666265"><ele>874.0</ele><time>2026-04-18T12:06:44.936Z</time></trkpt><trkpt lat="43.5415635" lon="12.466488"><ele>874.0</ele><time>2026-04-18T12:06:46.936Z</time></trkpt><trkpt lat="43.5416401" lon="12.4664704"><ele>874.0</ele><time>2026-04-18T12:06:47.935Z</time></trkpt><trkpt lat="43.5419137" lon="12.4664603"><ele>873.9999999999999</ele><time>2026-04-18T12:06:52.936Z</time></trkpt><trkpt lat="43.5419796" lon="12.4664643"><ele>874.0</ele><time>2026-04-18T12:06:53.936Z</time></trkpt><trkpt lat="43.5420724" lon="12.4664575"><ele>874.0</ele><time>2026-04-18T12:06:54.936Z</time></trkpt><trkpt lat="43.5421385" lon="12.4664532"><ele>874.0</ele><time>2026-04-18T12:06:55.934Z</time></trkpt><trkpt lat="43.5422291" lon="12.4663997"><ele>873.9999999999999</ele><time>2026-04-18T12:06:57.935Z</time></trkpt><trkpt lat="43.5423086" lon="12.4663466"><ele>874.0</ele><time>2026-04-18T12:06:59.935Z</time></trkpt><trkpt lat="43.54236" lon="12.4662585"><ele>872.4999999999999</ele><time>2026-04-18T12:07:03.934Z</time></trkpt><trkpt lat="43.5424091" lon="12.4661873"><ele>871.0</ele><time>2026-04-18T12:07:06.935Z</time></trkpt><trkpt lat="43.5424453" lon="12.4661022"><ele>869.5</ele><time>2026-04-18T12:07:09.934Z</time></trkpt><trkpt lat="43.5424835" lon="12.4660267"><ele>868.0</ele><time>2026-04-18T12:07:15.934Z</time></trkpt><trkpt lat="43.5425141" lon="12.4659474"><ele>866.4999999999999</ele><time>2026-04-18T12:07:19.934Z</time></trkpt><trkpt lat="43.5425816" lon="12.4658076"><ele>865.0</ele><time>2026-04-18T12:07:38.935Z</time></trkpt><trkpt lat="43.5426255" lon="12.465719"><ele>864.9999999999999</ele><time>2026-04-18T12:07:42.936Z</time></trkpt><trkpt lat="43.5426551" lon="12.4656389"><ele>865.0</ele><time>2026-04-18T12:07:44.934Z</time></trkpt><trkpt lat="43.5427016" lon="12.4655309"><ele>865.0</ele><time>2026-04-18T12:07:47.934Z</time></trkpt><trkpt lat="43.5427445" lon="12.4654495"><ele>865.0</ele><time>2026-04-18T12:07:50.935Z</time></trkpt><trkpt lat="43.5427817" lon="12.4653761"><ele>864.9999999999999</ele><time>2026-04-18T12:07:52.935Z</time></trkpt><trkpt lat="43.5428356" lon="12.4652437"><ele>865.0</ele><time>2026-04-18T12:07:54.936Z</time></trkpt><trkpt lat="43.5429006" lon="12.4651103"><ele>864.6666666666666</ele><time>2026-04-18T12:07:56.934Z</time></trkpt><trkpt lat="43.5429382" lon="12.4650312"><ele>864.3333333333333</ele><time>2026-04-18T12:07:57.935Z</time></trkpt><trkpt lat="43.5429784" lon="12.4649417"><ele>864.0</ele><time>2026-04-18T12:07:58.935Z</time></trkpt><trkpt lat="43.5430142" lon="12.46484"><ele>863.6666666666667</ele><time>2026-04-18T12:07:59.935Z</time></trkpt><trkpt lat="43.5430615" lon="12.4647355"><ele>863.3333333333334</ele><time>2026-04-18T12:08:00.935Z</time></trkpt><trkpt lat="43.5431271" lon="12.4646469"><ele>863.0</ele><time>2026-04-18T12:08:02.936Z</time></trkpt><trkpt lat="43.543211" lon="12.4645583"><ele>860.0</ele><time>2026-04-18T12:08:04.934Z</time></trkpt><trkpt lat="43.5433035" lon="12.4644624"><ele>857.0</ele><time>2026-04-18T12:08:06.934Z</time></trkpt><trkpt lat="43.5433778" lon="12.4644434"><ele>854.0</ele><time>2026-04-18T12:08:08.936Z</time></trkpt><trkpt lat="43.5434676" lon="12.4644464"><ele>851.0</ele><time>2026-04-18T12:08:10.935Z</time></trkpt><trkpt lat="43.5435297" lon="12.4644258"><ele>848.0</ele><time>2026-04-18T12:08:11.935Z</time></trkpt><trkpt lat="43.5436322" lon="12.4643941"><ele>850.0</ele><time>2026-04-18T12:08:13.934Z</time></trkpt><trkpt lat="43.5437314" lon="12.4643429"><ele>852.0</ele><time>2026-04-18T12:08:15.936Z</time></trkpt><trkpt lat="43.543853" lon="12.4642771"><ele>854.0</ele><time>2026-04-18T12:08:17.935Z</time></trkpt><trkpt lat="43.5439208" lon="12.4642301"><ele>856.0</ele><time>2026-04-18T12:08:18.935Z</time></trkpt><trkpt lat="43.5440019" lon="12.4641651"><ele>858.0</ele><time>2026-04-18T12:08:19.935Z</time></trkpt><trkpt lat="43.5440607" lon="12.4641176"><ele>858.0</ele><time>2026-04-18T12:08:20.934Z</time></trkpt><trkpt lat="43.54412" lon="12.4640481"><ele>858.0</ele><time>2026-04-18T12:08:21.935Z</time></trkpt><trkpt lat="43.544175" lon="12.463988"><ele>858.0</ele><time>2026-04-18T12:08:22.934Z</time></trkpt><trkpt lat="43.5442657" lon="12.4638804"><ele>858.0</ele><time>2026-04-18T12:08:24.936Z</time></trkpt><trkpt lat="43.5443093" lon="12.463804"><ele>858.0</ele><time>2026-04-18T12:08:25.935Z</time></trkpt><trkpt lat="43.5443648" lon="12.4637596"><ele>858.0</ele><time>2026-04-18T12:08:26.935Z</time></trkpt><trkpt lat="43.5444689" lon="12.4637104"><ele>857.4</ele><time>2026-04-18T12:08:28.935Z</time></trkpt><trkpt lat="43.5445991" lon="12.4636505"><ele>856.8</ele><time>2026-04-18T12:08:29.934Z</time></trkpt><trkpt lat="43.5447049" lon="12.4635781"><ele>856.2</ele><time>2026-04-18T12:08:31.935Z</time></trkpt><trkpt lat="43.5447592" lon="12.4635168"><ele>855.6</ele><time>2026-04-18T12:08:33.935Z</time></trkpt><trkpt lat="43.5448227" lon="12.4634682"><ele>855.0</ele><time>2026-04-18T12:08:35.935Z</time></trkpt><trkpt lat="43.5448923" lon="12.4633645"><ele>855.0</ele><time>2026-04-18T12:08:37.935Z</time></trkpt><trkpt lat="43.5449435" lon="12.4632965"><ele>855.0</ele><time>2026-04-18T12:08:38.935Z</time></trkpt><trkpt lat="43.5450204" lon="12.4632056"><ele>855.0</ele><time>2026-04-18T12:08:40.935Z</time></trkpt><trkpt lat="43.5450706" lon="12.4631287"><ele>855.0</ele><time>2026-04-18T12:08:42.935Z</time></trkpt><trkpt lat="43.5451514" lon="12.4630507"><ele>855.0</ele><time>2026-04-18T12:08:44.935Z</time></trkpt><trkpt lat="43.5452033" lon="12.4629862"><ele>855.0</ele><time>2026-04-18T12:08:45.935Z</time></trkpt><trkpt lat="43.5452855" lon="12.4627524"><ele>854.6666666666666</ele><time>2026-04-18T12:08:46.935Z</time></trkpt><trkpt lat="43.5453518" lon="12.4626758"><ele>854.3333333333333</ele><time>2026-04-18T12:08:47.935Z</time></trkpt><trkpt lat="43.5454106" lon="12.4626295"><ele>854.0</ele><time>2026-04-18T12:08:51.936Z</time></trkpt><trkpt lat="43.5454485" lon="12.4625572"><ele>853.6666666666666</ele><time>2026-04-18T12:08:56.936Z</time></trkpt><trkpt lat="43.5455063" lon="12.4624587"><ele>853.3333333333333</ele><time>2026-04-18T12:08:59.935Z</time></trkpt><trkpt lat="43.545571" lon="12.4623807"><ele>853.0</ele><time>2026-04-18T12:09:01.935Z</time></trkpt><trkpt lat="43.5456208" lon="12.4622984"><ele>853.0</ele><time>2026-04-18T12:09:03.934Z</time></trkpt><trkpt lat="43.5456847" lon="12.4622249"><ele>853.0</ele><time>2026-04-18T12:09:05.935Z</time></trkpt><trkpt lat="43.5457418" lon="12.4621652"><ele>853.0</ele><time>2026-04-18T12:09:06.936Z</time></trkpt><trkpt lat="43.5459017" lon="12.4620615"><ele>853.0</ele><time>2026-04-18T12:09:07.934Z</time></trkpt><trkpt lat="43.5459832" lon="12.4619739"><ele>853.0</ele><time>2026-04-18T12:09:08.935Z</time></trkpt><trkpt lat="43.5461008" lon="12.4618815"><ele>851.0</ele><time>2026-04-18T12:09:09.936Z</time></trkpt><trkpt lat="43.546201" lon="12.4617961"><ele>849.0</ele><time>2026-04-18T12:09:10.935Z</time></trkpt><trkpt lat="43.5462978" lon="12.4617157"><ele>847.0</ele><time>2026-04-18T12:09:11.935Z</time></trkpt><trkpt lat="43.5463737" lon="12.4616372"><ele>845.0</ele><time>2026-04-18T12:09:12.935Z</time></trkpt><trkpt lat="43.5464922" lon="12.4615342"><ele>845.0</ele><time>2026-04-18T12:09:14.936Z</time></trkpt><trkpt lat="43.5465787" lon="12.4614717"><ele>845.0</ele><time>2026-04-18T12:09:15.935Z</time></trkpt><trkpt lat="43.5466497" lon="12.4614122"><ele>845.0</ele><time>2026-04-18T12:09:16.935Z</time></trkpt><trkpt lat="43.5467429" lon="12.4613529"><ele>845.0</ele><time>2026-04-18T12:09:18.935Z</time></trkpt><trkpt lat="43.5468207" lon="12.4612814"><ele>845.0</ele><time>2026-04-18T12:09:20.936Z</time></trkpt><trkpt lat="43.5468946" lon="12.4611652"><ele>844.6666666666667</ele><time>2026-04-18T12:09:22.935Z</time></trkpt><trkpt lat="43.5469188" lon="12.4610674"><ele>844.3333333333334</ele><time>2026-04-18T12:09:24.936Z</time></trkpt><trkpt lat="43.5469654" lon="12.4609928"><ele>844.0</ele><time>2026-04-18T12:09:26.934Z</time></trkpt><trkpt lat="43.547021" lon="12.460911"><ele>843.6666666666667</ele><time>2026-04-18T12:09:28.935Z</time></trkpt><trkpt lat="43.5470898" lon="12.4608077"><ele>843.3333333333334</ele><time>2026-04-18T12:09:31.935Z</time></trkpt><trkpt lat="43.5471587" lon="12.4607392"><ele>843.0</ele><time>2026-04-18T12:09:34.935Z</time></trkpt><trkpt lat="43.5472372" lon="12.460682"><ele>842.2</ele><time>2026-04-18T12:09:35.936Z</time></trkpt><trkpt lat="43.5473168" lon="12.4606067"><ele>841.4</ele><time>2026-04-18T12:09:37.935Z</time></trkpt><trkpt lat="43.547396" lon="12.4604981"><ele>840.6</ele><time>2026-04-18T12:09:39.934Z</time></trkpt><trkpt lat="43.5474511" lon="12.4604375"><ele>839.8000000000001</ele><time>2026-04-18T12:09:40.935Z</time></trkpt><trkpt lat="43.5475244" lon="12.4603042"><ele>839.0</ele><time>2026-04-18T12:09:42.935Z</time></trkpt><trkpt lat="43.5475973" lon="12.4601727"><ele>839.0000000000001</ele><time>2026-04-18T12:09:44.935Z</time></trkpt><trkpt lat="43.5476599" lon="12.4600644"><ele>839.0</ele><time>2026-04-18T12:09:46.935Z</time></trkpt><trkpt lat="43.5477247" lon="12.4599886"><ele>839.0</ele><time>2026-04-18T12:09:48.935Z</time></trkpt><trkpt lat="43.5477781" lon="12.45992"><ele>839.0</ele><time>2026-04-18T12:09:50.935Z</time></trkpt><trkpt lat="43.5478431" lon="12.4598506"><ele>839.0000000000001</ele><time>2026-04-18T12:09:53.935Z</time></trkpt><trkpt lat="43.5479076" lon="12.4597946"><ele>839.0</ele><time>2026-04-18T12:09:56.936Z</time></trkpt><trkpt lat="43.5479411" lon="12.4597187"><ele>838.5000000000001</ele><time>2026-04-18T12:10:09.935Z</time></trkpt><trkpt lat="43.5480027" lon="12.4597406"><ele>838.0</ele><time>2026-04-18T12:10:14.935Z</time></trkpt><trkpt lat="43.5480707" lon="12.4597558"><ele>837.5</ele><time>2026-04-18T12:10:18.935Z</time></trkpt><trkpt lat="43.5481364" lon="12.4597194"><ele>837.0</ele><time>2026-04-18T12:10:22.934Z</time></trkpt><trkpt lat="43.5482077" lon="12.4596643"><ele>836.5000000000001</ele><time>2026-04-18T12:10:26.936Z</time></trkpt><trkpt lat="43.5482667" lon="12.4595855"><ele>836.0</ele><time>2026-04-18T12:10:29.935Z</time></trkpt><trkpt lat="43.5483292" lon="12.4595031"><ele>836.0</ele><time>2026-04-18T12:10:31.934Z</time></trkpt><trkpt lat="43.5483947" lon="12.4594226"><ele>836.0</ele><time>2026-04-18T12:10:34.935Z</time></trkpt><trkpt lat="43.5484638" lon="12.4593765"><ele>836.0</ele><time>2026-04-18T12:10:37.935Z</time></trkpt><trkpt lat="43.5485557" lon="12.4593121"><ele>836.0</ele><time>2026-04-18T12:10:39.934Z</time></trkpt><trkpt lat="43.5486376" lon="12.4592592"><ele>836.0</ele><time>2026-04-18T12:10:41.936Z</time></trkpt><trkpt lat="43.5487543" lon="12.4591703"><ele>836.5000000000001</ele><time>2026-04-18T12:10:43.936Z</time></trkpt><trkpt lat="43.5488269" lon="12.4591126"><ele>837.0</ele><time>2026-04-18T12:10:45.934Z</time></trkpt><trkpt lat="43.5488828" lon="12.4590683"><ele>837.5</ele><time>2026-04-18T12:10:46.935Z</time></trkpt><trkpt lat="43.5489984" lon="12.4589739"><ele>838.0</ele><time>2026-04-18T12:10:48.935Z</time></trkpt><trkpt lat="43.5490534" lon="12.4589063"><ele>838.5000000000001</ele><time>2026-04-18T12:10:51.935Z</time></trkpt><trkpt lat="43.5491124" lon="12.4588427"><ele>839.0</ele><time>2026-04-18T12:10:54.935Z</time></trkpt><trkpt lat="43.5491634" lon="12.4587805"><ele>837.8333333333334</ele><time>2026-04-18T12:10:56.935Z</time></trkpt><trkpt lat="43.5492296" lon="12.4587442"><ele>836.6666666666667</ele><time>2026-04-18T12:10:58.934Z</time></trkpt><trkpt lat="43.5492916" lon="12.4586707"><ele>835.5</ele><time>2026-04-18T12:11:00.936Z</time></trkpt><trkpt lat="43.5493422" lon="12.4586104"><ele>834.3333333333333</ele><time>2026-04-18T12:11:01.935Z</time></trkpt><trkpt lat="43.5494246" lon="12.4585746"><ele>833.1666666666666</ele><time>2026-04-18T12:11:02.935Z</time></trkpt><trkpt lat="43.5494823" lon="12.4585376"><ele>832.0</ele><time>2026-04-18T12:11:03.935Z</time></trkpt><trkpt lat="43.5495819" lon="12.4584761"><ele>832.0</ele><time>2026-04-18T12:11:05.936Z</time></trkpt><trkpt lat="43.5496876" lon="12.4584237"><ele>832.0</ele><time>2026-04-18T12:11:07.936Z</time></trkpt><trkpt lat="43.5498013" lon="12.4583727"><ele>832.0</ele><time>2026-04-18T12:11:09.934Z</time></trkpt><trkpt lat="43.5498805" lon="12.4583391"><ele>832.0</ele><time>2026-04-18T12:11:11.934Z</time></trkpt><trkpt lat="43.549942" lon="12.4582671"><ele>832.0</ele><time>2026-04-18T12:11:14.935Z</time></trkpt><trkpt lat="43.5499835" lon="12.4582004"><ele>831.9999999999999</ele><time>2026-04-18T12:11:17.934Z</time></trkpt><trkpt lat="43.5500319" lon="12.4581447"><ele>832.0</ele><time>2026-04-18T12:11:19.936Z</time></trkpt><trkpt lat="43.5500909" lon="12.4580836"><ele>832.0</ele><time>2026-04-18T12:11:21.935Z</time></trkpt><trkpt lat="43.5501925" lon="12.4580056"><ele>832.0</ele><time>2026-04-18T12:11:23.935Z</time></trkpt><trkpt lat="43.5502492" lon="12.4579646"><ele>831.9999999999999</ele><time>2026-04-18T12:11:24.936Z</time></trkpt><trkpt lat="43.5503038" lon="12.4578907"><ele>832.0</ele><time>2026-04-18T12:11:25.935Z</time></trkpt><trkpt lat="43.550397" lon="12.4577557"><ele>830.2</ele><time>2026-04-18T12:11:27.934Z</time></trkpt><trkpt lat="43.5504856" lon="12.4576527"><ele>828.4000000000001</ele><time>2026-04-18T12:11:29.935Z</time></trkpt><trkpt lat="43.5505877" lon="12.457538"><ele>826.5999999999999</ele><time>2026-04-18T12:11:31.934Z</time></trkpt><trkpt lat="43.5506477" lon="12.4574312"><ele>824.8</ele><time>2026-04-18T12:11:33.935Z</time></trkpt><trkpt lat="43.5507203" lon="12.4573626"><ele>823.0</ele><time>2026-04-18T12:11:35.935Z</time></trkpt><trkpt lat="43.5507673" lon="12.45728"><ele>822.9999999999999</ele><time>2026-04-18T12:11:37.935Z</time></trkpt><trkpt lat="43.5508393" lon="12.4572036"><ele>823.0</ele><time>2026-04-18T12:11:40.935Z</time></trkpt><trkpt lat="43.5508938" lon="12.4571531"><ele>823.0</ele><time>2026-04-18T12:11:42.935Z</time></trkpt><trkpt lat="43.5509621" lon="12.4570835"><ele>823.0</ele><time>2026-04-18T12:11:44.934Z</time></trkpt><trkpt lat="43.5510203" lon="12.4569811"><ele>822.9999999999999</ele><time>2026-04-18T12:11:46.934Z</time></trkpt><trkpt lat="43.5510887" lon="12.4568699"><ele>823.0</ele><time>2026-04-18T12:11:48.935Z</time></trkpt><trkpt lat="43.5511615" lon="12.4567702"><ele>821.3333333333333</ele><time>2026-04-18T12:11:50.934Z</time></trkpt><trkpt lat="43.5512191" lon="12.4567054"><ele>819.6666666666666</ele><time>2026-04-18T12:11:52.935Z</time></trkpt><trkpt lat="43.5512655" lon="12.4566231"><ele>818.0</ele><time>2026-04-18T12:11:56.936Z</time></trkpt><trkpt lat="43.5513236" lon="12.4565268"><ele>816.3333333333333</ele><time>2026-04-18T12:12:26.935Z</time></trkpt><trkpt lat="43.5512906" lon="12.4566102"><ele>814.6666666666666</ele><time>2026-04-18T12:13:23.935Z</time></trkpt><trkpt lat="43.5512386" lon="12.4566909"><ele>813.0</ele><time>2026-04-18T12:13:27.935Z</time></trkpt><trkpt lat="43.5511635" lon="12.4567423"><ele>813.0</ele><time>2026-04-18T12:13:30.934Z</time></trkpt><trkpt lat="43.5511342" lon="12.4566314"><ele>813.0</ele><time>2026-04-18T12:13:34.935Z</time></trkpt><trkpt lat="43.551129" lon="12.456539"><ele>813.0</ele><time>2026-04-18T12:13:38.936Z</time></trkpt><trkpt lat="43.5511513" lon="12.4564511"><ele>813.0</ele><time>2026-04-18T12:13:45.934Z</time></trkpt><trkpt lat="43.5512288" lon="12.45645"><ele>813.0</ele><time>2026-04-18T12:13:50.935Z</time></trkpt><trkpt lat="43.5513021" lon="12.4563819"><ele>813.0</ele><time>2026-04-18T12:13:56.935Z</time></trkpt><trkpt lat="43.5513497" lon="12.4563103"><ele>812.5714285714286</ele><time>2026-04-18T12:13:59.935Z</time></trkpt><trkpt lat="43.5514015" lon="12.4562262"><ele>812.1428571428571</ele><time>2026-04-18T12:14:02.935Z</time></trkpt><trkpt lat="43.5514594" lon="12.4561855"><ele>811.7142857142857</ele><time>2026-04-18T12:14:05.934Z</time></trkpt><trkpt lat="43.5515139" lon="12.4562291"><ele>811.2857142857142</ele><time>2026-04-18T12:14:08.936Z</time></trkpt><trkpt lat="43.5515738" lon="12.4562924"><ele>810.8571428571429</ele><time>2026-04-18T12:14:12.936Z</time></trkpt><trkpt lat="43.5516416" lon="12.4562813"><ele>810.4285714285713</ele><time>2026-04-18T12:14:16.935Z</time></trkpt><trkpt lat="43.5517118" lon="12.456212"><ele>810.0</ele><time>2026-04-18T12:14:20.935Z</time></trkpt><trkpt lat="43.5517739" lon="12.4561599"><ele>808.6666666666666</ele><time>2026-04-18T12:14:22.935Z</time></trkpt><trkpt lat="43.5518387" lon="12.4561004"><ele>807.3333333333333</ele><time>2026-04-18T12:15:00.935Z</time></trkpt><trkpt lat="43.551904" lon="12.4560556"><ele>806.0</ele><time>2026-04-18T12:15:02.936Z</time></trkpt><trkpt lat="43.5519565" lon="12.456005"><ele>804.6666666666666</ele><time>2026-04-18T12:15:04.936Z</time></trkpt><trkpt lat="43.5520293" lon="12.4559521"><ele>803.3333333333333</ele><time>2026-04-18T12:15:07.934Z</time></trkpt><trkpt lat="43.5521072" lon="12.455915"><ele>802.0</ele><time>2026-04-18T12:15:09.934Z</time></trkpt><trkpt lat="43.5521739" lon="12.4558739"><ele>801.8333333333333</ele><time>2026-04-18T12:15:10.934Z</time></trkpt><trkpt lat="43.5522887" lon="12.4558199"><ele>801.6666666666666</ele><time>2026-04-18T12:15:12.935Z</time></trkpt><trkpt lat="43.5523619" lon="12.4557893"><ele>801.5</ele><time>2026-04-18T12:15:13.935Z</time></trkpt><trkpt lat="43.5524355" lon="12.4557981"><ele>801.3333333333333</ele><time>2026-04-18T12:15:14.935Z</time></trkpt><trkpt lat="43.5525032" lon="12.455791"><ele>801.1666666666666</ele><time>2026-04-18T12:15:15.935Z</time></trkpt><trkpt lat="43.5525796" lon="12.4557657"><ele>801.0</ele><time>2026-04-18T12:15:16.934Z</time></trkpt><trkpt lat="43.5526544" lon="12.4557326"><ele>801.0</ele><time>2026-04-18T12:15:17.935Z</time></trkpt><trkpt lat="43.5527755" lon="12.4556473"><ele>801.0</ele><time>2026-04-18T12:15:19.936Z</time></trkpt><trkpt lat="43.5528731" lon="12.4555882"><ele>801.0</ele><time>2026-04-18T12:15:21.934Z</time></trkpt><trkpt lat="43.5529912" lon="12.4554839"><ele>801.0</ele><time>2026-04-18T12:15:23.935Z</time></trkpt><trkpt lat="43.5530423" lon="12.4554302"><ele>801.0</ele><time>2026-04-18T12:15:24.936Z</time></trkpt><trkpt lat="43.5531289" lon="12.4553162"><ele>802.1999999999999</ele><time>2026-04-18T12:15:26.934Z</time></trkpt><trkpt lat="43.5531988" lon="12.4552311"><ele>803.4</ele><time>2026-04-18T12:15:28.935Z</time></trkpt><trkpt lat="43.5532369" lon="12.455141"><ele>804.6</ele><time>2026-04-18T12:15:29.936Z</time></trkpt><trkpt lat="43.5533146" lon="12.455078"><ele>805.8</ele><time>2026-04-18T12:15:31.935Z</time></trkpt><trkpt lat="43.5533921" lon="12.4550009"><ele>807.0</ele><time>2026-04-18T12:15:33.935Z</time></trkpt><trkpt lat="43.5534821" lon="12.4548979"><ele>807.0</ele><time>2026-04-18T12:15:35.936Z</time></trkpt><trkpt lat="43.5535589" lon="12.4547978"><ele>807.0</ele><time>2026-04-18T12:15:38.935Z</time></trkpt><trkpt lat="43.5536358" lon="12.4547182"><ele>807.0</ele><time>2026-04-18T12:15:40.935Z</time></trkpt><trkpt lat="43.5537512" lon="12.4545807"><ele>807.0</ele><time>2026-04-18T12:15:42.934Z</time></trkpt><trkpt lat="43.5538244" lon="12.4545168"><ele>807.0</ele><time>2026-04-18T12:15:45.936Z</time></trkpt><trkpt lat="43.5538749" lon="12.4544458"><ele>807.3333333333334</ele><time>2026-04-18T12:15:48.935Z</time></trkpt><trkpt lat="43.5539181" lon="12.4543506"><ele>807.6666666666667</ele><time>2026-04-18T12:15:51.935Z</time></trkpt><trkpt lat="43.553981" lon="12.454307"><ele>808.0</ele><time>2026-04-18T12:15:54.935Z</time></trkpt><trkpt lat="43.5540442" lon="12.4542894"><ele>808.3333333333334</ele><time>2026-04-18T12:16:07.934Z</time></trkpt><trkpt lat="43.5541062" lon="12.4542666"><ele>808.6666666666667</ele><time>2026-04-18T12:16:46.936Z</time></trkpt><trkpt lat="43.5541686" lon="12.4541892"><ele>809.0</ele><time>2026-04-18T12:16:50.936Z</time></trkpt><trkpt lat="43.5542545" lon="12.4541129"><ele>809.0000000000001</ele><time>2026-04-18T12:16:53.934Z</time></trkpt><trkpt lat="43.5543094" lon="12.4540652"><ele>809.0</ele><time>2026-04-18T12:16:55.934Z</time></trkpt><trkpt lat="43.5544001" lon="12.4539915"><ele>809.0</ele><time>2026-04-18T12:16:58.935Z</time></trkpt><trkpt lat="43.5544665" lon="12.4539265"><ele>809.0</ele><time>2026-04-18T12:17:00.934Z</time></trkpt><trkpt lat="43.5545395" lon="12.4538791"><ele>809.0000000000001</ele><time>2026-04-18T12:17:02.934Z</time></trkpt><trkpt lat="43.5546135" lon="12.4538108"><ele>809.0</ele><time>2026-04-18T12:17:05.936Z</time></trkpt><trkpt lat="43.5546718" lon="12.4537534"><ele>811.0000000000001</ele><time>2026-04-18T12:17:09.935Z</time></trkpt><trkpt lat="43.5547329" lon="12.4536818"><ele>813.0</ele><time>2026-04-18T12:17:13.935Z</time></trkpt><trkpt lat="43.5547972" lon="12.4536147"><ele>815.0</ele><time>2026-04-18T12:17:17.935Z</time></trkpt><trkpt lat="43.5548454" lon="12.4535516"><ele>817.0</ele><time>2026-04-18T12:17:20.935Z</time></trkpt><trkpt lat="43.5549019" lon="12.4534946"><ele>819.0000000000001</ele><time>2026-04-18T12:17:23.936Z</time></trkpt><trkpt lat="43.5549734" lon="12.4535185"><ele>821.0</ele><time>2026-04-18T12:17:26.934Z</time></trkpt><trkpt lat="43.5550525" lon="12.4535103"><ele>821.0</ele><time>2026-04-18T12:17:29.936Z</time></trkpt><trkpt lat="43.5551773" lon="12.4533937"><ele>821.0</ele><time>2026-04-18T12:17:31.936Z</time></trkpt><trkpt lat="43.5552693" lon="12.4532957"><ele>821.0</ele><time>2026-04-18T12:17:33.935Z</time></trkpt><trkpt lat="43.5553287" lon="12.4531859"><ele>821.0</ele><time>2026-04-18T12:17:34.934Z</time></trkpt><trkpt lat="43.5553736" lon="12.4531202"><ele>821.0</ele><time>2026-04-18T12:17:35.935Z</time></trkpt><trkpt lat="43.5554319" lon="12.4530524"><ele>820.5999999999999</ele><time>2026-04-18T12:17:36.935Z</time></trkpt><trkpt lat="43.5554936" lon="12.4529883"><ele>820.2</ele><time>2026-04-18T12:17:37.934Z</time></trkpt><trkpt lat="43.5556114" lon="12.4529179"><ele>819.8</ele><time>2026-04-18T12:17:39.934Z</time></trkpt><trkpt lat="43.555722" lon="12.4528458"><ele>819.4000000000001</ele><time>2026-04-18T12:17:41.936Z</time></trkpt><trkpt lat="43.5558287" lon="12.4528187"><ele>819.0</ele><time>2026-04-18T12:17:43.936Z</time></trkpt><trkpt lat="43.5559382" lon="12.4527714"><ele>820.6</ele><time>2026-04-18T12:17:45.936Z</time></trkpt><trkpt lat="43.5559921" lon="12.4526393"><ele>822.2</ele><time>2026-04-18T12:17:48.935Z</time></trkpt><trkpt lat="43.5560527" lon="12.4525409"><ele>823.8000000000001</ele><time>2026-04-18T12:17:50.935Z</time></trkpt><trkpt lat="43.5560941" lon="12.4524686"><ele>825.4000000000001</ele><time>2026-04-18T12:17:52.934Z</time></trkpt><trkpt lat="43.5561195" lon="12.4523639"><ele>827.0</ele><time>2026-04-18T12:17:54.934Z</time></trkpt><trkpt lat="43.5561626" lon="12.4522344"><ele>826.6666666666667</ele><time>2026-04-18T12:17:56.934Z</time></trkpt><trkpt lat="43.556227" lon="12.4521376"><ele>826.3333333333334</ele><time>2026-04-18T12:17:58.934Z</time></trkpt><trkpt lat="43.5562824" lon="12.4520794"><ele>826.0</ele><time>2026-04-18T12:18:00.934Z</time></trkpt><trkpt lat="43.556336" lon="12.4520167"><ele>825.6666666666667</ele><time>2026-04-18T12:18:02.935Z</time></trkpt><trkpt lat="43.5563832" lon="12.4519308"><ele>825.3333333333334</ele><time>2026-04-18T12:18:04.935Z</time></trkpt><trkpt lat="43.5564347" lon="12.4518391"><ele>825.0</ele><time>2026-04-18T12:18:06.935Z</time></trkpt><trkpt lat="43.5564733" lon="12.4517497"><ele>825.0</ele><time>2026-04-18T12:18:08.936Z</time></trkpt><trkpt lat="43.5565044" lon="12.4516738"><ele>825.0</ele><time>2026-04-18T12:18:10.934Z</time></trkpt><trkpt lat="43.556558" lon="12.4516081"><ele>825.0</ele><time>2026-04-18T12:18:12.935Z</time></trkpt><trkpt lat="43.5566224" lon="12.4515277"><ele>825.0</ele><time>2026-04-18T12:18:14.935Z</time></trkpt><trkpt lat="43.5567077" lon="12.4514357"><ele>825.0</ele><time>2026-04-18T12:18:16.935Z</time></trkpt><trkpt lat="43.5568428" lon="12.4513158"><ele>824.2</ele><time>2026-04-18T12:18:17.934Z</time></trkpt><trkpt lat="43.556924" lon="12.4512187"><ele>823.4</ele><time>2026-04-18T12:18:18.936Z</time></trkpt><trkpt lat="43.5570291" lon="12.4511318"><ele>822.5999999999999</ele><time>2026-04-18T12:18:19.936Z</time></trkpt><trkpt lat="43.5571168" lon="12.4510861"><ele>821.8</ele><time>2026-04-18T12:18:20.934Z</time></trkpt><trkpt lat="43.5572123" lon="12.4510343"><ele>821.0</ele><time>2026-04-18T12:18:21.936Z</time></trkpt><trkpt lat="43.5572811" lon="12.4509791"><ele>821.0000000000001</ele><time>2026-04-18T12:18:22.935Z</time></trkpt><trkpt lat="43.5573433" lon="12.450928"><ele>821.0</ele><time>2026-04-18T12:18:23.934Z</time></trkpt><trkpt lat="43.5574152" lon="12.4508465"><ele>821.0</ele><time>2026-04-18T12:18:25.936Z</time></trkpt><trkpt lat="43.5574892" lon="12.4508025"><ele>821.0</ele><time>2026-04-18T12:18:28.936Z</time></trkpt><trkpt lat="43.557545" lon="12.4507472"><ele>821.0000000000001</ele><time>2026-04-18T12:18:32.934Z</time></trkpt><trkpt lat="43.5576002" lon="12.4506524"><ele>821.0</ele><time>2026-04-18T12:18:35.936Z</time></trkpt><trkpt lat="43.5576401" lon="12.4505455"><ele>821.1666666666667</ele><time>2026-04-18T12:18:37.935Z</time></trkpt><trkpt lat="43.5576909" lon="12.4504383"><ele>821.3333333333334</ele><time>2026-04-18T12:18:39.935Z</time></trkpt><trkpt lat="43.5577636" lon="12.4503526"><ele>821.5</ele><time>2026-04-18T12:18:41.936Z</time></trkpt><trkpt lat="43.5578407" lon="12.4503174"><ele>821.6666666666667</ele><time>2026-04-18T12:18:43.936Z</time></trkpt><trkpt lat="43.55792" lon="12.4502693"><ele>821.8333333333334</ele><time>2026-04-18T12:18:45.935Z</time></trkpt><trkpt lat="43.5579873" lon="12.4501927"><ele>822.0</ele><time>2026-04-18T12:18:49.935Z</time></trkpt><trkpt lat="43.5580154" lon="12.4501145"><ele>823.0</ele><time>2026-04-18T12:18:52.935Z</time></trkpt><trkpt lat="43.5580364" lon="12.4500281"><ele>824.0</ele><time>2026-04-18T12:18:54.935Z</time></trkpt><trkpt lat="43.5580575" lon="12.4499081"><ele>825.0</ele><time>2026-04-18T12:18:57.935Z</time></trkpt><trkpt lat="43.558053" lon="12.449799"><ele>826.0</ele><time>2026-04-18T12:19:00.934Z</time></trkpt><trkpt lat="43.5580738" lon="12.449683"><ele>827.0</ele><time>2026-04-18T12:19:03.936Z</time></trkpt><trkpt lat="43.5581335" lon="12.4495915"><ele>828.0</ele><time>2026-04-18T12:19:06.936Z</time></trkpt><trkpt lat="43.5582025" lon="12.4495157"><ele>828.0</ele><time>2026-04-18T12:19:08.934Z</time></trkpt><trkpt lat="43.558284" lon="12.4494599"><ele>828.0</ele><time>2026-04-18T12:19:10.935Z</time></trkpt><trkpt lat="43.5583482" lon="12.4494301"><ele>828.0</ele><time>2026-04-18T12:19:12.935Z</time></trkpt><trkpt lat="43.5584145" lon="12.449398"><ele>828.0</ele><time>2026-04-18T12:19:14.936Z</time></trkpt><trkpt lat="43.558478" lon="12.4493485"><ele>828.0</ele><time>2026-04-18T12:19:16.934Z</time></trkpt><trkpt lat="43.5585387" lon="12.4493019"><ele>828.0</ele><time>2026-04-18T12:19:18.935Z</time></trkpt><trkpt lat="43.5586449" lon="12.4492753"><ele>828.0</ele><time>2026-04-18T12:19:22.936Z</time></trkpt><trkpt lat="43.5587429" lon="12.4492113"><ele>828.0</ele><time>2026-04-18T12:19:24.935Z</time></trkpt><trkpt lat="43.5588524" lon="12.4491432"><ele>828.0</ele><time>2026-04-18T12:19:26.934Z</time></trkpt><trkpt lat="43.558935" lon="12.4490809"><ele>828.0</ele><time>2026-04-18T12:19:28.936Z</time></trkpt><trkpt lat="43.5590046" lon="12.449019"><ele>828.0</ele><time>2026-04-18T12:19:31.936Z</time></trkpt><trkpt lat="43.5590621" lon="12.4489472"><ele>828.0</ele><time>2026-04-18T12:19:33.934Z</time></trkpt><trkpt lat="43.559143" lon="12.4488708"><ele>828.0</ele><time>2026-04-18T12:19:35.935Z</time></trkpt><trkpt lat="43.5592256" lon="12.4488078"><ele>828.0</ele><time>2026-04-18T12:19:37.935Z</time></trkpt><trkpt lat="43.5592879" lon="12.4487722"><ele>828.0</ele><time>2026-04-18T12:19:39.935Z</time></trkpt><trkpt lat="43.5593658" lon="12.4487267"><ele>828.0</ele><time>2026-04-18T12:19:42.935Z</time></trkpt><trkpt lat="43.5594249" lon="12.4486532"><ele>828.0</ele><time>2026-04-18T12:19:45.936Z</time></trkpt><trkpt lat="43.5594924" lon="12.4485809"><ele>824.5999999999999</ele><time>2026-04-18T12:19:47.936Z</time></trkpt><trkpt lat="43.5595681" lon="12.4484994"><ele>821.1999999999999</ele><time>2026-04-18T12:19:49.935Z</time></trkpt><trkpt lat="43.5596394" lon="12.4484073"><ele>817.8</ele><time>2026-04-18T12:19:51.936Z</time></trkpt><trkpt lat="43.5597292" lon="12.4482934"><ele>814.4</ele><time>2026-04-18T12:19:53.935Z</time></trkpt><trkpt lat="43.5597756" lon="12.4482312"><ele>811.0</ele><time>2026-04-18T12:19:54.936Z</time></trkpt><trkpt lat="43.5598431" lon="12.4481022"><ele>808.9999999999999</ele><time>2026-04-18T12:19:56.935Z</time></trkpt><trkpt lat="43.5598713" lon="12.4479525"><ele>807.0</ele><time>2026-04-18T12:19:58.935Z</time></trkpt><trkpt lat="43.5598885" lon="12.4478514"><ele>805.0</ele><time>2026-04-18T12:20:00.935Z</time></trkpt><trkpt lat="43.559897" lon="12.4477433"><ele>803.0</ele><time>2026-04-18T12:20:03.936Z</time></trkpt><trkpt lat="43.5599138" lon="12.4476487"><ele>800.9999999999999</ele><time>2026-04-18T12:20:06.935Z</time></trkpt><trkpt lat="43.5599238" lon="12.4475602"><ele>799.0</ele><time>2026-04-18T12:20:09.934Z</time></trkpt><trkpt lat="43.5599557" lon="12.44743"><ele>799.0</ele><time>2026-04-18T12:20:12.935Z</time></trkpt><trkpt lat="43.5599948" lon="12.4473018"><ele>799.0</ele><time>2026-04-18T12:20:14.936Z</time></trkpt><trkpt lat="43.5600709" lon="12.4470819"><ele>799.0</ele><time>2026-04-18T12:20:15.934Z</time></trkpt><trkpt lat="43.5600307" lon="12.4469837"><ele>799.0</ele><time>2026-04-18T12:20:18.935Z</time></trkpt><trkpt lat="43.5600043" lon="12.4468997"><ele>799.0</ele><time>2026-04-18T12:20:20.934Z</time></trkpt><trkpt lat="43.5599557" lon="12.4468357"><ele>796.7142857142858</ele><time>2026-04-18T12:20:22.934Z</time></trkpt><trkpt lat="43.5599012" lon="12.4467538"><ele>794.4285714285713</ele><time>2026-04-18T12:20:24.936Z</time></trkpt><trkpt lat="43.5598441" lon="12.4466416"><ele>792.1428571428571</ele><time>2026-04-18T12:20:26.936Z</time></trkpt><trkpt lat="43.5598092" lon="12.4465527"><ele>789.8571428571429</ele><time>2026-04-18T12:20:28.935Z</time></trkpt><trkpt lat="43.5597811" lon="12.4464746"><ele>787.5714285714287</ele><time>2026-04-18T12:20:38.934Z</time></trkpt><trkpt lat="43.559756" lon="12.4463903"><ele>785.2857142857142</ele><time>2026-04-18T12:21:18.935Z</time></trkpt><trkpt lat="43.5597475" lon="12.4463022"><ele>783.0</ele><time>2026-04-18T12:21:46.935Z</time></trkpt><trkpt lat="43.5596978" lon="12.446212"><ele>782.0</ele><time>2026-04-18T12:22:30.935Z</time></trkpt><trkpt lat="43.5596229" lon="12.4462284"><ele>781.0</ele><time>2026-04-18T12:22:33.936Z</time></trkpt><trkpt lat="43.559522" lon="12.4463107"><ele>780.0</ele><time>2026-04-18T12:22:35.935Z</time></trkpt><trkpt lat="43.55942" lon="12.446329"><ele>779.0</ele><time>2026-04-18T12:22:36.935Z</time></trkpt><trkpt lat="43.5593053" lon="12.4463656"><ele>778.0</ele><time>2026-04-18T12:22:37.935Z</time></trkpt><trkpt lat="43.559229" lon="12.4464008"><ele>778.0</ele><time>2026-04-18T12:22:38.935Z</time></trkpt><trkpt lat="43.5591477" lon="12.4464397"><ele>778.0</ele><time>2026-04-18T12:22:39.936Z</time></trkpt><trkpt lat="43.5590374" lon="12.4464682"><ele>778.0</ele><time>2026-04-18T12:22:40.936Z</time></trkpt><trkpt lat="43.558954" lon="12.4465031"><ele>778.0</ele><time>2026-04-18T12:22:41.936Z</time></trkpt><trkpt lat="43.5588538" lon="12.4465152"><ele>778.0</ele><time>2026-04-18T12:22:42.935Z</time></trkpt><trkpt lat="43.5587694" lon="12.4465491"><ele>775.6666666666666</ele><time>2026-04-18T12:22:43.936Z</time></trkpt><trkpt lat="43.5586913" lon="12.4465909"><ele>773.3333333333333</ele><time>2026-04-18T12:22:44.936Z</time></trkpt><trkpt lat="43.5586148" lon="12.4466309"><ele>771.0</ele><time>2026-04-18T12:22:45.936Z</time></trkpt><trkpt lat="43.5585215" lon="12.4466575"><ele>768.6666666666666</ele><time>2026-04-18T12:22:46.936Z</time></trkpt><trkpt lat="43.5584498" lon="12.4466953"><ele>766.3333333333333</ele><time>2026-04-18T12:22:47.935Z</time></trkpt><trkpt lat="43.5583779" lon="12.4467584"><ele>764.0</ele><time>2026-04-18T12:22:48.936Z</time></trkpt><trkpt lat="43.5583021" lon="12.4468168"><ele>764.0</ele><time>2026-04-18T12:22:49.935Z</time></trkpt><trkpt lat="43.5582269" lon="12.4468667"><ele>764.0</ele><time>2026-04-18T12:22:50.935Z</time></trkpt><trkpt lat="43.5581629" lon="12.4469274"><ele>764.0</ele><time>2026-04-18T12:22:51.935Z</time></trkpt><trkpt lat="43.5580892" lon="12.4469658"><ele>764.0</ele><time>2026-04-18T12:22:52.935Z</time></trkpt><trkpt lat="43.55802" lon="12.4470005"><ele>764.0</ele><time>2026-04-18T12:22:53.935Z</time></trkpt><trkpt lat="43.5578879" lon="12.4469755"><ele>764.0</ele><time>2026-04-18T12:22:55.935Z</time></trkpt><trkpt lat="43.5578029" lon="12.446955"><ele>763.4000000000001</ele><time>2026-04-18T12:22:56.935Z</time></trkpt><trkpt lat="43.557695" lon="12.4468902"><ele>762.8</ele><time>2026-04-18T12:22:58.935Z</time></trkpt><trkpt lat="43.5576088" lon="12.446828"><ele>762.2</ele><time>2026-04-18T12:23:00.934Z</time></trkpt><trkpt lat="43.5575298" lon="12.4467779"><ele>761.5999999999999</ele><time>2026-04-18T12:23:02.935Z</time></trkpt><trkpt lat="43.5574292" lon="12.4467151"><ele>761.0</ele><time>2026-04-18T12:23:04.936Z</time></trkpt><trkpt lat="43.5573409" lon="12.4466021"><ele>761.0</ele><time>2026-04-18T12:23:06.935Z</time></trkpt><trkpt lat="43.5572918" lon="12.4464728"><ele>761.0</ele><time>2026-04-18T12:23:08.934Z</time></trkpt><trkpt lat="43.5572404" lon="12.4463522"><ele>761.0</ele><time>2026-04-18T12:23:09.935Z</time></trkpt><trkpt lat="43.5571943" lon="12.4462673"><ele>761.0</ele><time>2026-04-18T12:23:10.935Z</time></trkpt><trkpt lat="43.557151" lon="12.4461889"><ele>761.0</ele><time>2026-04-18T12:23:11.935Z</time></trkpt><trkpt lat="43.5570383" lon="12.4462158"><ele>760.1428571428571</ele><time>2026-04-18T12:23:13.934Z</time></trkpt><trkpt lat="43.5569822" lon="12.4462585"><ele>759.2857142857142</ele><time>2026-04-18T12:23:14.935Z</time></trkpt><trkpt lat="43.5569416" lon="12.4463261"><ele>758.4285714285713</ele><time>2026-04-18T12:23:15.935Z</time></trkpt><trkpt lat="43.5569029" lon="12.4463961"><ele>757.5714285714286</ele><time>2026-04-18T12:23:16.934Z</time></trkpt><trkpt lat="43.5568538" lon="12.4464657"><ele>756.7142857142858</ele><time>2026-04-18T12:23:17.935Z</time></trkpt><trkpt lat="43.5568057" lon="12.4465352"><ele>755.8571428571428</ele><time>2026-04-18T12:23:18.936Z</time></trkpt><trkpt lat="43.556759" lon="12.4466064"><ele>755.0</ele><time>2026-04-18T12:23:19.936Z</time></trkpt><trkpt lat="43.5567121" lon="12.4466785"><ele>755.0</ele><time>2026-04-18T12:23:20.936Z</time></trkpt><trkpt lat="43.5566608" lon="12.4467551"><ele>755.0</ele><time>2026-04-18T12:23:21.934Z</time></trkpt><trkpt lat="43.5566112" lon="12.446836"><ele>755.0</ele><time>2026-04-18T12:23:22.935Z</time></trkpt><trkpt lat="43.5565645" lon="12.4469202"><ele>755.0</ele><time>2026-04-18T12:23:23.935Z</time></trkpt><trkpt lat="43.5565145" lon="12.4470047"><ele>755.0</ele><time>2026-04-18T12:23:24.936Z</time></trkpt><trkpt lat="43.5564755" lon="12.4471039"><ele>755.0</ele><time>2026-04-18T12:23:25.934Z</time></trkpt><trkpt lat="43.5564467" lon="12.4472062"><ele>756.1666666666666</ele><time>2026-04-18T12:23:26.936Z</time></trkpt><trkpt lat="43.5564232" lon="12.4473138"><ele>757.3333333333333</ele><time>2026-04-18T12:23:27.934Z</time></trkpt><trkpt lat="43.5564059" lon="12.4474212"><ele>758.5</ele><time>2026-04-18T12:23:28.936Z</time></trkpt><trkpt lat="43.5563828" lon="12.4475304"><ele>759.6666666666666</ele><time>2026-04-18T12:23:29.935Z</time></trkpt><trkpt lat="43.5563512" lon="12.4476379"><ele>760.8333333333334</ele><time>2026-04-18T12:23:30.935Z</time></trkpt><trkpt lat="43.556302" lon="12.4477366"><ele>762.0</ele><time>2026-04-18T12:23:31.934Z</time></trkpt><trkpt lat="43.5562489" lon="12.4478394"><ele>762.0</ele><time>2026-04-18T12:23:32.933Z</time></trkpt><trkpt lat="43.5561823" lon="12.4479217"><ele>762.0</ele><time>2026-04-18T12:23:33.933Z</time></trkpt><trkpt lat="43.5560334" lon="12.448027"><ele>762.0</ele><time>2026-04-18T12:23:35.934Z</time></trkpt><trkpt lat="43.5559548" lon="12.4480426"><ele>762.0</ele><time>2026-04-18T12:23:36.933Z</time></trkpt><trkpt lat="43.5558696" lon="12.4480266"><ele>762.0</ele><time>2026-04-18T12:23:37.934Z</time></trkpt><trkpt lat="43.5557862" lon="12.448009"><ele>762.0</ele><time>2026-04-18T12:23:38.935Z</time></trkpt><trkpt lat="43.5556977" lon="12.4479724"><ele>762.0</ele><time>2026-04-18T12:23:39.935Z</time></trkpt><trkpt lat="43.5556085" lon="12.447935"><ele>762.0</ele><time>2026-04-18T12:23:40.933Z</time></trkpt><trkpt lat="43.5555189" lon="12.4478878"><ele>762.0</ele><time>2026-04-18T12:23:41.934Z</time></trkpt><trkpt lat="43.5554401" lon="12.4478434"><ele>762.0</ele><time>2026-04-18T12:23:42.933Z</time></trkpt><trkpt lat="43.5553621" lon="12.4478179"><ele>762.0</ele><time>2026-04-18T12:23:43.933Z</time></trkpt><trkpt lat="43.5552696" lon="12.4478059"><ele>758.5</ele><time>2026-04-18T12:23:44.935Z</time></trkpt><trkpt lat="43.5551885" lon="12.4478317"><ele>755.0</ele><time>2026-04-18T12:23:45.934Z</time></trkpt><trkpt lat="43.5550994" lon="12.4478654"><ele>751.5</ele><time>2026-04-18T12:23:46.934Z</time></trkpt><trkpt lat="43.5550152" lon="12.4479041"><ele>748.0</ele><time>2026-04-18T12:23:47.934Z</time></trkpt><trkpt lat="43.5549296" lon="12.4479372"><ele>744.5</ele><time>2026-04-18T12:23:48.933Z</time></trkpt><trkpt lat="43.5548481" lon="12.4479307"><ele>741.0</ele><time>2026-04-18T12:23:49.934Z</time></trkpt><trkpt lat="43.5547667" lon="12.4479193"><ele>741.0</ele><time>2026-04-18T12:23:50.934Z</time></trkpt><trkpt lat="43.5546879" lon="12.4478833"><ele>741.0</ele><time>2026-04-18T12:23:51.934Z</time></trkpt><trkpt lat="43.5546234" lon="12.4478476"><ele>741.0</ele><time>2026-04-18T12:23:52.935Z</time></trkpt><trkpt lat="43.5545007" lon="12.4478316"><ele>741.0</ele><time>2026-04-18T12:23:54.934Z</time></trkpt><trkpt lat="43.5544045" lon="12.4479254"><ele>741.0</ele><time>2026-04-18T12:23:56.934Z</time></trkpt><trkpt lat="43.5543612" lon="12.4479918"><ele>741.5</ele><time>2026-04-18T12:23:57.934Z</time></trkpt><trkpt lat="43.5543034" lon="12.4480671"><ele>742.0</ele><time>2026-04-18T12:23:58.934Z</time></trkpt><trkpt lat="43.5542565" lon="12.4481499"><ele>742.5</ele><time>2026-04-18T12:23:59.934Z</time></trkpt><trkpt lat="43.5542125" lon="12.4482368"><ele>743.0</ele><time>2026-04-18T12:24:00.934Z</time></trkpt><trkpt lat="43.5541567" lon="12.4483204"><ele>743.5</ele><time>2026-04-18T12:24:01.934Z</time></trkpt><trkpt lat="43.5540959" lon="12.4483972"><ele>744.0</ele><time>2026-04-18T12:24:02.933Z</time></trkpt><trkpt lat="43.5540355" lon="12.4484621"><ele>744.0000000000001</ele><time>2026-04-18T12:24:03.935Z</time></trkpt><trkpt lat="43.5539614" lon="12.4484919"><ele>744.0</ele><time>2026-04-18T12:24:04.934Z</time></trkpt><trkpt lat="43.5538939" lon="12.4484944"><ele>744.0</ele><time>2026-04-18T12:24:05.933Z</time></trkpt><trkpt lat="43.5538253" lon="12.4484944"><ele>744.0</ele><time>2026-04-18T12:24:06.933Z</time></trkpt><trkpt lat="43.5537543" lon="12.4484847"><ele>744.0</ele><time>2026-04-18T12:24:07.935Z</time></trkpt><trkpt lat="43.5536871" lon="12.4484754"><ele>744.0000000000001</ele><time>2026-04-18T12:24:08.934Z</time></trkpt><trkpt lat="43.5536276" lon="12.4484452"><ele>744.0</ele><time>2026-04-18T12:24:09.934Z</time></trkpt><trkpt lat="43.5535395" lon="12.4483442"><ele>740.0</ele><time>2026-04-18T12:24:11.935Z</time></trkpt><trkpt lat="43.5534636" lon="12.448223"><ele>736.0</ele><time>2026-04-18T12:24:13.935Z</time></trkpt><trkpt lat="43.5533773" lon="12.4481141"><ele>732.0</ele><time>2026-04-18T12:24:15.934Z</time></trkpt><trkpt lat="43.553284" lon="12.448016"><ele>728.0</ele><time>2026-04-18T12:24:17.934Z</time></trkpt><trkpt lat="43.553187" lon="12.4479319"><ele>726.5</ele><time>2026-04-18T12:24:19.933Z</time></trkpt><trkpt lat="43.5530842" lon="12.4478652"><ele>725.0</ele><time>2026-04-18T12:24:21.935Z</time></trkpt><trkpt lat="43.5530028" lon="12.4478046"><ele>723.5</ele><time>2026-04-18T12:24:23.933Z</time></trkpt><trkpt lat="43.5529343" lon="12.4477702"><ele>722.0</ele><time>2026-04-18T12:24:25.935Z</time></trkpt><trkpt lat="43.5528657" lon="12.4477547"><ele>720.5</ele><time>2026-04-18T12:24:27.933Z</time></trkpt><trkpt lat="43.5527729" lon="12.4477825"><ele>719.0</ele><time>2026-04-18T12:24:30.933Z</time></trkpt><trkpt lat="43.5526916" lon="12.4478189"><ele>717.8333333333333</ele><time>2026-04-18T12:24:33.934Z</time></trkpt><trkpt lat="43.5526318" lon="12.4477896"><ele>716.6666666666666</ele><time>2026-04-18T12:24:36.933Z</time></trkpt><trkpt lat="43.552545" lon="12.447709"><ele>715.5</ele><time>2026-04-18T12:24:38.934Z</time></trkpt><trkpt lat="43.5524694" lon="12.4476208"><ele>714.3333333333334</ele><time>2026-04-18T12:24:40.934Z</time></trkpt><trkpt lat="43.5524057" lon="12.447525"><ele>713.1666666666667</ele><time>2026-04-18T12:24:42.935Z</time></trkpt><trkpt lat="43.5523587" lon="12.4474241"><ele>712.0</ele><time>2026-04-18T12:24:44.933Z</time></trkpt><trkpt lat="43.5523252" lon="12.4473016"><ele>712.0</ele><time>2026-04-18T12:24:47.935Z</time></trkpt><trkpt lat="43.5523196" lon="12.4472048"><ele>712.0</ele><time>2026-04-18T12:24:50.934Z</time></trkpt><trkpt lat="43.5523248" lon="12.4470937"><ele>712.0</ele><time>2026-04-18T12:24:54.934Z</time></trkpt><trkpt lat="43.5522798" lon="12.4470077"><ele>712.0</ele><time>2026-04-18T12:25:12.934Z</time></trkpt><trkpt lat="43.5521923" lon="12.4469713"><ele>712.0</ele><time>2026-04-18T12:25:15.934Z</time></trkpt><trkpt lat="43.5521013" lon="12.4469449"><ele>712.0</ele><time>2026-04-18T12:25:17.933Z</time></trkpt><trkpt lat="43.5520133" lon="12.4468686"><ele>711.5</ele><time>2026-04-18T12:25:19.935Z</time></trkpt><trkpt lat="43.5519303" lon="12.4467595"><ele>711.0</ele><time>2026-04-18T12:25:21.934Z</time></trkpt><trkpt lat="43.5518861" lon="12.446692"><ele>710.5</ele><time>2026-04-18T12:25:22.933Z</time></trkpt><trkpt lat="43.5518401" lon="12.44663"><ele>710.0</ele><time>2026-04-18T12:25:23.935Z</time></trkpt><trkpt lat="43.551787" lon="12.4465668"><ele>709.5</ele><time>2026-04-18T12:25:24.933Z</time></trkpt><trkpt lat="43.5517337" lon="12.4465136"><ele>709.0</ele><time>2026-04-18T12:25:25.935Z</time></trkpt><trkpt lat="43.551637" lon="12.446457"><ele>709.0</ele><time>2026-04-18T12:25:26.933Z</time></trkpt><trkpt lat="43.5515598" lon="12.4464126"><ele>709.0</ele><time>2026-04-18T12:25:27.934Z</time></trkpt><trkpt lat="43.5514907" lon="12.4463907"><ele>709.0</ele><time>2026-04-18T12:25:28.934Z</time></trkpt><trkpt lat="43.5514177" lon="12.4463523"><ele>709.0</ele><time>2026-04-18T12:25:29.934Z</time></trkpt><trkpt lat="43.5513334" lon="12.4463232"><ele>709.0</ele><time>2026-04-18T12:25:30.934Z</time></trkpt><trkpt lat="43.5512647" lon="12.446249"><ele>709.0</ele><time>2026-04-18T12:25:31.934Z</time></trkpt><trkpt lat="43.5512314" lon="12.4461664"><ele>711.8333333333334</ele><time>2026-04-18T12:25:32.933Z</time></trkpt><trkpt lat="43.5511814" lon="12.4460905"><ele>714.6666666666667</ele><time>2026-04-18T12:25:33.934Z</time></trkpt><trkpt lat="43.5511359" lon="12.446015"><ele>717.5</ele><time>2026-04-18T12:25:34.933Z</time></trkpt><trkpt lat="43.5510433" lon="12.4459574"><ele>720.3333333333334</ele><time>2026-04-18T12:25:35.934Z</time></trkpt><trkpt lat="43.5509631" lon="12.4458969"><ele>723.1666666666666</ele><time>2026-04-18T12:25:36.934Z</time></trkpt><trkpt lat="43.5508981" lon="12.4458635"><ele>726.0</ele><time>2026-04-18T12:25:37.933Z</time></trkpt><trkpt lat="43.5508134" lon="12.4458448"><ele>726.0</ele><time>2026-04-18T12:25:38.934Z</time></trkpt><trkpt lat="43.5507086" lon="12.4458327"><ele>726.0</ele><time>2026-04-18T12:25:39.934Z</time></trkpt><trkpt lat="43.5506147" lon="12.4458075"><ele>726.0</ele><time>2026-04-18T12:25:40.934Z</time></trkpt><trkpt lat="43.5505309" lon="12.4458008"><ele>726.0</ele><time>2026-04-18T12:25:41.934Z</time></trkpt><trkpt lat="43.5504102" lon="12.4458485"><ele>726.0</ele><time>2026-04-18T12:25:42.934Z</time></trkpt><trkpt lat="43.5503301" lon="12.4458926"><ele>724.4285714285713</ele><time>2026-04-18T12:25:43.935Z</time></trkpt><trkpt lat="43.550256" lon="12.4458898"><ele>722.8571428571429</ele><time>2026-04-18T12:25:44.935Z</time></trkpt><trkpt lat="43.5501896" lon="12.4458847"><ele>721.2857142857142</ele><time>2026-04-18T12:25:45.934Z</time></trkpt><trkpt lat="43.5501276" lon="12.4458591"><ele>719.7142857142857</ele><time>2026-04-18T12:25:46.933Z</time></trkpt><trkpt lat="43.5500636" lon="12.4457816"><ele>718.1428571428571</ele><time>2026-04-18T12:25:47.934Z</time></trkpt><trkpt lat="43.5500004" lon="12.445715"><ele>716.5714285714286</ele><time>2026-04-18T12:25:48.934Z</time></trkpt><trkpt lat="43.5499318" lon="12.445672"><ele>715.0</ele><time>2026-04-18T12:25:49.933Z</time></trkpt><trkpt lat="43.5498394" lon="12.4456566"><ele>715.0</ele><time>2026-04-18T12:25:50.934Z</time></trkpt><trkpt lat="43.5497444" lon="12.4456283"><ele>715.0</ele><time>2026-04-18T12:25:51.933Z</time></trkpt><trkpt lat="43.5496546" lon="12.4456178"><ele>715.0</ele><time>2026-04-18T12:25:52.933Z</time></trkpt><trkpt lat="43.549567" lon="12.4456309"><ele>715.0</ele><time>2026-04-18T12:25:53.934Z</time></trkpt><trkpt lat="43.5494968" lon="12.4456326"><ele>715.0</ele><time>2026-04-18T12:25:54.933Z</time></trkpt><trkpt lat="43.5494042" lon="12.4456374"><ele>715.0</ele><time>2026-04-18T12:25:56.934Z</time></trkpt><trkpt lat="43.5493301" lon="12.4456176"><ele>713.8333333333334</ele><time>2026-04-18T12:25:59.934Z</time></trkpt><trkpt lat="43.5492649" lon="12.4455888"><ele>712.6666666666667</ele><time>2026-04-18T12:26:01.935Z</time></trkpt><trkpt lat="43.549186" lon="12.4455514"><ele>711.5</ele><time>2026-04-18T12:26:03.935Z</time></trkpt><trkpt lat="43.5491094" lon="12.4455102"><ele>710.3333333333334</ele><time>2026-04-18T12:26:05.933Z</time></trkpt><trkpt lat="43.5490236" lon="12.4454531"><ele>709.1666666666666</ele><time>2026-04-18T12:26:07.933Z</time></trkpt><trkpt lat="43.5489348" lon="12.4453858"><ele>708.0</ele><time>2026-04-18T12:26:09.933Z</time></trkpt><trkpt lat="43.5488381" lon="12.4453466"><ele>708.8333333333334</ele><time>2026-04-18T12:26:11.933Z</time></trkpt><trkpt lat="43.5487279" lon="12.4453135"><ele>709.6666666666666</ele><time>2026-04-18T12:26:13.934Z</time></trkpt><trkpt lat="43.5486133" lon="12.4452677"><ele>710.5</ele><time>2026-04-18T12:26:15.934Z</time></trkpt><trkpt lat="43.5485541" lon="12.4452346"><ele>711.3333333333333</ele><time>2026-04-18T12:26:16.934Z</time></trkpt><trkpt lat="43.5484943" lon="12.4452014"><ele>712.1666666666666</ele><time>2026-04-18T12:26:17.934Z</time></trkpt><trkpt lat="43.5484327" lon="12.4451697"><ele>713.0</ele><time>2026-04-18T12:26:18.934Z</time></trkpt><trkpt lat="43.5483646" lon="12.445137"><ele>713.0</ele><time>2026-04-18T12:26:19.934Z</time></trkpt><trkpt lat="43.5483006" lon="12.4451088"><ele>713.0</ele><time>2026-04-18T12:26:20.935Z</time></trkpt><trkpt lat="43.5482333" lon="12.4450823"><ele>713.0</ele><time>2026-04-18T12:26:21.934Z</time></trkpt><trkpt lat="43.5481649" lon="12.4450638"><ele>713.0</ele><time>2026-04-18T12:26:22.934Z</time></trkpt><trkpt lat="43.548102" lon="12.4450482"><ele>713.0</ele><time>2026-04-18T12:26:23.934Z</time></trkpt><trkpt lat="43.5479894" lon="12.4450364"><ele>713.0</ele><time>2026-04-18T12:26:25.935Z</time></trkpt><trkpt lat="43.547895" lon="12.4450364"><ele>710.1666666666666</ele><time>2026-04-18T12:26:27.933Z</time></trkpt><trkpt lat="43.5478099" lon="12.4450373"><ele>707.3333333333333</ele><time>2026-04-18T12:26:29.934Z</time></trkpt><trkpt lat="43.5477753" lon="12.444944"><ele>704.5</ele><time>2026-04-18T12:26:33.934Z</time></trkpt><trkpt lat="43.5477637" lon="12.4448381"><ele>701.6666666666666</ele><time>2026-04-18T12:26:36.933Z</time></trkpt><trkpt lat="43.5477778" lon="12.4447208"><ele>698.8333333333334</ele><time>2026-04-18T12:26:57.935Z</time></trkpt><trkpt lat="43.5478275" lon="12.4446334"><ele>696.0</ele><time>2026-04-18T12:27:01.935Z</time></trkpt><trkpt lat="43.5478823" lon="12.4445218"><ele>702.0</ele><time>2026-04-18T12:27:04.934Z</time></trkpt><trkpt lat="43.5479283" lon="12.4444314"><ele>708.0</ele><time>2026-04-18T12:27:06.935Z</time></trkpt><trkpt lat="43.5479448" lon="12.444341"><ele>714.0</ele><time>2026-04-18T12:27:07.934Z</time></trkpt><trkpt lat="43.5479422" lon="12.4442437"><ele>720.0</ele><time>2026-04-18T12:27:08.934Z</time></trkpt><trkpt lat="43.547962" lon="12.4440935"><ele>726.0</ele><time>2026-04-18T12:27:10.934Z</time></trkpt><trkpt lat="43.5480179" lon="12.4439562"><ele>732.0</ele><time>2026-04-18T12:27:12.934Z</time></trkpt><trkpt lat="43.5480546" lon="12.4438628"><ele>731.8333333333334</ele><time>2026-04-18T12:27:13.933Z</time></trkpt><trkpt lat="43.5480907" lon="12.4437791"><ele>731.6666666666666</ele><time>2026-04-18T12:27:14.933Z</time></trkpt><trkpt lat="43.5481209" lon="12.4436993"><ele>731.5</ele><time>2026-04-18T12:27:15.933Z</time></trkpt><trkpt lat="43.5481669" lon="12.4436233"><ele>731.3333333333333</ele><time>2026-04-18T12:27:16.933Z</time></trkpt><trkpt lat="43.5481823" lon="12.4434865"><ele>731.1666666666666</ele><time>2026-04-18T12:27:18.933Z</time></trkpt><trkpt lat="43.548235" lon="12.4433818"><ele>731.0</ele><time>2026-04-18T12:27:20.934Z</time></trkpt><trkpt lat="43.5482847" lon="12.443243"><ele>731.0</ele><time>2026-04-18T12:27:22.934Z</time></trkpt><trkpt lat="43.5483307" lon="12.4431442"><ele>731.0</ele><time>2026-04-18T12:27:24.934Z</time></trkpt><trkpt lat="43.5483404" lon="12.4430466"><ele>731.0</ele><time>2026-04-18T12:27:26.935Z</time></trkpt><trkpt lat="43.5483366" lon="12.4429495"><ele>731.0</ele><time>2026-04-18T12:27:27.933Z</time></trkpt><trkpt lat="43.5483097" lon="12.442851"><ele>731.0</ele><time>2026-04-18T12:27:29.934Z</time></trkpt><trkpt lat="43.548287" lon="12.4427578"><ele>731.0</ele><time>2026-04-18T12:27:33.933Z</time></trkpt><trkpt lat="43.5483048" lon="12.4428771"><ele>731.0</ele><time>2026-04-18T12:27:55.935Z</time></trkpt><trkpt lat="43.5483225" lon="12.4429856"><ele>731.0</ele><time>2026-04-18T12:27:57.935Z</time></trkpt><trkpt lat="43.5482984" lon="12.4430809"><ele>731.0</ele><time>2026-04-18T12:27:59.935Z</time></trkpt><trkpt lat="43.5482272" lon="12.4432426"><ele>731.0</ele><time>2026-04-18T12:28:01.935Z</time></trkpt><trkpt lat="43.5481763" lon="12.4433967"><ele>731.0</ele><time>2026-04-18T12:28:03.935Z</time></trkpt><trkpt lat="43.5481398" lon="12.4435477"><ele>731.0</ele><time>2026-04-18T12:28:05.935Z</time></trkpt><trkpt lat="43.5481142" lon="12.4436911"><ele>731.0</ele><time>2026-04-18T12:28:07.934Z</time></trkpt><trkpt lat="43.548073" lon="12.4438431"><ele>731.0</ele><time>2026-04-18T12:28:09.933Z</time></trkpt><trkpt lat="43.5480431" lon="12.4439242"><ele>731.0</ele><time>2026-04-18T12:28:10.934Z</time></trkpt><trkpt lat="43.5479841" lon="12.4440524"><ele>731.0</ele><time>2026-04-18T12:28:12.933Z</time></trkpt><trkpt lat="43.5479714" lon="12.4441415"><ele>731.1428571428571</ele><time>2026-04-18T12:28:13.933Z</time></trkpt><trkpt lat="43.5479446" lon="12.4442292"><ele>731.2857142857142</ele><time>2026-04-18T12:28:14.934Z</time></trkpt><trkpt lat="43.5479124" lon="12.4443059"><ele>731.4285714285714</ele><time>2026-04-18T12:28:15.934Z</time></trkpt><trkpt lat="43.5479108" lon="12.4444506"><ele>731.5714285714286</ele><time>2026-04-18T12:28:17.933Z</time></trkpt><trkpt lat="43.5478924" lon="12.4445488"><ele>731.7142857142858</ele><time>2026-04-18T12:28:19.933Z</time></trkpt><trkpt lat="43.5478643" lon="12.4446272"><ele>731.8571428571429</ele><time>2026-04-18T12:28:22.934Z</time></trkpt><trkpt lat="43.547828" lon="12.444709"><ele>732.0</ele><time>2026-04-18T12:28:26.934Z</time></trkpt><trkpt lat="43.5477791" lon="12.4446321"><ele>725.4000000000001</ele><time>2026-04-18T12:28:32.934Z</time></trkpt><trkpt lat="43.5478027" lon="12.4444895"><ele>718.8000000000001</ele><time>2026-04-18T12:28:34.934Z</time></trkpt><trkpt lat="43.5478129" lon="12.444347"><ele>712.2</ele><time>2026-04-18T12:28:36.934Z</time></trkpt><trkpt lat="43.5478208" lon="12.4441912"><ele>705.6</ele><time>2026-04-18T12:28:38.934Z</time></trkpt><trkpt lat="43.5478132" lon="12.4440252"><ele>699.0</ele><time>2026-04-18T12:28:40.933Z</time></trkpt><trkpt lat="43.5477945" lon="12.4439275"><ele>699.3333333333334</ele><time>2026-04-18T12:28:41.934Z</time></trkpt><trkpt lat="43.5478277" lon="12.4437768"><ele>699.6666666666666</ele><time>2026-04-18T12:28:43.934Z</time></trkpt><trkpt lat="43.5478124" lon="12.4436727"><ele>700.0</ele><time>2026-04-18T12:28:44.935Z</time></trkpt><trkpt lat="43.547793" lon="12.4435616"><ele>700.3333333333333</ele><time>2026-04-18T12:28:45.934Z</time></trkpt><trkpt lat="43.5477756" lon="12.4434719"><ele>700.6666666666666</ele><time>2026-04-18T12:28:46.934Z</time></trkpt><trkpt lat="43.5477445" lon="12.4433614"><ele>701.0</ele><time>2026-04-18T12:28:47.934Z</time></trkpt><trkpt lat="43.547718" lon="12.4432728"><ele>701.0</ele><time>2026-04-18T12:28:48.934Z</time></trkpt><trkpt lat="43.5476708" lon="12.4431544"><ele>701.0</ele><time>2026-04-18T12:28:49.935Z</time></trkpt><trkpt lat="43.5476297" lon="12.443059"><ele>701.0</ele><time>2026-04-18T12:28:50.933Z</time></trkpt><trkpt lat="43.5475309" lon="12.4429976"><ele>701.0</ele><time>2026-04-18T12:28:52.935Z</time></trkpt><trkpt lat="43.5474705" lon="12.4429479"><ele>701.0</ele><time>2026-04-18T12:28:53.935Z</time></trkpt><trkpt lat="43.5473724" lon="12.4428554"><ele>702.6666666666666</ele><time>2026-04-18T12:28:55.934Z</time></trkpt><trkpt lat="43.5472529" lon="12.4427636"><ele>704.3333333333333</ele><time>2026-04-18T12:28:57.934Z</time></trkpt><trkpt lat="43.5472453" lon="12.4426763"><ele>706.0</ele><time>2026-04-18T12:28:58.933Z</time></trkpt><trkpt lat="43.5472146" lon="12.4425987"><ele>707.6666666666666</ele><time>2026-04-18T12:28:59.934Z</time></trkpt><trkpt lat="43.5472071" lon="12.4424939"><ele>709.3333333333334</ele><time>2026-04-18T12:29:00.935Z</time></trkpt><trkpt lat="43.5471872" lon="12.4423584"><ele>711.0</ele><time>2026-04-18T12:29:01.935Z</time></trkpt><trkpt lat="43.5471588" lon="12.4422789"><ele>708.8</ele><time>2026-04-18T12:29:02.934Z</time></trkpt><trkpt lat="43.5471346" lon="12.442103"><ele>706.5999999999999</ele><time>2026-04-18T12:29:04.934Z</time></trkpt><trkpt lat="43.5471156" lon="12.4420189"><ele>704.4</ele><time>2026-04-18T12:29:05.934Z</time></trkpt><trkpt lat="43.5470672" lon="12.441888"><ele>702.2</ele><time>2026-04-18T12:29:07.934Z</time></trkpt><trkpt lat="43.5470002" lon="12.441767"><ele>700.0</ele><time>2026-04-18T12:29:09.935Z</time></trkpt><trkpt lat="43.5469112" lon="12.4416723"><ele>699.0</ele><time>2026-04-18T12:29:11.935Z</time></trkpt><trkpt lat="43.5468563" lon="12.4416213"><ele>698.0</ele><time>2026-04-18T12:29:12.933Z</time></trkpt><trkpt lat="43.5467411" lon="12.4415439"><ele>697.0</ele><time>2026-04-18T12:29:14.934Z</time></trkpt><trkpt lat="43.5466478" lon="12.4413954"><ele>696.0</ele><time>2026-04-18T12:29:16.934Z</time></trkpt><trkpt lat="43.5465335" lon="12.441321"><ele>696.6666666666666</ele><time>2026-04-18T12:29:17.935Z</time></trkpt><trkpt lat="43.5464693" lon="12.4412488"><ele>697.3333333333334</ele><time>2026-04-18T12:29:18.935Z</time></trkpt><trkpt lat="43.5463994" lon="12.4411951"><ele>698.0</ele><time>2026-04-18T12:29:19.933Z</time></trkpt><trkpt lat="43.5463394" lon="12.4411369"><ele>698.6666666666667</ele><time>2026-04-18T12:29:20.934Z</time></trkpt><trkpt lat="43.5462744" lon="12.4410469"><ele>699.3333333333334</ele><time>2026-04-18T12:29:21.933Z</time></trkpt><trkpt lat="43.5462146" lon="12.4409844"><ele>700.0</ele><time>2026-04-18T12:29:22.934Z</time></trkpt><trkpt lat="43.5461566" lon="12.4409181"><ele>700.0</ele><time>2026-04-18T12:29:23.933Z</time></trkpt><trkpt lat="43.5461019" lon="12.4408521"><ele>700.0</ele><time>2026-04-18T12:29:24.935Z</time></trkpt><trkpt lat="43.5460466" lon="12.4408023"><ele>700.0</ele><time>2026-04-18T12:29:25.933Z</time></trkpt><trkpt lat="43.5459849" lon="12.4407619"><ele>700.0</ele><time>2026-04-18T12:29:26.934Z</time></trkpt><trkpt lat="43.5459258" lon="12.4407256"><ele>700.0</ele><time>2026-04-18T12:29:27.934Z</time></trkpt><trkpt lat="43.5458626" lon="12.4406934"><ele>700.0</ele><time>2026-04-18T12:29:28.935Z</time></trkpt><trkpt lat="43.5457947" lon="12.440621"><ele>700.0</ele><time>2026-04-18T12:29:29.933Z</time></trkpt><trkpt lat="43.5457215" lon="12.4406407"><ele>700.0</ele><time>2026-04-18T12:29:30.935Z</time></trkpt><trkpt lat="43.5455756" lon="12.4405982"><ele>700.0</ele><time>2026-04-18T12:29:33.934Z</time></trkpt><trkpt lat="43.5454392" lon="12.4405935"><ele>700.0</ele><time>2026-04-18T12:29:35.935Z</time></trkpt><trkpt lat="43.5453502" lon="12.4405972"><ele>700.0</ele><time>2026-04-18T12:29:36.934Z</time></trkpt><trkpt lat="43.5452618" lon="12.4405851"><ele>699.2</ele><time>2026-04-18T12:29:38.935Z</time></trkpt><trkpt lat="43.5451842" lon="12.4405024"><ele>698.4</ele><time>2026-04-18T12:29:40.934Z</time></trkpt><trkpt lat="43.5451265" lon="12.4403986"><ele>697.5999999999999</ele><time>2026-04-18T12:29:41.934Z</time></trkpt><trkpt lat="43.5450569" lon="12.4402677"><ele>696.8</ele><time>2026-04-18T12:29:43.934Z</time></trkpt><trkpt lat="43.5450307" lon="12.4401882"><ele>696.0</ele><time>2026-04-18T12:29:44.934Z</time></trkpt><trkpt lat="43.5450041" lon="12.4400857"><ele>696.0</ele><time>2026-04-18T12:29:45.934Z</time></trkpt><trkpt lat="43.5449644" lon="12.4399728"><ele>696.0</ele><time>2026-04-18T12:29:46.935Z</time></trkpt><trkpt lat="43.5449302" lon="12.4398705"><ele>696.0</ele><time>2026-04-18T12:29:47.935Z</time></trkpt><trkpt lat="43.5449042" lon="12.4397752"><ele>696.0</ele><time>2026-04-18T12:29:48.935Z</time></trkpt><trkpt lat="43.5448782" lon="12.4396791"><ele>696.0</ele><time>2026-04-18T12:29:49.935Z</time></trkpt><trkpt lat="43.5448459" lon="12.4395818"><ele>696.0</ele><time>2026-04-18T12:29:50.934Z</time></trkpt><trkpt lat="43.5448192" lon="12.4394906"><ele>694.8333333333334</ele><time>2026-04-18T12:29:51.934Z</time></trkpt><trkpt lat="43.544777" lon="12.4393396"><ele>693.6666666666666</ele><time>2026-04-18T12:29:53.935Z</time></trkpt><trkpt lat="43.5447401" lon="12.4392324"><ele>692.5</ele><time>2026-04-18T12:29:55.934Z</time></trkpt><trkpt lat="43.5447046" lon="12.4391407"><ele>691.3333333333333</ele><time>2026-04-18T12:29:59.933Z</time></trkpt><trkpt lat="43.5446736" lon="12.4390622"><ele>690.1666666666666</ele><time>2026-04-18T12:30:02.934Z</time></trkpt><trkpt lat="43.5446407" lon="12.4389745"><ele>689.0</ele><time>2026-04-18T12:30:08.933Z</time></trkpt><trkpt lat="43.5446656" lon="12.4388942"><ele>689.0</ele><time>2026-04-18T12:30:13.934Z</time></trkpt><trkpt lat="43.5447271" lon="12.4388137"><ele>689.0</ele><time>2026-04-18T12:30:15.935Z</time></trkpt><trkpt lat="43.5448234" lon="12.4387346"><ele>689.0</ele><time>2026-04-18T12:30:17.934Z</time></trkpt><trkpt lat="43.5449317" lon="12.4386714"><ele>689.0</ele><time>2026-04-18T12:30:19.933Z</time></trkpt><trkpt lat="43.5450435" lon="12.4386192"><ele>689.0</ele><time>2026-04-18T12:30:21.933Z</time></trkpt><trkpt lat="43.5451189" lon="12.4385745"><ele>688.1428571428571</ele><time>2026-04-18T12:30:23.933Z</time></trkpt><trkpt lat="43.5451288" lon="12.4384597"><ele>687.2857142857143</ele><time>2026-04-18T12:30:26.934Z</time></trkpt><trkpt lat="43.5451604" lon="12.4383617"><ele>686.4285714285714</ele><time>2026-04-18T12:30:28.933Z</time></trkpt><trkpt lat="43.5452011" lon="12.4382893"><ele>685.5714285714286</ele><time>2026-04-18T12:30:30.933Z</time></trkpt><trkpt lat="43.5452485" lon="12.4382261"><ele>684.7142857142857</ele><time>2026-04-18T12:30:32.934Z</time></trkpt><trkpt lat="43.5452937" lon="12.4381511"><ele>683.8571428571429</ele><time>2026-04-18T12:30:42.934Z</time></trkpt><trkpt lat="43.5452738" lon="12.4380572"><ele>683.0</ele><time>2026-04-18T12:30:44.934Z</time></trkpt><trkpt lat="43.5452259" lon="12.4379775"><ele>682.5999999999999</ele><time>2026-04-18T12:30:46.934Z</time></trkpt><trkpt lat="43.5451614" lon="12.4379006"><ele>682.1999999999999</ele><time>2026-04-18T12:30:48.934Z</time></trkpt><trkpt lat="43.5450445" lon="12.4378671"><ele>681.8</ele><time>2026-04-18T12:30:50.934Z</time></trkpt><trkpt lat="43.5449828" lon="12.437847"><ele>681.4</ele><time>2026-04-18T12:30:51.934Z</time></trkpt><trkpt lat="43.5448635" lon="12.4378079"><ele>681.0</ele><time>2026-04-18T12:30:53.934Z</time></trkpt><trkpt lat="43.5447977" lon="12.4377861"><ele>681.0</ele><time>2026-04-18T12:30:54.934Z</time></trkpt><trkpt lat="43.5447119" lon="12.4377775"><ele>681.0</ele><time>2026-04-18T12:30:55.935Z</time></trkpt><trkpt lat="43.5446473" lon="12.437763"><ele>681.0</ele><time>2026-04-18T12:30:56.935Z</time></trkpt><trkpt lat="43.5445699" lon="12.4377424"><ele>681.0</ele><time>2026-04-18T12:30:57.934Z</time></trkpt><trkpt lat="43.5444934" lon="12.4377187"><ele>681.0</ele><time>2026-04-18T12:30:58.934Z</time></trkpt><trkpt lat="43.5443658" lon="12.4376869"><ele>681.0</ele><time>2026-04-18T12:31:00.934Z</time></trkpt><trkpt lat="43.5442923" lon="12.4376683"><ele>679.1666666666666</ele><time>2026-04-18T12:31:01.934Z</time></trkpt><trkpt lat="43.5442231" lon="12.4376499"><ele>677.3333333333334</ele><time>2026-04-18T12:31:02.934Z</time></trkpt><trkpt lat="43.5441139" lon="12.4376223"><ele>675.5</ele><time>2026-04-18T12:31:04.934Z</time></trkpt><trkpt lat="43.5440194" lon="12.4376289"><ele>673.6666666666667</ele><time>2026-04-18T12:31:07.935Z</time></trkpt><trkpt lat="43.5439449" lon="12.4376228"><ele>671.8333333333334</ele><time>2026-04-18T12:31:08.934Z</time></trkpt><trkpt lat="43.5438811" lon="12.4376131"><ele>670.0</ele><time>2026-04-18T12:31:09.933Z</time></trkpt><trkpt lat="43.5437886" lon="12.4376059"><ele>668.8</ele><time>2026-04-18T12:31:11.934Z</time></trkpt><trkpt lat="43.5436688" lon="12.4375931"><ele>667.6</ele><time>2026-04-18T12:31:13.933Z</time></trkpt><trkpt lat="43.5436001" lon="12.4375688"><ele>666.4000000000001</ele><time>2026-04-18T12:31:14.935Z</time></trkpt><trkpt lat="43.543471" lon="12.4374987"><ele>665.2</ele><time>2026-04-18T12:31:16.933Z</time></trkpt><trkpt lat="43.54341" lon="12.4374559"><ele>664.0</ele><time>2026-04-18T12:31:17.933Z</time></trkpt><trkpt lat="43.5433048" lon="12.4373572"><ele>664.0</ele><time>2026-04-18T12:31:19.933Z</time></trkpt><trkpt lat="43.543245" lon="12.4373074"><ele>664.0</ele><time>2026-04-18T12:31:20.933Z</time></trkpt><trkpt lat="43.5431421" lon="12.4372419"><ele>664.0</ele><time>2026-04-18T12:31:22.934Z</time></trkpt><trkpt lat="43.5430627" lon="12.4371558"><ele>664.0</ele><time>2026-04-18T12:31:24.935Z</time></trkpt><trkpt lat="43.5430047" lon="12.4370642"><ele>664.0</ele><time>2026-04-18T12:31:26.935Z</time></trkpt><trkpt lat="43.5429396" lon="12.436961"><ele>664.0</ele><time>2026-04-18T12:31:28.934Z</time></trkpt><trkpt lat="43.5428879" lon="12.436906"><ele>664.0</ele><time>2026-04-18T12:31:30.934Z</time></trkpt><trkpt lat="43.5428239" lon="12.4368808"><ele>664.0</ele><time>2026-04-18T12:31:33.934Z</time></trkpt><trkpt lat="43.5427688" lon="12.4368344"><ele>664.0</ele><time>2026-04-18T12:31:38.933Z</time></trkpt><trkpt lat="43.5428384" lon="12.4368033"><ele>664.0</ele><time>2026-04-18T12:32:22.935Z</time></trkpt><trkpt lat="43.5429075" lon="12.4367566"><ele>664.0</ele><time>2026-04-18T12:32:24.935Z</time></trkpt><trkpt lat="43.5429986" lon="12.4366533"><ele>664.0</ele><time>2026-04-18T12:32:26.935Z</time></trkpt><trkpt lat="43.5430486" lon="12.4365126"><ele>664.0</ele><time>2026-04-18T12:32:28.935Z</time></trkpt><trkpt lat="43.5430719" lon="12.4363488"><ele>664.0</ele><time>2026-04-18T12:32:30.933Z</time></trkpt><trkpt lat="43.5430913" lon="12.4362636"><ele>664.0</ele><time>2026-04-18T12:32:31.934Z</time></trkpt><trkpt lat="43.5431276" lon="12.4360649"><ele>664.0</ele><time>2026-04-18T12:32:33.934Z</time></trkpt><trkpt lat="43.5431894" lon="12.4359228"><ele>663.6</ele><time>2026-04-18T12:32:35.934Z</time></trkpt><trkpt lat="43.5432464" lon="12.4357927"><ele>663.2</ele><time>2026-04-18T12:32:37.933Z</time></trkpt><trkpt lat="43.5432929" lon="12.4356277"><ele>662.8000000000001</ele><time>2026-04-18T12:32:38.934Z</time></trkpt><trkpt lat="43.5433646" lon="12.435632"><ele>662.4000000000001</ele><time>2026-04-18T12:32:39.934Z</time></trkpt><trkpt lat="43.5434727" lon="12.4355509"><ele>662.0</ele><time>2026-04-18T12:32:41.934Z</time></trkpt><trkpt lat="43.5434502" lon="12.4354691"><ele>661.5</ele><time>2026-04-18T12:32:45.934Z</time></trkpt><trkpt lat="43.543422" lon="12.4353581"><ele>661.0</ele><time>2026-04-18T12:32:48.934Z</time></trkpt><trkpt lat="43.5434032" lon="12.4352344"><ele>660.5</ele><time>2026-04-18T12:32:51.934Z</time></trkpt><trkpt lat="43.5433785" lon="12.4351294"><ele>660.0</ele><time>2026-04-18T12:32:53.935Z</time></trkpt><trkpt lat="43.5434046" lon="12.4347994"><ele>660.0</ele><time>2026-04-18T12:32:55.933Z</time></trkpt><trkpt lat="43.5434085" lon="12.4347076"><ele>660.0</ele><time>2026-04-18T12:32:56.934Z</time></trkpt><trkpt lat="43.5434254" lon="12.4345265"><ele>660.0</ele><time>2026-04-18T12:32:58.934Z</time></trkpt><trkpt lat="43.5435" lon="12.4343526"><ele>660.0</ele><time>2026-04-18T12:32:59.933Z</time></trkpt><trkpt lat="43.5435616" lon="12.4342716"><ele>660.0</ele><time>2026-04-18T12:33:00.933Z</time></trkpt><trkpt lat="43.5436133" lon="12.4341979"><ele>660.0000000000001</ele><time>2026-04-18T12:33:01.933Z</time></trkpt><trkpt lat="43.5436846" lon="12.4341534"><ele>660.0</ele><time>2026-04-18T12:33:02.934Z</time></trkpt><trkpt lat="43.5437455" lon="12.4341211"><ele>660.0</ele><time>2026-04-18T12:33:03.934Z</time></trkpt><trkpt lat="43.543828" lon="12.4340651"><ele>660.0</ele><time>2026-04-18T12:33:05.933Z</time></trkpt><trkpt lat="43.5438813" lon="12.433988"><ele>660.0</ele><time>2026-04-18T12:33:08.934Z</time></trkpt><trkpt lat="43.5439206" lon="12.4339136"><ele>660.0000000000001</ele><time>2026-04-18T12:33:11.935Z</time></trkpt><trkpt lat="43.5439593" lon="12.4338416"><ele>660.0</ele><time>2026-04-18T12:33:15.935Z</time></trkpt><trkpt lat="43.5439995" lon="12.4337174"><ele>660.0</ele><time>2026-04-18T12:33:17.933Z</time></trkpt><trkpt lat="43.5440276" lon="12.4335703"><ele>660.0</ele><time>2026-04-18T12:33:19.933Z</time></trkpt><trkpt lat="43.5440297" lon="12.4334605"><ele>660.0</ele><time>2026-04-18T12:33:21.934Z</time></trkpt><trkpt lat="43.5440203" lon="12.4333508"><ele>660.0</ele><time>2026-04-18T12:33:24.934Z</time></trkpt><trkpt lat="43.5440159" lon="12.433242"><ele>660.0</ele><time>2026-04-18T12:37:24.933Z</time></trkpt><trkpt lat="43.5439879" lon="12.4331616"><ele>660.0</ele><time>2026-04-18T12:37:45.934Z</time></trkpt><trkpt lat="43.5439754" lon="12.4330636"><ele>657.8333333333334</ele><time>2026-04-18T12:37:53.933Z</time></trkpt><trkpt lat="43.5439792" lon="12.4329097"><ele>655.6666666666666</ele><time>2026-04-18T12:40:47.933Z</time></trkpt><trkpt lat="43.5439485" lon="12.4328188"><ele>653.5</ele><time>2026-04-18T12:40:49.932Z</time></trkpt><trkpt lat="43.5439676" lon="12.432712"><ele>651.3333333333333</ele><time>2026-04-18T12:40:51.933Z</time></trkpt><trkpt lat="43.5440192" lon="12.4326253"><ele>649.1666666666666</ele><time>2026-04-18T12:40:53.933Z</time></trkpt><trkpt lat="43.5440786" lon="12.4325553"><ele>647.0</ele><time>2026-04-18T12:40:55.933Z</time></trkpt><trkpt lat="43.5441221" lon="12.4324801"><ele>647.0</ele><time>2026-04-18T12:40:57.933Z</time></trkpt><trkpt lat="43.5441842" lon="12.4324214"><ele>647.0</ele><time>2026-04-18T12:41:00.932Z</time></trkpt><trkpt lat="43.5442193" lon="12.4323386"><ele>647.0</ele><time>2026-04-18T12:42:53.933Z</time></trkpt><trkpt lat="43.5442621" lon="12.4322742"><ele>647.0</ele><time>2026-04-18T12:42:56.933Z</time></trkpt><trkpt lat="43.5443043" lon="12.432185"><ele>647.0</ele><time>2026-04-18T12:42:59.934Z</time></trkpt><trkpt lat="43.5443376" lon="12.4321081"><ele>647.0</ele><time>2026-04-18T12:43:01.934Z</time></trkpt><trkpt lat="43.5443753" lon="12.432018"><ele>647.0</ele><time>2026-04-18T12:43:03.933Z</time></trkpt><trkpt lat="43.5444092" lon="12.4319236"><ele>644.5714285714286</ele><time>2026-04-18T12:43:05.932Z</time></trkpt><trkpt lat="43.5444446" lon="12.4318353"><ele>642.1428571428571</ele><time>2026-04-18T12:43:07.932Z</time></trkpt><trkpt lat="43.5444753" lon="12.4317468"><ele>639.7142857142858</ele><time>2026-04-18T12:43:09.932Z</time></trkpt><trkpt lat="43.5445076" lon="12.4316622"><ele>637.2857142857142</ele><time>2026-04-18T12:43:11.934Z</time></trkpt><trkpt lat="43.5445392" lon="12.431578"><ele>634.8571428571429</ele><time>2026-04-18T12:43:13.934Z</time></trkpt><trkpt lat="43.5445774" lon="12.4314914"><ele>632.4285714285714</ele><time>2026-04-18T12:43:15.932Z</time></trkpt><trkpt lat="43.5446122" lon="12.4314052"><ele>630.0</ele><time>2026-04-18T12:43:17.934Z</time></trkpt><trkpt lat="43.5446477" lon="12.431314"><ele>628.1666666666666</ele><time>2026-04-18T12:43:19.934Z</time></trkpt><trkpt lat="43.5446873" lon="12.4312249"><ele>626.3333333333334</ele><time>2026-04-18T12:43:21.934Z</time></trkpt><trkpt lat="43.5447218" lon="12.4311482"><ele>624.5</ele><time>2026-04-18T12:43:23.933Z</time></trkpt><trkpt lat="43.5447501" lon="12.4310579"><ele>622.6666666666667</ele><time>2026-04-18T12:43:25.933Z</time></trkpt><trkpt lat="43.5447656" lon="12.4309466"><ele>620.8333333333334</ele><time>2026-04-18T12:43:27.933Z</time></trkpt><trkpt lat="43.5447553" lon="12.4308256"><ele>619.0</ele><time>2026-04-18T12:43:29.933Z</time></trkpt><trkpt lat="43.5447374" lon="12.4306901"><ele>619.0</ele><time>2026-04-18T12:43:31.932Z</time></trkpt><trkpt lat="43.5446988" lon="12.4305561"><ele>619.0</ele><time>2026-04-18T12:43:33.932Z</time></trkpt><trkpt lat="43.5446286" lon="12.4304404"><ele>619.0</ele><time>2026-04-18T12:43:35.932Z</time></trkpt><trkpt lat="43.5445446" lon="12.430334"><ele>619.0</ele><time>2026-04-18T12:43:37.932Z</time></trkpt><trkpt lat="43.5444684" lon="12.4302235"><ele>619.0</ele><time>2026-04-18T12:43:39.934Z</time></trkpt><trkpt lat="43.5444321" lon="12.4301507"><ele>617.8571428571429</ele><time>2026-04-18T12:43:40.933Z</time></trkpt><trkpt lat="43.5443944" lon="12.4300713"><ele>616.7142857142858</ele><time>2026-04-18T12:43:41.934Z</time></trkpt><trkpt lat="43.5443612" lon="12.4299914"><ele>615.5714285714287</ele><time>2026-04-18T12:43:42.934Z</time></trkpt><trkpt lat="43.5443329" lon="12.4299056"><ele>614.4285714285714</ele><time>2026-04-18T12:43:43.934Z</time></trkpt><trkpt lat="43.5443017" lon="12.4298218"><ele>613.2857142857143</ele><time>2026-04-18T12:43:44.934Z</time></trkpt><trkpt lat="43.5442653" lon="12.4297237"><ele>612.1428571428572</ele><time>2026-04-18T12:43:45.934Z</time></trkpt><trkpt lat="43.5442301" lon="12.429626"><ele>611.0</ele><time>2026-04-18T12:43:46.933Z</time></trkpt><trkpt lat="43.544195" lon="12.4295253"><ele>610.5</ele><time>2026-04-18T12:43:47.934Z</time></trkpt><trkpt lat="43.544157" lon="12.4294211"><ele>610.0</ele><time>2026-04-18T12:43:48.934Z</time></trkpt><trkpt lat="43.544117" lon="12.429317"><ele>609.5</ele><time>2026-04-18T12:43:49.934Z</time></trkpt><trkpt lat="43.5440759" lon="12.4292198"><ele>609.0</ele><time>2026-04-18T12:43:50.932Z</time></trkpt><trkpt lat="43.544035" lon="12.429115"><ele>608.5</ele><time>2026-04-18T12:43:51.933Z</time></trkpt><trkpt lat="43.5439923" lon="12.4290165"><ele>608.0</ele><time>2026-04-18T12:43:52.932Z</time></trkpt><trkpt lat="43.5439428" lon="12.4289137"><ele>608.0</ele><time>2026-04-18T12:43:53.934Z</time></trkpt><trkpt lat="43.5438927" lon="12.4288167"><ele>608.0</ele><time>2026-04-18T12:43:54.932Z</time></trkpt><trkpt lat="43.5438399" lon="12.4287183"><ele>608.0</ele><time>2026-04-18T12:43:55.933Z</time></trkpt><trkpt lat="43.5437869" lon="12.4286122"><ele>608.0</ele><time>2026-04-18T12:43:56.933Z</time></trkpt><trkpt lat="43.5437383" lon="12.4285051"><ele>608.0</ele><time>2026-04-18T12:43:57.933Z</time></trkpt><trkpt lat="43.543697" lon="12.4284046"><ele>608.0</ele><time>2026-04-18T12:43:58.933Z</time></trkpt><trkpt lat="43.5436564" lon="12.4282923"><ele>607.4</ele><time>2026-04-18T12:43:59.934Z</time></trkpt><trkpt lat="43.5436142" lon="12.4281733"><ele>606.8</ele><time>2026-04-18T12:44:00.932Z</time></trkpt><trkpt lat="43.5435673" lon="12.4280603"><ele>606.2</ele><time>2026-04-18T12:44:01.932Z</time></trkpt><trkpt lat="43.5435211" lon="12.4279408"><ele>605.6</ele><time>2026-04-18T12:44:02.934Z</time></trkpt><trkpt lat="43.5434716" lon="12.4278243"><ele>605.0</ele><time>2026-04-18T12:44:03.934Z</time></trkpt><trkpt lat="43.5434142" lon="12.4277185"><ele>605.0</ele><time>2026-04-18T12:44:04.932Z</time></trkpt><trkpt lat="43.5433584" lon="12.4276203"><ele>605.0</ele><time>2026-04-18T12:44:05.933Z</time></trkpt><trkpt lat="43.5433139" lon="12.4275229"><ele>605.0</ele><time>2026-04-18T12:44:06.934Z</time></trkpt><trkpt lat="43.5432873" lon="12.4274175"><ele>605.0</ele><time>2026-04-18T12:44:07.933Z</time></trkpt><trkpt lat="43.543272" lon="12.4273159"><ele>605.0</ele><time>2026-04-18T12:44:08.933Z</time></trkpt><trkpt lat="43.5432685" lon="12.4272061"><ele>605.0</ele><time>2026-04-18T12:44:09.933Z</time></trkpt><trkpt lat="43.5432669" lon="12.4271023"><ele>605.0</ele><time>2026-04-18T12:44:10.933Z</time></trkpt><trkpt lat="43.5432626" lon="12.4269954"><ele>605.0</ele><time>2026-04-18T12:44:11.932Z</time></trkpt><trkpt lat="43.5432496" lon="12.4268876"><ele>605.0</ele><time>2026-04-18T12:44:12.933Z</time></trkpt><trkpt lat="43.5432291" lon="12.4267831"><ele>605.0</ele><time>2026-04-18T12:44:13.932Z</time></trkpt><trkpt lat="43.543198" lon="12.4266843"><ele>605.0</ele><time>2026-04-18T12:44:14.932Z</time></trkpt><trkpt lat="43.5431649" lon="12.4265967"><ele>605.0</ele><time>2026-04-18T12:44:15.932Z</time></trkpt><trkpt lat="43.5431026" lon="12.4265324"><ele>605.0</ele><time>2026-04-18T12:44:16.932Z</time></trkpt><trkpt lat="43.5430515" lon="12.4264743"><ele>605.0</ele><time>2026-04-18T12:44:17.933Z</time></trkpt><trkpt lat="43.5429882" lon="12.4264068"><ele>605.0</ele><time>2026-04-18T12:44:18.933Z</time></trkpt><trkpt lat="43.5429331" lon="12.4263488"><ele>605.0</ele><time>2026-04-18T12:44:19.934Z</time></trkpt><trkpt lat="43.5428829" lon="12.4262771"><ele>605.0</ele><time>2026-04-18T12:44:20.933Z</time></trkpt><trkpt lat="43.5428382" lon="12.4262115"><ele>605.0</ele><time>2026-04-18T12:44:21.933Z</time></trkpt><trkpt lat="43.5428043" lon="12.426122"><ele>605.0</ele><time>2026-04-18T12:44:22.934Z</time></trkpt><trkpt lat="43.5427861" lon="12.4260297"><ele>604.3333333333333</ele><time>2026-04-18T12:44:23.933Z</time></trkpt><trkpt lat="43.5427947" lon="12.4259377"><ele>603.6666666666666</ele><time>2026-04-18T12:44:24.932Z</time></trkpt><trkpt lat="43.5428168" lon="12.4258493"><ele>603.0</ele><time>2026-04-18T12:44:25.933Z</time></trkpt><trkpt lat="43.5428782" lon="12.4256965"><ele>602.3333333333334</ele><time>2026-04-18T12:44:27.933Z</time></trkpt><trkpt lat="43.5429075" lon="12.4256184"><ele>601.6666666666667</ele><time>2026-04-18T12:44:28.933Z</time></trkpt><trkpt lat="43.542956" lon="12.4254914"><ele>601.0</ele><time>2026-04-18T12:44:30.933Z</time></trkpt><trkpt lat="43.5430245" lon="12.4253732"><ele>595.8</ele><time>2026-04-18T12:44:32.932Z</time></trkpt><trkpt lat="43.5430852" lon="12.4252883"><ele>590.6</ele><time>2026-04-18T12:44:34.933Z</time></trkpt><trkpt lat="43.5430662" lon="12.4252011"><ele>585.4</ele><time>2026-04-18T12:44:36.933Z</time></trkpt><trkpt lat="43.5429795" lon="12.4251813"><ele>580.2</ele><time>2026-04-18T12:44:38.933Z</time></trkpt><trkpt lat="43.542876" lon="12.4252395"><ele>575.0</ele><time>2026-04-18T12:44:40.933Z</time></trkpt><trkpt lat="43.5427643" lon="12.4253109"><ele>574.8571428571429</ele><time>2026-04-18T12:44:42.934Z</time></trkpt><trkpt lat="43.5427012" lon="12.4253368"><ele>574.7142857142857</ele><time>2026-04-18T12:44:43.933Z</time></trkpt><trkpt lat="43.542636" lon="12.4253558"><ele>574.5714285714286</ele><time>2026-04-18T12:44:44.933Z</time></trkpt><trkpt lat="43.5425676" lon="12.4253683"><ele>574.4285714285714</ele><time>2026-04-18T12:44:45.932Z</time></trkpt><trkpt lat="43.5425003" lon="12.4253764"><ele>574.2857142857142</ele><time>2026-04-18T12:44:46.934Z</time></trkpt><trkpt lat="43.5424334" lon="12.4253816"><ele>574.1428571428571</ele><time>2026-04-18T12:44:47.932Z</time></trkpt><trkpt lat="43.542362" lon="12.4253894"><ele>574.0</ele><time>2026-04-18T12:44:48.933Z</time></trkpt><trkpt lat="43.5422891" lon="12.4253996"><ele>574.0</ele><time>2026-04-18T12:44:49.934Z</time></trkpt><trkpt lat="43.542223" lon="12.4254081"><ele>574.0</ele><time>2026-04-18T12:44:50.933Z</time></trkpt><trkpt lat="43.5421067" lon="12.4254408"><ele>574.0</ele><time>2026-04-18T12:44:52.934Z</time></trkpt><trkpt lat="43.5420116" lon="12.4254801"><ele>574.0</ele><time>2026-04-18T12:44:54.933Z</time></trkpt><trkpt lat="43.5419444" lon="12.4254515"><ele>574.0</ele><time>2026-04-18T12:44:56.933Z</time></trkpt><trkpt lat="43.5419292" lon="12.4253523"><ele>574.0</ele><time>2026-04-18T12:44:58.934Z</time></trkpt><trkpt lat="43.541977" lon="12.4252486"><ele>574.0</ele><time>2026-04-18T12:45:00.933Z</time></trkpt><trkpt lat="43.5420678" lon="12.4251781"><ele>574.0</ele><time>2026-04-18T12:45:02.934Z</time></trkpt><trkpt lat="43.5421614" lon="12.4250793"><ele>574.0</ele><time>2026-04-18T12:45:04.933Z</time></trkpt><trkpt lat="43.5422234" lon="12.4249624"><ele>574.0</ele><time>2026-04-18T12:45:06.932Z</time></trkpt><trkpt lat="43.5422739" lon="12.4248143"><ele>574.0</ele><time>2026-04-18T12:45:08.932Z</time></trkpt><trkpt lat="43.5423429" lon="12.4246799"><ele>569.0</ele><time>2026-04-18T12:45:10.932Z</time></trkpt><trkpt lat="43.5424273" lon="12.4245677"><ele>564.0</ele><time>2026-04-18T12:45:12.933Z</time></trkpt><trkpt lat="43.5425193" lon="12.4244557"><ele>559.0</ele><time>2026-04-18T12:45:14.933Z</time></trkpt><trkpt lat="43.5426147" lon="12.4243427"><ele>554.0</ele><time>2026-04-18T12:45:16.934Z</time></trkpt><trkpt lat="43.5427045" lon="12.4242444"><ele>554.0</ele><time>2026-04-18T12:45:18.934Z</time></trkpt><trkpt lat="43.542779" lon="12.4241693"><ele>554.0</ele><time>2026-04-18T12:45:20.933Z</time></trkpt><trkpt lat="43.5428499" lon="12.4241059"><ele>554.0</ele><time>2026-04-18T12:45:22.933Z</time></trkpt><trkpt lat="43.5428826" lon="12.4240255"><ele>554.0</ele><time>2026-04-18T12:45:24.933Z</time></trkpt><trkpt lat="43.5428365" lon="12.4239577"><ele>554.0</ele><time>2026-04-18T12:45:26.932Z</time></trkpt><trkpt lat="43.5427604" lon="12.4239653"><ele>554.0</ele><time>2026-04-18T12:45:28.934Z</time></trkpt><trkpt lat="43.542673" lon="12.4239985"><ele>554.0</ele><time>2026-04-18T12:45:30.934Z</time></trkpt><trkpt lat="43.5425678" lon="12.4240342"><ele>554.0</ele><time>2026-04-18T12:45:32.934Z</time></trkpt><trkpt lat="43.5424529" lon="12.4240569"><ele>554.0</ele><time>2026-04-18T12:45:34.934Z</time></trkpt><trkpt lat="43.5423858" lon="12.4240641"><ele>554.0</ele><time>2026-04-18T12:45:35.933Z</time></trkpt><trkpt lat="43.5423154" lon="12.4240732"><ele>554.0</ele><time>2026-04-18T12:45:36.932Z</time></trkpt><trkpt lat="43.5422392" lon="12.4240789"><ele>554.0</ele><time>2026-04-18T12:45:37.934Z</time></trkpt><trkpt lat="43.542166" lon="12.4240817"><ele>554.0</ele><time>2026-04-18T12:45:38.932Z</time></trkpt><trkpt lat="43.5420932" lon="12.4240942"><ele>554.0</ele><time>2026-04-18T12:45:39.934Z</time></trkpt><trkpt lat="43.542022" lon="12.4241198"><ele>554.0</ele><time>2026-04-18T12:45:40.932Z</time></trkpt><trkpt lat="43.5419478" lon="12.4241515"><ele>554.0</ele><time>2026-04-18T12:45:41.933Z</time></trkpt><trkpt lat="43.5418709" lon="12.4241756"><ele>554.0</ele><time>2026-04-18T12:45:42.933Z</time></trkpt><trkpt lat="43.5417901" lon="12.4241865"><ele>554.0</ele><time>2026-04-18T12:45:43.933Z</time></trkpt><trkpt lat="43.5417084" lon="12.4241936"><ele>552.1666666666666</ele><time>2026-04-18T12:45:44.933Z</time></trkpt><trkpt lat="43.5416209" lon="12.4241969"><ele>550.3333333333333</ele><time>2026-04-18T12:45:45.934Z</time></trkpt><trkpt lat="43.5415309" lon="12.4241975"><ele>548.5</ele><time>2026-04-18T12:45:46.934Z</time></trkpt><trkpt lat="43.5414432" lon="12.4241985"><ele>546.6666666666666</ele><time>2026-04-18T12:45:47.932Z</time></trkpt><trkpt lat="43.5413557" lon="12.4242007"><ele>544.8333333333334</ele><time>2026-04-18T12:45:48.932Z</time></trkpt><trkpt lat="43.5412679" lon="12.4242047"><ele>543.0</ele><time>2026-04-18T12:45:49.934Z</time></trkpt><trkpt lat="43.5411897" lon="12.4241965"><ele>539.1999999999999</ele><time>2026-04-18T12:45:50.934Z</time></trkpt><trkpt lat="43.5411242" lon="12.4241903"><ele>535.4</ele><time>2026-04-18T12:45:51.932Z</time></trkpt><trkpt lat="43.5410243" lon="12.4241796"><ele>531.5999999999999</ele><time>2026-04-18T12:45:53.933Z</time></trkpt><trkpt lat="43.540962" lon="12.4241016"><ele>527.8</ele><time>2026-04-18T12:45:55.932Z</time></trkpt><trkpt lat="43.5409859" lon="12.4239637"><ele>524.0</ele><time>2026-04-18T12:45:57.932Z</time></trkpt><trkpt lat="43.54107" lon="12.4238369"><ele>524.0</ele><time>2026-04-18T12:45:59.932Z</time></trkpt><trkpt lat="43.5411228" lon="12.4237718"><ele>524.0</ele><time>2026-04-18T12:46:00.932Z</time></trkpt><trkpt lat="43.5411763" lon="12.4236951"><ele>524.0</ele><time>2026-04-18T12:46:01.933Z</time></trkpt><trkpt lat="43.5412302" lon="12.4236193"><ele>524.0</ele><time>2026-04-18T12:46:02.934Z</time></trkpt><trkpt lat="43.5412838" lon="12.4235353"><ele>524.0</ele><time>2026-04-18T12:46:03.933Z</time></trkpt><trkpt lat="43.5413316" lon="12.4234453"><ele>524.0</ele><time>2026-04-18T12:46:04.932Z</time></trkpt><trkpt lat="43.5413787" lon="12.4233544"><ele>524.0</ele><time>2026-04-18T12:46:05.932Z</time></trkpt><trkpt lat="43.5414224" lon="12.4232711"><ele>524.0</ele><time>2026-04-18T12:46:06.932Z</time></trkpt><trkpt lat="43.5414706" lon="12.4232029"><ele>524.0</ele><time>2026-04-18T12:46:07.932Z</time></trkpt><trkpt lat="43.5415205" lon="12.4231404"><ele>524.0</ele><time>2026-04-18T12:46:08.932Z</time></trkpt><trkpt lat="43.5416161" lon="12.4230395"><ele>524.0</ele><time>2026-04-18T12:46:10.934Z</time></trkpt><trkpt lat="43.541712" lon="12.4229482"><ele>524.0</ele><time>2026-04-18T12:46:12.933Z</time></trkpt><trkpt lat="43.5417635" lon="12.422891"><ele>522.0</ele><time>2026-04-18T12:46:13.933Z</time></trkpt><trkpt lat="43.5418184" lon="12.4228415"><ele>520.0</ele><time>2026-04-18T12:46:14.933Z</time></trkpt><trkpt lat="43.5418716" lon="12.4227861"><ele>518.0</ele><time>2026-04-18T12:46:15.933Z</time></trkpt><trkpt lat="43.5419636" lon="12.422679"><ele>516.0</ele><time>2026-04-18T12:46:17.933Z</time></trkpt><trkpt lat="43.5420079" lon="12.4226123"><ele>514.0</ele><time>2026-04-18T12:46:18.934Z</time></trkpt><trkpt lat="43.542049" lon="12.4225005"><ele>512.0</ele><time>2026-04-18T12:46:20.934Z</time></trkpt><trkpt lat="43.5420699" lon="12.4224153"><ele>511.99999999999994</ele><time>2026-04-18T12:46:22.932Z</time></trkpt><trkpt lat="43.5420888" lon="12.4223079"><ele>512.0</ele><time>2026-04-18T12:46:25.933Z</time></trkpt><trkpt lat="43.5421114" lon="12.4222201"><ele>512.0</ele><time>2026-04-18T12:46:27.934Z</time></trkpt><trkpt lat="43.5421404" lon="12.4221216"><ele>512.0</ele><time>2026-04-18T12:46:29.932Z</time></trkpt><trkpt lat="43.5421948" lon="12.4220277"><ele>511.99999999999994</ele><time>2026-04-18T12:46:31.933Z</time></trkpt><trkpt lat="43.5422753" lon="12.4219776"><ele>512.0</ele><time>2026-04-18T12:46:33.933Z</time></trkpt><trkpt lat="43.5423559" lon="12.4219979"><ele>512.0</ele><time>2026-04-18T12:46:35.932Z</time></trkpt><trkpt lat="43.5424137" lon="12.422057"><ele>512.0</ele><time>2026-04-18T12:46:37.933Z</time></trkpt><trkpt lat="43.5424751" lon="12.4221279"><ele>512.0</ele><time>2026-04-18T12:46:39.933Z</time></trkpt><trkpt lat="43.5425571" lon="12.4221924"><ele>512.0</ele><time>2026-04-18T12:46:41.933Z</time></trkpt><trkpt lat="43.5426703" lon="12.4222611"><ele>512.0</ele><time>2026-04-18T12:46:43.933Z</time></trkpt><trkpt lat="43.5427951" lon="12.422296"><ele>511.99999999999994</ele><time>2026-04-18T12:46:45.932Z</time></trkpt><trkpt lat="43.5428613" lon="12.4222938"><ele>512.0</ele><time>2026-04-18T12:46:46.932Z</time></trkpt><trkpt lat="43.5429332" lon="12.4222851"><ele>512.0</ele><time>2026-04-18T12:46:47.933Z</time></trkpt><trkpt lat="43.5430402" lon="12.4222585"><ele>512.0</ele><time>2026-04-18T12:46:49.933Z</time></trkpt><trkpt lat="43.5431548" lon="12.4222268"><ele>511.99999999999994</ele><time>2026-04-18T12:46:51.934Z</time></trkpt><trkpt lat="43.5432186" lon="12.4222201"><ele>512.0</ele><time>2026-04-18T12:46:53.934Z</time></trkpt><trkpt lat="43.5432916" lon="12.4222087"><ele>510.0</ele><time>2026-04-18T12:46:55.932Z</time></trkpt><trkpt lat="43.5433679" lon="12.422198"><ele>508.00000000000006</ele><time>2026-04-18T12:46:57.934Z</time></trkpt><trkpt lat="43.5434465" lon="12.4222139"><ele>506.00000000000006</ele><time>2026-04-18T12:46:59.933Z</time></trkpt><trkpt lat="43.5435027" lon="12.4223196"><ele>504.0</ele><time>2026-04-18T12:47:01.934Z</time></trkpt><trkpt lat="43.5435576" lon="12.4224825"><ele>502.0</ele><time>2026-04-18T12:47:03.934Z</time></trkpt><trkpt lat="43.5435899" lon="12.4225707"><ele>502.00000000000006</ele><time>2026-04-18T12:47:04.933Z</time></trkpt><trkpt lat="43.5436262" lon="12.4226654"><ele>502.0</ele><time>2026-04-18T12:47:05.934Z</time></trkpt><trkpt lat="43.5436697" lon="12.4227606"><ele>502.0</ele><time>2026-04-18T12:47:06.933Z</time></trkpt><trkpt lat="43.5437137" lon="12.4228453"><ele>502.0</ele><time>2026-04-18T12:47:07.933Z</time></trkpt><trkpt lat="43.5437602" lon="12.422923"><ele>502.00000000000006</ele><time>2026-04-18T12:47:08.933Z</time></trkpt><trkpt lat="43.543811" lon="12.4229915"><ele>502.0</ele><time>2026-04-18T12:47:09.933Z</time></trkpt><trkpt lat="43.5438718" lon="12.4230558"><ele>501.83333333333337</ele><time>2026-04-18T12:47:10.933Z</time></trkpt><trkpt lat="43.5439439" lon="12.4231156"><ele>501.6666666666667</ele><time>2026-04-18T12:47:11.934Z</time></trkpt><trkpt lat="43.5440186" lon="12.4231745"><ele>501.5</ele><time>2026-04-18T12:47:12.933Z</time></trkpt><trkpt lat="43.5440951" lon="12.423215"><ele>501.33333333333337</ele><time>2026-04-18T12:47:13.933Z</time></trkpt><trkpt lat="43.5441764" lon="12.423259"><ele>501.1666666666667</ele><time>2026-04-18T12:47:14.933Z</time></trkpt><trkpt lat="43.544255" lon="12.4232996"><ele>501.0</ele><time>2026-04-18T12:47:15.932Z</time></trkpt><trkpt lat="43.5443461" lon="12.423339"><ele>501.0</ele><time>2026-04-18T12:47:16.932Z</time></trkpt><trkpt lat="43.5444388" lon="12.4233649"><ele>501.0</ele><time>2026-04-18T12:47:17.933Z</time></trkpt><trkpt lat="43.5445321" lon="12.4233829"><ele>501.0</ele><time>2026-04-18T12:47:18.933Z</time></trkpt><trkpt lat="43.5446267" lon="12.4233995"><ele>501.0</ele><time>2026-04-18T12:47:19.933Z</time></trkpt><trkpt lat="43.5447212" lon="12.4234216"><ele>501.0</ele><time>2026-04-18T12:47:20.933Z</time></trkpt><trkpt lat="43.5448153" lon="12.4234404"><ele>501.0</ele><time>2026-04-18T12:47:21.934Z</time></trkpt><trkpt lat="43.5449159" lon="12.4234562"><ele>501.0</ele><time>2026-04-18T12:47:22.932Z</time></trkpt><trkpt lat="43.5450179" lon="12.4234748"><ele>501.0</ele><time>2026-04-18T12:47:23.934Z</time></trkpt><trkpt lat="43.5451127" lon="12.4234983"><ele>501.0</ele><time>2026-04-18T12:47:24.933Z</time></trkpt><trkpt lat="43.5452114" lon="12.4235232"><ele>501.0</ele><time>2026-04-18T12:47:25.933Z</time></trkpt><trkpt lat="43.5453093" lon="12.4235401"><ele>501.4</ele><time>2026-04-18T12:47:26.934Z</time></trkpt><trkpt lat="43.5454032" lon="12.4235591"><ele>501.8</ele><time>2026-04-18T12:47:27.932Z</time></trkpt><trkpt lat="43.5455014" lon="12.4235771"><ele>502.19999999999993</ele><time>2026-04-18T12:47:28.932Z</time></trkpt><trkpt lat="43.5456004" lon="12.423593"><ele>502.59999999999997</ele><time>2026-04-18T12:47:29.933Z</time></trkpt><trkpt lat="43.5457001" lon="12.4236011"><ele>503.0</ele><time>2026-04-18T12:47:30.932Z</time></trkpt><trkpt lat="43.5457931" lon="12.4235983"><ele>503.0</ele><time>2026-04-18T12:47:31.933Z</time></trkpt><trkpt lat="43.5459122" lon="12.4235793"><ele>502.99999999999994</ele><time>2026-04-18T12:47:32.932Z</time></trkpt><trkpt lat="43.5460021" lon="12.4235477"><ele>502.99999999999994</ele><time>2026-04-18T12:47:33.933Z</time></trkpt><trkpt lat="43.5461007" lon="12.4235106"><ele>503.0</ele><time>2026-04-18T12:47:34.933Z</time></trkpt><trkpt lat="43.5462034" lon="12.4234575"><ele>503.0</ele><time>2026-04-18T12:47:35.934Z</time></trkpt><trkpt lat="43.5462959" lon="12.4234005"><ele>501.4</ele><time>2026-04-18T12:47:36.933Z</time></trkpt><trkpt lat="43.5463844" lon="12.4233332"><ele>499.79999999999995</ele><time>2026-04-18T12:47:37.934Z</time></trkpt><trkpt lat="43.5464736" lon="12.4232559"><ele>498.2</ele><time>2026-04-18T12:47:38.933Z</time></trkpt><trkpt lat="43.5465632" lon="12.4231783"><ele>496.6</ele><time>2026-04-18T12:47:39.933Z</time></trkpt><trkpt lat="43.5466474" lon="12.4230951"><ele>495.0</ele><time>2026-04-18T12:47:40.933Z</time></trkpt><trkpt lat="43.5467242" lon="12.4230035"><ele>494.8</ele><time>2026-04-18T12:47:41.933Z</time></trkpt><trkpt lat="43.5468047" lon="12.4229179"><ele>494.6</ele><time>2026-04-18T12:47:42.934Z</time></trkpt><trkpt lat="43.5468945" lon="12.4228305"><ele>494.4</ele><time>2026-04-18T12:47:43.933Z</time></trkpt><trkpt lat="43.5469777" lon="12.4227363"><ele>494.2</ele><time>2026-04-18T12:47:44.933Z</time></trkpt><trkpt lat="43.5470622" lon="12.4226395"><ele>494.0</ele><time>2026-04-18T12:47:45.932Z</time></trkpt><trkpt lat="43.5471504" lon="12.422545"><ele>494.0</ele><time>2026-04-18T12:47:46.933Z</time></trkpt><trkpt lat="43.5472392" lon="12.4224552"><ele>494.0</ele><time>2026-04-18T12:47:47.934Z</time></trkpt><trkpt lat="43.5473193" lon="12.4223589"><ele>494.0</ele><time>2026-04-18T12:47:48.932Z</time></trkpt><trkpt lat="43.547405" lon="12.4222712"><ele>494.0</ele><time>2026-04-18T12:47:49.934Z</time></trkpt><trkpt lat="43.5474895" lon="12.4221891"><ele>494.0</ele><time>2026-04-18T12:47:50.933Z</time></trkpt><trkpt lat="43.5475757" lon="12.4221042"><ele>493.2</ele><time>2026-04-18T12:47:51.933Z</time></trkpt><trkpt lat="43.5476588" lon="12.422015"><ele>492.4</ele><time>2026-04-18T12:47:52.933Z</time></trkpt><trkpt lat="43.5477411" lon="12.4219285"><ele>491.6</ele><time>2026-04-18T12:47:53.933Z</time></trkpt><trkpt lat="43.5478266" lon="12.42184"><ele>490.8</ele><time>2026-04-18T12:47:54.933Z</time></trkpt><trkpt lat="43.5479111" lon="12.4217517"><ele>490.0</ele><time>2026-04-18T12:47:55.934Z</time></trkpt><trkpt lat="43.5479996" lon="12.421663"><ele>489.4</ele><time>2026-04-18T12:47:56.933Z</time></trkpt><trkpt lat="43.5480863" lon="12.4215705"><ele>488.8</ele><time>2026-04-18T12:47:57.933Z</time></trkpt><trkpt lat="43.5481756" lon="12.4214821"><ele>488.20000000000005</ele><time>2026-04-18T12:47:58.933Z</time></trkpt><trkpt lat="43.548265" lon="12.4213911"><ele>487.6</ele><time>2026-04-18T12:47:59.933Z</time></trkpt><trkpt lat="43.5483561" lon="12.4212992"><ele>487.0</ele><time>2026-04-18T12:48:00.932Z</time></trkpt><trkpt lat="43.5484487" lon="12.4212044"><ele>487.0</ele><time>2026-04-18T12:48:01.933Z</time></trkpt><trkpt lat="43.5485401" lon="12.4211125"><ele>487.0</ele><time>2026-04-18T12:48:02.933Z</time></trkpt><trkpt lat="43.5486365" lon="12.4210231"><ele>487.0</ele><time>2026-04-18T12:48:03.933Z</time></trkpt><trkpt lat="43.5487281" lon="12.4209339"><ele>487.0</ele><time>2026-04-18T12:48:04.932Z</time></trkpt><trkpt lat="43.5488192" lon="12.4208447"><ele>487.0</ele><time>2026-04-18T12:48:05.932Z</time></trkpt><trkpt lat="43.5489083" lon="12.4207571"><ele>487.00000000000006</ele><time>2026-04-18T12:48:06.933Z</time></trkpt><trkpt lat="43.5489924" lon="12.4206702"><ele>487.00000000000006</ele><time>2026-04-18T12:48:07.931Z</time></trkpt><trkpt lat="43.5490766" lon="12.4205801"><ele>487.0</ele><time>2026-04-18T12:48:08.931Z</time></trkpt><trkpt lat="43.5491601" lon="12.4204942"><ele>487.0</ele><time>2026-04-18T12:48:09.931Z</time></trkpt><trkpt lat="43.5492431" lon="12.4204004"><ele>486.6</ele><time>2026-04-18T12:48:10.932Z</time></trkpt><trkpt lat="43.549327" lon="12.4203143"><ele>486.20000000000005</ele><time>2026-04-18T12:48:11.931Z</time></trkpt><trkpt lat="43.5494092" lon="12.4202288"><ele>485.8</ele><time>2026-04-18T12:48:12.933Z</time></trkpt><trkpt lat="43.5494946" lon="12.4201477"><ele>485.4</ele><time>2026-04-18T12:48:13.931Z</time></trkpt><trkpt lat="43.5495764" lon="12.420066"><ele>485.0</ele><time>2026-04-18T12:48:14.931Z</time></trkpt><trkpt lat="43.5496625" lon="12.419981"><ele>485.0</ele><time>2026-04-18T12:48:15.933Z</time></trkpt><trkpt lat="43.5497471" lon="12.4198997"><ele>485.0</ele><time>2026-04-18T12:48:16.932Z</time></trkpt><trkpt lat="43.5498343" lon="12.41982"><ele>485.0</ele><time>2026-04-18T12:48:17.931Z</time></trkpt><trkpt lat="43.5499119" lon="12.4197618"><ele>485.0</ele><time>2026-04-18T12:48:18.931Z</time></trkpt><trkpt lat="43.55" lon="12.4196834"><ele>485.0</ele><time>2026-04-18T12:48:19.932Z</time></trkpt><trkpt lat="43.5500695" lon="12.4196427"><ele>487.4</ele><time>2026-04-18T12:48:20.932Z</time></trkpt><trkpt lat="43.5501362" lon="12.4196102"><ele>489.8</ele><time>2026-04-18T12:48:22.932Z</time></trkpt><trkpt lat="43.5501304" lon="12.4195219"><ele>492.20000000000005</ele><time>2026-04-18T12:48:26.932Z</time></trkpt><trkpt lat="43.5500417" lon="12.4195004"><ele>494.6</ele><time>2026-04-18T12:48:28.931Z</time></trkpt><trkpt lat="43.5499369" lon="12.4195106"><ele>497.0</ele><time>2026-04-18T12:48:30.932Z</time></trkpt><trkpt lat="43.5498163" lon="12.4194976"><ele>496.99999999999994</ele><time>2026-04-18T12:48:32.932Z</time></trkpt><trkpt lat="43.549687" lon="12.4194872"><ele>497.0</ele><time>2026-04-18T12:48:34.932Z</time></trkpt><trkpt lat="43.5496084" lon="12.4194904"><ele>497.0</ele><time>2026-04-18T12:48:35.933Z</time></trkpt><trkpt lat="43.5495326" lon="12.4194858"><ele>497.0</ele><time>2026-04-18T12:48:36.931Z</time></trkpt><trkpt lat="43.5494553" lon="12.4194889"><ele>496.99999999999994</ele><time>2026-04-18T12:48:37.933Z</time></trkpt><trkpt lat="43.5493738" lon="12.4194824"><ele>497.0</ele><time>2026-04-18T12:48:38.931Z</time></trkpt><trkpt lat="43.5492869" lon="12.4194749"><ele>500.49999999999994</ele><time>2026-04-18T12:48:39.932Z</time></trkpt><trkpt lat="43.5492028" lon="12.4194718"><ele>504.0</ele><time>2026-04-18T12:48:40.933Z</time></trkpt><trkpt lat="43.5491173" lon="12.4194749"><ele>507.5</ele><time>2026-04-18T12:48:41.932Z</time></trkpt><trkpt lat="43.54903" lon="12.419478"><ele>511.0</ele><time>2026-04-18T12:48:42.932Z</time></trkpt><trkpt lat="43.5489514" lon="12.4194815"><ele>514.5</ele><time>2026-04-18T12:48:43.931Z</time></trkpt><trkpt lat="43.5488501" lon="12.4195061"><ele>518.0</ele><time>2026-04-18T12:48:44.932Z</time></trkpt><trkpt lat="43.548754" lon="12.4195276"><ele>519.5</ele><time>2026-04-18T12:48:45.932Z</time></trkpt><trkpt lat="43.5486665" lon="12.419543"><ele>521.0</ele><time>2026-04-18T12:48:46.932Z</time></trkpt><trkpt lat="43.5485765" lon="12.4195644"><ele>522.5</ele><time>2026-04-18T12:48:47.932Z</time></trkpt><trkpt lat="43.5484911" lon="12.4195858"><ele>524.0</ele><time>2026-04-18T12:48:48.933Z</time></trkpt><trkpt lat="43.5484027" lon="12.4196098"><ele>525.5</ele><time>2026-04-18T12:48:49.932Z</time></trkpt><trkpt lat="43.5483166" lon="12.4196313"><ele>527.0</ele><time>2026-04-18T12:48:50.932Z</time></trkpt><trkpt lat="43.5482275" lon="12.4196378"><ele>527.0</ele><time>2026-04-18T12:48:51.932Z</time></trkpt><trkpt lat="43.5481388" lon="12.4196321"><ele>527.0</ele><time>2026-04-18T12:48:52.933Z</time></trkpt><trkpt lat="43.54805" lon="12.4196215"><ele>527.0</ele><time>2026-04-18T12:48:53.932Z</time></trkpt><trkpt lat="43.5478514" lon="12.4196057"><ele>527.0</ele><time>2026-04-18T12:48:55.932Z</time></trkpt><trkpt lat="43.54775" lon="12.4195911"><ele>529.4</ele><time>2026-04-18T12:48:56.932Z</time></trkpt><trkpt lat="43.5476471" lon="12.4195709"><ele>531.8000000000001</ele><time>2026-04-18T12:48:57.932Z</time></trkpt><trkpt lat="43.5475341" lon="12.4195575"><ele>534.2</ele><time>2026-04-18T12:48:58.932Z</time></trkpt><trkpt lat="43.5474269" lon="12.4195496"><ele>536.6</ele><time>2026-04-18T12:48:59.932Z</time></trkpt><trkpt lat="43.5473239" lon="12.4195385"><ele>539.0</ele><time>2026-04-18T12:49:00.932Z</time></trkpt><trkpt lat="43.5472232" lon="12.4195298"><ele>539.0</ele><time>2026-04-18T12:49:01.931Z</time></trkpt><trkpt lat="43.5471182" lon="12.4195192"><ele>539.0</ele><time>2026-04-18T12:49:02.933Z</time></trkpt><trkpt lat="43.5470136" lon="12.4195126"><ele>539.0</ele><time>2026-04-18T12:49:03.933Z</time></trkpt><trkpt lat="43.5469106" lon="12.4195045"><ele>539.0</ele><time>2026-04-18T12:49:04.933Z</time></trkpt><trkpt lat="43.5468045" lon="12.4194954"><ele>539.0</ele><time>2026-04-18T12:49:05.932Z</time></trkpt><trkpt lat="43.5466992" lon="12.4194939"><ele>540.6</ele><time>2026-04-18T12:49:06.933Z</time></trkpt><trkpt lat="43.5465943" lon="12.4194941"><ele>542.2</ele><time>2026-04-18T12:49:07.932Z</time></trkpt><trkpt lat="43.5464871" lon="12.4194853"><ele>543.8000000000001</ele><time>2026-04-18T12:49:08.932Z</time></trkpt><trkpt lat="43.5463786" lon="12.4194675"><ele>545.4</ele><time>2026-04-18T12:49:09.932Z</time></trkpt><trkpt lat="43.5462741" lon="12.419445"><ele>547.0</ele><time>2026-04-18T12:49:10.932Z</time></trkpt><trkpt lat="43.5461596" lon="12.41943"><ele>547.5</ele><time>2026-04-18T12:49:11.932Z</time></trkpt><trkpt lat="43.5460441" lon="12.4194152"><ele>548.0</ele><time>2026-04-18T12:49:12.932Z</time></trkpt><trkpt lat="43.5459294" lon="12.4193981"><ele>548.5</ele><time>2026-04-18T12:49:13.932Z</time></trkpt><trkpt lat="43.5458158" lon="12.4193787"><ele>549.0</ele><time>2026-04-18T12:49:14.931Z</time></trkpt><trkpt lat="43.5457055" lon="12.4193493"><ele>549.0</ele><time>2026-04-18T12:49:15.933Z</time></trkpt><trkpt lat="43.545598" lon="12.4193121"><ele>549.0</ele><time>2026-04-18T12:49:16.932Z</time></trkpt><trkpt lat="43.5454967" lon="12.4192671"><ele>549.0</ele><time>2026-04-18T12:49:17.933Z</time></trkpt><trkpt lat="43.5453972" lon="12.4192303"><ele>549.0</ele><time>2026-04-18T12:49:18.932Z</time></trkpt><trkpt lat="43.5453045" lon="12.4191949"><ele>549.0</ele><time>2026-04-18T12:49:19.932Z</time></trkpt><trkpt lat="43.5452162" lon="12.419158"><ele>549.2</ele><time>2026-04-18T12:49:20.933Z</time></trkpt><trkpt lat="43.5451222" lon="12.419124"><ele>549.4</ele><time>2026-04-18T12:49:21.932Z</time></trkpt><trkpt lat="43.5450303" lon="12.419092"><ele>549.6</ele><time>2026-04-18T12:49:22.932Z</time></trkpt><trkpt lat="43.5449439" lon="12.4190433"><ele>549.8</ele><time>2026-04-18T12:49:23.933Z</time></trkpt><trkpt lat="43.5448531" lon="12.418994"><ele>550.0</ele><time>2026-04-18T12:49:24.933Z</time></trkpt><trkpt lat="43.5447704" lon="12.4189439"><ele>550.0</ele><time>2026-04-18T12:49:25.933Z</time></trkpt><trkpt lat="43.5446779" lon="12.4189146"><ele>550.0</ele><time>2026-04-18T12:49:26.933Z</time></trkpt><trkpt lat="43.5445865" lon="12.4188927"><ele>550.0</ele><time>2026-04-18T12:49:27.932Z</time></trkpt><trkpt lat="43.544498" lon="12.4188766"><ele>550.0</ele><time>2026-04-18T12:49:28.931Z</time></trkpt><trkpt lat="43.5444139" lon="12.4188599"><ele>550.0</ele><time>2026-04-18T12:49:29.932Z</time></trkpt><trkpt lat="43.5443461" lon="12.4188371"><ele>550.0</ele><time>2026-04-18T12:49:30.931Z</time></trkpt><trkpt lat="43.5442865" lon="12.4187985"><ele>551.5714285714286</ele><time>2026-04-18T12:49:31.932Z</time></trkpt><trkpt lat="43.5442404" lon="12.4187347"><ele>553.1428571428571</ele><time>2026-04-18T12:49:32.932Z</time></trkpt><trkpt lat="43.5442111" lon="12.4186526"><ele>554.7142857142857</ele><time>2026-04-18T12:49:33.931Z</time></trkpt><trkpt lat="43.5441857" lon="12.4185687"><ele>556.2857142857142</ele><time>2026-04-18T12:49:34.933Z</time></trkpt><trkpt lat="43.5441574" lon="12.4184786"><ele>557.8571428571428</ele><time>2026-04-18T12:49:35.933Z</time></trkpt><trkpt lat="43.5441279" lon="12.4183883"><ele>559.4285714285714</ele><time>2026-04-18T12:49:36.933Z</time></trkpt><trkpt lat="43.5440876" lon="12.4182947"><ele>561.0</ele><time>2026-04-18T12:49:37.933Z</time></trkpt><trkpt lat="43.5440452" lon="12.4182017"><ele>561.0</ele><time>2026-04-18T12:49:38.932Z</time></trkpt><trkpt lat="43.5440049" lon="12.4180979"><ele>561.0</ele><time>2026-04-18T12:49:39.932Z</time></trkpt><trkpt lat="43.5439706" lon="12.4179954"><ele>561.0</ele><time>2026-04-18T12:49:40.931Z</time></trkpt><trkpt lat="43.5439364" lon="12.4178853"><ele>561.0</ele><time>2026-04-18T12:49:41.931Z</time></trkpt><trkpt lat="43.5438905" lon="12.4177919"><ele>561.0</ele><time>2026-04-18T12:49:42.932Z</time></trkpt><trkpt lat="43.5438402" lon="12.4177056"><ele>561.0</ele><time>2026-04-18T12:49:43.932Z</time></trkpt><trkpt lat="43.5437983" lon="12.4176159"><ele>564.0</ele><time>2026-04-18T12:49:44.931Z</time></trkpt><trkpt lat="43.5437856" lon="12.4175166"><ele>567.0</ele><time>2026-04-18T12:49:45.932Z</time></trkpt><trkpt lat="43.5437783" lon="12.4174129"><ele>570.0</ele><time>2026-04-18T12:49:46.932Z</time></trkpt><trkpt lat="43.5437782" lon="12.4173153"><ele>573.0</ele><time>2026-04-18T12:49:47.933Z</time></trkpt><trkpt lat="43.5438037" lon="12.4172256"><ele>576.0</ele><time>2026-04-18T12:49:48.932Z</time></trkpt><trkpt lat="43.543835" lon="12.4171162"><ele>579.0</ele><time>2026-04-18T12:49:49.932Z</time></trkpt><trkpt lat="43.5438629" lon="12.4170159"><ele>580.6666666666666</ele><time>2026-04-18T12:49:50.933Z</time></trkpt><trkpt lat="43.5438815" lon="12.4169081"><ele>582.3333333333334</ele><time>2026-04-18T12:49:51.932Z</time></trkpt><trkpt lat="43.5439006" lon="12.416797"><ele>584.0</ele><time>2026-04-18T12:49:52.932Z</time></trkpt><trkpt lat="43.5439162" lon="12.416686"><ele>585.6666666666667</ele><time>2026-04-18T12:49:53.932Z</time></trkpt><trkpt lat="43.5439214" lon="12.4165766"><ele>587.3333333333334</ele><time>2026-04-18T12:49:54.931Z</time></trkpt><trkpt lat="43.5439239" lon="12.416471"><ele>589.0</ele><time>2026-04-18T12:49:55.931Z</time></trkpt><trkpt lat="43.5439334" lon="12.4163545"><ele>590.8333333333334</ele><time>2026-04-18T12:49:56.932Z</time></trkpt><trkpt lat="43.5439231" lon="12.4162447"><ele>592.6666666666667</ele><time>2026-04-18T12:49:57.932Z</time></trkpt><trkpt lat="43.543908" lon="12.416132"><ele>594.5</ele><time>2026-04-18T12:49:58.933Z</time></trkpt><trkpt lat="43.5439027" lon="12.4160112"><ele>596.3333333333334</ele><time>2026-04-18T12:49:59.933Z</time></trkpt><trkpt lat="43.5439222" lon="12.4159054"><ele>598.1666666666666</ele><time>2026-04-18T12:50:00.933Z</time></trkpt><trkpt lat="43.5439483" lon="12.4158012"><ele>600.0</ele><time>2026-04-18T12:50:01.931Z</time></trkpt><trkpt lat="43.5439588" lon="12.415689"><ele>600.0</ele><time>2026-04-18T12:50:02.933Z</time></trkpt><trkpt lat="43.5439653" lon="12.4155785"><ele>600.0</ele><time>2026-04-18T12:50:03.932Z</time></trkpt><trkpt lat="43.5439597" lon="12.415459"><ele>600.0</ele><time>2026-04-18T12:50:04.931Z</time></trkpt><trkpt lat="43.5439557" lon="12.415346"><ele>600.0</ele><time>2026-04-18T12:50:05.933Z</time></trkpt><trkpt lat="43.5439521" lon="12.4152305"><ele>600.0</ele><time>2026-04-18T12:50:06.932Z</time></trkpt><trkpt lat="43.5439531" lon="12.4151161"><ele>600.0</ele><time>2026-04-18T12:50:07.931Z</time></trkpt><trkpt lat="43.543939" lon="12.4149978"><ele>598.8333333333334</ele><time>2026-04-18T12:50:08.932Z</time></trkpt><trkpt lat="43.5438703" lon="12.414883"><ele>597.6666666666666</ele><time>2026-04-18T12:50:09.932Z</time></trkpt><trkpt lat="43.5438371" lon="12.4147869"><ele>596.5</ele><time>2026-04-18T12:50:10.931Z</time></trkpt><trkpt lat="43.5437835" lon="12.4146886"><ele>595.3333333333333</ele><time>2026-04-18T12:50:11.932Z</time></trkpt><trkpt lat="43.543735" lon="12.4145919"><ele>594.1666666666666</ele><time>2026-04-18T12:50:12.932Z</time></trkpt><trkpt lat="43.5436859" lon="12.4145012"><ele>593.0</ele><time>2026-04-18T12:50:13.932Z</time></trkpt><trkpt lat="43.5436364" lon="12.4144057"><ele>593.0</ele><time>2026-04-18T12:50:14.933Z</time></trkpt><trkpt lat="43.543613" lon="12.4142866"><ele>593.0</ele><time>2026-04-18T12:50:15.933Z</time></trkpt><trkpt lat="43.5435943" lon="12.4141737"><ele>593.0</ele><time>2026-04-18T12:50:16.932Z</time></trkpt><trkpt lat="43.543579" lon="12.4140594"><ele>593.0</ele><time>2026-04-18T12:50:17.932Z</time></trkpt><trkpt lat="43.5435524" lon="12.4139464"><ele>593.0</ele><time>2026-04-18T12:50:18.933Z</time></trkpt><trkpt lat="43.5435324" lon="12.4138426"><ele>593.0</ele><time>2026-04-18T12:50:19.931Z</time></trkpt><trkpt lat="43.5434705" lon="12.4137415"><ele>598.1999999999999</ele><time>2026-04-18T12:50:20.931Z</time></trkpt><trkpt lat="43.5434086" lon="12.4136439"><ele>603.4</ele><time>2026-04-18T12:50:21.932Z</time></trkpt><trkpt lat="43.5433339" lon="12.4135557"><ele>608.5999999999999</ele><time>2026-04-18T12:50:22.932Z</time></trkpt><trkpt lat="43.5432544" lon="12.4134831"><ele>613.8</ele><time>2026-04-18T12:50:23.932Z</time></trkpt><trkpt lat="43.5431738" lon="12.4134305"><ele>619.0</ele><time>2026-04-18T12:50:24.932Z</time></trkpt><trkpt lat="43.5430939" lon="12.4133773"><ele>619.0</ele><time>2026-04-18T12:50:25.932Z</time></trkpt><trkpt lat="43.5430114" lon="12.4133247"><ele>619.0</ele><time>2026-04-18T12:50:26.932Z</time></trkpt><trkpt lat="43.5429575" lon="12.4132753"><ele>619.0</ele><time>2026-04-18T12:50:27.932Z</time></trkpt><trkpt lat="43.5429056" lon="12.4132093"><ele>619.0</ele><time>2026-04-18T12:50:28.932Z</time></trkpt><trkpt lat="43.5428508" lon="12.4131463"><ele>619.0</ele><time>2026-04-18T12:50:29.933Z</time></trkpt><trkpt lat="43.5427929" lon="12.4130811"><ele>619.0</ele><time>2026-04-18T12:50:30.933Z</time></trkpt><trkpt lat="43.5427354" lon="12.4130206"><ele>619.0</ele><time>2026-04-18T12:50:31.933Z</time></trkpt><trkpt lat="43.5426674" lon="12.4129778"><ele>620.0</ele><time>2026-04-18T12:50:32.933Z</time></trkpt><trkpt lat="43.5425988" lon="12.4129295"><ele>621.0</ele><time>2026-04-18T12:50:33.931Z</time></trkpt><trkpt lat="43.542533" lon="12.4128818"><ele>622.0</ele><time>2026-04-18T12:50:34.931Z</time></trkpt><trkpt lat="43.5424638" lon="12.4128365"><ele>623.0</ele><time>2026-04-18T12:50:35.932Z</time></trkpt><trkpt lat="43.54239" lon="12.4127922"><ele>624.0</ele><time>2026-04-18T12:50:36.932Z</time></trkpt><trkpt lat="43.5423318" lon="12.4127277"><ele>625.0</ele><time>2026-04-18T12:50:37.932Z</time></trkpt><trkpt lat="43.5422761" lon="12.4126494"><ele>625.0000000000001</ele><time>2026-04-18T12:50:38.932Z</time></trkpt><trkpt lat="43.5422137" lon="12.4125723"><ele>625.0</ele><time>2026-04-18T12:50:39.932Z</time></trkpt><trkpt lat="43.5421472" lon="12.4125091"><ele>625.0</ele><time>2026-04-18T12:50:40.931Z</time></trkpt><trkpt lat="43.5420897" lon="12.4124498"><ele>625.0</ele><time>2026-04-18T12:50:41.932Z</time></trkpt><trkpt lat="43.5420271" lon="12.4123991"><ele>625.0</ele><time>2026-04-18T12:50:42.932Z</time></trkpt><trkpt lat="43.5419694" lon="12.4123488"><ele>625.0000000000001</ele><time>2026-04-18T12:50:43.932Z</time></trkpt><trkpt lat="43.5419088" lon="12.4122949"><ele>625.0</ele><time>2026-04-18T12:50:44.932Z</time></trkpt><trkpt lat="43.5418571" lon="12.412232"><ele>622.2</ele><time>2026-04-18T12:50:45.932Z</time></trkpt><trkpt lat="43.5418191" lon="12.4120726"><ele>619.4</ele><time>2026-04-18T12:50:47.932Z</time></trkpt><trkpt lat="43.5418496" lon="12.4119251"><ele>616.6</ele><time>2026-04-18T12:50:49.932Z</time></trkpt><trkpt lat="43.5418744" lon="12.4118266"><ele>613.8</ele><time>2026-04-18T12:50:50.931Z</time></trkpt><trkpt lat="43.5419039" lon="12.4117336"><ele>611.0</ele><time>2026-04-18T12:50:51.931Z</time></trkpt><trkpt lat="43.5419244" lon="12.4116356"><ele>611.0</ele><time>2026-04-18T12:50:52.933Z</time></trkpt><trkpt lat="43.5419591" lon="12.4114651"><ele>611.0</ele><time>2026-04-18T12:50:54.932Z</time></trkpt><trkpt lat="43.5419703" lon="12.4113766"><ele>611.0</ele><time>2026-04-18T12:50:55.932Z</time></trkpt><trkpt lat="43.5419783" lon="12.41126"><ele>611.0</ele><time>2026-04-18T12:50:56.932Z</time></trkpt><trkpt lat="43.5419354" lon="12.4111584"><ele>611.0</ele><time>2026-04-18T12:50:57.933Z</time></trkpt><trkpt lat="43.54191" lon="12.4110678"><ele>611.0</ele><time>2026-04-18T12:50:58.933Z</time></trkpt><trkpt lat="43.5418572" lon="12.4109741"><ele>614.3333333333333</ele><time>2026-04-18T12:50:59.932Z</time></trkpt><trkpt lat="43.5418131" lon="12.4108952"><ele>617.6666666666666</ele><time>2026-04-18T12:51:00.933Z</time></trkpt><trkpt lat="43.5417603" lon="12.4108254"><ele>621.0</ele><time>2026-04-18T12:51:01.933Z</time></trkpt><trkpt lat="43.5416997" lon="12.4107606"><ele>624.3333333333334</ele><time>2026-04-18T12:51:02.933Z</time></trkpt><trkpt lat="43.5416196" lon="12.4107194"><ele>627.6666666666667</ele><time>2026-04-18T12:51:03.932Z</time></trkpt><trkpt lat="43.5415451" lon="12.410681"><ele>631.0</ele><time>2026-04-18T12:51:04.932Z</time></trkpt><trkpt lat="43.5414662" lon="12.4106529"><ele>631.0</ele><time>2026-04-18T12:51:05.933Z</time></trkpt><trkpt lat="43.5413856" lon="12.4106272"><ele>631.0</ele><time>2026-04-18T12:51:06.932Z</time></trkpt><trkpt lat="43.5413092" lon="12.4106026"><ele>631.0</ele><time>2026-04-18T12:51:07.931Z</time></trkpt><trkpt lat="43.5412299" lon="12.4105724"><ele>631.0</ele><time>2026-04-18T12:51:08.932Z</time></trkpt><trkpt lat="43.5411492" lon="12.4105393"><ele>631.0</ele><time>2026-04-18T12:51:09.932Z</time></trkpt><trkpt lat="43.5410705" lon="12.4104969"><ele>631.0</ele><time>2026-04-18T12:51:10.931Z</time></trkpt><trkpt lat="43.5410025" lon="12.4104553"><ele>629.3333333333334</ele><time>2026-04-18T12:51:11.931Z</time></trkpt><trkpt lat="43.5409424" lon="12.4104013"><ele>627.6666666666667</ele><time>2026-04-18T12:51:12.933Z</time></trkpt><trkpt lat="43.54088" lon="12.4103407"><ele>626.0</ele><time>2026-04-18T12:51:13.931Z</time></trkpt><trkpt lat="43.5408168" lon="12.410295"><ele>624.3333333333334</ele><time>2026-04-18T12:51:14.932Z</time></trkpt><trkpt lat="43.5407319" lon="12.4102397"><ele>622.6666666666666</ele><time>2026-04-18T12:51:16.931Z</time></trkpt><trkpt lat="43.5406712" lon="12.4101869"><ele>621.0</ele><time>2026-04-18T12:51:20.931Z</time></trkpt><trkpt lat="43.5407555" lon="12.410167"><ele>621.0</ele><time>2026-04-18T12:51:24.931Z</time></trkpt><trkpt lat="43.5408483" lon="12.4102041"><ele>621.0</ele><time>2026-04-18T12:51:26.931Z</time></trkpt><trkpt lat="43.5409108" lon="12.4102395"><ele>621.0</ele><time>2026-04-18T12:51:27.931Z</time></trkpt><trkpt lat="43.5410039" lon="12.4102967"><ele>621.0</ele><time>2026-04-18T12:51:29.932Z</time></trkpt><trkpt lat="43.5410815" lon="12.4102991"><ele>621.0</ele><time>2026-04-18T12:51:31.931Z</time></trkpt><trkpt lat="43.5411563" lon="12.410292"><ele>621.0</ele><time>2026-04-18T12:51:33.931Z</time></trkpt><trkpt lat="43.5412293" lon="12.4103199"><ele>623.5</ele><time>2026-04-18T12:51:35.931Z</time></trkpt><trkpt lat="43.5413054" lon="12.4103513"><ele>626.0</ele><time>2026-04-18T12:51:37.933Z</time></trkpt><trkpt lat="43.5413907" lon="12.4103735"><ele>628.5</ele><time>2026-04-18T12:51:39.932Z</time></trkpt><trkpt lat="43.5414636" lon="12.4103937"><ele>631.0</ele><time>2026-04-18T12:51:41.931Z</time></trkpt><trkpt lat="43.5415339" lon="12.4104038"><ele>633.5</ele><time>2026-04-18T12:51:43.932Z</time></trkpt><trkpt lat="43.5416076" lon="12.4104146"><ele>636.0</ele><time>2026-04-18T12:51:45.933Z</time></trkpt><trkpt lat="43.5416897" lon="12.4104502"><ele>635.0</ele><time>2026-04-18T12:51:48.932Z</time></trkpt><trkpt lat="43.5417652" lon="12.4105036"><ele>634.0</ele><time>2026-04-18T12:51:51.931Z</time></trkpt><trkpt lat="43.5418306" lon="12.4105413"><ele>633.0</ele><time>2026-04-18T12:51:53.932Z</time></trkpt><trkpt lat="43.5419078" lon="12.4105814"><ele>632.0</ele><time>2026-04-18T12:51:55.932Z</time></trkpt><trkpt lat="43.542016" lon="12.4106314"><ele>631.0</ele><time>2026-04-18T12:51:57.933Z</time></trkpt><trkpt lat="43.5421664" lon="12.4107875"><ele>633.8333333333334</ele><time>2026-04-18T12:51:58.931Z</time></trkpt><trkpt lat="43.5422163" lon="12.4109265"><ele>636.6666666666667</ele><time>2026-04-18T12:51:59.932Z</time></trkpt><trkpt lat="43.5422624" lon="12.4110256"><ele>639.5</ele><time>2026-04-18T12:52:00.932Z</time></trkpt><trkpt lat="43.5422993" lon="12.4111051"><ele>642.3333333333334</ele><time>2026-04-18T12:52:01.933Z</time></trkpt><trkpt lat="43.542344" lon="12.4112218"><ele>645.1666666666666</ele><time>2026-04-18T12:52:03.932Z</time></trkpt><trkpt lat="43.5423874" lon="12.4113169"><ele>648.0</ele><time>2026-04-18T12:52:06.931Z</time></trkpt><trkpt lat="43.5424294" lon="12.411426"><ele>648.0</ele><time>2026-04-18T12:52:09.933Z</time></trkpt><trkpt lat="43.5424759" lon="12.4115056"><ele>648.0</ele><time>2026-04-18T12:52:12.933Z</time></trkpt><trkpt lat="43.5425291" lon="12.41157"><ele>648.0</ele><time>2026-04-18T12:52:14.932Z</time></trkpt><trkpt lat="43.542573" lon="12.4116631"><ele>648.0</ele><time>2026-04-18T12:52:16.932Z</time></trkpt><trkpt lat="43.5426175" lon="12.4117341"><ele>648.0</ele><time>2026-04-18T12:52:18.931Z</time></trkpt><trkpt lat="43.5426703" lon="12.4117906"><ele>648.0</ele><time>2026-04-18T12:52:20.932Z</time></trkpt><trkpt lat="43.5427282" lon="12.4118418"><ele>648.0</ele><time>2026-04-18T12:52:22.932Z</time></trkpt><trkpt lat="43.5427873" lon="12.4118803"><ele>648.0</ele><time>2026-04-18T12:52:24.932Z</time></trkpt><trkpt lat="43.5428477" lon="12.41191"><ele>648.0</ele><time>2026-04-18T12:52:26.931Z</time></trkpt><trkpt lat="43.5429135" lon="12.4119231"><ele>648.0</ele><time>2026-04-18T12:52:28.932Z</time></trkpt><trkpt lat="43.5430151" lon="12.4119414"><ele>648.0</ele><time>2026-04-18T12:52:30.932Z</time></trkpt><trkpt lat="43.5430778" lon="12.4119494"><ele>648.0</ele><time>2026-04-18T12:52:31.932Z</time></trkpt><trkpt lat="43.5431823" lon="12.4119815"><ele>648.0</ele><time>2026-04-18T12:52:33.933Z</time></trkpt><trkpt lat="43.5432678" lon="12.4120287"><ele>647.0</ele><time>2026-04-18T12:52:35.931Z</time></trkpt><trkpt lat="43.543346" lon="12.4120775"><ele>646.0</ele><time>2026-04-18T12:52:37.932Z</time></trkpt><trkpt lat="43.5434216" lon="12.4121381"><ele>645.0</ele><time>2026-04-18T12:52:39.932Z</time></trkpt><trkpt lat="43.5435113" lon="12.4122144"><ele>644.0</ele><time>2026-04-18T12:52:41.932Z</time></trkpt><trkpt lat="43.5435923" lon="12.4122731"><ele>643.0</ele><time>2026-04-18T12:52:42.932Z</time></trkpt><trkpt lat="43.5437219" lon="12.4123963"><ele>646.3333333333334</ele><time>2026-04-18T12:52:43.932Z</time></trkpt><trkpt lat="43.5437685" lon="12.412461"><ele>649.6666666666667</ele><time>2026-04-18T12:52:45.933Z</time></trkpt><trkpt lat="43.5438333" lon="12.4125539"><ele>653.0</ele><time>2026-04-18T12:52:46.933Z</time></trkpt><trkpt lat="43.5438615" lon="12.4126458"><ele>656.3333333333334</ele><time>2026-04-18T12:52:49.931Z</time></trkpt><trkpt lat="43.5439146" lon="12.4127569"><ele>659.6666666666666</ele><time>2026-04-18T12:52:51.933Z</time></trkpt><trkpt lat="43.543966" lon="12.4128438"><ele>663.0</ele><time>2026-04-18T12:52:54.931Z</time></trkpt><trkpt lat="43.5440234" lon="12.4129047"><ele>663.0</ele><time>2026-04-18T12:52:57.931Z</time></trkpt><trkpt lat="43.5441257" lon="12.4129794"><ele>663.0</ele><time>2026-04-18T12:52:59.932Z</time></trkpt><trkpt lat="43.5442037" lon="12.4130555"><ele>663.0</ele><time>2026-04-18T12:53:01.932Z</time></trkpt><trkpt lat="43.5442633" lon="12.4131232"><ele>663.0</ele><time>2026-04-18T12:53:03.932Z</time></trkpt><trkpt lat="43.5443572" lon="12.4132545"><ele>663.0</ele><time>2026-04-18T12:53:04.932Z</time></trkpt><trkpt lat="43.5444243" lon="12.413346"><ele>660.3333333333334</ele><time>2026-04-18T12:53:06.932Z</time></trkpt><trkpt lat="43.5444777" lon="12.4134103"><ele>657.6666666666666</ele><time>2026-04-18T12:53:09.933Z</time></trkpt><trkpt lat="43.5445174" lon="12.4135237"><ele>655.0</ele><time>2026-04-18T12:53:12.931Z</time></trkpt><trkpt lat="43.5445471" lon="12.413632"><ele>652.3333333333333</ele><time>2026-04-18T12:53:14.931Z</time></trkpt><trkpt lat="43.5445825" lon="12.4137097"><ele>649.6666666666666</ele><time>2026-04-18T12:53:16.932Z</time></trkpt><trkpt lat="43.5446025" lon="12.4138032"><ele>647.0</ele><time>2026-04-18T12:53:18.932Z</time></trkpt><trkpt lat="43.544641" lon="12.4139137"><ele>647.0</ele><time>2026-04-18T12:53:21.931Z</time></trkpt><trkpt lat="43.5446861" lon="12.4140097"><ele>647.0</ele><time>2026-04-18T12:53:24.933Z</time></trkpt><trkpt lat="43.5447578" lon="12.4140457"><ele>647.0</ele><time>2026-04-18T12:53:27.933Z</time></trkpt><trkpt lat="43.5448345" lon="12.4141023"><ele>647.0</ele><time>2026-04-18T12:53:30.931Z</time></trkpt><trkpt lat="43.5448756" lon="12.4142092"><ele>647.0</ele><time>2026-04-18T12:53:33.932Z</time></trkpt><trkpt lat="43.5449038" lon="12.4143212"><ele>647.0</ele><time>2026-04-18T12:53:35.931Z</time></trkpt><trkpt lat="43.5449442" lon="12.4144583"><ele>647.0</ele><time>2026-04-18T12:53:37.932Z</time></trkpt><trkpt lat="43.5450105" lon="12.4146002"><ele>647.0</ele><time>2026-04-18T12:53:39.932Z</time></trkpt><trkpt lat="43.5450441" lon="12.4146822"><ele>647.0</ele><time>2026-04-18T12:53:41.932Z</time></trkpt><trkpt lat="43.5450733" lon="12.4147831"><ele>647.0</ele><time>2026-04-18T12:53:43.932Z</time></trkpt><trkpt lat="43.5450977" lon="12.4148976"><ele>647.0</ele><time>2026-04-18T12:53:46.933Z</time></trkpt><trkpt lat="43.5451399" lon="12.4149867"><ele>647.0</ele><time>2026-04-18T12:53:49.931Z</time></trkpt><trkpt lat="43.5452162" lon="12.4150498"><ele>646.7142857142857</ele><time>2026-04-18T12:53:53.932Z</time></trkpt><trkpt lat="43.5452715" lon="12.4150941"><ele>646.4285714285714</ele><time>2026-04-18T12:53:55.932Z</time></trkpt><trkpt lat="43.545313" lon="12.4151741"><ele>646.1428571428571</ele><time>2026-04-18T12:53:58.932Z</time></trkpt><trkpt lat="43.5453441" lon="12.4152783"><ele>645.8571428571429</ele><time>2026-04-18T12:54:01.931Z</time></trkpt><trkpt lat="43.5454097" lon="12.4153282"><ele>645.5714285714286</ele><time>2026-04-18T12:54:04.933Z</time></trkpt><trkpt lat="43.5454533" lon="12.4153968"><ele>645.2857142857143</ele><time>2026-04-18T12:54:14.931Z</time></trkpt><trkpt lat="43.5455292" lon="12.4154268"><ele>645.0</ele><time>2026-04-18T12:54:20.932Z</time></trkpt><trkpt lat="43.5455967" lon="12.4154302"><ele>644.5714285714286</ele><time>2026-04-18T12:55:50.931Z</time></trkpt><trkpt lat="43.5456536" lon="12.4154799"><ele>644.1428571428571</ele><time>2026-04-18T12:55:53.932Z</time></trkpt><trkpt lat="43.5457268" lon="12.4155258"><ele>643.7142857142857</ele><time>2026-04-18T12:55:56.932Z</time></trkpt><trkpt lat="43.5457976" lon="12.4155869"><ele>643.2857142857142</ele><time>2026-04-18T12:55:59.932Z</time></trkpt><trkpt lat="43.545842" lon="12.4156629"><ele>642.8571428571429</ele><time>2026-04-18T12:56:03.933Z</time></trkpt><trkpt lat="43.5459053" lon="12.4157085"><ele>642.4285714285713</ele><time>2026-04-18T12:56:07.933Z</time></trkpt><trkpt lat="43.54585" lon="12.4156546"><ele>642.0</ele><time>2026-04-18T12:56:25.932Z</time></trkpt><trkpt lat="43.5458035" lon="12.4155718"><ele>641.9999999999999</ele><time>2026-04-18T12:56:29.931Z</time></trkpt><trkpt lat="43.5457368" lon="12.4155249"><ele>642.0</ele><time>2026-04-18T12:56:33.932Z</time></trkpt><trkpt lat="43.54568" lon="12.4154705"><ele>642.0</ele><time>2026-04-18T12:56:37.932Z</time></trkpt><trkpt lat="43.5456149" lon="12.4154171"><ele>642.0</ele><time>2026-04-18T12:56:40.933Z</time></trkpt><trkpt lat="43.5455408" lon="12.415423"><ele>642.0</ele><time>2026-04-18T12:56:44.931Z</time></trkpt><trkpt lat="43.5454941" lon="12.4153518"><ele>641.9999999999999</ele><time>2026-04-18T12:56:48.932Z</time></trkpt><trkpt lat="43.5454725" lon="12.4152534"><ele>642.0</ele><time>2026-04-18T12:56:52.932Z</time></trkpt><trkpt lat="43.5454103" lon="12.4152748"><ele>642.5</ele><time>2026-04-18T12:57:00.931Z</time></trkpt><trkpt lat="43.5453525" lon="12.4153157"><ele>643.0</ele><time>2026-04-18T12:57:05.932Z</time></trkpt><trkpt lat="43.5452897" lon="12.4152679"><ele>643.5</ele><time>2026-04-18T12:57:14.932Z</time></trkpt><trkpt lat="43.5452689" lon="12.4151519"><ele>644.0</ele><time>2026-04-18T12:57:18.932Z</time></trkpt><trkpt lat="43.5452158" lon="12.4150491"><ele>644.5</ele><time>2026-04-18T12:57:21.932Z</time></trkpt><trkpt lat="43.5451531" lon="12.4149922"><ele>645.0</ele><time>2026-04-18T12:57:25.933Z</time></trkpt><trkpt lat="43.5450952" lon="12.4149304"><ele>645.0</ele><time>2026-04-18T12:57:29.932Z</time></trkpt><trkpt lat="43.5450559" lon="12.4148379"><ele>645.0</ele><time>2026-04-18T12:57:32.932Z</time></trkpt><trkpt lat="43.5450182" lon="12.4147195"><ele>645.0</ele><time>2026-04-18T12:57:35.933Z</time></trkpt><trkpt lat="43.544984" lon="12.4146199"><ele>645.0</ele><time>2026-04-18T12:57:37.933Z</time></trkpt><trkpt lat="43.5449516" lon="12.4144946"><ele>645.0</ele><time>2026-04-18T12:57:39.932Z</time></trkpt><trkpt lat="43.5449225" lon="12.4143664"><ele>645.0</ele><time>2026-04-18T12:57:41.931Z</time></trkpt><trkpt lat="43.5448907" lon="12.4142716"><ele>645.1666666666666</ele><time>2026-04-18T12:57:43.931Z</time></trkpt><trkpt lat="43.5448603" lon="12.4141773"><ele>645.3333333333334</ele><time>2026-04-18T12:57:45.931Z</time></trkpt><trkpt lat="43.5448276" lon="12.4140641"><ele>645.5</ele><time>2026-04-18T12:57:48.931Z</time></trkpt><trkpt lat="43.5447475" lon="12.4140191"><ele>645.6666666666667</ele><time>2026-04-18T12:57:52.932Z</time></trkpt><trkpt lat="43.5446879" lon="12.4139867"><ele>645.8333333333334</ele><time>2026-04-18T12:57:55.932Z</time></trkpt><trkpt lat="43.5446548" lon="12.4139082"><ele>646.0</ele><time>2026-04-18T12:57:58.932Z</time></trkpt><trkpt lat="43.5446108" lon="12.4137872"><ele>646.0</ele><time>2026-04-18T12:58:01.931Z</time></trkpt><trkpt lat="43.5445988" lon="12.4137016"><ele>646.0</ele><time>2026-04-18T12:58:02.932Z</time></trkpt><trkpt lat="43.5445877" lon="12.4135725"><ele>646.0</ele><time>2026-04-18T12:58:04.933Z</time></trkpt><trkpt lat="43.5445725" lon="12.4134717"><ele>646.0</ele><time>2026-04-18T12:58:06.932Z</time></trkpt><trkpt lat="43.5445536" lon="12.4133583"><ele>646.0</ele><time>2026-04-18T12:58:10.932Z</time></trkpt><trkpt lat="43.5445643" lon="12.4132721"><ele>646.0</ele><time>2026-04-18T12:58:13.932Z</time></trkpt><trkpt lat="43.5445817" lon="12.4131628"><ele>646.0</ele><time>2026-04-18T12:58:18.932Z</time></trkpt><trkpt lat="43.5446158" lon="12.4130582"><ele>646.0</ele><time>2026-04-18T12:58:22.931Z</time></trkpt><trkpt lat="43.5445751" lon="12.4129362"><ele>646.0</ele><time>2026-04-18T12:58:25.932Z</time></trkpt><trkpt lat="43.5445435" lon="12.412842"><ele>646.0</ele><time>2026-04-18T12:58:28.932Z</time></trkpt><trkpt lat="43.5445441" lon="12.4127283"><ele>646.0</ele><time>2026-04-18T12:58:31.931Z</time></trkpt><trkpt lat="43.5445595" lon="12.4126386"><ele>646.0</ele><time>2026-04-18T12:58:32.931Z</time></trkpt><trkpt lat="43.5445659" lon="12.4125483"><ele>648.4285714285714</ele><time>2026-04-18T12:58:34.931Z</time></trkpt><trkpt lat="43.5445193" lon="12.4124875"><ele>650.8571428571429</ele><time>2026-04-18T12:58:38.931Z</time></trkpt><trkpt lat="43.5444913" lon="12.4123974"><ele>653.2857142857142</ele><time>2026-04-18T12:59:23.932Z</time></trkpt><trkpt lat="43.5444857" lon="12.4122876"><ele>655.7142857142858</ele><time>2026-04-18T12:59:27.932Z</time></trkpt><trkpt lat="43.5444497" lon="12.4122147"><ele>658.1428571428571</ele><time>2026-04-18T12:59:30.932Z</time></trkpt><trkpt lat="43.544413" lon="12.4121339"><ele>660.5714285714286</ele><time>2026-04-18T12:59:32.932Z</time></trkpt><trkpt lat="43.5443982" lon="12.4120123"><ele>663.0</ele><time>2026-04-18T12:59:34.932Z</time></trkpt><trkpt lat="43.5444056" lon="12.411912"><ele>664.5</ele><time>2026-04-18T12:59:36.933Z</time></trkpt><trkpt lat="43.544453" lon="12.4118095"><ele>666.0</ele><time>2026-04-18T12:59:38.932Z</time></trkpt><trkpt lat="43.5445255" lon="12.4117125"><ele>667.5</ele><time>2026-04-18T12:59:40.932Z</time></trkpt><trkpt lat="43.5445839" lon="12.4116281"><ele>669.0</ele><time>2026-04-18T12:59:42.931Z</time></trkpt><trkpt lat="43.5446072" lon="12.4115287"><ele>670.5</ele><time>2026-04-18T12:59:45.932Z</time></trkpt><trkpt lat="43.5446262" lon="12.4114412"><ele>672.0</ele><time>2026-04-18T12:59:48.932Z</time></trkpt><trkpt lat="43.5446511" lon="12.4113545"><ele>672.0</ele><time>2026-04-18T13:00:00.932Z</time></trkpt><trkpt lat="43.5446773" lon="12.4112573"><ele>672.0</ele><time>2026-04-18T13:00:05.932Z</time></trkpt><trkpt lat="43.5447605" lon="12.411195"><ele>672.0</ele><time>2026-04-18T13:00:10.933Z</time></trkpt><trkpt lat="43.5448181" lon="12.4111476"><ele>672.0</ele><time>2026-04-18T13:00:13.932Z</time></trkpt><trkpt lat="43.5448836" lon="12.4111042"><ele>672.0</ele><time>2026-04-18T13:00:17.933Z</time></trkpt><trkpt lat="43.5449617" lon="12.4111033"><ele>672.0</ele><time>2026-04-18T13:00:19.931Z</time></trkpt><trkpt lat="43.545039" lon="12.4110761"><ele>672.0</ele><time>2026-04-18T13:00:21.933Z</time></trkpt><trkpt lat="43.5451268" lon="12.4110792"><ele>672.0</ele><time>2026-04-18T13:00:25.93Z</time></trkpt><trkpt lat="43.5451981" lon="12.4110727"><ele>672.0</ele><time>2026-04-18T13:00:27.931Z</time></trkpt><trkpt lat="43.5452558" lon="12.4109943"><ele>672.0</ele><time>2026-04-18T13:00:29.932Z</time></trkpt><trkpt lat="43.5452763" lon="12.4108689"><ele>672.0</ele><time>2026-04-18T13:00:31.93Z</time></trkpt><trkpt lat="43.5453056" lon="12.4107525"><ele>672.0</ele><time>2026-04-18T13:00:33.931Z</time></trkpt><trkpt lat="43.5453572" lon="12.4106779"><ele>671.3333333333334</ele><time>2026-04-18T13:00:35.932Z</time></trkpt><trkpt lat="43.5454068" lon="12.410595"><ele>670.6666666666666</ele><time>2026-04-18T13:00:37.93Z</time></trkpt><trkpt lat="43.5454804" lon="12.4104889"><ele>670.0</ele><time>2026-04-18T13:00:39.93Z</time></trkpt><trkpt lat="43.5455377" lon="12.4104128"><ele>669.3333333333333</ele><time>2026-04-18T13:00:41.931Z</time></trkpt><trkpt lat="43.5456008" lon="12.4103635"><ele>668.6666666666666</ele><time>2026-04-18T13:00:43.932Z</time></trkpt><trkpt lat="43.5456802" lon="12.4103466"><ele>668.0</ele><time>2026-04-18T13:00:46.931Z</time></trkpt><trkpt lat="43.5457964" lon="12.4103374"><ele>668.0</ele><time>2026-04-18T13:00:48.931Z</time></trkpt><trkpt lat="43.5458763" lon="12.4103179"><ele>668.0</ele><time>2026-04-18T13:00:49.931Z</time></trkpt><trkpt lat="43.5460006" lon="12.410295"><ele>668.0</ele><time>2026-04-18T13:00:51.93Z</time></trkpt><trkpt lat="43.5461015" lon="12.410273"><ele>668.0</ele><time>2026-04-18T13:00:53.931Z</time></trkpt><trkpt lat="43.5462121" lon="12.4102942"><ele>668.0</ele><time>2026-04-18T13:00:54.931Z</time></trkpt><trkpt lat="43.5462867" lon="12.4103024"><ele>666.3333333333333</ele><time>2026-04-18T13:00:55.931Z</time></trkpt><trkpt lat="43.5463536" lon="12.4103074"><ele>664.6666666666666</ele><time>2026-04-18T13:00:56.93Z</time></trkpt><trkpt lat="43.546465" lon="12.4103249"><ele>663.0</ele><time>2026-04-18T13:00:58.932Z</time></trkpt><trkpt lat="43.5465348" lon="12.4103066"><ele>661.3333333333334</ele><time>2026-04-18T13:01:00.931Z</time></trkpt><trkpt lat="43.546599" lon="12.4102858"><ele>659.6666666666667</ele><time>2026-04-18T13:01:02.931Z</time></trkpt><trkpt lat="43.5466958" lon="12.4102863"><ele>658.0</ele><time>2026-04-18T13:01:05.932Z</time></trkpt><trkpt lat="43.5467706" lon="12.4103358"><ele>658.0</ele><time>2026-04-18T13:01:07.931Z</time></trkpt><trkpt lat="43.5468308" lon="12.4103977"><ele>658.0</ele><time>2026-04-18T13:01:09.932Z</time></trkpt><trkpt lat="43.5469102" lon="12.41041"><ele>658.0</ele><time>2026-04-18T13:01:11.931Z</time></trkpt><trkpt lat="43.5469975" lon="12.4103854"><ele>658.0</ele><time>2026-04-18T13:01:13.932Z</time></trkpt><trkpt lat="43.5470693" lon="12.4103613"><ele>658.0</ele><time>2026-04-18T13:01:15.932Z</time></trkpt><trkpt lat="43.5471445" lon="12.4103383"><ele>658.0</ele><time>2026-04-18T13:01:17.932Z</time></trkpt><trkpt lat="43.5472129" lon="12.4103167"><ele>656.0</ele><time>2026-04-18T13:01:19.931Z</time></trkpt><trkpt lat="43.5472988" lon="12.410302"><ele>654.0</ele><time>2026-04-18T13:01:22.931Z</time></trkpt><trkpt lat="43.5473619" lon="12.4103068"><ele>652.0</ele><time>2026-04-18T13:01:24.932Z</time></trkpt><trkpt lat="43.5474298" lon="12.4102973"><ele>650.0</ele><time>2026-04-18T13:01:26.932Z</time></trkpt><trkpt lat="43.5475027" lon="12.4102698"><ele>648.0</ele><time>2026-04-18T13:01:29.93Z</time></trkpt><trkpt lat="43.547465" lon="12.4101929"><ele>646.0</ele><time>2026-04-18T13:01:35.931Z</time></trkpt><trkpt lat="43.5473653" lon="12.4101331"><ele>646.0</ele><time>2026-04-18T13:02:21.931Z</time></trkpt><trkpt lat="43.5472942" lon="12.4100582"><ele>646.0</ele><time>2026-04-18T13:02:23.931Z</time></trkpt><trkpt lat="43.5472239" lon="12.4099677"><ele>646.0</ele><time>2026-04-18T13:02:25.93Z</time></trkpt><trkpt lat="43.5471668" lon="12.4099039"><ele>646.0</ele><time>2026-04-18T13:02:27.932Z</time></trkpt><trkpt lat="43.5470853" lon="12.409829"><ele>646.0</ele><time>2026-04-18T13:02:29.931Z</time></trkpt><trkpt lat="43.5470214" lon="12.4097586"><ele>646.0</ele><time>2026-04-18T13:02:31.931Z</time></trkpt><trkpt lat="43.5469574" lon="12.4096975"><ele>645.7142857142858</ele><time>2026-04-18T13:02:34.931Z</time></trkpt><trkpt lat="43.5468987" lon="12.4096429"><ele>645.4285714285714</ele><time>2026-04-18T13:02:36.931Z</time></trkpt><trkpt lat="43.5468341" lon="12.4095797"><ele>645.1428571428571</ele><time>2026-04-18T13:02:38.931Z</time></trkpt><trkpt lat="43.5467798" lon="12.4095274"><ele>644.8571428571429</ele><time>2026-04-18T13:02:42.931Z</time></trkpt><trkpt lat="43.5467243" lon="12.4094783"><ele>644.5714285714286</ele><time>2026-04-18T13:02:47.932Z</time></trkpt><trkpt lat="43.546662" lon="12.40946"><ele>644.2857142857143</ele><time>2026-04-18T13:02:50.931Z</time></trkpt><trkpt lat="43.5465834" lon="12.4094062"><ele>644.0</ele><time>2026-04-18T13:02:53.93Z</time></trkpt><trkpt lat="43.546526" lon="12.409365"><ele>644.0</ele><time>2026-04-18T13:02:55.931Z</time></trkpt><trkpt lat="43.5464339" lon="12.4092986"><ele>644.0</ele><time>2026-04-18T13:02:58.931Z</time></trkpt><trkpt lat="43.5463365" lon="12.4092529"><ele>644.0</ele><time>2026-04-18T13:03:00.93Z</time></trkpt><trkpt lat="43.5462188" lon="12.4091876"><ele>644.0</ele><time>2026-04-18T13:03:02.931Z</time></trkpt><trkpt lat="43.5461555" lon="12.4091353"><ele>644.0</ele><time>2026-04-18T13:03:03.931Z</time></trkpt><trkpt lat="43.5460388" lon="12.4090104"><ele>645.75</ele><time>2026-04-18T13:03:04.93Z</time></trkpt><trkpt lat="43.5459191" lon="12.4089396"><ele>647.5</ele><time>2026-04-18T13:03:06.93Z</time></trkpt><trkpt lat="43.5458447" lon="12.4088523"><ele>649.25</ele><time>2026-04-18T13:03:08.931Z</time></trkpt><trkpt lat="43.5457328" lon="12.4088138"><ele>651.0</ele><time>2026-04-18T13:03:10.932Z</time></trkpt><trkpt lat="43.5456452" lon="12.4087292"><ele>647.4285714285714</ele><time>2026-04-18T13:03:14.931Z</time></trkpt><trkpt lat="43.5455918" lon="12.4086662"><ele>643.8571428571429</ele><time>2026-04-18T13:03:17.931Z</time></trkpt><trkpt lat="43.5455351" lon="12.408614"><ele>640.2857142857142</ele><time>2026-04-18T13:03:20.93Z</time></trkpt><trkpt lat="43.5454715" lon="12.4085757"><ele>636.7142857142858</ele><time>2026-04-18T13:03:23.93Z</time></trkpt><trkpt lat="43.5454052" lon="12.4085253"><ele>633.1428571428571</ele><time>2026-04-18T13:03:26.93Z</time></trkpt><trkpt lat="43.5453399" lon="12.4084708"><ele>629.5714285714286</ele><time>2026-04-18T13:03:29.931Z</time></trkpt><trkpt lat="43.5452871" lon="12.4083875"><ele>626.0</ele><time>2026-04-18T13:03:32.931Z</time></trkpt><trkpt lat="43.5452248" lon="12.4083373"><ele>625.4</ele><time>2026-04-18T13:03:34.931Z</time></trkpt><trkpt lat="43.5451505" lon="12.4082237"><ele>624.8</ele><time>2026-04-18T13:03:36.931Z</time></trkpt><trkpt lat="43.5450737" lon="12.4081634"><ele>624.1999999999999</ele><time>2026-04-18T13:03:38.932Z</time></trkpt><trkpt lat="43.5450089" lon="12.4081244"><ele>623.6</ele><time>2026-04-18T13:03:40.931Z</time></trkpt><trkpt lat="43.5448897" lon="12.4081017"><ele>623.0</ele><time>2026-04-18T13:03:59.931Z</time></trkpt><trkpt lat="43.5448277" lon="12.4080297"><ele>618.6</ele><time>2026-04-18T13:04:03.932Z</time></trkpt><trkpt lat="43.5447672" lon="12.4079479"><ele>614.1999999999999</ele><time>2026-04-18T13:04:06.93Z</time></trkpt><trkpt lat="43.5447111" lon="12.407862"><ele>609.8</ele><time>2026-04-18T13:04:09.93Z</time></trkpt><trkpt lat="43.5446651" lon="12.4077661"><ele>605.4</ele><time>2026-04-18T13:04:11.931Z</time></trkpt><trkpt lat="43.5446315" lon="12.4076212"><ele>601.0</ele><time>2026-04-18T13:04:12.931Z</time></trkpt><trkpt lat="43.5445511" lon="12.4075442"><ele>602.1666666666667</ele><time>2026-04-18T13:04:14.93Z</time></trkpt><trkpt lat="43.5444823" lon="12.4075642"><ele>603.3333333333334</ele><time>2026-04-18T13:04:16.93Z</time></trkpt><trkpt lat="43.5444236" lon="12.4075311"><ele>604.5</ele><time>2026-04-18T13:04:18.931Z</time></trkpt><trkpt lat="43.5443514" lon="12.4075212"><ele>605.6666666666666</ele><time>2026-04-18T13:04:21.932Z</time></trkpt><trkpt lat="43.5442457" lon="12.4074865"><ele>606.8333333333333</ele><time>2026-04-18T13:04:24.931Z</time></trkpt><trkpt lat="43.5441453" lon="12.4074582"><ele>608.0</ele><time>2026-04-18T13:04:26.931Z</time></trkpt><trkpt lat="43.5440628" lon="12.4074288"><ele>608.0</ele><time>2026-04-18T13:04:28.932Z</time></trkpt><trkpt lat="43.5439709" lon="12.4073863"><ele>608.0</ele><time>2026-04-18T13:04:30.932Z</time></trkpt><trkpt lat="43.5438597" lon="12.4073412"><ele>608.0</ele><time>2026-04-18T13:04:32.932Z</time></trkpt><trkpt lat="43.5437846" lon="12.4073576"><ele>608.0</ele><time>2026-04-18T13:04:38.931Z</time></trkpt><trkpt lat="43.5437092" lon="12.407367"><ele>608.0</ele><time>2026-04-18T13:04:41.93Z</time></trkpt><trkpt lat="43.5436461" lon="12.4073968"><ele>608.0</ele><time>2026-04-18T13:04:43.931Z</time></trkpt><trkpt lat="43.5435567" lon="12.4075093"><ele>606.0</ele><time>2026-04-18T13:04:45.931Z</time></trkpt><trkpt lat="43.5434551" lon="12.4076078"><ele>604.0</ele><time>2026-04-18T13:04:47.931Z</time></trkpt><trkpt lat="43.5433919" lon="12.4076592"><ele>602.0</ele><time>2026-04-18T13:04:48.932Z</time></trkpt><trkpt lat="43.5433292" lon="12.4077033"><ele>600.0</ele><time>2026-04-18T13:04:49.931Z</time></trkpt><trkpt lat="43.5432464" lon="12.4077378"><ele>598.0</ele><time>2026-04-18T13:04:50.931Z</time></trkpt><trkpt lat="43.5431742" lon="12.4077508"><ele>596.0</ele><time>2026-04-18T13:04:51.93Z</time></trkpt><trkpt lat="43.543124" lon="12.4078114"><ele>596.0</ele><time>2026-04-18T13:04:52.931Z</time></trkpt><trkpt lat="43.5430692" lon="12.4078575"><ele>596.0</ele><time>2026-04-18T13:04:53.931Z</time></trkpt><trkpt lat="43.5430209" lon="12.4079334"><ele>596.0</ele><time>2026-04-18T13:04:54.931Z</time></trkpt><trkpt lat="43.5429529" lon="12.4080769"><ele>596.0</ele><time>2026-04-18T13:04:56.931Z</time></trkpt><trkpt lat="43.542879" lon="12.4082206"><ele>596.0</ele><time>2026-04-18T13:04:58.932Z</time></trkpt><trkpt lat="43.5428442" lon="12.4083667"><ele>595.0</ele><time>2026-04-18T13:04:59.931Z</time></trkpt><trkpt lat="43.5428496" lon="12.4084872"><ele>594.0</ele><time>2026-04-18T13:05:01.932Z</time></trkpt><trkpt lat="43.5427984" lon="12.4085491"><ele>593.0</ele><time>2026-04-18T13:05:03.931Z</time></trkpt><trkpt lat="43.5427242" lon="12.4085562"><ele>592.0</ele><time>2026-04-18T13:05:07.93Z</time></trkpt><trkpt lat="43.5426627" lon="12.4085936"><ele>591.0</ele><time>2026-04-18T13:05:09.93Z</time></trkpt><trkpt lat="43.5425933" lon="12.4086505"><ele>590.0</ele><time>2026-04-18T13:05:12.93Z</time></trkpt><trkpt lat="43.5425168" lon="12.4087056"><ele>590.0</ele><time>2026-04-18T13:05:14.93Z</time></trkpt><trkpt lat="43.5424469" lon="12.4086444"><ele>590.0</ele><time>2026-04-18T13:05:19.931Z</time></trkpt><trkpt lat="43.5423954" lon="12.408547"><ele>590.0</ele><time>2026-04-18T13:05:22.931Z</time></trkpt><trkpt lat="43.5423859" lon="12.4084601"><ele>590.0</ele><time>2026-04-18T13:05:25.931Z</time></trkpt><trkpt lat="43.5423029" lon="12.408404"><ele>590.0</ele><time>2026-04-18T13:05:28.93Z</time></trkpt><trkpt lat="43.5422173" lon="12.4083546"><ele>590.0</ele><time>2026-04-18T13:05:31.931Z</time></trkpt><trkpt lat="43.5421578" lon="12.4083253"><ele>588.0</ele><time>2026-04-18T13:05:33.932Z</time></trkpt><trkpt lat="43.5419483" lon="12.408203"><ele>586.0</ele><time>2026-04-18T13:05:35.931Z</time></trkpt><trkpt lat="43.541914" lon="12.4082836"><ele>584.0</ele><time>2026-04-18T13:05:37.931Z</time></trkpt><trkpt lat="43.5418328" lon="12.4083223"><ele>582.0</ele><time>2026-04-18T13:05:40.93Z</time></trkpt><trkpt lat="43.5417631" lon="12.4083286"><ele>582.0</ele><time>2026-04-18T13:05:42.931Z</time></trkpt><trkpt lat="43.541699" lon="12.4083548"><ele>582.0</ele><time>2026-04-18T13:05:43.932Z</time></trkpt><trkpt lat="43.5415877" lon="12.4084094"><ele>582.0</ele><time>2026-04-18T13:05:45.931Z</time></trkpt><trkpt lat="43.5414702" lon="12.4084599"><ele>582.0</ele><time>2026-04-18T13:05:47.93Z</time></trkpt><trkpt lat="43.5413675" lon="12.4084984"><ele>582.0</ele><time>2026-04-18T13:05:49.932Z</time></trkpt><trkpt lat="43.5412692" lon="12.4085798"><ele>580.1666666666666</ele><time>2026-04-18T13:05:51.931Z</time></trkpt><trkpt lat="43.5411986" lon="12.4086718"><ele>578.3333333333334</ele><time>2026-04-18T13:05:53.931Z</time></trkpt><trkpt lat="43.5411435" lon="12.4087708"><ele>576.5</ele><time>2026-04-18T13:05:55.932Z</time></trkpt><trkpt lat="43.5410559" lon="12.408836"><ele>574.6666666666667</ele><time>2026-04-18T13:05:57.931Z</time></trkpt><trkpt lat="43.5409984" lon="12.4087543"><ele>572.8333333333334</ele><time>2026-04-18T13:06:00.932Z</time></trkpt><trkpt lat="43.5409453" lon="12.4086785"><ele>571.0</ele><time>2026-04-18T13:06:02.932Z</time></trkpt><trkpt lat="43.5409167" lon="12.4085761"><ele>571.0</ele><time>2026-04-18T13:06:04.931Z</time></trkpt><trkpt lat="43.5408743" lon="12.4084881"><ele>571.0</ele><time>2026-04-18T13:06:06.931Z</time></trkpt><trkpt lat="43.5408347" lon="12.4083993"><ele>571.0</ele><time>2026-04-18T13:06:09.931Z</time></trkpt><trkpt lat="43.5408328" lon="12.4083047"><ele>571.0</ele><time>2026-04-18T13:06:11.931Z</time></trkpt><trkpt lat="43.5408783" lon="12.4082071"><ele>571.0</ele><time>2026-04-18T13:06:14.931Z</time></trkpt><trkpt lat="43.5409417" lon="12.4081972"><ele>571.0</ele><time>2026-04-18T13:06:17.931Z</time></trkpt><trkpt lat="43.5410002" lon="12.408235"><ele>571.0</ele><time>2026-04-18T13:06:19.931Z</time></trkpt><trkpt lat="43.5410668" lon="12.408232"><ele>571.0</ele><time>2026-04-18T13:06:21.93Z</time></trkpt><trkpt lat="43.5410957" lon="12.4081365"><ele>571.0</ele><time>2026-04-18T13:06:24.931Z</time></trkpt><trkpt lat="43.5411201" lon="12.4080286"><ele>571.0</ele><time>2026-04-18T13:06:28.932Z</time></trkpt><trkpt lat="43.5411729" lon="12.4079561"><ele>571.0</ele><time>2026-04-18T13:06:30.932Z</time></trkpt><trkpt lat="43.5412368" lon="12.4078819"><ele>571.0</ele><time>2026-04-18T13:06:32.931Z</time></trkpt><trkpt lat="43.5412949" lon="12.4078358"><ele>571.0</ele><time>2026-04-18T13:06:35.931Z</time></trkpt><trkpt lat="43.5413657" lon="12.4077915"><ele>568.0</ele><time>2026-04-18T13:06:44.931Z</time></trkpt><trkpt lat="43.5414179" lon="12.4077117"><ele>565.0</ele><time>2026-04-18T13:06:46.932Z</time></trkpt><trkpt lat="43.5414687" lon="12.4076541"><ele>562.0</ele><time>2026-04-18T13:06:48.932Z</time></trkpt><trkpt lat="43.5415172" lon="12.4075774"><ele>559.0</ele><time>2026-04-18T13:06:50.931Z</time></trkpt><trkpt lat="43.5415738" lon="12.4075061"><ele>556.0</ele><time>2026-04-18T13:06:52.932Z</time></trkpt><trkpt lat="43.5416228" lon="12.4074316"><ele>553.0</ele><time>2026-04-18T13:06:54.931Z</time></trkpt><trkpt lat="43.5416677" lon="12.407369"><ele>550.0</ele><time>2026-04-18T13:06:56.931Z</time></trkpt><trkpt lat="43.5417158" lon="12.4072927"><ele>550.0</ele><time>2026-04-18T13:06:58.93Z</time></trkpt><trkpt lat="43.5417579" lon="12.4071971"><ele>550.0</ele><time>2026-04-18T13:06:59.931Z</time></trkpt><trkpt lat="43.5417972" lon="12.4070873"><ele>550.0</ele><time>2026-04-18T13:07:01.931Z</time></trkpt><trkpt lat="43.5418252" lon="12.4069804"><ele>550.0</ele><time>2026-04-18T13:07:04.932Z</time></trkpt><trkpt lat="43.5418389" lon="12.4068558"><ele>550.0</ele><time>2026-04-18T13:07:07.932Z</time></trkpt><trkpt lat="43.5417829" lon="12.4067904"><ele>550.0</ele><time>2026-04-18T13:07:10.932Z</time></trkpt><trkpt lat="43.5417012" lon="12.4067825"><ele>546.6666666666667</ele><time>2026-04-18T13:07:13.93Z</time></trkpt><trkpt lat="43.5416256" lon="12.4067854"><ele>543.3333333333334</ele><time>2026-04-18T13:07:16.932Z</time></trkpt><trkpt lat="43.5415373" lon="12.4067307"><ele>540.0</ele><time>2026-04-18T13:07:19.93Z</time></trkpt><trkpt lat="43.5414871" lon="12.4066684"><ele>536.6666666666666</ele><time>2026-04-18T13:07:26.93Z</time></trkpt><trkpt lat="43.5414105" lon="12.4066314"><ele>533.3333333333333</ele><time>2026-04-18T13:07:32.931Z</time></trkpt><trkpt lat="43.5413177" lon="12.4067064"><ele>530.0</ele><time>2026-04-18T13:07:34.932Z</time></trkpt><trkpt lat="43.5412194" lon="12.4067511"><ele>531.0</ele><time>2026-04-18T13:07:35.93Z</time></trkpt><trkpt lat="43.5411389" lon="12.4067588"><ele>532.0</ele><time>2026-04-18T13:07:37.931Z</time></trkpt><trkpt lat="43.5410511" lon="12.4067607"><ele>533.0</ele><time>2026-04-18T13:07:39.931Z</time></trkpt><trkpt lat="43.5409551" lon="12.406766"><ele>534.0</ele><time>2026-04-18T13:07:41.93Z</time></trkpt><trkpt lat="43.5408918" lon="12.4067612"><ele>535.0</ele><time>2026-04-18T13:07:42.931Z</time></trkpt><trkpt lat="43.5408016" lon="12.40677"><ele>536.0</ele><time>2026-04-18T13:07:46.931Z</time></trkpt><trkpt lat="43.5407369" lon="12.4067808"><ele>536.0</ele><time>2026-04-18T13:07:50.93Z</time></trkpt><trkpt lat="43.540672" lon="12.4067815"><ele>536.0</ele><time>2026-04-18T13:07:53.931Z</time></trkpt><trkpt lat="43.5405842" lon="12.4067688"><ele>536.0</ele><time>2026-04-18T13:07:57.931Z</time></trkpt><trkpt lat="43.5405162" lon="12.406782"><ele>536.0</ele><time>2026-04-18T13:07:59.931Z</time></trkpt><trkpt lat="43.5404349" lon="12.4067667"><ele>536.0</ele><time>2026-04-18T13:08:02.931Z</time></trkpt><trkpt lat="43.5403541" lon="12.4067437"><ele>536.0</ele><time>2026-04-18T13:08:05.931Z</time></trkpt><trkpt lat="43.5402846" lon="12.4067698"><ele>536.0</ele><time>2026-04-18T13:08:06.932Z</time></trkpt><trkpt lat="43.5401747" lon="12.406769"><ele>536.0</ele><time>2026-04-18T13:08:08.93Z</time></trkpt><trkpt lat="43.5401079" lon="12.4067249"><ele>536.0</ele><time>2026-04-18T13:08:09.932Z</time></trkpt><trkpt lat="43.5400469" lon="12.4066955"><ele>536.0</ele><time>2026-04-18T13:08:10.93Z</time></trkpt><trkpt lat="43.53998" lon="12.4066616"><ele>536.0</ele><time>2026-04-18T13:08:11.931Z</time></trkpt><trkpt lat="43.5399191" lon="12.4066389"><ele>536.0</ele><time>2026-04-18T13:08:12.93Z</time></trkpt><trkpt lat="43.5398554" lon="12.4065777"><ele>536.0</ele><time>2026-04-18T13:08:13.932Z</time></trkpt><trkpt lat="43.5397779" lon="12.406532"><ele>536.0</ele><time>2026-04-18T13:08:14.93Z</time></trkpt><trkpt lat="43.5396929" lon="12.4065057"><ele>536.0</ele><time>2026-04-18T13:08:15.93Z</time></trkpt><trkpt lat="43.5396235" lon="12.4064439"><ele>536.0</ele><time>2026-04-18T13:08:16.932Z</time></trkpt><trkpt lat="43.5395941" lon="12.4063279"><ele>536.0</ele><time>2026-04-18T13:08:17.93Z</time></trkpt><trkpt lat="43.5395494" lon="12.4062219"><ele>536.0</ele><time>2026-04-18T13:08:19.93Z</time></trkpt><trkpt lat="43.5394751" lon="12.4060945"><ele>536.5714285714286</ele><time>2026-04-18T13:08:21.931Z</time></trkpt><trkpt lat="43.5394232" lon="12.4061568"><ele>537.1428571428571</ele><time>2026-04-18T13:09:30.93Z</time></trkpt><trkpt lat="43.5393567" lon="12.4060932"><ele>537.7142857142857</ele><time>2026-04-18T13:09:38.932Z</time></trkpt><trkpt lat="43.5393153" lon="12.4060219"><ele>538.2857142857142</ele><time>2026-04-18T13:09:43.931Z</time></trkpt><trkpt lat="43.539302" lon="12.4059364"><ele>538.8571428571428</ele><time>2026-04-18T13:09:55.932Z</time></trkpt><trkpt lat="43.5392368" lon="12.4058536"><ele>539.4285714285714</ele><time>2026-04-18T13:11:19.931Z</time></trkpt><trkpt lat="43.5392044" lon="12.4057704"><ele>540.0</ele><time>2026-04-18T13:11:23.931Z</time></trkpt><trkpt lat="43.5391341" lon="12.4057668"><ele>540.0</ele><time>2026-04-18T13:11:26.93Z</time></trkpt><trkpt lat="43.5390498" lon="12.4057489"><ele>540.0</ele><time>2026-04-18T13:11:35.931Z</time></trkpt><trkpt lat="43.5389868" lon="12.4057402"><ele>540.0</ele><time>2026-04-18T13:11:44.931Z</time></trkpt><trkpt lat="43.5390272" lon="12.4056485"><ele>540.0</ele><time>2026-04-18T13:12:04.931Z</time></trkpt><trkpt lat="43.538966" lon="12.4056997"><ele>540.0</ele><time>2026-04-18T13:12:33.932Z</time></trkpt><trkpt lat="43.538909" lon="12.405741"><ele>540.0</ele><time>2026-04-18T13:12:35.931Z</time></trkpt><trkpt lat="43.5388454" lon="12.4058153"><ele>540.0</ele><time>2026-04-18T13:12:37.932Z</time></trkpt><trkpt lat="43.5387592" lon="12.405875"><ele>539.1428571428571</ele><time>2026-04-18T13:12:39.932Z</time></trkpt><trkpt lat="43.5386956" lon="12.4059003"><ele>538.2857142857142</ele><time>2026-04-18T13:12:47.931Z</time></trkpt><trkpt lat="43.5386237" lon="12.4059643"><ele>537.4285714285714</ele><time>2026-04-18T13:12:54.93Z</time></trkpt><trkpt lat="43.5385738" lon="12.4060435"><ele>536.5714285714286</ele><time>2026-04-18T13:12:57.929Z</time></trkpt><trkpt lat="43.5385297" lon="12.4061075"><ele>535.7142857142858</ele><time>2026-04-18T13:12:59.93Z</time></trkpt><trkpt lat="43.5384542" lon="12.4061269"><ele>534.8571428571429</ele><time>2026-04-18T13:13:02.929Z</time></trkpt><trkpt lat="43.5384" lon="12.4060608"><ele>534.0</ele><time>2026-04-18T13:13:04.93Z</time></trkpt><trkpt lat="43.5383377" lon="12.4059996"><ele>534.0</ele><time>2026-04-18T13:13:06.929Z</time></trkpt><trkpt lat="43.5382526" lon="12.4059463"><ele>534.0</ele><time>2026-04-18T13:13:08.929Z</time></trkpt><trkpt lat="43.5381914" lon="12.4058807"><ele>534.0</ele><time>2026-04-18T13:13:11.93Z</time></trkpt><trkpt lat="43.53813" lon="12.405845"><ele>534.0</ele><time>2026-04-18T13:13:14.93Z</time></trkpt><trkpt lat="43.5380614" lon="12.4058005"><ele>534.0</ele><time>2026-04-18T13:13:17.93Z</time></trkpt><trkpt lat="43.5379973" lon="12.4057596"><ele>534.0</ele><time>2026-04-18T13:13:20.929Z</time></trkpt><trkpt lat="43.5379193" lon="12.4056999"><ele>535.1428571428572</ele><time>2026-04-18T13:13:23.93Z</time></trkpt><trkpt lat="43.5378508" lon="12.4056745"><ele>536.2857142857143</ele><time>2026-04-18T13:13:26.93Z</time></trkpt><trkpt lat="43.5377878" lon="12.4056365"><ele>537.4285714285714</ele><time>2026-04-18T13:13:30.93Z</time></trkpt><trkpt lat="43.5377136" lon="12.4055972"><ele>538.5714285714287</ele><time>2026-04-18T13:13:34.929Z</time></trkpt><trkpt lat="43.5376506" lon="12.4055532"><ele>539.7142857142858</ele><time>2026-04-18T13:13:37.931Z</time></trkpt><trkpt lat="43.537578" lon="12.4055458"><ele>540.8571428571429</ele><time>2026-04-18T13:13:41.929Z</time></trkpt><trkpt lat="43.5375139" lon="12.4055434"><ele>542.0</ele><time>2026-04-18T13:13:44.93Z</time></trkpt><trkpt lat="43.5374406" lon="12.4055436"><ele>542.0</ele><time>2026-04-18T13:13:47.931Z</time></trkpt><trkpt lat="43.5373655" lon="12.405504"><ele>542.0</ele><time>2026-04-18T13:13:57.93Z</time></trkpt><trkpt lat="43.5372915" lon="12.4055134"><ele>542.0</ele><time>2026-04-18T13:13:59.931Z</time></trkpt><trkpt lat="43.5372267" lon="12.4055234"><ele>542.0</ele><time>2026-04-18T13:14:01.93Z</time></trkpt><trkpt lat="43.5371755" lon="12.4054669"><ele>542.0</ele><time>2026-04-18T13:14:04.93Z</time></trkpt><trkpt lat="43.5370998" lon="12.4054541"><ele>542.0</ele><time>2026-04-18T13:14:08.929Z</time></trkpt><trkpt lat="43.537004" lon="12.4054351"><ele>542.0</ele><time>2026-04-18T13:17:32.93Z</time></trkpt><trkpt lat="43.5369408" lon="12.4054211"><ele>542.0</ele><time>2026-04-18T13:23:17.931Z</time></trkpt><trkpt lat="43.5369898" lon="12.405478"><ele>542.0</ele><time>2026-04-18T13:24:35.929Z</time></trkpt><trkpt lat="43.5370768" lon="12.4054962"><ele>542.0</ele><time>2026-04-18T13:24:48.872Z</time></trkpt><trkpt lat="43.5370267" lon="12.4054348"><ele>542.0</ele><time>2026-04-18T13:27:54.929Z</time></trkpt><trkpt lat="43.536926" lon="12.405435"><ele>542.0</ele><time>2026-04-18T13:28:08.989Z</time></trkpt><trkpt lat="43.5368548" lon="12.4054294"><ele>543.1666666666666</ele><time>2026-04-18T13:29:06.929Z</time></trkpt><trkpt lat="43.5367689" lon="12.4054267"><ele>544.3333333333333</ele><time>2026-04-18T13:29:30.928Z</time></trkpt><trkpt lat="43.5366922" lon="12.4053609"><ele>545.5</ele><time>2026-04-18T13:29:33.929Z</time></trkpt><trkpt lat="43.5366334" lon="12.4053104"><ele>546.6666666666666</ele><time>2026-04-18T13:29:37.93Z</time></trkpt><trkpt lat="43.5365668" lon="12.405276"><ele>547.8333333333334</ele><time>2026-04-18T13:29:42.93Z</time></trkpt><trkpt lat="43.5364912" lon="12.4052397"><ele>549.0</ele><time>2026-04-18T13:30:13.933Z</time></trkpt><trkpt lat="43.5363954" lon="12.4051764"><ele>549.0</ele><time>2026-04-18T13:30:16.004Z</time></trkpt><trkpt lat="43.5362669" lon="12.4051584"><ele>549.0</ele><time>2026-04-18T13:30:16.929Z</time></trkpt><trkpt lat="43.5361475" lon="12.4051545"><ele>549.0</ele><time>2026-04-18T13:30:17.929Z</time></trkpt><trkpt lat="43.5360524" lon="12.4051587"><ele>549.0</ele><time>2026-04-18T13:30:18.929Z</time></trkpt><trkpt lat="43.5359618" lon="12.4051796"><ele>549.0</ele><time>2026-04-18T13:30:19.928Z</time></trkpt><trkpt lat="43.5358513" lon="12.4052085"><ele>549.0</ele><time>2026-04-18T13:30:21.93Z</time></trkpt><trkpt lat="43.5357714" lon="12.4052036"><ele>549.0</ele><time>2026-04-18T13:30:23.929Z</time></trkpt><trkpt lat="43.5356983" lon="12.4052045"><ele>549.0</ele><time>2026-04-18T13:30:26.929Z</time></trkpt><trkpt lat="43.5356182" lon="12.4052159"><ele>549.0</ele><time>2026-04-18T13:30:28.928Z</time></trkpt><trkpt lat="43.5355459" lon="12.4051845"><ele>549.0</ele><time>2026-04-18T13:30:30.929Z</time></trkpt><trkpt lat="43.5354806" lon="12.4051618"><ele>549.0</ele><time>2026-04-18T13:30:31.929Z</time></trkpt><trkpt lat="43.535399" lon="12.4050858"><ele>549.8333333333334</ele><time>2026-04-18T13:30:32.928Z</time></trkpt><trkpt lat="43.5353148" lon="12.4050442"><ele>550.6666666666666</ele><time>2026-04-18T13:30:33.93Z</time></trkpt><trkpt lat="43.5352459" lon="12.4049755"><ele>551.5</ele><time>2026-04-18T13:30:34.929Z</time></trkpt><trkpt lat="43.5352017" lon="12.404897"><ele>552.3333333333333</ele><time>2026-04-18T13:30:35.928Z</time></trkpt><trkpt lat="43.5351537" lon="12.4048265"><ele>553.1666666666666</ele><time>2026-04-18T13:30:36.929Z</time></trkpt><trkpt lat="43.5350821" lon="12.4047273"><ele>554.0</ele><time>2026-04-18T13:30:38.93Z</time></trkpt><trkpt lat="43.5350389" lon="12.4045341"><ele>554.5</ele><time>2026-04-18T13:30:40.93Z</time></trkpt><trkpt lat="43.5350173" lon="12.4043562"><ele>555.0</ele><time>2026-04-18T13:30:42.93Z</time></trkpt><trkpt lat="43.5349872" lon="12.4041042"><ele>555.5</ele><time>2026-04-18T13:30:44.928Z</time></trkpt><trkpt lat="43.5349644" lon="12.4039667"><ele>556.0</ele><time>2026-04-18T13:30:46.929Z</time></trkpt><trkpt lat="43.5349491" lon="12.4038631"><ele>558.2857142857142</ele><time>2026-04-18T13:30:47.929Z</time></trkpt><trkpt lat="43.5348927" lon="12.4038195"><ele>560.5714285714286</ele><time>2026-04-18T13:30:48.93Z</time></trkpt><trkpt lat="43.5348562" lon="12.4037413"><ele>562.8571428571429</ele><time>2026-04-18T13:30:50.929Z</time></trkpt><trkpt lat="43.5347985" lon="12.4036708"><ele>565.1428571428571</ele><time>2026-04-18T13:31:57.93Z</time></trkpt><trkpt lat="43.5347742" lon="12.4035598"><ele>567.4285714285714</ele><time>2026-04-18T13:32:14.929Z</time></trkpt><trkpt lat="43.5347606" lon="12.4034624"><ele>569.7142857142857</ele><time>2026-04-18T13:32:32.929Z</time></trkpt><trkpt lat="43.5347299" lon="12.4033814"><ele>572.0</ele><time>2026-04-18T13:32:36.928Z</time></trkpt><trkpt lat="43.5346674" lon="12.4033227"><ele>572.0</ele><time>2026-04-18T13:32:49.929Z</time></trkpt><trkpt lat="43.534596" lon="12.4033463"><ele>572.0</ele><time>2026-04-18T13:33:45.929Z</time></trkpt><trkpt lat="43.5345141" lon="12.4032989"><ele>572.0</ele><time>2026-04-18T13:33:48.929Z</time></trkpt><trkpt lat="43.5344358" lon="12.4032236"><ele>572.0</ele><time>2026-04-18T13:33:50.93Z</time></trkpt><trkpt lat="43.534393" lon="12.403159"><ele>572.0</ele><time>2026-04-18T13:33:51.929Z</time></trkpt><trkpt lat="43.5343115" lon="12.4030457"><ele>572.0</ele><time>2026-04-18T13:33:53.929Z</time></trkpt><trkpt lat="43.5342219" lon="12.4029611"><ele>571.2</ele><time>2026-04-18T13:33:55.928Z</time></trkpt><trkpt lat="43.5341249" lon="12.4028793"><ele>570.4000000000001</ele><time>2026-04-18T13:33:57.929Z</time></trkpt><trkpt lat="43.5340377" lon="12.4028076"><ele>569.5999999999999</ele><time>2026-04-18T13:33:59.93Z</time></trkpt><trkpt lat="43.5339458" lon="12.4027431"><ele>568.8</ele><time>2026-04-18T13:34:01.929Z</time></trkpt><trkpt lat="43.5338614" lon="12.4027479"><ele>568.0</ele><time>2026-04-18T13:34:03.928Z</time></trkpt><trkpt lat="43.5337772" lon="12.4027374"><ele>565.6666666666667</ele><time>2026-04-18T13:34:05.93Z</time></trkpt><trkpt lat="43.5336681" lon="12.4027406"><ele>563.3333333333334</ele><time>2026-04-18T13:34:07.93Z</time></trkpt><trkpt lat="43.5335851" lon="12.4027197"><ele>561.0</ele><time>2026-04-18T13:34:10.929Z</time></trkpt><trkpt lat="43.5335218" lon="12.4027091"><ele>558.6666666666666</ele><time>2026-04-18T13:34:12.929Z</time></trkpt><trkpt lat="43.5334377" lon="12.4027327"><ele>556.3333333333333</ele><time>2026-04-18T13:34:15.928Z</time></trkpt><trkpt lat="43.5333667" lon="12.4027058"><ele>554.0</ele><time>2026-04-18T13:34:28.929Z</time></trkpt><trkpt lat="43.5332993" lon="12.4026771"><ele>554.0</ele><time>2026-04-18T13:34:30.93Z</time></trkpt><trkpt lat="43.5332302" lon="12.4026522"><ele>554.0</ele><time>2026-04-18T13:34:32.929Z</time></trkpt><trkpt lat="43.5331485" lon="12.4026264"><ele>554.0</ele><time>2026-04-18T13:34:35.93Z</time></trkpt><trkpt lat="43.5330703" lon="12.4025946"><ele>554.0</ele><time>2026-04-18T13:34:38.929Z</time></trkpt><trkpt lat="43.5330027" lon="12.4025547"><ele>554.0</ele><time>2026-04-18T13:34:41.929Z</time></trkpt><trkpt lat="43.5329441" lon="12.4024524"><ele>554.0</ele><time>2026-04-18T13:34:44.929Z</time></trkpt><trkpt lat="43.5328627" lon="12.4022817"><ele>553.8333333333333</ele><time>2026-04-18T13:34:46.928Z</time></trkpt><trkpt lat="43.5328043" lon="12.4022293"><ele>553.6666666666666</ele><time>2026-04-18T13:34:55.929Z</time></trkpt><trkpt lat="43.5327894" lon="12.4021311"><ele>553.5</ele><time>2026-04-18T13:34:58.928Z</time></trkpt><trkpt lat="43.5327875" lon="12.4019843"><ele>553.3333333333334</ele><time>2026-04-18T13:35:00.929Z</time></trkpt><trkpt lat="43.5327947" lon="12.4018586"><ele>553.1666666666667</ele><time>2026-04-18T13:35:01.93Z</time></trkpt><trkpt lat="43.5327038" lon="12.4018103"><ele>553.0</ele><time>2026-04-18T13:35:02.929Z</time></trkpt><trkpt lat="43.5326178" lon="12.4017092"><ele>553.0</ele><time>2026-04-18T13:35:03.929Z</time></trkpt><trkpt lat="43.5325465" lon="12.401671"><ele>553.0</ele><time>2026-04-18T13:35:04.93Z</time></trkpt><trkpt lat="43.5325033" lon="12.4016033"><ele>553.0</ele><time>2026-04-18T13:35:06.929Z</time></trkpt><trkpt lat="43.5324273" lon="12.4016076"><ele>553.0</ele><time>2026-04-18T13:35:09.928Z</time></trkpt><trkpt lat="43.5323509" lon="12.401566"><ele>553.0</ele><time>2026-04-18T13:35:13.929Z</time></trkpt><trkpt lat="43.5322628" lon="12.4014985"><ele>553.0</ele><time>2026-04-18T13:35:15.928Z</time></trkpt><trkpt lat="43.5321792" lon="12.4014977"><ele>553.0</ele><time>2026-04-18T13:35:52.93Z</time></trkpt><trkpt lat="43.5321324" lon="12.4014387"><ele>553.0</ele><time>2026-04-18T13:36:09.929Z</time></trkpt><trkpt lat="43.5320773" lon="12.4013507"><ele>553.0</ele><time>2026-04-18T13:36:12.928Z</time></trkpt><trkpt lat="43.5320276" lon="12.401254"><ele>553.0</ele><time>2026-04-18T13:36:14.928Z</time></trkpt><trkpt lat="43.5319913" lon="12.4011671"><ele>553.0</ele><time>2026-04-18T13:36:15.93Z</time></trkpt><trkpt lat="43.5319877" lon="12.4010596"><ele>553.0</ele><time>2026-04-18T13:36:16.928Z</time></trkpt><trkpt lat="43.5319934" lon="12.4009661"><ele>554.8333333333334</ele><time>2026-04-18T13:36:17.93Z</time></trkpt><trkpt lat="43.5319736" lon="12.4008326"><ele>556.6666666666667</ele><time>2026-04-18T13:36:18.929Z</time></trkpt><trkpt lat="43.5319591" lon="12.4007267"><ele>558.5</ele><time>2026-04-18T13:36:19.928Z</time></trkpt><trkpt lat="43.5319951" lon="12.400607"><ele>560.3333333333334</ele><time>2026-04-18T13:36:21.929Z</time></trkpt><trkpt lat="43.5319981" lon="12.400511"><ele>562.1666666666666</ele><time>2026-04-18T13:36:23.928Z</time></trkpt><trkpt lat="43.53198" lon="12.4003943"><ele>564.0</ele><time>2026-04-18T13:36:27.929Z</time></trkpt><trkpt lat="43.5319422" lon="12.400292"><ele>565.4</ele><time>2026-04-18T13:36:29.929Z</time></trkpt><trkpt lat="43.5319102" lon="12.4001675"><ele>566.8</ele><time>2026-04-18T13:36:30.929Z</time></trkpt><trkpt lat="43.5318797" lon="12.4000673"><ele>568.2</ele><time>2026-04-18T13:36:31.928Z</time></trkpt><trkpt lat="43.5318489" lon="12.3999693"><ele>569.6</ele><time>2026-04-18T13:36:32.929Z</time></trkpt><trkpt lat="43.5317682" lon="12.3998371"><ele>571.0</ele><time>2026-04-18T13:36:33.929Z</time></trkpt><trkpt lat="43.5317216" lon="12.3997507"><ele>572.6666666666667</ele><time>2026-04-18T13:36:34.929Z</time></trkpt><trkpt lat="43.5317134" lon="12.3996522"><ele>574.3333333333334</ele><time>2026-04-18T13:36:35.929Z</time></trkpt><trkpt lat="43.5316829" lon="12.3995661"><ele>576.0</ele><time>2026-04-18T13:36:36.93Z</time></trkpt><trkpt lat="43.531652" lon="12.3994202"><ele>577.6666666666666</ele><time>2026-04-18T13:36:37.928Z</time></trkpt><trkpt lat="43.5315853" lon="12.3992872"><ele>579.3333333333333</ele><time>2026-04-18T13:36:39.929Z</time></trkpt><trkpt lat="43.5315486" lon="12.399202"><ele>581.0</ele><time>2026-04-18T13:36:41.93Z</time></trkpt><trkpt lat="43.5314423" lon="12.3991309"><ele>581.0</ele><time>2026-04-18T13:36:44.929Z</time></trkpt><trkpt lat="43.5313848" lon="12.3990954"><ele>581.0</ele><time>2026-04-18T13:36:46.929Z</time></trkpt><trkpt lat="43.5312972" lon="12.3991243"><ele>581.0</ele><time>2026-04-18T13:36:49.928Z</time></trkpt><trkpt lat="43.5312084" lon="12.3991219"><ele>581.0</ele><time>2026-04-18T13:36:52.929Z</time></trkpt><trkpt lat="43.5311342" lon="12.3990918"><ele>581.0</ele><time>2026-04-18T13:36:54.928Z</time></trkpt><trkpt lat="43.5310317" lon="12.3990482"><ele>581.0</ele><time>2026-04-18T13:36:56.929Z</time></trkpt><trkpt lat="43.5309312" lon="12.3990043"><ele>580.6666666666666</ele><time>2026-04-18T13:36:58.928Z</time></trkpt><trkpt lat="43.530848" lon="12.3989432"><ele>580.3333333333333</ele><time>2026-04-18T13:37:03.929Z</time></trkpt><trkpt lat="43.5307943" lon="12.398878"><ele>580.0</ele><time>2026-04-18T13:37:06.928Z</time></trkpt><trkpt lat="43.5307486" lon="12.3988094"><ele>579.6666666666666</ele><time>2026-04-18T13:37:08.928Z</time></trkpt><trkpt lat="43.530668" lon="12.3987695"><ele>579.3333333333334</ele><time>2026-04-18T13:37:09.93Z</time></trkpt><trkpt lat="43.5306196" lon="12.3986844"><ele>579.0</ele><time>2026-04-18T13:37:11.929Z</time></trkpt><trkpt lat="43.5305783" lon="12.3985936"><ele>579.0</ele><time>2026-04-18T13:37:12.929Z</time></trkpt><trkpt lat="43.5304971" lon="12.3984809"><ele>579.0</ele><time>2026-04-18T13:37:14.929Z</time></trkpt><trkpt lat="43.5304177" lon="12.3983797"><ele>579.0</ele><time>2026-04-18T13:37:16.928Z</time></trkpt><trkpt lat="43.5303549" lon="12.3983293"><ele>579.0</ele><time>2026-04-18T13:37:17.928Z</time></trkpt><trkpt lat="43.530242" lon="12.3982617"><ele>579.0</ele><time>2026-04-18T13:37:19.929Z</time></trkpt><trkpt lat="43.530175" lon="12.3982277"><ele>578.0</ele><time>2026-04-18T13:37:20.929Z</time></trkpt><trkpt lat="43.5301087" lon="12.3982189"><ele>577.0</ele><time>2026-04-18T13:37:24.928Z</time></trkpt><trkpt lat="43.5300235" lon="12.3981437"><ele>576.0</ele><time>2026-04-18T13:37:27.93Z</time></trkpt><trkpt lat="43.5299278" lon="12.3980804"><ele>575.0</ele><time>2026-04-18T13:37:29.93Z</time></trkpt><trkpt lat="43.5298556" lon="12.3979529"><ele>574.0</ele><time>2026-04-18T13:37:31.93Z</time></trkpt><trkpt lat="43.5297676" lon="12.3978436"><ele>574.8333333333334</ele><time>2026-04-18T13:37:33.929Z</time></trkpt><trkpt lat="43.529698" lon="12.3978577"><ele>575.6666666666667</ele><time>2026-04-18T13:37:35.929Z</time></trkpt><trkpt lat="43.5296552" lon="12.3979313"><ele>576.5</ele><time>2026-04-18T13:37:37.929Z</time></trkpt><trkpt lat="43.529605" lon="12.3979992"><ele>577.3333333333334</ele><time>2026-04-18T13:37:39.929Z</time></trkpt><trkpt lat="43.5295291" lon="12.3980656"><ele>578.1666666666666</ele><time>2026-04-18T13:37:41.928Z</time></trkpt><trkpt lat="43.5294427" lon="12.3980832"><ele>579.0</ele><time>2026-04-18T13:37:43.929Z</time></trkpt><trkpt lat="43.5293777" lon="12.3980781"><ele>582.2</ele><time>2026-04-18T13:37:44.928Z</time></trkpt><trkpt lat="43.5292658" lon="12.397991"><ele>585.4</ele><time>2026-04-18T13:37:46.928Z</time></trkpt><trkpt lat="43.5291404" lon="12.3979496"><ele>588.6</ele><time>2026-04-18T13:37:48.929Z</time></trkpt><trkpt lat="43.5290604" lon="12.3979588"><ele>591.8</ele><time>2026-04-18T13:37:49.928Z</time></trkpt><trkpt lat="43.5289918" lon="12.3979218"><ele>595.0</ele><time>2026-04-18T13:37:50.93Z</time></trkpt><trkpt lat="43.5289293" lon="12.3978732"><ele>595.0</ele><time>2026-04-18T13:37:51.929Z</time></trkpt><trkpt lat="43.5288738" lon="12.3978173"><ele>595.0</ele><time>2026-04-18T13:37:52.93Z</time></trkpt><trkpt lat="43.5287855" lon="12.3977751"><ele>595.0</ele><time>2026-04-18T13:37:54.93Z</time></trkpt><trkpt lat="43.5286879" lon="12.39775"><ele>595.0</ele><time>2026-04-18T13:37:56.928Z</time></trkpt><trkpt lat="43.5285957" lon="12.3976743"><ele>595.0</ele><time>2026-04-18T13:37:58.929Z</time></trkpt><trkpt lat="43.5285098" lon="12.3975733"><ele>595.5</ele><time>2026-04-18T13:38:00.929Z</time></trkpt><trkpt lat="43.5284585" lon="12.3975104"><ele>596.0</ele><time>2026-04-18T13:38:01.929Z</time></trkpt><trkpt lat="43.5284276" lon="12.3974095"><ele>596.5</ele><time>2026-04-18T13:38:03.928Z</time></trkpt><trkpt lat="43.5283856" lon="12.3972913"><ele>597.0</ele><time>2026-04-18T13:38:05.93Z</time></trkpt><trkpt lat="43.5283538" lon="12.397179"><ele>597.5</ele><time>2026-04-18T13:38:07.928Z</time></trkpt><trkpt lat="43.5283264" lon="12.397085"><ele>598.0</ele><time>2026-04-18T13:38:09.929Z</time></trkpt><trkpt lat="43.528295" lon="12.3969572"><ele>598.0</ele><time>2026-04-18T13:38:12.929Z</time></trkpt><trkpt lat="43.5282496" lon="12.3968542"><ele>598.0</ele><time>2026-04-18T13:38:15.929Z</time></trkpt><trkpt lat="43.5281973" lon="12.3967745"><ele>598.0</ele><time>2026-04-18T13:38:17.929Z</time></trkpt><trkpt lat="43.5281664" lon="12.3966637"><ele>598.0</ele><time>2026-04-18T13:38:19.93Z</time></trkpt><trkpt lat="43.5281523" lon="12.3965373"><ele>598.0</ele><time>2026-04-18T13:38:21.929Z</time></trkpt><trkpt lat="43.5281117" lon="12.3964707"><ele>598.0</ele><time>2026-04-18T13:38:23.928Z</time></trkpt><trkpt lat="43.528015" lon="12.3964851"><ele>598.0</ele><time>2026-04-18T13:38:25.93Z</time></trkpt><trkpt lat="43.5279186" lon="12.3964376"><ele>598.0</ele><time>2026-04-18T13:38:27.929Z</time></trkpt><trkpt lat="43.5279027" lon="12.3963118"><ele>598.0</ele><time>2026-04-18T13:38:29.93Z</time></trkpt><trkpt lat="43.5278717" lon="12.3962011"><ele>598.0</ele><time>2026-04-18T13:38:30.93Z</time></trkpt><trkpt lat="43.5278421" lon="12.3961137"><ele>598.0</ele><time>2026-04-18T13:38:31.929Z</time></trkpt><trkpt lat="43.527778" lon="12.3959847"><ele>597.1999999999999</ele><time>2026-04-18T13:38:33.929Z</time></trkpt><trkpt lat="43.5277069" lon="12.3958801"><ele>596.4</ele><time>2026-04-18T13:38:35.928Z</time></trkpt><trkpt lat="43.5277045" lon="12.3957479"><ele>595.5999999999999</ele><time>2026-04-18T13:38:37.93Z</time></trkpt><trkpt lat="43.5276731" lon="12.3956076"><ele>594.8</ele><time>2026-04-18T13:38:38.928Z</time></trkpt><trkpt lat="43.5275845" lon="12.3955169"><ele>594.0</ele><time>2026-04-18T13:38:40.929Z</time></trkpt><trkpt lat="43.5275006" lon="12.3954106"><ele>595.3333333333334</ele><time>2026-04-18T13:38:42.928Z</time></trkpt><trkpt lat="43.5274807" lon="12.3952918"><ele>596.6666666666666</ele><time>2026-04-18T13:38:44.929Z</time></trkpt><trkpt lat="43.5274711" lon="12.3951768"><ele>598.0</ele><time>2026-04-18T13:38:46.928Z</time></trkpt><trkpt lat="43.5274866" lon="12.3950883"><ele>599.3333333333333</ele><time>2026-04-18T13:38:47.928Z</time></trkpt><trkpt lat="43.5275053" lon="12.3949554"><ele>600.6666666666666</ele><time>2026-04-18T13:38:49.929Z</time></trkpt><trkpt lat="43.5275202" lon="12.3948124"><ele>602.0</ele><time>2026-04-18T13:38:51.928Z</time></trkpt><trkpt lat="43.5275692" lon="12.3946741"><ele>603.6</ele><time>2026-04-18T13:38:53.929Z</time></trkpt><trkpt lat="43.5275949" lon="12.3945697"><ele>605.2</ele><time>2026-04-18T13:38:55.929Z</time></trkpt><trkpt lat="43.5276315" lon="12.3944504"><ele>606.8</ele><time>2026-04-18T13:38:57.93Z</time></trkpt><trkpt lat="43.527651" lon="12.3943144"><ele>608.4</ele><time>2026-04-18T13:38:59.928Z</time></trkpt><trkpt lat="43.5276606" lon="12.394162"><ele>610.0</ele><time>2026-04-18T13:39:01.929Z</time></trkpt><trkpt lat="43.5276756" lon="12.394047"><ele>610.0</ele><time>2026-04-18T13:39:03.93Z</time></trkpt><trkpt lat="43.5276313" lon="12.3938773"><ele>610.0</ele><time>2026-04-18T13:39:06.93Z</time></trkpt><trkpt lat="43.527586" lon="12.3937176"><ele>610.0</ele><time>2026-04-18T13:39:08.929Z</time></trkpt><trkpt lat="43.5275606" lon="12.3935464"><ele>610.0</ele><time>2026-04-18T13:39:10.929Z</time></trkpt><trkpt lat="43.5275542" lon="12.3934291"><ele>610.6666666666667</ele><time>2026-04-18T13:39:12.929Z</time></trkpt><trkpt lat="43.5274904" lon="12.3933334"><ele>611.3333333333334</ele><time>2026-04-18T13:39:14.929Z</time></trkpt><trkpt lat="43.5274113" lon="12.3932517"><ele>612.0</ele><time>2026-04-18T13:39:16.929Z</time></trkpt><trkpt lat="43.5273804" lon="12.39317"><ele>612.6666666666666</ele><time>2026-04-18T13:39:19.93Z</time></trkpt><trkpt lat="43.527355" lon="12.3930637"><ele>613.3333333333333</ele><time>2026-04-18T13:39:22.929Z</time></trkpt><trkpt lat="43.5273129" lon="12.3929962"><ele>614.0</ele><time>2026-04-18T13:39:24.928Z</time></trkpt><trkpt lat="43.5272512" lon="12.3928989"><ele>615.6666666666666</ele><time>2026-04-18T13:39:27.928Z</time></trkpt><trkpt lat="43.5272007" lon="12.3928285"><ele>617.3333333333333</ele><time>2026-04-18T13:39:31.928Z</time></trkpt><trkpt lat="43.5271221" lon="12.3927793"><ele>619.0</ele><time>2026-04-18T13:39:34.929Z</time></trkpt><trkpt lat="43.5270557" lon="12.3927308"><ele>620.6666666666666</ele><time>2026-04-18T13:39:36.93Z</time></trkpt><trkpt lat="43.5270045" lon="12.3926695"><ele>622.3333333333334</ele><time>2026-04-18T13:39:38.929Z</time></trkpt><trkpt lat="43.5269464" lon="12.3926127"><ele>624.0</ele><time>2026-04-18T13:39:40.93Z</time></trkpt><trkpt lat="43.526874" lon="12.3925521"><ele>621.8333333333334</ele><time>2026-04-18T13:39:42.93Z</time></trkpt><trkpt lat="43.526792" lon="12.3924842"><ele>619.6666666666666</ele><time>2026-04-18T13:39:44.929Z</time></trkpt><trkpt lat="43.5266982" lon="12.3924565"><ele>617.5</ele><time>2026-04-18T13:39:46.93Z</time></trkpt><trkpt lat="43.5266207" lon="12.3924133"><ele>615.3333333333333</ele><time>2026-04-18T13:39:48.929Z</time></trkpt><trkpt lat="43.5265575" lon="12.3923192"><ele>613.1666666666666</ele><time>2026-04-18T13:39:50.928Z</time></trkpt><trkpt lat="43.5265072" lon="12.3922454"><ele>611.0</ele><time>2026-04-18T13:39:52.928Z</time></trkpt><trkpt lat="43.5264352" lon="12.3921135"><ele>611.0</ele><time>2026-04-18T13:39:55.928Z</time></trkpt><trkpt lat="43.5263832" lon="12.3920242"><ele>611.0</ele><time>2026-04-18T13:39:58.929Z</time></trkpt><trkpt lat="43.5263331" lon="12.3919521"><ele>611.0</ele><time>2026-04-18T13:40:02.929Z</time></trkpt><trkpt lat="43.5262731" lon="12.3918822"><ele>611.0</ele><time>2026-04-18T13:40:06.929Z</time></trkpt><trkpt lat="43.5262151" lon="12.3918433"><ele>611.0</ele><time>2026-04-18T13:40:08.928Z</time></trkpt><trkpt lat="43.5261209" lon="12.3917916"><ele>611.0</ele><time>2026-04-18T13:40:23.929Z</time></trkpt><trkpt lat="43.5260541" lon="12.3917511"><ele>609.6666666666666</ele><time>2026-04-18T13:40:29.928Z</time></trkpt><trkpt lat="43.5260105" lon="12.3916835"><ele>608.3333333333333</ele><time>2026-04-18T13:40:34.929Z</time></trkpt><trkpt lat="43.5259633" lon="12.3916223"><ele>607.0</ele><time>2026-04-18T13:40:36.929Z</time></trkpt><trkpt lat="43.5259021" lon="12.391595"><ele>605.6666666666666</ele><time>2026-04-18T13:40:39.928Z</time></trkpt><trkpt lat="43.5258488" lon="12.391502"><ele>604.3333333333334</ele><time>2026-04-18T13:40:42.929Z</time></trkpt><trkpt lat="43.5257608" lon="12.3914206"><ele>603.0</ele><time>2026-04-18T13:40:44.93Z</time></trkpt><trkpt lat="43.5256392" lon="12.3913578"><ele>605.3333333333334</ele><time>2026-04-18T13:40:46.929Z</time></trkpt><trkpt lat="43.5255733" lon="12.3913084"><ele>607.6666666666666</ele><time>2026-04-18T13:40:48.929Z</time></trkpt><trkpt lat="43.5254983" lon="12.3913295"><ele>610.0</ele><time>2026-04-18T13:40:51.929Z</time></trkpt><trkpt lat="43.5254243" lon="12.3912853"><ele>612.3333333333333</ele><time>2026-04-18T13:40:55.929Z</time></trkpt><trkpt lat="43.5253341" lon="12.3912506"><ele>614.6666666666666</ele><time>2026-04-18T13:40:58.928Z</time></trkpt><trkpt lat="43.5252542" lon="12.3912606"><ele>617.0</ele><time>2026-04-18T13:41:01.929Z</time></trkpt><trkpt lat="43.5251801" lon="12.39124"><ele>617.0</ele><time>2026-04-18T13:41:04.928Z</time></trkpt><trkpt lat="43.5250903" lon="12.3912077"><ele>617.0</ele><time>2026-04-18T13:41:06.929Z</time></trkpt><trkpt lat="43.5250055" lon="12.3911769"><ele>617.0</ele><time>2026-04-18T13:41:08.929Z</time></trkpt><trkpt lat="43.5249391" lon="12.3911574"><ele>617.0</ele><time>2026-04-18T13:41:10.929Z</time></trkpt><trkpt lat="43.5248732" lon="12.3911405"><ele>617.0</ele><time>2026-04-18T13:41:12.928Z</time></trkpt><trkpt lat="43.5247657" lon="12.3911453"><ele>617.0</ele><time>2026-04-18T13:41:14.929Z</time></trkpt><trkpt lat="43.5246863" lon="12.3910978"><ele>617.0</ele><time>2026-04-18T13:41:16.929Z</time></trkpt><trkpt lat="43.5246266" lon="12.3910299"><ele>617.0</ele><time>2026-04-18T13:41:19.93Z</time></trkpt><trkpt lat="43.5245857" lon="12.3909576"><ele>617.0</ele><time>2026-04-18T13:41:22.928Z</time></trkpt><trkpt lat="43.5245454" lon="12.3908518"><ele>617.0</ele><time>2026-04-18T13:41:26.929Z</time></trkpt><trkpt lat="43.5245594" lon="12.3907662"><ele>617.0</ele><time>2026-04-18T13:41:28.928Z</time></trkpt><trkpt lat="43.5245316" lon="12.390665"><ele>617.0</ele><time>2026-04-18T13:41:32.928Z</time></trkpt><trkpt lat="43.5244958" lon="12.3905399"><ele>617.5</ele><time>2026-04-18T13:41:36.928Z</time></trkpt><trkpt lat="43.5244777" lon="12.3904302"><ele>618.0</ele><time>2026-04-18T13:41:38.929Z</time></trkpt><trkpt lat="43.524387" lon="12.3903066"><ele>618.5</ele><time>2026-04-18T13:41:40.929Z</time></trkpt><trkpt lat="43.524339" lon="12.3902405"><ele>619.0</ele><time>2026-04-18T13:41:41.929Z</time></trkpt><trkpt lat="43.5242959" lon="12.3901635"><ele>619.5</ele><time>2026-04-18T13:41:42.929Z</time></trkpt><trkpt lat="43.5242444" lon="12.3900887"><ele>620.0</ele><time>2026-04-18T13:41:43.93Z</time></trkpt><trkpt lat="43.5241408" lon="12.3899563"><ele>620.0</ele><time>2026-04-18T13:41:44.929Z</time></trkpt><trkpt lat="43.5240769" lon="12.3898656"><ele>620.0</ele><time>2026-04-18T13:41:45.928Z</time></trkpt><trkpt lat="43.5239953" lon="12.3897359"><ele>620.0</ele><time>2026-04-18T13:41:47.929Z</time></trkpt><trkpt lat="43.5239178" lon="12.3896208"><ele>620.0</ele><time>2026-04-18T13:41:49.93Z</time></trkpt><trkpt lat="43.5238766" lon="12.3895421"><ele>620.0</ele><time>2026-04-18T13:41:50.929Z</time></trkpt><trkpt lat="43.5238059" lon="12.3894468"><ele>619.2</ele><time>2026-04-18T13:41:52.928Z</time></trkpt><trkpt lat="43.5237427" lon="12.3892985"><ele>618.4</ele><time>2026-04-18T13:41:53.93Z</time></trkpt><trkpt lat="43.5236948" lon="12.3892374"><ele>617.6</ele><time>2026-04-18T13:41:54.929Z</time></trkpt><trkpt lat="43.5236307" lon="12.3891598"><ele>616.8</ele><time>2026-04-18T13:41:56.929Z</time></trkpt><trkpt lat="43.523562" lon="12.3891272"><ele>616.0</ele><time>2026-04-18T13:41:58.929Z</time></trkpt><trkpt lat="43.5234661" lon="12.3890743"><ele>616.0</ele><time>2026-04-18T13:42:00.929Z</time></trkpt><trkpt lat="43.5233836" lon="12.3890418"><ele>616.0</ele><time>2026-04-18T13:42:01.93Z</time></trkpt><trkpt lat="43.5232781" lon="12.3890007"><ele>616.0</ele><time>2026-04-18T13:42:03.928Z</time></trkpt><trkpt lat="43.5231297" lon="12.3890049"><ele>616.0</ele><time>2026-04-18T13:42:05.928Z</time></trkpt><trkpt lat="43.5230192" lon="12.388943"><ele>616.0</ele><time>2026-04-18T13:42:07.929Z</time></trkpt><trkpt lat="43.522916" lon="12.388881"><ele>616.0</ele><time>2026-04-18T13:42:09.928Z</time></trkpt><trkpt lat="43.5227744" lon="12.3887893"><ele>616.0</ele><time>2026-04-18T13:42:11.929Z</time></trkpt><trkpt lat="43.5226816" lon="12.3887243"><ele>616.0</ele><time>2026-04-18T13:42:13.928Z</time></trkpt><trkpt lat="43.5226181" lon="12.3886419"><ele>616.3333333333334</ele><time>2026-04-18T13:42:15.928Z</time></trkpt><trkpt lat="43.5226088" lon="12.3884786"><ele>616.6666666666667</ele><time>2026-04-18T13:42:17.929Z</time></trkpt><trkpt lat="43.5226275" lon="12.3883863"><ele>617.0</ele><time>2026-04-18T13:42:19.929Z</time></trkpt><trkpt lat="43.5226413" lon="12.388295"><ele>617.3333333333334</ele><time>2026-04-18T13:42:21.929Z</time></trkpt><trkpt lat="43.5227014" lon="12.3882631"><ele>617.6666666666666</ele><time>2026-04-18T13:42:53.928Z</time></trkpt><trkpt lat="43.5227231" lon="12.3881375"><ele>618.0</ele><time>2026-04-18T13:42:57.928Z</time></trkpt><trkpt lat="43.5227176" lon="12.3880445"><ele>619.8</ele><time>2026-04-18T13:42:59.927Z</time></trkpt><trkpt lat="43.5226683" lon="12.3879596"><ele>621.5999999999999</ele><time>2026-04-18T13:43:02.928Z</time></trkpt><trkpt lat="43.5226014" lon="12.3879195"><ele>623.4000000000001</ele><time>2026-04-18T13:43:05.927Z</time></trkpt><trkpt lat="43.5224919" lon="12.3878214"><ele>625.2</ele><time>2026-04-18T13:43:07.929Z</time></trkpt><trkpt lat="43.5224069" lon="12.3877623"><ele>627.0</ele><time>2026-04-18T13:43:09.927Z</time></trkpt><trkpt lat="43.5223352" lon="12.3876934"><ele>627.0</ele><time>2026-04-18T13:43:15.928Z</time></trkpt><trkpt lat="43.5222437" lon="12.3876986"><ele>627.0</ele><time>2026-04-18T13:43:21.928Z</time></trkpt><trkpt lat="43.5221894" lon="12.387651"><ele>627.0</ele><time>2026-04-18T13:43:24.928Z</time></trkpt><trkpt lat="43.5221338" lon="12.3875972"><ele>627.0</ele><time>2026-04-18T13:43:29.927Z</time></trkpt><trkpt lat="43.5221019" lon="12.3875102"><ele>627.0</ele><time>2026-04-18T13:43:33.928Z</time></trkpt><trkpt lat="43.5220618" lon="12.3874332"><ele>627.0</ele><time>2026-04-18T13:43:36.927Z</time></trkpt><trkpt lat="43.5219751" lon="12.3873627"><ele>626.3333333333334</ele><time>2026-04-18T13:43:39.928Z</time></trkpt><trkpt lat="43.5219145" lon="12.3872766"><ele>625.6666666666666</ele><time>2026-04-18T13:43:40.929Z</time></trkpt><trkpt lat="43.5218517" lon="12.3871866"><ele>625.0</ele><time>2026-04-18T13:43:42.928Z</time></trkpt><trkpt lat="43.5217775" lon="12.3871362"><ele>624.3333333333333</ele><time>2026-04-18T13:43:46.929Z</time></trkpt><trkpt lat="43.5217045" lon="12.3870844"><ele>623.6666666666666</ele><time>2026-04-18T13:43:49.928Z</time></trkpt><trkpt lat="43.5216443" lon="12.3870013"><ele>623.0</ele><time>2026-04-18T13:43:52.928Z</time></trkpt><trkpt lat="43.521558" lon="12.3869146"><ele>624.0</ele><time>2026-04-18T13:43:55.928Z</time></trkpt><trkpt lat="43.5214851" lon="12.3868115"><ele>625.0</ele><time>2026-04-18T13:43:57.927Z</time></trkpt><trkpt lat="43.521403" lon="12.3867234"><ele>626.0</ele><time>2026-04-18T13:43:59.927Z</time></trkpt><trkpt lat="43.5213199" lon="12.38671"><ele>627.0</ele><time>2026-04-18T13:44:02.929Z</time></trkpt><trkpt lat="43.521241" lon="12.3866924"><ele>628.0</ele><time>2026-04-18T13:44:05.928Z</time></trkpt><trkpt lat="43.5211902" lon="12.38661"><ele>628.0</ele><time>2026-04-18T13:44:07.928Z</time></trkpt><trkpt lat="43.5211551" lon="12.3865217"><ele>628.0</ele><time>2026-04-18T13:44:09.928Z</time></trkpt><trkpt lat="43.5210862" lon="12.3864823"><ele>628.0</ele><time>2026-04-18T13:44:12.929Z</time></trkpt><trkpt lat="43.5210226" lon="12.3864504"><ele>628.0</ele><time>2026-04-18T13:44:15.928Z</time></trkpt><trkpt lat="43.5209493" lon="12.3863773"><ele>628.0</ele><time>2026-04-18T13:44:18.929Z</time></trkpt><trkpt lat="43.5208817" lon="12.3863124"><ele>628.0</ele><time>2026-04-18T13:44:21.927Z</time></trkpt><trkpt lat="43.5208473" lon="12.3862341"><ele>629.4285714285713</ele><time>2026-04-18T13:44:24.928Z</time></trkpt><trkpt lat="43.5208243" lon="12.3861262"><ele>630.8571428571429</ele><time>2026-04-18T13:44:29.927Z</time></trkpt><trkpt lat="43.5208178" lon="12.3860366"><ele>632.2857142857142</ele><time>2026-04-18T13:44:39.927Z</time></trkpt><trkpt lat="43.520784" lon="12.3859516"><ele>633.7142857142857</ele><time>2026-04-18T13:44:45.928Z</time></trkpt><trkpt lat="43.5207683" lon="12.3858451"><ele>635.1428571428571</ele><time>2026-04-18T13:44:48.929Z</time></trkpt><trkpt lat="43.5207088" lon="12.3857801"><ele>636.5714285714286</ele><time>2026-04-18T13:44:51.928Z</time></trkpt><trkpt lat="43.5206469" lon="12.3857498"><ele>638.0</ele><time>2026-04-18T13:44:53.928Z</time></trkpt><trkpt lat="43.5205244" lon="12.3856559"><ele>638.0</ele><time>2026-04-18T13:44:56.928Z</time></trkpt><trkpt lat="43.520477" lon="12.3855797"><ele>638.0</ele><time>2026-04-18T13:44:59.928Z</time></trkpt><trkpt lat="43.5204082" lon="12.3854977"><ele>638.0</ele><time>2026-04-18T13:45:02.928Z</time></trkpt><trkpt lat="43.5203431" lon="12.385426"><ele>638.0</ele><time>2026-04-18T13:45:03.928Z</time></trkpt><trkpt lat="43.5202666" lon="12.3853654"><ele>638.0</ele><time>2026-04-18T13:45:05.928Z</time></trkpt><trkpt lat="43.5202011" lon="12.3852756"><ele>638.0</ele><time>2026-04-18T13:45:07.928Z</time></trkpt><trkpt lat="43.5201541" lon="12.3852042"><ele>638.1666666666666</ele><time>2026-04-18T13:45:09.927Z</time></trkpt><trkpt lat="43.5200674" lon="12.3851093"><ele>638.3333333333333</ele><time>2026-04-18T13:45:12.927Z</time></trkpt><trkpt lat="43.5200044" lon="12.3849999"><ele>638.5</ele><time>2026-04-18T13:45:14.928Z</time></trkpt><trkpt lat="43.5199449" lon="12.3849407"><ele>638.6666666666666</ele><time>2026-04-18T13:45:16.928Z</time></trkpt><trkpt lat="43.5198886" lon="12.3848919"><ele>638.8333333333334</ele><time>2026-04-18T13:45:18.929Z</time></trkpt><trkpt lat="43.5198375" lon="12.384827"><ele>639.0</ele><time>2026-04-18T13:45:20.928Z</time></trkpt><trkpt lat="43.5197811" lon="12.38476"><ele>639.0</ele><time>2026-04-18T13:45:22.929Z</time></trkpt><trkpt lat="43.519835" lon="12.3848241"><ele>639.0</ele><time>2026-04-18T13:51:53.927Z</time></trkpt><trkpt lat="43.5198813" lon="12.3848906"><ele>639.0</ele><time>2026-04-18T13:52:01.927Z</time></trkpt><trkpt lat="43.5199458" lon="12.3849525"><ele>639.0</ele><time>2026-04-18T13:52:05.928Z</time></trkpt><trkpt lat="43.5200167" lon="12.3850168"><ele>639.0</ele><time>2026-04-18T13:52:09.928Z</time></trkpt><trkpt lat="43.5200739" lon="12.3851026"><ele>639.0</ele><time>2026-04-18T13:52:12.929Z</time></trkpt><trkpt lat="43.5201452" lon="12.3851764"><ele>639.0000000000001</ele><time>2026-04-18T13:52:15.927Z</time></trkpt><trkpt lat="43.5201934" lon="12.3852378"><ele>639.0</ele><time>2026-04-18T13:52:17.928Z</time></trkpt><trkpt lat="43.5202342" lon="12.3853047"><ele>639.0</ele><time>2026-04-18T13:52:20.928Z</time></trkpt><trkpt lat="43.5202828" lon="12.3853727"><ele>639.0</ele><time>2026-04-18T13:53:16.927Z</time></trkpt><trkpt lat="43.5203634" lon="12.3854122"><ele>639.0</ele><time>2026-04-18T13:53:18.927Z</time></trkpt><trkpt lat="43.5204373" lon="12.3854748"><ele>639.0000000000001</ele><time>2026-04-18T13:53:20.926Z</time></trkpt><trkpt lat="43.5204983" lon="12.3855326"><ele>639.0</ele><time>2026-04-18T13:53:22.927Z</time></trkpt><trkpt lat="43.5205375" lon="12.3856059"><ele>638.8333333333334</ele><time>2026-04-18T13:53:24.927Z</time></trkpt><trkpt lat="43.5205997" lon="12.3856986"><ele>638.6666666666666</ele><time>2026-04-18T13:53:26.927Z</time></trkpt><trkpt lat="43.5206953" lon="12.3857768"><ele>638.5</ele><time>2026-04-18T13:53:27.926Z</time></trkpt><trkpt lat="43.5207078" lon="12.3858664"><ele>638.3333333333333</ele><time>2026-04-18T13:53:33.927Z</time></trkpt><trkpt lat="43.5207252" lon="12.3859552"><ele>638.1666666666666</ele><time>2026-04-18T13:53:36.927Z</time></trkpt><trkpt lat="43.5207587" lon="12.3860793"><ele>638.0</ele><time>2026-04-18T13:53:39.926Z</time></trkpt><trkpt lat="43.5208021" lon="12.3861575"><ele>638.0</ele><time>2026-04-18T13:53:41.928Z</time></trkpt><trkpt lat="43.5208606" lon="12.3862055"><ele>638.0</ele><time>2026-04-18T13:53:43.927Z</time></trkpt><trkpt lat="43.5209248" lon="12.3862641"><ele>638.0</ele><time>2026-04-18T13:53:45.927Z</time></trkpt><trkpt lat="43.5210023" lon="12.3863287"><ele>638.0</ele><time>2026-04-18T13:53:47.927Z</time></trkpt><trkpt lat="43.5210671" lon="12.3864254"><ele>638.0</ele><time>2026-04-18T13:53:49.927Z</time></trkpt><trkpt lat="43.5211414" lon="12.3865278"><ele>638.0</ele><time>2026-04-18T13:53:51.927Z</time></trkpt><trkpt lat="43.5212151" lon="12.3865876"><ele>637.5</ele><time>2026-04-18T13:53:53.926Z</time></trkpt><trkpt lat="43.5212845" lon="12.3866162"><ele>637.0</ele><time>2026-04-18T13:53:55.926Z</time></trkpt><trkpt lat="43.5213425" lon="12.3867333"><ele>636.5</ele><time>2026-04-18T13:53:58.926Z</time></trkpt><trkpt lat="43.5213956" lon="12.3867957"><ele>636.0</ele><time>2026-04-18T13:54:00.926Z</time></trkpt><trkpt lat="43.5214624" lon="12.386864"><ele>635.5</ele><time>2026-04-18T13:54:04.928Z</time></trkpt><trkpt lat="43.5215364" lon="12.3869208"><ele>635.0</ele><time>2026-04-18T13:54:07.928Z</time></trkpt><trkpt lat="43.5216007" lon="12.3869771"><ele>635.0</ele><time>2026-04-18T13:54:12.926Z</time></trkpt><trkpt lat="43.5217183" lon="12.3870283"><ele>635.0</ele><time>2026-04-18T13:54:15.927Z</time></trkpt><trkpt lat="43.5217693" lon="12.3870947"><ele>635.0</ele><time>2026-04-18T13:54:16.926Z</time></trkpt><trkpt lat="43.5218216" lon="12.3871646"><ele>635.0</ele><time>2026-04-18T13:54:17.926Z</time></trkpt><trkpt lat="43.5219128" lon="12.3872646"><ele>635.0</ele><time>2026-04-18T13:54:19.927Z</time></trkpt><trkpt lat="43.5219835" lon="12.3873334"><ele>633.6666666666666</ele><time>2026-04-18T13:54:21.928Z</time></trkpt><trkpt lat="43.5220445" lon="12.3874133"><ele>632.3333333333333</ele><time>2026-04-18T13:54:23.926Z</time></trkpt><trkpt lat="43.522085" lon="12.3874816"><ele>631.0</ele><time>2026-04-18T13:54:25.927Z</time></trkpt><trkpt lat="43.522122" lon="12.3875696"><ele>629.6666666666666</ele><time>2026-04-18T13:54:27.927Z</time></trkpt><trkpt lat="43.5221581" lon="12.3876583"><ele>628.3333333333334</ele><time>2026-04-18T13:54:29.928Z</time></trkpt><trkpt lat="43.5222167" lon="12.3877504"><ele>627.0</ele><time>2026-04-18T13:54:32.927Z</time></trkpt><trkpt lat="43.5222791" lon="12.3877984"><ele>627.0</ele><time>2026-04-18T13:54:37.927Z</time></trkpt><trkpt lat="43.5223402" lon="12.3878532"><ele>627.0</ele><time>2026-04-18T13:54:40.927Z</time></trkpt><trkpt lat="43.5224222" lon="12.3879159"><ele>627.0</ele><time>2026-04-18T13:54:42.926Z</time></trkpt><trkpt lat="43.5225" lon="12.3879613"><ele>627.0</ele><time>2026-04-18T13:54:44.926Z</time></trkpt><trkpt lat="43.5225699" lon="12.3880119"><ele>627.0</ele><time>2026-04-18T13:54:46.927Z</time></trkpt><trkpt lat="43.5226406" lon="12.3881068"><ele>627.0</ele><time>2026-04-18T13:54:48.927Z</time></trkpt><trkpt lat="43.5226735" lon="12.388211"><ele>628.3333333333334</ele><time>2026-04-18T13:54:50.926Z</time></trkpt><trkpt lat="43.5227435" lon="12.3881822"><ele>629.6666666666666</ele><time>2026-04-18T13:55:32.928Z</time></trkpt><trkpt lat="43.522788" lon="12.3881178"><ele>631.0</ele><time>2026-04-18T13:55:34.928Z</time></trkpt><trkpt lat="43.5228483" lon="12.3880853"><ele>632.3333333333333</ele><time>2026-04-18T13:55:37.927Z</time></trkpt><trkpt lat="43.5228756" lon="12.3881828"><ele>633.6666666666666</ele><time>2026-04-18T13:55:38.927Z</time></trkpt><trkpt lat="43.5229066" lon="12.3883096"><ele>635.0</ele><time>2026-04-18T13:55:40.928Z</time></trkpt><trkpt lat="43.5229608" lon="12.3884261"><ele>635.0</ele><time>2026-04-18T13:55:42.927Z</time></trkpt><trkpt lat="43.5230319" lon="12.3884846"><ele>635.0</ele><time>2026-04-18T13:55:44.927Z</time></trkpt><trkpt lat="43.5231158" lon="12.3885083"><ele>635.0</ele><time>2026-04-18T13:55:46.927Z</time></trkpt><trkpt lat="43.5233204" lon="12.3884388"><ele>635.0</ele><time>2026-04-18T13:55:48.927Z</time></trkpt><trkpt lat="43.5233982" lon="12.3884186"><ele>635.0</ele><time>2026-04-18T13:55:49.926Z</time></trkpt><trkpt lat="43.5234648" lon="12.388417"><ele>635.0</ele><time>2026-04-18T13:55:50.927Z</time></trkpt><trkpt lat="43.5235595" lon="12.3884009"><ele>635.0</ele><time>2026-04-18T13:55:51.927Z</time></trkpt><trkpt lat="43.5236269" lon="12.3883987"><ele>635.0</ele><time>2026-04-18T13:55:52.927Z</time></trkpt><trkpt lat="43.5236947" lon="12.3884173"><ele>635.0</ele><time>2026-04-18T13:55:54.926Z</time></trkpt><trkpt lat="43.5237927" lon="12.3882458"><ele>637.6666666666666</ele><time>2026-04-18T13:55:57.928Z</time></trkpt><trkpt lat="43.5238626" lon="12.3882084"><ele>640.3333333333333</ele><time>2026-04-18T13:55:58.927Z</time></trkpt><trkpt lat="43.5239302" lon="12.3881836"><ele>643.0</ele><time>2026-04-18T13:55:59.928Z</time></trkpt><trkpt lat="43.5239953" lon="12.3881456"><ele>645.6666666666666</ele><time>2026-04-18T13:56:00.926Z</time></trkpt><trkpt lat="43.5240696" lon="12.3880987"><ele>648.3333333333334</ele><time>2026-04-18T13:56:02.926Z</time></trkpt><trkpt lat="43.5241507" lon="12.3879948"><ele>651.0</ele><time>2026-04-18T13:56:04.927Z</time></trkpt><trkpt lat="43.5242393" lon="12.3878986"><ele>651.0</ele><time>2026-04-18T13:56:06.927Z</time></trkpt><trkpt lat="43.5243392" lon="12.3878048"><ele>651.0</ele><time>2026-04-18T13:56:08.927Z</time></trkpt><trkpt lat="43.5244167" lon="12.3877251"><ele>651.0</ele><time>2026-04-18T13:56:10.927Z</time></trkpt><trkpt lat="43.5245076" lon="12.3876887"><ele>651.0</ele><time>2026-04-18T13:56:12.927Z</time></trkpt><trkpt lat="43.5245948" lon="12.38766"><ele>651.0</ele><time>2026-04-18T13:56:14.926Z</time></trkpt><trkpt lat="43.5246632" lon="12.3875993"><ele>653.1666666666666</ele><time>2026-04-18T13:56:16.927Z</time></trkpt><trkpt lat="43.524711" lon="12.3875114"><ele>655.3333333333334</ele><time>2026-04-18T13:56:18.928Z</time></trkpt><trkpt lat="43.5247595" lon="12.3874403"><ele>657.5</ele><time>2026-04-18T13:56:20.928Z</time></trkpt><trkpt lat="43.5248487" lon="12.3874346"><ele>659.6666666666667</ele><time>2026-04-18T13:56:22.927Z</time></trkpt><trkpt lat="43.5249298" lon="12.3874543"><ele>661.8333333333334</ele><time>2026-04-18T13:56:24.927Z</time></trkpt><trkpt lat="43.5250194" lon="12.3874582"><ele>664.0</ele><time>2026-04-18T13:56:26.927Z</time></trkpt><trkpt lat="43.5251211" lon="12.3874515"><ele>664.0</ele><time>2026-04-18T13:56:28.928Z</time></trkpt><trkpt lat="43.5251874" lon="12.3874464"><ele>664.0</ele><time>2026-04-18T13:56:29.927Z</time></trkpt><trkpt lat="43.5252851" lon="12.3873979"><ele>664.0</ele><time>2026-04-18T13:56:31.927Z</time></trkpt><trkpt lat="43.5253671" lon="12.3872911"><ele>664.0</ele><time>2026-04-18T13:56:33.926Z</time></trkpt><trkpt lat="43.5254344" lon="12.3872441"><ele>664.0</ele><time>2026-04-18T13:56:34.926Z</time></trkpt><trkpt lat="43.5255082" lon="12.3872133"><ele>664.0</ele><time>2026-04-18T13:56:35.927Z</time></trkpt><trkpt lat="43.5255839" lon="12.3872212"><ele>667.2</ele><time>2026-04-18T13:56:37.928Z</time></trkpt><trkpt lat="43.5256188" lon="12.3873521"><ele>670.4000000000001</ele><time>2026-04-18T13:56:39.927Z</time></trkpt><trkpt lat="43.5256276" lon="12.3874789"><ele>673.6</ele><time>2026-04-18T13:56:42.927Z</time></trkpt><trkpt lat="43.525703" lon="12.3875228"><ele>676.8</ele><time>2026-04-18T13:56:45.927Z</time></trkpt><trkpt lat="43.5257852" lon="12.3875122"><ele>680.0</ele><time>2026-04-18T13:56:47.927Z</time></trkpt><trkpt lat="43.5258685" lon="12.3874433"><ele>680.0</ele><time>2026-04-18T13:56:49.927Z</time></trkpt><trkpt lat="43.5259301" lon="12.3873443"><ele>680.0</ele><time>2026-04-18T13:56:51.926Z</time></trkpt><trkpt lat="43.5259839" lon="12.3871367"><ele>680.0</ele><time>2026-04-18T13:56:53.927Z</time></trkpt><trkpt lat="43.5260458" lon="12.3870028"><ele>680.0</ele><time>2026-04-18T13:56:55.928Z</time></trkpt><trkpt lat="43.5260789" lon="12.3869277"><ele>680.0</ele><time>2026-04-18T13:56:56.927Z</time></trkpt><trkpt lat="43.5261185" lon="12.3868564"><ele>682.2</ele><time>2026-04-18T13:56:58.927Z</time></trkpt><trkpt lat="43.5262016" lon="12.3868011"><ele>684.4</ele><time>2026-04-18T13:57:01.927Z</time></trkpt><trkpt lat="43.5263051" lon="12.386804"><ele>686.5999999999999</ele><time>2026-04-18T13:57:04.927Z</time></trkpt><trkpt lat="43.5263535" lon="12.3868876"><ele>688.8</ele><time>2026-04-18T13:57:08.928Z</time></trkpt><trkpt lat="43.5264159" lon="12.3869714"><ele>691.0</ele><time>2026-04-18T13:57:11.928Z</time></trkpt><trkpt lat="43.5264925" lon="12.387174"><ele>692.0</ele><time>2026-04-18T13:57:12.926Z</time></trkpt><trkpt lat="43.5265416" lon="12.3872552"><ele>693.0</ele><time>2026-04-18T13:57:13.928Z</time></trkpt><trkpt lat="43.5265827" lon="12.3873239"><ele>694.0</ele><time>2026-04-18T13:57:14.927Z</time></trkpt><trkpt lat="43.5266571" lon="12.387394"><ele>695.0</ele><time>2026-04-18T13:57:16.928Z</time></trkpt><trkpt lat="43.5266865" lon="12.3875084"><ele>696.0</ele><time>2026-04-18T13:57:17.927Z</time></trkpt><trkpt lat="43.5267239" lon="12.3876171"><ele>697.0</ele><time>2026-04-18T13:57:18.926Z</time></trkpt><trkpt lat="43.526802" lon="12.3876642"><ele>697.0</ele><time>2026-04-18T13:57:20.926Z</time></trkpt><trkpt lat="43.5268636" lon="12.387747"><ele>697.0</ele><time>2026-04-18T13:57:22.927Z</time></trkpt><trkpt lat="43.5269525" lon="12.3878473"><ele>697.0</ele><time>2026-04-18T13:57:24.927Z</time></trkpt><trkpt lat="43.5270305" lon="12.3879706"><ele>697.0</ele><time>2026-04-18T13:57:26.926Z</time></trkpt><trkpt lat="43.527071" lon="12.3881019"><ele>697.0</ele><time>2026-04-18T13:57:27.927Z</time></trkpt><trkpt lat="43.5271328" lon="12.3882904"><ele>700.2</ele><time>2026-04-18T13:57:28.927Z</time></trkpt><trkpt lat="43.5271697" lon="12.3883756"><ele>703.4000000000001</ele><time>2026-04-18T13:57:29.928Z</time></trkpt><trkpt lat="43.5272319" lon="12.3885204"><ele>706.5999999999999</ele><time>2026-04-18T13:57:31.928Z</time></trkpt><trkpt lat="43.5272539" lon="12.3886023"><ele>709.8</ele><time>2026-04-18T13:57:32.926Z</time></trkpt><trkpt lat="43.5272965" lon="12.3887139"><ele>713.0</ele><time>2026-04-18T13:57:33.927Z</time></trkpt><trkpt lat="43.527395" lon="12.3887514"><ele>713.0</ele><time>2026-04-18T13:57:35.927Z</time></trkpt><trkpt lat="43.5275168" lon="12.3888141"><ele>713.0</ele><time>2026-04-18T13:57:37.927Z</time></trkpt><trkpt lat="43.5275684" lon="12.3888676"><ele>713.0</ele><time>2026-04-18T13:57:40.927Z</time></trkpt><trkpt lat="43.5276531" lon="12.3888985"><ele>713.0</ele><time>2026-04-18T13:57:42.928Z</time></trkpt><trkpt lat="43.5276994" lon="12.3889757"><ele>713.0</ele><time>2026-04-18T13:57:45.928Z</time></trkpt><trkpt lat="43.5278586" lon="12.3889657"><ele>713.8</ele><time>2026-04-18T13:57:46.928Z</time></trkpt><trkpt lat="43.5279024" lon="12.3890286"><ele>714.5999999999999</ele><time>2026-04-18T13:57:47.926Z</time></trkpt><trkpt lat="43.5279855" lon="12.3891272"><ele>715.4000000000001</ele><time>2026-04-18T13:57:49.928Z</time></trkpt><trkpt lat="43.5280944" lon="12.3891874"><ele>716.2</ele><time>2026-04-18T13:57:51.927Z</time></trkpt><trkpt lat="43.5282445" lon="12.3892452"><ele>717.0</ele><time>2026-04-18T13:57:53.927Z</time></trkpt><trkpt lat="43.5283347" lon="12.3892979"><ele>717.0</ele><time>2026-04-18T13:57:55.928Z</time></trkpt><trkpt lat="43.5284161" lon="12.3893458"><ele>717.0</ele><time>2026-04-18T13:57:57.927Z</time></trkpt><trkpt lat="43.5285205" lon="12.3894014"><ele>717.0</ele><time>2026-04-18T13:57:59.927Z</time></trkpt><trkpt lat="43.5286031" lon="12.3894108"><ele>717.0</ele><time>2026-04-18T13:58:00.927Z</time></trkpt><trkpt lat="43.5286983" lon="12.3895071"><ele>717.0</ele><time>2026-04-18T13:58:01.928Z</time></trkpt><trkpt lat="43.5287713" lon="12.3895555"><ele>717.8333333333334</ele><time>2026-04-18T13:58:02.927Z</time></trkpt><trkpt lat="43.5288613" lon="12.3896072"><ele>718.6666666666666</ele><time>2026-04-18T13:58:03.927Z</time></trkpt><trkpt lat="43.5289242" lon="12.3896445"><ele>719.5</ele><time>2026-04-18T13:58:04.926Z</time></trkpt><trkpt lat="43.5290013" lon="12.389674"><ele>720.3333333333333</ele><time>2026-04-18T13:58:05.926Z</time></trkpt><trkpt lat="43.5290784" lon="12.3896924"><ele>721.1666666666666</ele><time>2026-04-18T13:58:06.928Z</time></trkpt><trkpt lat="43.529187" lon="12.3896812"><ele>722.0</ele><time>2026-04-18T13:58:08.926Z</time></trkpt><trkpt lat="43.5292162" lon="12.3895963"><ele>722.8</ele><time>2026-04-18T13:58:10.926Z</time></trkpt><trkpt lat="43.5292006" lon="12.389487"><ele>723.6</ele><time>2026-04-18T13:58:12.928Z</time></trkpt><trkpt lat="43.5291889" lon="12.3893166"><ele>724.4</ele><time>2026-04-18T13:58:14.927Z</time></trkpt><trkpt lat="43.5291769" lon="12.3892018"><ele>725.1999999999999</ele><time>2026-04-18T13:58:15.927Z</time></trkpt><trkpt lat="43.5291648" lon="12.3890985"><ele>726.0</ele><time>2026-04-18T13:58:16.926Z</time></trkpt><trkpt lat="43.5291496" lon="12.3889443"><ele>727.5</ele><time>2026-04-18T13:58:17.928Z</time></trkpt><trkpt lat="43.5291364" lon="12.3888011"><ele>729.0</ele><time>2026-04-18T13:58:18.926Z</time></trkpt><trkpt lat="43.5291078" lon="12.3886858"><ele>730.5</ele><time>2026-04-18T13:58:19.927Z</time></trkpt><trkpt lat="43.5291065" lon="12.3885452"><ele>732.0</ele><time>2026-04-18T13:58:20.926Z</time></trkpt><trkpt lat="43.5290731" lon="12.3883018"><ele>732.0</ele><time>2026-04-18T13:58:22.926Z</time></trkpt><trkpt lat="43.529049" lon="12.3881991"><ele>732.0</ele><time>2026-04-18T13:58:23.928Z</time></trkpt><trkpt lat="43.5290184" lon="12.3880677"><ele>732.0</ele><time>2026-04-18T13:58:24.928Z</time></trkpt><trkpt lat="43.5289768" lon="12.3879571"><ele>732.0</ele><time>2026-04-18T13:58:25.926Z</time></trkpt><trkpt lat="43.5289304" lon="12.3878417"><ele>732.0</ele><time>2026-04-18T13:58:26.926Z</time></trkpt><trkpt lat="43.528892" lon="12.3877446"><ele>732.0</ele><time>2026-04-18T13:58:27.926Z</time></trkpt><trkpt lat="43.5288333" lon="12.3876163"><ele>731.6</ele><time>2026-04-18T13:58:28.926Z</time></trkpt><trkpt lat="43.5287624" lon="12.3874808"><ele>731.2</ele><time>2026-04-18T13:58:29.928Z</time></trkpt><trkpt lat="43.5286997" lon="12.3873918"><ele>730.8</ele><time>2026-04-18T13:58:30.927Z</time></trkpt><trkpt lat="43.5286202" lon="12.3872745"><ele>730.4</ele><time>2026-04-18T13:58:31.927Z</time></trkpt><trkpt lat="43.528563" lon="12.387163"><ele>730.0</ele><time>2026-04-18T13:58:32.927Z</time></trkpt><trkpt lat="43.5285026" lon="12.3870531"><ele>733.4</ele><time>2026-04-18T13:58:33.928Z</time></trkpt><trkpt lat="43.5284386" lon="12.3869226"><ele>736.8</ele><time>2026-04-18T13:58:34.927Z</time></trkpt><trkpt lat="43.5283821" lon="12.3868081"><ele>740.2</ele><time>2026-04-18T13:58:35.927Z</time></trkpt><trkpt lat="43.5283208" lon="12.386701"><ele>743.6</ele><time>2026-04-18T13:58:36.926Z</time></trkpt><trkpt lat="43.5282719" lon="12.3865887"><ele>747.0</ele><time>2026-04-18T13:58:37.927Z</time></trkpt><trkpt lat="43.528259" lon="12.3864337"><ele>747.25</ele><time>2026-04-18T13:58:38.927Z</time></trkpt><trkpt lat="43.5282137" lon="12.3863103"><ele>747.5</ele><time>2026-04-18T13:58:39.927Z</time></trkpt><trkpt lat="43.5281744" lon="12.3861841"><ele>747.75</ele><time>2026-04-18T13:58:40.928Z</time></trkpt><trkpt lat="43.5281109" lon="12.3860185"><ele>748.0</ele><time>2026-04-18T13:58:41.927Z</time></trkpt><trkpt lat="43.5280571" lon="12.3858667"><ele>748.0</ele><time>2026-04-18T13:58:42.927Z</time></trkpt><trkpt lat="43.5280104" lon="12.3857397"><ele>748.0</ele><time>2026-04-18T13:58:43.928Z</time></trkpt><trkpt lat="43.5280105" lon="12.3856368"><ele>748.0</ele><time>2026-04-18T13:58:44.926Z</time></trkpt><trkpt lat="43.5280084" lon="12.3855301"><ele>748.0</ele><time>2026-04-18T13:58:45.927Z</time></trkpt><trkpt lat="43.5280543" lon="12.3853844"><ele>748.0</ele><time>2026-04-18T13:58:47.927Z</time></trkpt><trkpt lat="43.5281305" lon="12.3852627"><ele>748.5</ele><time>2026-04-18T13:58:49.927Z</time></trkpt><trkpt lat="43.5281854" lon="12.3852062"><ele>749.0</ele><time>2026-04-18T13:58:50.926Z</time></trkpt><trkpt lat="43.5282433" lon="12.3851333"><ele>749.5</ele><time>2026-04-18T13:58:51.927Z</time></trkpt><trkpt lat="43.5282994" lon="12.3850817"><ele>750.0</ele><time>2026-04-18T13:58:52.927Z</time></trkpt><trkpt lat="43.5283592" lon="12.3849529"><ele>750.5</ele><time>2026-04-18T13:58:54.926Z</time></trkpt><trkpt lat="43.5283424" lon="12.3848629"><ele>751.0</ele><time>2026-04-18T13:58:56.927Z</time></trkpt><trkpt lat="43.5282465" lon="12.3846637"><ele>751.0</ele><time>2026-04-18T13:58:58.926Z</time></trkpt><trkpt lat="43.5281922" lon="12.384603"><ele>751.0</ele><time>2026-04-18T13:58:59.926Z</time></trkpt><trkpt lat="43.5281306" lon="12.3845699"><ele>751.0</ele><time>2026-04-18T13:59:00.928Z</time></trkpt><trkpt lat="43.5280028" lon="12.3845254"><ele>751.0</ele><time>2026-04-18T13:59:02.927Z</time></trkpt><trkpt lat="43.5279367" lon="12.3845141"><ele>751.0</ele><time>2026-04-18T13:59:03.926Z</time></trkpt><trkpt lat="43.5278182" lon="12.3845195"><ele>751.0</ele><time>2026-04-18T13:59:05.928Z</time></trkpt><trkpt lat="43.5277656" lon="12.3844349"><ele>751.0</ele><time>2026-04-18T13:59:07.927Z</time></trkpt><trkpt lat="43.5278327" lon="12.3843386"><ele>751.0</ele><time>2026-04-18T13:59:09.927Z</time></trkpt><trkpt lat="43.5278821" lon="12.3842744"><ele>751.0</ele><time>2026-04-18T13:59:10.927Z</time></trkpt><trkpt lat="43.5279586" lon="12.3841387"><ele>751.0</ele><time>2026-04-18T13:59:12.927Z</time></trkpt><trkpt lat="43.5279822" lon="12.3840572"><ele>751.0</ele><time>2026-04-18T13:59:13.926Z</time></trkpt><trkpt lat="43.5279969" lon="12.3839703"><ele>751.0</ele><time>2026-04-18T13:59:14.926Z</time></trkpt><trkpt lat="43.5280143" lon="12.3838753"><ele>751.0</ele><time>2026-04-18T13:59:15.928Z</time></trkpt><trkpt lat="43.528031" lon="12.3837381"><ele>751.0</ele><time>2026-04-18T13:59:16.927Z</time></trkpt><trkpt lat="43.5280508" lon="12.3836356"><ele>751.0</ele><time>2026-04-18T13:59:17.928Z</time></trkpt><trkpt lat="43.5280473" lon="12.3834339"><ele>751.0</ele><time>2026-04-18T13:59:18.927Z</time></trkpt><trkpt lat="43.5280894" lon="12.3833185"><ele>752.75</ele><time>2026-04-18T13:59:19.928Z</time></trkpt><trkpt lat="43.5281492" lon="12.3832462"><ele>754.5</ele><time>2026-04-18T13:59:21.927Z</time></trkpt><trkpt lat="43.5283478" lon="12.3834072"><ele>756.25</ele><time>2026-04-18T13:59:33.928Z</time></trkpt><trkpt lat="43.5284396" lon="12.3834926"><ele>758.0</ele><time>2026-04-18T13:59:35.927Z</time></trkpt><trkpt lat="43.5285443" lon="12.3834075"><ele>758.0</ele><time>2026-04-18T13:59:38.927Z</time></trkpt><trkpt lat="43.5285701" lon="12.383261"><ele>758.0</ele><time>2026-04-18T13:59:40.926Z</time></trkpt><trkpt lat="43.5285729" lon="12.383087"><ele>758.0</ele><time>2026-04-18T13:59:42.928Z</time></trkpt><trkpt lat="43.528563" lon="12.3829811"><ele>758.0</ele><time>2026-04-18T13:59:43.927Z</time></trkpt><trkpt lat="43.528596" lon="12.3828732"><ele>758.0</ele><time>2026-04-18T13:59:44.926Z</time></trkpt><trkpt lat="43.5285975" lon="12.3827638"><ele>761.0</ele><time>2026-04-18T13:59:45.927Z</time></trkpt><trkpt lat="43.528606" lon="12.3825957"><ele>764.0</ele><time>2026-04-18T13:59:46.927Z</time></trkpt><trkpt lat="43.5286348" lon="12.3824835"><ele>767.0</ele><time>2026-04-18T13:59:47.927Z</time></trkpt><trkpt lat="43.5286225" lon="12.382304"><ele>770.0</ele><time>2026-04-18T13:59:49.927Z</time></trkpt><trkpt lat="43.5286186" lon="12.382166"><ele>773.0</ele><time>2026-04-18T13:59:51.927Z</time></trkpt><trkpt lat="43.5287199" lon="12.3821306"><ele>774.6666666666667</ele><time>2026-04-18T13:59:53.928Z</time></trkpt><trkpt lat="43.528781" lon="12.3821622"><ele>776.3333333333334</ele><time>2026-04-18T13:59:54.927Z</time></trkpt><trkpt lat="43.5288869" lon="12.3822643"><ele>778.0</ele><time>2026-04-18T13:59:56.927Z</time></trkpt><trkpt lat="43.5289498" lon="12.3823397"><ele>779.6666666666667</ele><time>2026-04-18T13:59:57.927Z</time></trkpt><trkpt lat="43.5290166" lon="12.3824181"><ele>781.3333333333334</ele><time>2026-04-18T13:59:58.928Z</time></trkpt><trkpt lat="43.5290757" lon="12.3824984"><ele>783.0</ele><time>2026-04-18T13:59:59.928Z</time></trkpt><trkpt lat="43.5291465" lon="12.3825631"><ele>783.0</ele><time>2026-04-18T14:00:00.927Z</time></trkpt><trkpt lat="43.5292122" lon="12.3826256"><ele>783.0</ele><time>2026-04-18T14:00:01.928Z</time></trkpt><trkpt lat="43.5292873" lon="12.3826805"><ele>783.0</ele><time>2026-04-18T14:00:02.927Z</time></trkpt><trkpt lat="43.5293514" lon="12.3827443"><ele>783.0</ele><time>2026-04-18T14:00:03.928Z</time></trkpt><trkpt lat="43.5294062" lon="12.3827878"><ele>783.0</ele><time>2026-04-18T14:00:04.928Z</time></trkpt><trkpt lat="43.5294914" lon="12.3827797"><ele>783.0</ele><time>2026-04-18T14:00:06.928Z</time></trkpt><trkpt lat="43.5295967" lon="12.3826637"><ele>783.0</ele><time>2026-04-18T14:00:08.928Z</time></trkpt><trkpt lat="43.5294545" lon="12.3824673"><ele>783.0</ele><time>2026-04-18T14:00:10.928Z</time></trkpt><trkpt lat="43.5294289" lon="12.3823548"><ele>783.0</ele><time>2026-04-18T14:00:11.927Z</time></trkpt><trkpt lat="43.5293965" lon="12.3822326"><ele>783.0</ele><time>2026-04-18T14:00:12.927Z</time></trkpt><trkpt lat="43.529367" lon="12.3821028"><ele>784.1666666666666</ele><time>2026-04-18T14:00:13.927Z</time></trkpt><trkpt lat="43.5293408" lon="12.3819875"><ele>785.3333333333333</ele><time>2026-04-18T14:00:14.927Z</time></trkpt><trkpt lat="43.5293168" lon="12.3818848"><ele>786.5</ele><time>2026-04-18T14:00:15.927Z</time></trkpt><trkpt lat="43.5292832" lon="12.3817981"><ele>787.6666666666666</ele><time>2026-04-18T14:00:16.927Z</time></trkpt><trkpt lat="43.5292449" lon="12.3817261"><ele>788.8333333333333</ele><time>2026-04-18T14:00:17.928Z</time></trkpt><trkpt lat="43.5291698" lon="12.3816697"><ele>790.0</ele><time>2026-04-18T14:00:18.927Z</time></trkpt><trkpt lat="43.5290913" lon="12.3815898"><ele>790.0</ele><time>2026-04-18T14:00:19.926Z</time></trkpt><trkpt lat="43.5290243" lon="12.3815148"><ele>790.0</ele><time>2026-04-18T14:00:20.928Z</time></trkpt><trkpt lat="43.5289563" lon="12.3814272"><ele>790.0</ele><time>2026-04-18T14:00:21.927Z</time></trkpt><trkpt lat="43.52888" lon="12.3813442"><ele>790.0</ele><time>2026-04-18T14:00:22.927Z</time></trkpt><trkpt lat="43.528803" lon="12.3812838"><ele>790.0</ele><time>2026-04-18T14:00:23.926Z</time></trkpt><trkpt lat="43.5287196" lon="12.3812369"><ele>790.0</ele><time>2026-04-18T14:00:24.927Z</time></trkpt><trkpt lat="43.5286329" lon="12.3811819"><ele>790.0</ele><time>2026-04-18T14:00:25.927Z</time></trkpt><trkpt lat="43.5285584" lon="12.3811013"><ele>790.0</ele><time>2026-04-18T14:00:26.926Z</time></trkpt><trkpt lat="43.5284784" lon="12.3810313"><ele>790.0</ele><time>2026-04-18T14:00:27.927Z</time></trkpt><trkpt lat="43.5284112" lon="12.3809807"><ele>790.0</ele><time>2026-04-18T14:00:28.927Z</time></trkpt><trkpt lat="43.5282981" lon="12.3809198"><ele>790.0</ele><time>2026-04-18T14:00:30.927Z</time></trkpt><trkpt lat="43.5282129" lon="12.3808801"><ele>790.0</ele><time>2026-04-18T14:00:32.927Z</time></trkpt><trkpt lat="43.5281362" lon="12.380869"><ele>790.0</ele><time>2026-04-18T14:00:34.928Z</time></trkpt><trkpt lat="43.5280614" lon="12.3807669"><ele>790.0</ele><time>2026-04-18T14:00:36.927Z</time></trkpt><trkpt lat="43.5279663" lon="12.3806735"><ele>790.0</ele><time>2026-04-18T14:00:38.927Z</time></trkpt><trkpt lat="43.5278495" lon="12.3806084"><ele>790.4</ele><time>2026-04-18T14:00:40.926Z</time></trkpt><trkpt lat="43.5277747" lon="12.3805962"><ele>790.8</ele><time>2026-04-18T14:00:41.927Z</time></trkpt><trkpt lat="43.5277075" lon="12.3806141"><ele>791.2</ele><time>2026-04-18T14:00:42.928Z</time></trkpt><trkpt lat="43.5276459" lon="12.3806389"><ele>791.6</ele><time>2026-04-18T14:00:43.928Z</time></trkpt><trkpt lat="43.527525" lon="12.380618"><ele>792.0</ele><time>2026-04-18T14:00:45.926Z</time></trkpt><trkpt lat="43.5274264" lon="12.3805067"><ele>795.6</ele><time>2026-04-18T14:00:47.927Z</time></trkpt><trkpt lat="43.5273894" lon="12.3803857"><ele>799.2</ele><time>2026-04-18T14:00:49.927Z</time></trkpt><trkpt lat="43.5274035" lon="12.3802246"><ele>802.8</ele><time>2026-04-18T14:00:51.927Z</time></trkpt><trkpt lat="43.527413" lon="12.3801016"><ele>806.4</ele><time>2026-04-18T14:00:52.927Z</time></trkpt><trkpt lat="43.5274124" lon="12.379984"><ele>810.0</ele><time>2026-04-18T14:00:53.927Z</time></trkpt><trkpt lat="43.5273989" lon="12.3798702"><ele>810.0</ele><time>2026-04-18T14:00:54.928Z</time></trkpt><trkpt lat="43.527376" lon="12.3797655"><ele>810.0</ele><time>2026-04-18T14:00:55.927Z</time></trkpt><trkpt lat="43.5273614" lon="12.3796548"><ele>810.0</ele><time>2026-04-18T14:00:56.926Z</time></trkpt><trkpt lat="43.5272889" lon="12.3796239"><ele>810.0</ele><time>2026-04-18T14:00:57.927Z</time></trkpt><trkpt lat="43.527257" lon="12.3795462"><ele>810.0</ele><time>2026-04-18T14:00:58.927Z</time></trkpt><trkpt lat="43.5271718" lon="12.3794463"><ele>810.0</ele><time>2026-04-18T14:01:00.927Z</time></trkpt><trkpt lat="43.5270673" lon="12.3793871"><ele>813.3333333333334</ele><time>2026-04-18T14:01:02.927Z</time></trkpt><trkpt lat="43.527003" lon="12.3793458"><ele>816.6666666666667</ele><time>2026-04-18T14:01:03.928Z</time></trkpt><trkpt lat="43.526934" lon="12.3793128"><ele>820.0</ele><time>2026-04-18T14:01:04.927Z</time></trkpt><trkpt lat="43.526841" lon="12.3793105"><ele>823.3333333333334</ele><time>2026-04-18T14:01:05.927Z</time></trkpt><trkpt lat="43.5267775" lon="12.3792988"><ele>826.6666666666667</ele><time>2026-04-18T14:01:06.927Z</time></trkpt><trkpt lat="43.5267138" lon="12.3792898"><ele>830.0</ele><time>2026-04-18T14:01:07.927Z</time></trkpt><trkpt lat="43.526582" lon="12.3792841"><ele>830.0000000000001</ele><time>2026-04-18T14:01:09.927Z</time></trkpt><trkpt lat="43.5265043" lon="12.3792889"><ele>830.0</ele><time>2026-04-18T14:01:10.927Z</time></trkpt><trkpt lat="43.526435" lon="12.3793383"><ele>830.0</ele><time>2026-04-18T14:01:11.926Z</time></trkpt><trkpt lat="43.5263455" lon="12.37937"><ele>830.0</ele><time>2026-04-18T14:01:12.927Z</time></trkpt><trkpt lat="43.5262322" lon="12.379452"><ele>830.0000000000001</ele><time>2026-04-18T14:01:14.928Z</time></trkpt><trkpt lat="43.5261744" lon="12.3794977"><ele>830.0</ele><time>2026-04-18T14:01:15.928Z</time></trkpt><trkpt lat="43.5261191" lon="12.3795487"><ele>829.5000000000001</ele><time>2026-04-18T14:01:16.928Z</time></trkpt><trkpt lat="43.5260701" lon="12.3796058"><ele>829.0</ele><time>2026-04-18T14:01:17.927Z</time></trkpt><trkpt lat="43.5259939" lon="12.3797062"><ele>828.5</ele><time>2026-04-18T14:01:19.928Z</time></trkpt><trkpt lat="43.5259456" lon="12.3797715"><ele>828.0</ele><time>2026-04-18T14:01:21.927Z</time></trkpt><trkpt lat="43.5258856" lon="12.3798381"><ele>827.5000000000001</ele><time>2026-04-18T14:01:23.928Z</time></trkpt><trkpt lat="43.5258383" lon="12.3797773"><ele>827.0</ele><time>2026-04-18T14:01:26.926Z</time></trkpt><trkpt lat="43.5258683" lon="12.3796706"><ele>827.0000000000001</ele><time>2026-04-18T14:01:28.927Z</time></trkpt><trkpt lat="43.5259078" lon="12.3795338"><ele>827.0</ele><time>2026-04-18T14:01:30.928Z</time></trkpt><trkpt lat="43.5258628" lon="12.3794696"><ele>827.0</ele><time>2026-04-18T14:01:32.926Z</time></trkpt><trkpt lat="43.5258595" lon="12.3793763"><ele>827.0</ele><time>2026-04-18T14:01:35.928Z</time></trkpt><trkpt lat="43.5258843" lon="12.3792356"><ele>827.0000000000001</ele><time>2026-04-18T14:01:37.927Z</time></trkpt><trkpt lat="43.5258979" lon="12.3791394"><ele>827.0</ele><time>2026-04-18T14:01:38.927Z</time></trkpt><trkpt lat="43.5259283" lon="12.3790503"><ele>827.0000000000001</ele><time>2026-04-18T14:01:39.927Z</time></trkpt><trkpt lat="43.5259641" lon="12.3789756"><ele>827.0</ele><time>2026-04-18T14:01:40.927Z</time></trkpt><trkpt lat="43.526015" lon="12.3789021"><ele>827.0</ele><time>2026-04-18T14:01:41.927Z</time></trkpt><trkpt lat="43.5260921" lon="12.3788168"><ele>827.0</ele><time>2026-04-18T14:01:42.927Z</time></trkpt><trkpt lat="43.5261432" lon="12.3787266"><ele>827.0000000000001</ele><time>2026-04-18T14:01:43.927Z</time></trkpt><trkpt lat="43.5261715" lon="12.378637"><ele>827.0</ele><time>2026-04-18T14:01:44.927Z</time></trkpt><trkpt lat="43.5262002" lon="12.378488"><ele>827.2</ele><time>2026-04-18T14:01:46.927Z</time></trkpt><trkpt lat="43.5262097" lon="12.3784"><ele>827.4000000000001</ele><time>2026-04-18T14:01:47.926Z</time></trkpt><trkpt lat="43.5261919" lon="12.3782995"><ele>827.5999999999999</ele><time>2026-04-18T14:01:48.927Z</time></trkpt><trkpt lat="43.5261851" lon="12.3781703"><ele>827.8</ele><time>2026-04-18T14:01:49.928Z</time></trkpt><trkpt lat="43.5261557" lon="12.377977"><ele>828.0</ele><time>2026-04-18T14:01:50.926Z</time></trkpt><trkpt lat="43.5261256" lon="12.3778561"><ele>828.5</ele><time>2026-04-18T14:01:51.926Z</time></trkpt><trkpt lat="43.52617" lon="12.377782"><ele>829.0</ele><time>2026-04-18T14:01:53.927Z</time></trkpt><trkpt lat="43.5261153" lon="12.3777059"><ele>829.5</ele><time>2026-04-18T14:01:56.926Z</time></trkpt><trkpt lat="43.5260536" lon="12.3776541"><ele>830.0</ele><time>2026-04-18T14:01:58.929Z</time></trkpt><trkpt lat="43.5259855" lon="12.3776068"><ele>830.5</ele><time>2026-04-18T14:02:00.926Z</time></trkpt><trkpt lat="43.5259232" lon="12.3774897"><ele>831.0</ele><time>2026-04-18T14:02:02.926Z</time></trkpt><trkpt lat="43.5258414" lon="12.3774242"><ele>830.9999999999999</ele><time>2026-04-18T14:02:03.925Z</time></trkpt><trkpt lat="43.525777" lon="12.3774016"><ele>831.0</ele><time>2026-04-18T14:02:04.927Z</time></trkpt><trkpt lat="43.5257175" lon="12.3773609"><ele>831.0</ele><time>2026-04-18T14:02:05.925Z</time></trkpt><trkpt lat="43.5256533" lon="12.377314"><ele>831.0</ele><time>2026-04-18T14:02:06.926Z</time></trkpt><trkpt lat="43.5255748" lon="12.3772425"><ele>831.0</ele><time>2026-04-18T14:02:08.925Z</time></trkpt><trkpt lat="43.5255707" lon="12.3771533"><ele>830.9999999999999</ele><time>2026-04-18T14:02:09.925Z</time></trkpt><trkpt lat="43.5255432" lon="12.377074"><ele>831.0</ele><time>2026-04-18T14:02:11.925Z</time></trkpt><trkpt lat="43.5255397" lon="12.3769192"><ele>829.0</ele><time>2026-04-18T14:02:13.926Z</time></trkpt><trkpt lat="43.5255379" lon="12.376832"><ele>827.0</ele><time>2026-04-18T14:02:15.925Z</time></trkpt><trkpt lat="43.5255512" lon="12.3767305"><ele>825.0</ele><time>2026-04-18T14:02:17.926Z</time></trkpt><trkpt lat="43.5255451" lon="12.3766054"><ele>823.0</ele><time>2026-04-18T14:02:19.927Z</time></trkpt><trkpt lat="43.5254941" lon="12.3765053"><ele>821.0</ele><time>2026-04-18T14:02:21.926Z</time></trkpt><trkpt lat="43.5254187" lon="12.3764253"><ele>819.0</ele><time>2026-04-18T14:02:23.925Z</time></trkpt><trkpt lat="43.525323" lon="12.3763942"><ele>818.5</ele><time>2026-04-18T14:02:25.925Z</time></trkpt><trkpt lat="43.5252515" lon="12.376427"><ele>818.0</ele><time>2026-04-18T14:02:27.926Z</time></trkpt><trkpt lat="43.5251873" lon="12.3764615"><ele>817.5</ele><time>2026-04-18T14:02:29.926Z</time></trkpt><trkpt lat="43.5251228" lon="12.3764536"><ele>817.0</ele><time>2026-04-18T14:02:31.926Z</time></trkpt><trkpt lat="43.5250102" lon="12.3764465"><ele>816.5</ele><time>2026-04-18T14:02:33.926Z</time></trkpt><trkpt lat="43.5249352" lon="12.3764429"><ele>816.0</ele><time>2026-04-18T14:02:35.926Z</time></trkpt><trkpt lat="43.5248673" lon="12.3764492"><ele>816.0</ele><time>2026-04-18T14:02:37.926Z</time></trkpt><trkpt lat="43.5248027" lon="12.3764194"><ele>816.0</ele><time>2026-04-18T14:02:39.926Z</time></trkpt><trkpt lat="43.5247293" lon="12.3763641"><ele>816.0</ele><time>2026-04-18T14:02:41.925Z</time></trkpt><trkpt lat="43.5246367" lon="12.3762666"><ele>816.0</ele><time>2026-04-18T14:02:43.926Z</time></trkpt><trkpt lat="43.524535" lon="12.3761891"><ele>816.0</ele><time>2026-04-18T14:02:45.926Z</time></trkpt><trkpt lat="43.5244658" lon="12.3761474"><ele>813.4</ele><time>2026-04-18T14:02:46.925Z</time></trkpt><trkpt lat="43.524395" lon="12.3761005"><ele>810.8</ele><time>2026-04-18T14:02:47.927Z</time></trkpt><trkpt lat="43.5243051" lon="12.3760474"><ele>808.1999999999999</ele><time>2026-04-18T14:02:48.926Z</time></trkpt><trkpt lat="43.5241828" lon="12.3759691"><ele>805.5999999999999</ele><time>2026-04-18T14:02:49.926Z</time></trkpt><trkpt lat="43.5241027" lon="12.3759176"><ele>803.0</ele><time>2026-04-18T14:02:50.926Z</time></trkpt><trkpt lat="43.5240229" lon="12.3758914"><ele>803.0</ele><time>2026-04-18T14:02:51.926Z</time></trkpt><trkpt lat="43.5239197" lon="12.3757686"><ele>803.0</ele><time>2026-04-18T14:02:53.926Z</time></trkpt><trkpt lat="43.5238657" lon="12.3756415"><ele>803.0</ele><time>2026-04-18T14:02:55.926Z</time></trkpt><trkpt lat="43.5238091" lon="12.3755761"><ele>803.0</ele><time>2026-04-18T14:02:56.925Z</time></trkpt><trkpt lat="43.5237697" lon="12.3754566"><ele>803.0</ele><time>2026-04-18T14:02:57.926Z</time></trkpt><trkpt lat="43.5237142" lon="12.3753374"><ele>803.0000000000001</ele><time>2026-04-18T14:02:59.926Z</time></trkpt><trkpt lat="43.5236576" lon="12.3752639"><ele>803.0</ele><time>2026-04-18T14:03:00.925Z</time></trkpt><trkpt lat="43.5235882" lon="12.3751183"><ele>803.0</ele><time>2026-04-18T14:03:01.927Z</time></trkpt><trkpt lat="43.5235265" lon="12.3750058"><ele>803.0</ele><time>2026-04-18T14:03:04.925Z</time></trkpt><trkpt lat="43.5234853" lon="12.3749345"><ele>803.0000000000001</ele><time>2026-04-18T14:03:05.926Z</time></trkpt><trkpt lat="43.5234331" lon="12.3748601"><ele>803.0</ele><time>2026-04-18T14:03:06.926Z</time></trkpt><trkpt lat="43.5233878" lon="12.3747087"><ele>805.0</ele><time>2026-04-18T14:03:08.927Z</time></trkpt><trkpt lat="43.5233529" lon="12.3745356"><ele>807.0</ele><time>2026-04-18T14:03:10.927Z</time></trkpt><trkpt lat="43.5233108" lon="12.3743811"><ele>809.0</ele><time>2026-04-18T14:03:12.926Z</time></trkpt><trkpt lat="43.5232608" lon="12.3742554"><ele>811.0</ele><time>2026-04-18T14:03:14.925Z</time></trkpt><trkpt lat="43.5231959" lon="12.3741304"><ele>810.9999999999999</ele><time>2026-04-18T14:03:16.925Z</time></trkpt><trkpt lat="43.5231208" lon="12.3740276"><ele>811.0</ele><time>2026-04-18T14:03:18.926Z</time></trkpt><trkpt lat="43.5230917" lon="12.3739468"><ele>811.0</ele><time>2026-04-18T14:03:19.926Z</time></trkpt><trkpt lat="43.5230468" lon="12.3738678"><ele>811.0</ele><time>2026-04-18T14:03:20.926Z</time></trkpt><trkpt lat="43.5229743" lon="12.3737323"><ele>810.9999999999999</ele><time>2026-04-18T14:03:22.926Z</time></trkpt><trkpt lat="43.5229573" lon="12.3736308"><ele>811.0</ele><time>2026-04-18T14:03:23.927Z</time></trkpt><trkpt lat="43.5229331" lon="12.3735319"><ele>807.8</ele><time>2026-04-18T14:03:25.927Z</time></trkpt><trkpt lat="43.5228411" lon="12.3734253"><ele>804.5999999999999</ele><time>2026-04-18T14:03:27.925Z</time></trkpt><trkpt lat="43.5227685" lon="12.3732945"><ele>801.4</ele><time>2026-04-18T14:03:29.926Z</time></trkpt><trkpt lat="43.5227374" lon="12.3732098"><ele>798.2</ele><time>2026-04-18T14:03:30.927Z</time></trkpt><trkpt lat="43.5227264" lon="12.3730673"><ele>795.0</ele><time>2026-04-18T14:03:32.926Z</time></trkpt><trkpt lat="43.5226641" lon="12.372931"><ele>795.0</ele><time>2026-04-18T14:03:34.927Z</time></trkpt><trkpt lat="43.5225898" lon="12.3728408"><ele>795.0</ele><time>2026-04-18T14:03:35.926Z</time></trkpt><trkpt lat="43.5225366" lon="12.3727488"><ele>795.0</ele><time>2026-04-18T14:03:36.926Z</time></trkpt><trkpt lat="43.5224796" lon="12.3726613"><ele>795.0</ele><time>2026-04-18T14:03:37.927Z</time></trkpt><trkpt lat="43.5224144" lon="12.3725787"><ele>795.0</ele><time>2026-04-18T14:03:38.926Z</time></trkpt><trkpt lat="43.522348" lon="12.3724927"><ele>795.0</ele><time>2026-04-18T14:03:39.925Z</time></trkpt><trkpt lat="43.5222737" lon="12.3724245"><ele>795.0</ele><time>2026-04-18T14:03:40.926Z</time></trkpt><trkpt lat="43.5222168" lon="12.3723368"><ele>795.0</ele><time>2026-04-18T14:03:41.927Z</time></trkpt><trkpt lat="43.5221824" lon="12.3722483"><ele>795.0</ele><time>2026-04-18T14:03:42.926Z</time></trkpt><trkpt lat="43.5221615" lon="12.3721652"><ele>795.0</ele><time>2026-04-18T14:03:43.927Z</time></trkpt><trkpt lat="43.5220919" lon="12.372037"><ele>795.0</ele><time>2026-04-18T14:03:45.925Z</time></trkpt><trkpt lat="43.5220432" lon="12.3719483"><ele>795.0</ele><time>2026-04-18T14:03:46.927Z</time></trkpt><trkpt lat="43.5219894" lon="12.3718579"><ele>798.3333333333334</ele><time>2026-04-18T14:03:47.925Z</time></trkpt><trkpt lat="43.5219389" lon="12.3717868"><ele>801.6666666666667</ele><time>2026-04-18T14:03:48.926Z</time></trkpt><trkpt lat="43.5218421" lon="12.3717629"><ele>805.0</ele><time>2026-04-18T14:03:49.926Z</time></trkpt><trkpt lat="43.5217716" lon="12.3717371"><ele>808.3333333333334</ele><time>2026-04-18T14:03:50.927Z</time></trkpt><trkpt lat="43.5216463" lon="12.3717141"><ele>811.6666666666667</ele><time>2026-04-18T14:03:52.926Z</time></trkpt><trkpt lat="43.5215855" lon="12.3716847"><ele>815.0</ele><time>2026-04-18T14:03:53.925Z</time></trkpt><trkpt lat="43.5215152" lon="12.3716333"><ele>815.0000000000001</ele><time>2026-04-18T14:03:54.925Z</time></trkpt><trkpt lat="43.521442" lon="12.3716608"><ele>815.0</ele><time>2026-04-18T14:03:56.926Z</time></trkpt><trkpt lat="43.5213326" lon="12.3716967"><ele>815.0</ele><time>2026-04-18T14:03:57.926Z</time></trkpt><trkpt lat="43.5212745" lon="12.3717395"><ele>815.0</ele><time>2026-04-18T14:03:58.926Z</time></trkpt><trkpt lat="43.5211758" lon="12.3717704"><ele>815.0000000000001</ele><time>2026-04-18T14:04:00.927Z</time></trkpt><trkpt lat="43.5211113" lon="12.3717628"><ele>815.0</ele><time>2026-04-18T14:04:01.925Z</time></trkpt><trkpt lat="43.5210349" lon="12.3716827"><ele>815.3333333333334</ele><time>2026-04-18T14:04:03.926Z</time></trkpt><trkpt lat="43.5209563" lon="12.37161"><ele>815.6666666666667</ele><time>2026-04-18T14:04:05.925Z</time></trkpt><trkpt lat="43.5208957" lon="12.3715284"><ele>816.0</ele><time>2026-04-18T14:04:06.927Z</time></trkpt><trkpt lat="43.5208706" lon="12.3714251"><ele>816.3333333333333</ele><time>2026-04-18T14:04:07.927Z</time></trkpt><trkpt lat="43.5208417" lon="12.3713156"><ele>816.6666666666666</ele><time>2026-04-18T14:04:08.926Z</time></trkpt><trkpt lat="43.5208116" lon="12.3712112"><ele>817.0</ele><time>2026-04-18T14:04:09.926Z</time></trkpt><trkpt lat="43.5207739" lon="12.371119"><ele>817.0</ele><time>2026-04-18T14:04:10.925Z</time></trkpt><trkpt lat="43.520741" lon="12.3710419"><ele>817.0</ele><time>2026-04-18T14:04:11.925Z</time></trkpt><trkpt lat="43.5206769" lon="12.3709121"><ele>817.0</ele><time>2026-04-18T14:04:13.927Z</time></trkpt><trkpt lat="43.5206018" lon="12.3708025"><ele>817.0</ele><time>2026-04-18T14:04:15.927Z</time></trkpt><trkpt lat="43.5204944" lon="12.3708062"><ele>817.0</ele><time>2026-04-18T14:04:17.927Z</time></trkpt><trkpt lat="43.5204055" lon="12.3707996"><ele>816.6</ele><time>2026-04-18T14:04:18.926Z</time></trkpt><trkpt lat="43.5203004" lon="12.3706442"><ele>816.2</ele><time>2026-04-18T14:04:21.927Z</time></trkpt><trkpt lat="43.5202207" lon="12.370552"><ele>815.8</ele><time>2026-04-18T14:04:23.926Z</time></trkpt><trkpt lat="43.5201357" lon="12.3704742"><ele>815.4</ele><time>2026-04-18T14:04:25.925Z</time></trkpt><trkpt lat="43.5200766" lon="12.370413"><ele>815.0</ele><time>2026-04-18T14:04:26.926Z</time></trkpt><trkpt lat="43.519977" lon="12.3703475"><ele>814.2</ele><time>2026-04-18T14:04:28.927Z</time></trkpt><trkpt lat="43.5198512" lon="12.3702535"><ele>813.4</ele><time>2026-04-18T14:04:30.926Z</time></trkpt><trkpt lat="43.5197836" lon="12.3701984"><ele>812.5999999999999</ele><time>2026-04-18T14:04:31.925Z</time></trkpt><trkpt lat="43.5197164" lon="12.3701686"><ele>811.8</ele><time>2026-04-18T14:04:32.926Z</time></trkpt><trkpt lat="43.5196521" lon="12.3701287"><ele>811.0</ele><time>2026-04-18T14:04:33.927Z</time></trkpt><trkpt lat="43.5195626" lon="12.3700842"><ele>811.4999999999999</ele><time>2026-04-18T14:04:34.925Z</time></trkpt><trkpt lat="43.5194955" lon="12.3700343"><ele>812.0</ele><time>2026-04-18T14:04:35.925Z</time></trkpt><trkpt lat="43.5194242" lon="12.3699662"><ele>812.5</ele><time>2026-04-18T14:04:36.925Z</time></trkpt><trkpt lat="43.519354" lon="12.3698675"><ele>813.0</ele><time>2026-04-18T14:04:37.925Z</time></trkpt><trkpt lat="43.519295" lon="12.3697676"><ele>813.4999999999999</ele><time>2026-04-18T14:04:38.927Z</time></trkpt><trkpt lat="43.5192357" lon="12.3696732"><ele>814.0</ele><time>2026-04-18T14:04:39.927Z</time></trkpt><trkpt lat="43.5191572" lon="12.3695611"><ele>814.0</ele><time>2026-04-18T14:04:40.925Z</time></trkpt><trkpt lat="43.5191086" lon="12.3694944"><ele>814.0</ele><time>2026-04-18T14:04:41.926Z</time></trkpt><trkpt lat="43.5190285" lon="12.3693888"><ele>814.0</ele><time>2026-04-18T14:04:43.926Z</time></trkpt><trkpt lat="43.5190074" lon="12.3693009"><ele>814.0</ele><time>2026-04-18T14:04:44.925Z</time></trkpt><trkpt lat="43.5189628" lon="12.3691128"><ele>814.0</ele><time>2026-04-18T14:04:46.926Z</time></trkpt><trkpt lat="43.5189341" lon="12.3690303"><ele>813.9999999999999</ele><time>2026-04-18T14:04:47.926Z</time></trkpt><trkpt lat="43.5188562" lon="12.3690127"><ele>814.0</ele><time>2026-04-18T14:04:49.926Z</time></trkpt><trkpt lat="43.5187795" lon="12.3690233"><ele>814.0</ele><time>2026-04-18T14:04:51.927Z</time></trkpt><trkpt lat="43.5186722" lon="12.3689794"><ele>814.0</ele><time>2026-04-18T14:04:53.927Z</time></trkpt><trkpt lat="43.5185896" lon="12.3689649"><ele>813.9999999999999</ele><time>2026-04-18T14:04:54.926Z</time></trkpt><trkpt lat="43.5185051" lon="12.3689363"><ele>814.0</ele><time>2026-04-18T14:04:55.926Z</time></trkpt><trkpt lat="43.5184419" lon="12.3688944"><ele>814.2</ele><time>2026-04-18T14:04:56.925Z</time></trkpt><trkpt lat="43.5183793" lon="12.3688568"><ele>814.4000000000001</ele><time>2026-04-18T14:04:57.925Z</time></trkpt><trkpt lat="43.5182923" lon="12.3687868"><ele>814.6</ele><time>2026-04-18T14:04:59.926Z</time></trkpt><trkpt lat="43.5182328" lon="12.3687562"><ele>814.8</ele><time>2026-04-18T14:05:00.927Z</time></trkpt><trkpt lat="43.5181419" lon="12.3687532"><ele>815.0</ele><time>2026-04-18T14:05:02.926Z</time></trkpt><trkpt lat="43.5179835" lon="12.368741"><ele>815.0</ele><time>2026-04-18T14:05:04.925Z</time></trkpt><trkpt lat="43.5179041" lon="12.3687364"><ele>815.0</ele><time>2026-04-18T14:05:05.926Z</time></trkpt><trkpt lat="43.5178076" lon="12.3686702"><ele>815.0</ele><time>2026-04-18T14:05:07.926Z</time></trkpt><trkpt lat="43.5176304" lon="12.3686561"><ele>815.0</ele><time>2026-04-18T14:05:09.927Z</time></trkpt><trkpt lat="43.517557" lon="12.3686341"><ele>815.0</ele><time>2026-04-18T14:05:10.925Z</time></trkpt><trkpt lat="43.5175128" lon="12.3685696"><ele>816.0</ele><time>2026-04-18T14:05:11.925Z</time></trkpt><trkpt lat="43.5174111" lon="12.3685206"><ele>817.0</ele><time>2026-04-18T14:05:13.926Z</time></trkpt><trkpt lat="43.5173314" lon="12.3683552"><ele>818.0</ele><time>2026-04-18T14:05:15.926Z</time></trkpt><trkpt lat="43.5173038" lon="12.3682663"><ele>819.0</ele><time>2026-04-18T14:05:16.925Z</time></trkpt><trkpt lat="43.517292" lon="12.3681785"><ele>820.0</ele><time>2026-04-18T14:05:17.926Z</time></trkpt><trkpt lat="43.5172629" lon="12.368038"><ele>817.0</ele><time>2026-04-18T14:05:19.926Z</time></trkpt><trkpt lat="43.5171948" lon="12.3678984"><ele>814.0</ele><time>2026-04-18T14:05:21.925Z</time></trkpt><trkpt lat="43.5171325" lon="12.3677697"><ele>811.0</ele><time>2026-04-18T14:05:23.925Z</time></trkpt><trkpt lat="43.5171041" lon="12.3676609"><ele>808.0</ele><time>2026-04-18T14:05:25.926Z</time></trkpt><trkpt lat="43.5170897" lon="12.3675613"><ele>805.0</ele><time>2026-04-18T14:05:27.926Z</time></trkpt><trkpt lat="43.517054" lon="12.3674672"><ele>803.2</ele><time>2026-04-18T14:05:29.926Z</time></trkpt><trkpt lat="43.5170225" lon="12.3673117"><ele>801.4</ele><time>2026-04-18T14:05:31.926Z</time></trkpt><trkpt lat="43.5169933" lon="12.3671965"><ele>799.5999999999999</ele><time>2026-04-18T14:05:33.925Z</time></trkpt><trkpt lat="43.5169654" lon="12.3670658"><ele>797.8</ele><time>2026-04-18T14:05:35.925Z</time></trkpt><trkpt lat="43.5169479" lon="12.3669591"><ele>796.0</ele><time>2026-04-18T14:05:38.926Z</time></trkpt><trkpt lat="43.5169065" lon="12.3668257"><ele>796.0</ele><time>2026-04-18T14:05:39.925Z</time></trkpt><trkpt lat="43.5168731" lon="12.3667005"><ele>796.0</ele><time>2026-04-18T14:05:40.926Z</time></trkpt><trkpt lat="43.5168459" lon="12.3665684"><ele>796.0</ele><time>2026-04-18T14:05:41.926Z</time></trkpt><trkpt lat="43.5168048" lon="12.3664196"><ele>796.0</ele><time>2026-04-18T14:05:42.927Z</time></trkpt><trkpt lat="43.5168056" lon="12.3662995"><ele>796.0</ele><time>2026-04-18T14:05:43.925Z</time></trkpt><trkpt lat="43.5167706" lon="12.3661288"><ele>796.4999999999999</ele><time>2026-04-18T14:05:45.926Z</time></trkpt><trkpt lat="43.5167523" lon="12.3659864"><ele>797.0</ele><time>2026-04-18T14:05:47.926Z</time></trkpt><trkpt lat="43.5167717" lon="12.3658313"><ele>797.5</ele><time>2026-04-18T14:05:49.925Z</time></trkpt><trkpt lat="43.5167893" lon="12.365741"><ele>798.0</ele><time>2026-04-18T14:05:50.927Z</time></trkpt><trkpt lat="43.5168155" lon="12.3656374"><ele>798.4999999999999</ele><time>2026-04-18T14:05:51.925Z</time></trkpt><trkpt lat="43.5168498" lon="12.3655573"><ele>799.0</ele><time>2026-04-18T14:05:52.925Z</time></trkpt><trkpt lat="43.5168699" lon="12.3654425"><ele>797.8333333333333</ele><time>2026-04-18T14:05:53.927Z</time></trkpt><trkpt lat="43.5168339" lon="12.365371"><ele>796.6666666666666</ele><time>2026-04-18T14:05:55.926Z</time></trkpt><trkpt lat="43.516755" lon="12.3653364"><ele>795.5</ele><time>2026-04-18T14:05:58.926Z</time></trkpt><trkpt lat="43.5166622" lon="12.3653235"><ele>794.3333333333333</ele><time>2026-04-18T14:06:00.927Z</time></trkpt><trkpt lat="43.5165574" lon="12.3653495"><ele>793.1666666666666</ele><time>2026-04-18T14:06:01.927Z</time></trkpt><trkpt lat="43.5164743" lon="12.3653278"><ele>792.0</ele><time>2026-04-18T14:06:03.925Z</time></trkpt><trkpt lat="43.5163954" lon="12.3652457"><ele>792.0</ele><time>2026-04-18T14:06:05.926Z</time></trkpt><trkpt lat="43.5163089" lon="12.3651704"><ele>792.0</ele><time>2026-04-18T14:06:07.926Z</time></trkpt><trkpt lat="43.516226" lon="12.3651216"><ele>792.0</ele><time>2026-04-18T14:06:09.925Z</time></trkpt><trkpt lat="43.5161369" lon="12.3650913"><ele>792.0</ele><time>2026-04-18T14:06:11.927Z</time></trkpt><trkpt lat="43.5160149" lon="12.365068"><ele>792.0</ele><time>2026-04-18T14:06:13.926Z</time></trkpt><trkpt lat="43.5159549" lon="12.3651016"><ele>787.4000000000001</ele><time>2026-04-18T14:06:14.925Z</time></trkpt><trkpt lat="43.5158877" lon="12.3651252"><ele>782.8000000000001</ele><time>2026-04-18T14:06:17.926Z</time></trkpt><trkpt lat="43.5158383" lon="12.3650435"><ele>778.2</ele><time>2026-04-18T14:06:20.925Z</time></trkpt><trkpt lat="43.5158879" lon="12.3649292"><ele>773.6</ele><time>2026-04-18T14:06:22.925Z</time></trkpt><trkpt lat="43.5159718" lon="12.3648121"><ele>769.0</ele><time>2026-04-18T14:06:24.927Z</time></trkpt><trkpt lat="43.5160955" lon="12.3647404"><ele>768.9999999999999</ele><time>2026-04-18T14:06:26.927Z</time></trkpt><trkpt lat="43.5161733" lon="12.3647194"><ele>769.0</ele><time>2026-04-18T14:06:27.926Z</time></trkpt><trkpt lat="43.5162652" lon="12.3647083"><ele>769.0</ele><time>2026-04-18T14:06:28.925Z</time></trkpt><trkpt lat="43.5163357" lon="12.3646926"><ele>769.0</ele><time>2026-04-18T14:06:29.926Z</time></trkpt><trkpt lat="43.5164148" lon="12.3646597"><ele>768.9999999999999</ele><time>2026-04-18T14:06:30.926Z</time></trkpt><trkpt lat="43.5164912" lon="12.3645955"><ele>769.0</ele><time>2026-04-18T14:06:31.925Z</time></trkpt><trkpt lat="43.5165514" lon="12.3645435"><ele>772.4000000000001</ele><time>2026-04-18T14:06:32.927Z</time></trkpt><trkpt lat="43.5166135" lon="12.3644814"><ele>775.8</ele><time>2026-04-18T14:06:33.926Z</time></trkpt><trkpt lat="43.5166616" lon="12.3643962"><ele>779.2</ele><time>2026-04-18T14:06:34.926Z</time></trkpt><trkpt lat="43.516714" lon="12.3642939"><ele>782.5999999999999</ele><time>2026-04-18T14:06:35.926Z</time></trkpt><trkpt lat="43.5166938" lon="12.364119"><ele>786.0</ele><time>2026-04-18T14:06:36.927Z</time></trkpt><trkpt lat="43.5166992" lon="12.3639756"><ele>786.0</ele><time>2026-04-18T14:06:37.927Z</time></trkpt><trkpt lat="43.5166893" lon="12.3638218"><ele>786.0</ele><time>2026-04-18T14:06:38.926Z</time></trkpt><trkpt lat="43.5166902" lon="12.3636932"><ele>786.0</ele><time>2026-04-18T14:06:39.925Z</time></trkpt><trkpt lat="43.5166944" lon="12.3635646"><ele>786.0</ele><time>2026-04-18T14:06:40.926Z</time></trkpt><trkpt lat="43.5166828" lon="12.3634094"><ele>786.0</ele><time>2026-04-18T14:06:41.926Z</time></trkpt><trkpt lat="43.5166587" lon="12.3632661"><ele>786.0</ele><time>2026-04-18T14:06:42.927Z</time></trkpt><trkpt lat="43.5166209" lon="12.3631266"><ele>786.0</ele><time>2026-04-18T14:06:43.926Z</time></trkpt><trkpt lat="43.5165905" lon="12.3629871"><ele>786.0</ele><time>2026-04-18T14:06:44.926Z</time></trkpt><trkpt lat="43.5165287" lon="12.3628537"><ele>786.0</ele><time>2026-04-18T14:06:45.926Z</time></trkpt><trkpt lat="43.516451" lon="12.3627815"><ele>786.0</ele><time>2026-04-18T14:06:46.926Z</time></trkpt><trkpt lat="43.516385" lon="12.3626969"><ele>786.25</ele><time>2026-04-18T14:06:47.925Z</time></trkpt><trkpt lat="43.5163161" lon="12.3626243"><ele>786.5</ele><time>2026-04-18T14:06:48.926Z</time></trkpt><trkpt lat="43.5162447" lon="12.3624722"><ele>786.75</ele><time>2026-04-18T14:06:50.926Z</time></trkpt><trkpt lat="43.5162358" lon="12.3623523"><ele>787.0</ele><time>2026-04-18T14:06:51.927Z</time></trkpt><trkpt lat="43.5162913" lon="12.3621246"><ele>785.2</ele><time>2026-04-18T14:06:53.926Z</time></trkpt><trkpt lat="43.5163361" lon="12.3619991"><ele>783.4000000000001</ele><time>2026-04-18T14:06:54.926Z</time></trkpt><trkpt lat="43.5163868" lon="12.3618666"><ele>781.5999999999999</ele><time>2026-04-18T14:06:55.925Z</time></trkpt><trkpt lat="43.5164362" lon="12.3617208"><ele>779.8</ele><time>2026-04-18T14:06:56.926Z</time></trkpt><trkpt lat="43.5164632" lon="12.3615609"><ele>778.0</ele><time>2026-04-18T14:06:57.927Z</time></trkpt><trkpt lat="43.5164815" lon="12.3614103"><ele>776.5999999999999</ele><time>2026-04-18T14:06:58.925Z</time></trkpt><trkpt lat="43.5164973" lon="12.3612634"><ele>775.1999999999999</ele><time>2026-04-18T14:06:59.925Z</time></trkpt><trkpt lat="43.5165022" lon="12.361119"><ele>773.8</ele><time>2026-04-18T14:07:00.926Z</time></trkpt><trkpt lat="43.5164834" lon="12.3609815"><ele>772.4</ele><time>2026-04-18T14:07:01.925Z</time></trkpt><trkpt lat="43.5164581" lon="12.3608491"><ele>771.0</ele><time>2026-04-18T14:07:02.926Z</time></trkpt><trkpt lat="43.5164331" lon="12.3607143"><ele>771.0</ele><time>2026-04-18T14:07:03.926Z</time></trkpt><trkpt lat="43.516402" lon="12.3605834"><ele>771.0</ele><time>2026-04-18T14:07:04.926Z</time></trkpt><trkpt lat="43.5163704" lon="12.3604582"><ele>771.0</ele><time>2026-04-18T14:07:05.926Z</time></trkpt><trkpt lat="43.5163245" lon="12.3603408"><ele>771.0</ele><time>2026-04-18T14:07:06.926Z</time></trkpt><trkpt lat="43.5162745" lon="12.3602455"><ele>771.0</ele><time>2026-04-18T14:07:07.927Z</time></trkpt><trkpt lat="43.5162135" lon="12.3601564"><ele>768.8</ele><time>2026-04-18T14:07:08.926Z</time></trkpt><trkpt lat="43.5161434" lon="12.3600824"><ele>766.5999999999999</ele><time>2026-04-18T14:07:09.926Z</time></trkpt><trkpt lat="43.5160722" lon="12.3600059"><ele>764.4</ele><time>2026-04-18T14:07:10.926Z</time></trkpt><trkpt lat="43.5160028" lon="12.3599178"><ele>762.2</ele><time>2026-04-18T14:07:11.925Z</time></trkpt><trkpt lat="43.5159386" lon="12.3598107"><ele>760.0</ele><time>2026-04-18T14:07:12.926Z</time></trkpt><trkpt lat="43.5158658" lon="12.3597073"><ele>759.6</ele><time>2026-04-18T14:07:13.925Z</time></trkpt><trkpt lat="43.5157908" lon="12.3595914"><ele>759.2</ele><time>2026-04-18T14:07:14.927Z</time></trkpt><trkpt lat="43.5157277" lon="12.359491"><ele>758.8</ele><time>2026-04-18T14:07:15.926Z</time></trkpt><trkpt lat="43.5156737" lon="12.3593856"><ele>758.4</ele><time>2026-04-18T14:07:16.925Z</time></trkpt><trkpt lat="43.5156123" lon="12.3592806"><ele>758.0</ele><time>2026-04-18T14:07:17.926Z</time></trkpt><trkpt lat="43.5155498" lon="12.3591608"><ele>758.0</ele><time>2026-04-18T14:07:18.926Z</time></trkpt><trkpt lat="43.5154889" lon="12.3590314"><ele>758.0</ele><time>2026-04-18T14:07:19.926Z</time></trkpt><trkpt lat="43.5154383" lon="12.3589151"><ele>758.0</ele><time>2026-04-18T14:07:20.926Z</time></trkpt><trkpt lat="43.5154388" lon="12.358821"><ele>758.0</ele><time>2026-04-18T14:07:21.927Z</time></trkpt><trkpt lat="43.5154283" lon="12.3586913"><ele>758.0</ele><time>2026-04-18T14:07:22.926Z</time></trkpt><trkpt lat="43.5154053" lon="12.3585613"><ele>756.5</ele><time>2026-04-18T14:07:23.925Z</time></trkpt><trkpt lat="43.5154104" lon="12.3584665"><ele>755.0</ele><time>2026-04-18T14:07:24.926Z</time></trkpt><trkpt lat="43.5154242" lon="12.358356"><ele>753.5</ele><time>2026-04-18T14:07:25.927Z</time></trkpt><trkpt lat="43.5154337" lon="12.3582411"><ele>752.0</ele><time>2026-04-18T14:07:26.925Z</time></trkpt><trkpt lat="43.5154398" lon="12.3581301"><ele>750.5</ele><time>2026-04-18T14:07:27.926Z</time></trkpt><trkpt lat="43.5154516" lon="12.3580194"><ele>749.0</ele><time>2026-04-18T14:07:28.927Z</time></trkpt><trkpt lat="43.5154756" lon="12.3579127"><ele>746.4000000000001</ele><time>2026-04-18T14:07:29.927Z</time></trkpt><trkpt lat="43.5155115" lon="12.3578107"><ele>743.8</ele><time>2026-04-18T14:07:30.925Z</time></trkpt><trkpt lat="43.5155635" lon="12.3577072"><ele>741.2</ele><time>2026-04-18T14:07:31.925Z</time></trkpt><trkpt lat="43.5156195" lon="12.3576104"><ele>738.5999999999999</ele><time>2026-04-18T14:07:32.926Z</time></trkpt><trkpt lat="43.5157217" lon="12.3574364"><ele>736.0</ele><time>2026-04-18T14:07:34.926Z</time></trkpt><trkpt lat="43.5157676" lon="12.3573608"><ele>736.0</ele><time>2026-04-18T14:07:35.926Z</time></trkpt><trkpt lat="43.5158258" lon="12.3572262"><ele>736.0</ele><time>2026-04-18T14:07:37.926Z</time></trkpt><trkpt lat="43.5158115" lon="12.3571109"><ele>736.0</ele><time>2026-04-18T14:07:39.925Z</time></trkpt><trkpt lat="43.515782" lon="12.3570257"><ele>736.0</ele><time>2026-04-18T14:07:40.925Z</time></trkpt><trkpt lat="43.5157521" lon="12.3569339"><ele>736.0</ele><time>2026-04-18T14:07:41.926Z</time></trkpt><trkpt lat="43.515717" lon="12.356807"><ele>736.0</ele><time>2026-04-18T14:07:42.925Z</time></trkpt><trkpt lat="43.5156851" lon="12.3566946"><ele>735.6666666666667</ele><time>2026-04-18T14:07:43.926Z</time></trkpt><trkpt lat="43.5156594" lon="12.356564"><ele>735.3333333333334</ele><time>2026-04-18T14:07:44.926Z</time></trkpt><trkpt lat="43.5156441" lon="12.3564309"><ele>735.0</ele><time>2026-04-18T14:07:45.927Z</time></trkpt><trkpt lat="43.5156354" lon="12.3563124"><ele>734.6666666666666</ele><time>2026-04-18T14:07:46.927Z</time></trkpt><trkpt lat="43.515641" lon="12.3561979"><ele>734.3333333333333</ele><time>2026-04-18T14:07:48.925Z</time></trkpt><trkpt lat="43.5156634" lon="12.3561064"><ele>734.0</ele><time>2026-04-18T14:07:50.926Z</time></trkpt><trkpt lat="43.5156847" lon="12.3560105"><ele>733.4285714285714</ele><time>2026-04-18T14:07:52.926Z</time></trkpt><trkpt lat="43.5157474" lon="12.3559305"><ele>732.8571428571429</ele><time>2026-04-18T14:07:55.926Z</time></trkpt><trkpt lat="43.5157854" lon="12.3558446"><ele>732.2857142857143</ele><time>2026-04-18T14:07:59.926Z</time></trkpt><trkpt lat="43.5158438" lon="12.3558059"><ele>731.7142857142858</ele><time>2026-04-18T14:08:03.926Z</time></trkpt><trkpt lat="43.5159254" lon="12.3557721"><ele>731.1428571428571</ele><time>2026-04-18T14:08:06.925Z</time></trkpt><trkpt lat="43.5159709" lon="12.3556911"><ele>730.5714285714287</ele><time>2026-04-18T14:08:08.925Z</time></trkpt><trkpt lat="43.515929" lon="12.3557573"><ele>730.0</ele><time>2026-04-18T14:10:13.927Z</time></trkpt><trkpt lat="43.5158602" lon="12.3557768"><ele>730.0000000000001</ele><time>2026-04-18T14:10:42.926Z</time></trkpt><trkpt lat="43.5158018" lon="12.3558228"><ele>730.0</ele><time>2026-04-18T14:10:50Z</time></trkpt><trkpt lat="43.515842" lon="12.3557513"><ele>730.0</ele><time>2026-04-18T14:15:32.924Z</time></trkpt><trkpt lat="43.5159078" lon="12.3557131"><ele>730.0</ele><time>2026-04-18T14:15:36.925Z</time></trkpt><trkpt lat="43.5159661" lon="12.3557516"><ele>730.0</ele><time>2026-04-18T14:17:27.925Z</time></trkpt><trkpt lat="43.5159009" lon="12.3557434"><ele>730.0000000000001</ele><time>2026-04-18T14:19:07.925Z</time></trkpt><trkpt lat="43.5159733" lon="12.3557311"><ele>730.0</ele><time>2026-04-18T14:19:17.925Z</time></trkpt><trkpt lat="43.5160374" lon="12.3556945"><ele>730.0</ele><time>2026-04-18T14:19:24.924Z</time></trkpt><trkpt lat="43.5159787" lon="12.3556468"><ele>730.0</ele><time>2026-04-18T14:22:04.944Z</time></trkpt><trkpt lat="43.5160316" lon="12.3555696"><ele>730.0</ele><time>2026-04-18T14:22:08.96Z</time></trkpt><trkpt lat="43.5161106" lon="12.3555283"><ele>730.0</ele><time>2026-04-18T14:23:09.923Z</time></trkpt><trkpt lat="43.5162502" lon="12.3554706"><ele>730.0</ele><time>2026-04-18T14:23:11.924Z</time></trkpt><trkpt lat="43.5163852" lon="12.355436"><ele>733.6</ele><time>2026-04-18T14:23:12.923Z</time></trkpt><trkpt lat="43.5164961" lon="12.3554062"><ele>737.2</ele><time>2026-04-18T14:23:13.925Z</time></trkpt><trkpt lat="43.5165846" lon="12.3553758"><ele>740.8</ele><time>2026-04-18T14:23:14.923Z</time></trkpt><trkpt lat="43.5166602" lon="12.3553363"><ele>744.4</ele><time>2026-04-18T14:23:15.925Z</time></trkpt><trkpt lat="43.5167341" lon="12.3552528"><ele>748.0</ele><time>2026-04-18T14:23:16.924Z</time></trkpt><trkpt lat="43.5167976" lon="12.3551849"><ele>748.0</ele><time>2026-04-18T14:23:17.925Z</time></trkpt><trkpt lat="43.5168296" lon="12.3551096"><ele>748.0</ele><time>2026-04-18T14:23:18.925Z</time></trkpt><trkpt lat="43.5168661" lon="12.3550377"><ele>748.0</ele><time>2026-04-18T14:23:19.925Z</time></trkpt><trkpt lat="43.5169015" lon="12.3549614"><ele>748.0</ele><time>2026-04-18T14:23:20.923Z</time></trkpt><trkpt lat="43.5169134" lon="12.3546802"><ele>748.0</ele><time>2026-04-18T14:23:21.924Z</time></trkpt><trkpt lat="43.516948" lon="12.3545405"><ele>749.6666666666667</ele><time>2026-04-18T14:23:22.924Z</time></trkpt><trkpt lat="43.5170117" lon="12.3544558"><ele>751.3333333333334</ele><time>2026-04-18T14:23:23.924Z</time></trkpt><trkpt lat="43.5170942" lon="12.3544415"><ele>753.0</ele><time>2026-04-18T14:23:24.925Z</time></trkpt><trkpt lat="43.517159" lon="12.3544278"><ele>754.6666666666666</ele><time>2026-04-18T14:23:25.925Z</time></trkpt><trkpt lat="43.5172321" lon="12.3544255"><ele>756.3333333333333</ele><time>2026-04-18T14:23:26.923Z</time></trkpt><trkpt lat="43.5173263" lon="12.3544747"><ele>758.0</ele><time>2026-04-18T14:23:27.924Z</time></trkpt><trkpt lat="43.5174139" lon="12.3545005"><ele>760.4</ele><time>2026-04-18T14:23:28.925Z</time></trkpt><trkpt lat="43.5174985" lon="12.3545214"><ele>762.8</ele><time>2026-04-18T14:23:29.925Z</time></trkpt><trkpt lat="43.5176094" lon="12.354566"><ele>765.2</ele><time>2026-04-18T14:23:30.923Z</time></trkpt><trkpt lat="43.5177158" lon="12.3545527"><ele>767.6</ele><time>2026-04-18T14:23:31.924Z</time></trkpt><trkpt lat="43.5178125" lon="12.3545288"><ele>770.0</ele><time>2026-04-18T14:23:32.924Z</time></trkpt><trkpt lat="43.5178904" lon="12.3545039"><ele>769.0000000000001</ele><time>2026-04-18T14:23:33.925Z</time></trkpt><trkpt lat="43.5179527" lon="12.3544772"><ele>768.0</ele><time>2026-04-18T14:23:34.924Z</time></trkpt><trkpt lat="43.5179846" lon="12.3543758"><ele>767.0</ele><time>2026-04-18T14:23:36.924Z</time></trkpt><trkpt lat="43.5180284" lon="12.3542426"><ele>766.0</ele><time>2026-04-18T14:23:38.925Z</time></trkpt><trkpt lat="43.5180046" lon="12.3540863"><ele>765.0</ele><time>2026-04-18T14:23:39.923Z</time></trkpt><trkpt lat="43.5180057" lon="12.3539776"><ele>764.0</ele><time>2026-04-18T14:23:40.925Z</time></trkpt><trkpt lat="43.5180244" lon="12.3538485"><ele>766.0</ele><time>2026-04-18T14:23:41.923Z</time></trkpt><trkpt lat="43.5180637" lon="12.35376"><ele>768.0</ele><time>2026-04-18T14:23:42.923Z</time></trkpt><trkpt lat="43.5181632" lon="12.3536848"><ele>770.0</ele><time>2026-04-18T14:23:43.924Z</time></trkpt><trkpt lat="43.518231" lon="12.3536119"><ele>772.0</ele><time>2026-04-18T14:23:44.924Z</time></trkpt><trkpt lat="43.5182977" lon="12.3535532"><ele>774.0000000000001</ele><time>2026-04-18T14:23:45.923Z</time></trkpt><trkpt lat="43.5183542" lon="12.3535128"><ele>776.0</ele><time>2026-04-18T14:23:46.925Z</time></trkpt><trkpt lat="43.5183612" lon="12.3534051"><ele>776.0</ele><time>2026-04-18T14:23:48.924Z</time></trkpt><trkpt lat="43.5183245" lon="12.353288"><ele>776.0</ele><time>2026-04-18T14:23:49.925Z</time></trkpt><trkpt lat="43.5182992" lon="12.3531491"><ele>776.0</ele><time>2026-04-18T14:23:50.924Z</time></trkpt><trkpt lat="43.5182657" lon="12.3529763"><ele>776.0</ele><time>2026-04-18T14:23:51.923Z</time></trkpt><trkpt lat="43.5182325" lon="12.3528415"><ele>776.0</ele><time>2026-04-18T14:23:52.924Z</time></trkpt><trkpt lat="43.5182076" lon="12.352692"><ele>777.1999999999999</ele><time>2026-04-18T14:23:53.924Z</time></trkpt><trkpt lat="43.5181706" lon="12.3525344"><ele>778.4</ele><time>2026-04-18T14:23:54.924Z</time></trkpt><trkpt lat="43.5181334" lon="12.352399"><ele>779.6</ele><time>2026-04-18T14:23:55.923Z</time></trkpt><trkpt lat="43.5181145" lon="12.3522599"><ele>780.8</ele><time>2026-04-18T14:23:56.924Z</time></trkpt><trkpt lat="43.5180917" lon="12.3521233"><ele>782.0</ele><time>2026-04-18T14:23:57.924Z</time></trkpt><trkpt lat="43.5180662" lon="12.3520125"><ele>784.6</ele><time>2026-04-18T14:23:58.925Z</time></trkpt><trkpt lat="43.5181001" lon="12.3518903"><ele>787.2</ele><time>2026-04-18T14:23:59.925Z</time></trkpt><trkpt lat="43.5181213" lon="12.351791"><ele>789.8</ele><time>2026-04-18T14:24:00.923Z</time></trkpt><trkpt lat="43.5181818" lon="12.3517264"><ele>792.4</ele><time>2026-04-18T14:24:01.923Z</time></trkpt><trkpt lat="43.5183467" lon="12.3516304"><ele>795.0</ele><time>2026-04-18T14:24:02.923Z</time></trkpt><trkpt lat="43.5184356" lon="12.3515278"><ele>795.0</ele><time>2026-04-18T14:24:03.923Z</time></trkpt><trkpt lat="43.5185669" lon="12.3514618"><ele>795.0</ele><time>2026-04-18T14:24:04.924Z</time></trkpt><trkpt lat="43.5186762" lon="12.3514094"><ele>795.0</ele><time>2026-04-18T14:24:05.925Z</time></trkpt><trkpt lat="43.5187627" lon="12.3513541"><ele>795.0</ele><time>2026-04-18T14:24:06.923Z</time></trkpt><trkpt lat="43.5188297" lon="12.3513104"><ele>795.0</ele><time>2026-04-18T14:24:07.923Z</time></trkpt><trkpt lat="43.518866" lon="12.3512038"><ele>795.6666666666666</ele><time>2026-04-18T14:24:10.924Z</time></trkpt><trkpt lat="43.5188893" lon="12.3510762"><ele>796.3333333333333</ele><time>2026-04-18T14:25:07.923Z</time></trkpt><trkpt lat="43.5189525" lon="12.3509045"><ele>797.0</ele><time>2026-04-18T14:25:09.925Z</time></trkpt><trkpt lat="43.5189616" lon="12.3508133"><ele>797.6666666666666</ele><time>2026-04-18T14:25:10.924Z</time></trkpt><trkpt lat="43.5189511" lon="12.350712"><ele>798.3333333333333</ele><time>2026-04-18T14:25:11.924Z</time></trkpt><trkpt lat="43.5189396" lon="12.3506235"><ele>799.0</ele><time>2026-04-18T14:25:12.924Z</time></trkpt><trkpt lat="43.518936" lon="12.3505129"><ele>796.8000000000001</ele><time>2026-04-18T14:25:13.925Z</time></trkpt><trkpt lat="43.5189703" lon="12.3503388"><ele>794.6</ele><time>2026-04-18T14:25:15.924Z</time></trkpt><trkpt lat="43.5190086" lon="12.3502586"><ele>792.4</ele><time>2026-04-18T14:25:16.924Z</time></trkpt><trkpt lat="43.5190387" lon="12.3501798"><ele>790.2</ele><time>2026-04-18T14:25:17.923Z</time></trkpt><trkpt lat="43.5191208" lon="12.3500417"><ele>788.0</ele><time>2026-04-18T14:25:19.925Z</time></trkpt><trkpt lat="43.5191761" lon="12.3499726"><ele>788.0</ele><time>2026-04-18T14:25:20.925Z</time></trkpt><trkpt lat="43.519228" lon="12.3498823"><ele>788.0</ele><time>2026-04-18T14:25:21.923Z</time></trkpt><trkpt lat="43.5193273" lon="12.3497164"><ele>788.0</ele><time>2026-04-18T14:25:23.925Z</time></trkpt><trkpt lat="43.5193804" lon="12.3496218"><ele>788.0</ele><time>2026-04-18T14:25:24.924Z</time></trkpt><trkpt lat="43.5194377" lon="12.3495224"><ele>788.0</ele><time>2026-04-18T14:25:25.925Z</time></trkpt><trkpt lat="43.5194897" lon="12.3494373"><ele>788.6666666666667</ele><time>2026-04-18T14:25:26.925Z</time></trkpt><trkpt lat="43.5195428" lon="12.3493267"><ele>789.3333333333334</ele><time>2026-04-18T14:25:27.924Z</time></trkpt><trkpt lat="43.5195918" lon="12.3492365"><ele>790.0</ele><time>2026-04-18T14:25:28.923Z</time></trkpt><trkpt lat="43.5196323" lon="12.3491677"><ele>790.6666666666667</ele><time>2026-04-18T14:25:29.924Z</time></trkpt><trkpt lat="43.519684" lon="12.3490765"><ele>791.3333333333334</ele><time>2026-04-18T14:25:30.924Z</time></trkpt><trkpt lat="43.5198007" lon="12.3490547"><ele>792.0</ele><time>2026-04-18T14:25:32.925Z</time></trkpt><trkpt lat="43.5199048" lon="12.3490583"><ele>792.0</ele><time>2026-04-18T14:25:34.923Z</time></trkpt><trkpt lat="43.519961" lon="12.3489643"><ele>792.0</ele><time>2026-04-18T14:25:37.924Z</time></trkpt><trkpt lat="43.5199549" lon="12.3488492"><ele>792.0</ele><time>2026-04-18T14:25:39.924Z</time></trkpt><trkpt lat="43.5199904" lon="12.3487562"><ele>792.0</ele><time>2026-04-18T14:25:43.923Z</time></trkpt><trkpt lat="43.5200406" lon="12.3487008"><ele>792.0</ele><time>2026-04-18T14:25:49.924Z</time></trkpt><trkpt lat="43.5200762" lon="12.3485973"><ele>792.0</ele><time>2026-04-18T14:26:13.924Z</time></trkpt><trkpt lat="43.5201438" lon="12.3486002"><ele>792.8</ele><time>2026-04-18T14:26:16.925Z</time></trkpt><trkpt lat="43.5201805" lon="12.3485115"><ele>793.6</ele><time>2026-04-18T14:26:18.923Z</time></trkpt><trkpt lat="43.5202035" lon="12.3483544"><ele>794.4</ele><time>2026-04-18T14:26:20.925Z</time></trkpt><trkpt lat="43.5202619" lon="12.3482275"><ele>795.1999999999999</ele><time>2026-04-18T14:26:22.924Z</time></trkpt><trkpt lat="43.5203233" lon="12.3481325"><ele>796.0</ele><time>2026-04-18T14:26:23.923Z</time></trkpt><trkpt lat="43.5204317" lon="12.3480124"><ele>795.9999999999999</ele><time>2026-04-18T14:26:25.925Z</time></trkpt><trkpt lat="43.5205098" lon="12.3479342"><ele>796.0</ele><time>2026-04-18T14:26:28.924Z</time></trkpt><trkpt lat="43.5205551" lon="12.3478569"><ele>796.0</ele><time>2026-04-18T14:26:30.924Z</time></trkpt><trkpt lat="43.5206158" lon="12.3477644"><ele>796.0</ele><time>2026-04-18T14:26:31.925Z</time></trkpt><trkpt lat="43.5206016" lon="12.3476409"><ele>795.9999999999999</ele><time>2026-04-18T14:26:32.924Z</time></trkpt><trkpt lat="43.5205886" lon="12.3475407"><ele>796.0</ele><time>2026-04-18T14:26:33.924Z</time></trkpt><trkpt lat="43.5206308" lon="12.3474347"><ele>795.9999999999999</ele><time>2026-04-18T14:26:34.923Z</time></trkpt><trkpt lat="43.5206562" lon="12.347344"><ele>796.0</ele><time>2026-04-18T14:26:35.925Z</time></trkpt><trkpt lat="43.5206597" lon="12.3471839"><ele>796.0</ele><time>2026-04-18T14:26:36.925Z</time></trkpt><trkpt lat="43.5206257" lon="12.347099"><ele>796.0</ele><time>2026-04-18T14:26:37.924Z</time></trkpt><trkpt lat="43.5206027" lon="12.3469777"><ele>795.9999999999999</ele><time>2026-04-18T14:26:38.924Z</time></trkpt><trkpt lat="43.5206004" lon="12.3468871"><ele>796.0</ele><time>2026-04-18T14:26:39.924Z</time></trkpt><trkpt lat="43.5205941" lon="12.346791"><ele>796.1666666666666</ele><time>2026-04-18T14:26:40.924Z</time></trkpt><trkpt lat="43.5205816" lon="12.3466896"><ele>796.3333333333333</ele><time>2026-04-18T14:26:41.923Z</time></trkpt><trkpt lat="43.5205855" lon="12.3465871"><ele>796.5</ele><time>2026-04-18T14:26:42.924Z</time></trkpt><trkpt lat="43.5205501" lon="12.3464855"><ele>796.6666666666667</ele><time>2026-04-18T14:26:43.925Z</time></trkpt><trkpt lat="43.5205454" lon="12.3463686"><ele>796.8333333333334</ele><time>2026-04-18T14:26:45.924Z</time></trkpt><trkpt lat="43.5205489" lon="12.346242"><ele>797.0</ele><time>2026-04-18T14:26:46.923Z</time></trkpt><trkpt lat="43.5205397" lon="12.346107"><ele>797.0000000000001</ele><time>2026-04-18T14:26:47.923Z</time></trkpt><trkpt lat="43.5205293" lon="12.3460167"><ele>797.0</ele><time>2026-04-18T14:26:48.924Z</time></trkpt><trkpt lat="43.5205426" lon="12.3459258"><ele>797.0</ele><time>2026-04-18T14:26:49.924Z</time></trkpt><trkpt lat="43.5206059" lon="12.3458541"><ele>797.0</ele><time>2026-04-18T14:26:50.923Z</time></trkpt><trkpt lat="43.5206424" lon="12.3457787"><ele>797.0000000000001</ele><time>2026-04-18T14:26:51.923Z</time></trkpt><trkpt lat="43.5206996" lon="12.3457043"><ele>797.0</ele><time>2026-04-18T14:26:52.924Z</time></trkpt><trkpt lat="43.5208402" lon="12.3456733"><ele>797.0</ele><time>2026-04-18T14:26:53.923Z</time></trkpt><trkpt lat="43.5209474" lon="12.3456455"><ele>797.0</ele><time>2026-04-18T14:26:54.924Z</time></trkpt><trkpt lat="43.5210262" lon="12.3455748"><ele>797.0</ele><time>2026-04-18T14:26:55.923Z</time></trkpt><trkpt lat="43.5211077" lon="12.3455087"><ele>797.0</ele><time>2026-04-18T14:26:56.924Z</time></trkpt><trkpt lat="43.5212011" lon="12.3454259"><ele>797.0</ele><time>2026-04-18T14:26:57.925Z</time></trkpt><trkpt lat="43.5212457" lon="12.3452988"><ele>795.6</ele><time>2026-04-18T14:26:59.924Z</time></trkpt><trkpt lat="43.521322" lon="12.3451591"><ele>794.2</ele><time>2026-04-18T14:27:00.924Z</time></trkpt><trkpt lat="43.5213328" lon="12.3450385"><ele>792.8</ele><time>2026-04-18T14:27:01.925Z</time></trkpt><trkpt lat="43.5213716" lon="12.3448968"><ele>791.4</ele><time>2026-04-18T14:27:02.924Z</time></trkpt><trkpt lat="43.5213785" lon="12.3447878"><ele>790.0</ele><time>2026-04-18T14:27:03.925Z</time></trkpt><trkpt lat="43.5214498" lon="12.3446496"><ele>790.0</ele><time>2026-04-18T14:27:05.923Z</time></trkpt><trkpt lat="43.5215256" lon="12.3446057"><ele>790.0</ele><time>2026-04-18T14:27:07.924Z</time></trkpt><trkpt lat="43.5215993" lon="12.3445388"><ele>790.0</ele><time>2026-04-18T14:27:09.924Z</time></trkpt><trkpt lat="43.5216597" lon="12.3445122"><ele>790.0</ele><time>2026-04-18T14:27:10.923Z</time></trkpt><trkpt lat="43.5217384" lon="12.3444186"><ele>790.0</ele><time>2026-04-18T14:27:13.923Z</time></trkpt><trkpt lat="43.5217605" lon="12.3442417"><ele>790.0</ele><time>2026-04-18T14:27:15.924Z</time></trkpt><trkpt lat="43.5217425" lon="12.3440779"><ele>790.0</ele><time>2026-04-18T14:27:17.924Z</time></trkpt><trkpt lat="43.5217039" lon="12.3439031"><ele>790.0</ele><time>2026-04-18T14:27:19.925Z</time></trkpt><trkpt lat="43.5216496" lon="12.3438008"><ele>790.0</ele><time>2026-04-18T14:27:21.924Z</time></trkpt><trkpt lat="43.5215661" lon="12.3436994"><ele>788.25</ele><time>2026-04-18T14:27:23.923Z</time></trkpt><trkpt lat="43.5214068" lon="12.343637"><ele>786.5</ele><time>2026-04-18T14:27:24.924Z</time></trkpt><trkpt lat="43.5213167" lon="12.3435297"><ele>784.75</ele><time>2026-04-18T14:27:26.924Z</time></trkpt><trkpt lat="43.5212569" lon="12.3434638"><ele>783.0</ele><time>2026-04-18T14:27:28.924Z</time></trkpt><trkpt lat="43.5212231" lon="12.3433283"><ele>783.0</ele><time>2026-04-18T14:27:30.925Z</time></trkpt><trkpt lat="43.5211807" lon="12.3431913"><ele>783.0</ele><time>2026-04-18T14:27:32.924Z</time></trkpt><trkpt lat="43.5211613" lon="12.3430666"><ele>783.0</ele><time>2026-04-18T14:27:33.924Z</time></trkpt><trkpt lat="43.5211281" lon="12.3429923"><ele>783.0</ele><time>2026-04-18T14:27:34.924Z</time></trkpt><trkpt lat="43.5210627" lon="12.3427731"><ele>783.0</ele><time>2026-04-18T14:27:36.924Z</time></trkpt><trkpt lat="43.521052" lon="12.3426801"><ele>782.5999999999999</ele><time>2026-04-18T14:27:37.925Z</time></trkpt><trkpt lat="43.5210267" lon="12.3425212"><ele>782.1999999999999</ele><time>2026-04-18T14:27:39.925Z</time></trkpt><trkpt lat="43.5210712" lon="12.3424205"><ele>781.8</ele><time>2026-04-18T14:27:41.925Z</time></trkpt><trkpt lat="43.5211533" lon="12.3423726"><ele>781.4</ele><time>2026-04-18T14:27:42.924Z</time></trkpt><trkpt lat="43.5212537" lon="12.3422758"><ele>781.0</ele><time>2026-04-18T14:27:44.925Z</time></trkpt><trkpt lat="43.5213108" lon="12.3421471"><ele>783.0</ele><time>2026-04-18T14:27:46.925Z</time></trkpt><trkpt lat="43.5213726" lon="12.3420755"><ele>785.0</ele><time>2026-04-18T14:27:47.925Z</time></trkpt><trkpt lat="43.5214627" lon="12.3420257"><ele>787.0</ele><time>2026-04-18T14:27:49.924Z</time></trkpt><trkpt lat="43.5215552" lon="12.3418943"><ele>789.0</ele><time>2026-04-18T14:27:51.923Z</time></trkpt><trkpt lat="43.5216225" lon="12.3418414"><ele>791.0</ele><time>2026-04-18T14:27:52.924Z</time></trkpt><trkpt lat="43.5216879" lon="12.3417784"><ele>791.0</ele><time>2026-04-18T14:27:53.924Z</time></trkpt><trkpt lat="43.521779" lon="12.3416737"><ele>791.0</ele><time>2026-04-18T14:27:54.925Z</time></trkpt><trkpt lat="43.5218637" lon="12.3416107"><ele>791.0</ele><time>2026-04-18T14:27:55.924Z</time></trkpt><trkpt lat="43.5219415" lon="12.3415482"><ele>791.0</ele><time>2026-04-18T14:27:57.925Z</time></trkpt><trkpt lat="43.5219638" lon="12.3414365"><ele>791.0</ele><time>2026-04-18T14:27:59.924Z</time></trkpt><trkpt lat="43.521939" lon="12.3413339"><ele>791.0</ele><time>2026-04-18T14:28:01.923Z</time></trkpt><trkpt lat="43.5218759" lon="12.3411811"><ele>791.0</ele><time>2026-04-18T14:28:03.924Z</time></trkpt><trkpt lat="43.5217486" lon="12.3410086"><ele>791.0</ele><time>2026-04-18T14:28:04.924Z</time></trkpt><trkpt lat="43.5216876" lon="12.3409822"><ele>791.0</ele><time>2026-04-18T14:28:05.925Z</time></trkpt><trkpt lat="43.521688" lon="12.3408738"><ele>791.0</ele><time>2026-04-18T14:28:06.924Z</time></trkpt><trkpt lat="43.5216071" lon="12.3407505"><ele>791.0</ele><time>2026-04-18T14:28:08.923Z</time></trkpt><trkpt lat="43.5215376" lon="12.3406626"><ele>791.0</ele><time>2026-04-18T14:28:10.924Z</time></trkpt><trkpt lat="43.5214857" lon="12.3405593"><ele>791.0</ele><time>2026-04-18T14:28:12.923Z</time></trkpt><trkpt lat="43.5213963" lon="12.3405318"><ele>791.0</ele><time>2026-04-18T14:28:13.923Z</time></trkpt><trkpt lat="43.5213487" lon="12.3404321"><ele>791.0</ele><time>2026-04-18T14:28:15.924Z</time></trkpt><trkpt lat="43.5212924" lon="12.340275"><ele>790.1666666666667</ele><time>2026-04-18T14:28:17.924Z</time></trkpt><trkpt lat="43.5212514" lon="12.3401604"><ele>789.3333333333334</ele><time>2026-04-18T14:28:19.924Z</time></trkpt><trkpt lat="43.5211907" lon="12.340113"><ele>788.5</ele><time>2026-04-18T14:28:21.923Z</time></trkpt><trkpt lat="43.5211272" lon="12.3401677"><ele>787.6666666666667</ele><time>2026-04-18T14:28:22.924Z</time></trkpt><trkpt lat="43.5210727" lon="12.340061"><ele>786.8333333333334</ele><time>2026-04-18T14:28:25.923Z</time></trkpt><trkpt lat="43.5210396" lon="12.339974"><ele>786.0</ele><time>2026-04-18T14:28:27.923Z</time></trkpt><trkpt lat="43.5209814" lon="12.3398076"><ele>786.0</ele><time>2026-04-18T14:28:29.923Z</time></trkpt><trkpt lat="43.5209353" lon="12.3397469"><ele>786.0</ele><time>2026-04-18T14:28:30.922Z</time></trkpt><trkpt lat="43.5208556" lon="12.3397253"><ele>786.0</ele><time>2026-04-18T14:28:32.923Z</time></trkpt><trkpt lat="43.5207477" lon="12.3397158"><ele>786.0</ele><time>2026-04-18T14:28:34.922Z</time></trkpt><trkpt lat="43.5206588" lon="12.3396643"><ele>786.0</ele><time>2026-04-18T14:28:36.924Z</time></trkpt><trkpt lat="43.5205637" lon="12.339585"><ele>790.1999999999999</ele><time>2026-04-18T14:28:38.923Z</time></trkpt><trkpt lat="43.5204313" lon="12.3395178"><ele>794.4</ele><time>2026-04-18T14:28:39.924Z</time></trkpt><trkpt lat="43.5204251" lon="12.3394149"><ele>798.6</ele><time>2026-04-18T14:28:40.924Z</time></trkpt><trkpt lat="43.5204469" lon="12.3392143"><ele>802.8</ele><time>2026-04-18T14:28:42.923Z</time></trkpt><trkpt lat="43.520435" lon="12.3391185"><ele>807.0</ele><time>2026-04-18T14:28:43.923Z</time></trkpt><trkpt lat="43.5204345" lon="12.3390298"><ele>807.0000000000001</ele><time>2026-04-18T14:28:44.924Z</time></trkpt><trkpt lat="43.5204359" lon="12.3389155"><ele>807.0</ele><time>2026-04-18T14:28:45.923Z</time></trkpt><trkpt lat="43.5204375" lon="12.3388133"><ele>807.0</ele><time>2026-04-18T14:28:46.923Z</time></trkpt><trkpt lat="43.5204489" lon="12.3387276"><ele>807.0</ele><time>2026-04-18T14:28:47.923Z</time></trkpt><trkpt lat="43.5204387" lon="12.3386415"><ele>807.0</ele><time>2026-04-18T14:28:48.922Z</time></trkpt><trkpt lat="43.5204293" lon="12.3385324"><ele>807.0000000000001</ele><time>2026-04-18T14:28:49.922Z</time></trkpt><trkpt lat="43.5204173" lon="12.3384306"><ele>807.0</ele><time>2026-04-18T14:28:50.922Z</time></trkpt><trkpt lat="43.5204069" lon="12.3383225"><ele>804.6666666666666</ele><time>2026-04-18T14:28:51.924Z</time></trkpt><trkpt lat="43.5203929" lon="12.3381957"><ele>802.3333333333333</ele><time>2026-04-18T14:28:52.923Z</time></trkpt><trkpt lat="43.5203848" lon="12.338099"><ele>800.0</ele><time>2026-04-18T14:28:53.923Z</time></trkpt><trkpt lat="43.5203782" lon="12.3379991"><ele>797.6666666666666</ele><time>2026-04-18T14:28:54.923Z</time></trkpt><trkpt lat="43.5204606" lon="12.3379207"><ele>795.3333333333333</ele><time>2026-04-18T14:28:56.923Z</time></trkpt><trkpt lat="43.5204984" lon="12.3378398"><ele>793.0</ele><time>2026-04-18T14:28:57.922Z</time></trkpt><trkpt lat="43.5205156" lon="12.3377309"><ele>792.9999999999999</ele><time>2026-04-18T14:28:58.922Z</time></trkpt><trkpt lat="43.5205371" lon="12.3376358"><ele>793.0</ele><time>2026-04-18T14:28:59.924Z</time></trkpt><trkpt lat="43.5205658" lon="12.3375534"><ele>793.0</ele><time>2026-04-18T14:29:00.923Z</time></trkpt><trkpt lat="43.5205891" lon="12.3374655"><ele>793.0</ele><time>2026-04-18T14:29:01.923Z</time></trkpt><trkpt lat="43.5206669" lon="12.3373326"><ele>792.9999999999999</ele><time>2026-04-18T14:29:02.923Z</time></trkpt><trkpt lat="43.5206496" lon="12.3372342"><ele>793.0</ele><time>2026-04-18T14:29:05.923Z</time></trkpt><trkpt lat="43.5206725" lon="12.3370949"><ele>790.5999999999999</ele><time>2026-04-18T14:29:08.924Z</time></trkpt><trkpt lat="43.5206885" lon="12.3369972"><ele>788.1999999999999</ele><time>2026-04-18T14:29:10.924Z</time></trkpt><trkpt lat="43.5207211" lon="12.3369185"><ele>785.8</ele><time>2026-04-18T14:29:13.924Z</time></trkpt><trkpt lat="43.5207911" lon="12.3367781"><ele>783.4</ele><time>2026-04-18T14:29:14.922Z</time></trkpt><trkpt lat="43.5208728" lon="12.3366903"><ele>781.0</ele><time>2026-04-18T14:29:16.924Z</time></trkpt><trkpt lat="43.5209148" lon="12.3365744"><ele>781.0</ele><time>2026-04-18T14:29:18.924Z</time></trkpt><trkpt lat="43.5209406" lon="12.3364858"><ele>781.0</ele><time>2026-04-18T14:29:19.922Z</time></trkpt><trkpt lat="43.5209732" lon="12.3363841"><ele>781.0</ele><time>2026-04-18T14:29:20.923Z</time></trkpt><trkpt lat="43.5209801" lon="12.3362408"><ele>781.0</ele><time>2026-04-18T14:29:22.923Z</time></trkpt><trkpt lat="43.5209444" lon="12.3361099"><ele>781.0</ele><time>2026-04-18T14:29:24.924Z</time></trkpt><trkpt lat="43.5209361" lon="12.3359427"><ele>780.4</ele><time>2026-04-18T14:29:25.923Z</time></trkpt><trkpt lat="43.5209312" lon="12.3357985"><ele>779.8</ele><time>2026-04-18T14:29:27.922Z</time></trkpt><trkpt lat="43.5209451" lon="12.3356811"><ele>779.1999999999999</ele><time>2026-04-18T14:29:29.922Z</time></trkpt><trkpt lat="43.5209495" lon="12.3355386"><ele>778.5999999999999</ele><time>2026-04-18T14:29:31.923Z</time></trkpt><trkpt lat="43.5210168" lon="12.3354141"><ele>778.0</ele><time>2026-04-18T14:29:33.923Z</time></trkpt><trkpt lat="43.5210927" lon="12.3352841"><ele>777.25</ele><time>2026-04-18T14:29:35.924Z</time></trkpt><trkpt lat="43.5212678" lon="12.3352008"><ele>776.5</ele><time>2026-04-18T14:29:37.924Z</time></trkpt><trkpt lat="43.5213786" lon="12.3352021"><ele>775.75</ele><time>2026-04-18T14:29:38.923Z</time></trkpt><trkpt lat="43.521465" lon="12.3352272"><ele>775.0</ele><time>2026-04-18T14:29:39.922Z</time></trkpt><trkpt lat="43.5215623" lon="12.3352472"><ele>774.9999999999999</ele><time>2026-04-18T14:29:40.924Z</time></trkpt><trkpt lat="43.521651" lon="12.3352537"><ele>775.0</ele><time>2026-04-18T14:29:41.923Z</time></trkpt><trkpt lat="43.5217265" lon="12.3352639"><ele>775.0</ele><time>2026-04-18T14:29:42.922Z</time></trkpt><trkpt lat="43.5218182" lon="12.3352516"><ele>775.0</ele><time>2026-04-18T14:29:43.922Z</time></trkpt><trkpt lat="43.5219056" lon="12.3351921"><ele>774.9999999999999</ele><time>2026-04-18T14:29:44.923Z</time></trkpt><trkpt lat="43.5219952" lon="12.3351506"><ele>775.0</ele><time>2026-04-18T14:29:45.923Z</time></trkpt><trkpt lat="43.5221566" lon="12.3350615"><ele>777.8</ele><time>2026-04-18T14:29:46.924Z</time></trkpt><trkpt lat="43.5222792" lon="12.3350024"><ele>780.6</ele><time>2026-04-18T14:29:48.923Z</time></trkpt><trkpt lat="43.5223589" lon="12.3349722"><ele>783.4000000000001</ele><time>2026-04-18T14:29:49.924Z</time></trkpt><trkpt lat="43.5224475" lon="12.3349369"><ele>786.2</ele><time>2026-04-18T14:29:50.923Z</time></trkpt><trkpt lat="43.5225238" lon="12.3348904"><ele>789.0</ele><time>2026-04-18T14:29:51.923Z</time></trkpt><trkpt lat="43.5225705" lon="12.3348249"><ele>789.0</ele><time>2026-04-18T14:29:52.923Z</time></trkpt><trkpt lat="43.5226647" lon="12.3347816"><ele>789.0</ele><time>2026-04-18T14:29:53.923Z</time></trkpt><trkpt lat="43.5227419" lon="12.3347408"><ele>789.0</ele><time>2026-04-18T14:29:54.923Z</time></trkpt><trkpt lat="43.5228117" lon="12.3342983"><ele>788.4000000000001</ele><time>2026-04-18T14:29:55.922Z</time></trkpt><trkpt lat="43.5228865" lon="12.3342226"><ele>787.8</ele><time>2026-04-18T14:29:56.923Z</time></trkpt><trkpt lat="43.5229943" lon="12.3341575"><ele>787.2</ele><time>2026-04-18T14:29:57.922Z</time></trkpt><trkpt lat="43.5230743" lon="12.3340691"><ele>786.5999999999999</ele><time>2026-04-18T14:29:58.924Z</time></trkpt><trkpt lat="43.523154" lon="12.3339869"><ele>786.0</ele><time>2026-04-18T14:29:59.923Z</time></trkpt><trkpt lat="43.5232083" lon="12.3338948"><ele>783.8</ele><time>2026-04-18T14:30:00.923Z</time></trkpt><trkpt lat="43.5232815" lon="12.3338123"><ele>781.5999999999999</ele><time>2026-04-18T14:30:01.923Z</time></trkpt><trkpt lat="43.5232099" lon="12.3338197"><ele>779.4</ele><time>2026-04-18T14:30:02.924Z</time></trkpt><trkpt lat="43.5232605" lon="12.3337025"><ele>777.2</ele><time>2026-04-18T14:30:03.923Z</time></trkpt><trkpt lat="43.5232913" lon="12.3335902"><ele>775.0</ele><time>2026-04-18T14:30:04.922Z</time></trkpt><trkpt lat="43.5233157" lon="12.3334604"><ele>774.9999999999999</ele><time>2026-04-18T14:30:05.923Z</time></trkpt><trkpt lat="43.5233504" lon="12.3333477"><ele>775.0</ele><time>2026-04-18T14:30:06.923Z</time></trkpt><trkpt lat="43.523393" lon="12.3332733"><ele>775.0</ele><time>2026-04-18T14:30:07.923Z</time></trkpt><trkpt lat="43.5234296" lon="12.3331919"><ele>775.0</ele><time>2026-04-18T14:30:08.923Z</time></trkpt><trkpt lat="43.5234846" lon="12.3331158"><ele>774.9999999999999</ele><time>2026-04-18T14:30:09.924Z</time></trkpt><trkpt lat="43.5235337" lon="12.333035"><ele>775.0</ele><time>2026-04-18T14:30:10.923Z</time></trkpt><trkpt lat="43.523583" lon="12.3329514"><ele>774.9999999999999</ele><time>2026-04-18T14:30:11.923Z</time></trkpt><trkpt lat="43.523625" lon="12.3328612"><ele>775.0</ele><time>2026-04-18T14:30:12.923Z</time></trkpt><trkpt lat="43.5236665" lon="12.3327566"><ele>775.0</ele><time>2026-04-18T14:30:13.924Z</time></trkpt><trkpt lat="43.5237237" lon="12.3326387"><ele>775.0</ele><time>2026-04-18T14:30:14.922Z</time></trkpt><trkpt lat="43.5237798" lon="12.3325431"><ele>774.9999999999999</ele><time>2026-04-18T14:30:15.924Z</time></trkpt><trkpt lat="43.5238208" lon="12.3324452"><ele>775.0</ele><time>2026-04-18T14:30:16.924Z</time></trkpt><trkpt lat="43.5238607" lon="12.3323529"><ele>775.0</ele><time>2026-04-18T14:30:17.922Z</time></trkpt><trkpt lat="43.5239083" lon="12.3322819"><ele>775.0</ele><time>2026-04-18T14:30:18.923Z</time></trkpt><trkpt lat="43.5239703" lon="12.3322052"><ele>775.0</ele><time>2026-04-18T14:30:19.924Z</time></trkpt><trkpt lat="43.5240399" lon="12.3321722"><ele>775.0</ele><time>2026-04-18T14:30:20.924Z</time></trkpt><trkpt lat="43.5241994" lon="12.3320963"><ele>775.0</ele><time>2026-04-18T14:30:21.922Z</time></trkpt><trkpt lat="43.5243157" lon="12.3320787"><ele>775.9999999999999</ele><time>2026-04-18T14:30:22.924Z</time></trkpt><trkpt lat="43.5244043" lon="12.3320561"><ele>777.0</ele><time>2026-04-18T14:30:23.924Z</time></trkpt><trkpt lat="43.5244764" lon="12.332049"><ele>778.0</ele><time>2026-04-18T14:30:24.923Z</time></trkpt><trkpt lat="43.5245558" lon="12.3320375"><ele>779.0</ele><time>2026-04-18T14:30:25.922Z</time></trkpt><trkpt lat="43.524632" lon="12.3320398"><ele>779.9999999999999</ele><time>2026-04-18T14:30:26.924Z</time></trkpt><trkpt lat="43.5247595" lon="12.3320604"><ele>781.0</ele><time>2026-04-18T14:30:28.922Z</time></trkpt><trkpt lat="43.524828" lon="12.3320454"><ele>782.4999999999999</ele><time>2026-04-18T14:30:29.924Z</time></trkpt><trkpt lat="43.5248951" lon="12.3320378"><ele>784.0</ele><time>2026-04-18T14:30:30.924Z</time></trkpt><trkpt lat="43.5249626" lon="12.3319492"><ele>785.5</ele><time>2026-04-18T14:30:32.923Z</time></trkpt><trkpt lat="43.5250319" lon="12.3318314"><ele>787.0</ele><time>2026-04-18T14:30:34.922Z</time></trkpt><trkpt lat="43.5250772" lon="12.3317405"><ele>788.4999999999999</ele><time>2026-04-18T14:30:35.924Z</time></trkpt><trkpt lat="43.5251237" lon="12.3316513"><ele>790.0</ele><time>2026-04-18T14:30:36.922Z</time></trkpt><trkpt lat="43.5251739" lon="12.3315719"><ele>789.9999999999999</ele><time>2026-04-18T14:30:37.922Z</time></trkpt><trkpt lat="43.5252232" lon="12.3314753"><ele>790.0</ele><time>2026-04-18T14:30:38.923Z</time></trkpt><trkpt lat="43.5252738" lon="12.3313804"><ele>790.0</ele><time>2026-04-18T14:30:39.924Z</time></trkpt><trkpt lat="43.5253182" lon="12.3312863"><ele>790.0</ele><time>2026-04-18T14:30:40.923Z</time></trkpt><trkpt lat="43.5253653" lon="12.3311784"><ele>789.9999999999999</ele><time>2026-04-18T14:30:41.923Z</time></trkpt><trkpt lat="43.5254101" lon="12.3310802"><ele>790.0</ele><time>2026-04-18T14:30:42.924Z</time></trkpt><trkpt lat="43.5254534" lon="12.3309865"><ele>789.9999999999999</ele><time>2026-04-18T14:30:43.922Z</time></trkpt><trkpt lat="43.5254693" lon="12.3308914"><ele>790.0</ele><time>2026-04-18T14:30:44.924Z</time></trkpt><trkpt lat="43.5254991" lon="12.3308057"><ele>790.0</ele><time>2026-04-18T14:30:45.924Z</time></trkpt><trkpt lat="43.525523" lon="12.3307017"><ele>790.0</ele><time>2026-04-18T14:30:46.922Z</time></trkpt><trkpt lat="43.5255568" lon="12.3306015"><ele>789.9999999999999</ele><time>2026-04-18T14:30:47.923Z</time></trkpt><trkpt lat="43.5255962" lon="12.3305032"><ele>790.0</ele><time>2026-04-18T14:30:48.923Z</time></trkpt><trkpt lat="43.5256501" lon="12.3304019"><ele>789.9999999999999</ele><time>2026-04-18T14:30:49.924Z</time></trkpt><trkpt lat="43.5257044" lon="12.3303248"><ele>790.0</ele><time>2026-04-18T14:30:50.923Z</time></trkpt><trkpt lat="43.5257505" lon="12.3302557"><ele>790.0</ele><time>2026-04-18T14:30:51.923Z</time></trkpt><trkpt lat="43.5258017" lon="12.3301718"><ele>790.0</ele><time>2026-04-18T14:30:52.923Z</time></trkpt><trkpt lat="43.5258629" lon="12.3300767"><ele>789.9999999999999</ele><time>2026-04-18T14:30:53.924Z</time></trkpt><trkpt lat="43.5259256" lon="12.329978"><ele>790.0</ele><time>2026-04-18T14:30:54.924Z</time></trkpt><trkpt lat="43.5259971" lon="12.3298995"><ele>790.0</ele><time>2026-04-18T14:30:55.923Z</time></trkpt><trkpt lat="43.5260536" lon="12.3298563"><ele>790.0</ele><time>2026-04-18T14:30:56.923Z</time></trkpt><trkpt lat="43.5261436" lon="12.329594"><ele>790.0</ele><time>2026-04-18T14:30:58.924Z</time></trkpt><trkpt lat="43.5261733" lon="12.3295042"><ele>790.0</ele><time>2026-04-18T14:30:59.922Z</time></trkpt><trkpt lat="43.5261747" lon="12.3294092"><ele>790.0</ele><time>2026-04-18T14:31:00.923Z</time></trkpt><trkpt lat="43.5261826" lon="12.3292295"><ele>794.2</ele><time>2026-04-18T14:31:02.923Z</time></trkpt><trkpt lat="43.5262381" lon="12.329051"><ele>798.4</ele><time>2026-04-18T14:31:04.924Z</time></trkpt><trkpt lat="43.526292" lon="12.3289529"><ele>802.5999999999999</ele><time>2026-04-18T14:31:05.922Z</time></trkpt><trkpt lat="43.5263914" lon="12.3288431"><ele>806.8</ele><time>2026-04-18T14:31:07.923Z</time></trkpt><trkpt lat="43.5264386" lon="12.3287761"><ele>811.0</ele><time>2026-04-18T14:31:08.922Z</time></trkpt><trkpt lat="43.526494" lon="12.3286959"><ele>811.0</ele><time>2026-04-18T14:31:09.924Z</time></trkpt><trkpt lat="43.5265405" lon="12.3286225"><ele>811.0</ele><time>2026-04-18T14:31:10.922Z</time></trkpt><trkpt lat="43.5265875" lon="12.328473"><ele>811.0</ele><time>2026-04-18T14:31:12.923Z</time></trkpt><trkpt lat="43.5266185" lon="12.3283675"><ele>811.0</ele><time>2026-04-18T14:31:13.923Z</time></trkpt><trkpt lat="43.5266948" lon="12.328127"><ele>810.1999999999999</ele><time>2026-04-18T14:31:14.923Z</time></trkpt><trkpt lat="43.5267446" lon="12.3280525"><ele>809.4</ele><time>2026-04-18T14:31:15.923Z</time></trkpt><trkpt lat="43.5268136" lon="12.3279833"><ele>808.6</ele><time>2026-04-18T14:31:16.922Z</time></trkpt><trkpt lat="43.5268803" lon="12.3279231"><ele>807.8</ele><time>2026-04-18T14:31:17.923Z</time></trkpt><trkpt lat="43.5269436" lon="12.3278638"><ele>807.0</ele><time>2026-04-18T14:31:18.923Z</time></trkpt><trkpt lat="43.5270676" lon="12.3276903"><ele>807.0</ele><time>2026-04-18T14:31:19.922Z</time></trkpt><trkpt lat="43.5271656" lon="12.3276461"><ele>807.0</ele><time>2026-04-18T14:31:20.923Z</time></trkpt><trkpt lat="43.5272373" lon="12.327621"><ele>807.0</ele><time>2026-04-18T14:31:21.922Z</time></trkpt><trkpt lat="43.527333" lon="12.3276252"><ele>807.0</ele><time>2026-04-18T14:31:22.923Z</time></trkpt><trkpt lat="43.5274441" lon="12.3276323"><ele>807.0</ele><time>2026-04-18T14:31:23.923Z</time></trkpt><trkpt lat="43.5275426" lon="12.3276407"><ele>807.0</ele><time>2026-04-18T14:31:24.924Z</time></trkpt><trkpt lat="43.5276318" lon="12.3276408"><ele>807.0</ele><time>2026-04-18T14:31:25.924Z</time></trkpt><trkpt lat="43.5277098" lon="12.3276317"><ele>807.0</ele><time>2026-04-18T14:31:26.923Z</time></trkpt><trkpt lat="43.5278098" lon="12.3275959"><ele>807.0</ele><time>2026-04-18T14:31:27.922Z</time></trkpt><trkpt lat="43.52789" lon="12.3275821"><ele>807.0</ele><time>2026-04-18T14:31:28.924Z</time></trkpt><trkpt lat="43.5279694" lon="12.3275962"><ele>807.0</ele><time>2026-04-18T14:31:29.923Z</time></trkpt><trkpt lat="43.5280493" lon="12.3276111"><ele>806.4000000000001</ele><time>2026-04-18T14:31:30.924Z</time></trkpt><trkpt lat="43.5281355" lon="12.3276016"><ele>805.8000000000001</ele><time>2026-04-18T14:31:31.923Z</time></trkpt><trkpt lat="43.5281997" lon="12.3275601"><ele>805.2</ele><time>2026-04-18T14:31:32.922Z</time></trkpt><trkpt lat="43.5282939" lon="12.3274577"><ele>804.6</ele><time>2026-04-18T14:31:34.924Z</time></trkpt><trkpt lat="43.5283328" lon="12.327371"><ele>804.0</ele><time>2026-04-18T14:31:35.923Z</time></trkpt><trkpt lat="43.5283704" lon="12.3272072"><ele>805.1666666666666</ele><time>2026-04-18T14:31:36.924Z</time></trkpt><trkpt lat="43.5284014" lon="12.3271077"><ele>806.3333333333333</ele><time>2026-04-18T14:31:37.923Z</time></trkpt><trkpt lat="43.5284426" lon="12.3270198"><ele>807.5</ele><time>2026-04-18T14:31:38.922Z</time></trkpt><trkpt lat="43.5284822" lon="12.3269279"><ele>808.6666666666666</ele><time>2026-04-18T14:31:39.922Z</time></trkpt><trkpt lat="43.5285365" lon="12.3268647"><ele>809.8333333333333</ele><time>2026-04-18T14:31:40.924Z</time></trkpt><trkpt lat="43.5286307" lon="12.3268065"><ele>811.0</ele><time>2026-04-18T14:31:41.923Z</time></trkpt><trkpt lat="43.5287051" lon="12.3267829"><ele>812.4</ele><time>2026-04-18T14:31:42.922Z</time></trkpt><trkpt lat="43.5288132" lon="12.3267542"><ele>813.8</ele><time>2026-04-18T14:31:44.924Z</time></trkpt><trkpt lat="43.5288887" lon="12.3267462"><ele>815.1999999999999</ele><time>2026-04-18T14:31:45.924Z</time></trkpt><trkpt lat="43.5289969" lon="12.3267798"><ele>816.5999999999999</ele><time>2026-04-18T14:31:47.923Z</time></trkpt><trkpt lat="43.5291298" lon="12.3268067"><ele>818.0</ele><time>2026-04-18T14:31:48.923Z</time></trkpt><trkpt lat="43.5292167" lon="12.3268238"><ele>818.0</ele><time>2026-04-18T14:31:49.923Z</time></trkpt><trkpt lat="43.5293184" lon="12.326875"><ele>818.0</ele><time>2026-04-18T14:31:50.922Z</time></trkpt><trkpt lat="43.5293956" lon="12.3268858"><ele>818.0</ele><time>2026-04-18T14:31:51.922Z</time></trkpt><trkpt lat="43.5294636" lon="12.326901"><ele>818.0</ele><time>2026-04-18T14:31:52.922Z</time></trkpt><trkpt lat="43.5295413" lon="12.3268099"><ele>818.0</ele><time>2026-04-18T14:31:54.923Z</time></trkpt><trkpt lat="43.5296622" lon="12.3266516"><ele>814.3333333333334</ele><time>2026-04-18T14:31:56.922Z</time></trkpt><trkpt lat="43.5297135" lon="12.3265335"><ele>810.6666666666667</ele><time>2026-04-18T14:31:57.924Z</time></trkpt><trkpt lat="43.5297199" lon="12.3264446"><ele>807.0</ele><time>2026-04-18T14:31:58.924Z</time></trkpt><trkpt lat="43.5297557" lon="12.3262874"><ele>803.3333333333333</ele><time>2026-04-18T14:32:01.922Z</time></trkpt><trkpt lat="43.5297782" lon="12.326205"><ele>799.6666666666666</ele><time>2026-04-18T14:32:02.923Z</time></trkpt><trkpt lat="43.5298098" lon="12.3261282"><ele>796.0</ele><time>2026-04-18T14:32:03.923Z</time></trkpt><trkpt lat="43.5298436" lon="12.3260377"><ele>795.9999999999999</ele><time>2026-04-18T14:32:04.922Z</time></trkpt><trkpt lat="43.5298984" lon="12.3258932"><ele>796.0</ele><time>2026-04-18T14:32:05.924Z</time></trkpt><trkpt lat="43.529936" lon="12.3257833"><ele>796.0</ele><time>2026-04-18T14:32:06.923Z</time></trkpt><trkpt lat="43.5299988" lon="12.3257125"><ele>796.0</ele><time>2026-04-18T14:32:07.924Z</time></trkpt><trkpt lat="43.5300602" lon="12.3256396"><ele>795.9999999999999</ele><time>2026-04-18T14:32:08.923Z</time></trkpt><trkpt lat="43.530089" lon="12.32556"><ele>796.0</ele><time>2026-04-18T14:32:09.923Z</time></trkpt><trkpt lat="43.5301432" lon="12.3255107"><ele>792.9999999999999</ele><time>2026-04-18T14:32:10.923Z</time></trkpt><trkpt lat="43.5302151" lon="12.3254625"><ele>790.0</ele><time>2026-04-18T14:32:11.924Z</time></trkpt><trkpt lat="43.5302827" lon="12.3254233"><ele>787.0</ele><time>2026-04-18T14:32:12.923Z</time></trkpt><trkpt lat="43.5303381" lon="12.3254929"><ele>784.0</ele><time>2026-04-18T14:32:13.922Z</time></trkpt><trkpt lat="43.5304154" lon="12.3255029"><ele>780.9999999999999</ele><time>2026-04-18T14:32:14.922Z</time></trkpt><trkpt lat="43.530484" lon="12.325502"><ele>778.0</ele><time>2026-04-18T14:32:15.923Z</time></trkpt><trkpt lat="43.5306174" lon="12.3254519"><ele>777.9999999999999</ele><time>2026-04-18T14:32:17.924Z</time></trkpt><trkpt lat="43.5306868" lon="12.3253592"><ele>778.0</ele><time>2026-04-18T14:32:18.922Z</time></trkpt><trkpt lat="43.5307655" lon="12.3253077"><ele>778.0</ele><time>2026-04-18T14:32:19.923Z</time></trkpt><trkpt lat="43.5308473" lon="12.3252599"><ele>778.0</ele><time>2026-04-18T14:32:20.922Z</time></trkpt><trkpt lat="43.5309334" lon="12.3252238"><ele>777.9999999999999</ele><time>2026-04-18T14:32:21.924Z</time></trkpt><trkpt lat="43.5309991" lon="12.3252133"><ele>778.0</ele><time>2026-04-18T14:32:22.924Z</time></trkpt><trkpt lat="43.5310708" lon="12.325193"><ele>778.0</ele><time>2026-04-18T14:32:23.924Z</time></trkpt><trkpt lat="43.5311533" lon="12.3251696"><ele>778.0</ele><time>2026-04-18T14:32:24.923Z</time></trkpt><trkpt lat="43.5312524" lon="12.3251312"><ele>778.0</ele><time>2026-04-18T14:32:25.923Z</time></trkpt><trkpt lat="43.5313442" lon="12.3250991"><ele>778.0</ele><time>2026-04-18T14:32:26.923Z</time></trkpt><trkpt lat="43.5314494" lon="12.3250642"><ele>778.0</ele><time>2026-04-18T14:32:27.923Z</time></trkpt><trkpt lat="43.5315425" lon="12.3250432"><ele>777.8333333333333</ele><time>2026-04-18T14:32:28.923Z</time></trkpt><trkpt lat="43.5316274" lon="12.3250161"><ele>777.6666666666666</ele><time>2026-04-18T14:32:29.922Z</time></trkpt><trkpt lat="43.5317095" lon="12.324989"><ele>777.5</ele><time>2026-04-18T14:32:30.922Z</time></trkpt><trkpt lat="43.5317865" lon="12.324966"><ele>777.3333333333333</ele><time>2026-04-18T14:32:31.924Z</time></trkpt><trkpt lat="43.5318642" lon="12.3249491"><ele>777.1666666666666</ele><time>2026-04-18T14:32:32.924Z</time></trkpt><trkpt lat="43.5319483" lon="12.3249265"><ele>777.0</ele><time>2026-04-18T14:32:33.922Z</time></trkpt><trkpt lat="43.532019" lon="12.3249164"><ele>778.75</ele><time>2026-04-18T14:32:34.922Z</time></trkpt><trkpt lat="43.5321017" lon="12.324903"><ele>780.5</ele><time>2026-04-18T14:32:35.923Z</time></trkpt><trkpt lat="43.5321785" lon="12.3248922"><ele>782.25</ele><time>2026-04-18T14:32:36.923Z</time></trkpt><trkpt lat="43.5323299" lon="12.324843"><ele>784.0</ele><time>2026-04-18T14:32:38.923Z</time></trkpt><trkpt lat="43.532511" lon="12.3248148"><ele>784.0</ele><time>2026-04-18T14:32:40.924Z</time></trkpt><trkpt lat="43.5325762" lon="12.3247793"><ele>784.0</ele><time>2026-04-18T14:32:41.924Z</time></trkpt><trkpt lat="43.5326426" lon="12.324746"><ele>784.0</ele><time>2026-04-18T14:32:42.922Z</time></trkpt><trkpt lat="43.5327238" lon="12.324641"><ele>784.0</ele><time>2026-04-18T14:32:44.923Z</time></trkpt><trkpt lat="43.532815" lon="12.3245304"><ele>784.0</ele><time>2026-04-18T14:32:46.923Z</time></trkpt><trkpt lat="43.5328861" lon="12.3243445"><ele>787.2</ele><time>2026-04-18T14:32:47.923Z</time></trkpt><trkpt lat="43.5329473" lon="12.3242458"><ele>790.4000000000001</ele><time>2026-04-18T14:32:48.923Z</time></trkpt><trkpt lat="43.5329994" lon="12.3241489"><ele>793.6</ele><time>2026-04-18T14:32:49.923Z</time></trkpt><trkpt lat="43.5330487" lon="12.3240516"><ele>796.8</ele><time>2026-04-18T14:32:50.922Z</time></trkpt><trkpt lat="43.5330863" lon="12.3239438"><ele>800.0</ele><time>2026-04-18T14:32:51.923Z</time></trkpt><trkpt lat="43.5330811" lon="12.323808"><ele>800.0</ele><time>2026-04-18T14:32:52.922Z</time></trkpt><trkpt lat="43.5330725" lon="12.3237043"><ele>800.0</ele><time>2026-04-18T14:32:53.924Z</time></trkpt><trkpt lat="43.5330412" lon="12.3234822"><ele>800.0</ele><time>2026-04-18T14:32:54.923Z</time></trkpt><trkpt lat="43.5330436" lon="12.3233161"><ele>800.0</ele><time>2026-04-18T14:32:55.924Z</time></trkpt><trkpt lat="43.5330295" lon="12.323131"><ele>798.5000000000001</ele><time>2026-04-18T14:32:56.923Z</time></trkpt><trkpt lat="43.5330316" lon="12.3229686"><ele>797.0</ele><time>2026-04-18T14:32:58.922Z</time></trkpt><trkpt lat="43.5329877" lon="12.3228777"><ele>795.5</ele><time>2026-04-18T14:33:00.922Z</time></trkpt><trkpt lat="43.5330073" lon="12.3227784"><ele>794.0</ele><time>2026-04-18T14:33:02.923Z</time></trkpt><trkpt lat="43.5330178" lon="12.322667"><ele>792.5000000000001</ele><time>2026-04-18T14:33:05.922Z</time></trkpt><trkpt lat="43.5330583" lon="12.3225819"><ele>791.0</ele><time>2026-04-18T14:33:07.922Z</time></trkpt><trkpt lat="43.5331233" lon="12.3225711"><ele>791.0</ele><time>2026-04-18T14:33:09.923Z</time></trkpt><trkpt lat="43.5331765" lon="12.3226764"><ele>791.0</ele><time>2026-04-18T14:33:11.923Z</time></trkpt><trkpt lat="43.5332394" lon="12.3228326"><ele>791.0</ele><time>2026-04-18T14:33:13.922Z</time></trkpt><trkpt lat="43.5332773" lon="12.3229116"><ele>791.0</ele><time>2026-04-18T14:33:14.923Z</time></trkpt><trkpt lat="43.5333358" lon="12.3229962"><ele>791.0</ele><time>2026-04-18T14:33:15.923Z</time></trkpt><trkpt lat="43.5333892" lon="12.3230912"><ele>792.5000000000001</ele><time>2026-04-18T14:33:16.923Z</time></trkpt><trkpt lat="43.5334415" lon="12.3231852"><ele>794.0</ele><time>2026-04-18T14:33:17.922Z</time></trkpt><trkpt lat="43.533484" lon="12.3232833"><ele>795.5</ele><time>2026-04-18T14:33:18.923Z</time></trkpt><trkpt lat="43.5335296" lon="12.3233777"><ele>797.0</ele><time>2026-04-18T14:33:19.923Z</time></trkpt><trkpt lat="43.533581" lon="12.3234834"><ele>798.5000000000001</ele><time>2026-04-18T14:33:20.922Z</time></trkpt><trkpt lat="43.5336244" lon="12.3235921"><ele>800.0</ele><time>2026-04-18T14:33:21.922Z</time></trkpt><trkpt lat="43.5336491" lon="12.3237039"><ele>800.0000000000001</ele><time>2026-04-18T14:33:22.923Z</time></trkpt><trkpt lat="43.5336759" lon="12.3238111"><ele>800.0</ele><time>2026-04-18T14:33:23.923Z</time></trkpt><trkpt lat="43.5337232" lon="12.3239075"><ele>800.0</ele><time>2026-04-18T14:33:24.924Z</time></trkpt><trkpt lat="43.5337943" lon="12.3240025"><ele>800.0</ele><time>2026-04-18T14:33:25.924Z</time></trkpt><trkpt lat="43.5338841" lon="12.3240657"><ele>800.0000000000001</ele><time>2026-04-18T14:33:26.923Z</time></trkpt><trkpt lat="43.5339597" lon="12.3240992"><ele>800.0</ele><time>2026-04-18T14:33:27.923Z</time></trkpt><trkpt lat="43.5340435" lon="12.3241419"><ele>807.0</ele><time>2026-04-18T14:33:28.923Z</time></trkpt><trkpt lat="43.5341398" lon="12.3241051"><ele>814.0</ele><time>2026-04-18T14:33:29.923Z</time></trkpt><trkpt lat="43.5342435" lon="12.3240819"><ele>821.0</ele><time>2026-04-18T14:33:30.923Z</time></trkpt><trkpt lat="43.5343179" lon="12.3240739"><ele>828.0</ele><time>2026-04-18T14:33:31.923Z</time></trkpt><trkpt lat="43.5344097" lon="12.3240509"><ele>835.0</ele><time>2026-04-18T14:33:32.923Z</time></trkpt><trkpt lat="43.5345204" lon="12.324007"><ele>837.4</ele><time>2026-04-18T14:33:33.924Z</time></trkpt><trkpt lat="43.5346193" lon="12.3239842"><ele>839.8</ele><time>2026-04-18T14:33:34.923Z</time></trkpt><trkpt lat="43.5347208" lon="12.3239561"><ele>842.2</ele><time>2026-04-18T14:33:35.923Z</time></trkpt><trkpt lat="43.5348348" lon="12.323958"><ele>844.6</ele><time>2026-04-18T14:33:36.923Z</time></trkpt><trkpt lat="43.5349267" lon="12.3239585"><ele>847.0</ele><time>2026-04-18T14:33:37.923Z</time></trkpt><trkpt lat="43.5350375" lon="12.3239596"><ele>846.9999999999999</ele><time>2026-04-18T14:33:38.922Z</time></trkpt><trkpt lat="43.5351236" lon="12.32398"><ele>847.0</ele><time>2026-04-18T14:33:39.923Z</time></trkpt><trkpt lat="43.5352125" lon="12.3240039"><ele>847.0</ele><time>2026-04-18T14:33:40.923Z</time></trkpt><trkpt lat="43.5352988" lon="12.3240461"><ele>847.0</ele><time>2026-04-18T14:33:41.923Z</time></trkpt><trkpt lat="43.5353892" lon="12.3240742"><ele>846.9999999999999</ele><time>2026-04-18T14:33:42.924Z</time></trkpt><trkpt lat="43.5354667" lon="12.3241148"><ele>847.0</ele><time>2026-04-18T14:33:43.923Z</time></trkpt><trkpt lat="43.5355368" lon="12.3241531"><ele>847.6</ele><time>2026-04-18T14:33:44.922Z</time></trkpt><trkpt lat="43.5356411" lon="12.3241656"><ele>848.2</ele><time>2026-04-18T14:33:45.923Z</time></trkpt><trkpt lat="43.5357567" lon="12.3241595"><ele>848.8</ele><time>2026-04-18T14:33:46.924Z</time></trkpt><trkpt lat="43.5358376" lon="12.3241363"><ele>849.4</ele><time>2026-04-18T14:33:47.924Z</time></trkpt><trkpt lat="43.5359493" lon="12.3240895"><ele>850.0</ele><time>2026-04-18T14:33:48.922Z</time></trkpt><trkpt lat="43.5360188" lon="12.3240482"><ele>850.0</ele><time>2026-04-18T14:33:49.924Z</time></trkpt><trkpt lat="43.5361138" lon="12.3240411"><ele>850.0</ele><time>2026-04-18T14:33:50.923Z</time></trkpt><trkpt lat="43.5362701" lon="12.3240579"><ele>850.0</ele><time>2026-04-18T14:33:52.923Z</time></trkpt><trkpt lat="43.536352" lon="12.3240955"><ele>850.0</ele><time>2026-04-18T14:33:53.922Z</time></trkpt><trkpt lat="43.5364381" lon="12.3241312"><ele>850.0</ele><time>2026-04-18T14:33:54.924Z</time></trkpt><trkpt lat="43.5365314" lon="12.3241558"><ele>849.2</ele><time>2026-04-18T14:33:55.923Z</time></trkpt><trkpt lat="43.536618" lon="12.324159"><ele>848.4</ele><time>2026-04-18T14:33:56.923Z</time></trkpt><trkpt lat="43.5367056" lon="12.3241743"><ele>847.5999999999999</ele><time>2026-04-18T14:33:57.924Z</time></trkpt><trkpt lat="43.536785" lon="12.3241802"><ele>846.8</ele><time>2026-04-18T14:33:58.923Z</time></trkpt><trkpt lat="43.5368537" lon="12.3241974"><ele>846.0</ele><time>2026-04-18T14:33:59.924Z</time></trkpt><trkpt lat="43.5369865" lon="12.3242652"><ele>845.8</ele><time>2026-04-18T14:34:01.924Z</time></trkpt><trkpt lat="43.5370567" lon="12.3242882"><ele>845.5999999999999</ele><time>2026-04-18T14:34:02.923Z</time></trkpt><trkpt lat="43.5371304" lon="12.3243016"><ele>845.4</ele><time>2026-04-18T14:34:03.923Z</time></trkpt><trkpt lat="43.5372186" lon="12.3243299"><ele>845.2</ele><time>2026-04-18T14:34:04.923Z</time></trkpt><trkpt lat="43.5373436" lon="12.3243259"><ele>845.0</ele><time>2026-04-18T14:34:07.923Z</time></trkpt><trkpt lat="43.5374554" lon="12.3242706"><ele>845.0000000000001</ele><time>2026-04-18T14:34:09.923Z</time></trkpt><trkpt lat="43.5374996" lon="12.324203"><ele>845.0</ele><time>2026-04-18T14:34:10.923Z</time></trkpt><trkpt lat="43.5375776" lon="12.324049"><ele>845.0</ele><time>2026-04-18T14:34:12.922Z</time></trkpt><trkpt lat="43.5376103" lon="12.3239608"><ele>845.0</ele><time>2026-04-18T14:34:13.923Z</time></trkpt><trkpt lat="43.5376296" lon="12.323875"><ele>845.0000000000001</ele><time>2026-04-18T14:34:14.923Z</time></trkpt><trkpt lat="43.5376559" lon="12.3237903"><ele>845.0</ele><time>2026-04-18T14:34:15.922Z</time></trkpt><trkpt lat="43.5376822" lon="12.3237069"><ele>842.4</ele><time>2026-04-18T14:34:16.923Z</time></trkpt><trkpt lat="43.5376877" lon="12.3235305"><ele>839.8</ele><time>2026-04-18T14:34:18.924Z</time></trkpt><trkpt lat="43.5376975" lon="12.3234346"><ele>837.2</ele><time>2026-04-18T14:34:19.923Z</time></trkpt><trkpt lat="43.5377214" lon="12.3233127"><ele>834.6</ele><time>2026-04-18T14:34:20.923Z</time></trkpt><trkpt lat="43.5377565" lon="12.323202"><ele>832.0</ele><time>2026-04-18T14:34:21.923Z</time></trkpt><trkpt lat="43.5377948" lon="12.3230898"><ele>829.9999999999999</ele><time>2026-04-18T14:34:22.922Z</time></trkpt><trkpt lat="43.5378421" lon="12.3230005"><ele>828.0</ele><time>2026-04-18T14:34:23.923Z</time></trkpt><trkpt lat="43.5378808" lon="12.322883"><ele>826.0</ele><time>2026-04-18T14:34:24.923Z</time></trkpt><trkpt lat="43.5379273" lon="12.3227676"><ele>824.0</ele><time>2026-04-18T14:34:25.924Z</time></trkpt><trkpt lat="43.5379907" lon="12.3226494"><ele>821.9999999999999</ele><time>2026-04-18T14:34:26.923Z</time></trkpt><trkpt lat="43.5380366" lon="12.3225754"><ele>820.0</ele><time>2026-04-18T14:34:27.923Z</time></trkpt><trkpt lat="43.5381224" lon="12.3224185"><ele>819.9999999999999</ele><time>2026-04-18T14:34:29.923Z</time></trkpt><trkpt lat="43.5381891" lon="12.3223162"><ele>820.0</ele><time>2026-04-18T14:34:30.923Z</time></trkpt><trkpt lat="43.5382586" lon="12.3222202"><ele>820.0</ele><time>2026-04-18T14:34:31.923Z</time></trkpt><trkpt lat="43.5383205" lon="12.3221309"><ele>820.0</ele><time>2026-04-18T14:34:32.923Z</time></trkpt><trkpt lat="43.5383752" lon="12.322061"><ele>819.9999999999999</ele><time>2026-04-18T14:34:33.923Z</time></trkpt><trkpt lat="43.5384399" lon="12.3219904"><ele>820.0</ele><time>2026-04-18T14:34:34.923Z</time></trkpt><trkpt lat="43.5385031" lon="12.3219283"><ele>820.3333333333333</ele><time>2026-04-18T14:34:35.923Z</time></trkpt><trkpt lat="43.5385674" lon="12.3218734"><ele>820.6666666666666</ele><time>2026-04-18T14:34:36.923Z</time></trkpt><trkpt lat="43.5386321" lon="12.3218122"><ele>821.0</ele><time>2026-04-18T14:34:37.924Z</time></trkpt><trkpt lat="43.5387035" lon="12.3217502"><ele>821.3333333333333</ele><time>2026-04-18T14:34:38.924Z</time></trkpt><trkpt lat="43.5387707" lon="12.3216869"><ele>821.6666666666666</ele><time>2026-04-18T14:34:39.924Z</time></trkpt><trkpt lat="43.5388384" lon="12.3216263"><ele>822.0</ele><time>2026-04-18T14:34:40.923Z</time></trkpt><trkpt lat="43.5389051" lon="12.3215474"><ele>821.0</ele><time>2026-04-18T14:34:41.922Z</time></trkpt><trkpt lat="43.5389584" lon="12.3214767"><ele>820.0</ele><time>2026-04-18T14:34:42.924Z</time></trkpt><trkpt lat="43.5389908" lon="12.3213287"><ele>819.0</ele><time>2026-04-18T14:34:44.923Z</time></trkpt><trkpt lat="43.5389746" lon="12.3212393"><ele>818.0</ele><time>2026-04-18T14:34:46.923Z</time></trkpt><trkpt lat="43.5389883" lon="12.3209067"><ele>821.2</ele><time>2026-04-18T14:34:47.923Z</time></trkpt><trkpt lat="43.5390134" lon="12.3207774"><ele>824.4</ele><time>2026-04-18T14:34:48.922Z</time></trkpt><trkpt lat="43.5390431" lon="12.3206592"><ele>827.6</ele><time>2026-04-18T14:34:49.922Z</time></trkpt><trkpt lat="43.5391214" lon="12.320592"><ele>830.8000000000001</ele><time>2026-04-18T14:34:50.923Z</time></trkpt><trkpt lat="43.5391921" lon="12.3204942"><ele>834.0</ele><time>2026-04-18T14:34:51.922Z</time></trkpt><trkpt lat="43.5392405" lon="12.320417"><ele>834.2</ele><time>2026-04-18T14:34:52.924Z</time></trkpt><trkpt lat="43.5393108" lon="12.3203146"><ele>834.4000000000001</ele><time>2026-04-18T14:34:53.922Z</time></trkpt><trkpt lat="43.5392678" lon="12.3202123"><ele>834.6</ele><time>2026-04-18T14:34:55.923Z</time></trkpt><trkpt lat="43.5392253" lon="12.3201093"><ele>834.8</ele><time>2026-04-18T14:34:56.924Z</time></trkpt><trkpt lat="43.5391668" lon="12.3199485"><ele>835.0</ele><time>2026-04-18T14:34:58.923Z</time></trkpt><trkpt lat="43.5391295" lon="12.3198053"><ele>834.2</ele><time>2026-04-18T14:34:59.923Z</time></trkpt><trkpt lat="43.5390798" lon="12.3196525"><ele>833.4</ele><time>2026-04-18T14:35:00.923Z</time></trkpt><trkpt lat="43.5390294" lon="12.3195511"><ele>832.5999999999999</ele><time>2026-04-18T14:35:01.924Z</time></trkpt><trkpt lat="43.5389829" lon="12.3194224"><ele>831.8</ele><time>2026-04-18T14:35:02.923Z</time></trkpt><trkpt lat="43.5389459" lon="12.3192755"><ele>831.0</ele><time>2026-04-18T14:35:03.924Z</time></trkpt><trkpt lat="43.538913" lon="12.319166"><ele>831.0</ele><time>2026-04-18T14:35:04.923Z</time></trkpt><trkpt lat="43.538891" lon="12.3190703"><ele>831.0</ele><time>2026-04-18T14:35:05.923Z</time></trkpt><trkpt lat="43.5388713" lon="12.3188998"><ele>831.0</ele><time>2026-04-18T14:35:06.923Z</time></trkpt><trkpt lat="43.5388525" lon="12.3187773"><ele>831.0</ele><time>2026-04-18T14:35:07.924Z</time></trkpt><trkpt lat="43.5388728" lon="12.318685"><ele>831.0</ele><time>2026-04-18T14:35:08.924Z</time></trkpt><trkpt lat="43.5389455" lon="12.3185286"><ele>830.4</ele><time>2026-04-18T14:35:09.924Z</time></trkpt><trkpt lat="43.5389757" lon="12.318452"><ele>829.8</ele><time>2026-04-18T14:35:10.922Z</time></trkpt><trkpt lat="43.5390345" lon="12.3182919"><ele>829.1999999999999</ele><time>2026-04-18T14:35:12.923Z</time></trkpt><trkpt lat="43.5390711" lon="12.3182108"><ele>828.5999999999999</ele><time>2026-04-18T14:35:13.922Z</time></trkpt><trkpt lat="43.5391158" lon="12.3181032"><ele>828.0</ele><time>2026-04-18T14:35:14.923Z</time></trkpt><trkpt lat="43.5391661" lon="12.3179234"><ele>828.0</ele><time>2026-04-18T14:35:15.923Z</time></trkpt><trkpt lat="43.539204" lon="12.3178214"><ele>828.0</ele><time>2026-04-18T14:35:16.923Z</time></trkpt><trkpt lat="43.5392452" lon="12.3177143"><ele>828.0</ele><time>2026-04-18T14:35:17.924Z</time></trkpt><trkpt lat="43.5392855" lon="12.317586"><ele>828.0</ele><time>2026-04-18T14:35:18.923Z</time></trkpt><trkpt lat="43.5393306" lon="12.3174989"><ele>828.0</ele><time>2026-04-18T14:35:19.924Z</time></trkpt><trkpt lat="43.5393976" lon="12.317402"><ele>828.0</ele><time>2026-04-18T14:35:20.923Z</time></trkpt><trkpt lat="43.5394774" lon="12.3173291"><ele>828.0</ele><time>2026-04-18T14:35:21.924Z</time></trkpt><trkpt lat="43.539549" lon="12.3172616"><ele>828.0</ele><time>2026-04-18T14:35:22.923Z</time></trkpt><trkpt lat="43.5396285" lon="12.3171869"><ele>828.0</ele><time>2026-04-18T14:35:23.922Z</time></trkpt><trkpt lat="43.5397037" lon="12.3170949"><ele>828.0</ele><time>2026-04-18T14:35:24.923Z</time></trkpt><trkpt lat="43.5397745" lon="12.3170021"><ele>828.0</ele><time>2026-04-18T14:35:25.923Z</time></trkpt><trkpt lat="43.5398411" lon="12.3169105"><ele>826.8</ele><time>2026-04-18T14:35:26.924Z</time></trkpt><trkpt lat="43.5399113" lon="12.3168237"><ele>825.5999999999999</ele><time>2026-04-18T14:35:27.923Z</time></trkpt><trkpt lat="43.53998" lon="12.3167404"><ele>824.4000000000001</ele><time>2026-04-18T14:35:28.924Z</time></trkpt><trkpt lat="43.5400565" lon="12.3166801"><ele>823.2</ele><time>2026-04-18T14:35:29.924Z</time></trkpt><trkpt lat="43.5401553" lon="12.3166217"><ele>822.0</ele><time>2026-04-18T14:35:30.923Z</time></trkpt><trkpt lat="43.5402392" lon="12.3166112"><ele>822.0</ele><time>2026-04-18T14:35:31.923Z</time></trkpt><trkpt lat="43.5403668" lon="12.3165919"><ele>822.0</ele><time>2026-04-18T14:35:33.923Z</time></trkpt><trkpt lat="43.5404275" lon="12.3165289"><ele>822.0</ele><time>2026-04-18T14:35:35.923Z</time></trkpt><trkpt lat="43.5405015" lon="12.316441"><ele>822.0</ele><time>2026-04-18T14:35:38.923Z</time></trkpt><trkpt lat="43.5405609" lon="12.3163523"><ele>822.0</ele><time>2026-04-18T14:35:40.922Z</time></trkpt><trkpt lat="43.5406266" lon="12.3162251"><ele>824.0</ele><time>2026-04-18T14:35:42.923Z</time></trkpt><trkpt lat="43.5406736" lon="12.3161144"><ele>826.0</ele><time>2026-04-18T14:35:44.922Z</time></trkpt><trkpt lat="43.540674" lon="12.3160261"><ele>828.0</ele><time>2026-04-18T14:35:45.923Z</time></trkpt><trkpt lat="43.5406188" lon="12.3159687"><ele>830.0</ele><time>2026-04-18T14:35:46.923Z</time></trkpt><trkpt lat="43.5405426" lon="12.315862"><ele>832.0</ele><time>2026-04-18T14:35:48.923Z</time></trkpt><trkpt lat="43.5405011" lon="12.315717"><ele>834.0</ele><time>2026-04-18T14:35:50.923Z</time></trkpt><trkpt lat="43.5404901" lon="12.3156128"><ele>834.4000000000001</ele><time>2026-04-18T14:35:52.923Z</time></trkpt><trkpt lat="43.5405003" lon="12.3155189"><ele>834.8</ele><time>2026-04-18T14:35:53.922Z</time></trkpt><trkpt lat="43.5405338" lon="12.315378"><ele>835.2</ele><time>2026-04-18T14:35:55.923Z</time></trkpt><trkpt lat="43.5405085" lon="12.3152142"><ele>835.5999999999999</ele><time>2026-04-18T14:35:57.923Z</time></trkpt><trkpt lat="43.5405141" lon="12.3151199"><ele>836.0</ele><time>2026-04-18T14:35:58.923Z</time></trkpt><trkpt lat="43.5404961" lon="12.3149819"><ele>836.0</ele><time>2026-04-18T14:35:59.924Z</time></trkpt><trkpt lat="43.5404949" lon="12.3148095"><ele>836.0</ele><time>2026-04-18T14:36:01.922Z</time></trkpt><trkpt lat="43.5405428" lon="12.3146526"><ele>836.0</ele><time>2026-04-18T14:36:03.922Z</time></trkpt><trkpt lat="43.5405505" lon="12.3145013"><ele>836.0</ele><time>2026-04-18T14:36:05.923Z</time></trkpt><trkpt lat="43.5405332" lon="12.3144025"><ele>836.0</ele><time>2026-04-18T14:36:07.924Z</time></trkpt><trkpt lat="43.5405469" lon="12.3142683"><ele>834.0</ele><time>2026-04-18T14:36:09.923Z</time></trkpt><trkpt lat="43.5405629" lon="12.3141169"><ele>832.0</ele><time>2026-04-18T14:36:11.923Z</time></trkpt><trkpt lat="43.540598" lon="12.3139555"><ele>830.0</ele><time>2026-04-18T14:36:13.924Z</time></trkpt><trkpt lat="43.540674" lon="12.3138174"><ele>828.0</ele><time>2026-04-18T14:36:15.923Z</time></trkpt><trkpt lat="43.540725" lon="12.3137563"><ele>826.0</ele><time>2026-04-18T14:36:16.923Z</time></trkpt><trkpt lat="43.540778" lon="12.3136795"><ele>823.8</ele><time>2026-04-18T14:36:17.923Z</time></trkpt><trkpt lat="43.5407904" lon="12.3135646"><ele>821.5999999999999</ele><time>2026-04-18T14:36:18.923Z</time></trkpt><trkpt lat="43.5407915" lon="12.313448"><ele>819.4</ele><time>2026-04-18T14:36:20.923Z</time></trkpt><trkpt lat="43.5407797" lon="12.3133076"><ele>817.2</ele><time>2026-04-18T14:36:21.923Z</time></trkpt><trkpt lat="43.540784" lon="12.3132166"><ele>815.0</ele><time>2026-04-18T14:36:22.923Z</time></trkpt><trkpt lat="43.5408216" lon="12.3129685"><ele>813.8</ele><time>2026-04-18T14:36:23.922Z</time></trkpt><trkpt lat="43.5408875" lon="12.3129999"><ele>812.6</ele><time>2026-04-18T14:36:25.924Z</time></trkpt><trkpt lat="43.5409978" lon="12.3129283"><ele>811.4000000000001</ele><time>2026-04-18T14:36:27.923Z</time></trkpt><trkpt lat="43.5410658" lon="12.3128673"><ele>810.2</ele><time>2026-04-18T14:36:29.924Z</time></trkpt><trkpt lat="43.5410293" lon="12.3127672"><ele>809.0</ele><time>2026-04-18T14:36:30.923Z</time></trkpt><trkpt lat="43.5410363" lon="12.31263"><ele>809.0000000000001</ele><time>2026-04-18T14:36:32.923Z</time></trkpt><trkpt lat="43.5410334" lon="12.3124344"><ele>809.0</ele><time>2026-04-18T14:36:34.924Z</time></trkpt><trkpt lat="43.5409839" lon="12.3123728"><ele>809.0</ele><time>2026-04-18T14:36:35.923Z</time></trkpt><trkpt lat="43.5409512" lon="12.3122812"><ele>809.0</ele><time>2026-04-18T14:36:36.922Z</time></trkpt><trkpt lat="43.5409026" lon="12.3122148"><ele>809.0000000000001</ele><time>2026-04-18T14:36:37.923Z</time></trkpt><trkpt lat="43.5408592" lon="12.3121446"><ele>809.0</ele><time>2026-04-18T14:36:38.923Z</time></trkpt><trkpt lat="43.5407493" lon="12.3119956"><ele>809.1666666666667</ele><time>2026-04-18T14:36:40.922Z</time></trkpt><trkpt lat="43.5407218" lon="12.311862"><ele>809.3333333333334</ele><time>2026-04-18T14:36:42.923Z</time></trkpt><trkpt lat="43.5406854" lon="12.3117605"><ele>809.5</ele><time>2026-04-18T14:36:43.924Z</time></trkpt><trkpt lat="43.5406829" lon="12.3116705"><ele>809.6666666666667</ele><time>2026-04-18T14:36:46.922Z</time></trkpt><trkpt lat="43.5407007" lon="12.3115786"><ele>809.8333333333334</ele><time>2026-04-18T14:36:49.923Z</time></trkpt><trkpt lat="43.5407698" lon="12.3114987"><ele>810.0</ele><time>2026-04-18T14:36:53.923Z</time></trkpt><trkpt lat="43.5408232" lon="12.3114452"><ele>810.5</ele><time>2026-04-18T14:36:55.922Z</time></trkpt><trkpt lat="43.5408454" lon="12.3113624"><ele>811.0</ele><time>2026-04-18T14:36:57.922Z</time></trkpt><trkpt lat="43.5408489" lon="12.3112556"><ele>811.5</ele><time>2026-04-18T14:36:59.923Z</time></trkpt><trkpt lat="43.540821" lon="12.3111292"><ele>812.0</ele><time>2026-04-18T14:37:01.924Z</time></trkpt><trkpt lat="43.5408011" lon="12.3110366"><ele>812.5</ele><time>2026-04-18T14:37:02.924Z</time></trkpt><trkpt lat="43.540781" lon="12.3109354"><ele>813.0</ele><time>2026-04-18T14:37:03.922Z</time></trkpt><trkpt lat="43.5406821" lon="12.3106945"><ele>814.0</ele><time>2026-04-18T14:37:04.924Z</time></trkpt><trkpt lat="43.5406233" lon="12.3105432"><ele>815.0</ele><time>2026-04-18T14:37:05.924Z</time></trkpt><trkpt lat="43.5405924" lon="12.3104197"><ele>816.0</ele><time>2026-04-18T14:37:06.923Z</time></trkpt><trkpt lat="43.540569" lon="12.31031"><ele>817.0</ele><time>2026-04-18T14:37:07.923Z</time></trkpt><trkpt lat="43.5405531" lon="12.3102255"><ele>818.0</ele><time>2026-04-18T14:37:08.924Z</time></trkpt><trkpt lat="43.5405495" lon="12.3101236"><ele>819.0</ele><time>2026-04-18T14:37:09.923Z</time></trkpt><trkpt lat="43.5405685" lon="12.3099972"><ele>819.0</ele><time>2026-04-18T14:37:10.922Z</time></trkpt><trkpt lat="43.5405413" lon="12.3098149"><ele>819.0</ele><time>2026-04-18T14:37:11.922Z</time></trkpt><trkpt lat="43.5405767" lon="12.3097266"><ele>819.0</ele><time>2026-04-18T14:37:12.923Z</time></trkpt><trkpt lat="43.5405629" lon="12.3096324"><ele>819.0</ele><time>2026-04-18T14:37:15.923Z</time></trkpt><trkpt lat="43.5405213" lon="12.3094717"><ele>819.0</ele><time>2026-04-18T14:37:17.924Z</time></trkpt><trkpt lat="43.540502" lon="12.3093842"><ele>820.3333333333334</ele><time>2026-04-18T14:37:18.922Z</time></trkpt><trkpt lat="43.5404665" lon="12.3092996"><ele>821.6666666666667</ele><time>2026-04-18T14:37:19.922Z</time></trkpt><trkpt lat="43.5403975" lon="12.3092283"><ele>823.0</ele><time>2026-04-18T14:37:23.922Z</time></trkpt><trkpt lat="43.5403346" lon="12.3091666"><ele>824.3333333333334</ele><time>2026-04-18T14:37:27.922Z</time></trkpt><trkpt lat="43.5402839" lon="12.3091038"><ele>825.6666666666667</ele><time>2026-04-18T14:37:30.923Z</time></trkpt><trkpt lat="43.5402094" lon="12.3089991"><ele>827.0</ele><time>2026-04-18T14:37:33.922Z</time></trkpt><trkpt lat="43.5401119" lon="12.3089138"><ele>825.6</ele><time>2026-04-18T14:37:35.923Z</time></trkpt><trkpt lat="43.540054" lon="12.308853"><ele>824.2</ele><time>2026-04-18T14:37:36.924Z</time></trkpt><trkpt lat="43.5400107" lon="12.3087735"><ele>822.8</ele><time>2026-04-18T14:37:37.923Z</time></trkpt><trkpt lat="43.5399392" lon="12.3086343"><ele>821.4</ele><time>2026-04-18T14:37:38.923Z</time></trkpt><trkpt lat="43.5398518" lon="12.3085505"><ele>820.0</ele><time>2026-04-18T14:37:39.923Z</time></trkpt><trkpt lat="43.5397692" lon="12.3084788"><ele>820.0</ele><time>2026-04-18T14:37:40.923Z</time></trkpt><trkpt lat="43.539719" lon="12.3084255"><ele>820.0</ele><time>2026-04-18T14:37:41.923Z</time></trkpt><trkpt lat="43.5396235" lon="12.3083982"><ele>820.0</ele><time>2026-04-18T14:37:42.923Z</time></trkpt><trkpt lat="43.5395365" lon="12.3083736"><ele>820.0</ele><time>2026-04-18T14:37:43.923Z</time></trkpt><trkpt lat="43.539409" lon="12.3084048"><ele>820.0</ele><time>2026-04-18T14:37:44.923Z</time></trkpt><trkpt lat="43.5393159" lon="12.3083944"><ele>814.25</ele><time>2026-04-18T14:37:45.924Z</time></trkpt><trkpt lat="43.5392297" lon="12.3083806"><ele>808.5</ele><time>2026-04-18T14:37:46.923Z</time></trkpt><trkpt lat="43.5391316" lon="12.3083575"><ele>802.75</ele><time>2026-04-18T14:37:47.924Z</time></trkpt><trkpt lat="43.5389883" lon="12.3083041"><ele>797.0</ele><time>2026-04-18T14:37:48.924Z</time></trkpt><trkpt lat="43.5388654" lon="12.3082612"><ele>794.5</ele><time>2026-04-18T14:37:49.923Z</time></trkpt><trkpt lat="43.5386937" lon="12.3081721"><ele>792.0</ele><time>2026-04-18T14:37:51.923Z</time></trkpt><trkpt lat="43.538592" lon="12.3081171"><ele>789.5</ele><time>2026-04-18T14:37:52.923Z</time></trkpt><trkpt lat="43.538512" lon="12.3080475"><ele>787.0</ele><time>2026-04-18T14:37:53.924Z</time></trkpt><trkpt lat="43.5384438" lon="12.3079856"><ele>787.0</ele><time>2026-04-18T14:37:54.923Z</time></trkpt><trkpt lat="43.5383694" lon="12.3079475"><ele>787.0</ele><time>2026-04-18T14:37:55.922Z</time></trkpt><trkpt lat="43.5383017" lon="12.3078909"><ele>787.0</ele><time>2026-04-18T14:37:56.923Z</time></trkpt><trkpt lat="43.5382212" lon="12.3078323"><ele>787.0</ele><time>2026-04-18T14:37:59.923Z</time></trkpt><trkpt lat="43.5381217" lon="12.3077827"><ele>787.0</ele><time>2026-04-18T14:38:01.923Z</time></trkpt><trkpt lat="43.5380171" lon="12.3077296"><ele>787.0</ele><time>2026-04-18T14:38:02.924Z</time></trkpt><trkpt lat="43.5379133" lon="12.3076742"><ele>787.0</ele><time>2026-04-18T14:38:03.923Z</time></trkpt><trkpt lat="43.537827" lon="12.3076366"><ele>787.0</ele><time>2026-04-18T14:38:04.923Z</time></trkpt><trkpt lat="43.5377299" lon="12.3075816"><ele>787.0</ele><time>2026-04-18T14:38:06.923Z</time></trkpt><trkpt lat="43.5376497" lon="12.3075015"><ele>787.0</ele><time>2026-04-18T14:38:08.924Z</time></trkpt><trkpt lat="43.5375512" lon="12.3074383"><ele>783.6666666666666</ele><time>2026-04-18T14:38:10.924Z</time></trkpt><trkpt lat="43.537476" lon="12.3073755"><ele>780.3333333333333</ele><time>2026-04-18T14:38:12.924Z</time></trkpt><trkpt lat="43.5373705" lon="12.3073211"><ele>777.0</ele><time>2026-04-18T14:38:14.923Z</time></trkpt><trkpt lat="43.5373025" lon="12.3072595"><ele>773.6666666666666</ele><time>2026-04-18T14:38:16.923Z</time></trkpt><trkpt lat="43.5372101" lon="12.3072089"><ele>770.3333333333333</ele><time>2026-04-18T14:38:18.923Z</time></trkpt><trkpt lat="43.5371478" lon="12.3071869"><ele>767.0</ele><time>2026-04-18T14:38:19.922Z</time></trkpt><trkpt lat="43.5370699" lon="12.3071799"><ele>765.4285714285714</ele><time>2026-04-18T14:38:21.922Z</time></trkpt><trkpt lat="43.5370029" lon="12.3071812"><ele>763.8571428571429</ele><time>2026-04-18T14:38:23.922Z</time></trkpt><trkpt lat="43.5369338" lon="12.307183"><ele>762.2857142857142</ele><time>2026-04-18T14:38:26.923Z</time></trkpt><trkpt lat="43.5368663" lon="12.3071838"><ele>760.7142857142858</ele><time>2026-04-18T14:38:28.923Z</time></trkpt><trkpt lat="43.5367633" lon="12.3071806"><ele>759.1428571428571</ele><time>2026-04-18T14:38:30.923Z</time></trkpt><trkpt lat="43.5366968" lon="12.3071616"><ele>757.5714285714286</ele><time>2026-04-18T14:38:31.922Z</time></trkpt><trkpt lat="43.5366327" lon="12.3071551"><ele>756.0</ele><time>2026-04-18T14:38:32.923Z</time></trkpt><trkpt lat="43.5365286" lon="12.3071357"><ele>756.0</ele><time>2026-04-18T14:38:33.924Z</time></trkpt><trkpt lat="43.5364009" lon="12.3071078"><ele>756.0</ele><time>2026-04-18T14:38:35.924Z</time></trkpt><trkpt lat="43.5363261" lon="12.3070886"><ele>756.0</ele><time>2026-04-18T14:38:36.923Z</time></trkpt><trkpt lat="43.5362586" lon="12.3070534"><ele>756.0</ele><time>2026-04-18T14:38:37.923Z</time></trkpt><trkpt lat="43.5361783" lon="12.3069823"><ele>756.0</ele><time>2026-04-18T14:38:38.923Z</time></trkpt><trkpt lat="43.5360973" lon="12.3069354"><ele>757.0</ele><time>2026-04-18T14:38:39.922Z</time></trkpt><trkpt lat="43.5360279" lon="12.3068931"><ele>758.0</ele><time>2026-04-18T14:38:40.923Z</time></trkpt><trkpt lat="43.535939" lon="12.3068583"><ele>759.0</ele><time>2026-04-18T14:38:41.924Z</time></trkpt><trkpt lat="43.5358661" lon="12.306843"><ele>760.0</ele><time>2026-04-18T14:38:42.924Z</time></trkpt><trkpt lat="43.5357848" lon="12.3067892"><ele>761.0</ele><time>2026-04-18T14:38:44.922Z</time></trkpt><trkpt lat="43.5357016" lon="12.3067075"><ele>762.0</ele><time>2026-04-18T14:38:46.923Z</time></trkpt><trkpt lat="43.5356145" lon="12.3066489"><ele>762.0</ele><time>2026-04-18T14:38:48.924Z</time></trkpt><trkpt lat="43.5355515" lon="12.3066192"><ele>762.0</ele><time>2026-04-18T14:38:52.923Z</time></trkpt><trkpt lat="43.5354622" lon="12.3066245"><ele>762.0</ele><time>2026-04-18T14:38:55.922Z</time></trkpt><trkpt lat="43.5353571" lon="12.3065636"><ele>762.0</ele><time>2026-04-18T14:38:57.923Z</time></trkpt><trkpt lat="43.5352731" lon="12.3064962"><ele>762.0</ele><time>2026-04-18T14:38:59.922Z</time></trkpt><trkpt lat="43.5351996" lon="12.3064484"><ele>762.0</ele><time>2026-04-18T14:39:01.924Z</time></trkpt><trkpt lat="43.5351146" lon="12.3063781"><ele>762.75</ele><time>2026-04-18T14:39:03.922Z</time></trkpt><trkpt lat="43.5349734" lon="12.3062987"><ele>763.5</ele><time>2026-04-18T14:39:05.923Z</time></trkpt><trkpt lat="43.5348878" lon="12.3062301"><ele>764.25</ele><time>2026-04-18T14:39:06.924Z</time></trkpt><trkpt lat="43.5347906" lon="12.3061604"><ele>765.0</ele><time>2026-04-18T14:39:07.923Z</time></trkpt><trkpt lat="43.5346991" lon="12.3061206"><ele>765.0</ele><time>2026-04-18T14:39:08.924Z</time></trkpt><trkpt lat="43.5346316" lon="12.3060808"><ele>765.0</ele><time>2026-04-18T14:39:09.924Z</time></trkpt><trkpt lat="43.5345248" lon="12.306033"><ele>765.0</ele><time>2026-04-18T14:39:11.922Z</time></trkpt><trkpt lat="43.5344628" lon="12.3059688"><ele>765.0</ele><time>2026-04-18T14:39:12.923Z</time></trkpt><trkpt lat="43.5343986" lon="12.3059005"><ele>765.0</ele><time>2026-04-18T14:39:13.923Z</time></trkpt><trkpt lat="43.5342682" lon="12.3058396"><ele>765.0</ele><time>2026-04-18T14:39:15.923Z</time></trkpt><trkpt lat="43.5341813" lon="12.3057595"><ele>765.0</ele><time>2026-04-18T14:39:17.923Z</time></trkpt><trkpt lat="43.5341103" lon="12.3056877"><ele>765.0</ele><time>2026-04-18T14:39:19.924Z</time></trkpt><trkpt lat="43.5340463" lon="12.3056481"><ele>765.0</ele><time>2026-04-18T14:39:20.923Z</time></trkpt><trkpt lat="43.5339843" lon="12.3055865"><ele>765.0</ele><time>2026-04-18T14:39:21.922Z</time></trkpt><trkpt lat="43.5338912" lon="12.3054989"><ele>765.0</ele><time>2026-04-18T14:39:23.924Z</time></trkpt><trkpt lat="43.5338416" lon="12.3054331"><ele>765.0</ele><time>2026-04-18T14:39:24.924Z</time></trkpt><trkpt lat="43.5337296" lon="12.3053098"><ele>765.0</ele><time>2026-04-18T14:39:26.923Z</time></trkpt><trkpt lat="43.5336769" lon="12.3051715"><ele>765.0</ele><time>2026-04-18T14:39:28.923Z</time></trkpt><trkpt lat="43.5335875" lon="12.3050596"><ele>765.0</ele><time>2026-04-18T14:39:30.923Z</time></trkpt><trkpt lat="43.5335378" lon="12.3050052"><ele>763.2</ele><time>2026-04-18T14:39:31.923Z</time></trkpt><trkpt lat="43.5334716" lon="12.3048911"><ele>761.4</ele><time>2026-04-18T14:39:33.922Z</time></trkpt><trkpt lat="43.5334555" lon="12.3047797"><ele>759.5999999999999</ele><time>2026-04-18T14:39:35.923Z</time></trkpt><trkpt lat="43.5334" lon="12.3046402"><ele>757.8</ele><time>2026-04-18T14:39:37.923Z</time></trkpt><trkpt lat="43.5333578" lon="12.3044884"><ele>756.0</ele><time>2026-04-18T14:39:39.923Z</time></trkpt><trkpt lat="43.53328" lon="12.3043835"><ele>755.0</ele><time>2026-04-18T14:39:41.922Z</time></trkpt><trkpt lat="43.533203" lon="12.3042563"><ele>754.0</ele><time>2026-04-18T14:39:43.924Z</time></trkpt><trkpt lat="43.5331346" lon="12.3040921"><ele>753.0</ele><time>2026-04-18T14:39:45.923Z</time></trkpt><trkpt lat="43.5330922" lon="12.3040194"><ele>752.0</ele><time>2026-04-18T14:39:46.922Z</time></trkpt><trkpt lat="43.533051" lon="12.3039505"><ele>751.0</ele><time>2026-04-18T14:39:47.924Z</time></trkpt><trkpt lat="43.5329685" lon="12.3038572"><ele>748.1999999999999</ele><time>2026-04-18T14:39:49.923Z</time></trkpt><trkpt lat="43.5329367" lon="12.3037623"><ele>745.4</ele><time>2026-04-18T14:39:50.923Z</time></trkpt><trkpt lat="43.5329097" lon="12.3036788"><ele>742.6</ele><time>2026-04-18T14:39:51.922Z</time></trkpt><trkpt lat="43.5327803" lon="12.303528"><ele>739.8</ele><time>2026-04-18T14:39:53.923Z</time></trkpt><trkpt lat="43.5327043" lon="12.3034809"><ele>737.0</ele><time>2026-04-18T14:39:54.923Z</time></trkpt><trkpt lat="43.5326401" lon="12.3034162"><ele>737.0</ele><time>2026-04-18T14:39:55.922Z</time></trkpt><trkpt lat="43.5325865" lon="12.3033355"><ele>737.0</ele><time>2026-04-18T14:39:56.923Z</time></trkpt><trkpt lat="43.5325196" lon="12.3032569"><ele>737.0</ele><time>2026-04-18T14:39:57.922Z</time></trkpt><trkpt lat="43.5324525" lon="12.3031883"><ele>737.0</ele><time>2026-04-18T14:39:58.923Z</time></trkpt><trkpt lat="43.5323824" lon="12.3031473"><ele>737.0</ele><time>2026-04-18T14:39:59.924Z</time></trkpt><trkpt lat="43.5323332" lon="12.3030861"><ele>737.0</ele><time>2026-04-18T14:40:00.924Z</time></trkpt><trkpt lat="43.5322745" lon="12.3030253"><ele>735.8</ele><time>2026-04-18T14:40:01.923Z</time></trkpt><trkpt lat="43.5322002" lon="12.3029069"><ele>734.6</ele><time>2026-04-18T14:40:03.923Z</time></trkpt><trkpt lat="43.5321563" lon="12.3028245"><ele>733.4</ele><time>2026-04-18T14:40:05.923Z</time></trkpt><trkpt lat="43.5320547" lon="12.3027806"><ele>732.1999999999999</ele><time>2026-04-18T14:40:07.923Z</time></trkpt><trkpt lat="43.5319903" lon="12.3027182"><ele>731.0</ele><time>2026-04-18T14:40:09.923Z</time></trkpt><trkpt lat="43.5319449" lon="12.3025864"><ele>731.0</ele><time>2026-04-18T14:40:10.922Z</time></trkpt><trkpt lat="43.531891" lon="12.3025263"><ele>731.0</ele><time>2026-04-18T14:40:11.922Z</time></trkpt><trkpt lat="43.5318282" lon="12.3024469"><ele>731.0</ele><time>2026-04-18T14:40:12.924Z</time></trkpt><trkpt lat="43.5317725" lon="12.3023857"><ele>731.0</ele><time>2026-04-18T14:40:13.923Z</time></trkpt><trkpt lat="43.5316763" lon="12.3022932"><ele>731.0</ele><time>2026-04-18T14:40:15.924Z</time></trkpt><trkpt lat="43.5315868" lon="12.3022494"><ele>731.0</ele><time>2026-04-18T14:40:17.922Z</time></trkpt><trkpt lat="43.5315042" lon="12.3021488"><ele>729.5999999999999</ele><time>2026-04-18T14:40:19.922Z</time></trkpt><trkpt lat="43.5314102" lon="12.3020572"><ele>728.2</ele><time>2026-04-18T14:40:21.922Z</time></trkpt><trkpt lat="43.5313383" lon="12.3019548"><ele>726.8</ele><time>2026-04-18T14:40:23.923Z</time></trkpt><trkpt lat="43.5312557" lon="12.3019232"><ele>725.4000000000001</ele><time>2026-04-18T14:40:25.922Z</time></trkpt><trkpt lat="43.5311572" lon="12.3019579"><ele>724.0</ele><time>2026-04-18T14:40:27.922Z</time></trkpt><trkpt lat="43.5310397" lon="12.3019654"><ele>724.0</ele><time>2026-04-18T14:40:29.922Z</time></trkpt><trkpt lat="43.5309303" lon="12.3019658"><ele>724.0</ele><time>2026-04-18T14:40:31.923Z</time></trkpt><trkpt lat="43.5308634" lon="12.3019525"><ele>724.0</ele><time>2026-04-18T14:40:32.923Z</time></trkpt><trkpt lat="43.5307522" lon="12.3018843"><ele>724.0</ele><time>2026-04-18T14:40:34.924Z</time></trkpt><trkpt lat="43.5306411" lon="12.3018701"><ele>724.0</ele><time>2026-04-18T14:40:36.923Z</time></trkpt><trkpt lat="43.530543" lon="12.3018297"><ele>724.0</ele><time>2026-04-18T14:40:38.922Z</time></trkpt><trkpt lat="43.5304739" lon="12.3018132"><ele>724.0</ele><time>2026-04-18T14:40:40.923Z</time></trkpt><trkpt lat="43.5303776" lon="12.3018164"><ele>724.0</ele><time>2026-04-18T14:40:42.923Z</time></trkpt><trkpt lat="43.5303072" lon="12.3017664"><ele>724.0</ele><time>2026-04-18T14:40:43.923Z</time></trkpt><trkpt lat="43.5302341" lon="12.3016963"><ele>724.0</ele><time>2026-04-18T14:40:45.923Z</time></trkpt><trkpt lat="43.5301744" lon="12.301644"><ele>724.0</ele><time>2026-04-18T14:40:46.923Z</time></trkpt><trkpt lat="43.5300693" lon="12.3015761"><ele>723.2</ele><time>2026-04-18T14:40:48.923Z</time></trkpt><trkpt lat="43.5299641" lon="12.3015547"><ele>722.4000000000001</ele><time>2026-04-18T14:40:50.923Z</time></trkpt><trkpt lat="43.5298677" lon="12.3015609"><ele>721.6</ele><time>2026-04-18T14:40:53.923Z</time></trkpt><trkpt lat="43.52975" lon="12.3015704"><ele>720.8</ele><time>2026-04-18T14:40:55.924Z</time></trkpt><trkpt lat="43.5296374" lon="12.3015809"><ele>720.0</ele><time>2026-04-18T14:40:57.922Z</time></trkpt><trkpt lat="43.5295582" lon="12.3015772"><ele>719.6</ele><time>2026-04-18T14:40:58.923Z</time></trkpt><trkpt lat="43.5294634" lon="12.3015668"><ele>719.2</ele><time>2026-04-18T14:40:59.924Z</time></trkpt><trkpt lat="43.5292932" lon="12.3015094"><ele>718.8</ele><time>2026-04-18T14:41:00.922Z</time></trkpt><trkpt lat="43.529185" lon="12.3014736"><ele>718.4</ele><time>2026-04-18T14:41:02.923Z</time></trkpt><trkpt lat="43.529124" lon="12.3014341"><ele>718.0</ele><time>2026-04-18T14:41:04.921Z</time></trkpt><trkpt lat="43.5290755" lon="12.3013594"><ele>718.0</ele><time>2026-04-18T14:41:06.921Z</time></trkpt><trkpt lat="43.5290324" lon="12.3011809"><ele>718.0</ele><time>2026-04-18T14:41:08.922Z</time></trkpt><trkpt lat="43.5289932" lon="12.3011025"><ele>718.0</ele><time>2026-04-18T14:41:09.921Z</time></trkpt><trkpt lat="43.5289434" lon="12.3009854"><ele>718.0</ele><time>2026-04-18T14:41:11.923Z</time></trkpt><trkpt lat="43.528903" lon="12.3009112"><ele>718.0</ele><time>2026-04-18T14:41:12.922Z</time></trkpt><trkpt lat="43.5288365" lon="12.3007741"><ele>718.0</ele><time>2026-04-18T14:41:14.922Z</time></trkpt><trkpt lat="43.528799" lon="12.3006994"><ele>718.0</ele><time>2026-04-18T14:41:15.923Z</time></trkpt><trkpt lat="43.5287683" lon="12.3005995"><ele>718.0</ele><time>2026-04-18T14:41:16.922Z</time></trkpt><trkpt lat="43.528741" lon="12.3005173"><ele>718.0</ele><time>2026-04-18T14:41:17.921Z</time></trkpt><trkpt lat="43.5286952" lon="12.3003951"><ele>718.0</ele><time>2026-04-18T14:41:18.921Z</time></trkpt><trkpt lat="43.5286542" lon="12.3003276"><ele>718.0</ele><time>2026-04-18T14:41:19.922Z</time></trkpt><trkpt lat="43.5286274" lon="12.3002136"><ele>716.1666666666667</ele><time>2026-04-18T14:41:20.922Z</time></trkpt><trkpt lat="43.5286086" lon="12.3001104"><ele>714.3333333333334</ele><time>2026-04-18T14:41:21.922Z</time></trkpt><trkpt lat="43.5285804" lon="12.3000077"><ele>712.5</ele><time>2026-04-18T14:41:22.923Z</time></trkpt><trkpt lat="43.5285514" lon="12.2999098"><ele>710.6666666666666</ele><time>2026-04-18T14:41:23.921Z</time></trkpt><trkpt lat="43.528515" lon="12.2998153"><ele>708.8333333333333</ele><time>2026-04-18T14:41:24.921Z</time></trkpt><trkpt lat="43.5284675" lon="12.299726"><ele>707.0</ele><time>2026-04-18T14:41:26.921Z</time></trkpt><trkpt lat="43.5283926" lon="12.299655"><ele>707.0</ele><time>2026-04-18T14:41:28.922Z</time></trkpt><trkpt lat="43.5283085" lon="12.2995754"><ele>707.0</ele><time>2026-04-18T14:41:30.922Z</time></trkpt><trkpt lat="43.5282402" lon="12.2995584"><ele>707.0</ele><time>2026-04-18T14:41:31.923Z</time></trkpt><trkpt lat="43.5282084" lon="12.299477"><ele>707.0</ele><time>2026-04-18T14:41:32.922Z</time></trkpt><trkpt lat="43.5281487" lon="12.2994048"><ele>707.0</ele><time>2026-04-18T14:41:33.923Z</time></trkpt><trkpt lat="43.5280852" lon="12.2993347"><ele>707.0</ele><time>2026-04-18T14:41:34.921Z</time></trkpt><trkpt lat="43.5280362" lon="12.2992604"><ele>707.0</ele><time>2026-04-18T14:41:35.923Z</time></trkpt><trkpt lat="43.5279834" lon="12.2991909"><ele>707.0</ele><time>2026-04-18T14:41:36.923Z</time></trkpt><trkpt lat="43.5278921" lon="12.2990561"><ele>707.0</ele><time>2026-04-18T14:41:38.922Z</time></trkpt><trkpt lat="43.5278085" lon="12.2989256"><ele>707.0</ele><time>2026-04-18T14:41:40.923Z</time></trkpt><trkpt lat="43.5277518" lon="12.2987937"><ele>707.0</ele><time>2026-04-18T14:41:42.922Z</time></trkpt><trkpt lat="43.5276541" lon="12.298731"><ele>703.5</ele><time>2026-04-18T14:41:44.922Z</time></trkpt><trkpt lat="43.5275787" lon="12.2986592"><ele>700.0</ele><time>2026-04-18T14:41:46.922Z</time></trkpt><trkpt lat="43.5275064" lon="12.2986392"><ele>696.5</ele><time>2026-04-18T14:41:47.922Z</time></trkpt><trkpt lat="43.5274429" lon="12.2985376"><ele>693.0</ele><time>2026-04-18T14:41:49.923Z</time></trkpt><trkpt lat="43.5274442" lon="12.2984261"><ele>689.5</ele><time>2026-04-18T14:41:51.922Z</time></trkpt><trkpt lat="43.5274624" lon="12.2982903"><ele>686.0</ele><time>2026-04-18T14:41:52.921Z</time></trkpt><trkpt lat="43.527445" lon="12.2981948"><ele>685.5999999999999</ele><time>2026-04-18T14:41:54.922Z</time></trkpt><trkpt lat="43.5274464" lon="12.2980428"><ele>685.2</ele><time>2026-04-18T14:41:56.922Z</time></trkpt><trkpt lat="43.5274411" lon="12.2978832"><ele>684.8</ele><time>2026-04-18T14:41:58.921Z</time></trkpt><trkpt lat="43.5274271" lon="12.2977921"><ele>684.4000000000001</ele><time>2026-04-18T14:41:59.921Z</time></trkpt><trkpt lat="43.5273837" lon="12.29767"><ele>684.0</ele><time>2026-04-18T14:42:01.922Z</time></trkpt><trkpt lat="43.5273668" lon="12.2975699"><ele>684.0</ele><time>2026-04-18T14:42:02.921Z</time></trkpt><trkpt lat="43.5273446" lon="12.297402"><ele>684.0</ele><time>2026-04-18T14:42:04.922Z</time></trkpt><trkpt lat="43.5273341" lon="12.297308"><ele>684.0</ele><time>2026-04-18T14:42:05.922Z</time></trkpt><trkpt lat="43.5273135" lon="12.2971858"><ele>684.0</ele><time>2026-04-18T14:42:07.921Z</time></trkpt><trkpt lat="43.527296" lon="12.2970315"><ele>684.0</ele><time>2026-04-18T14:42:09.921Z</time></trkpt><trkpt lat="43.5272999" lon="12.2968529"><ele>682.3333333333334</ele><time>2026-04-18T14:42:11.923Z</time></trkpt><trkpt lat="43.527296" lon="12.296736"><ele>680.6666666666666</ele><time>2026-04-18T14:42:12.922Z</time></trkpt><trkpt lat="43.5272887" lon="12.2966371"><ele>679.0</ele><time>2026-04-18T14:42:13.921Z</time></trkpt><trkpt lat="43.5272902" lon="12.2965482"><ele>677.3333333333333</ele><time>2026-04-18T14:42:14.921Z</time></trkpt><trkpt lat="43.5272804" lon="12.2964364"><ele>675.6666666666666</ele><time>2026-04-18T14:42:15.922Z</time></trkpt><trkpt lat="43.5272648" lon="12.2962699"><ele>674.0</ele><time>2026-04-18T14:42:17.921Z</time></trkpt><trkpt lat="43.5272631" lon="12.2961631"><ele>672.6</ele><time>2026-04-18T14:42:18.922Z</time></trkpt><trkpt lat="43.5272674" lon="12.2960446"><ele>671.2</ele><time>2026-04-18T14:42:19.921Z</time></trkpt><trkpt lat="43.5272732" lon="12.2959161"><ele>669.8000000000001</ele><time>2026-04-18T14:42:20.923Z</time></trkpt><trkpt lat="43.5272745" lon="12.2958057"><ele>668.4000000000001</ele><time>2026-04-18T14:42:21.923Z</time></trkpt><trkpt lat="43.52729" lon="12.2956509"><ele>667.0</ele><time>2026-04-18T14:42:23.922Z</time></trkpt><trkpt lat="43.5273064" lon="12.2955367"><ele>665.4000000000001</ele><time>2026-04-18T14:42:25.922Z</time></trkpt><trkpt lat="43.5273106" lon="12.2953869"><ele>663.8000000000001</ele><time>2026-04-18T14:42:27.922Z</time></trkpt><trkpt lat="43.5273062" lon="12.2952616"><ele>662.2</ele><time>2026-04-18T14:42:29.922Z</time></trkpt><trkpt lat="43.5272815" lon="12.2951025"><ele>660.6</ele><time>2026-04-18T14:42:31.922Z</time></trkpt><trkpt lat="43.5272526" lon="12.2950195"><ele>659.0</ele><time>2026-04-18T14:42:32.922Z</time></trkpt><trkpt lat="43.5272005" lon="12.2948239"><ele>656.6666666666666</ele><time>2026-04-18T14:42:34.923Z</time></trkpt><trkpt lat="43.5271694" lon="12.2947203"><ele>654.3333333333333</ele><time>2026-04-18T14:42:35.922Z</time></trkpt><trkpt lat="43.5271336" lon="12.2946084"><ele>652.0</ele><time>2026-04-18T14:42:36.921Z</time></trkpt><trkpt lat="43.5270946" lon="12.2944941"><ele>649.6666666666666</ele><time>2026-04-18T14:42:37.922Z</time></trkpt><trkpt lat="43.5270701" lon="12.2943783"><ele>647.3333333333334</ele><time>2026-04-18T14:42:38.921Z</time></trkpt><trkpt lat="43.5270373" lon="12.2942662"><ele>645.0</ele><time>2026-04-18T14:42:39.921Z</time></trkpt><trkpt lat="43.5269934" lon="12.2941879"><ele>645.0</ele><time>2026-04-18T14:42:40.922Z</time></trkpt><trkpt lat="43.5269605" lon="12.2940877"><ele>645.0</ele><time>2026-04-18T14:42:41.922Z</time></trkpt><trkpt lat="43.5269024" lon="12.2939668"><ele>645.0</ele><time>2026-04-18T14:42:42.921Z</time></trkpt><trkpt lat="43.5268702" lon="12.2938729"><ele>645.0</ele><time>2026-04-18T14:42:43.922Z</time></trkpt><trkpt lat="43.5268371" lon="12.2937736"><ele>645.0</ele><time>2026-04-18T14:42:44.921Z</time></trkpt><trkpt lat="43.5268049" lon="12.2936616"><ele>645.0</ele><time>2026-04-18T14:42:45.923Z</time></trkpt><trkpt lat="43.5267705" lon="12.2935537"><ele>643.6666666666666</ele><time>2026-04-18T14:42:46.922Z</time></trkpt><trkpt lat="43.5267446" lon="12.2934597"><ele>642.3333333333334</ele><time>2026-04-18T14:42:47.922Z</time></trkpt><trkpt lat="43.5267104" lon="12.2933756"><ele>641.0</ele><time>2026-04-18T14:42:48.922Z</time></trkpt><trkpt lat="43.526679" lon="12.293289"><ele>639.6666666666667</ele><time>2026-04-18T14:42:49.922Z</time></trkpt><trkpt lat="43.5266284" lon="12.2931959"><ele>638.3333333333334</ele><time>2026-04-18T14:42:50.921Z</time></trkpt><trkpt lat="43.5266016" lon="12.2930983"><ele>637.0</ele><time>2026-04-18T14:42:51.922Z</time></trkpt><trkpt lat="43.526588" lon="12.2929899"><ele>636.1666666666667</ele><time>2026-04-18T14:42:52.921Z</time></trkpt><trkpt lat="43.526573" lon="12.2928864"><ele>635.3333333333334</ele><time>2026-04-18T14:42:53.922Z</time></trkpt><trkpt lat="43.5265646" lon="12.2927723"><ele>634.5</ele><time>2026-04-18T14:42:54.922Z</time></trkpt><trkpt lat="43.5265412" lon="12.292652"><ele>633.6666666666666</ele><time>2026-04-18T14:42:55.922Z</time></trkpt><trkpt lat="43.5265189" lon="12.2925095"><ele>632.8333333333333</ele><time>2026-04-18T14:42:56.923Z</time></trkpt><trkpt lat="43.5265078" lon="12.2923906"><ele>632.0</ele><time>2026-04-18T14:42:57.923Z</time></trkpt><trkpt lat="43.5265059" lon="12.2922757"><ele>633.2</ele><time>2026-04-18T14:42:58.923Z</time></trkpt><trkpt lat="43.5264996" lon="12.2921564"><ele>634.4000000000001</ele><time>2026-04-18T14:42:59.922Z</time></trkpt><trkpt lat="43.5265026" lon="12.2920198"><ele>635.5999999999999</ele><time>2026-04-18T14:43:00.921Z</time></trkpt><trkpt lat="43.5264952" lon="12.2918642"><ele>636.8</ele><time>2026-04-18T14:43:01.921Z</time></trkpt><trkpt lat="43.526501" lon="12.2917413"><ele>638.0</ele><time>2026-04-18T14:43:02.923Z</time></trkpt><trkpt lat="43.5265234" lon="12.2916361"><ele>638.0</ele><time>2026-04-18T14:43:03.921Z</time></trkpt><trkpt lat="43.5265526" lon="12.2915554"><ele>638.0</ele><time>2026-04-18T14:43:04.922Z</time></trkpt><trkpt lat="43.5265875" lon="12.2914819"><ele>638.0</ele><time>2026-04-18T14:43:05.922Z</time></trkpt><trkpt lat="43.5266359" lon="12.2914216"><ele>638.0</ele><time>2026-04-18T14:43:06.922Z</time></trkpt><trkpt lat="43.5267209" lon="12.2913029"><ele>638.0</ele><time>2026-04-18T14:43:08.922Z</time></trkpt><trkpt lat="43.5267514" lon="12.2912167"><ele>638.0</ele><time>2026-04-18T14:43:09.921Z</time></trkpt><trkpt lat="43.5267793" lon="12.2911353"><ele>638.3333333333333</ele><time>2026-04-18T14:43:10.922Z</time></trkpt><trkpt lat="43.5268121" lon="12.2910339"><ele>638.6666666666666</ele><time>2026-04-18T14:43:11.921Z</time></trkpt><trkpt lat="43.5267955" lon="12.2908894"><ele>639.0</ele><time>2026-04-18T14:43:13.921Z</time></trkpt><trkpt lat="43.5267881" lon="12.2907946"><ele>639.3333333333334</ele><time>2026-04-18T14:43:14.922Z</time></trkpt><trkpt lat="43.5267595" lon="12.2906978"><ele>639.6666666666667</ele><time>2026-04-18T14:43:15.923Z</time></trkpt><trkpt lat="43.5267248" lon="12.2905959"><ele>640.0</ele><time>2026-04-18T14:43:16.922Z</time></trkpt><trkpt lat="43.5266946" lon="12.2904946"><ele>639.3333333333334</ele><time>2026-04-18T14:43:17.921Z</time></trkpt><trkpt lat="43.5266701" lon="12.2903658"><ele>638.6666666666667</ele><time>2026-04-18T14:43:18.921Z</time></trkpt><trkpt lat="43.5266329" lon="12.2902359"><ele>638.0</ele><time>2026-04-18T14:43:19.922Z</time></trkpt><trkpt lat="43.5266243" lon="12.2901349"><ele>637.3333333333334</ele><time>2026-04-18T14:43:20.923Z</time></trkpt><trkpt lat="43.5266206" lon="12.2900386"><ele>636.6666666666666</ele><time>2026-04-18T14:43:21.922Z</time></trkpt><trkpt lat="43.5266216" lon="12.2899382"><ele>636.0</ele><time>2026-04-18T14:43:22.922Z</time></trkpt><trkpt lat="43.5266764" lon="12.2898162"><ele>635.1666666666666</ele><time>2026-04-18T14:43:24.922Z</time></trkpt><trkpt lat="43.5267562" lon="12.2897015"><ele>634.3333333333334</ele><time>2026-04-18T14:43:26.922Z</time></trkpt><trkpt lat="43.5268378" lon="12.2896624"><ele>633.5</ele><time>2026-04-18T14:43:27.923Z</time></trkpt><trkpt lat="43.5268925" lon="12.2896145"><ele>632.6666666666667</ele><time>2026-04-18T14:43:28.922Z</time></trkpt><trkpt lat="43.5269675" lon="12.2895775"><ele>631.8333333333334</ele><time>2026-04-18T14:43:29.923Z</time></trkpt><trkpt lat="43.5270449" lon="12.2895031"><ele>631.0</ele><time>2026-04-18T14:43:30.921Z</time></trkpt><trkpt lat="43.5270921" lon="12.2894368"><ele>631.0</ele><time>2026-04-18T14:43:31.922Z</time></trkpt><trkpt lat="43.527129" lon="12.2893553"><ele>631.0</ele><time>2026-04-18T14:43:32.922Z</time></trkpt><trkpt lat="43.5271449" lon="12.2892613"><ele>631.0</ele><time>2026-04-18T14:43:33.923Z</time></trkpt><trkpt lat="43.5271735" lon="12.289182"><ele>631.0</ele><time>2026-04-18T14:43:34.921Z</time></trkpt><trkpt lat="43.5272" lon="12.2890939"><ele>631.0</ele><time>2026-04-18T14:43:35.922Z</time></trkpt><trkpt lat="43.5271872" lon="12.2889154"><ele>631.0</ele><time>2026-04-18T14:43:37.923Z</time></trkpt><trkpt lat="43.5271839" lon="12.2888129"><ele>629.0</ele><time>2026-04-18T14:43:38.922Z</time></trkpt><trkpt lat="43.5271426" lon="12.2886256"><ele>627.0</ele><time>2026-04-18T14:43:40.921Z</time></trkpt><trkpt lat="43.5271238" lon="12.2885306"><ele>625.0</ele><time>2026-04-18T14:43:41.923Z</time></trkpt><trkpt lat="43.5270664" lon="12.2883608"><ele>623.0</ele><time>2026-04-18T14:43:43.921Z</time></trkpt><trkpt lat="43.5270135" lon="12.2882013"><ele>622.8</ele><time>2026-04-18T14:43:45.921Z</time></trkpt><trkpt lat="43.5269097" lon="12.2880996"><ele>622.5999999999999</ele><time>2026-04-18T14:43:47.922Z</time></trkpt><trkpt lat="43.5268125" lon="12.2880217"><ele>622.4000000000001</ele><time>2026-04-18T14:43:49.921Z</time></trkpt><trkpt lat="43.5267628" lon="12.2879649"><ele>622.2</ele><time>2026-04-18T14:43:50.922Z</time></trkpt><trkpt lat="43.5267" lon="12.287911"><ele>622.0</ele><time>2026-04-18T14:43:51.923Z</time></trkpt><trkpt lat="43.5266171" lon="12.2878136"><ele>622.0</ele><time>2026-04-18T14:43:53.921Z</time></trkpt><trkpt lat="43.5265591" lon="12.2877619"><ele>622.0</ele><time>2026-04-18T14:43:54.922Z</time></trkpt><trkpt lat="43.5264627" lon="12.2876829"><ele>622.0</ele><time>2026-04-18T14:43:56.922Z</time></trkpt><trkpt lat="43.5263849" lon="12.2876198"><ele>622.0</ele><time>2026-04-18T14:43:58.922Z</time></trkpt><trkpt lat="43.5262756" lon="12.2875759"><ele>622.0</ele><time>2026-04-18T14:44:00.923Z</time></trkpt><trkpt lat="43.5262101" lon="12.287552"><ele>617.6</ele><time>2026-04-18T14:44:02.922Z</time></trkpt><trkpt lat="43.5260928" lon="12.2875184"><ele>613.2</ele><time>2026-04-18T14:44:04.921Z</time></trkpt><trkpt lat="43.5260068" lon="12.2874657"><ele>608.8</ele><time>2026-04-18T14:44:07.921Z</time></trkpt><trkpt lat="43.5259388" lon="12.287458"><ele>604.4</ele><time>2026-04-18T14:44:08.922Z</time></trkpt><trkpt lat="43.5258603" lon="12.2874296"><ele>600.0</ele><time>2026-04-18T14:44:09.921Z</time></trkpt><trkpt lat="43.5257154" lon="12.2874068"><ele>600.0</ele><time>2026-04-18T14:44:11.921Z</time></trkpt><trkpt lat="43.5256343" lon="12.2873618"><ele>600.0</ele><time>2026-04-18T14:44:13.923Z</time></trkpt><trkpt lat="43.5255147" lon="12.2872922"><ele>600.0</ele><time>2026-04-18T14:44:15.921Z</time></trkpt><trkpt lat="43.5254317" lon="12.2872656"><ele>600.0</ele><time>2026-04-18T14:44:17.921Z</time></trkpt><trkpt lat="43.5253682" lon="12.287266"><ele>600.0</ele><time>2026-04-18T14:44:19.922Z</time></trkpt><trkpt lat="43.5252663" lon="12.2872432"><ele>595.6</ele><time>2026-04-18T14:44:21.922Z</time></trkpt><trkpt lat="43.5252034" lon="12.2871674"><ele>591.2</ele><time>2026-04-18T14:44:23.922Z</time></trkpt><trkpt lat="43.5251451" lon="12.28707"><ele>586.8</ele><time>2026-04-18T14:44:25.921Z</time></trkpt><trkpt lat="43.5250437" lon="12.2869653"><ele>582.4</ele><time>2026-04-18T14:44:27.921Z</time></trkpt><trkpt lat="43.5249871" lon="12.2869195"><ele>578.0</ele><time>2026-04-18T14:44:28.922Z</time></trkpt><trkpt lat="43.5248809" lon="12.2868178"><ele>578.0</ele><time>2026-04-18T14:44:30.922Z</time></trkpt><trkpt lat="43.524799" lon="12.28671"><ele>578.0</ele><time>2026-04-18T14:44:32.922Z</time></trkpt><trkpt lat="43.5247633" lon="12.2866295"><ele>578.0</ele><time>2026-04-18T14:44:33.922Z</time></trkpt><trkpt lat="43.5247322" lon="12.2865478"><ele>578.0</ele><time>2026-04-18T14:44:34.921Z</time></trkpt><trkpt lat="43.5246977" lon="12.2864653"><ele>578.0</ele><time>2026-04-18T14:44:35.922Z</time></trkpt><trkpt lat="43.5246626" lon="12.2863736"><ele>578.0</ele><time>2026-04-18T14:44:36.923Z</time></trkpt><trkpt lat="43.5246307" lon="12.2862787"><ele>578.5</ele><time>2026-04-18T14:44:37.923Z</time></trkpt><trkpt lat="43.5245924" lon="12.2861991"><ele>579.0</ele><time>2026-04-18T14:44:38.922Z</time></trkpt><trkpt lat="43.5245569" lon="12.2861244"><ele>579.5</ele><time>2026-04-18T14:44:39.922Z</time></trkpt><trkpt lat="43.5245147" lon="12.2860491"><ele>580.0</ele><time>2026-04-18T14:44:40.923Z</time></trkpt><trkpt lat="43.5244504" lon="12.2859609"><ele>580.5</ele><time>2026-04-18T14:44:41.923Z</time></trkpt><trkpt lat="43.5243967" lon="12.2858828"><ele>581.0</ele><time>2026-04-18T14:44:42.923Z</time></trkpt><trkpt lat="43.5243335" lon="12.2857928"><ele>578.1666666666666</ele><time>2026-04-18T14:44:43.921Z</time></trkpt><trkpt lat="43.5242807" lon="12.2857061"><ele>575.3333333333333</ele><time>2026-04-18T14:44:44.922Z</time></trkpt><trkpt lat="43.5242309" lon="12.2856244"><ele>572.5</ele><time>2026-04-18T14:44:45.921Z</time></trkpt><trkpt lat="43.5241834" lon="12.2855498"><ele>569.6666666666666</ele><time>2026-04-18T14:44:46.922Z</time></trkpt><trkpt lat="43.5241298" lon="12.2854771"><ele>566.8333333333334</ele><time>2026-04-18T14:44:47.921Z</time></trkpt><trkpt lat="43.5240757" lon="12.2853956"><ele>564.0</ele><time>2026-04-18T14:44:48.921Z</time></trkpt><trkpt lat="43.5240267" lon="12.2853193"><ele>564.0</ele><time>2026-04-18T14:44:49.922Z</time></trkpt><trkpt lat="43.5239509" lon="12.2851806"><ele>564.0</ele><time>2026-04-18T14:44:51.923Z</time></trkpt><trkpt lat="43.5239144" lon="12.2850956"><ele>564.0</ele><time>2026-04-18T14:44:52.922Z</time></trkpt><trkpt lat="43.523874" lon="12.285026"><ele>564.0</ele><time>2026-04-18T14:44:53.922Z</time></trkpt><trkpt lat="43.5238084" lon="12.2849657"><ele>564.0</ele><time>2026-04-18T14:44:54.922Z</time></trkpt><trkpt lat="43.5237481" lon="12.2848955"><ele>564.0</ele><time>2026-04-18T14:44:55.922Z</time></trkpt><trkpt lat="43.5236886" lon="12.2848243"><ele>562.4</ele><time>2026-04-18T14:44:56.921Z</time></trkpt><trkpt lat="43.5236129" lon="12.2847415"><ele>560.8</ele><time>2026-04-18T14:44:57.923Z</time></trkpt><trkpt lat="43.5235376" lon="12.2846642"><ele>559.2</ele><time>2026-04-18T14:44:58.923Z</time></trkpt><trkpt lat="43.523454" lon="12.2845798"><ele>557.6</ele><time>2026-04-18T14:44:59.922Z</time></trkpt><trkpt lat="43.5233665" lon="12.284488"><ele>556.0</ele><time>2026-04-18T14:45:00.922Z</time></trkpt><trkpt lat="43.5232777" lon="12.2843949"><ele>556.0</ele><time>2026-04-18T14:45:01.922Z</time></trkpt><trkpt lat="43.5231919" lon="12.2842988"><ele>556.0</ele><time>2026-04-18T14:45:02.922Z</time></trkpt><trkpt lat="43.5230945" lon="12.284199"><ele>556.0</ele><time>2026-04-18T14:45:03.922Z</time></trkpt><trkpt lat="43.5229989" lon="12.2840968"><ele>556.0</ele><time>2026-04-18T14:45:04.922Z</time></trkpt><trkpt lat="43.5229006" lon="12.2839965"><ele>556.25</ele><time>2026-04-18T14:45:05.922Z</time></trkpt><trkpt lat="43.5228032" lon="12.283895"><ele>556.5</ele><time>2026-04-18T14:45:06.922Z</time></trkpt><trkpt lat="43.5227104" lon="12.2837875"><ele>556.75</ele><time>2026-04-18T14:45:07.922Z</time></trkpt><trkpt lat="43.5226138" lon="12.2836798"><ele>557.0</ele><time>2026-04-18T14:45:08.922Z</time></trkpt><trkpt lat="43.5225154" lon="12.2835741"><ele>557.0</ele><time>2026-04-18T14:45:09.921Z</time></trkpt><trkpt lat="43.5224156" lon="12.2834741"><ele>557.0</ele><time>2026-04-18T14:45:10.922Z</time></trkpt><trkpt lat="43.5223225" lon="12.2833792"><ele>557.0</ele><time>2026-04-18T14:45:11.922Z</time></trkpt><trkpt lat="43.5222343" lon="12.283283"><ele>557.0</ele><time>2026-04-18T14:45:12.923Z</time></trkpt><trkpt lat="43.5221494" lon="12.2831879"><ele>556.75</ele><time>2026-04-18T14:45:13.921Z</time></trkpt><trkpt lat="43.5220549" lon="12.2830931"><ele>556.5</ele><time>2026-04-18T14:45:14.922Z</time></trkpt><trkpt lat="43.5219612" lon="12.282998"><ele>556.25</ele><time>2026-04-18T14:45:15.923Z</time></trkpt><trkpt lat="43.5218717" lon="12.2828941"><ele>556.0</ele><time>2026-04-18T14:45:16.922Z</time></trkpt><trkpt lat="43.5217837" lon="12.2827901"><ele>556.0</ele><time>2026-04-18T14:45:17.922Z</time></trkpt><trkpt lat="43.5216965" lon="12.2826833"><ele>556.0</ele><time>2026-04-18T14:45:18.923Z</time></trkpt><trkpt lat="43.5216125" lon="12.2825717"><ele>556.0</ele><time>2026-04-18T14:45:19.923Z</time></trkpt><trkpt lat="43.5215238" lon="12.2824672"><ele>556.0</ele><time>2026-04-18T14:45:20.922Z</time></trkpt><trkpt lat="43.5214359" lon="12.2823693"><ele>556.0</ele><time>2026-04-18T14:45:21.922Z</time></trkpt><trkpt lat="43.5213468" lon="12.2822762"><ele>556.0</ele><time>2026-04-18T14:45:22.922Z</time></trkpt><trkpt lat="43.5212581" lon="12.2821776"><ele>556.0</ele><time>2026-04-18T14:45:23.923Z</time></trkpt><trkpt lat="43.5211657" lon="12.2820843"><ele>556.0</ele><time>2026-04-18T14:45:24.922Z</time></trkpt><trkpt lat="43.5210719" lon="12.2819973"><ele>555.25</ele><time>2026-04-18T14:45:25.923Z</time></trkpt><trkpt lat="43.5209667" lon="12.2819123"><ele>554.5</ele><time>2026-04-18T14:45:26.921Z</time></trkpt><trkpt lat="43.5208694" lon="12.2818312"><ele>553.75</ele><time>2026-04-18T14:45:27.923Z</time></trkpt><trkpt lat="43.5207756" lon="12.2817475"><ele>553.0</ele><time>2026-04-18T14:45:28.923Z</time></trkpt><trkpt lat="43.5206939" lon="12.2816591"><ele>553.0</ele><time>2026-04-18T14:45:29.923Z</time></trkpt><trkpt lat="43.5206149" lon="12.2815723"><ele>553.0</ele><time>2026-04-18T14:45:30.922Z</time></trkpt><trkpt lat="43.5205381" lon="12.2814845"><ele>553.0</ele><time>2026-04-18T14:45:31.923Z</time></trkpt><trkpt lat="43.5204572" lon="12.281407"><ele>553.0</ele><time>2026-04-18T14:45:32.923Z</time></trkpt><trkpt lat="43.5203753" lon="12.2813303"><ele>553.0</ele><time>2026-04-18T14:45:33.922Z</time></trkpt><trkpt lat="43.5202966" lon="12.2812621"><ele>552.4</ele><time>2026-04-18T14:45:34.922Z</time></trkpt><trkpt lat="43.520228" lon="12.2811747"><ele>551.8</ele><time>2026-04-18T14:45:35.923Z</time></trkpt><trkpt lat="43.5201677" lon="12.2810778"><ele>551.2</ele><time>2026-04-18T14:45:36.922Z</time></trkpt><trkpt lat="43.5201111" lon="12.2809952"><ele>550.6</ele><time>2026-04-18T14:45:37.922Z</time></trkpt><trkpt lat="43.5200466" lon="12.280898"><ele>550.0</ele><time>2026-04-18T14:45:39.923Z</time></trkpt><trkpt lat="43.5199677" lon="12.2808076"><ele>550.0</ele><time>2026-04-18T14:45:42.922Z</time></trkpt><trkpt lat="43.519896" lon="12.28068"><ele>550.0</ele><time>2026-04-18T14:45:44.922Z</time></trkpt><trkpt lat="43.5198491" lon="12.280617"><ele>550.0</ele><time>2026-04-18T14:45:45.922Z</time></trkpt><trkpt lat="43.5197679" lon="12.2805626"><ele>550.0</ele><time>2026-04-18T14:45:47.921Z</time></trkpt><trkpt lat="43.5196964" lon="12.2804845"><ele>550.0</ele><time>2026-04-18T14:45:49.922Z</time></trkpt><trkpt lat="43.5196588" lon="12.2803923"><ele>550.0</ele><time>2026-04-18T14:45:50.923Z</time></trkpt><trkpt lat="43.5196403" lon="12.2802973"><ele>549.6</ele><time>2026-04-18T14:45:53.921Z</time></trkpt><trkpt lat="43.5196063" lon="12.2801545"><ele>549.2</ele><time>2026-04-18T14:45:56.922Z</time></trkpt><trkpt lat="43.5195614" lon="12.2800151"><ele>548.8</ele><time>2026-04-18T14:45:58.922Z</time></trkpt><trkpt lat="43.5195079" lon="12.2798771"><ele>548.4</ele><time>2026-04-18T14:46:00.922Z</time></trkpt><trkpt lat="43.5194848" lon="12.27978"><ele>548.0</ele><time>2026-04-18T14:46:01.921Z</time></trkpt><trkpt lat="43.5194425" lon="12.279611"><ele>546.0</ele><time>2026-04-18T14:46:03.922Z</time></trkpt><trkpt lat="43.5194256" lon="12.2794278"><ele>544.0</ele><time>2026-04-18T14:46:05.923Z</time></trkpt><trkpt lat="43.5193706" lon="12.2792845"><ele>542.0</ele><time>2026-04-18T14:46:07.923Z</time></trkpt><trkpt lat="43.5193189" lon="12.2792344"><ele>540.0</ele><time>2026-04-18T14:46:08.921Z</time></trkpt><trkpt lat="43.5192485" lon="12.2791512"><ele>538.0</ele><time>2026-04-18T14:46:09.923Z</time></trkpt><trkpt lat="43.5191953" lon="12.2790903"><ele>538.0</ele><time>2026-04-18T14:46:10.923Z</time></trkpt><trkpt lat="43.519146" lon="12.2790262"><ele>538.0</ele><time>2026-04-18T14:46:11.922Z</time></trkpt><trkpt lat="43.5190811" lon="12.2789458"><ele>538.0</ele><time>2026-04-18T14:46:12.922Z</time></trkpt><trkpt lat="43.5190129" lon="12.2788748"><ele>538.0</ele><time>2026-04-18T14:46:13.923Z</time></trkpt><trkpt lat="43.5189587" lon="12.2788085"><ele>538.0</ele><time>2026-04-18T14:46:14.921Z</time></trkpt><trkpt lat="43.5188942" lon="12.2787441"><ele>538.0</ele><time>2026-04-18T14:46:15.923Z</time></trkpt><trkpt lat="43.5188412" lon="12.2786658"><ele>538.5</ele><time>2026-04-18T14:46:16.921Z</time></trkpt><trkpt lat="43.5187918" lon="12.2785846"><ele>539.0</ele><time>2026-04-18T14:46:17.922Z</time></trkpt><trkpt lat="43.5187419" lon="12.2784799"><ele>539.5</ele><time>2026-04-18T14:46:18.922Z</time></trkpt><trkpt lat="43.5187512" lon="12.2783606"><ele>540.0</ele><time>2026-04-18T14:46:19.922Z</time></trkpt><trkpt lat="43.5187621" lon="12.2782458"><ele>540.5</ele><time>2026-04-18T14:46:20.922Z</time></trkpt><trkpt lat="43.518773" lon="12.2781289"><ele>541.0</ele><time>2026-04-18T14:46:21.922Z</time></trkpt><trkpt lat="43.5187988" lon="12.2780237"><ele>542.6</ele><time>2026-04-18T14:46:22.921Z</time></trkpt><trkpt lat="43.5188336" lon="12.2779297"><ele>544.2</ele><time>2026-04-18T14:46:23.922Z</time></trkpt><trkpt lat="43.5188868" lon="12.277853"><ele>545.8</ele><time>2026-04-18T14:46:24.923Z</time></trkpt><trkpt lat="43.5190149" lon="12.2776692"><ele>547.4</ele><time>2026-04-18T14:46:26.922Z</time></trkpt><trkpt lat="43.5190528" lon="12.2775762"><ele>549.0</ele><time>2026-04-18T14:46:27.922Z</time></trkpt><trkpt lat="43.5190696" lon="12.2774799"><ele>549.0</ele><time>2026-04-18T14:46:28.923Z</time></trkpt><trkpt lat="43.5190802" lon="12.2773887"><ele>549.0</ele><time>2026-04-18T14:46:29.921Z</time></trkpt><trkpt lat="43.5190793" lon="12.2772902"><ele>549.0</ele><time>2026-04-18T14:46:30.923Z</time></trkpt><trkpt lat="43.5190886" lon="12.2771489"><ele>549.0</ele><time>2026-04-18T14:46:31.922Z</time></trkpt><trkpt lat="43.5190914" lon="12.277019"><ele>549.0</ele><time>2026-04-18T14:46:32.923Z</time></trkpt><trkpt lat="43.5190873" lon="12.2768694"><ele>549.0</ele><time>2026-04-18T14:46:33.922Z</time></trkpt><trkpt lat="43.5190935" lon="12.2767529"><ele>548.0</ele><time>2026-04-18T14:46:34.921Z</time></trkpt><trkpt lat="43.5190651" lon="12.2766032"><ele>547.0</ele><time>2026-04-18T14:46:35.922Z</time></trkpt><trkpt lat="43.5190614" lon="12.2764505"><ele>546.0</ele><time>2026-04-18T14:46:36.922Z</time></trkpt><trkpt lat="43.5190728" lon="12.2763216"><ele>545.0</ele><time>2026-04-18T14:46:37.921Z</time></trkpt><trkpt lat="43.5190791" lon="12.2761991"><ele>544.0</ele><time>2026-04-18T14:46:38.921Z</time></trkpt><trkpt lat="43.5191143" lon="12.2761134"><ele>543.4</ele><time>2026-04-18T14:46:39.922Z</time></trkpt><trkpt lat="43.5191619" lon="12.2760035"><ele>542.8</ele><time>2026-04-18T14:46:40.922Z</time></trkpt><trkpt lat="43.5192186" lon="12.2759591"><ele>542.2</ele><time>2026-04-18T14:46:41.923Z</time></trkpt><trkpt lat="43.5193559" lon="12.275901"><ele>541.6</ele><time>2026-04-18T14:46:43.921Z</time></trkpt><trkpt lat="43.5194404" lon="12.2758858"><ele>541.0</ele><time>2026-04-18T14:46:44.922Z</time></trkpt><trkpt lat="43.5195178" lon="12.2758587"><ele>539.8333333333334</ele><time>2026-04-18T14:46:45.922Z</time></trkpt><trkpt lat="43.5196037" lon="12.2758231"><ele>538.6666666666667</ele><time>2026-04-18T14:46:46.922Z</time></trkpt><trkpt lat="43.5196692" lon="12.2757957"><ele>537.5</ele><time>2026-04-18T14:46:47.923Z</time></trkpt><trkpt lat="43.519739" lon="12.2757846"><ele>536.3333333333334</ele><time>2026-04-18T14:46:48.922Z</time></trkpt><trkpt lat="43.519828" lon="12.2757722"><ele>535.1666666666666</ele><time>2026-04-18T14:46:49.922Z</time></trkpt><trkpt lat="43.5199237" lon="12.2757637"><ele>534.0</ele><time>2026-04-18T14:46:50.923Z</time></trkpt><trkpt lat="43.520014" lon="12.2757394"><ele>534.0</ele><time>2026-04-18T14:46:51.921Z</time></trkpt><trkpt lat="43.5201147" lon="12.2757257"><ele>534.0</ele><time>2026-04-18T14:46:52.923Z</time></trkpt><trkpt lat="43.5201837" lon="12.2757007"><ele>534.0</ele><time>2026-04-18T14:46:53.922Z</time></trkpt><trkpt lat="43.5202638" lon="12.2756833"><ele>534.0</ele><time>2026-04-18T14:46:54.921Z</time></trkpt><trkpt lat="43.5203341" lon="12.2756437"><ele>534.0</ele><time>2026-04-18T14:46:55.922Z</time></trkpt><trkpt lat="43.5203335" lon="12.2755158"><ele>534.0</ele><time>2026-04-18T14:46:56.922Z</time></trkpt><trkpt lat="43.520343" lon="12.2754293"><ele>533.4</ele><time>2026-04-18T14:46:57.922Z</time></trkpt><trkpt lat="43.5203642" lon="12.2753328"><ele>532.8</ele><time>2026-04-18T14:46:58.922Z</time></trkpt><trkpt lat="43.5204177" lon="12.2752152"><ele>532.2</ele><time>2026-04-18T14:46:59.922Z</time></trkpt><trkpt lat="43.52047" lon="12.2750629"><ele>531.6</ele><time>2026-04-18T14:47:00.922Z</time></trkpt><trkpt lat="43.5205278" lon="12.2749433"><ele>531.0</ele><time>2026-04-18T14:47:01.922Z</time></trkpt><trkpt lat="43.5205827" lon="12.274821"><ele>530.0</ele><time>2026-04-18T14:47:02.923Z</time></trkpt><trkpt lat="43.5206354" lon="12.2747099"><ele>529.0</ele><time>2026-04-18T14:47:03.921Z</time></trkpt><trkpt lat="43.5206681" lon="12.2746076"><ele>528.0</ele><time>2026-04-18T14:47:04.922Z</time></trkpt><trkpt lat="43.520687" lon="12.2744942"><ele>527.0</ele><time>2026-04-18T14:47:05.923Z</time></trkpt><trkpt lat="43.5207126" lon="12.2743592"><ele>526.0</ele><time>2026-04-18T14:47:06.921Z</time></trkpt><trkpt lat="43.5207272" lon="12.2742288"><ele>526.0</ele><time>2026-04-18T14:47:07.923Z</time></trkpt><trkpt lat="43.5207424" lon="12.2740888"><ele>526.0</ele><time>2026-04-18T14:47:08.922Z</time></trkpt><trkpt lat="43.5207481" lon="12.2739156"><ele>526.0</ele><time>2026-04-18T14:47:09.922Z</time></trkpt><trkpt lat="43.5207737" lon="12.2737797"><ele>526.0</ele><time>2026-04-18T14:47:10.922Z</time></trkpt><trkpt lat="43.5207948" lon="12.2736216"><ele>526.0</ele><time>2026-04-18T14:47:11.923Z</time></trkpt><trkpt lat="43.5208351" lon="12.2734663"><ele>525.6</ele><time>2026-04-18T14:47:12.922Z</time></trkpt><trkpt lat="43.5208785" lon="12.2733323"><ele>525.2</ele><time>2026-04-18T14:47:13.921Z</time></trkpt><trkpt lat="43.5209213" lon="12.2731972"><ele>524.8</ele><time>2026-04-18T14:47:14.921Z</time></trkpt><trkpt lat="43.5209631" lon="12.2730634"><ele>524.4</ele><time>2026-04-18T14:47:15.922Z</time></trkpt><trkpt lat="43.5209951" lon="12.2729311"><ele>524.0</ele><time>2026-04-18T14:47:16.922Z</time></trkpt><trkpt lat="43.5210105" lon="12.2728045"><ele>523.8</ele><time>2026-04-18T14:47:17.921Z</time></trkpt><trkpt lat="43.5210176" lon="12.2726758"><ele>523.5999999999999</ele><time>2026-04-18T14:47:18.923Z</time></trkpt><trkpt lat="43.521024" lon="12.2725456"><ele>523.4</ele><time>2026-04-18T14:47:19.923Z</time></trkpt><trkpt lat="43.5210221" lon="12.2723952"><ele>523.1999999999999</ele><time>2026-04-18T14:47:20.922Z</time></trkpt><trkpt lat="43.5210179" lon="12.2722515"><ele>523.0</ele><time>2026-04-18T14:47:21.921Z</time></trkpt><trkpt lat="43.521003" lon="12.2721271"><ele>522.3333333333334</ele><time>2026-04-18T14:47:22.921Z</time></trkpt><trkpt lat="43.5209821" lon="12.2720156"><ele>521.6666666666667</ele><time>2026-04-18T14:47:23.923Z</time></trkpt><trkpt lat="43.5209396" lon="12.2719149"><ele>521.0</ele><time>2026-04-18T14:47:24.921Z</time></trkpt><trkpt lat="43.520894" lon="12.2718331"><ele>520.3333333333334</ele><time>2026-04-18T14:47:25.922Z</time></trkpt><trkpt lat="43.5208257" lon="12.271768"><ele>519.6666666666666</ele><time>2026-04-18T14:47:26.923Z</time></trkpt><trkpt lat="43.5207536" lon="12.2716948"><ele>519.0</ele><time>2026-04-18T14:47:27.923Z</time></trkpt><trkpt lat="43.5206483" lon="12.2716062"><ele>519.0</ele><time>2026-04-18T14:47:28.923Z</time></trkpt><trkpt lat="43.5205618" lon="12.2715295"><ele>519.0</ele><time>2026-04-18T14:47:29.923Z</time></trkpt><trkpt lat="43.5204931" lon="12.2714636"><ele>519.0</ele><time>2026-04-18T14:47:30.923Z</time></trkpt><trkpt lat="43.5204054" lon="12.271381"><ele>519.0</ele><time>2026-04-18T14:47:32.922Z</time></trkpt><trkpt lat="43.5203263" lon="12.2713047"><ele>519.0</ele><time>2026-04-18T14:47:34.921Z</time></trkpt><trkpt lat="43.5202567" lon="12.2712489"><ele>518.0</ele><time>2026-04-18T14:47:36.922Z</time></trkpt><trkpt lat="43.5201957" lon="12.2711756"><ele>517.0</ele><time>2026-04-18T14:47:38.923Z</time></trkpt><trkpt lat="43.5201441" lon="12.2710945"><ele>516.0</ele><time>2026-04-18T14:47:41.922Z</time></trkpt><trkpt lat="43.5202049" lon="12.2711613"><ele>515.0</ele><time>2026-04-18T14:47:51.922Z</time></trkpt><trkpt lat="43.5202819" lon="12.271272"><ele>514.0</ele><time>2026-04-18T14:47:53.923Z</time></trkpt><trkpt lat="43.5203431" lon="12.2713337"><ele>513.0</ele><time>2026-04-18T14:47:54.923Z</time></trkpt><trkpt lat="43.5204111" lon="12.2713996"><ele>514.0</ele><time>2026-04-18T14:47:55.922Z</time></trkpt><trkpt lat="43.5204708" lon="12.271466"><ele>515.0</ele><time>2026-04-18T14:47:56.921Z</time></trkpt><trkpt lat="43.520535" lon="12.2715449"><ele>516.0</ele><time>2026-04-18T14:47:57.921Z</time></trkpt><trkpt lat="43.5205947" lon="12.2716177"><ele>517.0</ele><time>2026-04-18T14:47:58.922Z</time></trkpt><trkpt lat="43.5206532" lon="12.2716933"><ele>518.0</ele><time>2026-04-18T14:47:59.922Z</time></trkpt><trkpt lat="43.5207168" lon="12.2717144"><ele>519.0</ele><time>2026-04-18T14:48:00.922Z</time></trkpt><trkpt lat="43.5208129" lon="12.2717094"><ele>519.0</ele><time>2026-04-18T14:48:02.923Z</time></trkpt><trkpt lat="43.5209088" lon="12.2716466"><ele>519.0</ele><time>2026-04-18T14:48:04.922Z</time></trkpt><trkpt lat="43.520994" lon="12.2715953"><ele>519.0</ele><time>2026-04-18T14:48:06.921Z</time></trkpt><trkpt lat="43.5210672" lon="12.2715913"><ele>519.0</ele><time>2026-04-18T14:48:07.923Z</time></trkpt><trkpt lat="43.5211699" lon="12.2716048"><ele>519.0</ele><time>2026-04-18T14:48:09.922Z</time></trkpt><trkpt lat="43.5212407" lon="12.2716289"><ele>519.0</ele><time>2026-04-18T14:48:10.922Z</time></trkpt><trkpt lat="43.5213092" lon="12.2716333"><ele>517.8</ele><time>2026-04-18T14:48:11.921Z</time></trkpt><trkpt lat="43.5213803" lon="12.2717207"><ele>516.5999999999999</ele><time>2026-04-18T14:48:13.921Z</time></trkpt><trkpt lat="43.5215233" lon="12.2717555"><ele>515.4</ele><time>2026-04-18T14:48:15.923Z</time></trkpt><trkpt lat="43.5215978" lon="12.2717687"><ele>514.1999999999999</ele><time>2026-04-18T14:48:17.921Z</time></trkpt><trkpt lat="43.5216874" lon="12.271827"><ele>513.0</ele><time>2026-04-18T14:48:19.922Z</time></trkpt><trkpt lat="43.5217617" lon="12.2718967"><ele>513.0</ele><time>2026-04-18T14:48:20.922Z</time></trkpt><trkpt lat="43.5218182" lon="12.2719415"><ele>513.0</ele><time>2026-04-18T14:48:21.922Z</time></trkpt><trkpt lat="43.5218742" lon="12.2719846"><ele>513.0</ele><time>2026-04-18T14:48:22.923Z</time></trkpt><trkpt lat="43.5220753" lon="12.2721235"><ele>513.0</ele><time>2026-04-18T14:48:24.921Z</time></trkpt><trkpt lat="43.5221752" lon="12.2721486"><ele>511.6666666666667</ele><time>2026-04-18T14:48:25.921Z</time></trkpt><trkpt lat="43.5222689" lon="12.2721852"><ele>510.33333333333337</ele><time>2026-04-18T14:48:26.923Z</time></trkpt><trkpt lat="43.5223486" lon="12.2721568"><ele>509.0</ele><time>2026-04-18T14:48:27.922Z</time></trkpt><trkpt lat="43.5224295" lon="12.2721428"><ele>507.6666666666667</ele><time>2026-04-18T14:48:28.922Z</time></trkpt><trkpt lat="43.5224946" lon="12.2721215"><ele>506.33333333333337</ele><time>2026-04-18T14:48:31.923Z</time></trkpt><trkpt lat="43.5225382" lon="12.2720398"><ele>505.0</ele><time>2026-04-18T14:48:33.921Z</time></trkpt><trkpt lat="43.5226386" lon="12.2720091"><ele>505.0</ele><time>2026-04-18T14:48:36.921Z</time></trkpt><trkpt lat="43.5227853" lon="12.2720662"><ele>505.0</ele><time>2026-04-18T14:48:37.921Z</time></trkpt><trkpt lat="43.5229081" lon="12.2721151"><ele>505.0</ele><time>2026-04-18T14:48:38.923Z</time></trkpt><trkpt lat="43.5229984" lon="12.2721365"><ele>505.0</ele><time>2026-04-18T14:48:39.921Z</time></trkpt><trkpt lat="43.5230994" lon="12.2721502"><ele>504.2</ele><time>2026-04-18T14:48:40.922Z</time></trkpt><trkpt lat="43.5231735" lon="12.2721311"><ele>503.4</ele><time>2026-04-18T14:48:41.923Z</time></trkpt><trkpt lat="43.5232849" lon="12.2720883"><ele>502.6</ele><time>2026-04-18T14:48:43.923Z</time></trkpt><trkpt lat="43.5233547" lon="12.2720538"><ele>501.8</ele><time>2026-04-18T14:48:44.922Z</time></trkpt><trkpt lat="43.5234464" lon="12.2720218"><ele>501.0</ele><time>2026-04-18T14:48:45.921Z</time></trkpt><trkpt lat="43.5235522" lon="12.2720023"><ele>501.0</ele><time>2026-04-18T14:48:46.923Z</time></trkpt><trkpt lat="43.5236521" lon="12.2719822"><ele>501.0</ele><time>2026-04-18T14:48:47.922Z</time></trkpt><trkpt lat="43.5237521" lon="12.2719805"><ele>501.0</ele><time>2026-04-18T14:48:48.922Z</time></trkpt><trkpt lat="43.5238194" lon="12.2719695"><ele>501.0</ele><time>2026-04-18T14:48:49.923Z</time></trkpt><trkpt lat="43.5238953" lon="12.2719435"><ele>501.0</ele><time>2026-04-18T14:48:50.922Z</time></trkpt><trkpt lat="43.5239711" lon="12.2718729"><ele>501.0</ele><time>2026-04-18T14:48:51.922Z</time></trkpt><trkpt lat="43.5240005" lon="12.2717824"><ele>499.8333333333333</ele><time>2026-04-18T14:48:52.923Z</time></trkpt><trkpt lat="43.5240567" lon="12.2717155"><ele>498.66666666666663</ele><time>2026-04-18T14:48:53.922Z</time></trkpt><trkpt lat="43.5241154" lon="12.2716535"><ele>497.5</ele><time>2026-04-18T14:48:54.923Z</time></trkpt><trkpt lat="43.5241754" lon="12.2715923"><ele>496.3333333333333</ele><time>2026-04-18T14:48:55.921Z</time></trkpt><trkpt lat="43.5242035" lon="12.2714884"><ele>495.16666666666663</ele><time>2026-04-18T14:48:57.922Z</time></trkpt><trkpt lat="43.5242789" lon="12.2713916"><ele>494.0</ele><time>2026-04-18T14:48:59.922Z</time></trkpt><trkpt lat="43.5243344" lon="12.2713003"><ele>492.0</ele><time>2026-04-18T14:49:01.922Z</time></trkpt><trkpt lat="43.5243623" lon="12.2711433"><ele>490.0</ele><time>2026-04-18T14:49:03.921Z</time></trkpt><trkpt lat="43.5243562" lon="12.2710485"><ele>488.0</ele><time>2026-04-18T14:49:04.923Z</time></trkpt><trkpt lat="43.524325" lon="12.2708754"><ele>486.0</ele><time>2026-04-18T14:49:06.923Z</time></trkpt><trkpt lat="43.5243226" lon="12.2706621"><ele>482.75</ele><time>2026-04-18T14:49:08.923Z</time></trkpt><trkpt lat="43.5243024" lon="12.2705342"><ele>479.5</ele><time>2026-04-18T14:49:10.922Z</time></trkpt><trkpt lat="43.5242363" lon="12.2702998"><ele>476.25</ele><time>2026-04-18T14:49:13.922Z</time></trkpt><trkpt lat="43.5241914" lon="12.2702032"><ele>473.0</ele><time>2026-04-18T14:49:15.921Z</time></trkpt><trkpt lat="43.5241581" lon="12.2700811"><ele>473.0</ele><time>2026-04-18T14:49:17.922Z</time></trkpt><trkpt lat="43.5241402" lon="12.2699452"><ele>472.99999999999994</ele><time>2026-04-18T14:49:19.922Z</time></trkpt><trkpt lat="43.5240142" lon="12.2698744"><ele>472.99999999999994</ele><time>2026-04-18T14:49:20.922Z</time></trkpt><trkpt lat="43.5239765" lon="12.2698001"><ele>473.0</ele><time>2026-04-18T14:49:21.923Z</time></trkpt><trkpt lat="43.5239259" lon="12.2697368"><ele>473.0</ele><time>2026-04-18T14:49:22.923Z</time></trkpt><trkpt lat="43.5238218" lon="12.269665"><ele>469.75</ele><time>2026-04-18T14:49:24.922Z</time></trkpt><trkpt lat="43.523701" lon="12.2696407"><ele>466.5</ele><time>2026-04-18T14:49:26.921Z</time></trkpt><trkpt lat="43.5235888" lon="12.2695762"><ele>463.25</ele><time>2026-04-18T14:49:29.922Z</time></trkpt><trkpt lat="43.5234742" lon="12.2694652"><ele>460.0</ele><time>2026-04-18T14:49:31.923Z</time></trkpt><trkpt lat="43.5233712" lon="12.2693799"><ele>460.00000000000006</ele><time>2026-04-18T14:49:33.922Z</time></trkpt><trkpt lat="43.52331" lon="12.2692858"><ele>460.0</ele><time>2026-04-18T14:49:35.923Z</time></trkpt><trkpt lat="43.5234087" lon="12.2691692"><ele>460.0</ele><time>2026-04-18T14:49:37.923Z</time></trkpt><trkpt lat="43.5234846" lon="12.26916"><ele>460.0</ele><time>2026-04-18T14:49:40.921Z</time></trkpt><trkpt lat="43.5235559" lon="12.2691478"><ele>460.00000000000006</ele><time>2026-04-18T14:49:42.921Z</time></trkpt><trkpt lat="43.5236323" lon="12.269178"><ele>460.0</ele><time>2026-04-18T14:49:44.923Z</time></trkpt><trkpt lat="43.5237102" lon="12.2691677"><ele>458.1666666666667</ele><time>2026-04-18T14:49:46.922Z</time></trkpt><trkpt lat="43.5237791" lon="12.2691474"><ele>456.33333333333337</ele><time>2026-04-18T14:49:48.922Z</time></trkpt><trkpt lat="43.5238475" lon="12.2691408"><ele>454.5</ele><time>2026-04-18T14:49:50.922Z</time></trkpt><trkpt lat="43.5239174" lon="12.2691526"><ele>452.66666666666663</ele><time>2026-04-18T14:49:52.921Z</time></trkpt><trkpt lat="43.5240288" lon="12.2691936"><ele>450.8333333333333</ele><time>2026-04-18T14:49:54.923Z</time></trkpt><trkpt lat="43.5241216" lon="12.2692252"><ele>449.0</ele><time>2026-04-18T14:49:56.923Z</time></trkpt><trkpt lat="43.5241847" lon="12.2692547"><ele>449.0</ele><time>2026-04-18T14:49:57.922Z</time></trkpt><trkpt lat="43.5242994" lon="12.2692859"><ele>449.0</ele><time>2026-04-18T14:49:59.922Z</time></trkpt><trkpt lat="43.5243944" lon="12.2693954"><ele>449.0</ele><time>2026-04-18T14:50:01.923Z</time></trkpt><trkpt lat="43.5244561" lon="12.2694235"><ele>449.0</ele><time>2026-04-18T14:50:02.922Z</time></trkpt><trkpt lat="43.5245225" lon="12.2694426"><ele>449.0</ele><time>2026-04-18T14:50:03.922Z</time></trkpt><trkpt lat="43.5246152" lon="12.2694693"><ele>444.4</ele><time>2026-04-18T14:50:05.921Z</time></trkpt><trkpt lat="43.5247306" lon="12.2695328"><ele>439.79999999999995</ele><time>2026-04-18T14:50:07.922Z</time></trkpt><trkpt lat="43.524826" lon="12.2695697"><ele>435.20000000000005</ele><time>2026-04-18T14:50:10.921Z</time></trkpt><trkpt lat="43.524926" lon="12.2696457"><ele>430.6</ele><time>2026-04-18T14:50:13.922Z</time></trkpt><trkpt lat="43.5250122" lon="12.2697152"><ele>426.0</ele><time>2026-04-18T14:50:15.922Z</time></trkpt><trkpt lat="43.5250744" lon="12.2697335"><ele>426.0</ele><time>2026-04-18T14:50:16.921Z</time></trkpt><trkpt lat="43.5251363" lon="12.269752"><ele>426.0</ele><time>2026-04-18T14:50:17.923Z</time></trkpt><trkpt lat="43.525199" lon="12.2697767"><ele>426.0</ele><time>2026-04-18T14:50:18.923Z</time></trkpt><trkpt lat="43.5252677" lon="12.2697973"><ele>426.0</ele><time>2026-04-18T14:50:19.921Z</time></trkpt><trkpt lat="43.5253959" lon="12.2698207"><ele>426.0</ele><time>2026-04-18T14:50:21.922Z</time></trkpt><trkpt lat="43.5255113" lon="12.2698219"><ele>426.0</ele><time>2026-04-18T14:50:23.923Z</time></trkpt><trkpt lat="43.5256093" lon="12.2698291"><ele>427.0</ele><time>2026-04-18T14:50:24.923Z</time></trkpt><trkpt lat="43.5256753" lon="12.2698421"><ele>428.0</ele><time>2026-04-18T14:50:25.921Z</time></trkpt><trkpt lat="43.5258158" lon="12.2698647"><ele>429.0</ele><time>2026-04-18T14:50:27.922Z</time></trkpt><trkpt lat="43.525881" lon="12.2698582"><ele>430.0</ele><time>2026-04-18T14:50:28.921Z</time></trkpt><trkpt lat="43.525963" lon="12.2698077"><ele>431.0</ele><time>2026-04-18T14:50:30.921Z</time></trkpt><trkpt lat="43.526005" lon="12.2697426"><ele>432.0</ele><time>2026-04-18T14:50:31.922Z</time></trkpt><trkpt lat="43.5260695" lon="12.2696316"><ele>429.0</ele><time>2026-04-18T14:50:33.922Z</time></trkpt><trkpt lat="43.5261002" lon="12.2695409"><ele>426.00000000000006</ele><time>2026-04-18T14:50:35.921Z</time></trkpt><trkpt lat="43.5260666" lon="12.2694625"><ele>423.0</ele><time>2026-04-18T14:50:36.922Z</time></trkpt><trkpt lat="43.5259656" lon="12.2694053"><ele>420.0</ele><time>2026-04-18T14:50:39.921Z</time></trkpt><trkpt lat="43.5258763" lon="12.269355"><ele>417.0</ele><time>2026-04-18T14:50:41.922Z</time></trkpt><trkpt lat="43.5257693" lon="12.2692821"><ele>417.0</ele><time>2026-04-18T14:50:43.922Z</time></trkpt><trkpt lat="43.5256974" lon="12.2691743"><ele>417.0</ele><time>2026-04-18T14:50:45.922Z</time></trkpt><trkpt lat="43.5256171" lon="12.2690396"><ele>417.0</ele><time>2026-04-18T14:50:47.923Z</time></trkpt><trkpt lat="43.5255726" lon="12.2689195"><ele>417.0</ele><time>2026-04-18T14:50:49.922Z</time></trkpt><trkpt lat="43.5255309" lon="12.2687732"><ele>417.0</ele><time>2026-04-18T14:50:51.922Z</time></trkpt><trkpt lat="43.5254966" lon="12.2686414"><ele>416.1666666666667</ele><time>2026-04-18T14:50:53.921Z</time></trkpt><trkpt lat="43.5254466" lon="12.2685107"><ele>415.33333333333337</ele><time>2026-04-18T14:50:55.922Z</time></trkpt><trkpt lat="43.5253887" lon="12.2683937"><ele>414.5</ele><time>2026-04-18T14:50:57.923Z</time></trkpt><trkpt lat="43.5253485" lon="12.268325"><ele>413.6666666666667</ele><time>2026-04-18T14:51:00.923Z</time></trkpt><trkpt lat="43.5252978" lon="12.2682476"><ele>412.83333333333337</ele><time>2026-04-18T14:51:03.923Z</time></trkpt><trkpt lat="43.5252353" lon="12.2682014"><ele>412.0</ele><time>2026-04-18T14:51:05.922Z</time></trkpt><trkpt lat="43.5252468" lon="12.2681133"><ele>412.0</ele><time>2026-04-18T14:51:07.923Z</time></trkpt><trkpt lat="43.5253119" lon="12.2680684"><ele>412.0</ele><time>2026-04-18T14:51:09.921Z</time></trkpt><trkpt lat="43.525408" lon="12.268114"><ele>412.0</ele><time>2026-04-18T14:51:10.921Z</time></trkpt><trkpt lat="43.5255335" lon="12.2680661"><ele>412.0</ele><time>2026-04-18T14:51:12.923Z</time></trkpt><trkpt lat="43.5256206" lon="12.2680375"><ele>412.0</ele><time>2026-04-18T14:51:13.923Z</time></trkpt><trkpt lat="43.5256889" lon="12.2679914"><ele>414.00000000000006</ele><time>2026-04-18T14:51:14.921Z</time></trkpt><trkpt lat="43.5257387" lon="12.2678618"><ele>416.0</ele><time>2026-04-18T14:51:16.923Z</time></trkpt><trkpt lat="43.5257414" lon="12.2677285"><ele>418.0</ele><time>2026-04-18T14:51:18.923Z</time></trkpt><trkpt lat="43.5257469" lon="12.2676385"><ele>420.0</ele><time>2026-04-18T14:51:21.921Z</time></trkpt><trkpt lat="43.5257862" lon="12.2675325"><ele>422.00000000000006</ele><time>2026-04-18T14:51:24.922Z</time></trkpt><trkpt lat="43.5258476" lon="12.2675651"><ele>424.0</ele><time>2026-04-18T14:51:25.922Z</time></trkpt><trkpt lat="43.525963" lon="12.267601"><ele>424.00000000000006</ele><time>2026-04-18T14:51:27.922Z</time></trkpt><trkpt lat="43.5260284" lon="12.2675845"><ele>424.0</ele><time>2026-04-18T14:51:28.923Z</time></trkpt><trkpt lat="43.5261011" lon="12.2675623"><ele>424.0</ele><time>2026-04-18T14:51:29.922Z</time></trkpt><trkpt lat="43.5261863" lon="12.2675482"><ele>424.0</ele><time>2026-04-18T14:51:30.922Z</time></trkpt><trkpt lat="43.526272" lon="12.2675419"><ele>424.00000000000006</ele><time>2026-04-18T14:51:31.922Z</time></trkpt><trkpt lat="43.5263514" lon="12.2675489"><ele>424.0</ele><time>2026-04-18T14:51:32.922Z</time></trkpt><trkpt lat="43.5264238" lon="12.2675682"><ele>424.1666666666667</ele><time>2026-04-18T14:51:33.922Z</time></trkpt><trkpt lat="43.5264835" lon="12.2676063"><ele>424.33333333333337</ele><time>2026-04-18T14:51:34.922Z</time></trkpt><trkpt lat="43.5265576" lon="12.2676795"><ele>424.5</ele><time>2026-04-18T14:51:36.921Z</time></trkpt><trkpt lat="43.5266357" lon="12.2677227"><ele>424.66666666666663</ele><time>2026-04-18T14:51:38.922Z</time></trkpt><trkpt lat="43.5267275" lon="12.2677371"><ele>424.8333333333333</ele><time>2026-04-18T14:51:40.922Z</time></trkpt><trkpt lat="43.5267942" lon="12.267738"><ele>425.0</ele><time>2026-04-18T14:51:42.922Z</time></trkpt><trkpt lat="43.5268818" lon="12.2677394"><ele>424.99999999999994</ele><time>2026-04-18T14:52:17.922Z</time></trkpt><trkpt lat="43.5269684" lon="12.2677079"><ele>425.0</ele><time>2026-04-18T14:52:18.921Z</time></trkpt><trkpt lat="43.5270402" lon="12.2677115"><ele>425.0</ele><time>2026-04-18T14:52:19.923Z</time></trkpt><trkpt lat="43.5271069" lon="12.2676889"><ele>425.0</ele><time>2026-04-18T14:52:20.921Z</time></trkpt><trkpt lat="43.527181" lon="12.2676537"><ele>424.99999999999994</ele><time>2026-04-18T14:52:21.922Z</time></trkpt><trkpt lat="43.527281" lon="12.2676209"><ele>425.0</ele><time>2026-04-18T14:52:23.922Z</time></trkpt><trkpt lat="43.5273775" lon="12.2676524"><ele>426.16666666666663</ele><time>2026-04-18T14:52:25.922Z</time></trkpt><trkpt lat="43.5274401" lon="12.2676696"><ele>427.3333333333333</ele><time>2026-04-18T14:52:26.921Z</time></trkpt><trkpt lat="43.5275323" lon="12.2677071"><ele>428.5</ele><time>2026-04-18T14:52:27.922Z</time></trkpt><trkpt lat="43.527607" lon="12.2677308"><ele>429.66666666666663</ele><time>2026-04-18T14:52:28.923Z</time></trkpt><trkpt lat="43.5276866" lon="12.2677486"><ele>430.8333333333333</ele><time>2026-04-18T14:52:29.922Z</time></trkpt><trkpt lat="43.5277728" lon="12.2677815"><ele>432.0</ele><time>2026-04-18T14:52:30.923Z</time></trkpt><trkpt lat="43.5278595" lon="12.2677656"><ele>433.3333333333333</ele><time>2026-04-18T14:52:31.922Z</time></trkpt><trkpt lat="43.5279319" lon="12.2677902"><ele>434.66666666666663</ele><time>2026-04-18T14:52:32.922Z</time></trkpt><trkpt lat="43.5279751" lon="12.2678579"><ele>436.0</ele><time>2026-04-18T14:52:33.922Z</time></trkpt><trkpt lat="43.5280542" lon="12.2679139"><ele>437.3333333333333</ele><time>2026-04-18T14:52:34.921Z</time></trkpt><trkpt lat="43.5281222" lon="12.2679618"><ele>438.66666666666663</ele><time>2026-04-18T14:52:35.923Z</time></trkpt><trkpt lat="43.5281898" lon="12.2679905"><ele>440.0</ele><time>2026-04-18T14:52:36.921Z</time></trkpt><trkpt lat="43.5283612" lon="12.2679628"><ele>440.0</ele><time>2026-04-18T14:52:37.922Z</time></trkpt><trkpt lat="43.5285185" lon="12.2679584"><ele>440.0</ele><time>2026-04-18T14:52:38.922Z</time></trkpt><trkpt lat="43.5286592" lon="12.267965"><ele>440.0</ele><time>2026-04-18T14:52:39.922Z</time></trkpt><trkpt lat="43.5287857" lon="12.2679719"><ele>440.0</ele><time>2026-04-18T14:52:40.922Z</time></trkpt><trkpt lat="43.5289108" lon="12.2679848"><ele>442.6</ele><time>2026-04-18T14:52:41.922Z</time></trkpt><trkpt lat="43.5290477" lon="12.2680074"><ele>445.2</ele><time>2026-04-18T14:52:43.921Z</time></trkpt><trkpt lat="43.5291412" lon="12.2680226"><ele>447.79999999999995</ele><time>2026-04-18T14:52:44.922Z</time></trkpt><trkpt lat="43.5292242" lon="12.2681156"><ele>450.4</ele><time>2026-04-18T14:52:46.922Z</time></trkpt><trkpt lat="43.5293132" lon="12.2681165"><ele>453.0</ele><time>2026-04-18T14:52:47.921Z</time></trkpt><trkpt lat="43.5293901" lon="12.2680964"><ele>453.3333333333333</ele><time>2026-04-18T14:52:48.922Z</time></trkpt><trkpt lat="43.5294882" lon="12.2680856"><ele>453.66666666666663</ele><time>2026-04-18T14:52:49.922Z</time></trkpt><trkpt lat="43.529558" lon="12.2680591"><ele>454.0</ele><time>2026-04-18T14:52:50.922Z</time></trkpt><trkpt lat="43.5296332" lon="12.2680229"><ele>454.3333333333333</ele><time>2026-04-18T14:52:51.922Z</time></trkpt><trkpt lat="43.529702" lon="12.2680035"><ele>454.66666666666663</ele><time>2026-04-18T14:52:52.922Z</time></trkpt><trkpt lat="43.5297781" lon="12.2679762"><ele>455.0</ele><time>2026-04-18T14:52:53.922Z</time></trkpt><trkpt lat="43.5298719" lon="12.2679732"><ele>458.49999999999994</ele><time>2026-04-18T14:52:54.922Z</time></trkpt><trkpt lat="43.5299671" lon="12.2679693"><ele>462.0</ele><time>2026-04-18T14:52:55.923Z</time></trkpt><trkpt lat="43.5300469" lon="12.2679687"><ele>465.5</ele><time>2026-04-18T14:52:56.922Z</time></trkpt><trkpt lat="43.5301314" lon="12.2679622"><ele>469.0</ele><time>2026-04-18T14:52:57.922Z</time></trkpt><trkpt lat="43.5302077" lon="12.267958"><ele>472.49999999999994</ele><time>2026-04-18T14:52:58.923Z</time></trkpt><trkpt lat="43.5302663" lon="12.2679001"><ele>476.0</ele><time>2026-04-18T14:52:59.921Z</time></trkpt><trkpt lat="43.5303444" lon="12.2677629"><ele>479.8333333333333</ele><time>2026-04-18T14:53:01.922Z</time></trkpt><trkpt lat="43.5304089" lon="12.2676592"><ele>483.66666666666663</ele><time>2026-04-18T14:53:02.921Z</time></trkpt><trkpt lat="43.5304683" lon="12.2675989"><ele>487.5</ele><time>2026-04-18T14:53:03.923Z</time></trkpt><trkpt lat="43.5305285" lon="12.2675577"><ele>491.33333333333337</ele><time>2026-04-18T14:53:04.921Z</time></trkpt><trkpt lat="43.5306051" lon="12.2675619"><ele>495.1666666666667</ele><time>2026-04-18T14:53:05.921Z</time></trkpt><trkpt lat="43.5307115" lon="12.2676255"><ele>499.0</ele><time>2026-04-18T14:53:07.922Z</time></trkpt><trkpt lat="43.5307496" lon="12.2677261"><ele>499.00000000000006</ele><time>2026-04-18T14:53:08.922Z</time></trkpt><trkpt lat="43.5308273" lon="12.2677893"><ele>499.0</ele><time>2026-04-18T14:53:09.922Z</time></trkpt><trkpt lat="43.5308484" lon="12.2679115"><ele>499.0</ele><time>2026-04-18T14:53:10.922Z</time></trkpt><trkpt lat="43.5308971" lon="12.2679741"><ele>499.0</ele><time>2026-04-18T14:53:11.922Z</time></trkpt><trkpt lat="43.5309482" lon="12.2680802"><ele>499.00000000000006</ele><time>2026-04-18T14:53:13.921Z</time></trkpt><trkpt lat="43.5309854" lon="12.2681833"><ele>499.0</ele><time>2026-04-18T14:53:14.921Z</time></trkpt><trkpt lat="43.530991" lon="12.26833"><ele>499.4</ele><time>2026-04-18T14:53:16.923Z</time></trkpt><trkpt lat="43.5310502" lon="12.2684573"><ele>499.79999999999995</ele><time>2026-04-18T14:53:18.923Z</time></trkpt><trkpt lat="43.5310897" lon="12.2685999"><ele>500.20000000000005</ele><time>2026-04-18T14:53:20.922Z</time></trkpt><trkpt lat="43.5312123" lon="12.2686034"><ele>500.6</ele><time>2026-04-18T14:53:22.922Z</time></trkpt><trkpt lat="43.5312873" lon="12.2685734"><ele>501.0</ele><time>2026-04-18T14:53:24.921Z</time></trkpt><trkpt lat="43.5313432" lon="12.2684664"><ele>505.0</ele><time>2026-04-18T14:53:26.922Z</time></trkpt><trkpt lat="43.5313044" lon="12.2683739"><ele>509.0</ele><time>2026-04-18T14:53:27.923Z</time></trkpt><trkpt lat="43.5312857" lon="12.2682367"><ele>513.0</ele><time>2026-04-18T14:53:29.922Z</time></trkpt><trkpt lat="43.5313365" lon="12.2681057"><ele>517.0</ele><time>2026-04-18T14:53:31.921Z</time></trkpt><trkpt lat="43.5313985" lon="12.2680235"><ele>521.0</ele><time>2026-04-18T14:53:33.922Z</time></trkpt><trkpt lat="43.5314974" lon="12.2679234"><ele>521.0</ele><time>2026-04-18T14:53:35.922Z</time></trkpt><trkpt lat="43.5315949" lon="12.2678375"><ele>521.0</ele><time>2026-04-18T14:53:37.923Z</time></trkpt><trkpt lat="43.5317355" lon="12.2678019"><ele>521.0</ele><time>2026-04-18T14:53:39.923Z</time></trkpt><trkpt lat="43.5318277" lon="12.2677881"><ele>521.0</ele><time>2026-04-18T14:53:41.922Z</time></trkpt><trkpt lat="43.5318672" lon="12.2678591"><ele>521.0</ele><time>2026-04-18T14:53:43.921Z</time></trkpt><trkpt lat="43.5319424" lon="12.2679584"><ele>521.0</ele><time>2026-04-18T14:53:45.922Z</time></trkpt><trkpt lat="43.5320281" lon="12.2680174"><ele>521.0</ele><time>2026-04-18T14:53:46.922Z</time></trkpt><trkpt lat="43.5321242" lon="12.2680402"><ele>521.0</ele><time>2026-04-18T14:53:47.921Z</time></trkpt><trkpt lat="43.5321852" lon="12.2680108"><ele>521.0</ele><time>2026-04-18T14:53:48.923Z</time></trkpt><trkpt lat="43.5322674" lon="12.2680083"><ele>521.0</ele><time>2026-04-18T14:53:49.922Z</time></trkpt><trkpt lat="43.5323385" lon="12.2679871"><ele>521.0</ele><time>2026-04-18T14:53:50.922Z</time></trkpt><trkpt lat="43.5324487" lon="12.2679234"><ele>524.6666666666666</ele><time>2026-04-18T14:53:52.922Z</time></trkpt><trkpt lat="43.5325349" lon="12.2678995"><ele>528.3333333333333</ele><time>2026-04-18T14:53:54.923Z</time></trkpt><trkpt lat="43.5326123" lon="12.2679073"><ele>532.0</ele><time>2026-04-18T14:53:56.922Z</time></trkpt><trkpt lat="43.5326558" lon="12.2679993"><ele>535.6666666666666</ele><time>2026-04-18T14:53:57.923Z</time></trkpt><trkpt lat="43.5327188" lon="12.2680118"><ele>539.3333333333334</ele><time>2026-04-18T14:53:58.922Z</time></trkpt><trkpt lat="43.5327828" lon="12.2680373"><ele>543.0</ele><time>2026-04-18T14:53:59.922Z</time></trkpt><trkpt lat="43.5328805" lon="12.2680009"><ele>547.4</ele><time>2026-04-18T14:54:01.922Z</time></trkpt><trkpt lat="43.5329576" lon="12.267969"><ele>551.8</ele><time>2026-04-18T14:54:03.922Z</time></trkpt><trkpt lat="43.5330626" lon="12.267972"><ele>556.2</ele><time>2026-04-18T14:54:05.922Z</time></trkpt><trkpt lat="43.5332052" lon="12.2679954"><ele>560.6</ele><time>2026-04-18T14:54:07.922Z</time></trkpt><trkpt lat="43.533268" lon="12.26801"><ele>565.0</ele><time>2026-04-18T14:54:08.921Z</time></trkpt><trkpt lat="43.5333878" lon="12.268018"><ele>565.0</ele><time>2026-04-18T14:54:10.922Z</time></trkpt><trkpt lat="43.533455" lon="12.2680147"><ele>565.0</ele><time>2026-04-18T14:54:11.921Z</time></trkpt><trkpt lat="43.5335209" lon="12.2679494"><ele>565.0</ele><time>2026-04-18T14:54:12.922Z</time></trkpt><trkpt lat="43.5336008" lon="12.2679031"><ele>565.0</ele><time>2026-04-18T14:54:13.921Z</time></trkpt><trkpt lat="43.5336945" lon="12.2679195"><ele>565.0</ele><time>2026-04-18T14:54:15.922Z</time></trkpt><trkpt lat="43.533792" lon="12.2679033"><ele>565.0</ele><time>2026-04-18T14:54:17.921Z</time></trkpt><trkpt lat="43.5338829" lon="12.267887"><ele>568.6666666666667</ele><time>2026-04-18T14:54:19.923Z</time></trkpt><trkpt lat="43.5339731" lon="12.2678221"><ele>572.3333333333334</ele><time>2026-04-18T14:54:21.921Z</time></trkpt><trkpt lat="43.5340393" lon="12.2678086"><ele>576.0</ele><time>2026-04-18T14:54:22.921Z</time></trkpt><trkpt lat="43.5341257" lon="12.2677917"><ele>579.6666666666666</ele><time>2026-04-18T14:54:23.922Z</time></trkpt><trkpt lat="43.5342463" lon="12.2678138"><ele>583.3333333333333</ele><time>2026-04-18T14:54:25.922Z</time></trkpt><trkpt lat="43.5343109" lon="12.2678483"><ele>587.0</ele><time>2026-04-18T14:54:26.922Z</time></trkpt><trkpt lat="43.5343334" lon="12.2679469"><ele>587.0</ele><time>2026-04-18T14:54:27.923Z</time></trkpt><trkpt lat="43.5343889" lon="12.2679964"><ele>587.0</ele><time>2026-04-18T14:54:28.922Z</time></trkpt><trkpt lat="43.5345267" lon="12.2680676"><ele>587.0</ele><time>2026-04-18T14:54:30.921Z</time></trkpt><trkpt lat="43.5346333" lon="12.2680804"><ele>587.0</ele><time>2026-04-18T14:54:31.921Z</time></trkpt><trkpt lat="43.5347" lon="12.2680929"><ele>587.0</ele><time>2026-04-18T14:54:32.923Z</time></trkpt><trkpt lat="43.5347839" lon="12.2681273"><ele>590.8333333333333</ele><time>2026-04-18T14:54:33.921Z</time></trkpt><trkpt lat="43.534862" lon="12.268159"><ele>594.6666666666666</ele><time>2026-04-18T14:54:34.922Z</time></trkpt><trkpt lat="43.5349277" lon="12.2682104"><ele>598.5</ele><time>2026-04-18T14:54:35.922Z</time></trkpt><trkpt lat="43.5350046" lon="12.2682384"><ele>602.3333333333334</ele><time>2026-04-18T14:54:36.921Z</time></trkpt><trkpt lat="43.5350818" lon="12.2682412"><ele>606.1666666666667</ele><time>2026-04-18T14:54:37.921Z</time></trkpt><trkpt lat="43.5351611" lon="12.2682513"><ele>610.0</ele><time>2026-04-18T14:54:38.923Z</time></trkpt><trkpt lat="43.5352382" lon="12.2682365"><ele>610.0</ele><time>2026-04-18T14:54:39.923Z</time></trkpt><trkpt lat="43.5353702" lon="12.268198"><ele>610.0</ele><time>2026-04-18T14:54:41.923Z</time></trkpt><trkpt lat="43.535443" lon="12.2681755"><ele>610.0</ele><time>2026-04-18T14:54:42.921Z</time></trkpt><trkpt lat="43.5355074" lon="12.2681535"><ele>610.0</ele><time>2026-04-18T14:54:43.922Z</time></trkpt><trkpt lat="43.5356199" lon="12.2681123"><ele>610.0</ele><time>2026-04-18T14:54:45.921Z</time></trkpt><trkpt lat="43.5357263" lon="12.2680679"><ele>612.3333333333334</ele><time>2026-04-18T14:54:47.922Z</time></trkpt><trkpt lat="43.5357883" lon="12.2680082"><ele>614.6666666666667</ele><time>2026-04-18T14:54:48.921Z</time></trkpt><trkpt lat="43.5358522" lon="12.2679537"><ele>617.0</ele><time>2026-04-18T14:54:49.922Z</time></trkpt><trkpt lat="43.5359215" lon="12.2679139"><ele>619.3333333333334</ele><time>2026-04-18T14:54:50.922Z</time></trkpt><trkpt lat="43.5359746" lon="12.2678137"><ele>621.6666666666666</ele><time>2026-04-18T14:54:51.922Z</time></trkpt><trkpt lat="43.5360866" lon="12.2677468"><ele>624.0</ele><time>2026-04-18T14:54:53.921Z</time></trkpt><trkpt lat="43.536171" lon="12.2677662"><ele>624.6</ele><time>2026-04-18T14:54:55.922Z</time></trkpt><trkpt lat="43.5362522" lon="12.2678281"><ele>625.2</ele><time>2026-04-18T14:54:57.922Z</time></trkpt><trkpt lat="43.5363184" lon="12.2678649"><ele>625.8000000000001</ele><time>2026-04-18T14:54:59.922Z</time></trkpt><trkpt lat="43.5363979" lon="12.26782"><ele>626.4</ele><time>2026-04-18T14:56:05.923Z</time></trkpt><trkpt lat="43.5365459" lon="12.2678357"><ele>627.0</ele><time>2026-04-18T14:56:07.921Z</time></trkpt><trkpt lat="43.5366579" lon="12.2678924"><ele>627.0</ele><time>2026-04-18T14:56:09.921Z</time></trkpt><trkpt lat="43.5367284" lon="12.2679326"><ele>627.0</ele><time>2026-04-18T14:56:10.922Z</time></trkpt><trkpt lat="43.5367998" lon="12.2679566"><ele>627.0</ele><time>2026-04-18T14:56:11.921Z</time></trkpt><trkpt lat="43.5368963" lon="12.2679604"><ele>627.0</ele><time>2026-04-18T14:56:13.922Z</time></trkpt><trkpt lat="43.5369898" lon="12.2679358"><ele>627.0</ele><time>2026-04-18T14:56:15.922Z</time></trkpt><trkpt lat="43.5370851" lon="12.2678739"><ele>627.0</ele><time>2026-04-18T14:56:17.922Z</time></trkpt><trkpt lat="43.5371453" lon="12.2678124"><ele>627.0</ele><time>2026-04-18T14:56:18.922Z</time></trkpt><trkpt lat="43.5372559" lon="12.2677521"><ele>627.0</ele><time>2026-04-18T14:56:20.922Z</time></trkpt><trkpt lat="43.537367" lon="12.2677153"><ele>627.0</ele><time>2026-04-18T14:56:22.922Z</time></trkpt><trkpt lat="43.5374193" lon="12.2676366"><ele>627.0</ele><time>2026-04-18T14:56:23.921Z</time></trkpt><trkpt lat="43.5374812" lon="12.2676538"><ele>627.0</ele><time>2026-04-18T14:56:24.921Z</time></trkpt><trkpt lat="43.5375793" lon="12.2676164"><ele>627.0</ele><time>2026-04-18T14:56:26.921Z</time></trkpt><trkpt lat="43.5376799" lon="12.2675653"><ele>627.0</ele><time>2026-04-18T14:56:28.921Z</time></trkpt><trkpt lat="43.5377601" lon="12.2675191"><ele>627.0</ele><time>2026-04-18T14:56:30.922Z</time></trkpt><trkpt lat="43.5378569" lon="12.2675175"><ele>627.0</ele><time>2026-04-18T14:56:32.922Z</time></trkpt><trkpt lat="43.5378957" lon="12.2674187"><ele>627.0</ele><time>2026-04-18T14:56:36.922Z</time></trkpt><trkpt lat="43.5379837" lon="12.2673453"><ele>624.5</ele><time>2026-04-18T14:56:37.922Z</time></trkpt><trkpt lat="43.5380929" lon="12.2672669"><ele>622.0</ele><time>2026-04-18T14:56:39.921Z</time></trkpt><trkpt lat="43.5382116" lon="12.2672331"><ele>619.5</ele><time>2026-04-18T14:56:41.922Z</time></trkpt><trkpt lat="43.5383235" lon="12.2671944"><ele>617.0</ele><time>2026-04-18T14:56:43.923Z</time></trkpt><trkpt lat="43.5384245" lon="12.2670846"><ele>617.0</ele><time>2026-04-18T14:56:45.921Z</time></trkpt><trkpt lat="43.5385011" lon="12.2670258"><ele>617.0</ele><time>2026-04-18T14:56:46.923Z</time></trkpt><trkpt lat="43.5385729" lon="12.2669069"><ele>617.0</ele><time>2026-04-18T14:56:48.921Z</time></trkpt><trkpt lat="43.5385889" lon="12.2668025"><ele>617.0</ele><time>2026-04-18T14:56:49.923Z</time></trkpt><trkpt lat="43.538621" lon="12.2667144"><ele>617.0</ele><time>2026-04-18T14:56:50.922Z</time></trkpt><trkpt lat="43.5386399" lon="12.2666002"><ele>617.0</ele><time>2026-04-18T14:56:51.921Z</time></trkpt><trkpt lat="43.5386652" lon="12.2664884"><ele>616.6666666666666</ele><time>2026-04-18T14:56:52.922Z</time></trkpt><trkpt lat="43.5386857" lon="12.2663713"><ele>616.3333333333333</ele><time>2026-04-18T14:56:53.922Z</time></trkpt><trkpt lat="43.538702" lon="12.2662673"><ele>616.0</ele><time>2026-04-18T14:56:54.922Z</time></trkpt><trkpt lat="43.5387232" lon="12.2661804"><ele>615.6666666666666</ele><time>2026-04-18T14:56:55.923Z</time></trkpt><trkpt lat="43.5387559" lon="12.2660245"><ele>615.3333333333334</ele><time>2026-04-18T14:56:57.923Z</time></trkpt><trkpt lat="43.5387563" lon="12.2659026"><ele>615.0</ele><time>2026-04-18T14:56:59.921Z</time></trkpt><trkpt lat="43.5387957" lon="12.2658275"><ele>616.8333333333334</ele><time>2026-04-18T14:57:01.923Z</time></trkpt><trkpt lat="43.5388734" lon="12.2658246"><ele>618.6666666666666</ele><time>2026-04-18T14:57:04.922Z</time></trkpt><trkpt lat="43.5389092" lon="12.2659377"><ele>620.5</ele><time>2026-04-18T14:57:06.922Z</time></trkpt><trkpt lat="43.5389618" lon="12.2660839"><ele>622.3333333333333</ele><time>2026-04-18T14:57:08.922Z</time></trkpt><trkpt lat="43.5389815" lon="12.2661682"><ele>624.1666666666666</ele><time>2026-04-18T14:57:09.922Z</time></trkpt><trkpt lat="43.5390024" lon="12.2662534"><ele>626.0</ele><time>2026-04-18T14:57:10.922Z</time></trkpt><trkpt lat="43.5390147" lon="12.2663618"><ele>626.0</ele><time>2026-04-18T14:57:11.923Z</time></trkpt><trkpt lat="43.5390574" lon="12.2664969"><ele>626.0</ele><time>2026-04-18T14:57:13.922Z</time></trkpt><trkpt lat="43.5391184" lon="12.2666046"><ele>626.0</ele><time>2026-04-18T14:57:15.922Z</time></trkpt><trkpt lat="43.5391915" lon="12.2666113"><ele>626.0</ele><time>2026-04-18T14:57:17.922Z</time></trkpt><trkpt lat="43.5392544" lon="12.2664869"><ele>626.0</ele><time>2026-04-18T14:57:19.921Z</time></trkpt><trkpt lat="43.539305" lon="12.2663305"><ele>626.0</ele><time>2026-04-18T14:57:21.922Z</time></trkpt><trkpt lat="43.5393306" lon="12.26624"><ele>626.0</ele><time>2026-04-18T14:57:22.921Z</time></trkpt><trkpt lat="43.5393517" lon="12.2661532"><ele>626.0</ele><time>2026-04-18T14:57:23.921Z</time></trkpt><trkpt lat="43.5393714" lon="12.2659898"><ele>626.0</ele><time>2026-04-18T14:57:25.923Z</time></trkpt><trkpt lat="43.5393765" lon="12.2658557"><ele>626.0</ele><time>2026-04-18T14:57:28.92Z</time></trkpt><trkpt lat="43.539375" lon="12.2657409"><ele>626.0</ele><time>2026-04-18T14:57:31.92Z</time></trkpt><trkpt lat="43.539387" lon="12.2655869"><ele>624.6</ele><time>2026-04-18T14:57:32.922Z</time></trkpt><trkpt lat="43.5393958" lon="12.2654881"><ele>623.2</ele><time>2026-04-18T14:57:34.921Z</time></trkpt><trkpt lat="43.5393869" lon="12.2653098"><ele>621.8</ele><time>2026-04-18T14:57:36.921Z</time></trkpt><trkpt lat="43.5393749" lon="12.2651492"><ele>620.4</ele><time>2026-04-18T14:57:38.92Z</time></trkpt><trkpt lat="43.5393413" lon="12.2650043"><ele>619.0</ele><time>2026-04-18T14:57:40.92Z</time></trkpt><trkpt lat="43.5393308" lon="12.2649136"><ele>619.0</ele><time>2026-04-18T14:57:41.922Z</time></trkpt><trkpt lat="43.539319" lon="12.2648258"><ele>619.0</ele><time>2026-04-18T14:57:42.921Z</time></trkpt><trkpt lat="43.5393103" lon="12.264737"><ele>619.0</ele><time>2026-04-18T14:57:43.921Z</time></trkpt><trkpt lat="43.5393047" lon="12.2646173"><ele>619.0</ele><time>2026-04-18T14:57:44.92Z</time></trkpt><trkpt lat="43.5393076" lon="12.2644466"><ele>619.0</ele><time>2026-04-18T14:57:46.922Z</time></trkpt><trkpt lat="43.5393097" lon="12.2642575"><ele>618.8333333333334</ele><time>2026-04-18T14:57:48.921Z</time></trkpt><trkpt lat="43.5393016" lon="12.2641501"><ele>618.6666666666667</ele><time>2026-04-18T14:57:49.922Z</time></trkpt><trkpt lat="43.539322" lon="12.2640653"><ele>618.5</ele><time>2026-04-18T14:57:50.921Z</time></trkpt><trkpt lat="43.5393733" lon="12.2639089"><ele>618.3333333333334</ele><time>2026-04-18T14:57:52.921Z</time></trkpt><trkpt lat="43.5394082" lon="12.2638262"><ele>618.1666666666666</ele><time>2026-04-18T14:57:53.921Z</time></trkpt><trkpt lat="43.5394571" lon="12.2637355"><ele>618.0</ele><time>2026-04-18T14:57:54.92Z</time></trkpt><trkpt lat="43.5395039" lon="12.2636673"><ele>616.8</ele><time>2026-04-18T14:57:55.92Z</time></trkpt><trkpt lat="43.5396007" lon="12.2635711"><ele>615.5999999999999</ele><time>2026-04-18T14:57:57.921Z</time></trkpt><trkpt lat="43.5397029" lon="12.2634623"><ele>614.4000000000001</ele><time>2026-04-18T14:57:59.921Z</time></trkpt><trkpt lat="43.5397509" lon="12.2634048"><ele>613.2</ele><time>2026-04-18T14:58:00.921Z</time></trkpt><trkpt lat="43.5398107" lon="12.2632916"><ele>612.0</ele><time>2026-04-18T14:58:02.921Z</time></trkpt><trkpt lat="43.5398036" lon="12.2631192"><ele>612.6</ele><time>2026-04-18T14:58:04.922Z</time></trkpt><trkpt lat="43.5397684" lon="12.2629909"><ele>613.2</ele><time>2026-04-18T14:58:06.921Z</time></trkpt><trkpt lat="43.5397518" lon="12.2628656"><ele>613.8</ele><time>2026-04-18T14:58:08.92Z</time></trkpt><trkpt lat="43.5397415" lon="12.2627124"><ele>614.4</ele><time>2026-04-18T14:58:10.921Z</time></trkpt><trkpt lat="43.5397264" lon="12.2626236"><ele>615.0</ele><time>2026-04-18T14:58:11.922Z</time></trkpt><trkpt lat="43.5397377" lon="12.2624916"><ele>615.0</ele><time>2026-04-18T14:58:13.922Z</time></trkpt><trkpt lat="43.5397851" lon="12.2623577"><ele>615.0</ele><time>2026-04-18T14:58:15.921Z</time></trkpt><trkpt lat="43.539829" lon="12.262233"><ele>615.0</ele><time>2026-04-18T14:58:17.921Z</time></trkpt><trkpt lat="43.5398615" lon="12.2621502"><ele>615.0</ele><time>2026-04-18T14:58:18.922Z</time></trkpt><trkpt lat="43.5399048" lon="12.2620719"><ele>615.0</ele><time>2026-04-18T14:58:19.921Z</time></trkpt><trkpt lat="43.539993" lon="12.2619142"><ele>616.0</ele><time>2026-04-18T14:58:21.922Z</time></trkpt><trkpt lat="43.5400875" lon="12.2617868"><ele>617.0</ele><time>2026-04-18T14:58:23.921Z</time></trkpt><trkpt lat="43.5401729" lon="12.261706"><ele>618.0</ele><time>2026-04-18T14:58:25.92Z</time></trkpt><trkpt lat="43.5402666" lon="12.2616239"><ele>619.0</ele><time>2026-04-18T14:58:27.922Z</time></trkpt><trkpt lat="43.5403674" lon="12.2615157"><ele>619.0</ele><time>2026-04-18T14:58:29.922Z</time></trkpt><trkpt lat="43.5404994" lon="12.2614253"><ele>603.0</ele><time>2026-04-18T14:58:31.921Z</time></trkpt><trkpt lat="43.540569" lon="12.2614028"><ele>603.0</ele><time>2026-04-18T14:58:32.921Z</time></trkpt></trkseg></trk></gpx>